<?xml version='1.0' encoding='UTF-8'?><gpx version="1.1" creator="JPX - https://github.com/jenetics/jpx" xmlns="http://www.topografix.com/GPX/1/1"><trk><trkseg><trkpt lat="40.92783317511978" lon="14.04221122353109"><ele>19.0</ele><time>2026-04-24T07:13:16.999Z</time></trkpt><trkpt lat="40.92789500935656" lon="14.042265616978247"><ele>19.0</ele><time>2026-04-24T07:13:20.999Z</time></trkpt><trkpt lat="40.927833371529665" lon="14.042229634832344"><ele>19.0</ele><time>2026-04-24T07:13:35.999Z</time></trkpt><trkpt lat="40.92783040389854" lon="14.042326428940155"><ele>19.0</ele><time>2026-04-24T07:13:38.999Z</time></trkpt><trkpt lat="40.927843265190134" lon="14.04241570555484"><ele>19.0</ele><time>2026-04-24T07:13:39.999Z</time></trkpt><trkpt lat="40.927848196330594" lon="14.042501457703576"><ele>19.0</ele><time>2026-04-24T07:13:40.999Z</time></trkpt><trkpt lat="40.92786382209926" lon="14.042650227134676"><ele>19.333333333333332</ele><time>2026-04-24T07:13:42.999Z</time></trkpt><trkpt lat="40.92787908495958" lon="14.042746423513217"><ele>19.666666666666664</ele><time>2026-04-24T07:13:43.998Z</time></trkpt><trkpt lat="40.92789961492115" lon="14.042833414835824"><ele>20.0</ele><time>2026-04-24T07:13:44.998Z</time></trkpt><trkpt lat="40.92792514448115" lon="14.042986099295169"><ele>20.333333333333332</ele><time>2026-04-24T07:13:46.998Z</time></trkpt><trkpt lat="40.92794610295722" lon="14.043088511041374"><ele>20.666666666666668</ele><time>2026-04-24T07:13:47.998Z</time></trkpt><trkpt lat="40.92795421346674" lon="14.043202449664978"><ele>21.0</ele><time>2026-04-24T07:13:49.998Z</time></trkpt><trkpt lat="40.927980020548944" lon="14.043289123389647"><ele>21.0</ele><time>2026-04-24T07:13:52.998Z</time></trkpt><trkpt lat="40.92804879999231" lon="14.043345470148054"><ele>21.0</ele><time>2026-04-24T07:14:04.997Z</time></trkpt><trkpt lat="40.92814558254885" lon="14.043275622774033"><ele>21.0</ele><time>2026-04-24T07:14:41Z</time></trkpt><trkpt lat="40.928230275371526" lon="14.043214117396385"><ele>21.0</ele><time>2026-04-24T07:14:48.999Z</time></trkpt><trkpt lat="40.92829318650979" lon="14.043152368892104"><ele>21.0</ele><time>2026-04-24T07:14:49.999Z</time></trkpt><trkpt lat="40.92834788059917" lon="14.043107814845639"><ele>21.0</ele><time>2026-04-24T07:14:50.999Z</time></trkpt><trkpt lat="40.92842328289788" lon="14.043120971064095"><ele>21.4</ele><time>2026-04-24T07:14:51.999Z</time></trkpt><trkpt lat="40.928540120330986" lon="14.043089139724922"><ele>21.8</ele><time>2026-04-24T07:14:53.999Z</time></trkpt><trkpt lat="40.92866220594284" lon="14.043093025268954"><ele>22.2</ele><time>2026-04-24T07:14:55.999Z</time></trkpt><trkpt lat="40.928730767178536" lon="14.043098239859306"><ele>22.599999999999998</ele><time>2026-04-24T07:14:56.999Z</time></trkpt><trkpt lat="40.92881068433734" lon="14.043068858242354"><ele>23.0</ele><time>2026-04-24T07:14:57.999Z</time></trkpt><trkpt lat="40.92888860614887" lon="14.043038380499699"><ele>23.0</ele><time>2026-04-24T07:14:58.999Z</time></trkpt><trkpt lat="40.92895967160564" lon="14.043012506665043"><ele>23.0</ele><time>2026-04-24T07:14:59.999Z</time></trkpt><trkpt lat="40.92903354738149" lon="14.04298560954755"><ele>23.0</ele><time>2026-04-24T07:15:00.999Z</time></trkpt><trkpt lat="40.92910637255695" lon="14.042949130909339"><ele>23.0</ele><time>2026-04-24T07:15:01.999Z</time></trkpt><trkpt lat="40.929181177353236" lon="14.042898802831917"><ele>23.0</ele><time>2026-04-24T07:15:02.999Z</time></trkpt><trkpt lat="40.9292445941302" lon="14.042845459686134"><ele>23.0</ele><time>2026-04-24T07:15:03.999Z</time></trkpt><trkpt lat="40.92930539052692" lon="14.042791591512986"><ele>22.833333333333336</ele><time>2026-04-24T07:15:04.999Z</time></trkpt><trkpt lat="40.92936089467354" lon="14.042742178081758"><ele>22.666666666666668</ele><time>2026-04-24T07:15:05.999Z</time></trkpt><trkpt lat="40.929417043036466" lon="14.042692191123392"><ele>22.5</ele><time>2026-04-24T07:15:06.999Z</time></trkpt><trkpt lat="40.929477647996706" lon="14.042638236608944"><ele>22.333333333333332</ele><time>2026-04-24T07:15:07.999Z</time></trkpt><trkpt lat="40.929546398423604" lon="14.042577891474888"><ele>22.166666666666664</ele><time>2026-04-24T07:15:08.999Z</time></trkpt><trkpt lat="40.92964330592596" lon="14.042492837414017"><ele>22.0</ele><time>2026-04-24T07:15:09.999Z</time></trkpt><trkpt lat="40.929740558631316" lon="14.04240767834411"><ele>22.0</ele><time>2026-04-24T07:15:10.999Z</time></trkpt><trkpt lat="40.9298283815681" lon="14.042330825607301"><ele>22.0</ele><time>2026-04-24T07:15:11.999Z</time></trkpt><trkpt lat="40.92991962480475" lon="14.042250979820041"><ele>22.0</ele><time>2026-04-24T07:15:12.999Z</time></trkpt><trkpt lat="40.93000285631418" lon="14.042178144999435"><ele>22.0</ele><time>2026-04-24T07:15:13.999Z</time></trkpt><trkpt lat="40.93009251820707" lon="14.042096582308357"><ele>22.0</ele><time>2026-04-24T07:15:14.999Z</time></trkpt><trkpt lat="40.93014896769518" lon="14.04203385303423"><ele>22.0</ele><time>2026-04-24T07:15:15.999Z</time></trkpt><trkpt lat="40.93022153400521" lon="14.041975074438854"><ele>22.0</ele><time>2026-04-24T07:15:16.999Z</time></trkpt><trkpt lat="40.93028535391438" lon="14.041920260229926"><ele>22.0</ele><time>2026-04-24T07:15:17.999Z</time></trkpt><trkpt lat="40.93034725345984" lon="14.041875762680846"><ele>22.0</ele><time>2026-04-24T07:15:18.999Z</time></trkpt><trkpt lat="40.93044664705479" lon="14.041789432800684"><ele>22.0</ele><time>2026-04-24T07:15:20.999Z</time></trkpt><trkpt lat="40.93051662839938" lon="14.041726912798001"><ele>22.0</ele><time>2026-04-24T07:15:21.999Z</time></trkpt><trkpt lat="40.93058751021007" lon="14.041659051691939"><ele>21.5</ele><time>2026-04-24T07:15:22.999Z</time></trkpt><trkpt lat="40.93066695130822" lon="14.041588432222103"><ele>21.0</ele><time>2026-04-24T07:15:23.998Z</time></trkpt><trkpt lat="40.93073341291138" lon="14.041527157557812"><ele>20.5</ele><time>2026-04-24T07:15:24.998Z</time></trkpt><trkpt lat="40.930810558230746" lon="14.04147165704596"><ele>20.0</ele><time>2026-04-24T07:15:25.998Z</time></trkpt><trkpt lat="40.93087177006283" lon="14.041408383245967"><ele>19.5</ele><time>2026-04-24T07:15:26.998Z</time></trkpt><trkpt lat="40.93092843896988" lon="14.041360329363494"><ele>19.0</ele><time>2026-04-24T07:15:27.998Z</time></trkpt><trkpt lat="40.93100801823786" lon="14.041290139820276"><ele>17.8</ele><time>2026-04-24T07:15:29.998Z</time></trkpt><trkpt lat="40.93106940087731" lon="14.041230330943357"><ele>16.599999999999998</ele><time>2026-04-24T07:15:32.998Z</time></trkpt><trkpt lat="40.931197549741356" lon="14.04131230592157"><ele>15.4</ele><time>2026-04-24T07:15:51.998Z</time></trkpt><trkpt lat="40.93124940035116" lon="14.04136124444955"><ele>14.2</ele><time>2026-04-24T07:15:52.998Z</time></trkpt><trkpt lat="40.93132127164833" lon="14.041423957223277"><ele>13.0</ele><time>2026-04-24T07:15:53.998Z</time></trkpt><trkpt lat="40.93140759373177" lon="14.041494150531584"><ele>13.0</ele><time>2026-04-24T07:15:54.998Z</time></trkpt><trkpt lat="40.93148658002647" lon="14.041563058773951"><ele>13.0</ele><time>2026-04-24T07:15:55.998Z</time></trkpt><trkpt lat="40.931566744614955" lon="14.04163283411953"><ele>13.0</ele><time>2026-04-24T07:15:56.998Z</time></trkpt><trkpt lat="40.93165104349886" lon="14.041704714536314"><ele>13.0</ele><time>2026-04-24T07:15:57.998Z</time></trkpt><trkpt lat="40.931731912511864" lon="14.041772920264092"><ele>13.0</ele><time>2026-04-24T07:15:58.998Z</time></trkpt><trkpt lat="40.931818782167646" lon="14.04184781162674"><ele>13.75</ele><time>2026-04-24T07:15:59.998Z</time></trkpt><trkpt lat="40.93191527958019" lon="14.04192911935107"><ele>14.5</ele><time>2026-04-24T07:16:00.997Z</time></trkpt><trkpt lat="40.932018709002726" lon="14.042014244834144"><ele>15.25</ele><time>2026-04-24T07:16:01.997Z</time></trkpt><trkpt lat="40.93211481848026" lon="14.042093329324635"><ele>16.0</ele><time>2026-04-24T07:16:02.997Z</time></trkpt><trkpt lat="40.93220978974991" lon="14.042179702529157"><ele>16.0</ele><time>2026-04-24T07:16:03.997Z</time></trkpt><trkpt lat="40.93230638635293" lon="14.04226938345289"><ele>16.0</ele><time>2026-04-24T07:16:04.997Z</time></trkpt><trkpt lat="40.93241183262621" lon="14.04236855860212"><ele>16.0</ele><time>2026-04-24T07:16:05.997Z</time></trkpt><trkpt lat="40.93252643927141" lon="14.042481005991545"><ele>16.0</ele><time>2026-04-24T07:16:06.997Z</time></trkpt><trkpt lat="40.93264997361776" lon="14.04259235950646"><ele>15.25</ele><time>2026-04-24T07:16:07.997Z</time></trkpt><trkpt lat="40.9327679322408" lon="14.042702743215367"><ele>14.5</ele><time>2026-04-24T07:16:08.997Z</time></trkpt><trkpt lat="40.93288956851563" lon="14.042816635072684"><ele>13.75</ele><time>2026-04-24T07:16:09.997Z</time></trkpt><trkpt lat="40.933012303171786" lon="14.042943984654112"><ele>13.0</ele><time>2026-04-24T07:16:10.997Z</time></trkpt><trkpt lat="40.9331294428708" lon="14.043083626100278"><ele>13.0</ele><time>2026-04-24T07:16:11.997Z</time></trkpt><trkpt lat="40.93324243228013" lon="14.043227625730333"><ele>13.0</ele><time>2026-04-24T07:16:12.997Z</time></trkpt><trkpt lat="40.93334995146296" lon="14.043379242103171"><ele>13.0</ele><time>2026-04-24T07:16:13.997Z</time></trkpt><trkpt lat="40.933451460859125" lon="14.043536226337727"><ele>12.0</ele><time>2026-04-24T07:16:14.997Z</time></trkpt><trkpt lat="40.93354866387409" lon="14.043698291662485"><ele>11.0</ele><time>2026-04-24T07:16:15.997Z</time></trkpt><trkpt lat="40.93364609168526" lon="14.043874276574526"><ele>10.0</ele><time>2026-04-24T07:16:16.997Z</time></trkpt><trkpt lat="40.93373394734561" lon="14.044062391592588"><ele>11.666666666666668</ele><time>2026-04-24T07:16:17.997Z</time></trkpt><trkpt lat="40.933815055658435" lon="14.04424851528862"><ele>13.333333333333334</ele><time>2026-04-24T07:16:18.997Z</time></trkpt><trkpt lat="40.93389173775342" lon="14.04443699746003"><ele>15.0</ele><time>2026-04-24T07:16:19.997Z</time></trkpt><trkpt lat="40.93396010708365" lon="14.044621749895379"><ele>15.0</ele><time>2026-04-24T07:16:20.997Z</time></trkpt><trkpt lat="40.93402227401383" lon="14.044805758900669"><ele>15.0</ele><time>2026-04-24T07:16:21.997Z</time></trkpt><trkpt lat="40.93407473786603" lon="14.044995545366758"><ele>15.0</ele><time>2026-04-24T07:16:22.997Z</time></trkpt><trkpt lat="40.934123503062686" lon="14.045193533683065"><ele>16.666666666666668</ele><time>2026-04-24T07:16:23.997Z</time></trkpt><trkpt lat="40.93415688016898" lon="14.045391754244436"><ele>18.333333333333336</ele><time>2026-04-24T07:16:24.997Z</time></trkpt><trkpt lat="40.93418845516179" lon="14.045597840872118"><ele>20.0</ele><time>2026-04-24T07:16:25.999Z</time></trkpt><trkpt lat="40.93421704272663" lon="14.045801728343761"><ele>20.0</ele><time>2026-04-24T07:16:26.999Z</time></trkpt><trkpt lat="40.93424299846112" lon="14.045986970509983"><ele>20.0</ele><time>2026-04-24T07:16:27.999Z</time></trkpt><trkpt lat="40.93426257547873" lon="14.046148012793376"><ele>20.0</ele><time>2026-04-24T07:16:28.999Z</time></trkpt><trkpt lat="40.93427721518397" lon="14.04627292163821"><ele>20.0</ele><time>2026-04-24T07:16:29.999Z</time></trkpt><trkpt lat="40.934287843702315" lon="14.046380600575946"><ele>20.0</ele><time>2026-04-24T07:16:30.999Z</time></trkpt><trkpt lat="40.93429281444947" lon="14.046473033824471"><ele>20.0</ele><time>2026-04-24T07:16:31.999Z</time></trkpt><trkpt lat="40.93430529107744" lon="14.04661274365639"><ele>20.0</ele><time>2026-04-24T07:16:33.999Z</time></trkpt><trkpt lat="40.934420686158134" lon="14.046625722806661"><ele>20.0</ele><time>2026-04-24T07:16:38.999Z</time></trkpt><trkpt lat="40.93442040345854" lon="14.046537734022156"><ele>20.0</ele><time>2026-04-24T07:16:39.999Z</time></trkpt><trkpt lat="40.93439647513278" lon="14.046457659934184"><ele>20.0</ele><time>2026-04-24T07:16:40.999Z</time></trkpt><trkpt lat="40.93437786782548" lon="14.046290774171126"><ele>20.0</ele><time>2026-04-24T07:16:42.999Z</time></trkpt><trkpt lat="40.93437043343747" lon="14.046176512580578"><ele>20.0</ele><time>2026-04-24T07:16:43.999Z</time></trkpt><trkpt lat="40.934359031502034" lon="14.046052709905695"><ele>20.0</ele><time>2026-04-24T07:16:44.999Z</time></trkpt><trkpt lat="40.93434134059205" lon="14.045920597341436"><ele>20.0</ele><time>2026-04-24T07:16:45.999Z</time></trkpt><trkpt lat="40.934316583249775" lon="14.045774014699116"><ele>20.0</ele><time>2026-04-24T07:16:46.999Z</time></trkpt><trkpt lat="40.93429106037723" lon="14.045616279958832"><ele>20.0</ele><time>2026-04-24T07:16:47.999Z</time></trkpt><trkpt lat="40.93427233307771" lon="14.045461768071991"><ele>20.0</ele><time>2026-04-24T07:16:48.999Z</time></trkpt><trkpt lat="40.93424151653861" lon="14.04529876448992"><ele>20.0</ele><time>2026-04-24T07:16:49.999Z</time></trkpt><trkpt lat="40.934209767971474" lon="14.045132376490477"><ele>20.0</ele><time>2026-04-24T07:16:50.999Z</time></trkpt><trkpt lat="40.93416850697262" lon="14.04496513218681"><ele>18.75</ele><time>2026-04-24T07:16:51.999Z</time></trkpt><trkpt lat="40.93420123967267" lon="14.04476703295549"><ele>17.5</ele><time>2026-04-24T07:16:52.999Z</time></trkpt><trkpt lat="40.93416312325556" lon="14.044597121826515"><ele>16.25</ele><time>2026-04-24T07:16:53.999Z</time></trkpt><trkpt lat="40.934116372535875" lon="14.044430280403931"><ele>15.0</ele><time>2026-04-24T07:16:54.999Z</time></trkpt><trkpt lat="40.93406156423555" lon="14.04426148424972"><ele>13.75</ele><time>2026-04-24T07:16:55.999Z</time></trkpt><trkpt lat="40.93400744333695" lon="14.044088283200217"><ele>12.5</ele><time>2026-04-24T07:16:56.999Z</time></trkpt><trkpt lat="40.933961330347714" lon="14.043906813329771"><ele>11.25</ele><time>2026-04-24T07:16:57.999Z</time></trkpt><trkpt lat="40.93392448139245" lon="14.043719011403272"><ele>10.0</ele><time>2026-04-24T07:16:58.999Z</time></trkpt><trkpt lat="40.93389864312851" lon="14.043526623784244"><ele>10.0</ele><time>2026-04-24T07:16:59.999Z</time></trkpt><trkpt lat="40.93388059826358" lon="14.043343801276777"><ele>10.0</ele><time>2026-04-24T07:17:00.999Z</time></trkpt><trkpt lat="40.93386062657263" lon="14.043170794396989"><ele>10.0</ele><time>2026-04-24T07:17:01.999Z</time></trkpt><trkpt lat="40.93384058311173" lon="14.042998411195518"><ele>10.0</ele><time>2026-04-24T07:17:02.999Z</time></trkpt><trkpt lat="40.93381664716895" lon="14.042839774364593"><ele>8.75</ele><time>2026-04-24T07:17:03.999Z</time></trkpt><trkpt lat="40.933788138942" lon="14.042687599377976"><ele>7.5</ele><time>2026-04-24T07:17:04.999Z</time></trkpt><trkpt lat="40.933742836551545" lon="14.04254021411136"><ele>6.25</ele><time>2026-04-24T07:17:05.999Z</time></trkpt><trkpt lat="40.933672582452566" lon="14.042409889364663"><ele>5.0</ele><time>2026-04-24T07:17:06.999Z</time></trkpt><trkpt lat="40.933583057155225" lon="14.042304699947417"><ele>5.0</ele><time>2026-04-24T07:17:07.999Z</time></trkpt><trkpt lat="40.93347785391066" lon="14.042229425762965"><ele>5.0</ele><time>2026-04-24T07:17:08.999Z</time></trkpt><trkpt lat="40.93336759095135" lon="14.042157292252693"><ele>5.0</ele><time>2026-04-24T07:17:09.999Z</time></trkpt><trkpt lat="40.93326249083493" lon="14.042082689660182"><ele>5.0</ele><time>2026-04-24T07:17:10.999Z</time></trkpt><trkpt lat="40.93315482456623" lon="14.041996622091613"><ele>5.0</ele><time>2026-04-24T07:17:11.999Z</time></trkpt><trkpt lat="40.933053689227165" lon="14.04189826035484"><ele>5.0</ele><time>2026-04-24T07:17:12.999Z</time></trkpt><trkpt lat="40.93296016836903" lon="14.041790880727664"><ele>5.0</ele><time>2026-04-24T07:17:13.999Z</time></trkpt><trkpt lat="40.93287691437546" lon="14.041676754858226"><ele>5.0</ele><time>2026-04-24T07:17:14.999Z</time></trkpt><trkpt lat="40.93280695174797" lon="14.041540685197209"><ele>4.0</ele><time>2026-04-24T07:17:15.999Z</time></trkpt><trkpt lat="40.93275168828885" lon="14.041395856695019"><ele>3.0</ele><time>2026-04-24T07:17:16.999Z</time></trkpt><trkpt lat="40.93271115070535" lon="14.041243197166233"><ele>2.0</ele><time>2026-04-24T07:17:17.999Z</time></trkpt><trkpt lat="40.932683392959206" lon="14.041079017859223"><ele>1.0</ele><time>2026-04-24T07:17:18.999Z</time></trkpt><trkpt lat="40.93265581628929" lon="14.040905429158268"><ele>0.75</ele><time>2026-04-24T07:17:19.999Z</time></trkpt><trkpt lat="40.93263309012447" lon="14.04073852442282"><ele>0.5</ele><time>2026-04-24T07:17:20.999Z</time></trkpt><trkpt lat="40.932601652986094" lon="14.040575780804469"><ele>0.25</ele><time>2026-04-24T07:17:21.999Z</time></trkpt><trkpt lat="40.93257009201147" lon="14.04041537318761"><ele>0.0</ele><time>2026-04-24T07:17:22.999Z</time></trkpt><trkpt lat="40.932549364718874" lon="14.040252381521462"><ele>0.4</ele><time>2026-04-24T07:17:23.999Z</time></trkpt><trkpt lat="40.932525633119795" lon="14.040092421225342"><ele>0.8</ele><time>2026-04-24T07:17:24.999Z</time></trkpt><trkpt lat="40.932507457460254" lon="14.039953378911465"><ele>1.2000000000000002</ele><time>2026-04-24T07:17:25.999Z</time></trkpt><trkpt lat="40.93249112233917" lon="14.03982168327743"><ele>1.6</ele><time>2026-04-24T07:17:26.999Z</time></trkpt><trkpt lat="40.93247572539498" lon="14.039706312615676"><ele>2.0</ele><time>2026-04-24T07:17:27.999Z</time></trkpt><trkpt lat="40.932463664610864" lon="14.039611163748825"><ele>2.0</ele><time>2026-04-24T07:17:28.999Z</time></trkpt><trkpt lat="40.93245830580594" lon="14.03946200143758"><ele>2.0</ele><time>2026-04-24T07:17:30.998Z</time></trkpt><trkpt lat="40.93253956969602" lon="14.039340010682915"><ele>2.0</ele><time>2026-04-24T07:17:32.998Z</time></trkpt><trkpt lat="40.93262971724187" lon="14.03932018493722"><ele>2.0</ele><time>2026-04-24T07:17:33.998Z</time></trkpt><trkpt lat="40.93271541300397" lon="14.039305681151998"><ele>2.0</ele><time>2026-04-24T07:17:34.998Z</time></trkpt><trkpt lat="40.932799335742565" lon="14.039290067897204"><ele>1.2000000000000002</ele><time>2026-04-24T07:17:35.998Z</time></trkpt><trkpt lat="40.93288859229707" lon="14.039314743428399"><ele>0.40000000000000013</ele><time>2026-04-24T07:17:36.998Z</time></trkpt><trkpt lat="40.93297071621113" lon="14.039393360838217"><ele>-0.40000000000000013</ele><time>2026-04-24T07:17:37.998Z</time></trkpt><trkpt lat="40.93306877160312" lon="14.039460328045715"><ele>-1.2000000000000002</ele><time>2026-04-24T07:17:38.998Z</time></trkpt><trkpt lat="40.93318926871702" lon="14.03952169914946"><ele>-2.0</ele><time>2026-04-24T07:17:39.998Z</time></trkpt><trkpt lat="40.93329424275288" lon="14.039606122661192"><ele>-2.0</ele><time>2026-04-24T07:17:40.998Z</time></trkpt><trkpt lat="40.93340799763406" lon="14.039682603823382"><ele>-2.0</ele><time>2026-04-24T07:17:41.998Z</time></trkpt><trkpt lat="40.93352881356617" lon="14.039763658613065"><ele>-2.0</ele><time>2026-04-24T07:17:42.998Z</time></trkpt><trkpt lat="40.93365568584988" lon="14.039849702446398"><ele>-2.0</ele><time>2026-04-24T07:17:43.998Z</time></trkpt><trkpt lat="40.93378528852381" lon="14.039941741078978"><ele>-2.0</ele><time>2026-04-24T07:17:44.998Z</time></trkpt><trkpt lat="40.93391381321154" lon="14.040031788838277"><ele>-2.0</ele><time>2026-04-24T07:17:45.998Z</time></trkpt><trkpt lat="40.93403655527307" lon="14.0401460018216"><ele>-2.0</ele><time>2026-04-24T07:17:46.998Z</time></trkpt><trkpt lat="40.93418033222662" lon="14.040222962309082"><ele>-2.0</ele><time>2026-04-24T07:17:47.998Z</time></trkpt><trkpt lat="40.93431699351709" lon="14.040321392949872"><ele>-2.0</ele><time>2026-04-24T07:17:48.998Z</time></trkpt><trkpt lat="40.934451594186704" lon="14.040417302192221"><ele>-2.0</ele><time>2026-04-24T07:17:49.998Z</time></trkpt><trkpt lat="40.93458850566505" lon="14.040512703408924"><ele>-2.0</ele><time>2026-04-24T07:17:50.998Z</time></trkpt><trkpt lat="40.934733663743195" lon="14.040590602327702"><ele>-2.0</ele><time>2026-04-24T07:17:51.998Z</time></trkpt><trkpt lat="40.93488882207045" lon="14.040642277825333"><ele>-2.0</ele><time>2026-04-24T07:17:52.998Z</time></trkpt><trkpt lat="40.935050141563146" lon="14.040678217065935"><ele>-2.0</ele><time>2026-04-24T07:17:53.998Z</time></trkpt><trkpt lat="40.93521137872087" lon="14.040715114230373"><ele>-2.0</ele><time>2026-04-24T07:17:54.998Z</time></trkpt><trkpt lat="40.935376571039" lon="14.040759778522757"><ele>-2.0</ele><time>2026-04-24T07:17:55.998Z</time></trkpt><trkpt lat="40.93554170208697" lon="14.040803644357565"><ele>-2.0</ele><time>2026-04-24T07:17:56.998Z</time></trkpt><trkpt lat="40.93571204679386" lon="14.040847495821307"><ele>-2.0</ele><time>2026-04-24T07:17:57.998Z</time></trkpt><trkpt lat="40.93588304736533" lon="14.040891017945539"><ele>-2.0</ele><time>2026-04-24T07:17:58.998Z</time></trkpt><trkpt lat="40.936056316952964" lon="14.040935296590202"><ele>-2.0</ele><time>2026-04-24T07:17:59.998Z</time></trkpt><trkpt lat="40.93623020364974" lon="14.040982271981546"><ele>-2.0</ele><time>2026-04-24T07:18:00.998Z</time></trkpt><trkpt lat="40.93640673199048" lon="14.041031943063034"><ele>-2.0</ele><time>2026-04-24T07:18:01.998Z</time></trkpt><trkpt lat="40.936580389949796" lon="14.04108182134588"><ele>-2.0</ele><time>2026-04-24T07:18:02.998Z</time></trkpt><trkpt lat="40.93675413142938" lon="14.041125899816139"><ele>-2.0</ele><time>2026-04-24T07:18:03.998Z</time></trkpt><trkpt lat="40.93693282900968" lon="14.041168555210175"><ele>-2.0</ele><time>2026-04-24T07:18:04.998Z</time></trkpt><trkpt lat="40.9371124606586" lon="14.041207670311012"><ele>-2.0</ele><time>2026-04-24T07:18:05.998Z</time></trkpt><trkpt lat="40.937298642563384" lon="14.041244307589654"><ele>-2.0</ele><time>2026-04-24T07:18:06.998Z</time></trkpt><trkpt lat="40.93748301768269" lon="14.041280377859447"><ele>-2.0</ele><time>2026-04-24T07:18:07.998Z</time></trkpt><trkpt lat="40.93766861186517" lon="14.041315990395383"><ele>-2.0</ele><time>2026-04-24T07:18:08.998Z</time></trkpt><trkpt lat="40.93785651346944" lon="14.04134903796382"><ele>-2.0</ele><time>2026-04-24T07:18:09.998Z</time></trkpt><trkpt lat="40.93804508251634" lon="14.041375030300465"><ele>-2.0</ele><time>2026-04-24T07:18:10.998Z</time></trkpt><trkpt lat="40.938232036904914" lon="14.041392262615677"><ele>-2.0</ele><time>2026-04-24T07:18:11.998Z</time></trkpt><trkpt lat="40.93842033793777" lon="14.041403023997198"><ele>-2.0</ele><time>2026-04-24T07:18:12.998Z</time></trkpt><trkpt lat="40.938608356044845" lon="14.041405479971797"><ele>-2.0</ele><time>2026-04-24T07:18:13.997Z</time></trkpt><trkpt lat="40.93879455555716" lon="14.04140516767131"><ele>-2.0</ele><time>2026-04-24T07:18:14.997Z</time></trkpt><trkpt lat="40.93897847138479" lon="14.041399484728311"><ele>-2.0</ele><time>2026-04-24T07:18:15.997Z</time></trkpt><trkpt lat="40.93916085941946" lon="14.041387438784522"><ele>-2.0</ele><time>2026-04-24T07:18:16.997Z</time></trkpt><trkpt lat="40.93934058033208" lon="14.041366826412425"><ele>-1.6666666666666665</ele><time>2026-04-24T07:18:17.997Z</time></trkpt><trkpt lat="40.93952190293896" lon="14.041336196822"><ele>-1.3333333333333333</ele><time>2026-04-24T07:18:18.997Z</time></trkpt><trkpt lat="40.939702079547345" lon="14.041300915555794"><ele>-1.0</ele><time>2026-04-24T07:18:19.997Z</time></trkpt><trkpt lat="40.939880356911864" lon="14.041258084725227"><ele>-0.6666666666666666</ele><time>2026-04-24T07:18:20.997Z</time></trkpt><trkpt lat="40.940057016789254" lon="14.041208368259989"><ele>-0.3333333333333333</ele><time>2026-04-24T07:18:21.997Z</time></trkpt><trkpt lat="40.940233631764" lon="14.041156637654828"><ele>0.0</ele><time>2026-04-24T07:18:22.997Z</time></trkpt><trkpt lat="40.94041041852016" lon="14.041104937020835"><ele>0.0</ele><time>2026-04-24T07:18:23.997Z</time></trkpt><trkpt lat="40.9405853409032" lon="14.041050822867732"><ele>0.0</ele><time>2026-04-24T07:18:24.997Z</time></trkpt><trkpt lat="40.94075930022009" lon="14.04099563715002"><ele>0.0</ele><time>2026-04-24T07:18:25.997Z</time></trkpt><trkpt lat="40.94093468050645" lon="14.040937969126738"><ele>0.0</ele><time>2026-04-24T07:18:26.997Z</time></trkpt><trkpt lat="40.94111047255706" lon="14.040886383006692"><ele>0.0</ele><time>2026-04-24T07:18:27.997Z</time></trkpt><trkpt lat="40.941288536642865" lon="14.040835722461276"><ele>0.0</ele><time>2026-04-24T07:18:28.997Z</time></trkpt><trkpt lat="40.94146676911436" lon="14.040783365773317"><ele>-0.6666666666666666</ele><time>2026-04-24T07:18:29.997Z</time></trkpt><trkpt lat="40.94164326772131" lon="14.040730862196929"><ele>-1.3333333333333333</ele><time>2026-04-24T07:18:30.997Z</time></trkpt><trkpt lat="40.94182146718765" lon="14.04068037666884"><ele>-2.0</ele><time>2026-04-24T07:18:31.999Z</time></trkpt><trkpt lat="40.94199836371997" lon="14.040628401410787"><ele>-2.0</ele><time>2026-04-24T07:18:32.999Z</time></trkpt><trkpt lat="40.942167057884475" lon="14.040573534410502"><ele>-2.0</ele><time>2026-04-24T07:18:33.999Z</time></trkpt><trkpt lat="40.94233345016996" lon="14.04052092033516"><ele>-2.0</ele><time>2026-04-24T07:18:34.999Z</time></trkpt><trkpt lat="40.94250191468389" lon="14.040468657590772"><ele>-1.3333333333333333</ele><time>2026-04-24T07:18:35.999Z</time></trkpt><trkpt lat="40.94266685561184" lon="14.040413792611767"><ele>-0.6666666666666666</ele><time>2026-04-24T07:18:36.999Z</time></trkpt><trkpt lat="40.94283129661206" lon="14.040348269112153"><ele>0.0</ele><time>2026-04-24T07:18:37.999Z</time></trkpt><trkpt lat="40.94299464625133" lon="14.040271285137683"><ele>0.0</ele><time>2026-04-24T07:18:38.999Z</time></trkpt><trkpt lat="40.94314857844065" lon="14.040176528170091"><ele>0.0</ele><time>2026-04-24T07:18:39.999Z</time></trkpt><trkpt lat="40.943300996187624" lon="14.040070212620147"><ele>0.0</ele><time>2026-04-24T07:18:40.999Z</time></trkpt><trkpt lat="40.94344759940386" lon="14.039951587365469"><ele>0.6666666666666666</ele><time>2026-04-24T07:18:41.999Z</time></trkpt><trkpt lat="40.94359051829677" lon="14.03981997133027"><ele>1.3333333333333333</ele><time>2026-04-24T07:18:42.999Z</time></trkpt><trkpt lat="40.94372922431535" lon="14.039672174436454"><ele>2.0</ele><time>2026-04-24T07:18:43.999Z</time></trkpt><trkpt lat="40.9438601178526" lon="14.039513766800033"><ele>2.0</ele><time>2026-04-24T07:18:44.999Z</time></trkpt><trkpt lat="40.943986159271" lon="14.039342117415964"><ele>2.0</ele><time>2026-04-24T07:18:45.999Z</time></trkpt><trkpt lat="40.944109916834385" lon="14.039166617805863"><ele>2.0</ele><time>2026-04-24T07:18:46.999Z</time></trkpt><trkpt lat="40.944226045438405" lon="14.038989658015518"><ele>1.6666666666666665</ele><time>2026-04-24T07:18:47.999Z</time></trkpt><trkpt lat="40.94434262525651" lon="14.038812302953342"><ele>1.3333333333333333</ele><time>2026-04-24T07:18:48.999Z</time></trkpt><trkpt lat="40.94445968565739" lon="14.03864212382509"><ele>1.0</ele><time>2026-04-24T07:18:49.999Z</time></trkpt><trkpt lat="40.944579318497674" lon="14.038473505261834"><ele>0.6666666666666666</ele><time>2026-04-24T07:18:50.999Z</time></trkpt><trkpt lat="40.944695471307575" lon="14.03829712844473"><ele>0.3333333333333333</ele><time>2026-04-24T07:18:51.999Z</time></trkpt><trkpt lat="40.944812683441405" lon="14.038112732849742"><ele>0.0</ele><time>2026-04-24T07:18:52.999Z</time></trkpt><trkpt lat="40.94491080601126" lon="14.037915729893287"><ele>0.0</ele><time>2026-04-24T07:18:53.999Z</time></trkpt><trkpt lat="40.94498305776925" lon="14.037704953983832"><ele>0.0</ele><time>2026-04-24T07:18:54.999Z</time></trkpt><trkpt lat="40.945053955634506" lon="14.037495337992576"><ele>0.0</ele><time>2026-04-24T07:18:55.999Z</time></trkpt><trkpt lat="40.945138019977456" lon="14.037296241141776"><ele>-0.3333333333333333</ele><time>2026-04-24T07:18:56.999Z</time></trkpt><trkpt lat="40.94522321807014" lon="14.037095779993884"><ele>-0.6666666666666666</ele><time>2026-04-24T07:18:57.999Z</time></trkpt><trkpt lat="40.94530450208534" lon="14.036891303700731"><ele>-1.0</ele><time>2026-04-24T07:18:58.999Z</time></trkpt><trkpt lat="40.9453703334847" lon="14.036675187304844"><ele>-1.0</ele><time>2026-04-24T07:18:59.999Z</time></trkpt><trkpt lat="40.94542036181208" lon="14.036450770613667"><ele>-1.0</ele><time>2026-04-24T07:19:00.999Z</time></trkpt><trkpt lat="40.94546380369973" lon="14.03623012557491"><ele>-1.0</ele><time>2026-04-24T07:19:01.999Z</time></trkpt><trkpt lat="40.94549825263975" lon="14.03602776981989"><ele>-1.0</ele><time>2026-04-24T07:19:02.999Z</time></trkpt><trkpt lat="40.945524255850984" lon="14.035841810502554"><ele>-1.0</ele><time>2026-04-24T07:19:03.999Z</time></trkpt><trkpt lat="40.94554070861144" lon="14.035660401623888"><ele>-1.0</ele><time>2026-04-24T07:19:04.999Z</time></trkpt><trkpt lat="40.94553613748091" lon="14.035485485873558"><ele>-1.0</ele><time>2026-04-24T07:19:05.999Z</time></trkpt><trkpt lat="40.94552252678562" lon="14.035314993768653"><ele>-1.5</ele><time>2026-04-24T07:19:06.999Z</time></trkpt><trkpt lat="40.94548730870729" lon="14.035157445845934"><ele>-2.0</ele><time>2026-04-24T07:19:07.999Z</time></trkpt><trkpt lat="40.94542714151642" lon="14.035011575654092"><ele>-2.5</ele><time>2026-04-24T07:19:08.999Z</time></trkpt><trkpt lat="40.94535077972847" lon="14.034873252953593"><ele>-3.0</ele><time>2026-04-24T07:19:09.999Z</time></trkpt><trkpt lat="40.945261614717396" lon="14.03474494346205"><ele>-3.0</ele><time>2026-04-24T07:19:10.999Z</time></trkpt><trkpt lat="40.94516626945186" lon="14.034617800911988"><ele>-3.0</ele><time>2026-04-24T07:19:11.999Z</time></trkpt><trkpt lat="40.94507370968241" lon="14.034488110749326"><ele>-3.0</ele><time>2026-04-24T07:19:12.999Z</time></trkpt><trkpt lat="40.94498294938293" lon="14.034353328220655"><ele>-3.0</ele><time>2026-04-24T07:19:13.999Z</time></trkpt><trkpt lat="40.94489324409313" lon="14.034218068260852"><ele>-2.75</ele><time>2026-04-24T07:19:14.999Z</time></trkpt><trkpt lat="40.9448026932028" lon="14.034084925078686"><ele>-2.5</ele><time>2026-04-24T07:19:15.999Z</time></trkpt><trkpt lat="40.94471058175417" lon="14.033955878381027"><ele>-2.25</ele><time>2026-04-24T07:19:16.999Z</time></trkpt><trkpt lat="40.94461700083058" lon="14.033824818617239"><ele>-2.0</ele><time>2026-04-24T07:19:17.999Z</time></trkpt><trkpt lat="40.94452728660057" lon="14.033691247139865"><ele>-2.0</ele><time>2026-04-24T07:19:18.999Z</time></trkpt><trkpt lat="40.94443353219785" lon="14.033551917665324"><ele>-2.0</ele><time>2026-04-24T07:19:19.999Z</time></trkpt><trkpt lat="40.944344803109374" lon="14.033405632591139"><ele>-2.0</ele><time>2026-04-24T07:19:20.999Z</time></trkpt><trkpt lat="40.944263991328896" lon="14.03324665602614"><ele>-2.0</ele><time>2026-04-24T07:19:21.999Z</time></trkpt><trkpt lat="40.94419023253395" lon="14.033076423500113"><ele>-1.75</ele><time>2026-04-24T07:19:22.999Z</time></trkpt><trkpt lat="40.94412252733488" lon="14.032907767112532"><ele>-1.5</ele><time>2026-04-24T07:19:23.999Z</time></trkpt><trkpt lat="40.944066993017145" lon="14.032723636121556"><ele>-1.25</ele><time>2026-04-24T07:19:24.999Z</time></trkpt><trkpt lat="40.943996739340854" lon="14.03254393492993"><ele>-1.0</ele><time>2026-04-24T07:19:25.999Z</time></trkpt><trkpt lat="40.94392809895078" lon="14.032362994447718"><ele>-1.0</ele><time>2026-04-24T07:19:26.999Z</time></trkpt><trkpt lat="40.943848755148274" lon="14.032196150620688"><ele>-1.0</ele><time>2026-04-24T07:19:27.999Z</time></trkpt><trkpt lat="40.943785095541074" lon="14.03202931132663"><ele>-1.0</ele><time>2026-04-24T07:19:28.999Z</time></trkpt><trkpt lat="40.94374099945655" lon="14.031855847185097"><ele>-1.0</ele><time>2026-04-24T07:19:29.999Z</time></trkpt><trkpt lat="40.94369066602735" lon="14.0317065294559"><ele>-1.2000000000000002</ele><time>2026-04-24T07:19:30.999Z</time></trkpt><trkpt lat="40.94364942968988" lon="14.031567988924403"><ele>-1.4000000000000001</ele><time>2026-04-24T07:19:31.999Z</time></trkpt><trkpt lat="40.943621580398094" lon="14.031440443529524"><ele>-1.6</ele><time>2026-04-24T07:19:32.999Z</time></trkpt><trkpt lat="40.94360620775018" lon="14.031318419211857"><ele>-1.8</ele><time>2026-04-24T07:19:33.999Z</time></trkpt><trkpt lat="40.94360897518159" lon="14.031193581293788"><ele>-2.0</ele><time>2026-04-24T07:19:34.999Z</time></trkpt><trkpt lat="40.9436162817772" lon="14.03106107994687"><ele>-1.9999999999999998</ele><time>2026-04-24T07:19:35.999Z</time></trkpt><trkpt lat="40.94362632434542" lon="14.030932194821226"><ele>-2.0</ele><time>2026-04-24T07:19:36.999Z</time></trkpt><trkpt lat="40.94363346119603" lon="14.030811243471279"><ele>-2.0</ele><time>2026-04-24T07:19:37.999Z</time></trkpt><trkpt lat="40.94363988605899" lon="14.030702358847112"><ele>-2.0</ele><time>2026-04-24T07:19:38.999Z</time></trkpt><trkpt lat="40.943644312159634" lon="14.030605691902853"><ele>-1.9999999999999998</ele><time>2026-04-24T07:19:39.999Z</time></trkpt><trkpt lat="40.94364743727956" lon="14.030520020385886"><ele>-2.0</ele><time>2026-04-24T07:19:40.999Z</time></trkpt><trkpt lat="40.94364579476155" lon="14.030349364087158"><ele>-1.8</ele><time>2026-04-24T07:19:42.999Z</time></trkpt><trkpt lat="40.94363903036717" lon="14.030253660302723"><ele>-1.6</ele><time>2026-04-24T07:19:43.999Z</time></trkpt><trkpt lat="40.94362455091464" lon="14.030145995245444"><ele>-1.4000000000000001</ele><time>2026-04-24T07:19:44.999Z</time></trkpt><trkpt lat="40.94359808580873" lon="14.030029095747684"><ele>-1.2000000000000002</ele><time>2026-04-24T07:19:45.999Z</time></trkpt><trkpt lat="40.94355105112176" lon="14.029912773351818"><ele>-1.0</ele><time>2026-04-24T07:19:46.998Z</time></trkpt><trkpt lat="40.94352854016749" lon="14.029778296042505"><ele>-1.0</ele><time>2026-04-24T07:19:47.998Z</time></trkpt><trkpt lat="40.94349488969145" lon="14.029658008748605"><ele>-1.0</ele><time>2026-04-24T07:19:48.998Z</time></trkpt><trkpt lat="40.94346235044075" lon="14.029541693612483"><ele>-1.0</ele><time>2026-04-24T07:19:49.998Z</time></trkpt><trkpt lat="40.94342183156224" lon="14.029452436833521"><ele>-1.0</ele><time>2026-04-24T07:19:50.998Z</time></trkpt><trkpt lat="40.943405688255154" lon="14.029344334888329"><ele>-1.0</ele><time>2026-04-24T07:19:51.998Z</time></trkpt><trkpt lat="40.94338549365754" lon="14.029209366657302"><ele>-1.0</ele><time>2026-04-24T07:19:53.998Z</time></trkpt><trkpt lat="40.943363502539995" lon="14.029131193998184"><ele>-1.0</ele><time>2026-04-24T07:19:56.998Z</time></trkpt><trkpt lat="40.94332640317991" lon="14.02905579237559"><ele>-1.0</ele><time>2026-04-24T07:20:21.998Z</time></trkpt><trkpt lat="40.94326608621055" lon="14.028901336785214"><ele>-1.0</ele><time>2026-04-24T07:20:23.998Z</time></trkpt><trkpt lat="40.94324319437123" lon="14.028811832089849"><ele>-1.0</ele><time>2026-04-24T07:20:24.998Z</time></trkpt><trkpt lat="40.94320767637439" lon="14.02865551069871"><ele>-1.0</ele><time>2026-04-24T07:20:25.998Z</time></trkpt><trkpt lat="40.94318433067779" lon="14.02851895058429"><ele>-1.0</ele><time>2026-04-24T07:20:26.998Z</time></trkpt><trkpt lat="40.94313640896915" lon="14.028391666014526"><ele>-1.0</ele><time>2026-04-24T07:20:27.998Z</time></trkpt><trkpt lat="40.94309079931542" lon="14.028235183185743"><ele>-1.0</ele><time>2026-04-24T07:20:28.998Z</time></trkpt><trkpt lat="40.943051008388906" lon="14.028095900707726"><ele>-1.25</ele><time>2026-04-24T07:20:29.998Z</time></trkpt><trkpt lat="40.94300293394392" lon="14.027941474929712"><ele>-1.5</ele><time>2026-04-24T07:20:30.998Z</time></trkpt><trkpt lat="40.942961789215865" lon="14.0277725664025"><ele>-1.75</ele><time>2026-04-24T07:20:31.998Z</time></trkpt><trkpt lat="40.942919317449515" lon="14.027602428487564"><ele>-2.0</ele><time>2026-04-24T07:20:32.998Z</time></trkpt><trkpt lat="40.942874254288704" lon="14.027448376841424"><ele>-2.25</ele><time>2026-04-24T07:20:33.998Z</time></trkpt><trkpt lat="40.94281953619323" lon="14.027280597873023"><ele>-2.5</ele><time>2026-04-24T07:20:34.998Z</time></trkpt><trkpt lat="40.94276275843011" lon="14.027113222821741"><ele>-2.75</ele><time>2026-04-24T07:20:35.997Z</time></trkpt><trkpt lat="40.94270365020645" lon="14.026946772469469"><ele>-3.0</ele><time>2026-04-24T07:20:36.997Z</time></trkpt><trkpt lat="40.9426428778258" lon="14.026787020622125"><ele>-3.0</ele><time>2026-04-24T07:20:38Z</time></trkpt><trkpt lat="40.942558606734224" lon="14.026641024989944"><ele>-3.0</ele><time>2026-04-24T07:20:39Z</time></trkpt><trkpt lat="40.942457992848425" lon="14.026508778956947"><ele>-3.0</ele><time>2026-04-24T07:20:40Z</time></trkpt><trkpt lat="40.94233828607075" lon="14.026399760516863"><ele>-3.0</ele><time>2026-04-24T07:20:41Z</time></trkpt><trkpt lat="40.94220099358789" lon="14.026318520313703"><ele>-2.6666666666666665</ele><time>2026-04-24T07:20:42Z</time></trkpt><trkpt lat="40.94205804392025" lon="14.026211147600891"><ele>-2.333333333333333</ele><time>2026-04-24T07:20:43Z</time></trkpt><trkpt lat="40.94192434659092" lon="14.0261259935452"><ele>-2.0</ele><time>2026-04-24T07:20:44Z</time></trkpt><trkpt lat="40.941789038801524" lon="14.026028400703208"><ele>-2.0</ele><time>2026-04-24T07:20:45Z</time></trkpt><trkpt lat="40.94167114831329" lon="14.02595119936189"><ele>-2.0</ele><time>2026-04-24T07:20:46Z</time></trkpt><trkpt lat="40.941552926280245" lon="14.025845992246786"><ele>-2.0</ele><time>2026-04-24T07:20:47Z</time></trkpt><trkpt lat="40.94141960569772" lon="14.02574402605898"><ele>-2.0</ele><time>2026-04-24T07:20:48Z</time></trkpt><trkpt lat="40.94128682937726" lon="14.02564527130001"><ele>-2.0</ele><time>2026-04-24T07:20:49Z</time></trkpt><trkpt lat="40.94114885828412" lon="14.025547217801622"><ele>-2.0</ele><time>2026-04-24T07:20:50Z</time></trkpt><trkpt lat="40.941015342265146" lon="14.025440804931353"><ele>-2.0</ele><time>2026-04-24T07:20:51Z</time></trkpt><trkpt lat="40.94088995852363" lon="14.025330026469849"><ele>-2.0</ele><time>2026-04-24T07:20:52Z</time></trkpt><trkpt lat="40.94077432324661" lon="14.025208152590745"><ele>-2.0</ele><time>2026-04-24T07:20:53Z</time></trkpt><trkpt lat="40.940667546191875" lon="14.025077131636554"><ele>-2.0</ele><time>2026-04-24T07:20:54Z</time></trkpt><trkpt lat="40.940567527250394" lon="14.024938664384088"><ele>-2.0</ele><time>2026-04-24T07:20:55Z</time></trkpt><trkpt lat="40.940458063917866" lon="14.02480573926366"><ele>-2.0</ele><time>2026-04-24T07:20:56Z</time></trkpt><trkpt lat="40.94034413715592" lon="14.02467370179231"><ele>-2.0</ele><time>2026-04-24T07:20:57Z</time></trkpt><trkpt lat="40.940236765840076" lon="14.024536643819344"><ele>-2.0</ele><time>2026-04-24T07:20:58Z</time></trkpt><trkpt lat="40.94013648225821" lon="14.024400336882184"><ele>-2.0</ele><time>2026-04-24T07:20:59Z</time></trkpt><trkpt lat="40.940022137339895" lon="14.024277884454374"><ele>-1.75</ele><time>2026-04-24T07:21:00Z</time></trkpt><trkpt lat="40.93988913894334" lon="14.024186080272232"><ele>-1.5</ele><time>2026-04-24T07:21:01Z</time></trkpt><trkpt lat="40.93974816083613" lon="14.024121875677965"><ele>-1.25</ele><time>2026-04-24T07:21:02Z</time></trkpt><trkpt lat="40.9396298748746" lon="14.024064993850487"><ele>-1.0</ele><time>2026-04-24T07:21:03Z</time></trkpt><trkpt lat="40.939540076649074" lon="14.02399205098108"><ele>-0.9999999999999999</ele><time>2026-04-24T07:21:04Z</time></trkpt><trkpt lat="40.93945284264756" lon="14.023941923516837"><ele>-1.0</ele><time>2026-04-24T07:21:05Z</time></trkpt><trkpt lat="40.939363864306266" lon="14.023909764439003"><ele>-1.0</ele><time>2026-04-24T07:21:06Z</time></trkpt><trkpt lat="40.93928983825351" lon="14.023857537444636"><ele>-1.0</ele><time>2026-04-24T07:21:06.999Z</time></trkpt><trkpt lat="40.9392227533597" lon="14.023798201493326"><ele>-0.9999999999999999</ele><time>2026-04-24T07:21:07.999Z</time></trkpt><trkpt lat="40.93918312725034" lon="14.02371100619706"><ele>-1.0</ele><time>2026-04-24T07:21:08.999Z</time></trkpt><trkpt lat="40.939183348648235" lon="14.023610686026935"><ele>-1.0</ele><time>2026-04-24T07:21:09.999Z</time></trkpt><trkpt lat="40.93924722591417" lon="14.023518477954264"><ele>-1.0</ele><time>2026-04-24T07:21:10.999Z</time></trkpt><trkpt lat="40.93928432417861" lon="14.023397784996353"><ele>-1.0</ele><time>2026-04-24T07:21:11.999Z</time></trkpt><trkpt lat="40.939339349848545" lon="14.023276177984409"><ele>-1.0</ele><time>2026-04-24T07:21:12.999Z</time></trkpt><trkpt lat="40.93939412911561" lon="14.023158105219212"><ele>-1.0</ele><time>2026-04-24T07:21:13.999Z</time></trkpt><trkpt lat="40.93945473302673" lon="14.023020275180004"><ele>-0.75</ele><time>2026-04-24T07:21:14.999Z</time></trkpt><trkpt lat="40.939513903401796" lon="14.022878414315732"><ele>-0.5</ele><time>2026-04-24T07:21:15.999Z</time></trkpt><trkpt lat="40.939572867801566" lon="14.022737037499171"><ele>-0.25</ele><time>2026-04-24T07:21:16.999Z</time></trkpt><trkpt lat="40.93963427545491" lon="14.022585755528489"><ele>0.0</ele><time>2026-04-24T07:21:17.999Z</time></trkpt><trkpt lat="40.93969826534082" lon="14.022429990911121"><ele>0.0</ele><time>2026-04-24T07:21:18.999Z</time></trkpt><trkpt lat="40.939765254767835" lon="14.022266058095942"><ele>0.0</ele><time>2026-04-24T07:21:19.999Z</time></trkpt><trkpt lat="40.93983537109529" lon="14.022104485851221"><ele>0.0</ele><time>2026-04-24T07:21:20.999Z</time></trkpt><trkpt lat="40.93990657235071" lon="14.021945181263959"><ele>0.0</ele><time>2026-04-24T07:21:21.999Z</time></trkpt><trkpt lat="40.939984737529244" lon="14.021780243712866"><ele>0.0</ele><time>2026-04-24T07:21:22.999Z</time></trkpt><trkpt lat="40.940048968120976" lon="14.021616435857672"><ele>0.0</ele><time>2026-04-24T07:21:23.999Z</time></trkpt><trkpt lat="40.9401191470053" lon="14.02144845986766"><ele>0.0</ele><time>2026-04-24T07:21:24.999Z</time></trkpt><trkpt lat="40.94018800280797" lon="14.021280826614278"><ele>0.0</ele><time>2026-04-24T07:21:25.999Z</time></trkpt><trkpt lat="40.9402554329933" lon="14.021109949318964"><ele>0.25</ele><time>2026-04-24T07:21:26.999Z</time></trkpt><trkpt lat="40.94031986064726" lon="14.020959573262385"><ele>0.5</ele><time>2026-04-24T07:21:27.999Z</time></trkpt><trkpt lat="40.94037553964808" lon="14.020820494376107"><ele>0.75</ele><time>2026-04-24T07:21:28.999Z</time></trkpt><trkpt lat="40.94043187551148" lon="14.020690549521241"><ele>1.0</ele><time>2026-04-24T07:21:29.999Z</time></trkpt><trkpt lat="40.94048774665248" lon="14.020577824198533"><ele>0.9999999999999999</ele><time>2026-04-24T07:21:30.999Z</time></trkpt><trkpt lat="40.940545135345694" lon="14.020474178705708"><ele>1.0</ele><time>2026-04-24T07:21:31.999Z</time></trkpt><trkpt lat="40.94061034909896" lon="14.02039578532148"><ele>1.0</ele><time>2026-04-24T07:21:32.999Z</time></trkpt><trkpt lat="40.940681927250566" lon="14.020336244582829"><ele>1.0</ele><time>2026-04-24T07:21:33.999Z</time></trkpt><trkpt lat="40.94076360712941" lon="14.020343632172976"><ele>0.9999999999999999</ele><time>2026-04-24T07:21:34.999Z</time></trkpt><trkpt lat="40.94084409685764" lon="14.020308205905819"><ele>1.0</ele><time>2026-04-24T07:21:35.999Z</time></trkpt><trkpt lat="40.940918202616785" lon="14.02029729539377"><ele>0.9999999999999999</ele><time>2026-04-24T07:21:36.999Z</time></trkpt><trkpt lat="40.94097499631938" lon="14.020240945131528"><ele>1.0</ele><time>2026-04-24T07:21:37.999Z</time></trkpt><trkpt lat="40.94103193642119" lon="14.0201743339835"><ele>1.0</ele><time>2026-04-24T07:21:38.999Z</time></trkpt><trkpt lat="40.941025687117055" lon="14.020027308604618"><ele>1.0</ele><time>2026-04-24T07:21:39.999Z</time></trkpt><trkpt lat="40.941021359861544" lon="14.019901924498194"><ele>0.9999999999999999</ele><time>2026-04-24T07:21:40.999Z</time></trkpt><trkpt lat="40.94103248972706" lon="14.019792310331468"><ele>1.0</ele><time>2026-04-24T07:21:41.999Z</time></trkpt><trkpt lat="40.94102847218138" lon="14.019676718579388"><ele>0.8333333333333333</ele><time>2026-04-24T07:21:42.999Z</time></trkpt><trkpt lat="40.941020064568136" lon="14.019567045321935"><ele>0.6666666666666666</ele><time>2026-04-24T07:21:43.999Z</time></trkpt><trkpt lat="40.94101444245504" lon="14.019450456833285"><ele>0.5</ele><time>2026-04-24T07:21:44.999Z</time></trkpt><trkpt lat="40.94102715821664" lon="14.019359002833774"><ele>0.3333333333333333</ele><time>2026-04-24T07:21:45.999Z</time></trkpt><trkpt lat="40.9410236123294" lon="14.019222342129188"><ele>0.16666666666666666</ele><time>2026-04-24T07:21:46.999Z</time></trkpt><trkpt lat="40.94101616834998" lon="14.019108035477664"><ele>0.0</ele><time>2026-04-24T07:21:47.999Z</time></trkpt><trkpt lat="40.94102034870436" lon="14.019001920845607"><ele>0.4</ele><time>2026-04-24T07:21:48.999Z</time></trkpt><trkpt lat="40.941019052667514" lon="14.018886127996176"><ele>0.8</ele><time>2026-04-24T07:21:49.999Z</time></trkpt><trkpt lat="40.94102017815065" lon="14.018761714863592"><ele>1.2000000000000002</ele><time>2026-04-24T07:21:50.999Z</time></trkpt><trkpt lat="40.94101961865865" lon="14.01862144845153"><ele>1.6</ele><time>2026-04-24T07:21:51.999Z</time></trkpt><trkpt lat="40.94101981198294" lon="14.018470479598868"><ele>2.0</ele><time>2026-04-24T07:21:52.999Z</time></trkpt><trkpt lat="40.94102092680938" lon="14.018320042627211"><ele>2.5</ele><time>2026-04-24T07:21:53.999Z</time></trkpt><trkpt lat="40.941018723530696" lon="14.018183384700656"><ele>3.0</ele><time>2026-04-24T07:21:54.999Z</time></trkpt><trkpt lat="40.94101556092972" lon="14.018060353856853"><ele>3.5</ele><time>2026-04-24T07:21:55.999Z</time></trkpt><trkpt lat="40.941014504953486" lon="14.017948333501279"><ele>4.0</ele><time>2026-04-24T07:21:56.999Z</time></trkpt><trkpt lat="40.94101884378524" lon="14.017844917682991"><ele>4.5</ele><time>2026-04-24T07:21:57.999Z</time></trkpt><trkpt lat="40.94102372796466" lon="14.017756553429072"><ele>5.0</ele><time>2026-04-24T07:21:58.999Z</time></trkpt><trkpt lat="40.94104178260944" lon="14.017605087206073"><ele>5.2</ele><time>2026-04-24T07:22:00.999Z</time></trkpt><trkpt lat="40.94106764690832" lon="14.017483847593438"><ele>5.4</ele><time>2026-04-24T07:22:02.999Z</time></trkpt><trkpt lat="40.94113599829747" lon="14.01736563576641"><ele>5.6</ele><time>2026-04-24T07:22:05.998Z</time></trkpt><trkpt lat="40.941188695477784" lon="14.017318712835886"><ele>5.8</ele><time>2026-04-24T07:22:06.998Z</time></trkpt><trkpt lat="40.94125182016903" lon="14.017262971843047"><ele>6.0</ele><time>2026-04-24T07:22:07.998Z</time></trkpt><trkpt lat="40.941347366033675" lon="14.01718618560929"><ele>6.0</ele><time>2026-04-24T07:22:08.998Z</time></trkpt><trkpt lat="40.94144154239278" lon="14.017110696234095"><ele>6.0</ele><time>2026-04-24T07:22:09.998Z</time></trkpt><trkpt lat="40.94154286704784" lon="14.017024313352913"><ele>6.0</ele><time>2026-04-24T07:22:10.998Z</time></trkpt><trkpt lat="40.94164751627323" lon="14.016935441516537"><ele>6.0</ele><time>2026-04-24T07:22:11.998Z</time></trkpt><trkpt lat="40.941752593500304" lon="14.01684924148245"><ele>5.25</ele><time>2026-04-24T07:22:12.998Z</time></trkpt><trkpt lat="40.94186679383455" lon="14.01676254129671"><ele>4.5</ele><time>2026-04-24T07:22:13.998Z</time></trkpt><trkpt lat="40.94197700971969" lon="14.016678923964172"><ele>3.75</ele><time>2026-04-24T07:22:14.998Z</time></trkpt><trkpt lat="40.94208474105599" lon="14.016587636718445"><ele>3.0</ele><time>2026-04-24T07:22:15.998Z</time></trkpt><trkpt lat="40.94218852757454" lon="14.016491316199502"><ele>3.0</ele><time>2026-04-24T07:22:16.998Z</time></trkpt><trkpt lat="40.942291824206244" lon="14.016401555148486"><ele>3.0</ele><time>2026-04-24T07:22:17.998Z</time></trkpt><trkpt lat="40.94239590583934" lon="14.016297992053078"><ele>3.0</ele><time>2026-04-24T07:22:18.998Z</time></trkpt><trkpt lat="40.94250895517917" lon="14.016205049101515"><ele>3.0</ele><time>2026-04-24T07:22:19.998Z</time></trkpt><trkpt lat="40.94262765607388" lon="14.016110654620986"><ele>3.0</ele><time>2026-04-24T07:22:20.998Z</time></trkpt><trkpt lat="40.94274357540227" lon="14.016017792810237"><ele>3.0</ele><time>2026-04-24T07:22:21.998Z</time></trkpt><trkpt lat="40.942865728788504" lon="14.015923901564518"><ele>3.0</ele><time>2026-04-24T07:22:22.998Z</time></trkpt><trkpt lat="40.94298818567535" lon="14.015822338439751"><ele>3.0</ele><time>2026-04-24T07:22:23.998Z</time></trkpt><trkpt lat="40.94310956120693" lon="14.015722268432874"><ele>3.0</ele><time>2026-04-24T07:22:24.998Z</time></trkpt><trkpt lat="40.943237350029236" lon="14.015622564672078"><ele>3.0</ele><time>2026-04-24T07:22:25.998Z</time></trkpt><trkpt lat="40.943362555027264" lon="14.015519233737304"><ele>3.0</ele><time>2026-04-24T07:22:26.998Z</time></trkpt><trkpt lat="40.94349195090965" lon="14.015417736238113"><ele>3.0</ele><time>2026-04-24T07:22:27.998Z</time></trkpt><trkpt lat="40.94362169367213" lon="14.015318668341104"><ele>3.0</ele><time>2026-04-24T07:22:28.998Z</time></trkpt><trkpt lat="40.94375187526565" lon="14.015209798448087"><ele>3.0</ele><time>2026-04-24T07:22:29.998Z</time></trkpt><trkpt lat="40.94388333888312" lon="14.015104441543883"><ele>3.0</ele><time>2026-04-24T07:22:30.998Z</time></trkpt><trkpt lat="40.94401499438863" lon="14.0149959834477"><ele>3.0</ele><time>2026-04-24T07:22:31.998Z</time></trkpt><trkpt lat="40.94414854965989" lon="14.014886996698927"><ele>3.0</ele><time>2026-04-24T07:22:32.998Z</time></trkpt><trkpt lat="40.94427880946377" lon="14.014777933440078"><ele>3.0</ele><time>2026-04-24T07:22:33.998Z</time></trkpt><trkpt lat="40.944410175533015" lon="14.014668523977887"><ele>3.0</ele><time>2026-04-24T07:22:34.998Z</time></trkpt><trkpt lat="40.94454097000898" lon="14.014557749794575"><ele>3.0</ele><time>2026-04-24T07:22:35.998Z</time></trkpt><trkpt lat="40.94467141277267" lon="14.014448264335229"><ele>3.0</ele><time>2026-04-24T07:22:36.998Z</time></trkpt><trkpt lat="40.94480216718755" lon="14.014341236998822"><ele>3.0</ele><time>2026-04-24T07:22:37.998Z</time></trkpt><trkpt lat="40.94493213772895" lon="14.014235747106015"><ele>3.0</ele><time>2026-04-24T07:22:38.998Z</time></trkpt><trkpt lat="40.94506199333762" lon="14.014129451701526"><ele>3.0</ele><time>2026-04-24T07:22:39.998Z</time></trkpt><trkpt lat="40.945186716126955" lon="14.014028702380319"><ele>2.75</ele><time>2026-04-24T07:22:40.998Z</time></trkpt><trkpt lat="40.945311103762336" lon="14.013923520714979"><ele>2.5</ele><time>2026-04-24T07:22:41.998Z</time></trkpt><trkpt lat="40.94543563232975" lon="14.013819267749502"><ele>2.25</ele><time>2026-04-24T07:22:42.998Z</time></trkpt><trkpt lat="40.94556161919417" lon="14.013716335868065"><ele>2.0</ele><time>2026-04-24T07:22:44Z</time></trkpt><trkpt lat="40.94569045982063" lon="14.013613083429465"><ele>2.0</ele><time>2026-04-24T07:22:45Z</time></trkpt><trkpt lat="40.9458201326802" lon="14.013510144083156"><ele>2.0</ele><time>2026-04-24T07:22:46Z</time></trkpt><trkpt lat="40.94595005906395" lon="14.013405146198568"><ele>2.0</ele><time>2026-04-24T07:22:47Z</time></trkpt><trkpt lat="40.94608162449294" lon="14.01329486336813"><ele>2.6666666666666665</ele><time>2026-04-24T07:22:48Z</time></trkpt><trkpt lat="40.94621383006967" lon="14.013181160285788"><ele>3.333333333333333</ele><time>2026-04-24T07:22:49Z</time></trkpt><trkpt lat="40.94634711455597" lon="14.013070830618323"><ele>4.0</ele><time>2026-04-24T07:22:50Z</time></trkpt><trkpt lat="40.94647910429714" lon="14.01296071604674"><ele>4.0</ele><time>2026-04-24T07:22:51Z</time></trkpt><trkpt lat="40.94660722842786" lon="14.012855009288797"><ele>4.0</ele><time>2026-04-24T07:22:52Z</time></trkpt><trkpt lat="40.946730865267824" lon="14.012749626449448"><ele>4.0</ele><time>2026-04-24T07:22:53Z</time></trkpt><trkpt lat="40.94685179094301" lon="14.012647187670098"><ele>4.0</ele><time>2026-04-24T07:22:54Z</time></trkpt><trkpt lat="40.94696964119936" lon="14.012546281712446"><ele>4.0</ele><time>2026-04-24T07:22:55Z</time></trkpt><trkpt lat="40.94708836503624" lon="14.01244585546453"><ele>4.0</ele><time>2026-04-24T07:22:56Z</time></trkpt><trkpt lat="40.947209454246426" lon="14.0123508974984"><ele>4.0</ele><time>2026-04-24T07:22:57Z</time></trkpt><trkpt lat="40.947331087190435" lon="14.012256056456597"><ele>4.0</ele><time>2026-04-24T07:22:58Z</time></trkpt><trkpt lat="40.947451667875804" lon="14.012157774305765"><ele>4.0</ele><time>2026-04-24T07:22:59Z</time></trkpt><trkpt lat="40.94756612284954" lon="14.012066356424041"><ele>4.0</ele><time>2026-04-24T07:23:00Z</time></trkpt><trkpt lat="40.947675258792934" lon="14.01198198472924"><ele>4.0</ele><time>2026-04-24T07:23:01Z</time></trkpt><trkpt lat="40.94777513341726" lon="14.011904528181168"><ele>4.0</ele><time>2026-04-24T07:23:02Z</time></trkpt><trkpt lat="40.947866392977595" lon="14.011828217504199"><ele>3.9999999999999996</ele><time>2026-04-24T07:23:03Z</time></trkpt><trkpt lat="40.94795326360202" lon="14.011756814489798"><ele>4.0</ele><time>2026-04-24T07:23:04Z</time></trkpt><trkpt lat="40.94803351883489" lon="14.011691275256679"><ele>4.0</ele><time>2026-04-24T07:23:05Z</time></trkpt><trkpt lat="40.948108981262564" lon="14.011632511941936"><ele>4.0</ele><time>2026-04-24T07:23:06Z</time></trkpt><trkpt lat="40.94817123250058" lon="14.011586122524042"><ele>3.9999999999999996</ele><time>2026-04-24T07:23:07Z</time></trkpt><trkpt lat="40.94822859793321" lon="14.011543680366149"><ele>4.0</ele><time>2026-04-24T07:23:08Z</time></trkpt><trkpt lat="40.94829302230163" lon="14.011513696673498"><ele>3.8000000000000003</ele><time>2026-04-24T07:23:09Z</time></trkpt><trkpt lat="40.94840665711269" lon="14.01149618929662"><ele>3.6000000000000005</ele><time>2026-04-24T07:23:11Z</time></trkpt><trkpt lat="40.9484712008676" lon="14.011523042467001"><ele>3.4</ele><time>2026-04-24T07:23:12Z</time></trkpt><trkpt lat="40.94851435048093" lon="14.011632522248275"><ele>3.2</ele><time>2026-04-24T07:23:13Z</time></trkpt><trkpt lat="40.94855733295204" lon="14.011734262101138"><ele>3.0</ele><time>2026-04-24T07:23:14Z</time></trkpt><trkpt lat="40.94859423190725" lon="14.011842011639397"><ele>3.0</ele><time>2026-04-24T07:23:15Z</time></trkpt><trkpt lat="40.94863548471108" lon="14.011965526125628"><ele>3.0</ele><time>2026-04-24T07:23:15.999Z</time></trkpt><trkpt lat="40.94868400026094" lon="14.012104133976552"><ele>3.0</ele><time>2026-04-24T07:23:16.999Z</time></trkpt><trkpt lat="40.948731801944604" lon="14.012246298147854"><ele>3.0</ele><time>2026-04-24T07:23:17.999Z</time></trkpt><trkpt lat="40.9487831137987" lon="14.01239111397056"><ele>2.75</ele><time>2026-04-24T07:23:18.999Z</time></trkpt><trkpt lat="40.948837222910626" lon="14.012546903095178"><ele>2.5</ele><time>2026-04-24T07:23:19.999Z</time></trkpt><trkpt lat="40.948893622503185" lon="14.01271435185339"><ele>2.25</ele><time>2026-04-24T07:23:20.999Z</time></trkpt><trkpt lat="40.94894854433122" lon="14.012882084084195"><ele>2.0</ele><time>2026-04-24T07:23:21.999Z</time></trkpt><trkpt lat="40.949005240631664" lon="14.013050939231636"><ele>2.0</ele><time>2026-04-24T07:23:22.999Z</time></trkpt><trkpt lat="40.94906604443322" lon="14.013223812374878"><ele>2.0</ele><time>2026-04-24T07:23:23.999Z</time></trkpt><trkpt lat="40.94911677034683" lon="14.013402020502616"><ele>2.0</ele><time>2026-04-24T07:23:24.999Z</time></trkpt><trkpt lat="40.94918580971772" lon="14.013573331259886"><ele>2.0</ele><time>2026-04-24T07:23:25.999Z</time></trkpt><trkpt lat="40.9492466173274" lon="14.013752983917321"><ele>1.3333333333333333</ele><time>2026-04-24T07:23:26.999Z</time></trkpt><trkpt lat="40.94931041760267" lon="14.013935722862218"><ele>0.6666666666666666</ele><time>2026-04-24T07:23:27.999Z</time></trkpt><trkpt lat="40.94937357949446" lon="14.01411802842617"><ele>0.0</ele><time>2026-04-24T07:23:28.999Z</time></trkpt><trkpt lat="40.949435375852325" lon="14.014300932363419"><ele>-1.0</ele><time>2026-04-24T07:23:29.999Z</time></trkpt><trkpt lat="40.949499884614255" lon="14.01448638399657"><ele>-2.0</ele><time>2026-04-24T07:23:30.999Z</time></trkpt><trkpt lat="40.94956782923502" lon="14.014672052826244"><ele>-3.0</ele><time>2026-04-24T07:23:31.999Z</time></trkpt><trkpt lat="40.94963422824815" lon="14.014856464802508"><ele>-2.6666666666666665</ele><time>2026-04-24T07:23:32.999Z</time></trkpt><trkpt lat="40.94969691538113" lon="14.015038847629452"><ele>-2.333333333333333</ele><time>2026-04-24T07:23:33.999Z</time></trkpt><trkpt lat="40.94976054310366" lon="14.01522102802663"><ele>-2.0</ele><time>2026-04-24T07:23:34.999Z</time></trkpt><trkpt lat="40.94982286894294" lon="14.015406438510833"><ele>-2.0</ele><time>2026-04-24T07:23:35.999Z</time></trkpt><trkpt lat="40.94988280474906" lon="14.015586992461568"><ele>-2.0</ele><time>2026-04-24T07:23:36.999Z</time></trkpt><trkpt lat="40.94994412169552" lon="14.015769580458658"><ele>-2.0</ele><time>2026-04-24T07:23:37.999Z</time></trkpt><trkpt lat="40.95000477954939" lon="14.015950549357072"><ele>-2.0</ele><time>2026-04-24T07:23:38.999Z</time></trkpt><trkpt lat="40.95006599884518" lon="14.016128535839432"><ele>-1.6666666666666665</ele><time>2026-04-24T07:23:39.999Z</time></trkpt><trkpt lat="40.95012972404597" lon="14.016309620652342"><ele>-1.3333333333333333</ele><time>2026-04-24T07:23:40.999Z</time></trkpt><trkpt lat="40.95019210513748" lon="14.016492074274867"><ele>-1.0</ele><time>2026-04-24T07:23:41.999Z</time></trkpt><trkpt lat="40.95025392050518" lon="14.016675916061308"><ele>-0.5</ele><time>2026-04-24T07:23:42.999Z</time></trkpt><trkpt lat="40.950313301942046" lon="14.016855317893922"><ele>0.0</ele><time>2026-04-24T07:23:43.999Z</time></trkpt><trkpt lat="40.95037771304906" lon="14.017024601191949"><ele>0.5</ele><time>2026-04-24T07:23:44.999Z</time></trkpt><trkpt lat="40.950456731215326" lon="14.017176551851243"><ele>1.0</ele><time>2026-04-24T07:23:45.999Z</time></trkpt><trkpt lat="40.95055756544587" lon="14.017311311619194"><ele>1.0</ele><time>2026-04-24T07:23:46.999Z</time></trkpt><trkpt lat="40.95066905535436" lon="14.017416254621315"><ele>1.0</ele><time>2026-04-24T07:23:47.999Z</time></trkpt><trkpt lat="40.95078568711871" lon="14.017501087923673"><ele>1.0</ele><time>2026-04-24T07:23:48.999Z</time></trkpt><trkpt lat="40.950903504024076" lon="14.01756591816572"><ele>1.0</ele><time>2026-04-24T07:23:49.999Z</time></trkpt><trkpt lat="40.95102392755379" lon="14.01763015049149"><ele>1.5</ele><time>2026-04-24T07:23:50.999Z</time></trkpt><trkpt lat="40.95113905629767" lon="14.017692341846052"><ele>2.0</ele><time>2026-04-24T07:23:51.999Z</time></trkpt><trkpt lat="40.95126085616268" lon="14.017752283226635"><ele>2.5</ele><time>2026-04-24T07:23:52.999Z</time></trkpt><trkpt lat="40.95138947263251" lon="14.017812220504444"><ele>3.0</ele><time>2026-04-24T07:23:53.999Z</time></trkpt><trkpt lat="40.95152885738691" lon="14.017874230560006"><ele>3.0</ele><time>2026-04-24T07:23:54.999Z</time></trkpt><trkpt lat="40.95167175485121" lon="14.017941404858417"><ele>3.0</ele><time>2026-04-24T07:23:55.999Z</time></trkpt><trkpt lat="40.951813937072465" lon="14.018016164471877"><ele>3.0</ele><time>2026-04-24T07:23:56.999Z</time></trkpt><trkpt lat="40.95194924322884" lon="14.018085760907157"><ele>2.5</ele><time>2026-04-24T07:23:57.999Z</time></trkpt><trkpt lat="40.95206540892519" lon="14.018143998880122"><ele>2.0</ele><time>2026-04-24T07:23:58.999Z</time></trkpt><trkpt lat="40.95216756025397" lon="14.018202984496162"><ele>1.5</ele><time>2026-04-24T07:23:59.999Z</time></trkpt><trkpt lat="40.952259280860176" lon="14.018281953659738"><ele>1.0</ele><time>2026-04-24T07:24:00.999Z</time></trkpt><trkpt lat="40.95232789921442" lon="14.018392207912127"><ele>1.0</ele><time>2026-04-24T07:24:01.999Z</time></trkpt><trkpt lat="40.95237641020862" lon="14.018525503973843"><ele>1.0</ele><time>2026-04-24T07:24:02.999Z</time></trkpt><trkpt lat="40.95239581793954" lon="14.018676270569452"><ele>1.0</ele><time>2026-04-24T07:24:03.999Z</time></trkpt><trkpt lat="40.95238263556738" lon="14.018839969465319"><ele>1.0</ele><time>2026-04-24T07:24:04.999Z</time></trkpt><trkpt lat="40.95234656595496" lon="14.01900221700983"><ele>0.75</ele><time>2026-04-24T07:24:05.999Z</time></trkpt><trkpt lat="40.952299406645864" lon="14.019166739862506"><ele>0.5</ele><time>2026-04-24T07:24:06.999Z</time></trkpt><trkpt lat="40.95225149620342" lon="14.01932957000895"><ele>0.25</ele><time>2026-04-24T07:24:07.999Z</time></trkpt><trkpt lat="40.95220265690384" lon="14.019501408327821"><ele>0.0</ele><time>2026-04-24T07:24:08.999Z</time></trkpt><trkpt lat="40.95215191693214" lon="14.01968037264633"><ele>0.0</ele><time>2026-04-24T07:24:09.999Z</time></trkpt><trkpt lat="40.95210409690502" lon="14.019865792559312"><ele>0.0</ele><time>2026-04-24T07:24:10.999Z</time></trkpt><trkpt lat="40.95205294850507" lon="14.020052932660727"><ele>0.0</ele><time>2026-04-24T07:24:11.999Z</time></trkpt><trkpt lat="40.951995531745304" lon="14.020242091515563"><ele>0.0</ele><time>2026-04-24T07:24:12.999Z</time></trkpt><trkpt lat="40.95194105512328" lon="14.020425193569292"><ele>0.0</ele><time>2026-04-24T07:24:13.998Z</time></trkpt><trkpt lat="40.95189410100479" lon="14.020591921177479"><ele>0.0</ele><time>2026-04-24T07:24:14.998Z</time></trkpt><trkpt lat="40.951861235754436" lon="14.020742599494701"><ele>0.0</ele><time>2026-04-24T07:24:15.998Z</time></trkpt><trkpt lat="40.95183774693379" lon="14.020889976048924"><ele>0.0</ele><time>2026-04-24T07:24:16.998Z</time></trkpt><trkpt lat="40.95182993092229" lon="14.021045820584117"><ele>0.0</ele><time>2026-04-24T07:24:17.998Z</time></trkpt><trkpt lat="40.951844467613284" lon="14.021208447560356"><ele>0.0</ele><time>2026-04-24T07:24:18.998Z</time></trkpt><trkpt lat="40.95187998941241" lon="14.021365794889709"><ele>0.0</ele><time>2026-04-24T07:24:19.998Z</time></trkpt><trkpt lat="40.95193197465139" lon="14.021520424744548"><ele>-0.25</ele><time>2026-04-24T07:24:20.998Z</time></trkpt><trkpt lat="40.95198571496774" lon="14.021681664096644"><ele>-0.5</ele><time>2026-04-24T07:24:21.998Z</time></trkpt><trkpt lat="40.952037890685645" lon="14.021842562511347"><ele>-0.75</ele><time>2026-04-24T07:24:22.998Z</time></trkpt><trkpt lat="40.95209549791616" lon="14.02200753764118"><ele>-1.0</ele><time>2026-04-24T07:24:23.998Z</time></trkpt><trkpt lat="40.952153437111264" lon="14.022175028235125"><ele>-1.0</ele><time>2026-04-24T07:24:24.998Z</time></trkpt><trkpt lat="40.95221306651932" lon="14.022347174882892"><ele>-1.0</ele><time>2026-04-24T07:24:25.998Z</time></trkpt><trkpt lat="40.952274450496084" lon="14.022526616791591"><ele>-1.0</ele><time>2026-04-24T07:24:26.998Z</time></trkpt><trkpt lat="40.952336276549474" lon="14.022714224916037"><ele>-1.0</ele><time>2026-04-24T07:24:27.998Z</time></trkpt><trkpt lat="40.95240159645307" lon="14.022910378537173"><ele>-1.0</ele><time>2026-04-24T07:24:28.998Z</time></trkpt><trkpt lat="40.95246757546448" lon="14.023102616304534"><ele>-1.0</ele><time>2026-04-24T07:24:29.998Z</time></trkpt><trkpt lat="40.952534491167874" lon="14.02329548189801"><ele>-1.0</ele><time>2026-04-24T07:24:30.998Z</time></trkpt><trkpt lat="40.95260278013623" lon="14.023487766694933"><ele>-1.3333333333333333</ele><time>2026-04-24T07:24:31.998Z</time></trkpt><trkpt lat="40.952671199936525" lon="14.023679869469865"><ele>-1.6666666666666665</ele><time>2026-04-24T07:24:32.998Z</time></trkpt><trkpt lat="40.95273984116348" lon="14.02387478066831"><ele>-2.0</ele><time>2026-04-24T07:24:33.998Z</time></trkpt><trkpt lat="40.95280558613503" lon="14.024067183325279"><ele>-1.6666666666666665</ele><time>2026-04-24T07:24:34.998Z</time></trkpt><trkpt lat="40.95287068872415" lon="14.024262143022666"><ele>-1.3333333333333333</ele><time>2026-04-24T07:24:35.998Z</time></trkpt><trkpt lat="40.952940325334254" lon="14.0244608292087"><ele>-1.0</ele><time>2026-04-24T07:24:36.998Z</time></trkpt><trkpt lat="40.953010621086754" lon="14.024661353532583"><ele>-1.0</ele><time>2026-04-24T07:24:37.998Z</time></trkpt><trkpt lat="40.95308008747127" lon="14.024864459866595"><ele>-1.0</ele><time>2026-04-24T07:24:38.998Z</time></trkpt><trkpt lat="40.95314927410665" lon="14.02506904041197"><ele>-1.0</ele><time>2026-04-24T07:24:39.998Z</time></trkpt><trkpt lat="40.95321943539166" lon="14.025270464244299"><ele>-0.6666666666666666</ele><time>2026-04-24T07:24:40.998Z</time></trkpt><trkpt lat="40.95329063150562" lon="14.0254733319164"><ele>-0.3333333333333333</ele><time>2026-04-24T07:24:41.998Z</time></trkpt><trkpt lat="40.95336149341834" lon="14.025678268790648"><ele>0.0</ele><time>2026-04-24T07:24:42.998Z</time></trkpt><trkpt lat="40.95343305082212" lon="14.02588761180917"><ele>0.3333333333333333</ele><time>2026-04-24T07:24:43.998Z</time></trkpt><trkpt lat="40.95350209261996" lon="14.026099012725917"><ele>0.6666666666666666</ele><time>2026-04-24T07:24:44.998Z</time></trkpt><trkpt lat="40.95357475927137" lon="14.026313199725324"><ele>1.0</ele><time>2026-04-24T07:24:45.998Z</time></trkpt><trkpt lat="40.953648788811904" lon="14.026526328210892"><ele>1.0</ele><time>2026-04-24T07:24:46.998Z</time></trkpt><trkpt lat="40.9537177413465" lon="14.026735207979035"><ele>1.0</ele><time>2026-04-24T07:24:47.998Z</time></trkpt><trkpt lat="40.95378779027881" lon="14.026949929492575"><ele>1.0</ele><time>2026-04-24T07:24:49Z</time></trkpt><trkpt lat="40.953859607416625" lon="14.027149478579293"><ele>1.0</ele><time>2026-04-24T07:24:50Z</time></trkpt><trkpt lat="40.953932499097654" lon="14.027356852112307"><ele>1.0</ele><time>2026-04-24T07:24:51Z</time></trkpt><trkpt lat="40.95400541323253" lon="14.027562760923653"><ele>1.0</ele><time>2026-04-24T07:24:52Z</time></trkpt><trkpt lat="40.95407447882518" lon="14.027769550440311"><ele>0.6666666666666666</ele><time>2026-04-24T07:24:53Z</time></trkpt><trkpt lat="40.95414560469842" lon="14.027980105953676"><ele>0.3333333333333333</ele><time>2026-04-24T07:24:54Z</time></trkpt><trkpt lat="40.9542171079721" lon="14.028191350222528"><ele>0.0</ele><time>2026-04-24T07:24:55Z</time></trkpt><trkpt lat="40.95428940179453" lon="14.028404830460246"><ele>-0.3333333333333333</ele><time>2026-04-24T07:24:56Z</time></trkpt><trkpt lat="40.95436273755411" lon="14.028621117281155"><ele>-0.6666666666666666</ele><time>2026-04-24T07:24:57Z</time></trkpt><trkpt lat="40.954436679224266" lon="14.028835842326014"><ele>-1.0</ele><time>2026-04-24T07:24:58Z</time></trkpt><trkpt lat="40.95450793531245" lon="14.029047828757262"><ele>-1.3333333333333333</ele><time>2026-04-24T07:24:59Z</time></trkpt><trkpt lat="40.95458025881105" lon="14.029258875855541"><ele>-1.6666666666666665</ele><time>2026-04-24T07:25:00Z</time></trkpt><trkpt lat="40.954653057365555" lon="14.029471245847073"><ele>-2.0</ele><time>2026-04-24T07:25:01Z</time></trkpt><trkpt lat="40.95472423603419" lon="14.029682215388231"><ele>-2.0</ele><time>2026-04-24T07:25:02Z</time></trkpt><trkpt lat="40.95479116244981" lon="14.02988966211816"><ele>-2.0</ele><time>2026-04-24T07:25:03Z</time></trkpt><trkpt lat="40.95485786500049" lon="14.030102157298543"><ele>-2.0</ele><time>2026-04-24T07:25:04Z</time></trkpt><trkpt lat="40.95492616536512" lon="14.030314109547728"><ele>-1.6666666666666665</ele><time>2026-04-24T07:25:05Z</time></trkpt><trkpt lat="40.95499812352009" lon="14.030526920233992"><ele>-1.3333333333333333</ele><time>2026-04-24T07:25:06Z</time></trkpt><trkpt lat="40.95507139570996" lon="14.03073802818702"><ele>-1.0</ele><time>2026-04-24T07:25:07Z</time></trkpt><trkpt lat="40.95514153269265" lon="14.030942927583855"><ele>-1.0</ele><time>2026-04-24T07:25:08Z</time></trkpt><trkpt lat="40.95521058058795" lon="14.031151944020964"><ele>-1.0</ele><time>2026-04-24T07:25:09Z</time></trkpt><trkpt lat="40.955280174891364" lon="14.031356882327614"><ele>-1.0</ele><time>2026-04-24T07:25:10Z</time></trkpt><trkpt lat="40.95534882105672" lon="14.031563970444168"><ele>-1.0</ele><time>2026-04-24T07:25:11Z</time></trkpt><trkpt lat="40.95541953563783" lon="14.03176822993355"><ele>-1.0</ele><time>2026-04-24T07:25:12Z</time></trkpt><trkpt lat="40.955493717708514" lon="14.031969250882206"><ele>-1.0</ele><time>2026-04-24T07:25:13Z</time></trkpt><trkpt lat="40.9555665720248" lon="14.032173214544164"><ele>-1.0</ele><time>2026-04-24T07:25:14Z</time></trkpt><trkpt lat="40.95563486652559" lon="14.032382012942605"><ele>-1.0</ele><time>2026-04-24T07:25:15Z</time></trkpt><trkpt lat="40.95570322050311" lon="14.03258768089077"><ele>-1.0</ele><time>2026-04-24T07:25:16Z</time></trkpt><trkpt lat="40.95577328417262" lon="14.03279571466191"><ele>-1.0</ele><time>2026-04-24T07:25:17Z</time></trkpt><trkpt lat="40.955844218740076" lon="14.032996183022926"><ele>-1.0</ele><time>2026-04-24T07:25:18Z</time></trkpt><trkpt lat="40.95590918643232" lon="14.03318253745459"><ele>-1.0</ele><time>2026-04-24T07:25:19Z</time></trkpt><trkpt lat="40.95596611282568" lon="14.03335220908012"><ele>-1.0</ele><time>2026-04-24T07:25:20Z</time></trkpt><trkpt lat="40.956022724826106" lon="14.033510378849506"><ele>-1.0</ele><time>2026-04-24T07:25:21Z</time></trkpt><trkpt lat="40.956073936868165" lon="14.033653535106975"><ele>-1.0</ele><time>2026-04-24T07:25:22Z</time></trkpt><trkpt lat="40.956119512774265" lon="14.033786303427789"><ele>-1.0</ele><time>2026-04-24T07:25:23Z</time></trkpt><trkpt lat="40.95619756775246" lon="14.034030238798806"><ele>-0.8333333333333333</ele><time>2026-04-24T07:25:25Z</time></trkpt><trkpt lat="40.956234502792285" lon="14.03414675284577"><ele>-0.6666666666666666</ele><time>2026-04-24T07:25:26Z</time></trkpt><trkpt lat="40.956272630025616" lon="14.034259186856305"><ele>-0.5</ele><time>2026-04-24T07:25:27Z</time></trkpt><trkpt lat="40.95630803196452" lon="14.034365417516128"><ele>-0.3333333333333333</ele><time>2026-04-24T07:25:28Z</time></trkpt><trkpt lat="40.956343763750596" lon="14.034472576629794"><ele>-0.16666666666666666</ele><time>2026-04-24T07:25:28.999Z</time></trkpt><trkpt lat="40.95637938831217" lon="14.034571972369001"><ele>0.0</ele><time>2026-04-24T07:25:29.999Z</time></trkpt><trkpt lat="40.95641079072709" lon="14.034665171066955"><ele>0.0</ele><time>2026-04-24T07:25:30.999Z</time></trkpt><trkpt lat="40.956443013837955" lon="14.034759455144043"><ele>0.0</ele><time>2026-04-24T07:25:31.999Z</time></trkpt><trkpt lat="40.956471693371185" lon="14.034848258880215"><ele>0.0</ele><time>2026-04-24T07:25:32.999Z</time></trkpt><trkpt lat="40.95650132245254" lon="14.034933727583587"><ele>0.0</ele><time>2026-04-24T07:25:33.999Z</time></trkpt><trkpt lat="40.95653165245359" lon="14.035018681394794"><ele>0.0</ele><time>2026-04-24T07:25:34.999Z</time></trkpt><trkpt lat="40.95656484456134" lon="14.035110811252208"><ele>0.0</ele><time>2026-04-24T07:25:35.999Z</time></trkpt><trkpt lat="40.956598854984655" lon="14.035211560651344"><ele>0.0</ele><time>2026-04-24T07:25:36.999Z</time></trkpt><trkpt lat="40.95663449111512" lon="14.035321542380593"><ele>0.0</ele><time>2026-04-24T07:25:37.999Z</time></trkpt><trkpt lat="40.95667194232231" lon="14.035437579464011"><ele>0.0</ele><time>2026-04-24T07:25:38.999Z</time></trkpt><trkpt lat="40.95670718851288" lon="14.03555153493075"><ele>0.0</ele><time>2026-04-24T07:25:39.999Z</time></trkpt><trkpt lat="40.95674466641" lon="14.035661499876955"><ele>0.0</ele><time>2026-04-24T07:25:40.999Z</time></trkpt><trkpt lat="40.95678165484188" lon="14.035769043723956"><ele>0.16666666666666666</ele><time>2026-04-24T07:25:41.999Z</time></trkpt><trkpt lat="40.956820519051355" lon="14.035875756306112"><ele>0.3333333333333333</ele><time>2026-04-24T07:25:42.999Z</time></trkpt><trkpt lat="40.95685466288866" lon="14.03597940167617"><ele>0.5</ele><time>2026-04-24T07:25:43.999Z</time></trkpt><trkpt lat="40.9568881680081" lon="14.03607308785466"><ele>0.6666666666666666</ele><time>2026-04-24T07:25:44.999Z</time></trkpt><trkpt lat="40.95691859709913" lon="14.036163955739536"><ele>0.8333333333333333</ele><time>2026-04-24T07:25:45.999Z</time></trkpt><trkpt lat="40.95693265548003" lon="14.036260239386062"><ele>1.0</ele><time>2026-04-24T07:25:46.999Z</time></trkpt><trkpt lat="40.95696163645957" lon="14.036345586179449"><ele>0.9999999999999999</ele><time>2026-04-24T07:25:47.999Z</time></trkpt><trkpt lat="40.956992216845094" lon="14.03643643221143"><ele>1.0</ele><time>2026-04-24T07:25:48.999Z</time></trkpt><trkpt lat="40.957022372018415" lon="14.036526015042082"><ele>1.0</ele><time>2026-04-24T07:25:49.999Z</time></trkpt><trkpt lat="40.95706822519893" lon="14.036614126478561"><ele>1.0</ele><time>2026-04-24T07:25:50.999Z</time></trkpt><trkpt lat="40.95710065243533" lon="14.036710982166847"><ele>0.9999999999999999</ele><time>2026-04-24T07:25:51.999Z</time></trkpt><trkpt lat="40.95713187202153" lon="14.036812492013972"><ele>1.0</ele><time>2026-04-24T07:25:52.999Z</time></trkpt><trkpt lat="40.95716494442463" lon="14.036910378768146"><ele>0.8333333333333333</ele><time>2026-04-24T07:25:53.999Z</time></trkpt><trkpt lat="40.95719691294515" lon="14.037003098695871"><ele>0.6666666666666666</ele><time>2026-04-24T07:25:54.999Z</time></trkpt><trkpt lat="40.95722889745537" lon="14.037095662067596"><ele>0.5</ele><time>2026-04-24T07:25:55.999Z</time></trkpt><trkpt lat="40.957246914215254" lon="14.0371971470888"><ele>0.3333333333333333</ele><time>2026-04-24T07:25:56.999Z</time></trkpt><trkpt lat="40.957279608079894" lon="14.03729508735566"><ele>0.16666666666666666</ele><time>2026-04-24T07:25:57.999Z</time></trkpt><trkpt lat="40.95731451357438" lon="14.037399652958454"><ele>0.0</ele><time>2026-04-24T07:25:58.999Z</time></trkpt><trkpt lat="40.957365924168016" lon="14.03750135758965"><ele>0.0</ele><time>2026-04-24T07:25:59.999Z</time></trkpt><trkpt lat="40.95739752089924" lon="14.037614666185902"><ele>0.0</ele><time>2026-04-24T07:26:00.999Z</time></trkpt><trkpt lat="40.957431470454544" lon="14.037727214286445"><ele>0.0</ele><time>2026-04-24T07:26:01.999Z</time></trkpt><trkpt lat="40.957468168242" lon="14.037838496810709"><ele>0.0</ele><time>2026-04-24T07:26:02.999Z</time></trkpt><trkpt lat="40.9575122576478" lon="14.037957169318465"><ele>0.0</ele><time>2026-04-24T07:26:03.999Z</time></trkpt><trkpt lat="40.95753759305351" lon="14.038066977846306"><ele>0.16666666666666666</ele><time>2026-04-24T07:26:04.999Z</time></trkpt><trkpt lat="40.95756946700061" lon="14.038161494910849"><ele>0.3333333333333333</ele><time>2026-04-24T07:26:05.999Z</time></trkpt><trkpt lat="40.95760811659291" lon="14.038232854487894"><ele>0.5</ele><time>2026-04-24T07:26:06.999Z</time></trkpt><trkpt lat="40.95762685463788" lon="14.03832758013612"><ele>0.6666666666666666</ele><time>2026-04-24T07:26:08.999Z</time></trkpt><trkpt lat="40.95773878575504" lon="14.03821783089318"><ele>0.8333333333333333</ele><time>2026-04-24T07:26:11.999Z</time></trkpt><trkpt lat="40.957814777398816" lon="14.038157669299853"><ele>1.0</ele><time>2026-04-24T07:26:13.999Z</time></trkpt><trkpt lat="40.95791884932865" lon="14.038084350314628"><ele>0.9999999999999999</ele><time>2026-04-24T07:26:15.999Z</time></trkpt><trkpt lat="40.95802005125173" lon="14.038014114251688"><ele>1.0</ele><time>2026-04-24T07:26:17.999Z</time></trkpt><trkpt lat="40.958079004666146" lon="14.037965195888198"><ele>1.0</ele><time>2026-04-24T07:26:18.999Z</time></trkpt><trkpt lat="40.95815139411302" lon="14.037928243037165"><ele>1.0</ele><time>2026-04-24T07:26:19.999Z</time></trkpt><trkpt lat="40.95822336498644" lon="14.037878415713717"><ele>0.9999999999999999</ele><time>2026-04-24T07:26:20.999Z</time></trkpt><trkpt lat="40.95830899953154" lon="14.037829858479924"><ele>1.0</ele><time>2026-04-24T07:26:21.999Z</time></trkpt><trkpt lat="40.95839948692733" lon="14.037773262127267"><ele>0.6000000000000001</ele><time>2026-04-24T07:26:22.999Z</time></trkpt><trkpt lat="40.95850055988678" lon="14.037717083991124"><ele>0.20000000000000007</ele><time>2026-04-24T07:26:23.999Z</time></trkpt><trkpt lat="40.95859991412449" lon="14.03765064862585"><ele>-0.20000000000000007</ele><time>2026-04-24T07:26:24.998Z</time></trkpt><trkpt lat="40.95870533855713" lon="14.037607489016613"><ele>-0.6000000000000001</ele><time>2026-04-24T07:26:25.998Z</time></trkpt><trkpt lat="40.958808083609405" lon="14.03754419330471"><ele>-1.0</ele><time>2026-04-24T07:26:26.998Z</time></trkpt><trkpt lat="40.958907869185424" lon="14.037482174220779"><ele>-0.75</ele><time>2026-04-24T07:26:27.998Z</time></trkpt><trkpt lat="40.95901178187768" lon="14.037417387861138"><ele>-0.5</ele><time>2026-04-24T07:26:28.998Z</time></trkpt><trkpt lat="40.95911908694349" lon="14.037349940679007"><ele>-0.25</ele><time>2026-04-24T07:26:29.998Z</time></trkpt><trkpt lat="40.95922877603255" lon="14.037283456195365"><ele>0.0</ele><time>2026-04-24T07:26:30.998Z</time></trkpt><trkpt lat="40.959341200412865" lon="14.037216946883479"><ele>0.0</ele><time>2026-04-24T07:26:31.998Z</time></trkpt><trkpt lat="40.95945407998786" lon="14.037150168271358"><ele>0.0</ele><time>2026-04-24T07:26:32.998Z</time></trkpt><trkpt lat="40.95956202368678" lon="14.037063096007742"><ele>0.0</ele><time>2026-04-24T07:26:33.998Z</time></trkpt><trkpt lat="40.95968275590285" lon="14.03701488552"><ele>0.0</ele><time>2026-04-24T07:26:34.998Z</time></trkpt><trkpt lat="40.95979054032972" lon="14.036926533603479"><ele>0.0</ele><time>2026-04-24T07:26:35.998Z</time></trkpt><trkpt lat="40.95990642043528" lon="14.0368585495501"><ele>0.0</ele><time>2026-04-24T07:26:36.998Z</time></trkpt><trkpt lat="40.96001627386678" lon="14.036789989834913"><ele>0.0</ele><time>2026-04-24T07:26:37.998Z</time></trkpt><trkpt lat="40.96012021229414" lon="14.036728090134178"><ele>0.0</ele><time>2026-04-24T07:26:38.998Z</time></trkpt><trkpt lat="40.96021683773587" lon="14.036671166322074"><ele>0.4</ele><time>2026-04-24T07:26:39.998Z</time></trkpt><trkpt lat="40.96030998774467" lon="14.036610295847616"><ele>0.8</ele><time>2026-04-24T07:26:40.998Z</time></trkpt><trkpt lat="40.96039692167187" lon="14.036549288257781"><ele>1.2000000000000002</ele><time>2026-04-24T07:26:41.998Z</time></trkpt><trkpt lat="40.96049277209292" lon="14.036517894968297"><ele>1.6</ele><time>2026-04-24T07:26:42.998Z</time></trkpt><trkpt lat="40.960577066985934" lon="14.036466639386058"><ele>2.0</ele><time>2026-04-24T07:26:43.998Z</time></trkpt><trkpt lat="40.960657820832495" lon="14.036417095763973"><ele>1.9999999999999998</ele><time>2026-04-24T07:26:44.998Z</time></trkpt><trkpt lat="40.96073828558843" lon="14.03636765021135"><ele>2.0</ele><time>2026-04-24T07:26:45.998Z</time></trkpt><trkpt lat="40.96081445324044" lon="14.036320845239318"><ele>2.0</ele><time>2026-04-24T07:26:46.998Z</time></trkpt><trkpt lat="40.96089003739179" lon="14.036274398818552"><ele>2.0</ele><time>2026-04-24T07:26:47.998Z</time></trkpt><trkpt lat="40.960965503568886" lon="14.036228024897229"><ele>1.9999999999999998</ele><time>2026-04-24T07:26:48.998Z</time></trkpt><trkpt lat="40.96104101664552" lon="14.036181639697162"><ele>2.0</ele><time>2026-04-24T07:26:49.998Z</time></trkpt><trkpt lat="40.961111315460315" lon="14.036138513291213"><ele>1.8</ele><time>2026-04-24T07:26:50.998Z</time></trkpt><trkpt lat="40.96117766653802" lon="14.036097806105113"><ele>1.6</ele><time>2026-04-24T07:26:51.998Z</time></trkpt><trkpt lat="40.96124359065188" lon="14.036057157846471"><ele>1.4000000000000001</ele><time>2026-04-24T07:26:52.998Z</time></trkpt><trkpt lat="40.961304064494286" lon="14.036020173014665"><ele>1.2000000000000002</ele><time>2026-04-24T07:26:53.998Z</time></trkpt><trkpt lat="40.96141720320281" lon="14.03595120879348"><ele>1.0</ele><time>2026-04-24T07:26:56Z</time></trkpt><trkpt lat="40.96152849395609" lon="14.035882678612433"><ele>1.0</ele><time>2026-04-24T07:26:58Z</time></trkpt><trkpt lat="40.96163176983793" lon="14.035798272674194"><ele>1.0</ele><time>2026-04-24T07:27:00Z</time></trkpt><trkpt lat="40.96174383775181" lon="14.035731047543706"><ele>1.0</ele><time>2026-04-24T07:27:02Z</time></trkpt><trkpt lat="40.96180345470409" lon="14.035689551577372"><ele>1.0</ele><time>2026-04-24T07:27:03Z</time></trkpt><trkpt lat="40.96186441400296" lon="14.035659439670177"><ele>1.0</ele><time>2026-04-24T07:27:04Z</time></trkpt><trkpt lat="40.96193881506982" lon="14.035619873262094"><ele>1.1666666666666665</ele><time>2026-04-24T07:27:05Z</time></trkpt><trkpt lat="40.9620138957834" lon="14.035576974602654"><ele>1.3333333333333333</ele><time>2026-04-24T07:27:06Z</time></trkpt><trkpt lat="40.9620838906628" lon="14.035526550858812"><ele>1.5</ele><time>2026-04-24T07:27:07Z</time></trkpt><trkpt lat="40.96215969664252" lon="14.03547590643975"><ele>1.6666666666666665</ele><time>2026-04-24T07:27:08Z</time></trkpt><trkpt lat="40.962230095717686" lon="14.035434746925924"><ele>1.8333333333333333</ele><time>2026-04-24T07:27:09Z</time></trkpt><trkpt lat="40.96230784820807" lon="14.035388376520233"><ele>2.0</ele><time>2026-04-24T07:27:10Z</time></trkpt><trkpt lat="40.962380948635584" lon="14.03534313014616"><ele>1.9999999999999998</ele><time>2026-04-24T07:27:11Z</time></trkpt><trkpt lat="40.962454685707286" lon="14.03529933921943"><ele>2.0</ele><time>2026-04-24T07:27:12Z</time></trkpt><trkpt lat="40.962524318057675" lon="14.035247022259849"><ele>2.0</ele><time>2026-04-24T07:27:13Z</time></trkpt><trkpt lat="40.96258961280046" lon="14.035206056388006"><ele>2.0</ele><time>2026-04-24T07:27:14Z</time></trkpt><trkpt lat="40.96265546237569" lon="14.035169428151848"><ele>1.9999999999999998</ele><time>2026-04-24T07:27:15Z</time></trkpt><trkpt lat="40.9627288845314" lon="14.03511699536409"><ele>2.0</ele><time>2026-04-24T07:27:16Z</time></trkpt><trkpt lat="40.96281997001659" lon="14.035084011750689"><ele>1.8333333333333333</ele><time>2026-04-24T07:27:17Z</time></trkpt><trkpt lat="40.962888645971894" lon="14.035058581011372"><ele>1.6666666666666665</ele><time>2026-04-24T07:27:18Z</time></trkpt><trkpt lat="40.96295785739873" lon="14.035028191997325"><ele>1.5</ele><time>2026-04-24T07:27:19Z</time></trkpt><trkpt lat="40.963032029834466" lon="14.03499951351273"><ele>1.3333333333333333</ele><time>2026-04-24T07:27:20Z</time></trkpt><trkpt lat="40.963109861082934" lon="14.034972635382482"><ele>1.1666666666666665</ele><time>2026-04-24T07:27:21Z</time></trkpt><trkpt lat="40.9631833050993" lon="14.034947600518047"><ele>1.0</ele><time>2026-04-24T07:27:22Z</time></trkpt><trkpt lat="40.96326059596728" lon="14.034917885812318"><ele>0.8</ele><time>2026-04-24T07:27:23Z</time></trkpt><trkpt lat="40.963341021426146" lon="14.03488700530702"><ele>0.6000000000000001</ele><time>2026-04-24T07:27:24Z</time></trkpt><trkpt lat="40.96342800551625" lon="14.034865165740449"><ele>0.4</ele><time>2026-04-24T07:27:25Z</time></trkpt><trkpt lat="40.963497638252655" lon="14.03485182249905"><ele>0.2</ele><time>2026-04-24T07:27:26Z</time></trkpt><trkpt lat="40.96361723386014" lon="14.034822021598442"><ele>0.0</ele><time>2026-04-24T07:27:28Z</time></trkpt><trkpt lat="40.96374499853158" lon="14.034805685231003"><ele>0.0</ele><time>2026-04-24T07:27:30Z</time></trkpt><trkpt lat="40.96381038703205" lon="14.034797344788393"><ele>0.0</ele><time>2026-04-24T07:27:31Z</time></trkpt><trkpt lat="40.96388412383071" lon="14.034784323351476"><ele>0.0</ele><time>2026-04-24T07:27:32Z</time></trkpt><trkpt lat="40.963951344338255" lon="14.034776275499256"><ele>0.0</ele><time>2026-04-24T07:27:33Z</time></trkpt><trkpt lat="40.9640721128983" lon="14.03476420313526"><ele>0.0</ele><time>2026-04-24T07:27:35Z</time></trkpt><trkpt lat="40.964142223293784" lon="14.034767448089058"><ele>0.0</ele><time>2026-04-24T07:27:36Z</time></trkpt><trkpt lat="40.9642151435916" lon="14.034771507812833"><ele>-0.14285714285714285</ele><time>2026-04-24T07:27:37Z</time></trkpt><trkpt lat="40.96428649952811" lon="14.034777198880686"><ele>-0.2857142857142857</ele><time>2026-04-24T07:27:38Z</time></trkpt><trkpt lat="40.96435730628692" lon="14.034778682490277"><ele>-0.42857142857142855</ele><time>2026-04-24T07:27:39Z</time></trkpt><trkpt lat="40.96442841652739" lon="14.034785897969744"><ele>-0.5714285714285714</ele><time>2026-04-24T07:27:40Z</time></trkpt><trkpt lat="40.964503536340814" lon="14.034799999535338"><ele>-0.7142857142857142</ele><time>2026-04-24T07:27:41Z</time></trkpt><trkpt lat="40.96457478765454" lon="14.034812189313929"><ele>-0.8571428571428571</ele><time>2026-04-24T07:27:42Z</time></trkpt><trkpt lat="40.96465216931658" lon="14.034827538878282"><ele>-1.0</ele><time>2026-04-24T07:27:43Z</time></trkpt><trkpt lat="40.964731008825574" lon="14.034843062217726"><ele>-0.9999999999999999</ele><time>2026-04-24T07:27:43.999Z</time></trkpt><trkpt lat="40.96480318694088" lon="14.034861736202831"><ele>-1.0</ele><time>2026-04-24T07:27:44.999Z</time></trkpt><trkpt lat="40.964885688758166" lon="14.034883593209075"><ele>-1.0</ele><time>2026-04-24T07:27:45.999Z</time></trkpt><trkpt lat="40.96496288684176" lon="14.034905340773987"><ele>-1.0</ele><time>2026-04-24T07:27:46.999Z</time></trkpt><trkpt lat="40.96504646367285" lon="14.034931918859964"><ele>-0.9999999999999999</ele><time>2026-04-24T07:27:47.999Z</time></trkpt><trkpt lat="40.96513264449628" lon="14.034954981458869"><ele>-1.0</ele><time>2026-04-24T07:27:48.999Z</time></trkpt><trkpt lat="40.96521718040043" lon="14.034977592266882"><ele>-0.49999999999999994</ele><time>2026-04-24T07:27:49.999Z</time></trkpt><trkpt lat="40.96531176137491" lon="14.035012982182641"><ele>0.0</ele><time>2026-04-24T07:27:50.999Z</time></trkpt><trkpt lat="40.96538310993396" lon="14.035020735565508"><ele>0.5</ele><time>2026-04-24T07:27:51.999Z</time></trkpt><trkpt lat="40.965460738697125" lon="14.035051332058956"><ele>1.0</ele><time>2026-04-24T07:27:52.999Z</time></trkpt><trkpt lat="40.965534277130836" lon="14.035067557133205"><ele>1.4999999999999998</ele><time>2026-04-24T07:27:53.999Z</time></trkpt><trkpt lat="40.96560837738256" lon="14.035088550038337"><ele>2.0</ele><time>2026-04-24T07:27:54.999Z</time></trkpt><trkpt lat="40.96568175013049" lon="14.035109816779888"><ele>1.9999999999999998</ele><time>2026-04-24T07:27:55.999Z</time></trkpt><trkpt lat="40.9657589211025" lon="14.03513048027217"><ele>2.0</ele><time>2026-04-24T07:27:56.999Z</time></trkpt><trkpt lat="40.96584033378173" lon="14.03515320124145"><ele>2.0</ele><time>2026-04-24T07:27:57.999Z</time></trkpt><trkpt lat="40.96591674283594" lon="14.035179223307809"><ele>2.0</ele><time>2026-04-24T07:27:58.999Z</time></trkpt><trkpt lat="40.965987678289316" lon="14.035201300169978"><ele>1.9999999999999998</ele><time>2026-04-24T07:27:59.999Z</time></trkpt><trkpt lat="40.966063041827695" lon="14.035226329336432"><ele>2.0</ele><time>2026-04-24T07:28:00.999Z</time></trkpt><trkpt lat="40.966179597194945" lon="14.0352503373695"><ele>1.8333333333333333</ele><time>2026-04-24T07:28:01.999Z</time></trkpt><trkpt lat="40.966238809859846" lon="14.035279149873995"><ele>1.6666666666666665</ele><time>2026-04-24T07:28:02.999Z</time></trkpt><trkpt lat="40.96631519532033" lon="14.035308511665392"><ele>1.5</ele><time>2026-04-24T07:28:03.999Z</time></trkpt><trkpt lat="40.96639290635786" lon="14.035332819755293"><ele>1.3333333333333333</ele><time>2026-04-24T07:28:04.999Z</time></trkpt><trkpt lat="40.966476004297924" lon="14.035354127881472"><ele>1.1666666666666665</ele><time>2026-04-24T07:28:05.999Z</time></trkpt><trkpt lat="40.96656261736265" lon="14.035373837686842"><ele>1.0</ele><time>2026-04-24T07:28:06.999Z</time></trkpt><trkpt lat="40.96664930906659" lon="14.035394815708637"><ele>0.9999999999999999</ele><time>2026-04-24T07:28:07.999Z</time></trkpt><trkpt lat="40.96672408304305" lon="14.035415281040956"><ele>1.0</ele><time>2026-04-24T07:28:08.999Z</time></trkpt><trkpt lat="40.966804467121904" lon="14.035439150710804"><ele>1.0</ele><time>2026-04-24T07:28:09.999Z</time></trkpt><trkpt lat="40.966889277235744" lon="14.035459450584543"><ele>1.0</ele><time>2026-04-24T07:28:10.999Z</time></trkpt><trkpt lat="40.966987308717115" lon="14.035492595545477"><ele>0.9999999999999999</ele><time>2026-04-24T07:28:12.999Z</time></trkpt><trkpt lat="40.967059735099504" lon="14.035516167640079"><ele>1.0</ele><time>2026-04-24T07:28:14.999Z</time></trkpt><trkpt lat="40.96713802767455" lon="14.035547576816048"><ele>0.9999999999999999</ele><time>2026-04-24T07:28:17.999Z</time></trkpt><trkpt lat="40.9672254341692" lon="14.035560634360769"><ele>1.0</ele><time>2026-04-24T07:28:20.999Z</time></trkpt><trkpt lat="40.96730615896143" lon="14.035580261426416"><ele>1.0</ele><time>2026-04-24T07:28:23.999Z</time></trkpt><trkpt lat="40.9673933943727" lon="14.035605463780735"><ele>1.0</ele><time>2026-04-24T07:28:26.999Z</time></trkpt><trkpt lat="40.96747684175239" lon="14.035632353259489"><ele>0.9999999999999999</ele><time>2026-04-24T07:28:29.999Z</time></trkpt><trkpt lat="40.9675500991665" lon="14.03565595749458"><ele>1.0</ele><time>2026-04-24T07:28:32.999Z</time></trkpt><trkpt lat="40.96761625443684" lon="14.035699825929967"><ele>0.8333333333333333</ele><time>2026-04-24T07:28:35.999Z</time></trkpt><trkpt lat="40.96768737837277" lon="14.035706313806"><ele>0.6666666666666666</ele><time>2026-04-24T07:28:38.998Z</time></trkpt><trkpt lat="40.967768655777505" lon="14.03572551631835"><ele>0.5</ele><time>2026-04-24T07:28:41.998Z</time></trkpt><trkpt lat="40.967857809107684" lon="14.035736981667023"><ele>0.3333333333333333</ele><time>2026-04-24T07:28:44.998Z</time></trkpt><trkpt lat="40.9679332536595" lon="14.035759220952636"><ele>0.16666666666666666</ele><time>2026-04-24T07:28:47.998Z</time></trkpt><trkpt lat="40.96799741033944" lon="14.035779535399218"><ele>0.0</ele><time>2026-04-24T07:28:49.998Z</time></trkpt><trkpt lat="40.96807973320346" lon="14.035795670594835"><ele>0.0</ele><time>2026-04-24T07:28:51.998Z</time></trkpt><trkpt lat="40.968177818337075" lon="14.03583049389736"><ele>0.0</ele><time>2026-04-24T07:28:53.998Z</time></trkpt><trkpt lat="40.96829257320602" lon="14.035864083455337"><ele>0.0</ele><time>2026-04-24T07:28:55.998Z</time></trkpt><trkpt lat="40.968408341130775" lon="14.035896274979084"><ele>0.0</ele><time>2026-04-24T07:28:57.998Z</time></trkpt><trkpt lat="40.96852755036351" lon="14.03593299718412"><ele>-0.4</ele><time>2026-04-24T07:28:59.998Z</time></trkpt><trkpt lat="40.968589913517825" lon="14.03594507011555"><ele>-0.8</ele><time>2026-04-24T07:29:01Z</time></trkpt><trkpt lat="40.968654180645416" lon="14.035965645720783"><ele>-1.2000000000000002</ele><time>2026-04-24T07:29:02Z</time></trkpt><trkpt lat="40.968767277354466" lon="14.036007645398515"><ele>-1.6</ele><time>2026-04-24T07:29:04Z</time></trkpt><trkpt lat="40.96886550796421" lon="14.03603975861004"><ele>-2.0</ele><time>2026-04-24T07:29:06Z</time></trkpt><trkpt lat="40.96896711610608" lon="14.03605774020057"><ele>-1.9999999999999998</ele><time>2026-04-24T07:29:08Z</time></trkpt><trkpt lat="40.96906335011238" lon="14.03608051717126"><ele>-2.0</ele><time>2026-04-24T07:29:10Z</time></trkpt><trkpt lat="40.96916053253621" lon="14.036084961000912"><ele>-2.0</ele><time>2026-04-24T07:29:12Z</time></trkpt><trkpt lat="40.96923924025033" lon="14.036079584599548"><ele>-2.0</ele><time>2026-04-24T07:29:14Z</time></trkpt><trkpt lat="40.96932780233172" lon="14.036073955021573"><ele>-1.9999999999999998</ele><time>2026-04-24T07:29:16Z</time></trkpt><trkpt lat="40.96941459881303" lon="14.036069132128564"><ele>-2.0</ele><time>2026-04-24T07:29:18Z</time></trkpt><trkpt lat="40.969510947707874" lon="14.036062144766362"><ele>-1.8333333333333333</ele><time>2026-04-24T07:29:20Z</time></trkpt><trkpt lat="40.96959965704627" lon="14.036046762272155"><ele>-1.6666666666666665</ele><time>2026-04-24T07:29:22Z</time></trkpt><trkpt lat="40.969712328237314" lon="14.03604466893663"><ele>-1.5</ele><time>2026-04-24T07:29:24Z</time></trkpt><trkpt lat="40.96977645917931" lon="14.036005771733048"><ele>-1.3333333333333333</ele><time>2026-04-24T07:29:25Z</time></trkpt><trkpt lat="40.96985773073261" lon="14.036004063409154"><ele>-1.1666666666666665</ele><time>2026-04-24T07:29:26Z</time></trkpt><trkpt lat="40.96994394284579" lon="14.035967907013196"><ele>-1.0</ele><time>2026-04-24T07:29:27Z</time></trkpt><trkpt lat="40.970029085707786" lon="14.035939710544524"><ele>-0.8</ele><time>2026-04-24T07:29:28Z</time></trkpt><trkpt lat="40.970123879853745" lon="14.035911230362563"><ele>-0.6000000000000001</ele><time>2026-04-24T07:29:29Z</time></trkpt><trkpt lat="40.970228028300454" lon="14.03588500087763"><ele>-0.4</ele><time>2026-04-24T07:29:30Z</time></trkpt><trkpt lat="40.97032934322124" lon="14.035855991278956"><ele>-0.2</ele><time>2026-04-24T07:29:31Z</time></trkpt><trkpt lat="40.970430040526196" lon="14.035823518958706"><ele>0.0</ele><time>2026-04-24T07:29:32Z</time></trkpt><trkpt lat="40.97053282931139" lon="14.035794535890725"><ele>0.2</ele><time>2026-04-24T07:29:33Z</time></trkpt><trkpt lat="40.97063685086099" lon="14.035764023074037"><ele>0.4</ele><time>2026-04-24T07:29:34Z</time></trkpt><trkpt lat="40.97073656393044" lon="14.035736936727343"><ele>0.6000000000000001</ele><time>2026-04-24T07:29:35Z</time></trkpt><trkpt lat="40.97083953624694" lon="14.035712121909713"><ele>0.8</ele><time>2026-04-24T07:29:36Z</time></trkpt><trkpt lat="40.97094065227968" lon="14.035680673100172"><ele>1.0</ele><time>2026-04-24T07:29:37Z</time></trkpt><trkpt lat="40.97104694781595" lon="14.035648025471145"><ele>1.0</ele><time>2026-04-24T07:29:38Z</time></trkpt><trkpt lat="40.97115251779127" lon="14.035614451108337"><ele>1.0</ele><time>2026-04-24T07:29:39Z</time></trkpt><trkpt lat="40.971257104988986" lon="14.035583068306492"><ele>1.0</ele><time>2026-04-24T07:29:40Z</time></trkpt><trkpt lat="40.97135736160572" lon="14.035553065902732"><ele>1.0</ele><time>2026-04-24T07:29:41Z</time></trkpt><trkpt lat="40.971454820774824" lon="14.0355223330801"><ele>1.0</ele><time>2026-04-24T07:29:42Z</time></trkpt><trkpt lat="40.971545463021776" lon="14.035494118983397"><ele>0.9999999999999999</ele><time>2026-04-24T07:29:43Z</time></trkpt><trkpt lat="40.97162852957218" lon="14.035463733822699"><ele>1.0</ele><time>2026-04-24T07:29:44Z</time></trkpt><trkpt lat="40.97170107836256" lon="14.035444810648931"><ele>1.0</ele><time>2026-04-24T07:29:45Z</time></trkpt><trkpt lat="40.97178302060099" lon="14.035429387585024"><ele>1.0</ele><time>2026-04-24T07:29:46Z</time></trkpt><trkpt lat="40.97187110462444" lon="14.03540695852146"><ele>0.9999999999999999</ele><time>2026-04-24T07:29:46.999Z</time></trkpt><trkpt lat="40.971959864608245" lon="14.035379694165039"><ele>1.0</ele><time>2026-04-24T07:29:47.999Z</time></trkpt><trkpt lat="40.97204877552987" lon="14.035355674372823"><ele>1.0</ele><time>2026-04-24T07:29:48.999Z</time></trkpt><trkpt lat="40.97213302823559" lon="14.035325469083102"><ele>1.0</ele><time>2026-04-24T07:29:49.999Z</time></trkpt><trkpt lat="40.97222712405276" lon="14.035296352162234"><ele>1.0</ele><time>2026-04-24T07:29:50.999Z</time></trkpt><trkpt lat="40.97234293094403" lon="14.03526565696586"><ele>1.0</ele><time>2026-04-24T07:29:51.999Z</time></trkpt><trkpt lat="40.97245730770362" lon="14.035236369513413"><ele>1.0</ele><time>2026-04-24T07:29:52.999Z</time></trkpt><trkpt lat="40.97257551345028" lon="14.035198662498859"><ele>1.0</ele><time>2026-04-24T07:29:53.999Z</time></trkpt><trkpt lat="40.97269369394634" lon="14.035162838090505"><ele>1.0</ele><time>2026-04-24T07:29:54.999Z</time></trkpt><trkpt lat="40.97281272094251" lon="14.035129839184796"><ele>1.0</ele><time>2026-04-24T07:29:55.999Z</time></trkpt><trkpt lat="40.97292862051822" lon="14.035091794454896"><ele>1.0</ele><time>2026-04-24T07:29:56.999Z</time></trkpt><trkpt lat="40.97304953066143" lon="14.03506390707401"><ele>1.0</ele><time>2026-04-24T07:29:57.999Z</time></trkpt><trkpt lat="40.9731568175258" lon="14.035030591966628"><ele>1.0</ele><time>2026-04-24T07:29:58.999Z</time></trkpt><trkpt lat="40.973263585502025" lon="14.034999757248944"><ele>1.0</ele><time>2026-04-24T07:29:59.999Z</time></trkpt><trkpt lat="40.973362852606996" lon="14.034973222821845"><ele>1.0</ele><time>2026-04-24T07:30:00.999Z</time></trkpt><trkpt lat="40.97345731457003" lon="14.034949005722263"><ele>1.0</ele><time>2026-04-24T07:30:01.999Z</time></trkpt><trkpt lat="40.97355339469005" lon="14.034921747305031"><ele>0.8</ele><time>2026-04-24T07:30:02.999Z</time></trkpt><trkpt lat="40.97365331923572" lon="14.034889722768696"><ele>0.6000000000000001</ele><time>2026-04-24T07:30:03.999Z</time></trkpt><trkpt lat="40.97374588939958" lon="14.034863707091926"><ele>0.4</ele><time>2026-04-24T07:30:04.999Z</time></trkpt><trkpt lat="40.97384625683114" lon="14.034830454917309"><ele>0.2</ele><time>2026-04-24T07:30:05.999Z</time></trkpt><trkpt lat="40.97394989833583" lon="14.034798002865745"><ele>0.0</ele><time>2026-04-24T07:30:06.999Z</time></trkpt><trkpt lat="40.974049108177994" lon="14.034766439563757"><ele>0.0</ele><time>2026-04-24T07:30:07.999Z</time></trkpt><trkpt lat="40.97415150045645" lon="14.034737289840953"><ele>0.0</ele><time>2026-04-24T07:30:08.999Z</time></trkpt><trkpt lat="40.97425905913974" lon="14.034714930258236"><ele>0.0</ele><time>2026-04-24T07:30:09.999Z</time></trkpt><trkpt lat="40.974353703780366" lon="14.034687615972745"><ele>0.0</ele><time>2026-04-24T07:30:10.999Z</time></trkpt><trkpt lat="40.97444457624463" lon="14.034662651145672"><ele>0.0</ele><time>2026-04-24T07:30:11.999Z</time></trkpt><trkpt lat="40.974522939559336" lon="14.034644877637666"><ele>-0.16666666666666666</ele><time>2026-04-24T07:30:12.999Z</time></trkpt><trkpt lat="40.97459774350187" lon="14.034624337649777"><ele>-0.3333333333333333</ele><time>2026-04-24T07:30:13.999Z</time></trkpt><trkpt lat="40.974663962400705" lon="14.034601689333062"><ele>-0.5</ele><time>2026-04-24T07:30:14.999Z</time></trkpt><trkpt lat="40.974774102274274" lon="14.034577983316224"><ele>-0.6666666666666666</ele><time>2026-04-24T07:30:16.999Z</time></trkpt><trkpt lat="40.97483961475836" lon="14.034560509101228"><ele>-0.8333333333333333</ele><time>2026-04-24T07:30:18.999Z</time></trkpt><trkpt lat="40.97493097728811" lon="14.034533694083171"><ele>-1.0</ele><time>2026-04-24T07:30:45.998Z</time></trkpt><trkpt lat="40.97502161519123" lon="14.034505743446186"><ele>-1.0</ele><time>2026-04-24T07:30:47.998Z</time></trkpt><trkpt lat="40.975135388048095" lon="14.034472629004108"><ele>-1.0</ele><time>2026-04-24T07:30:49.998Z</time></trkpt><trkpt lat="40.97525232102818" lon="14.034438256243792"><ele>-1.0</ele><time>2026-04-24T07:30:51.998Z</time></trkpt><trkpt lat="40.97536155462657" lon="14.034406721464148"><ele>-1.0</ele><time>2026-04-24T07:30:53.998Z</time></trkpt><trkpt lat="40.97544958531638" lon="14.034382496492446"><ele>-1.0</ele><time>2026-04-24T07:30:55.998Z</time></trkpt><trkpt lat="40.97552874217785" lon="14.03437313596987"><ele>-1.0</ele><time>2026-04-24T07:30:58.998Z</time></trkpt><trkpt lat="40.975608991105766" lon="14.034338019407379"><ele>-1.0</ele><time>2026-04-24T07:31:28Z</time></trkpt><trkpt lat="40.97570066865815" lon="14.03430191203967"><ele>-1.0</ele><time>2026-04-24T07:31:30Z</time></trkpt><trkpt lat="40.97583520747413" lon="14.034249653162867"><ele>-1.0</ele><time>2026-04-24T07:31:32Z</time></trkpt><trkpt lat="40.975932725744165" lon="14.034224420209386"><ele>-1.0</ele><time>2026-04-24T07:31:33Z</time></trkpt><trkpt lat="40.97602597876813" lon="14.034201951615776"><ele>-0.75</ele><time>2026-04-24T07:31:34Z</time></trkpt><trkpt lat="40.97613610471228" lon="14.034170748808364"><ele>-0.5</ele><time>2026-04-24T07:31:35Z</time></trkpt><trkpt lat="40.976252123735186" lon="14.03414111160479"><ele>-0.25</ele><time>2026-04-24T07:31:36Z</time></trkpt><trkpt lat="40.976364691427825" lon="14.034112901850197"><ele>0.0</ele><time>2026-04-24T07:31:37Z</time></trkpt><trkpt lat="40.9764755075077" lon="14.034079403327997"><ele>0.0</ele><time>2026-04-24T07:31:38Z</time></trkpt><trkpt lat="40.97658616903737" lon="14.034046583354803"><ele>0.0</ele><time>2026-04-24T07:31:39Z</time></trkpt><trkpt lat="40.976696596144684" lon="14.034016500049841"><ele>0.0</ele><time>2026-04-24T07:31:40Z</time></trkpt><trkpt lat="40.9768073391162" lon="14.033985699706419"><ele>0.0</ele><time>2026-04-24T07:31:41Z</time></trkpt><trkpt lat="40.97691815006311" lon="14.033951474453476"><ele>0.0</ele><time>2026-04-24T07:31:42Z</time></trkpt><trkpt lat="40.97702935893779" lon="14.033917746201245"><ele>0.0</ele><time>2026-04-24T07:31:43Z</time></trkpt><trkpt lat="40.9771424498984" lon="14.033889206422414"><ele>0.0</ele><time>2026-04-24T07:31:44Z</time></trkpt><trkpt lat="40.977255764462875" lon="14.033859034396993"><ele>0.0</ele><time>2026-04-24T07:31:45Z</time></trkpt><trkpt lat="40.97737400738625" lon="14.033823994867923"><ele>0.0</ele><time>2026-04-24T07:31:46Z</time></trkpt><trkpt lat="40.97749345067783" lon="14.033787656887778"><ele>0.0</ele><time>2026-04-24T07:31:47Z</time></trkpt><trkpt lat="40.97761189776175" lon="14.033755189799"><ele>0.0</ele><time>2026-04-24T07:31:48Z</time></trkpt><trkpt lat="40.97772881781937" lon="14.033719089119217"><ele>0.0</ele><time>2026-04-24T07:31:49Z</time></trkpt><trkpt lat="40.977847684400366" lon="14.033686310583446"><ele>0.0</ele><time>2026-04-24T07:31:49.999Z</time></trkpt><trkpt lat="40.977969345940615" lon="14.033651527637332"><ele>0.0</ele><time>2026-04-24T07:31:50.999Z</time></trkpt><trkpt lat="40.978086550297945" lon="14.033614709577229"><ele>0.0</ele><time>2026-04-24T07:31:51.999Z</time></trkpt><trkpt lat="40.978205733071164" lon="14.033577761111504"><ele>0.0</ele><time>2026-04-24T07:31:52.999Z</time></trkpt><trkpt lat="40.978444945135394" lon="14.033508622323751"><ele>0.0</ele><time>2026-04-24T07:31:54.999Z</time></trkpt><trkpt lat="40.97857121807303" lon="14.033473728412387"><ele>0.0</ele><time>2026-04-24T07:31:55.999Z</time></trkpt><trkpt lat="40.9786994664488" lon="14.03343895479543"><ele>0.0</ele><time>2026-04-24T07:31:56.999Z</time></trkpt><trkpt lat="40.97882914002563" lon="14.033402163345668"><ele>0.0</ele><time>2026-04-24T07:31:57.999Z</time></trkpt><trkpt lat="40.978958545938305" lon="14.03336566119483"><ele>0.0</ele><time>2026-04-24T07:31:58.999Z</time></trkpt><trkpt lat="40.97909094317628" lon="14.033327546212988"><ele>0.0</ele><time>2026-04-24T07:31:59.999Z</time></trkpt><trkpt lat="40.979224322416954" lon="14.033288905870684"><ele>0.0</ele><time>2026-04-24T07:32:00.999Z</time></trkpt><trkpt lat="40.97935564038446" lon="14.033252702690262"><ele>0.0</ele><time>2026-04-24T07:32:01.999Z</time></trkpt><trkpt lat="40.97948844779766" lon="14.033214532096885"><ele>0.0</ele><time>2026-04-24T07:32:02.999Z</time></trkpt><trkpt lat="40.9796181040903" lon="14.033175262647186"><ele>0.0</ele><time>2026-04-24T07:32:03.999Z</time></trkpt><trkpt lat="40.979749112532886" lon="14.033139688761516"><ele>0.0</ele><time>2026-04-24T07:32:04.999Z</time></trkpt><trkpt lat="40.97985694576909" lon="14.033113112484747"><ele>0.0</ele><time>2026-04-24T07:32:05.999Z</time></trkpt><trkpt lat="40.98000565803251" lon="14.033064580211537"><ele>0.25</ele><time>2026-04-24T07:32:06.999Z</time></trkpt><trkpt lat="40.980139917074595" lon="14.033022691046494"><ele>0.5</ele><time>2026-04-24T07:32:07.999Z</time></trkpt><trkpt lat="40.980271180868215" lon="14.032982397425496"><ele>0.75</ele><time>2026-04-24T07:32:08.999Z</time></trkpt><trkpt lat="40.98040143906226" lon="14.032945763361692"><ele>1.0</ele><time>2026-04-24T07:32:09.999Z</time></trkpt><trkpt lat="40.9805289449657" lon="14.032910079557697"><ele>1.0</ele><time>2026-04-24T07:32:10.999Z</time></trkpt><trkpt lat="40.98065422722672" lon="14.03287568325018"><ele>1.0</ele><time>2026-04-24T07:32:11.999Z</time></trkpt><trkpt lat="40.980776595710026" lon="14.032837139233427"><ele>1.0</ele><time>2026-04-24T07:32:12.999Z</time></trkpt><trkpt lat="40.98089325606115" lon="14.032803655623004"><ele>1.0</ele><time>2026-04-24T07:32:13.999Z</time></trkpt><trkpt lat="40.98100291398856" lon="14.032773376603584"><ele>1.0</ele><time>2026-04-24T07:32:14.999Z</time></trkpt><trkpt lat="40.98110497078907" lon="14.032743203757203"><ele>1.0</ele><time>2026-04-24T07:32:15.999Z</time></trkpt><trkpt lat="40.98120881598069" lon="14.032714265887686"><ele>1.0</ele><time>2026-04-24T07:32:16.999Z</time></trkpt><trkpt lat="40.98130723817581" lon="14.03268950881214"><ele>1.0</ele><time>2026-04-24T07:32:17.999Z</time></trkpt><trkpt lat="40.981399269117766" lon="14.032665700144435"><ele>1.0</ele><time>2026-04-24T07:32:18.999Z</time></trkpt><trkpt lat="40.981480232614295" lon="14.032645177669572"><ele>0.9999999999999999</ele><time>2026-04-24T07:32:19.999Z</time></trkpt><trkpt lat="40.98155336096097" lon="14.032623883740898"><ele>1.0</ele><time>2026-04-24T07:32:20.999Z</time></trkpt><trkpt lat="40.981616372236616" lon="14.032606934488687"><ele>1.0</ele><time>2026-04-24T07:32:21.999Z</time></trkpt><trkpt lat="40.98170493137236" lon="14.032597762044963"><ele>1.0</ele><time>2026-04-24T07:32:23.999Z</time></trkpt><trkpt lat="40.98176929729618" lon="14.032631458120354"><ele>0.9999999999999999</ele><time>2026-04-24T07:32:26.999Z</time></trkpt><trkpt lat="40.98181233310488" lon="14.032724064744876"><ele>1.0</ele><time>2026-04-24T07:32:28.999Z</time></trkpt><trkpt lat="40.98186642764527" lon="14.032859931998324"><ele>1.1666666666666665</ele><time>2026-04-24T07:32:30.999Z</time></trkpt><trkpt lat="40.981878162495825" lon="14.03295147687382"><ele>1.3333333333333333</ele><time>2026-04-24T07:32:31.999Z</time></trkpt><trkpt lat="40.9819210009285" lon="14.033021755600902"><ele>1.5</ele><time>2026-04-24T07:32:32.999Z</time></trkpt><trkpt lat="40.98197931934662" lon="14.033093082512268"><ele>1.6666666666666665</ele><time>2026-04-24T07:32:33.999Z</time></trkpt><trkpt lat="40.98204785991642" lon="14.033155712640415"><ele>1.8333333333333333</ele><time>2026-04-24T07:32:34.999Z</time></trkpt><trkpt lat="40.98213017718229" lon="14.033220338281618"><ele>2.0</ele><time>2026-04-24T07:32:35.999Z</time></trkpt><trkpt lat="40.982214749259946" lon="14.033284117963964"><ele>2.2</ele><time>2026-04-24T07:32:36.999Z</time></trkpt><trkpt lat="40.98230044172037" lon="14.033347496340827"><ele>2.4000000000000004</ele><time>2026-04-24T07:32:37.998Z</time></trkpt><trkpt lat="40.98238324357822" lon="14.033407473808035"><ele>2.5999999999999996</ele><time>2026-04-24T07:32:38.998Z</time></trkpt><trkpt lat="40.98247206183881" lon="14.033445261583472"><ele>2.8</ele><time>2026-04-24T07:32:39.998Z</time></trkpt><trkpt lat="40.982551051357305" lon="14.033504021110046"><ele>3.0</ele><time>2026-04-24T07:32:40.998Z</time></trkpt><trkpt lat="40.98263917229288" lon="14.03353812626143"><ele>3.0</ele><time>2026-04-24T07:32:41.998Z</time></trkpt><trkpt lat="40.982718875734676" lon="14.033592314029432"><ele>3.0</ele><time>2026-04-24T07:32:42.998Z</time></trkpt><trkpt lat="40.98282420835501" lon="14.033617099311767"><ele>3.0</ele><time>2026-04-24T07:32:43.998Z</time></trkpt><trkpt lat="40.98293858685984" lon="14.033625788850989"><ele>3.0</ele><time>2026-04-24T07:32:44.998Z</time></trkpt><trkpt lat="40.98305806408853" lon="14.03361489245546"><ele>3.0</ele><time>2026-04-24T07:32:45.998Z</time></trkpt><trkpt lat="40.98318198411543" lon="14.03364436032633"><ele>3.0</ele><time>2026-04-24T07:32:46.998Z</time></trkpt><trkpt lat="40.983303134994316" lon="14.033656827771138"><ele>3.0</ele><time>2026-04-24T07:32:47.998Z</time></trkpt><trkpt lat="40.98342626408008" lon="14.033647403763661"><ele>3.0</ele><time>2026-04-24T07:32:48.998Z</time></trkpt><trkpt lat="40.98355082254054" lon="14.033660459602352"><ele>3.0</ele><time>2026-04-24T07:32:49.998Z</time></trkpt><trkpt lat="40.98367071092095" lon="14.033675152744395"><ele>3.0</ele><time>2026-04-24T07:32:50.998Z</time></trkpt><trkpt lat="40.98379170189774" lon="14.0336841949595"><ele>3.0</ele><time>2026-04-24T07:32:51.998Z</time></trkpt><trkpt lat="40.98392503019282" lon="14.033690614524449"><ele>3.0</ele><time>2026-04-24T07:32:52.998Z</time></trkpt><trkpt lat="40.984066926421704" lon="14.033698033196178"><ele>3.0</ele><time>2026-04-24T07:32:53.998Z</time></trkpt><trkpt lat="40.984221337695764" lon="14.033712389019787"><ele>3.0</ele><time>2026-04-24T07:32:54.998Z</time></trkpt><trkpt lat="40.98438140137538" lon="14.033729433279786"><ele>3.0</ele><time>2026-04-24T07:32:55.998Z</time></trkpt><trkpt lat="40.98454446459517" lon="14.033744508559"><ele>3.0</ele><time>2026-04-24T07:32:56.998Z</time></trkpt><trkpt lat="40.984705189733106" lon="14.033758227529532"><ele>3.0</ele><time>2026-04-24T07:32:57.998Z</time></trkpt><trkpt lat="40.9848642157404" lon="14.033771935410288"><ele>3.0</ele><time>2026-04-24T07:32:58.998Z</time></trkpt><trkpt lat="40.98502350707328" lon="14.033781802606091"><ele>3.0</ele><time>2026-04-24T07:32:59.998Z</time></trkpt><trkpt lat="40.98518201428914" lon="14.033795251825214"><ele>2.3333333333333335</ele><time>2026-04-24T07:33:00.998Z</time></trkpt><trkpt lat="40.98534047157703" lon="14.033810447158421"><ele>1.6666666666666665</ele><time>2026-04-24T07:33:01.998Z</time></trkpt><trkpt lat="40.98549473507902" lon="14.03382411534697"><ele>1.0</ele><time>2026-04-24T07:33:02.998Z</time></trkpt><trkpt lat="40.98564539045093" lon="14.033835973694499"><ele>1.0</ele><time>2026-04-24T07:33:03.998Z</time></trkpt><trkpt lat="40.98579757428256" lon="14.033843366406922"><ele>1.0</ele><time>2026-04-24T07:33:04.998Z</time></trkpt><trkpt lat="40.985943289384636" lon="14.03385526176998"><ele>1.0</ele><time>2026-04-24T07:33:05.998Z</time></trkpt><trkpt lat="40.98609430258894" lon="14.033874212766243"><ele>0.75</ele><time>2026-04-24T07:33:06.998Z</time></trkpt><trkpt lat="40.98623938166324" lon="14.033885614902955"><ele>0.5</ele><time>2026-04-24T07:33:07.998Z</time></trkpt><trkpt lat="40.9863791201705" lon="14.03389180316518"><ele>0.25</ele><time>2026-04-24T07:33:08.998Z</time></trkpt><trkpt lat="40.986514902411464" lon="14.0338997967676"><ele>0.0</ele><time>2026-04-24T07:33:09.998Z</time></trkpt><trkpt lat="40.986648701096385" lon="14.033911752846365"><ele>-0.25</ele><time>2026-04-24T07:33:10.998Z</time></trkpt><trkpt lat="40.98678109568204" lon="14.033921977865724"><ele>-0.5</ele><time>2026-04-24T07:33:11.998Z</time></trkpt><trkpt lat="40.98691363602896" lon="14.033933764328705"><ele>-0.75</ele><time>2026-04-24T07:33:13Z</time></trkpt><trkpt lat="40.98704607876049" lon="14.033940328364547"><ele>-1.0</ele><time>2026-04-24T07:33:14Z</time></trkpt><trkpt lat="40.987179696172504" lon="14.033969824814704"><ele>-1.0</ele><time>2026-04-24T07:33:15Z</time></trkpt><trkpt lat="40.987311329265275" lon="14.033979853387734"><ele>-1.0</ele><time>2026-04-24T07:33:16Z</time></trkpt><trkpt lat="40.987447144464916" lon="14.033990713489045"><ele>-1.0</ele><time>2026-04-24T07:33:17Z</time></trkpt><trkpt lat="40.987586729075446" lon="14.0340021926942"><ele>-1.0</ele><time>2026-04-24T07:33:18Z</time></trkpt><trkpt lat="40.98772718871563" lon="14.034013743860399"><ele>-0.6666666666666666</ele><time>2026-04-24T07:33:19Z</time></trkpt><trkpt lat="40.98787257986972" lon="14.034026001413704"><ele>-0.3333333333333333</ele><time>2026-04-24T07:33:20Z</time></trkpt><trkpt lat="40.988027347382996" lon="14.034039405527942"><ele>0.0</ele><time>2026-04-24T07:33:21Z</time></trkpt><trkpt lat="40.988183108435734" lon="14.034052895682725"><ele>0.0</ele><time>2026-04-24T07:33:22Z</time></trkpt><trkpt lat="40.98833603579505" lon="14.034065496851188"><ele>0.0</ele><time>2026-04-24T07:33:23Z</time></trkpt><trkpt lat="40.98849911591263" lon="14.034078899558336"><ele>0.0</ele><time>2026-04-24T07:33:24Z</time></trkpt><trkpt lat="40.98866233144347" lon="14.034091589383179"><ele>0.0</ele><time>2026-04-24T07:33:25Z</time></trkpt><trkpt lat="40.98884018620634" lon="14.034104594899189"><ele>0.0</ele><time>2026-04-24T07:33:26Z</time></trkpt><trkpt lat="40.98901477731015" lon="14.034117508709912"><ele>0.0</ele><time>2026-04-24T07:33:27Z</time></trkpt><trkpt lat="40.98918746478524" lon="14.034132405618427"><ele>-0.3333333333333333</ele><time>2026-04-24T07:33:28Z</time></trkpt><trkpt lat="40.989351815503596" lon="14.034146566421791"><ele>-0.6666666666666666</ele><time>2026-04-24T07:33:29Z</time></trkpt><trkpt lat="40.989512894995194" lon="14.034159776743904"><ele>-1.0</ele><time>2026-04-24T07:33:30Z</time></trkpt><trkpt lat="40.98967784715542" lon="14.034153458857757"><ele>-1.0</ele><time>2026-04-24T07:33:31Z</time></trkpt><trkpt lat="40.98983413136793" lon="14.034184933148522"><ele>-1.0</ele><time>2026-04-24T07:33:32Z</time></trkpt><trkpt lat="40.98998656956254" lon="14.034197187458266"><ele>-1.0</ele><time>2026-04-24T07:33:33Z</time></trkpt><trkpt lat="40.99014594586262" lon="14.034189656645061"><ele>-1.0</ele><time>2026-04-24T07:33:34Z</time></trkpt><trkpt lat="40.99029857855056" lon="14.03422545941528"><ele>-1.0</ele><time>2026-04-24T07:33:35Z</time></trkpt><trkpt lat="40.990451663432765" lon="14.034238575277104"><ele>-1.0</ele><time>2026-04-24T07:33:36Z</time></trkpt><trkpt lat="40.99060611116242" lon="14.03425083096429"><ele>-1.0</ele><time>2026-04-24T07:33:37Z</time></trkpt><trkpt lat="40.99075790998594" lon="14.03426287645486"><ele>-1.0</ele><time>2026-04-24T07:33:37.999Z</time></trkpt><trkpt lat="40.990912014737475" lon="14.03427510492758"><ele>-1.0</ele><time>2026-04-24T07:33:38.999Z</time></trkpt><trkpt lat="40.99106847727821" lon="14.034274836071823"><ele>-0.3333333333333333</ele><time>2026-04-24T07:33:39.999Z</time></trkpt><trkpt lat="40.99122025215211" lon="14.034284534941637"><ele>0.3333333333333333</ele><time>2026-04-24T07:33:40.999Z</time></trkpt><trkpt lat="40.99137558144944" lon="14.034299067445714"><ele>1.0</ele><time>2026-04-24T07:33:41.999Z</time></trkpt><trkpt lat="40.99152593083592" lon="14.03431233888256"><ele>1.3333333333333333</ele><time>2026-04-24T07:33:42.999Z</time></trkpt><trkpt lat="40.991678302105726" lon="14.034324777792294"><ele>1.6666666666666665</ele><time>2026-04-24T07:33:43.999Z</time></trkpt><trkpt lat="40.99183147374188" lon="14.034334789073618"><ele>2.0</ele><time>2026-04-24T07:33:44.999Z</time></trkpt><trkpt lat="40.991981971133384" lon="14.034348023287702"><ele>2.0</ele><time>2026-04-24T07:33:45.999Z</time></trkpt><trkpt lat="40.99213369991025" lon="14.034357923576174"><ele>2.0</ele><time>2026-04-24T07:33:46.999Z</time></trkpt><trkpt lat="40.99228382964781" lon="14.034371857964832"><ele>2.0</ele><time>2026-04-24T07:33:47.999Z</time></trkpt><trkpt lat="40.99243777823202" lon="14.034386168985177"><ele>1.0</ele><time>2026-04-24T07:33:48.999Z</time></trkpt><trkpt lat="40.99259223173226" lon="14.034392976765528"><ele>0.0</ele><time>2026-04-24T07:33:49.999Z</time></trkpt><trkpt lat="40.99274267731886" lon="14.034412025728658"><ele>-1.0</ele><time>2026-04-24T07:33:50.999Z</time></trkpt><trkpt lat="40.99289905873974" lon="14.034423193577206"><ele>-1.0</ele><time>2026-04-24T07:33:51.999Z</time></trkpt><trkpt lat="40.99306358372106" lon="14.034435027999816"><ele>-1.0</ele><time>2026-04-24T07:33:52.999Z</time></trkpt><trkpt lat="40.993225847257385" lon="14.034445775485691"><ele>-1.0</ele><time>2026-04-24T07:33:53.999Z</time></trkpt><trkpt lat="40.99338974958635" lon="14.03445808458398"><ele>-0.3333333333333333</ele><time>2026-04-24T07:33:54.999Z</time></trkpt><trkpt lat="40.993555994779136" lon="14.034472016648275"><ele>0.3333333333333333</ele><time>2026-04-24T07:33:55.999Z</time></trkpt><trkpt lat="40.9937240543053" lon="14.03448675491573"><ele>1.0</ele><time>2026-04-24T07:33:56.999Z</time></trkpt><trkpt lat="40.99389067291211" lon="14.034504382199357"><ele>1.0</ele><time>2026-04-24T07:33:57.999Z</time></trkpt><trkpt lat="40.994055189946565" lon="14.034520166553092"><ele>1.0</ele><time>2026-04-24T07:33:58.999Z</time></trkpt><trkpt lat="40.994216823877295" lon="14.034534959506795"><ele>1.0</ele><time>2026-04-24T07:33:59.999Z</time></trkpt><trkpt lat="40.99453488193621" lon="14.03456229825956"><ele>1.3333333333333333</ele><time>2026-04-24T07:34:01.999Z</time></trkpt><trkpt lat="40.99468960711699" lon="14.034573673201336"><ele>1.6666666666666665</ele><time>2026-04-24T07:34:02.999Z</time></trkpt><trkpt lat="40.99484361049515" lon="14.034588641944632"><ele>2.0</ele><time>2026-04-24T07:34:03.999Z</time></trkpt><trkpt lat="40.99499818535866" lon="14.034599993090836"><ele>1.6666666666666665</ele><time>2026-04-24T07:34:04.999Z</time></trkpt><trkpt lat="40.99515707143661" lon="14.034608841330405"><ele>1.3333333333333333</ele><time>2026-04-24T07:34:05.999Z</time></trkpt><trkpt lat="40.99531579664627" lon="14.034616407868901"><ele>1.0</ele><time>2026-04-24T07:34:06.999Z</time></trkpt><trkpt lat="40.995472527027665" lon="14.034630188533862"><ele>1.0</ele><time>2026-04-24T07:34:07.999Z</time></trkpt><trkpt lat="40.99562987341451" lon="14.034641869183469"><ele>1.0</ele><time>2026-04-24T07:34:08.999Z</time></trkpt><trkpt lat="40.99579038300883" lon="14.034653696941383"><ele>1.0</ele><time>2026-04-24T07:34:09.999Z</time></trkpt><trkpt lat="40.99594816694071" lon="14.034669244218431"><ele>1.0</ele><time>2026-04-24T07:34:10.999Z</time></trkpt><trkpt lat="40.99610749702288" lon="14.034682641582249"><ele>1.0</ele><time>2026-04-24T07:34:11.999Z</time></trkpt><trkpt lat="40.99626414288838" lon="14.034699678421768"><ele>1.0</ele><time>2026-04-24T07:34:12.999Z</time></trkpt><trkpt lat="40.996420585088586" lon="14.034709837031091"><ele>1.0</ele><time>2026-04-24T07:34:13.999Z</time></trkpt><trkpt lat="40.99657588270483" lon="14.034717273873687"><ele>1.0</ele><time>2026-04-24T07:34:14.999Z</time></trkpt><trkpt lat="40.9967273732618" lon="14.034731434734255"><ele>1.0</ele><time>2026-04-24T07:34:15.999Z</time></trkpt><trkpt lat="40.99687447920507" lon="14.034747780600261"><ele>0.75</ele><time>2026-04-24T07:34:16.999Z</time></trkpt><trkpt lat="40.997008723931785" lon="14.03476365286744"><ele>0.5</ele><time>2026-04-24T07:34:17.999Z</time></trkpt><trkpt lat="40.99713433632485" lon="14.034766493154313"><ele>0.25</ele><time>2026-04-24T07:34:18.999Z</time></trkpt><trkpt lat="40.99724453832753" lon="14.034768345225519"><ele>0.0</ele><time>2026-04-24T07:34:19.999Z</time></trkpt><trkpt lat="40.99734534929638" lon="14.034794940459566"><ele>0.0</ele><time>2026-04-24T07:34:20.999Z</time></trkpt><trkpt lat="40.99743731214399" lon="14.03480335360026"><ele>0.0</ele><time>2026-04-24T07:34:21.999Z</time></trkpt><trkpt lat="40.99751667441311" lon="14.034810613994399"><ele>0.0</ele><time>2026-04-24T07:34:22.999Z</time></trkpt><trkpt lat="40.99762112691865" lon="14.034819565213043"><ele>0.0</ele><time>2026-04-24T07:34:24.999Z</time></trkpt><trkpt lat="40.997686297791844" lon="14.034839769706428"><ele>0.0</ele><time>2026-04-24T07:34:36.998Z</time></trkpt><trkpt lat="40.997624592660735" lon="14.034819860569268"><ele>0.0</ele><time>2026-04-24T07:35:19.999Z</time></trkpt><trkpt lat="40.99762200654678" lon="14.03498478074196"><ele>0.16666666666666666</ele><time>2026-04-24T07:35:27Z</time></trkpt><trkpt lat="40.997636373609325" lon="14.035077837638832"><ele>0.3333333333333333</ele><time>2026-04-24T07:35:29Z</time></trkpt><trkpt lat="40.997624763494585" lon="14.035176953589726"><ele>0.5</ele><time>2026-04-24T07:35:34Z</time></trkpt><trkpt lat="40.99762518299531" lon="14.03527348990938"><ele>0.6666666666666666</ele><time>2026-04-24T07:35:44.999Z</time></trkpt><trkpt lat="40.99762465111838" lon="14.035375504071585"><ele>0.8333333333333333</ele><time>2026-04-24T07:35:47.999Z</time></trkpt><trkpt lat="40.9976236243973" lon="14.035479177783003"><ele>1.0</ele><time>2026-04-24T07:35:49.999Z</time></trkpt><trkpt lat="40.99761901061766" lon="14.035631470937691"><ele>0.9999999999999999</ele><time>2026-04-24T07:35:51.999Z</time></trkpt><trkpt lat="40.99761554637487" lon="14.035739629201537"><ele>1.0</ele><time>2026-04-24T07:35:52.999Z</time></trkpt><trkpt lat="40.997612040043386" lon="14.035849101368603"><ele>1.0</ele><time>2026-04-24T07:35:53.999Z</time></trkpt><trkpt lat="40.997608326598" lon="14.0359582406647"><ele>1.0</ele><time>2026-04-24T07:35:54.999Z</time></trkpt><trkpt lat="40.99760449550212" lon="14.03606896475169"><ele>0.9999999999999999</ele><time>2026-04-24T07:35:55.999Z</time></trkpt><trkpt lat="40.99760097421509" lon="14.036180342831944"><ele>1.0</ele><time>2026-04-24T07:35:56.999Z</time></trkpt><trkpt lat="40.99761367704254" lon="14.03629435385689"><ele>0.8333333333333333</ele><time>2026-04-24T07:35:57.999Z</time></trkpt><trkpt lat="40.997609204933084" lon="14.03640790259171"><ele>0.6666666666666666</ele><time>2026-04-24T07:35:58.999Z</time></trkpt><trkpt lat="40.99760765808299" lon="14.036523905783454"><ele>0.5</ele><time>2026-04-24T07:35:59.999Z</time></trkpt><trkpt lat="40.99758817412528" lon="14.036641798894477"><ele>0.3333333333333333</ele><time>2026-04-24T07:36:00.999Z</time></trkpt><trkpt lat="40.99758503449241" lon="14.036759828444293"><ele>0.16666666666666666</ele><time>2026-04-24T07:36:01.999Z</time></trkpt><trkpt lat="40.99758173233119" lon="14.036882884305397"><ele>0.0</ele><time>2026-04-24T07:36:02.999Z</time></trkpt><trkpt lat="40.99757844051388" lon="14.037003710235329"><ele>0.0</ele><time>2026-04-24T07:36:03.999Z</time></trkpt><trkpt lat="40.99757432983565" lon="14.03712068765093"><ele>0.0</ele><time>2026-04-24T07:36:04.999Z</time></trkpt><trkpt lat="40.99756945320031" lon="14.037234294001664"><ele>0.0</ele><time>2026-04-24T07:36:05.999Z</time></trkpt><trkpt lat="40.997565127032146" lon="14.037335076631619"><ele>0.0</ele><time>2026-04-24T07:36:06.999Z</time></trkpt><trkpt lat="40.99757343742567" lon="14.03743005256237"><ele>0.0</ele><time>2026-04-24T07:36:07.999Z</time></trkpt><trkpt lat="40.997559364689124" lon="14.037526565740315"><ele>0.0</ele><time>2026-04-24T07:36:08.999Z</time></trkpt><trkpt lat="40.997574159625394" lon="14.037626115376025"><ele>0.0</ele><time>2026-04-24T07:36:09.999Z</time></trkpt><trkpt lat="40.997571897645315" lon="14.037727996512187"><ele>0.0</ele><time>2026-04-24T07:36:10.999Z</time></trkpt><trkpt lat="40.99757320313786" lon="14.037832132659632"><ele>0.0</ele><time>2026-04-24T07:36:11.999Z</time></trkpt><trkpt lat="40.997582439565676" lon="14.037934767954466"><ele>0.0</ele><time>2026-04-24T07:36:12.999Z</time></trkpt><trkpt lat="40.997591715574075" lon="14.038040206723329"><ele>0.0</ele><time>2026-04-24T07:36:13.999Z</time></trkpt><trkpt lat="40.99761026527432" lon="14.038135925633249"><ele>0.0</ele><time>2026-04-24T07:36:14.999Z</time></trkpt><trkpt lat="40.997629779959254" lon="14.03823053948435"><ele>0.14285714285714285</ele><time>2026-04-24T07:36:15.999Z</time></trkpt><trkpt lat="40.9976498920011" lon="14.038328641784664"><ele>0.2857142857142857</ele><time>2026-04-24T07:36:16.999Z</time></trkpt><trkpt lat="40.997670770302484" lon="14.038417945049636"><ele>0.42857142857142855</ele><time>2026-04-24T07:36:17.999Z</time></trkpt><trkpt lat="40.99769582297248" lon="14.0384979818414"><ele>0.5714285714285714</ele><time>2026-04-24T07:36:18.999Z</time></trkpt><trkpt lat="40.997716961709756" lon="14.038577917918277"><ele>0.7142857142857142</ele><time>2026-04-24T07:36:19.999Z</time></trkpt><trkpt lat="40.9977233568672" lon="14.038667634674441"><ele>0.8571428571428571</ele><time>2026-04-24T07:36:20.999Z</time></trkpt><trkpt lat="40.9977405975866" lon="14.038750044442397"><ele>1.0</ele><time>2026-04-24T07:36:21.999Z</time></trkpt><trkpt lat="40.99777008412789" lon="14.038890988403228"><ele>1.0</ele><time>2026-04-24T07:36:23.999Z</time></trkpt><trkpt lat="40.99780414456209" lon="14.038988966034738"><ele>1.0</ele><time>2026-04-24T07:36:26.999Z</time></trkpt><trkpt lat="40.99782215068815" lon="14.039088826926733"><ele>1.0</ele><time>2026-04-24T07:36:29.999Z</time></trkpt><trkpt lat="40.99771666826378" lon="14.039197019612494"><ele>1.0</ele><time>2026-04-24T07:36:32.999Z</time></trkpt><trkpt lat="40.99763892507923" lon="14.03921639718123"><ele>1.0</ele><time>2026-04-24T07:36:34.999Z</time></trkpt><trkpt lat="40.99754050930777" lon="14.039214310573081"><ele>1.4</ele><time>2026-04-24T07:36:36.999Z</time></trkpt><trkpt lat="40.99743858715236" lon="14.039204368127898"><ele>1.8</ele><time>2026-04-24T07:36:38.999Z</time></trkpt><trkpt lat="40.99733393960442" lon="14.03919974816517"><ele>2.1999999999999997</ele><time>2026-04-24T07:36:40.999Z</time></trkpt><trkpt lat="40.997228439460464" lon="14.039188882331466"><ele>2.6</ele><time>2026-04-24T07:36:42.998Z</time></trkpt><trkpt lat="40.99716477128451" lon="14.039181546521801"><ele>3.0</ele><time>2026-04-24T07:36:43.998Z</time></trkpt><trkpt lat="40.99704982868764" lon="14.039166149663307"><ele>3.0</ele><time>2026-04-24T07:36:45.998Z</time></trkpt><trkpt lat="40.99698679544375" lon="14.039156674218704"><ele>3.0</ele><time>2026-04-24T07:36:46.998Z</time></trkpt><trkpt lat="40.996875571059995" lon="14.039146097462494"><ele>3.0</ele><time>2026-04-24T07:36:48.998Z</time></trkpt><trkpt lat="40.996776785688915" lon="14.039129142296682"><ele>3.0</ele><time>2026-04-24T07:36:50.998Z</time></trkpt><trkpt lat="40.99671274706249" lon="14.039123266286436"><ele>3.0</ele><time>2026-04-24T07:36:51.998Z</time></trkpt><trkpt lat="40.9966475512776" lon="14.039118942158941"><ele>3.0</ele><time>2026-04-24T07:36:52.998Z</time></trkpt><trkpt lat="40.99657901309521" lon="14.039112968209375"><ele>2.714285714285714</ele><time>2026-04-24T07:36:53.998Z</time></trkpt><trkpt lat="40.99651341909634" lon="14.039105838324877"><ele>2.4285714285714284</ele><time>2026-04-24T07:36:54.998Z</time></trkpt><trkpt lat="40.99644219831017" lon="14.039098869398886"><ele>2.142857142857143</ele><time>2026-04-24T07:36:55.998Z</time></trkpt><trkpt lat="40.99637020677946" lon="14.039096772469195"><ele>1.857142857142857</ele><time>2026-04-24T07:36:56.998Z</time></trkpt><trkpt lat="40.99629938332599" lon="14.039092435719166"><ele>1.5714285714285712</ele><time>2026-04-24T07:36:57.998Z</time></trkpt><trkpt lat="40.99622378203614" lon="14.039091359271934"><ele>1.2857142857142856</ele><time>2026-04-24T07:36:58.998Z</time></trkpt><trkpt lat="40.996148011095144" lon="14.039090005711957"><ele>1.0</ele><time>2026-04-24T07:36:59.998Z</time></trkpt><trkpt lat="40.99606631473757" lon="14.039085280505555"><ele>0.9999999999999999</ele><time>2026-04-24T07:37:00.998Z</time></trkpt><trkpt lat="40.995969259551416" lon="14.039084768608468"><ele>1.0</ele><time>2026-04-24T07:37:01.998Z</time></trkpt><trkpt lat="40.99587484372102" lon="14.039084881716033"><ele>1.0</ele><time>2026-04-24T07:37:02.998Z</time></trkpt><trkpt lat="40.99579500070192" lon="14.039079616932655"><ele>1.0</ele><time>2026-04-24T07:37:03.998Z</time></trkpt><trkpt lat="40.995728756232076" lon="14.0390816782839"><ele>0.9999999999999999</ele><time>2026-04-24T07:37:04.998Z</time></trkpt><trkpt lat="40.99564453783973" lon="14.039074307275902"><ele>1.0</ele><time>2026-04-24T07:37:05.998Z</time></trkpt><trkpt lat="40.995563066208945" lon="14.039068408647282"><ele>1.1428571428571428</ele><time>2026-04-24T07:37:06.998Z</time></trkpt><trkpt lat="40.995493187460596" lon="14.039060802479593"><ele>1.2857142857142856</ele><time>2026-04-24T07:37:07.998Z</time></trkpt><trkpt lat="40.995424035813926" lon="14.0390533086547"><ele>1.4285714285714284</ele><time>2026-04-24T07:37:08.998Z</time></trkpt><trkpt lat="40.99535576620569" lon="14.039045874372452"><ele>1.5714285714285714</ele><time>2026-04-24T07:37:09.998Z</time></trkpt><trkpt lat="40.995288182357704" lon="14.039037251441723"><ele>1.714285714285714</ele><time>2026-04-24T07:37:10.998Z</time></trkpt><trkpt lat="40.99522032657543" lon="14.039030193763292"><ele>1.857142857142857</ele><time>2026-04-24T07:37:11.998Z</time></trkpt><trkpt lat="40.99515191350865" lon="14.039023769389027"><ele>2.0</ele><time>2026-04-24T07:37:12.998Z</time></trkpt><trkpt lat="40.99503242882375" lon="14.039009067933176"><ele>1.6</ele><time>2026-04-24T07:37:14.998Z</time></trkpt><trkpt lat="40.99493066383441" lon="14.038992268175544"><ele>1.2000000000000002</ele><time>2026-04-24T07:37:16.998Z</time></trkpt><trkpt lat="40.99483500843357" lon="14.038972188372236"><ele>0.8</ele><time>2026-04-24T07:37:18.998Z</time></trkpt><trkpt lat="40.994737594462045" lon="14.03895038994149"><ele>0.4</ele><time>2026-04-24T07:37:20.998Z</time></trkpt><trkpt lat="40.99464645930965" lon="14.038938948545754"><ele>0.0</ele><time>2026-04-24T07:37:22.998Z</time></trkpt><trkpt lat="40.99454555959332" lon="14.038928006074446"><ele>0.0</ele><time>2026-04-24T07:37:24.999Z</time></trkpt><trkpt lat="40.99443793198076" lon="14.038914508300115"><ele>0.0</ele><time>2026-04-24T07:37:26.999Z</time></trkpt><trkpt lat="40.99432020085141" lon="14.03889949581164"><ele>0.0</ele><time>2026-04-24T07:37:28.999Z</time></trkpt><trkpt lat="40.99425648708071" lon="14.038892228889903"><ele>0.0</ele><time>2026-04-24T07:37:29.999Z</time></trkpt><trkpt lat="40.99414632709879" lon="14.038882597612869"><ele>0.0</ele><time>2026-04-24T07:37:31.999Z</time></trkpt><trkpt lat="40.99404316773686" lon="14.038876633963183"><ele>0.0</ele><time>2026-04-24T07:37:33.999Z</time></trkpt><trkpt lat="40.993939392467496" lon="14.038868763114762"><ele>0.0</ele><time>2026-04-24T07:37:35.999Z</time></trkpt><trkpt lat="40.993840558919565" lon="14.038868139005073"><ele>0.0</ele><time>2026-04-24T07:37:37.999Z</time></trkpt><trkpt lat="40.993739557353585" lon="14.038914057738499"><ele>0.0</ele><time>2026-04-24T07:37:39.999Z</time></trkpt><trkpt lat="40.993645550753776" lon="14.03900087471492"><ele>0.0</ele><time>2026-04-24T07:37:41.999Z</time></trkpt><trkpt lat="40.993561477806075" lon="14.039111683230875"><ele>0.0</ele><time>2026-04-24T07:37:43.999Z</time></trkpt><trkpt lat="40.9935241181178" lon="14.03918423669404"><ele>0.0</ele><time>2026-04-24T07:37:44.999Z</time></trkpt><trkpt lat="40.9934841773353" lon="14.039259303704613"><ele>0.0</ele><time>2026-04-24T07:37:45.999Z</time></trkpt><trkpt lat="40.99344411207949" lon="14.039335275031705"><ele>0.0</ele><time>2026-04-24T07:37:46.999Z</time></trkpt><trkpt lat="40.993404095923694" lon="14.039409995665187"><ele>0.0</ele><time>2026-04-24T07:37:47.999Z</time></trkpt><trkpt lat="40.993364338711515" lon="14.039483142434928"><ele>0.0</ele><time>2026-04-24T07:37:48.999Z</time></trkpt><trkpt lat="40.9933251300443" lon="14.03955066330293"><ele>0.0</ele><time>2026-04-24T07:37:49.999Z</time></trkpt><trkpt lat="40.9932464297934" lon="14.039675121800165"><ele>0.2</ele><time>2026-04-24T07:37:51.999Z</time></trkpt><trkpt lat="40.99318310720297" lon="14.039786859264298"><ele>0.4</ele><time>2026-04-24T07:37:53.999Z</time></trkpt><trkpt lat="40.99314079133727" lon="14.039880064508639"><ele>0.6000000000000001</ele><time>2026-04-24T07:37:55.999Z</time></trkpt><trkpt lat="40.99310271625435" lon="14.03999146911964"><ele>0.8</ele><time>2026-04-24T07:37:57.999Z</time></trkpt><trkpt lat="40.99308803807471" lon="14.04013072155661"><ele>1.0</ele><time>2026-04-24T07:37:59.999Z</time></trkpt><trkpt lat="40.99308259974713" lon="14.040276937603375"><ele>0.9999999999999999</ele><time>2026-04-24T07:38:01.999Z</time></trkpt><trkpt lat="40.993100009646504" lon="14.040404638745324"><ele>1.0</ele><time>2026-04-24T07:38:03.999Z</time></trkpt><trkpt lat="40.99311175965169" lon="14.040518272889566"><ele>1.0</ele><time>2026-04-24T07:38:05.999Z</time></trkpt><trkpt lat="40.99310741743357" lon="14.040624402201754"><ele>1.0</ele><time>2026-04-24T07:38:07.999Z</time></trkpt><trkpt lat="40.99309006920409" lon="14.040728479103523"><ele>0.9999999999999999</ele><time>2026-04-24T07:38:09.999Z</time></trkpt><trkpt lat="40.99308218622864" lon="14.040848588367226"><ele>1.0</ele><time>2026-04-24T07:38:11.999Z</time></trkpt><trkpt lat="40.993068324952766" lon="14.040962813814007"><ele>0.9999999999999999</ele><time>2026-04-24T07:38:13.999Z</time></trkpt><trkpt lat="40.993052882643575" lon="14.041073145128836"><ele>1.0</ele><time>2026-04-24T07:38:15.999Z</time></trkpt><trkpt lat="40.993042424787845" lon="14.041175106320924"><ele>1.0</ele><time>2026-04-24T07:38:17.999Z</time></trkpt><trkpt lat="40.99302372072027" lon="14.041277441530639"><ele>1.0</ele><time>2026-04-24T07:38:19.999Z</time></trkpt><trkpt lat="40.993006372425725" lon="14.04137141583714"><ele>0.9999999999999999</ele><time>2026-04-24T07:38:21.999Z</time></trkpt><trkpt lat="40.992992206205166" lon="14.041511912889652"><ele>1.0</ele><time>2026-04-24T07:38:23.999Z</time></trkpt><trkpt lat="40.99296776539669" lon="14.041638247322322"><ele>1.2000000000000002</ele><time>2026-04-24T07:38:25.999Z</time></trkpt><trkpt lat="40.992948489094644" lon="14.04178448983148"><ele>1.4000000000000001</ele><time>2026-04-24T07:38:27.999Z</time></trkpt><trkpt lat="40.992927949946" lon="14.041926973158807"><ele>1.6</ele><time>2026-04-24T07:38:29.999Z</time></trkpt><trkpt lat="40.99290418993334" lon="14.042070719331605"><ele>1.8</ele><time>2026-04-24T07:38:31.999Z</time></trkpt><trkpt lat="40.99287942476213" lon="14.042191320662479"><ele>2.0</ele><time>2026-04-24T07:38:33.999Z</time></trkpt><trkpt lat="40.99286810020537" lon="14.042311089055733"><ele>2.0</ele><time>2026-04-24T07:38:35.999Z</time></trkpt><trkpt lat="40.992868283870095" lon="14.042416555081665"><ele>2.0</ele><time>2026-04-24T07:38:37.999Z</time></trkpt><trkpt lat="40.99284578275437" lon="14.04252165975567"><ele>2.0</ele><time>2026-04-24T07:38:39.999Z</time></trkpt><trkpt lat="40.99282048864907" lon="14.042664142100552"><ele>2.0</ele><time>2026-04-24T07:38:41.999Z</time></trkpt><trkpt lat="40.99280069336638" lon="14.042794785598554"><ele>2.0</ele><time>2026-04-24T07:38:43.999Z</time></trkpt><trkpt lat="40.99278097117829" lon="14.042932212758123"><ele>2.0</ele><time>2026-04-24T07:38:45.999Z</time></trkpt><trkpt lat="40.99276899229163" lon="14.043066589299936"><ele>2.0</ele><time>2026-04-24T07:38:47.998Z</time></trkpt><trkpt lat="40.9927473219319" lon="14.043200601078231"><ele>2.0</ele><time>2026-04-24T07:38:49.998Z</time></trkpt><trkpt lat="40.99272875747066" lon="14.043318170550622"><ele>2.0</ele><time>2026-04-24T07:38:51.998Z</time></trkpt><trkpt lat="40.99269882231301" lon="14.04342349646419"><ele>2.0</ele><time>2026-04-24T07:38:53.998Z</time></trkpt><trkpt lat="40.99268185288434" lon="14.043526299627757"><ele>2.0</ele><time>2026-04-24T07:38:55.998Z</time></trkpt><trkpt lat="40.99264439796998" lon="14.043638882564961"><ele>2.0</ele><time>2026-04-24T07:38:57.998Z</time></trkpt><trkpt lat="40.992590560027715" lon="14.043745199780528"><ele>2.0</ele><time>2026-04-24T07:38:59.998Z</time></trkpt><trkpt lat="40.99252699181127" lon="14.043845702977611"><ele>2.0</ele><time>2026-04-24T07:39:01.998Z</time></trkpt><trkpt lat="40.99245882654882" lon="14.043931958458263"><ele>2.0</ele><time>2026-04-24T07:39:03.998Z</time></trkpt><trkpt lat="40.99237072086528" lon="14.04403210906136"><ele>1.9999999999999998</ele><time>2026-04-24T07:39:05.998Z</time></trkpt><trkpt lat="40.99226483012752" lon="14.04412207529875"><ele>2.0</ele><time>2026-04-24T07:39:07.998Z</time></trkpt><trkpt lat="40.992206637525946" lon="14.044162079194667"><ele>2.0</ele><time>2026-04-24T07:39:08.998Z</time></trkpt><trkpt lat="40.99214494640302" lon="14.044205158092522"><ele>2.0</ele><time>2026-04-24T07:39:09.998Z</time></trkpt><trkpt lat="40.99207542960729" lon="14.044243226883898"><ele>1.9999999999999998</ele><time>2026-04-24T07:39:10.998Z</time></trkpt><trkpt lat="40.992013048766964" lon="14.044278742129357"><ele>2.0</ele><time>2026-04-24T07:39:11.998Z</time></trkpt><trkpt lat="40.99194989591357" lon="14.04430667773094"><ele>2.0</ele><time>2026-04-24T07:39:12.998Z</time></trkpt><trkpt lat="40.991891427235934" lon="14.044338656495075"><ele>2.0</ele><time>2026-04-24T07:39:13.998Z</time></trkpt><trkpt lat="40.99177860455496" lon="14.044398005750235"><ele>2.0</ele><time>2026-04-24T07:39:15.998Z</time></trkpt><trkpt lat="40.99166826904108" lon="14.044472984245902"><ele>2.0</ele><time>2026-04-24T07:39:17.998Z</time></trkpt><trkpt lat="40.99161480353542" lon="14.044518192272873"><ele>2.0</ele><time>2026-04-24T07:39:18.998Z</time></trkpt><trkpt lat="40.99150254776441" lon="14.044584349420843"><ele>1.8333333333333333</ele><time>2026-04-24T07:39:20.998Z</time></trkpt><trkpt lat="40.99144781303442" lon="14.044630290389962"><ele>1.6666666666666665</ele><time>2026-04-24T07:39:21.998Z</time></trkpt><trkpt lat="40.99137758810655" lon="14.044751801118077"><ele>1.5</ele><time>2026-04-24T07:39:23.998Z</time></trkpt><trkpt lat="40.991351140272684" lon="14.044834340763186"><ele>1.3333333333333333</ele><time>2026-04-24T07:39:24.998Z</time></trkpt><trkpt lat="40.991339118059294" lon="14.044926358834442"><ele>1.1666666666666665</ele><time>2026-04-24T07:39:25.998Z</time></trkpt><trkpt lat="40.9913350908607" lon="14.045015386979559"><ele>1.0</ele><time>2026-04-24T07:39:26.998Z</time></trkpt><trkpt lat="40.99133402797081" lon="14.045143237445545"><ele>0.9999999999999999</ele><time>2026-04-24T07:39:28.998Z</time></trkpt><trkpt lat="40.99131617395174" lon="14.045234878664276"><ele>1.0</ele><time>2026-04-24T07:39:31Z</time></trkpt><trkpt lat="40.991242777693074" lon="14.045267283660053"><ele>1.0</ele><time>2026-04-24T07:39:34Z</time></trkpt><trkpt lat="40.99117339039423" lon="14.045209580720929"><ele>1.0</ele><time>2026-04-24T07:39:36Z</time></trkpt><trkpt lat="40.991070640306006" lon="14.045218972953265"><ele>0.9999999999999999</ele><time>2026-04-24T07:39:38Z</time></trkpt><trkpt lat="40.99098511588362" lon="14.045209347058035"><ele>1.0</ele><time>2026-04-24T07:39:39Z</time></trkpt><trkpt lat="40.990869269564065" lon="14.04517807754787"><ele>1.1666666666666665</ele><time>2026-04-24T07:39:41Z</time></trkpt><trkpt lat="40.99078774570844" lon="14.045163215142319"><ele>1.3333333333333333</ele><time>2026-04-24T07:39:42Z</time></trkpt><trkpt lat="40.99070175949695" lon="14.045146914738574"><ele>1.5</ele><time>2026-04-24T07:39:43Z</time></trkpt><trkpt lat="40.99061912670748" lon="14.04515466010061"><ele>1.6666666666666665</ele><time>2026-04-24T07:39:44Z</time></trkpt><trkpt lat="40.99053671677465" lon="14.045121730490594"><ele>1.8333333333333333</ele><time>2026-04-24T07:39:45Z</time></trkpt><trkpt lat="40.99044920547646" lon="14.045132406693348"><ele>2.0</ele><time>2026-04-24T07:39:46Z</time></trkpt><trkpt lat="40.9903647586351" lon="14.045119305866018"><ele>2.0</ele><time>2026-04-24T07:39:47Z</time></trkpt><trkpt lat="40.990279132289444" lon="14.04510636665429"><ele>2.0</ele><time>2026-04-24T07:39:48Z</time></trkpt><trkpt lat="40.99019285875974" lon="14.045084776976253"><ele>2.0</ele><time>2026-04-24T07:39:49Z</time></trkpt><trkpt lat="40.99009606877249" lon="14.045096224605398"><ele>2.0</ele><time>2026-04-24T07:39:50Z</time></trkpt><trkpt lat="40.99001433052996" lon="14.04504544309937"><ele>2.0</ele><time>2026-04-24T07:39:51Z</time></trkpt><trkpt lat="40.989906226820935" lon="14.045067704895752"><ele>2.0</ele><time>2026-04-24T07:39:52Z</time></trkpt><trkpt lat="40.989792217231624" lon="14.045052568122292"><ele>2.0</ele><time>2026-04-24T07:39:53Z</time></trkpt><trkpt lat="40.989690754632754" lon="14.045042115821005"><ele>2.0</ele><time>2026-04-24T07:39:54Z</time></trkpt><trkpt lat="40.98957927867575" lon="14.04502534757797"><ele>2.0</ele><time>2026-04-24T07:39:55Z</time></trkpt><trkpt lat="40.98947447139112" lon="14.044996247643258"><ele>2.0</ele><time>2026-04-24T07:39:56Z</time></trkpt><trkpt lat="40.98937162377558" lon="14.0449817783838"><ele>2.0</ele><time>2026-04-24T07:39:57Z</time></trkpt><trkpt lat="40.98926950820858" lon="14.044986379310304"><ele>2.0</ele><time>2026-04-24T07:39:58Z</time></trkpt><trkpt lat="40.989171182134925" lon="14.044966508685022"><ele>2.0</ele><time>2026-04-24T07:39:59Z</time></trkpt><trkpt lat="40.98907848434878" lon="14.04495918217321"><ele>2.0</ele><time>2026-04-24T07:40:00Z</time></trkpt><trkpt lat="40.98899558706486" lon="14.044950041170132"><ele>2.0</ele><time>2026-04-24T07:40:01Z</time></trkpt><trkpt lat="40.988917051725224" lon="14.044941916416535"><ele>1.8</ele><time>2026-04-24T07:40:02Z</time></trkpt><trkpt lat="40.98884450908979" lon="14.044932998732126"><ele>1.6</ele><time>2026-04-24T07:40:03Z</time></trkpt><trkpt lat="40.98873860027244" lon="14.044919754831621"><ele>1.4000000000000001</ele><time>2026-04-24T07:40:05Z</time></trkpt><trkpt lat="40.98864652842781" lon="14.044910281944766"><ele>1.2000000000000002</ele><time>2026-04-24T07:40:07Z</time></trkpt><trkpt lat="40.98856014204468" lon="14.044898966582554"><ele>1.0</ele><time>2026-04-24T07:40:09Z</time></trkpt><trkpt lat="40.98848494856693" lon="14.044970899766632"><ele>1.4</ele><time>2026-04-24T07:40:11Z</time></trkpt><trkpt lat="40.98848109239517" lon="14.045104597595847"><ele>1.8</ele><time>2026-04-24T07:40:12.999Z</time></trkpt><trkpt lat="40.98847585102134" lon="14.045242097679381"><ele>2.1999999999999997</ele><time>2026-04-24T07:40:14.999Z</time></trkpt><trkpt lat="40.988477084875576" lon="14.04538946817541"><ele>2.6</ele><time>2026-04-24T07:40:16.999Z</time></trkpt><trkpt lat="40.98847664936668" lon="14.045538403038782"><ele>3.0</ele><time>2026-04-24T07:40:18.999Z</time></trkpt><trkpt lat="40.98847274012055" lon="14.045673220755845"><ele>3.0</ele><time>2026-04-24T07:40:20.999Z</time></trkpt><trkpt lat="40.98844960609781" lon="14.045795094119976"><ele>3.0</ele><time>2026-04-24T07:40:22.999Z</time></trkpt><trkpt lat="40.98837655222452" lon="14.04587356101047"><ele>3.0</ele><time>2026-04-24T07:40:24.999Z</time></trkpt><trkpt lat="40.98831057470212" lon="14.045904277379705"><ele>3.0</ele><time>2026-04-24T07:40:25.999Z</time></trkpt><trkpt lat="40.98823962003577" lon="14.045876364798048"><ele>3.0</ele><time>2026-04-24T07:40:26.999Z</time></trkpt><trkpt lat="40.988166641519754" lon="14.04587623466259"><ele>3.0</ele><time>2026-04-24T07:40:27.999Z</time></trkpt><trkpt lat="40.98808514562086" lon="14.045876383632557"><ele>3.0</ele><time>2026-04-24T07:40:28.999Z</time></trkpt><trkpt lat="40.98800413423125" lon="14.04588944940081"><ele>3.0</ele><time>2026-04-24T07:40:29.999Z</time></trkpt><trkpt lat="40.98791985374658" lon="14.045892849621827"><ele>3.0</ele><time>2026-04-24T07:40:30.999Z</time></trkpt><trkpt lat="40.987823724305045" lon="14.04586645948292"><ele>3.0</ele><time>2026-04-24T07:40:31.999Z</time></trkpt><trkpt lat="40.987729586715325" lon="14.04585954784376"><ele>3.0</ele><time>2026-04-24T07:40:32.999Z</time></trkpt><trkpt lat="40.98761875929222" lon="14.045864347952294"><ele>3.0</ele><time>2026-04-24T07:40:33.999Z</time></trkpt><trkpt lat="40.98751684291289" lon="14.045859802628309"><ele>3.0</ele><time>2026-04-24T07:40:34.999Z</time></trkpt><trkpt lat="40.987412689728664" lon="14.045849196910757"><ele>3.0</ele><time>2026-04-24T07:40:35.999Z</time></trkpt><trkpt lat="40.98730100458552" lon="14.045843544133994"><ele>3.0</ele><time>2026-04-24T07:40:36.999Z</time></trkpt><trkpt lat="40.98718402691961" lon="14.04583589186746"><ele>3.0</ele><time>2026-04-24T07:40:37.999Z</time></trkpt><trkpt lat="40.987065174487775" lon="14.04582423092552"><ele>3.0</ele><time>2026-04-24T07:40:38.999Z</time></trkpt><trkpt lat="40.986959548506746" lon="14.045806703731268"><ele>3.0</ele><time>2026-04-24T07:40:39.999Z</time></trkpt><trkpt lat="40.98683257955492" lon="14.045807797423944"><ele>3.0</ele><time>2026-04-24T07:40:40.999Z</time></trkpt><trkpt lat="40.986726288793854" lon="14.045779477485702"><ele>3.0</ele><time>2026-04-24T07:40:41.999Z</time></trkpt><trkpt lat="40.98663373457889" lon="14.045794390873475"><ele>3.0</ele><time>2026-04-24T07:40:42.999Z</time></trkpt><trkpt lat="40.98656092461281" lon="14.045787197366668"><ele>3.0</ele><time>2026-04-24T07:40:43.999Z</time></trkpt><trkpt lat="40.98644633352665" lon="14.045773498084648"><ele>3.0</ele><time>2026-04-24T07:40:45.999Z</time></trkpt><trkpt lat="40.98635790939286" lon="14.045766392120056"><ele>3.0</ele><time>2026-04-24T07:40:47.999Z</time></trkpt><trkpt lat="40.986281893263325" lon="14.045795241985836"><ele>3.0</ele><time>2026-04-24T07:40:49.999Z</time></trkpt><trkpt lat="40.9862133652093" lon="14.045837793062116"><ele>3.0</ele><time>2026-04-24T07:40:51.999Z</time></trkpt><trkpt lat="40.98620551645263" lon="14.045967243025641"><ele>3.0</ele><time>2026-04-24T07:40:53.999Z</time></trkpt><trkpt lat="40.986199820357804" lon="14.046083203134108"><ele>3.0</ele><time>2026-04-24T07:40:55.999Z</time></trkpt><trkpt lat="40.98618424661587" lon="14.04620534026025"><ele>3.0</ele><time>2026-04-24T07:40:57.999Z</time></trkpt><trkpt lat="40.986193756141766" lon="14.046332883997975"><ele>3.0</ele><time>2026-04-24T07:40:59.999Z</time></trkpt><trkpt lat="40.98617679523894" lon="14.046450516443246"><ele>3.0</ele><time>2026-04-24T07:41:01.999Z</time></trkpt><trkpt lat="40.98618975856489" lon="14.046569672824853"><ele>2.8333333333333335</ele><time>2026-04-24T07:41:03.999Z</time></trkpt><trkpt lat="40.98618397436042" lon="14.046699471362787"><ele>2.6666666666666665</ele><time>2026-04-24T07:41:05.999Z</time></trkpt><trkpt lat="40.98616662927505" lon="14.046784724101132"><ele>2.5</ele><time>2026-04-24T07:41:06.999Z</time></trkpt><trkpt lat="40.98617460755394" lon="14.046881812147076"><ele>2.333333333333333</ele><time>2026-04-24T07:41:07.999Z</time></trkpt><trkpt lat="40.9861602945866" lon="14.046982468025739"><ele>2.1666666666666665</ele><time>2026-04-24T07:41:08.999Z</time></trkpt><trkpt lat="40.98615655284363" lon="14.047099270410229"><ele>2.0</ele><time>2026-04-24T07:41:09.999Z</time></trkpt><trkpt lat="40.98615198562147" lon="14.047212218528522"><ele>1.9999999999999998</ele><time>2026-04-24T07:41:10.999Z</time></trkpt><trkpt lat="40.9861587900036" lon="14.047333047616341"><ele>2.0</ele><time>2026-04-24T07:41:11.999Z</time></trkpt><trkpt lat="40.98614143452491" lon="14.047450463554654"><ele>2.0</ele><time>2026-04-24T07:41:12.999Z</time></trkpt><trkpt lat="40.98613433014084" lon="14.04756350367532"><ele>2.0</ele><time>2026-04-24T07:41:13.999Z</time></trkpt><trkpt lat="40.98613542019205" lon="14.047674230582073"><ele>1.9999999999999998</ele><time>2026-04-24T07:41:14.999Z</time></trkpt><trkpt lat="40.98612134686147" lon="14.047786539754183"><ele>2.0</ele><time>2026-04-24T07:41:15.998Z</time></trkpt><trkpt lat="40.9860876568864" lon="14.047894598612928"><ele>1.9999999999999998</ele><time>2026-04-24T07:41:16.998Z</time></trkpt><trkpt lat="40.98606935112915" lon="14.048009188335977"><ele>2.0</ele><time>2026-04-24T07:41:17.998Z</time></trkpt><trkpt lat="40.986047813697056" lon="14.048128669262377"><ele>2.0</ele><time>2026-04-24T07:41:18.998Z</time></trkpt><trkpt lat="40.986036969934744" lon="14.048251681350232"><ele>2.0</ele><time>2026-04-24T07:41:19.998Z</time></trkpt><trkpt lat="40.98601704476408" lon="14.048368635449194"><ele>1.9999999999999998</ele><time>2026-04-24T07:41:20.998Z</time></trkpt><trkpt lat="40.98599883081604" lon="14.048461205931085"><ele>2.0</ele><time>2026-04-24T07:41:21.998Z</time></trkpt><trkpt lat="40.98596318038028" lon="14.048591274353315"><ele>2.0</ele><time>2026-04-24T07:41:22.998Z</time></trkpt><trkpt lat="40.98595606016322" lon="14.048707450306035"><ele>2.0</ele><time>2026-04-24T07:41:23.998Z</time></trkpt><trkpt lat="40.985921202773824" lon="14.04881642169688"><ele>2.0</ele><time>2026-04-24T07:41:24.998Z</time></trkpt><trkpt lat="40.985900878194286" lon="14.048925432866762"><ele>2.0</ele><time>2026-04-24T07:41:25.998Z</time></trkpt><trkpt lat="40.98587993737901" lon="14.049037749164043"><ele>2.0</ele><time>2026-04-24T07:41:26.998Z</time></trkpt><trkpt lat="40.9858401151448" lon="14.049259382868508"><ele>1.9999999999999998</ele><time>2026-04-24T07:41:28.998Z</time></trkpt><trkpt lat="40.98581953022972" lon="14.049375974609415"><ele>2.0</ele><time>2026-04-24T07:41:29.998Z</time></trkpt><trkpt lat="40.98579962913333" lon="14.049488693208989"><ele>2.0</ele><time>2026-04-24T07:41:30.998Z</time></trkpt><trkpt lat="40.98579656348858" lon="14.049602096618576"><ele>2.0</ele><time>2026-04-24T07:41:31.998Z</time></trkpt><trkpt lat="40.98576946560581" lon="14.049712442915906"><ele>1.9999999999999998</ele><time>2026-04-24T07:41:32.998Z</time></trkpt><trkpt lat="40.985751654282346" lon="14.049829699004048"><ele>2.0</ele><time>2026-04-24T07:41:33.998Z</time></trkpt><trkpt lat="40.98571753079065" lon="14.049953693299361"><ele>2.0</ele><time>2026-04-24T07:41:34.998Z</time></trkpt><trkpt lat="40.985694824328455" lon="14.050079630202848"><ele>2.0</ele><time>2026-04-24T07:41:35.998Z</time></trkpt><trkpt lat="40.98567289010014" lon="14.050199414764574"><ele>2.0</ele><time>2026-04-24T07:41:37Z</time></trkpt><trkpt lat="40.98565169236143" lon="14.050315177221874"><ele>2.0</ele><time>2026-04-24T07:41:38Z</time></trkpt><trkpt lat="40.98562880898795" lon="14.050439736081534"><ele>2.0</ele><time>2026-04-24T07:41:39Z</time></trkpt><trkpt lat="40.985605993542265" lon="14.050563580403429"><ele>2.0</ele><time>2026-04-24T07:41:40Z</time></trkpt><trkpt lat="40.98558246003775" lon="14.050691322531849"><ele>2.0</ele><time>2026-04-24T07:41:41Z</time></trkpt><trkpt lat="40.985558283755374" lon="14.050821472444815"><ele>2.0</ele><time>2026-04-24T07:41:42Z</time></trkpt><trkpt lat="40.985550582720585" lon="14.050955050569257"><ele>2.0</ele><time>2026-04-24T07:41:43Z</time></trkpt><trkpt lat="40.98551882678752" lon="14.051086415295813"><ele>2.0</ele><time>2026-04-24T07:41:44Z</time></trkpt><trkpt lat="40.98549997005914" lon="14.051208897353156"><ele>2.0</ele><time>2026-04-24T07:41:45Z</time></trkpt><trkpt lat="40.985459521119324" lon="14.05135769433789"><ele>2.0</ele><time>2026-04-24T07:41:46Z</time></trkpt><trkpt lat="40.985455976119" lon="14.051454324331964"><ele>2.0</ele><time>2026-04-24T07:41:47Z</time></trkpt><trkpt lat="40.985430060337166" lon="14.051552659512552"><ele>2.0</ele><time>2026-04-24T07:41:48Z</time></trkpt><trkpt lat="40.98541710869829" lon="14.05167794307915"><ele>2.0</ele><time>2026-04-24T07:41:49Z</time></trkpt><trkpt lat="40.98540194540873" lon="14.051814050319564"><ele>2.5</ele><time>2026-04-24T07:41:50Z</time></trkpt><trkpt lat="40.985386412314824" lon="14.051923731553979"><ele>3.0</ele><time>2026-04-24T07:41:51Z</time></trkpt><trkpt lat="40.98537470778109" lon="14.052032428251028"><ele>3.5</ele><time>2026-04-24T07:41:52Z</time></trkpt><trkpt lat="40.98536861081514" lon="14.052143340779663"><ele>4.0</ele><time>2026-04-24T07:41:53Z</time></trkpt><trkpt lat="40.985384639501" lon="14.052250420102773"><ele>4.5</ele><time>2026-04-24T07:41:54Z</time></trkpt><trkpt lat="40.98539141797417" lon="14.052342578315844"><ele>5.0</ele><time>2026-04-24T07:41:55Z</time></trkpt><trkpt lat="40.98537964774099" lon="14.052435893231412"><ele>5.0</ele><time>2026-04-24T07:41:56Z</time></trkpt><trkpt lat="40.98538069000949" lon="14.052530270300437"><ele>5.0</ele><time>2026-04-24T07:41:57Z</time></trkpt><trkpt lat="40.98538843869996" lon="14.052632086970414"><ele>5.0</ele><time>2026-04-24T07:41:58Z</time></trkpt><trkpt lat="40.98537185191325" lon="14.052730386791819"><ele>5.0</ele><time>2026-04-24T07:41:59Z</time></trkpt><trkpt lat="40.985355546781285" lon="14.052827397708274"><ele>5.0</ele><time>2026-04-24T07:42:00Z</time></trkpt><trkpt lat="40.98533167613412" lon="14.052928180298009"><ele>5.0</ele><time>2026-04-24T07:42:01Z</time></trkpt><trkpt lat="40.98530724139314" lon="14.053032391292824"><ele>5.0</ele><time>2026-04-24T07:42:02Z</time></trkpt><trkpt lat="40.985280560889855" lon="14.053134112932083"><ele>5.0</ele><time>2026-04-24T07:42:03Z</time></trkpt><trkpt lat="40.98525850697576" lon="14.053241002072152"><ele>5.0</ele><time>2026-04-24T07:42:04Z</time></trkpt><trkpt lat="40.98523983910548" lon="14.05333499013036"><ele>5.0</ele><time>2026-04-24T07:42:05Z</time></trkpt><trkpt lat="40.98521400926602" lon="14.053417308395238"><ele>5.0</ele><time>2026-04-24T07:42:06Z</time></trkpt><trkpt lat="40.985166870174254" lon="14.053554102764624"><ele>5.0</ele><time>2026-04-24T07:42:08Z</time></trkpt><trkpt lat="40.98513604127556" lon="14.053668487631326"><ele>5.0</ele><time>2026-04-24T07:42:10Z</time></trkpt><trkpt lat="40.985108993252396" lon="14.053763718014883"><ele>5.0</ele><time>2026-04-24T07:42:12Z</time></trkpt><trkpt lat="40.985092592410275" lon="14.053849772718499"><ele>5.0</ele><time>2026-04-24T07:42:17Z</time></trkpt><trkpt lat="40.98516350888109" lon="14.053985604622444"><ele>5.0</ele><time>2026-04-24T07:42:23Z</time></trkpt><trkpt lat="40.98528085170252" lon="14.054094087848753"><ele>5.0</ele><time>2026-04-24T07:42:24.999Z</time></trkpt><trkpt lat="40.98535940121555" lon="14.054165968897822"><ele>5.0</ele><time>2026-04-24T07:42:25.999Z</time></trkpt><trkpt lat="40.98543988705058" lon="14.054239621882404"><ele>5.0</ele><time>2026-04-24T07:42:26.999Z</time></trkpt><trkpt lat="40.98552672103957" lon="14.05431908409495"><ele>5.0</ele><time>2026-04-24T07:42:27.999Z</time></trkpt><trkpt lat="40.98561544307325" lon="14.054400274067499"><ele>5.0</ele><time>2026-04-24T07:42:28.999Z</time></trkpt><trkpt lat="40.9857128780726" lon="14.054489437316898"><ele>5.0</ele><time>2026-04-24T07:42:29.999Z</time></trkpt><trkpt lat="40.985816322409065" lon="14.054583939760814"><ele>5.0</ele><time>2026-04-24T07:42:30.999Z</time></trkpt><trkpt lat="40.985917506006366" lon="14.05467566238262"><ele>5.0</ele><time>2026-04-24T07:42:31.999Z</time></trkpt><trkpt lat="40.9860101801337" lon="14.054759671194608"><ele>5.0</ele><time>2026-04-24T07:42:32.999Z</time></trkpt><trkpt lat="40.98609714825422" lon="14.054837894459139"><ele>5.0</ele><time>2026-04-24T07:42:33.999Z</time></trkpt><trkpt lat="40.98616902517567" lon="14.054902434798715"><ele>5.0</ele><time>2026-04-24T07:42:34.999Z</time></trkpt><trkpt lat="40.98622770894417" lon="14.054955128629517"><ele>5.0</ele><time>2026-04-24T07:42:35.999Z</time></trkpt><trkpt lat="40.98628058617807" lon="14.055002608608454"><ele>5.0</ele><time>2026-04-24T07:42:36.999Z</time></trkpt><trkpt lat="40.98633892144851" lon="14.055042257401023"><ele>5.0</ele><time>2026-04-24T07:42:37.999Z</time></trkpt><trkpt lat="40.98636297261882" lon="14.055134691329204"><ele>5.0</ele><time>2026-04-24T07:42:38.999Z</time></trkpt><trkpt lat="40.98632956353951" lon="14.055246146570193"><ele>5.0</ele><time>2026-04-24T07:42:39.999Z</time></trkpt><trkpt lat="40.986324567794895" lon="14.055380642849542"><ele>5.0</ele><time>2026-04-24T07:42:40.999Z</time></trkpt><trkpt lat="40.98632129789253" lon="14.05552077015407"><ele>5.0</ele><time>2026-04-24T07:42:41.999Z</time></trkpt><trkpt lat="40.98632982080473" lon="14.055655826449867"><ele>5.0</ele><time>2026-04-24T07:42:42.999Z</time></trkpt><trkpt lat="40.98631830663273" lon="14.055782828198229"><ele>5.0</ele><time>2026-04-24T07:42:43.999Z</time></trkpt><trkpt lat="40.986313957851266" lon="14.055897550480147"><ele>5.0</ele><time>2026-04-24T07:42:44.999Z</time></trkpt><trkpt lat="40.98631332717113" lon="14.056000593535321"><ele>5.0</ele><time>2026-04-24T07:42:45.999Z</time></trkpt><trkpt lat="40.98631274350513" lon="14.056105027577697"><ele>5.0</ele><time>2026-04-24T07:42:46.999Z</time></trkpt><trkpt lat="40.9863081588536" lon="14.056213315573194"><ele>5.166666666666667</ele><time>2026-04-24T07:42:47.999Z</time></trkpt><trkpt lat="40.986303758233795" lon="14.056322980200397"><ele>5.333333333333334</ele><time>2026-04-24T07:42:48.999Z</time></trkpt><trkpt lat="40.986298673473065" lon="14.056430593302805"><ele>5.5</ele><time>2026-04-24T07:42:49.999Z</time></trkpt><trkpt lat="40.98628988774274" lon="14.056535228207467"><ele>5.666666666666667</ele><time>2026-04-24T07:42:50.999Z</time></trkpt><trkpt lat="40.98627821488714" lon="14.056639567543527"><ele>5.833333333333333</ele><time>2026-04-24T07:42:51.999Z</time></trkpt><trkpt lat="40.98627065746681" lon="14.056748581503838"><ele>6.0</ele><time>2026-04-24T07:42:52.999Z</time></trkpt><trkpt lat="40.9862650890671" lon="14.05685914899592"><ele>6.0</ele><time>2026-04-24T07:42:53.999Z</time></trkpt><trkpt lat="40.986260396302825" lon="14.056975048680627"><ele>6.0</ele><time>2026-04-24T07:42:54.999Z</time></trkpt><trkpt lat="40.98625324003826" lon="14.057092440711184"><ele>6.0</ele><time>2026-04-24T07:42:55.999Z</time></trkpt><trkpt lat="40.986245810854996" lon="14.057217640610123"><ele>6.0</ele><time>2026-04-24T07:42:56.999Z</time></trkpt><trkpt lat="40.98623931405663" lon="14.057347043001359"><ele>6.0</ele><time>2026-04-24T07:42:57.999Z</time></trkpt><trkpt lat="40.98623886436814" lon="14.057471641405074"><ele>5.8</ele><time>2026-04-24T07:42:58.999Z</time></trkpt><trkpt lat="40.98623734909072" lon="14.05759222133725"><ele>5.6</ele><time>2026-04-24T07:42:59.999Z</time></trkpt><trkpt lat="40.986232485583" lon="14.057714103308188"><ele>5.4</ele><time>2026-04-24T07:43:00.999Z</time></trkpt><trkpt lat="40.98622068861126" lon="14.057840558274087"><ele>5.2</ele><time>2026-04-24T07:43:01.999Z</time></trkpt><trkpt lat="40.986205547205934" lon="14.057974099250607"><ele>5.0</ele><time>2026-04-24T07:43:02.999Z</time></trkpt><trkpt lat="40.98618958291633" lon="14.058099894943338"><ele>5.0</ele><time>2026-04-24T07:43:03.999Z</time></trkpt><trkpt lat="40.986178566044295" lon="14.05822673105192"><ele>5.0</ele><time>2026-04-24T07:43:04.999Z</time></trkpt><trkpt lat="40.986167867635324" lon="14.058373555563193"><ele>5.0</ele><time>2026-04-24T07:43:05.999Z</time></trkpt><trkpt lat="40.98615802864314" lon="14.058525884337179"><ele>5.0</ele><time>2026-04-24T07:43:06.999Z</time></trkpt><trkpt lat="40.98614948003707" lon="14.058676256648688"><ele>5.0</ele><time>2026-04-24T07:43:07.999Z</time></trkpt><trkpt lat="40.98614437198342" lon="14.058826567083278"><ele>5.0</ele><time>2026-04-24T07:43:08.999Z</time></trkpt><trkpt lat="40.98613261898746" lon="14.058979919724226"><ele>5.0</ele><time>2026-04-24T07:43:09.999Z</time></trkpt><trkpt lat="40.98610472363443" lon="14.059120077193503"><ele>5.0</ele><time>2026-04-24T07:43:10.999Z</time></trkpt><trkpt lat="40.98609899301616" lon="14.05928273287358"><ele>5.0</ele><time>2026-04-24T07:43:11.999Z</time></trkpt><trkpt lat="40.98608891339045" lon="14.0594440615203"><ele>5.0</ele><time>2026-04-24T07:43:12.999Z</time></trkpt><trkpt lat="40.98607761032205" lon="14.059605099390907"><ele>5.0</ele><time>2026-04-24T07:43:13.999Z</time></trkpt><trkpt lat="40.98606746799028" lon="14.059765785881671"><ele>5.0</ele><time>2026-04-24T07:43:14.999Z</time></trkpt><trkpt lat="40.98605601312607" lon="14.05991856691653"><ele>5.0</ele><time>2026-04-24T07:43:15.999Z</time></trkpt><trkpt lat="40.98604248213559" lon="14.060054880476956"><ele>5.0</ele><time>2026-04-24T07:43:16.999Z</time></trkpt><trkpt lat="40.98603490705987" lon="14.060187147239171"><ele>5.0</ele><time>2026-04-24T07:43:17.999Z</time></trkpt><trkpt lat="40.98602474817168" lon="14.060333614261127"><ele>5.0</ele><time>2026-04-24T07:43:18.999Z</time></trkpt><trkpt lat="40.98601385337977" lon="14.060476924849276"><ele>5.0</ele><time>2026-04-24T07:43:19.999Z</time></trkpt><trkpt lat="40.985995871629605" lon="14.060617048760454"><ele>5.0</ele><time>2026-04-24T07:43:20.999Z</time></trkpt><trkpt lat="40.985978011680906" lon="14.060755627529801"><ele>5.2</ele><time>2026-04-24T07:43:21.999Z</time></trkpt><trkpt lat="40.985964877535345" lon="14.06090353688021"><ele>5.4</ele><time>2026-04-24T07:43:22.999Z</time></trkpt><trkpt lat="40.985948461749125" lon="14.061047291557525"><ele>5.6</ele><time>2026-04-24T07:43:23.999Z</time></trkpt><trkpt lat="40.985940303909175" lon="14.061175755081187"><ele>5.8</ele><time>2026-04-24T07:43:24.998Z</time></trkpt><trkpt lat="40.98593544615164" lon="14.061295402568307"><ele>6.0</ele><time>2026-04-24T07:43:25.998Z</time></trkpt><trkpt lat="40.98592490441899" lon="14.061417802595107"><ele>6.0</ele><time>2026-04-24T07:43:26.998Z</time></trkpt><trkpt lat="40.98591344697916" lon="14.061539290253544"><ele>6.0</ele><time>2026-04-24T07:43:27.998Z</time></trkpt><trkpt lat="40.9859051949202" lon="14.061660280120204"><ele>6.0</ele><time>2026-04-24T07:43:28.998Z</time></trkpt><trkpt lat="40.985896833517224" lon="14.061784278006641"><ele>6.0</ele><time>2026-04-24T07:43:29.998Z</time></trkpt><trkpt lat="40.98589522711484" lon="14.061920156096052"><ele>6.0</ele><time>2026-04-24T07:43:30.998Z</time></trkpt><trkpt lat="40.98588658624386" lon="14.062051017890767"><ele>6.0</ele><time>2026-04-24T07:43:31.998Z</time></trkpt><trkpt lat="40.985879281465444" lon="14.06218345656926"><ele>6.0</ele><time>2026-04-24T07:43:32.998Z</time></trkpt><trkpt lat="40.985874378237554" lon="14.062314787650484"><ele>6.0</ele><time>2026-04-24T07:43:33.998Z</time></trkpt><trkpt lat="40.985871987973574" lon="14.062447412533928"><ele>6.0</ele><time>2026-04-24T07:43:34.998Z</time></trkpt><trkpt lat="40.98586899707083" lon="14.062580857864548"><ele>6.0</ele><time>2026-04-24T07:43:35.998Z</time></trkpt><trkpt lat="40.98587020068968" lon="14.062713256684043"><ele>6.0</ele><time>2026-04-24T07:43:36.998Z</time></trkpt><trkpt lat="40.9858701635125" lon="14.062843523769102"><ele>6.0</ele><time>2026-04-24T07:43:37.998Z</time></trkpt><trkpt lat="40.98586091102435" lon="14.06298331752608"><ele>6.0</ele><time>2026-04-24T07:43:38.998Z</time></trkpt><trkpt lat="40.985848701981666" lon="14.063127988688853"><ele>6.0</ele><time>2026-04-24T07:43:39.998Z</time></trkpt><trkpt lat="40.98583147369968" lon="14.063278982913749"><ele>6.0</ele><time>2026-04-24T07:43:40.998Z</time></trkpt><trkpt lat="40.985817840307874" lon="14.06342593418257"><ele>6.0</ele><time>2026-04-24T07:43:41.998Z</time></trkpt><trkpt lat="40.985800052276545" lon="14.063559110714397"><ele>6.0</ele><time>2026-04-24T07:43:43.001Z</time></trkpt><trkpt lat="40.98579028072851" lon="14.063698483269443"><ele>6.0</ele><time>2026-04-24T07:43:44.001Z</time></trkpt><trkpt lat="40.985780770016" lon="14.063829216503654"><ele>6.0</ele><time>2026-04-24T07:43:45.001Z</time></trkpt><trkpt lat="40.98576649828713" lon="14.063941066603093"><ele>6.0</ele><time>2026-04-24T07:43:46.001Z</time></trkpt><trkpt lat="40.98575460803032" lon="14.064049958990708"><ele>6.166666666666667</ele><time>2026-04-24T07:43:47.001Z</time></trkpt><trkpt lat="40.985755163874884" lon="14.064136404902815"><ele>6.333333333333334</ele><time>2026-04-24T07:43:48.001Z</time></trkpt><trkpt lat="40.98574600897604" lon="14.064232647228836"><ele>6.5</ele><time>2026-04-24T07:43:49.001Z</time></trkpt><trkpt lat="40.98573598740523" lon="14.064320840384951"><ele>6.666666666666667</ele><time>2026-04-24T07:43:50.001Z</time></trkpt><trkpt lat="40.98566844183113" lon="14.064445817091721"><ele>6.833333333333334</ele><time>2026-04-24T07:43:52.001Z</time></trkpt><trkpt lat="40.98559331299702" lon="14.0645350404135"><ele>7.0</ele><time>2026-04-24T07:43:54Z</time></trkpt><trkpt lat="40.98548964504085" lon="14.06456803287232"><ele>7.000000000000001</ele><time>2026-04-24T07:43:56Z</time></trkpt><trkpt lat="40.98540908508218" lon="14.064572332639985"><ele>7.0</ele><time>2026-04-24T07:43:57Z</time></trkpt><trkpt lat="40.985333427762214" lon="14.064582053027266"><ele>7.0</ele><time>2026-04-24T07:43:58Z</time></trkpt><trkpt lat="40.98526594630957" lon="14.064591017342309"><ele>7.0</ele><time>2026-04-24T07:43:59Z</time></trkpt><trkpt lat="40.985146024194215" lon="14.064613008292305"><ele>7.000000000000001</ele><time>2026-04-24T07:44:01Z</time></trkpt><trkpt lat="40.9850516671015" lon="14.064631665881073"><ele>7.0</ele><time>2026-04-24T07:44:03Z</time></trkpt><trkpt lat="40.98497489647311" lon="14.06467207405956"><ele>7.000000000000001</ele><time>2026-04-24T07:44:05Z</time></trkpt><trkpt lat="40.98492265101243" lon="14.064743142248336"><ele>7.0</ele><time>2026-04-24T07:44:07Z</time></trkpt><trkpt lat="40.98490530821626" lon="14.06486177108695"><ele>7.0</ele><time>2026-04-24T07:44:09Z</time></trkpt><trkpt lat="40.984899357264965" lon="14.064952600768839"><ele>7.0</ele><time>2026-04-24T07:44:10Z</time></trkpt><trkpt lat="40.984897102972" lon="14.06506961955328"><ele>7.000000000000001</ele><time>2026-04-24T07:44:11Z</time></trkpt><trkpt lat="40.98489128449432" lon="14.065187622160792"><ele>7.0</ele><time>2026-04-24T07:44:12Z</time></trkpt><trkpt lat="40.984888134070445" lon="14.06528684190885"><ele>7.199999999999999</ele><time>2026-04-24T07:44:13Z</time></trkpt><trkpt lat="40.98488448664474" lon="14.065413362807783"><ele>7.3999999999999995</ele><time>2026-04-24T07:44:14Z</time></trkpt><trkpt lat="40.984880751292664" lon="14.065538828618871"><ele>7.6000000000000005</ele><time>2026-04-24T07:44:15Z</time></trkpt><trkpt lat="40.98487643716162" lon="14.065674118662484"><ele>7.800000000000001</ele><time>2026-04-24T07:44:16Z</time></trkpt><trkpt lat="40.984877445687985" lon="14.065800341143452"><ele>8.0</ele><time>2026-04-24T07:44:17Z</time></trkpt><trkpt lat="40.98487402522025" lon="14.065923982079452"><ele>7.999999999999999</ele><time>2026-04-24T07:44:18Z</time></trkpt><trkpt lat="40.98487010700449" lon="14.066033348706114"><ele>8.0</ele><time>2026-04-24T07:44:19Z</time></trkpt><trkpt lat="40.98486936258376" lon="14.06613080537489"><ele>8.0</ele><time>2026-04-24T07:44:20Z</time></trkpt><trkpt lat="40.98486200880483" lon="14.066236856867578"><ele>8.0</ele><time>2026-04-24T07:44:22Z</time></trkpt><trkpt lat="40.984869381070936" lon="14.06632154459377"><ele>7.999999999999999</ele><time>2026-04-24T07:44:39.999Z</time></trkpt><trkpt lat="40.98486760772648" lon="14.066453967284831"><ele>8.0</ele><time>2026-04-24T07:44:41.999Z</time></trkpt><trkpt lat="40.98486184596343" lon="14.066540142645813"><ele>8.0</ele><time>2026-04-24T07:44:42.999Z</time></trkpt><trkpt lat="40.98486080923216" lon="14.066660968568463"><ele>8.0</ele><time>2026-04-24T07:44:43.999Z</time></trkpt><trkpt lat="40.984847769433934" lon="14.06678913182553"><ele>8.0</ele><time>2026-04-24T07:44:44.999Z</time></trkpt><trkpt lat="40.984842605498095" lon="14.066925674118938"><ele>8.0</ele><time>2026-04-24T07:44:45.999Z</time></trkpt><trkpt lat="40.984833033215615" lon="14.06706700809884"><ele>8.0</ele><time>2026-04-24T07:44:46.999Z</time></trkpt><trkpt lat="40.98482630380159" lon="14.067196258555501"><ele>8.0</ele><time>2026-04-24T07:44:47.999Z</time></trkpt><trkpt lat="40.98482651665693" lon="14.067328301129658"><ele>8.0</ele><time>2026-04-24T07:44:48.999Z</time></trkpt><trkpt lat="40.98482833511112" lon="14.067456532458339"><ele>8.0</ele><time>2026-04-24T07:44:49.999Z</time></trkpt><trkpt lat="40.98482873628927" lon="14.067582340517857"><ele>8.0</ele><time>2026-04-24T07:44:50.999Z</time></trkpt><trkpt lat="40.98481557781492" lon="14.06770398888633"><ele>8.0</ele><time>2026-04-24T07:44:51.999Z</time></trkpt><trkpt lat="40.98481948251274" lon="14.06782790726925"><ele>8.200000000000001</ele><time>2026-04-24T07:44:52.999Z</time></trkpt><trkpt lat="40.984828354951624" lon="14.067952235814898"><ele>8.4</ele><time>2026-04-24T07:44:53.999Z</time></trkpt><trkpt lat="40.98482847975676" lon="14.068091115183911"><ele>8.600000000000001</ele><time>2026-04-24T07:44:54.999Z</time></trkpt><trkpt lat="40.98481736849088" lon="14.068204223243605"><ele>8.8</ele><time>2026-04-24T07:44:55.999Z</time></trkpt><trkpt lat="40.98480463647306" lon="14.068357665528637"><ele>9.0</ele><time>2026-04-24T07:44:56.999Z</time></trkpt><trkpt lat="40.984814991295586" lon="14.068466472481136"><ele>9.0</ele><time>2026-04-24T07:44:57.999Z</time></trkpt><trkpt lat="40.98482408477046" lon="14.068594747691419"><ele>9.0</ele><time>2026-04-24T07:44:58.999Z</time></trkpt><trkpt lat="40.98482236170173" lon="14.068730775462669"><ele>9.0</ele><time>2026-04-24T07:44:59.999Z</time></trkpt><trkpt lat="40.98483144516571" lon="14.068871320185073"><ele>9.0</ele><time>2026-04-24T07:45:00.999Z</time></trkpt><trkpt lat="40.984833451943274" lon="14.068997925376921"><ele>9.0</ele><time>2026-04-24T07:45:01.999Z</time></trkpt><trkpt lat="40.98484220893578" lon="14.069123983509217"><ele>9.0</ele><time>2026-04-24T07:45:02.999Z</time></trkpt><trkpt lat="40.9848420970888" lon="14.069249745656759"><ele>9.0</ele><time>2026-04-24T07:45:03.999Z</time></trkpt><trkpt lat="40.984848698142955" lon="14.069374362536125"><ele>9.0</ele><time>2026-04-24T07:45:04.999Z</time></trkpt><trkpt lat="40.9848503105376" lon="14.069499246876012"><ele>9.0</ele><time>2026-04-24T07:45:05.999Z</time></trkpt><trkpt lat="40.98485067195342" lon="14.069628490836575"><ele>9.0</ele><time>2026-04-24T07:45:06.999Z</time></trkpt><trkpt lat="40.98485444658611" lon="14.069754511825506"><ele>9.0</ele><time>2026-04-24T07:45:07.999Z</time></trkpt><trkpt lat="40.984862142995766" lon="14.069870586832641"><ele>9.0</ele><time>2026-04-24T07:45:08.999Z</time></trkpt><trkpt lat="40.9848540380903" lon="14.069970108082762"><ele>9.0</ele><time>2026-04-24T07:45:09.999Z</time></trkpt><trkpt lat="40.98484550300226" lon="14.07005273942139"><ele>9.0</ele><time>2026-04-24T07:45:10.999Z</time></trkpt><trkpt lat="40.98485850066578" lon="14.070143778243908"><ele>9.0</ele><time>2026-04-24T07:45:11.999Z</time></trkpt><trkpt lat="40.98486331455882" lon="14.070316633990627"><ele>9.0</ele><time>2026-04-24T07:45:13.999Z</time></trkpt><trkpt lat="40.98484038533859" lon="14.070422915181808"><ele>9.0</ele><time>2026-04-24T07:45:14.999Z</time></trkpt><trkpt lat="40.98485846962357" lon="14.070541178080047"><ele>9.0</ele><time>2026-04-24T07:45:15.999Z</time></trkpt><trkpt lat="40.984857322213735" lon="14.070659573003676"><ele>9.0</ele><time>2026-04-24T07:45:16.999Z</time></trkpt><trkpt lat="40.984848340069945" lon="14.070791077739303"><ele>9.0</ele><time>2026-04-24T07:45:17.999Z</time></trkpt><trkpt lat="40.9848516717478" lon="14.07093821703354"><ele>9.0</ele><time>2026-04-24T07:45:18.999Z</time></trkpt><trkpt lat="40.98486486872595" lon="14.071065256320317"><ele>9.2</ele><time>2026-04-24T07:45:19.999Z</time></trkpt><trkpt lat="40.98486785912748" lon="14.071191526110493"><ele>9.4</ele><time>2026-04-24T07:45:20.999Z</time></trkpt><trkpt lat="40.9848707609008" lon="14.071312949078248"><ele>9.6</ele><time>2026-04-24T07:45:21.999Z</time></trkpt><trkpt lat="40.98487103274371" lon="14.071427442542431"><ele>9.8</ele><time>2026-04-24T07:45:22.999Z</time></trkpt><trkpt lat="40.984871122542486" lon="14.071542186984212"><ele>10.0</ele><time>2026-04-24T07:45:23.999Z</time></trkpt><trkpt lat="40.98485372565007" lon="14.071666361222306"><ele>10.2</ele><time>2026-04-24T07:45:24.999Z</time></trkpt><trkpt lat="40.984852472009074" lon="14.071792477562202"><ele>10.4</ele><time>2026-04-24T07:45:25.999Z</time></trkpt><trkpt lat="40.98485119859452" lon="14.07192058317748"><ele>10.600000000000001</ele><time>2026-04-24T07:45:26.999Z</time></trkpt><trkpt lat="40.98486677623428" lon="14.07204763233685"><ele>10.8</ele><time>2026-04-24T07:45:27.999Z</time></trkpt><trkpt lat="40.98486534634404" lon="14.072183126387399"><ele>11.0</ele><time>2026-04-24T07:45:28.999Z</time></trkpt><trkpt lat="40.984866247273956" lon="14.072327928521556"><ele>10.600000000000001</ele><time>2026-04-24T07:45:29.999Z</time></trkpt><trkpt lat="40.98486180540432" lon="14.072454101320504"><ele>10.200000000000001</ele><time>2026-04-24T07:45:30.999Z</time></trkpt><trkpt lat="40.984859126489056" lon="14.072584038007125"><ele>9.8</ele><time>2026-04-24T07:45:31.998Z</time></trkpt><trkpt lat="40.98486026150444" lon="14.072721610830632"><ele>9.4</ele><time>2026-04-24T07:45:32.998Z</time></trkpt><trkpt lat="40.984853665797665" lon="14.07285449736386"><ele>9.0</ele><time>2026-04-24T07:45:33.998Z</time></trkpt><trkpt lat="40.98484886579328" lon="14.072983365310634"><ele>9.0</ele><time>2026-04-24T07:45:34.998Z</time></trkpt><trkpt lat="40.98484826009809" lon="14.073116761445164"><ele>9.0</ele><time>2026-04-24T07:45:35.998Z</time></trkpt><trkpt lat="40.984844492941306" lon="14.073248782648884"><ele>9.0</ele><time>2026-04-24T07:45:36.998Z</time></trkpt><trkpt lat="40.98484282675669" lon="14.073375320531916"><ele>9.0</ele><time>2026-04-24T07:45:37.998Z</time></trkpt><trkpt lat="40.984845277428136" lon="14.07351082480006"><ele>9.0</ele><time>2026-04-24T07:45:38.998Z</time></trkpt><trkpt lat="40.984858033630076" lon="14.07363161225118"><ele>9.0</ele><time>2026-04-24T07:45:39.998Z</time></trkpt><trkpt lat="40.984856364527786" lon="14.073761700137618"><ele>9.0</ele><time>2026-04-24T07:45:40.998Z</time></trkpt><trkpt lat="40.98484901700274" lon="14.073897279693892"><ele>9.0</ele><time>2026-04-24T07:45:41.998Z</time></trkpt><trkpt lat="40.98484605256947" lon="14.0740187989677"><ele>9.0</ele><time>2026-04-24T07:45:42.998Z</time></trkpt><trkpt lat="40.984851447888694" lon="14.074157190346861"><ele>9.0</ele><time>2026-04-24T07:45:43.998Z</time></trkpt><trkpt lat="40.98483938505088" lon="14.074281936443423"><ele>9.0</ele><time>2026-04-24T07:45:44.998Z</time></trkpt><trkpt lat="40.984847374187964" lon="14.074407919943287"><ele>9.0</ele><time>2026-04-24T07:45:45.998Z</time></trkpt><trkpt lat="40.98483279845099" lon="14.07453381979935"><ele>9.0</ele><time>2026-04-24T07:45:46.998Z</time></trkpt><trkpt lat="40.9848397335909" lon="14.074778045895899"><ele>9.0</ele><time>2026-04-24T07:45:49.001Z</time></trkpt><trkpt lat="40.98483787637655" lon="14.074896204832008"><ele>9.285714285714286</ele><time>2026-04-24T07:45:50.001Z</time></trkpt><trkpt lat="40.98483894488783" lon="14.075006087074252"><ele>9.571428571428571</ele><time>2026-04-24T07:45:51.001Z</time></trkpt><trkpt lat="40.984822641415604" lon="14.07511478770405"><ele>9.857142857142858</ele><time>2026-04-24T07:45:52.001Z</time></trkpt><trkpt lat="40.98482350313692" lon="14.075213622617984"><ele>10.142857142857142</ele><time>2026-04-24T07:45:53.001Z</time></trkpt><trkpt lat="40.984839673751196" lon="14.075300320934353"><ele>10.428571428571429</ele><time>2026-04-24T07:45:54.001Z</time></trkpt><trkpt lat="40.98483934827744" lon="14.075391035464982"><ele>10.714285714285715</ele><time>2026-04-24T07:45:55.001Z</time></trkpt><trkpt lat="40.98483938060854" lon="14.075476741796864"><ele>11.0</ele><time>2026-04-24T07:45:56.001Z</time></trkpt><trkpt lat="40.984852288206056" lon="14.075640263791138"><ele>11.0</ele><time>2026-04-24T07:45:58.001Z</time></trkpt><trkpt lat="40.984873187798364" lon="14.075722044173578"><ele>11.0</ele><time>2026-04-24T07:45:59.001Z</time></trkpt><trkpt lat="40.98489926155846" lon="14.075802219744945"><ele>11.0</ele><time>2026-04-24T07:46:00.001Z</time></trkpt><trkpt lat="40.98494023177538" lon="14.075881710388558"><ele>11.0</ele><time>2026-04-24T07:46:01.001Z</time></trkpt><trkpt lat="40.98498623582137" lon="14.075960850623991"><ele>11.0</ele><time>2026-04-24T07:46:02.001Z</time></trkpt><trkpt lat="40.98503014053859" lon="14.076049788327413"><ele>11.0</ele><time>2026-04-24T07:46:03.001Z</time></trkpt><trkpt lat="40.98506720908882" lon="14.07613984969573"><ele>11.0</ele><time>2026-04-24T07:46:04Z</time></trkpt><trkpt lat="40.985092624966235" lon="14.076238701598845"><ele>10.833333333333332</ele><time>2026-04-24T07:46:05Z</time></trkpt><trkpt lat="40.985098324173514" lon="14.076331969159856"><ele>10.666666666666666</ele><time>2026-04-24T07:46:06Z</time></trkpt><trkpt lat="40.98512149483946" lon="14.07641371747907"><ele>10.5</ele><time>2026-04-24T07:46:07Z</time></trkpt><trkpt lat="40.98514129371806" lon="14.076563376434576"><ele>10.333333333333334</ele><time>2026-04-24T07:46:09Z</time></trkpt><trkpt lat="40.98514522982845" lon="14.076649874210833"><ele>10.166666666666668</ele><time>2026-04-24T07:46:10Z</time></trkpt><trkpt lat="40.985151139432205" lon="14.076816646400355"><ele>10.0</ele><time>2026-04-24T07:46:12Z</time></trkpt><trkpt lat="40.985145876881354" lon="14.076922823991186"><ele>10.0</ele><time>2026-04-24T07:46:13Z</time></trkpt><trkpt lat="40.98513975694545" lon="14.077025089281337"><ele>10.0</ele><time>2026-04-24T07:46:14Z</time></trkpt><trkpt lat="40.98513167472464" lon="14.0771283842695"><ele>10.0</ele><time>2026-04-24T07:46:15Z</time></trkpt><trkpt lat="40.9850992432212" lon="14.07721354245142"><ele>10.0</ele><time>2026-04-24T07:46:16Z</time></trkpt><trkpt lat="40.98507954494581" lon="14.077298151493089"><ele>10.0</ele><time>2026-04-24T07:46:17Z</time></trkpt><trkpt lat="40.98505993387909" lon="14.077408621430749"><ele>10.0</ele><time>2026-04-24T07:46:19Z</time></trkpt><trkpt lat="40.98500106787556" lon="14.077498160857758"><ele>10.25</ele><time>2026-04-24T07:46:21Z</time></trkpt><trkpt lat="40.984965971923806" lon="14.077591962042625"><ele>10.5</ele><time>2026-04-24T07:46:24Z</time></trkpt><trkpt lat="40.984915954099456" lon="14.07771333630572"><ele>10.75</ele><time>2026-04-24T07:46:27Z</time></trkpt><trkpt lat="40.98507232947025" lon="14.077897047648953"><ele>11.0</ele><time>2026-04-24T07:46:28Z</time></trkpt><trkpt lat="40.98513793764908" lon="14.07797317647915"><ele>11.0</ele><time>2026-04-24T07:46:31Z</time></trkpt><trkpt lat="40.985133863957344" lon="14.078063779314503"><ele>11.0</ele><time>2026-04-24T07:46:32Z</time></trkpt><trkpt lat="40.98514248921698" lon="14.078198758873267"><ele>11.0</ele><time>2026-04-24T07:46:34Z</time></trkpt><trkpt lat="40.98513104665901" lon="14.078359644923014"><ele>11.0</ele><time>2026-04-24T07:46:36Z</time></trkpt><trkpt lat="40.98510434680367" lon="14.078506449888067"><ele>11.0</ele><time>2026-04-24T07:46:38Z</time></trkpt><trkpt lat="40.985120929254386" lon="14.078591169123886"><ele>10.8</ele><time>2026-04-24T07:46:39Z</time></trkpt><trkpt lat="40.98511124794471" lon="14.078725300709479"><ele>10.600000000000001</ele><time>2026-04-24T07:46:40.999Z</time></trkpt><trkpt lat="40.985129905930506" lon="14.078821093351332"><ele>10.4</ele><time>2026-04-24T07:46:41.999Z</time></trkpt><trkpt lat="40.98512837028897" lon="14.078958427395074"><ele>10.2</ele><time>2026-04-24T07:46:43.999Z</time></trkpt><trkpt lat="40.98511878888067" lon="14.07910205384857"><ele>10.0</ele><time>2026-04-24T07:46:45.999Z</time></trkpt><trkpt lat="40.985111822126854" lon="14.079185061405953"><ele>10.0</ele><time>2026-04-24T07:46:47.999Z</time></trkpt><trkpt lat="40.985070979610796" lon="14.079249624397788"><ele>10.0</ele><time>2026-04-24T07:46:51.999Z</time></trkpt><trkpt lat="40.98497927941993" lon="14.07923996721055"><ele>10.0</ele><time>2026-04-24T07:46:53.999Z</time></trkpt><trkpt lat="40.98486481042459" lon="14.07922807383961"><ele>10.0</ele><time>2026-04-24T07:46:55.999Z</time></trkpt><trkpt lat="40.984801015808955" lon="14.079228759657022"><ele>10.0</ele><time>2026-04-24T07:46:56.999Z</time></trkpt><trkpt lat="40.98473271053071" lon="14.079227302284286"><ele>10.0</ele><time>2026-04-24T07:46:57.999Z</time></trkpt><trkpt lat="40.98462476286448" lon="14.079228813670758"><ele>10.0</ele><time>2026-04-24T07:46:59.999Z</time></trkpt><trkpt lat="40.98454092302148" lon="14.079228772787841"><ele>10.0</ele><time>2026-04-24T07:47:01.999Z</time></trkpt><trkpt lat="40.98447785054645" lon="14.07922828307932"><ele>10.0</ele><time>2026-04-24T07:48:01Z</time></trkpt><trkpt lat="40.98440362114713" lon="14.079236265960205"><ele>10.0</ele><time>2026-04-24T07:49:43.998Z</time></trkpt><trkpt lat="40.98429274238755" lon="14.079227512020049"><ele>10.0</ele><time>2026-04-24T07:49:45.998Z</time></trkpt><trkpt lat="40.984175195776544" lon="14.079225516140072"><ele>10.666666666666668</ele><time>2026-04-24T07:49:47.998Z</time></trkpt><trkpt lat="40.98411136415066" lon="14.079214083384787"><ele>11.333333333333334</ele><time>2026-04-24T07:49:48.998Z</time></trkpt><trkpt lat="40.98397218137858" lon="14.079218274377936"><ele>12.0</ele><time>2026-04-24T07:49:51.998Z</time></trkpt><trkpt lat="40.98388770235748" lon="14.079215020349261"><ele>12.666666666666668</ele><time>2026-04-24T07:49:53.998Z</time></trkpt><trkpt lat="40.983834335763774" lon="14.079259659262915"><ele>13.333333333333334</ele><time>2026-04-24T07:49:55.998Z</time></trkpt><trkpt lat="40.98380859325766" lon="14.07934678323375"><ele>14.0</ele><time>2026-04-24T07:49:57.998Z</time></trkpt><trkpt lat="40.98381695776448" lon="14.079475779809387"><ele>14.0</ele><time>2026-04-24T07:49:59.998Z</time></trkpt><trkpt lat="40.98383256781827" lon="14.079611508471773"><ele>13.999999999999998</ele><time>2026-04-24T07:50:01.999Z</time></trkpt><trkpt lat="40.9838305112047" lon="14.079754879473224"><ele>13.999999999999998</ele><time>2026-04-24T07:50:03.999Z</time></trkpt><trkpt lat="40.98382151346661" lon="14.079908601674509"><ele>14.0</ele><time>2026-04-24T07:50:05.999Z</time></trkpt><trkpt lat="40.98381469481226" lon="14.080056061084592"><ele>14.0</ele><time>2026-04-24T07:50:07.999Z</time></trkpt><trkpt lat="40.983815026765605" lon="14.080192635515834"><ele>13.833333333333334</ele><time>2026-04-24T07:50:09.999Z</time></trkpt><trkpt lat="40.98382437584151" lon="14.080297006734545"><ele>13.666666666666668</ele><time>2026-04-24T07:50:11.999Z</time></trkpt><trkpt lat="40.9838240666839" lon="14.080407245258797"><ele>13.5</ele><time>2026-04-24T07:50:13.999Z</time></trkpt><trkpt lat="40.983805832883085" lon="14.080519403890538"><ele>13.333333333333332</ele><time>2026-04-24T07:50:16.999Z</time></trkpt><trkpt lat="40.983735957856496" lon="14.080560743230974"><ele>13.166666666666666</ele><time>2026-04-24T07:50:19.999Z</time></trkpt><trkpt lat="40.9836736449061" lon="14.080542485292701"><ele>13.0</ele><time>2026-04-24T07:50:22.999Z</time></trkpt><trkpt lat="40.98359177353599" lon="14.080512070666636"><ele>12.999999999999998</ele><time>2026-04-24T07:50:25.999Z</time></trkpt><trkpt lat="40.983522713433715" lon="14.08048819169078"><ele>13.0</ele><time>2026-04-24T07:50:27.999Z</time></trkpt><trkpt lat="40.983450797323414" lon="14.080518580771855"><ele>13.0</ele><time>2026-04-24T07:50:30.999Z</time></trkpt><trkpt lat="40.98342272107337" lon="14.080633834771659"><ele>13.0</ele><time>2026-04-24T07:50:33.999Z</time></trkpt><trkpt lat="40.98342786324713" lon="14.080751390548876"><ele>12.999999999999998</ele><time>2026-04-24T07:50:35.999Z</time></trkpt><trkpt lat="40.98343675860307" lon="14.080892453605616"><ele>13.0</ele><time>2026-04-24T07:50:37.999Z</time></trkpt><trkpt lat="40.983434959048914" lon="14.081022823191246"><ele>13.0</ele><time>2026-04-24T07:50:39.999Z</time></trkpt><trkpt lat="40.98344426177019" lon="14.081173994342997"><ele>13.0</ele><time>2026-04-24T07:50:41.999Z</time></trkpt><trkpt lat="40.98342842527387" lon="14.081323478969546"><ele>13.0</ele><time>2026-04-24T07:50:43.999Z</time></trkpt><trkpt lat="40.98342617079439" lon="14.08145638091661"><ele>13.0</ele><time>2026-04-24T07:50:45.999Z</time></trkpt><trkpt lat="40.983424769199196" lon="14.081613359919421"><ele>13.0</ele><time>2026-04-24T07:50:47.999Z</time></trkpt><trkpt lat="40.98343974622458" lon="14.081701957501727"><ele>13.0</ele><time>2026-04-24T07:50:48.999Z</time></trkpt><trkpt lat="40.983425290629164" lon="14.08179645518422"><ele>13.0</ele><time>2026-04-24T07:50:49.999Z</time></trkpt><trkpt lat="40.983425917501634" lon="14.081885580945004"><ele>13.0</ele><time>2026-04-24T07:50:50.999Z</time></trkpt><trkpt lat="40.98342655713448" lon="14.08197652074584"><ele>13.0</ele><time>2026-04-24T07:50:51.999Z</time></trkpt><trkpt lat="40.983443716285386" lon="14.082066122572142"><ele>13.0</ele><time>2026-04-24T07:50:52.999Z</time></trkpt><trkpt lat="40.98343834183101" lon="14.082157425433019"><ele>13.0</ele><time>2026-04-24T07:50:53.999Z</time></trkpt><trkpt lat="40.98344114442921" lon="14.082248419918917"><ele>13.0</ele><time>2026-04-24T07:50:54.999Z</time></trkpt><trkpt lat="40.983443925632834" lon="14.08234308013"><ele>12.999999999999998</ele><time>2026-04-24T07:50:55.999Z</time></trkpt><trkpt lat="40.983441107536" lon="14.082432380605056"><ele>13.0</ele><time>2026-04-24T07:50:56.999Z</time></trkpt><trkpt lat="40.98343781884523" lon="14.082523260499979"><ele>13.0</ele><time>2026-04-24T07:50:57.999Z</time></trkpt><trkpt lat="40.98343883816406" lon="14.082607829717265"><ele>13.0</ele><time>2026-04-24T07:50:58.999Z</time></trkpt><trkpt lat="40.98344161409067" lon="14.082693265524984"><ele>12.999999999999998</ele><time>2026-04-24T07:50:59.999Z</time></trkpt><trkpt lat="40.98344413209159" lon="14.082849144108044"><ele>13.0</ele><time>2026-04-24T07:51:01.999Z</time></trkpt><trkpt lat="40.98343692491565" lon="14.083007088462479"><ele>13.0</ele><time>2026-04-24T07:51:03.999Z</time></trkpt><trkpt lat="40.98344019895385" lon="14.083164580036247"><ele>13.0</ele><time>2026-04-24T07:51:05.999Z</time></trkpt><trkpt lat="40.98342336521005" lon="14.083360195735937"><ele>13.0</ele><time>2026-04-24T07:51:08.999Z</time></trkpt><trkpt lat="40.983413930664625" lon="14.083462690216427"><ele>13.0</ele><time>2026-04-24T07:51:10.999Z</time></trkpt><trkpt lat="40.9833505123849" lon="14.083527353417475"><ele>13.0</ele><time>2026-04-24T07:51:13.998Z</time></trkpt><trkpt lat="40.983259705287" lon="14.083485409598081"><ele>13.499999999999998</ele><time>2026-04-24T07:51:15.998Z</time></trkpt><trkpt lat="40.98313807544506" lon="14.08348565913512"><ele>14.0</ele><time>2026-04-24T07:51:17.998Z</time></trkpt><trkpt lat="40.983072991455394" lon="14.083487535556133"><ele>14.5</ele><time>2026-04-24T07:51:18.998Z</time></trkpt><trkpt lat="40.983004335315165" lon="14.083508874797158"><ele>15.0</ele><time>2026-04-24T07:51:19.998Z</time></trkpt><trkpt lat="40.98292619310276" lon="14.083510468425747"><ele>15.499999999999998</ele><time>2026-04-24T07:51:20.998Z</time></trkpt><trkpt lat="40.98284883865735" lon="14.083496812685482"><ele>16.0</ele><time>2026-04-24T07:51:21.998Z</time></trkpt><trkpt lat="40.98276785348961" lon="14.083501406382261"><ele>15.999999999999998</ele><time>2026-04-24T07:51:22.998Z</time></trkpt><trkpt lat="40.98268160821192" lon="14.083520851789777"><ele>16.0</ele><time>2026-04-24T07:51:23.998Z</time></trkpt><trkpt lat="40.982594577325806" lon="14.083529919470683"><ele>16.0</ele><time>2026-04-24T07:51:24.998Z</time></trkpt><trkpt lat="40.98250955261699" lon="14.083534594712319"><ele>16.0</ele><time>2026-04-24T07:51:25.998Z</time></trkpt><trkpt lat="40.982422206084394" lon="14.083532513262462"><ele>15.999999999999998</ele><time>2026-04-24T07:51:26.998Z</time></trkpt><trkpt lat="40.982333319539" lon="14.083538268724713"><ele>16.0</ele><time>2026-04-24T07:51:27.998Z</time></trkpt><trkpt lat="40.98223986312463" lon="14.083529204069352"><ele>15.833333333333332</ele><time>2026-04-24T07:51:28.998Z</time></trkpt><trkpt lat="40.982148720410855" lon="14.083550690837196"><ele>15.666666666666666</ele><time>2026-04-24T07:51:29.998Z</time></trkpt><trkpt lat="40.9820629975516" lon="14.083557173306083"><ele>15.5</ele><time>2026-04-24T07:51:30.998Z</time></trkpt><trkpt lat="40.98198675149518" lon="14.083565117212446"><ele>15.333333333333332</ele><time>2026-04-24T07:51:31.998Z</time></trkpt><trkpt lat="40.981920566724305" lon="14.083571988071034"><ele>15.166666666666666</ele><time>2026-04-24T07:51:32.998Z</time></trkpt><trkpt lat="40.98183036535403" lon="14.083577784495885"><ele>15.0</ele><time>2026-04-24T07:51:34.998Z</time></trkpt><trkpt lat="40.98175578720007" lon="14.083592192815543"><ele>15.0</ele><time>2026-04-24T07:51:36.998Z</time></trkpt><trkpt lat="40.98168806600903" lon="14.083649637587838"><ele>15.0</ele><time>2026-04-24T07:51:38.998Z</time></trkpt><trkpt lat="40.981710521132854" lon="14.083752810122112"><ele>15.0</ele><time>2026-04-24T07:51:39.998Z</time></trkpt><trkpt lat="40.98170745814736" lon="14.083838700537413"><ele>15.0</ele><time>2026-04-24T07:51:40.998Z</time></trkpt><trkpt lat="40.98171395294643" lon="14.08401403541382"><ele>15.0</ele><time>2026-04-24T07:51:42.998Z</time></trkpt><trkpt lat="40.981716631355674" lon="14.084110596070447"><ele>15.0</ele><time>2026-04-24T07:51:43.998Z</time></trkpt><trkpt lat="40.98171831334907" lon="14.084211297957642"><ele>15.0</ele><time>2026-04-24T07:51:44.998Z</time></trkpt><trkpt lat="40.98170422430191" lon="14.084312254226214"><ele>15.0</ele><time>2026-04-24T07:51:45.998Z</time></trkpt><trkpt lat="40.98170617883831" lon="14.08442374870167"><ele>15.0</ele><time>2026-04-24T07:51:46.998Z</time></trkpt><trkpt lat="40.98170831470024" lon="14.084555339491384"><ele>15.0</ele><time>2026-04-24T07:51:47.998Z</time></trkpt><trkpt lat="40.98172296689368" lon="14.0846884968834"><ele>15.0</ele><time>2026-04-24T07:51:48.998Z</time></trkpt><trkpt lat="40.98172873048536" lon="14.08481789980863"><ele>14.8</ele><time>2026-04-24T07:51:49.998Z</time></trkpt><trkpt lat="40.98173066497289" lon="14.08494712678829"><ele>14.6</ele><time>2026-04-24T07:51:50.998Z</time></trkpt><trkpt lat="40.98172679312494" lon="14.085080356148186"><ele>14.399999999999999</ele><time>2026-04-24T07:51:51.998Z</time></trkpt><trkpt lat="40.981730273524825" lon="14.085209783480162"><ele>14.2</ele><time>2026-04-24T07:51:52.998Z</time></trkpt><trkpt lat="40.98172060116621" lon="14.085350608805793"><ele>14.0</ele><time>2026-04-24T07:51:53.998Z</time></trkpt><trkpt lat="40.981722725958015" lon="14.085488140761615"><ele>14.0</ele><time>2026-04-24T07:51:54.998Z</time></trkpt><trkpt lat="40.98172484820059" lon="14.085625507833752"><ele>13.999999999999998</ele><time>2026-04-24T07:51:55.998Z</time></trkpt><trkpt lat="40.981740837172566" lon="14.085757189508943"><ele>13.999999999999998</ele><time>2026-04-24T07:51:56.998Z</time></trkpt><trkpt lat="40.98173396193007" lon="14.085879058457591"><ele>14.0</ele><time>2026-04-24T07:51:57.998Z</time></trkpt><trkpt lat="40.981742568490624" lon="14.085990914621748"><ele>14.0</ele><time>2026-04-24T07:51:58.998Z</time></trkpt><trkpt lat="40.981744100209355" lon="14.08609315802238"><ele>14.166666666666668</ele><time>2026-04-24T07:51:59.998Z</time></trkpt><trkpt lat="40.981745864424525" lon="14.086205389480051"><ele>14.333333333333334</ele><time>2026-04-24T07:52:00.998Z</time></trkpt><trkpt lat="40.98174765609918" lon="14.08631226205521"><ele>14.5</ele><time>2026-04-24T07:52:01.998Z</time></trkpt><trkpt lat="40.981736012474265" lon="14.086404791478815"><ele>14.666666666666668</ele><time>2026-04-24T07:52:02.998Z</time></trkpt><trkpt lat="40.98173731838781" lon="14.08650904097777"><ele>14.833333333333334</ele><time>2026-04-24T07:52:03.998Z</time></trkpt><trkpt lat="40.98175157280492" lon="14.086670489407178"><ele>15.0</ele><time>2026-04-24T07:52:05.998Z</time></trkpt><trkpt lat="40.98174048293657" lon="14.086761128206273"><ele>15.0</ele><time>2026-04-24T07:52:06.999Z</time></trkpt><trkpt lat="40.98175520143691" lon="14.086905963352923"><ele>15.0</ele><time>2026-04-24T07:52:08.999Z</time></trkpt><trkpt lat="40.98174236696118" lon="14.087052926351786"><ele>15.0</ele><time>2026-04-24T07:52:10.999Z</time></trkpt><trkpt lat="40.98175205900242" lon="14.08718736830387"><ele>15.0</ele><time>2026-04-24T07:52:12.999Z</time></trkpt><trkpt lat="40.98175543496146" lon="14.087284423977836"><ele>15.0</ele><time>2026-04-24T07:52:13.999Z</time></trkpt><trkpt lat="40.98175811805677" lon="14.087386101083352"><ele>15.0</ele><time>2026-04-24T07:52:14.999Z</time></trkpt><trkpt lat="40.98174254143303" lon="14.08750105690715"><ele>15.0</ele><time>2026-04-24T07:52:16Z</time></trkpt><trkpt lat="40.981742673117395" lon="14.087623907189988"><ele>15.0</ele><time>2026-04-24T07:52:17Z</time></trkpt><trkpt lat="40.981754041328564" lon="14.087750576265968"><ele>15.0</ele><time>2026-04-24T07:52:18Z</time></trkpt><trkpt lat="40.98175676548624" lon="14.087873297360924"><ele>15.0</ele><time>2026-04-24T07:52:19Z</time></trkpt><trkpt lat="40.98175629274415" lon="14.087989128060967"><ele>15.0</ele><time>2026-04-24T07:52:20Z</time></trkpt><trkpt lat="40.981761924227285" lon="14.088105921663876"><ele>15.0</ele><time>2026-04-24T07:52:21Z</time></trkpt><trkpt lat="40.981761946816974" lon="14.088220335399502"><ele>15.0</ele><time>2026-04-24T07:52:22Z</time></trkpt><trkpt lat="40.98176487046167" lon="14.088325777243561"><ele>15.0</ele><time>2026-04-24T07:52:23Z</time></trkpt><trkpt lat="40.98175790405262" lon="14.08845574321778"><ele>15.0</ele><time>2026-04-24T07:52:24Z</time></trkpt><trkpt lat="40.981773069895425" lon="14.08861561041415"><ele>15.166666666666666</ele><time>2026-04-24T07:52:26Z</time></trkpt><trkpt lat="40.98177543757407" lon="14.088711613743177"><ele>15.333333333333332</ele><time>2026-04-24T07:52:27Z</time></trkpt><trkpt lat="40.98177703686708" lon="14.088816956323889"><ele>15.5</ele><time>2026-04-24T07:52:28Z</time></trkpt><trkpt lat="40.981780586375784" lon="14.088915768153123"><ele>15.666666666666666</ele><time>2026-04-24T07:52:29Z</time></trkpt><trkpt lat="40.98176852580797" lon="14.08901703412241"><ele>15.833333333333332</ele><time>2026-04-24T07:52:30Z</time></trkpt><trkpt lat="40.98178361557804" lon="14.089115954188257"><ele>16.0</ele><time>2026-04-24T07:52:30.999Z</time></trkpt><trkpt lat="40.98176978377263" lon="14.08921192060158"><ele>16.0</ele><time>2026-04-24T07:52:31.999Z</time></trkpt><trkpt lat="40.98176935636202" lon="14.089316294458408"><ele>16.0</ele><time>2026-04-24T07:52:32.999Z</time></trkpt><trkpt lat="40.98178486328626" lon="14.08942408008669"><ele>16.0</ele><time>2026-04-24T07:52:33.999Z</time></trkpt><trkpt lat="40.98177609764913" lon="14.089534475645205"><ele>16.0</ele><time>2026-04-24T07:52:34.999Z</time></trkpt><trkpt lat="40.98178031179688" lon="14.089670534425073"><ele>16.0</ele><time>2026-04-24T07:52:35.999Z</time></trkpt><trkpt lat="40.9817810561385" lon="14.08982946053672"><ele>16.0</ele><time>2026-04-24T07:52:36.999Z</time></trkpt><trkpt lat="40.98178130993161" lon="14.089985907424623"><ele>16.0</ele><time>2026-04-24T07:52:37.999Z</time></trkpt><trkpt lat="40.98178715584563" lon="14.090170766323409"><ele>16.0</ele><time>2026-04-24T07:52:38.999Z</time></trkpt><trkpt lat="40.98178801407756" lon="14.090349859205759"><ele>16.0</ele><time>2026-04-24T07:52:39.999Z</time></trkpt><trkpt lat="40.98179198604978" lon="14.090518736408793"><ele>16.0</ele><time>2026-04-24T07:52:40.999Z</time></trkpt><trkpt lat="40.98179252744481" lon="14.090658945520596"><ele>16.0</ele><time>2026-04-24T07:52:41.999Z</time></trkpt><trkpt lat="40.98178180965506" lon="14.090799191116112"><ele>16.0</ele><time>2026-04-24T07:52:42.999Z</time></trkpt><trkpt lat="40.981782525702876" lon="14.090935035467432"><ele>16.0</ele><time>2026-04-24T07:52:43.999Z</time></trkpt><trkpt lat="40.981799468819304" lon="14.091068259525947"><ele>16.0</ele><time>2026-04-24T07:52:44.999Z</time></trkpt><trkpt lat="40.981800307735554" lon="14.09119761013015"><ele>16.333333333333332</ele><time>2026-04-24T07:52:45.999Z</time></trkpt><trkpt lat="40.98178748419399" lon="14.091324215220826"><ele>16.666666666666664</ele><time>2026-04-24T07:52:46.999Z</time></trkpt><trkpt lat="40.98179137587451" lon="14.091428588813713"><ele>17.0</ele><time>2026-04-24T07:52:47.999Z</time></trkpt><trkpt lat="40.98180729711108" lon="14.091532012353865"><ele>17.333333333333332</ele><time>2026-04-24T07:52:48.999Z</time></trkpt><trkpt lat="40.981808944168044" lon="14.09163717657389"><ele>17.666666666666668</ele><time>2026-04-24T07:52:49.999Z</time></trkpt><trkpt lat="40.98181489892318" lon="14.09175154509984"><ele>18.0</ele><time>2026-04-24T07:52:50.999Z</time></trkpt><trkpt lat="40.98182812783749" lon="14.091865422264396"><ele>18.2</ele><time>2026-04-24T07:52:51.999Z</time></trkpt><trkpt lat="40.98186248143458" lon="14.091980608589312"><ele>18.4</ele><time>2026-04-24T07:52:52.999Z</time></trkpt><trkpt lat="40.98190637303494" lon="14.092078917432977"><ele>18.599999999999998</ele><time>2026-04-24T07:52:53.999Z</time></trkpt><trkpt lat="40.98195900864187" lon="14.092169100220138"><ele>18.8</ele><time>2026-04-24T07:52:54.999Z</time></trkpt><trkpt lat="40.982020848230896" lon="14.092232708773336"><ele>19.0</ele><time>2026-04-24T07:52:55.999Z</time></trkpt><trkpt lat="40.98208279115548" lon="14.092373400208707"><ele>19.0</ele><time>2026-04-24T07:52:57.999Z</time></trkpt><trkpt lat="40.98208101578754" lon="14.092503005396402"><ele>19.0</ele><time>2026-04-24T07:52:59.999Z</time></trkpt><trkpt lat="40.982082741421905" lon="14.092644636304478"><ele>19.0</ele><time>2026-04-24T07:53:01.999Z</time></trkpt><trkpt lat="40.98209230837882" lon="14.092737776673012"><ele>19.0</ele><time>2026-04-24T07:53:02.999Z</time></trkpt><trkpt lat="40.98209318336962" lon="14.0928384065702"><ele>19.0</ele><time>2026-04-24T07:53:03.999Z</time></trkpt><trkpt lat="40.9820907122485" lon="14.092951197644245"><ele>19.0</ele><time>2026-04-24T07:53:04.999Z</time></trkpt><trkpt lat="40.9820973788885" lon="14.093076374751499"><ele>19.0</ele><time>2026-04-24T07:53:05.999Z</time></trkpt><trkpt lat="40.982100494717145" lon="14.093216032387032"><ele>19.0</ele><time>2026-04-24T07:53:06.999Z</time></trkpt><trkpt lat="40.982104873384834" lon="14.093374988364014"><ele>19.0</ele><time>2026-04-24T07:53:07.999Z</time></trkpt><trkpt lat="40.98211003727196" lon="14.093536257922342"><ele>19.0</ele><time>2026-04-24T07:53:08.999Z</time></trkpt><trkpt lat="40.98210985299308" lon="14.093694370386887"><ele>19.0</ele><time>2026-04-24T07:53:09.999Z</time></trkpt><trkpt lat="40.98209115908129" lon="14.093851568829999"><ele>19.0</ele><time>2026-04-24T07:53:10.999Z</time></trkpt><trkpt lat="40.982116268126944" lon="14.094015216648748"><ele>19.0</ele><time>2026-04-24T07:53:11.999Z</time></trkpt><trkpt lat="40.98212878132137" lon="14.094173853484993"><ele>19.0</ele><time>2026-04-24T07:53:12.999Z</time></trkpt><trkpt lat="40.98211708931871" lon="14.094339679932348"><ele>19.0</ele><time>2026-04-24T07:53:13.999Z</time></trkpt><trkpt lat="40.98213662856868" lon="14.09450371890619"><ele>19.0</ele><time>2026-04-24T07:53:14.999Z</time></trkpt><trkpt lat="40.98214576229371" lon="14.094658192641948"><ele>19.0</ele><time>2026-04-24T07:53:15.999Z</time></trkpt><trkpt lat="40.98215184122188" lon="14.094813992488994"><ele>19.0</ele><time>2026-04-24T07:53:16.999Z</time></trkpt><trkpt lat="40.98215590570574" lon="14.094963677502262"><ele>19.25</ele><time>2026-04-24T07:53:17.999Z</time></trkpt><trkpt lat="40.98215632039799" lon="14.095094588827191"><ele>19.5</ele><time>2026-04-24T07:53:18.999Z</time></trkpt><trkpt lat="40.98216081172251" lon="14.095270734617275"><ele>19.75</ele><time>2026-04-24T07:53:19.999Z</time></trkpt><trkpt lat="40.982164543172125" lon="14.095451526120312"><ele>20.0</ele><time>2026-04-24T07:53:20.999Z</time></trkpt><trkpt lat="40.98216718784513" lon="14.095590208364142"><ele>20.0</ele><time>2026-04-24T07:53:21.999Z</time></trkpt><trkpt lat="40.98216804362773" lon="14.095740813496665"><ele>20.0</ele><time>2026-04-24T07:53:22.999Z</time></trkpt><trkpt lat="40.98217358938291" lon="14.095895143104938"><ele>20.0</ele><time>2026-04-24T07:53:23.999Z</time></trkpt><trkpt lat="40.98217022352426" lon="14.096046271170339"><ele>20.0</ele><time>2026-04-24T07:53:24.999Z</time></trkpt><trkpt lat="40.98216775407453" lon="14.09619631363216"><ele>20.0</ele><time>2026-04-24T07:53:25.999Z</time></trkpt><trkpt lat="40.98216933353234" lon="14.096346285260974"><ele>20.0</ele><time>2026-04-24T07:53:26.999Z</time></trkpt><trkpt lat="40.98217342112121" lon="14.096505994441689"><ele>20.0</ele><time>2026-04-24T07:53:27.999Z</time></trkpt><trkpt lat="40.98217363069847" lon="14.096660827681717"><ele>20.0</ele><time>2026-04-24T07:53:28.999Z</time></trkpt><trkpt lat="40.98218321277621" lon="14.096810049278973"><ele>20.0</ele><time>2026-04-24T07:53:29.999Z</time></trkpt><trkpt lat="40.982169563443534" lon="14.09696794512099"><ele>20.0</ele><time>2026-04-24T07:53:30.999Z</time></trkpt><trkpt lat="40.9821720072432" lon="14.097114651304556"><ele>20.0</ele><time>2026-04-24T07:53:31.999Z</time></trkpt><trkpt lat="40.982183185750515" lon="14.097258523633535"><ele>20.0</ele><time>2026-04-24T07:53:32.999Z</time></trkpt><trkpt lat="40.98218762001347" lon="14.097383186536007"><ele>20.0</ele><time>2026-04-24T07:53:33.999Z</time></trkpt><trkpt lat="40.98219274718181" lon="14.09753184592183"><ele>20.166666666666668</ele><time>2026-04-24T07:53:34.999Z</time></trkpt><trkpt lat="40.98219429114301" lon="14.097670228059872"><ele>20.333333333333336</ele><time>2026-04-24T07:53:35.999Z</time></trkpt><trkpt lat="40.982195414986066" lon="14.097797773250438"><ele>20.5</ele><time>2026-04-24T07:53:36.999Z</time></trkpt><trkpt lat="40.982197103581925" lon="14.097904359994951"><ele>20.666666666666668</ele><time>2026-04-24T07:53:37.999Z</time></trkpt><trkpt lat="40.98220140627295" lon="14.098003420215734"><ele>20.833333333333332</ele><time>2026-04-24T07:53:38.999Z</time></trkpt><trkpt lat="40.982192928299824" lon="14.098102844242607"><ele>21.0</ele><time>2026-04-24T07:53:39.998Z</time></trkpt><trkpt lat="40.982208618693434" lon="14.098189201521441"><ele>20.6</ele><time>2026-04-24T07:53:40.998Z</time></trkpt><trkpt lat="40.98221036789521" lon="14.098343080102584"><ele>20.200000000000003</ele><time>2026-04-24T07:53:42.998Z</time></trkpt><trkpt lat="40.982206240592106" lon="14.098476599684032"><ele>19.799999999999997</ele><time>2026-04-24T07:53:44.998Z</time></trkpt><trkpt lat="40.9822175320839" lon="14.098580148330432"><ele>19.4</ele><time>2026-04-24T07:53:46.998Z</time></trkpt><trkpt lat="40.98230833745937" lon="14.09864159113566"><ele>19.0</ele><time>2026-04-24T07:53:48.998Z</time></trkpt><trkpt lat="40.982436462329225" lon="14.098623381376488"><ele>19.0</ele><time>2026-04-24T07:53:50.998Z</time></trkpt><trkpt lat="40.98252311546688" lon="14.098628061999543"><ele>19.0</ele><time>2026-04-24T07:53:51.998Z</time></trkpt><trkpt lat="40.982601344414675" lon="14.098622157926714"><ele>19.0</ele><time>2026-04-24T07:53:52.998Z</time></trkpt><trkpt lat="40.98269434093978" lon="14.098595862940597"><ele>19.0</ele><time>2026-04-24T07:53:53.998Z</time></trkpt><trkpt lat="40.98279858620627" lon="14.098594421302082"><ele>19.0</ele><time>2026-04-24T07:53:54.998Z</time></trkpt><trkpt lat="40.98290222318824" lon="14.098592887570469"><ele>19.0</ele><time>2026-04-24T07:53:55.998Z</time></trkpt><trkpt lat="40.98300292090856" lon="14.09859251736202"><ele>19.0</ele><time>2026-04-24T07:53:56.998Z</time></trkpt><trkpt lat="40.98310891326752" lon="14.098587505451446"><ele>19.0</ele><time>2026-04-24T07:53:57.998Z</time></trkpt><trkpt lat="40.983213556494455" lon="14.098580372955697"><ele>19.0</ele><time>2026-04-24T07:53:58.998Z</time></trkpt><trkpt lat="40.98332373217812" lon="14.098577859447492"><ele>19.0</ele><time>2026-04-24T07:53:59.998Z</time></trkpt><trkpt lat="40.9834373043813" lon="14.098594706113388"><ele>19.2</ele><time>2026-04-24T07:54:00.998Z</time></trkpt><trkpt lat="40.98355100989741" lon="14.098591428280963"><ele>19.4</ele><time>2026-04-24T07:54:01.998Z</time></trkpt><trkpt lat="40.983655829471026" lon="14.098568733529964"><ele>19.6</ele><time>2026-04-24T07:54:02.998Z</time></trkpt><trkpt lat="40.98375402998325" lon="14.098575575017502"><ele>19.8</ele><time>2026-04-24T07:54:03.998Z</time></trkpt><trkpt lat="40.983835767879434" lon="14.098564765077537"><ele>20.0</ele><time>2026-04-24T07:54:04.998Z</time></trkpt><trkpt lat="40.98391150898645" lon="14.098577267113747"><ele>20.0</ele><time>2026-04-24T07:54:05.998Z</time></trkpt><trkpt lat="40.98400188780081" lon="14.098559632192492"><ele>20.0</ele><time>2026-04-24T07:54:06.998Z</time></trkpt><trkpt lat="40.984085220984205" lon="14.098553998079877"><ele>20.0</ele><time>2026-04-24T07:54:07.998Z</time></trkpt><trkpt lat="40.984169932937405" lon="14.098550722722726"><ele>20.0</ele><time>2026-04-24T07:54:08.998Z</time></trkpt><trkpt lat="40.984254461445424" lon="14.098546831790472"><ele>20.0</ele><time>2026-04-24T07:54:09.998Z</time></trkpt><trkpt lat="40.98433928889126" lon="14.09854308253871"><ele>20.0</ele><time>2026-04-24T07:54:10.998Z</time></trkpt><trkpt lat="40.98442497347982" lon="14.098538302345814"><ele>20.0</ele><time>2026-04-24T07:54:11.998Z</time></trkpt><trkpt lat="40.98450954747687" lon="14.098536918662914"><ele>20.0</ele><time>2026-04-24T07:54:13Z</time></trkpt><trkpt lat="40.98459512482266" lon="14.098532760896811"><ele>20.0</ele><time>2026-04-24T07:54:14Z</time></trkpt><trkpt lat="40.98466324664398" lon="14.09854629100833"><ele>20.0</ele><time>2026-04-24T07:54:15Z</time></trkpt><trkpt lat="40.98474725560824" lon="14.098533514636486"><ele>20.0</ele><time>2026-04-24T07:54:16Z</time></trkpt><trkpt lat="40.98481763663739" lon="14.0985320770209"><ele>20.0</ele><time>2026-04-24T07:54:17Z</time></trkpt><trkpt lat="40.98490457843097" lon="14.098555535867503"><ele>20.0</ele><time>2026-04-24T07:54:18Z</time></trkpt><trkpt lat="40.984986072296905" lon="14.09854768650696"><ele>20.0</ele><time>2026-04-24T07:54:20Z</time></trkpt><trkpt lat="40.985066146300866" lon="14.0985962187111"><ele>20.0</ele><time>2026-04-24T07:54:22Z</time></trkpt><trkpt lat="40.9850857982273" lon="14.098758913424277"><ele>20.0</ele><time>2026-04-24T07:54:24Z</time></trkpt><trkpt lat="40.98509634338632" lon="14.09885401234566"><ele>20.0</ele><time>2026-04-24T07:54:25Z</time></trkpt><trkpt lat="40.98511691755017" lon="14.09895155912362"><ele>20.0</ele><time>2026-04-24T07:54:26Z</time></trkpt><trkpt lat="40.98512539358477" lon="14.099035071538216"><ele>19.666666666666668</ele><time>2026-04-24T07:54:27Z</time></trkpt><trkpt lat="40.985140655983145" lon="14.09916183054142"><ele>19.333333333333336</ele><time>2026-04-24T07:54:29Z</time></trkpt><trkpt lat="40.98515891439006" lon="14.099273423510006"><ele>19.0</ele><time>2026-04-24T07:54:31Z</time></trkpt><trkpt lat="40.985166734195914" lon="14.099357622072711"><ele>18.666666666666668</ele><time>2026-04-24T07:54:34Z</time></trkpt><trkpt lat="40.985205324828655" lon="14.099432428802222"><ele>18.333333333333332</ele><time>2026-04-24T07:54:53Z</time></trkpt><trkpt lat="40.98525607303053" lon="14.099560976390348"><ele>18.0</ele><time>2026-04-24T07:54:55Z</time></trkpt><trkpt lat="40.985070483425936" lon="14.099494254653912"><ele>18.0</ele><time>2026-04-24T07:54:57Z</time></trkpt><trkpt lat="40.98500955806292" lon="14.099562409483346"><ele>18.0</ele><time>2026-04-24T07:55:01Z</time></trkpt><trkpt lat="40.98495146493602" lon="14.099623834049964"><ele>18.0</ele><time>2026-04-24T07:55:04Z</time></trkpt><trkpt lat="40.98492602783276" lon="14.099747655067455"><ele>18.0</ele><time>2026-04-24T07:55:07.999Z</time></trkpt><trkpt lat="40.98515794103016" lon="14.100273212337452"><ele>18.0</ele><time>2026-04-24T07:55:08.999Z</time></trkpt><trkpt lat="40.98513413015038" lon="14.100389163614865"><ele>18.0</ele><time>2026-04-24T07:55:10.999Z</time></trkpt><trkpt lat="40.98512764734586" lon="14.100493604697276"><ele>18.0</ele><time>2026-04-24T07:55:12.999Z</time></trkpt><trkpt lat="40.98511741898604" lon="14.100590048859715"><ele>18.0</ele><time>2026-04-24T07:55:14.999Z</time></trkpt><trkpt lat="40.98511521163802" lon="14.100685995322563"><ele>18.0</ele><time>2026-04-24T07:55:16.999Z</time></trkpt><trkpt lat="40.98513829512096" lon="14.100783521552353"><ele>18.0</ele><time>2026-04-24T07:56:06.998Z</time></trkpt><trkpt lat="40.985119636084654" lon="14.100919167199718"><ele>18.0</ele><time>2026-04-24T07:56:09.998Z</time></trkpt><trkpt lat="40.98512230727253" lon="14.10105179356463"><ele>18.0</ele><time>2026-04-24T07:56:11.998Z</time></trkpt><trkpt lat="40.98513196761702" lon="14.101151291614899"><ele>18.0</ele><time>2026-04-24T07:56:13.998Z</time></trkpt><trkpt lat="40.98510119502374" lon="14.101237727198725"><ele>18.0</ele><time>2026-04-24T07:56:16.998Z</time></trkpt><trkpt lat="40.98511814447358" lon="14.101372084212802"><ele>18.0</ele><time>2026-04-24T07:56:19Z</time></trkpt><trkpt lat="40.985120846002275" lon="14.10147343479424"><ele>18.0</ele><time>2026-04-24T07:56:21Z</time></trkpt><trkpt lat="40.98510832048146" lon="14.101562229882383"><ele>18.166666666666668</ele><time>2026-04-24T07:56:23Z</time></trkpt><trkpt lat="40.98510435935789" lon="14.10166843423321"><ele>18.333333333333332</ele><time>2026-04-24T07:56:25Z</time></trkpt><trkpt lat="40.98511375408637" lon="14.101781110108432"><ele>18.5</ele><time>2026-04-24T07:56:27Z</time></trkpt><trkpt lat="40.98511781404204" lon="14.10189907217708"><ele>18.666666666666664</ele><time>2026-04-24T07:56:29Z</time></trkpt><trkpt lat="40.985120535690655" lon="14.101991391789733"><ele>18.833333333333332</ele><time>2026-04-24T07:56:31Z</time></trkpt><trkpt lat="40.985098080425495" lon="14.102091026192792"><ele>19.0</ele><time>2026-04-24T07:56:35Z</time></trkpt><trkpt lat="40.98502579708507" lon="14.102133904549625"><ele>18.833333333333332</ele><time>2026-04-24T07:56:42Z</time></trkpt><trkpt lat="40.9849343173504" lon="14.102120013278212"><ele>18.666666666666664</ele><time>2026-04-24T07:56:44Z</time></trkpt><trkpt lat="40.98482557150019" lon="14.10210588864967"><ele>18.5</ele><time>2026-04-24T07:56:46Z</time></trkpt><trkpt lat="40.984756161055316" lon="14.102102055213814"><ele>18.333333333333332</ele><time>2026-04-24T07:56:47Z</time></trkpt><trkpt lat="40.98468637723799" lon="14.102100642298076"><ele>18.166666666666668</ele><time>2026-04-24T07:56:48Z</time></trkpt><trkpt lat="40.98461011979621" lon="14.10209737870801"><ele>18.0</ele><time>2026-04-24T07:56:49Z</time></trkpt><trkpt lat="40.98453228989195" lon="14.10209609471765"><ele>18.0</ele><time>2026-04-24T07:56:50Z</time></trkpt><trkpt lat="40.98445302499409" lon="14.102091575572983"><ele>18.0</ele><time>2026-04-24T07:56:51Z</time></trkpt><trkpt lat="40.984373421619374" lon="14.10208456072523"><ele>18.0</ele><time>2026-04-24T07:56:52Z</time></trkpt><trkpt lat="40.98429492501887" lon="14.102071910533422"><ele>18.0</ele><time>2026-04-24T07:56:53Z</time></trkpt><trkpt lat="40.984208896662665" lon="14.10206692164447"><ele>18.0</ele><time>2026-04-24T07:56:54Z</time></trkpt><trkpt lat="40.98410422510934" lon="14.102058808796482"><ele>18.0</ele><time>2026-04-24T07:56:54.999Z</time></trkpt><trkpt lat="40.98404058901545" lon="14.102050767985274"><ele>18.142857142857146</ele><time>2026-04-24T07:56:55.999Z</time></trkpt><trkpt lat="40.98396887625647" lon="14.102040667746708"><ele>18.285714285714285</ele><time>2026-04-24T07:56:56.999Z</time></trkpt><trkpt lat="40.98389156991876" lon="14.102033219226271"><ele>18.42857142857143</ele><time>2026-04-24T07:56:57.999Z</time></trkpt><trkpt lat="40.98382429022144" lon="14.102031708614934"><ele>18.571428571428573</ele><time>2026-04-24T07:56:58.999Z</time></trkpt><trkpt lat="40.98375956832242" lon="14.102025794496477"><ele>18.714285714285715</ele><time>2026-04-24T07:56:59.999Z</time></trkpt><trkpt lat="40.9836640207182" lon="14.102010564417125"><ele>18.857142857142858</ele><time>2026-04-24T07:57:01.999Z</time></trkpt><trkpt lat="40.983593973630114" lon="14.101995620092481"><ele>19.0</ele><time>2026-04-24T07:57:03.999Z</time></trkpt><trkpt lat="40.98354202229765" lon="14.102065596530554"><ele>19.0</ele><time>2026-04-24T07:57:06.999Z</time></trkpt><trkpt lat="40.98353733683578" lon="14.102188376470957"><ele>19.0</ele><time>2026-04-24T07:57:08.999Z</time></trkpt><trkpt lat="40.98356491057091" lon="14.102351945148612"><ele>19.0</ele><time>2026-04-24T07:57:10.999Z</time></trkpt><trkpt lat="40.98356570961095" lon="14.102449777485278"><ele>19.0</ele><time>2026-04-24T07:57:11.999Z</time></trkpt><trkpt lat="40.98355320771" lon="14.102552593224468"><ele>19.0</ele><time>2026-04-24T07:57:12.999Z</time></trkpt><trkpt lat="40.983556207700055" lon="14.10266208072232"><ele>19.0</ele><time>2026-04-24T07:57:13.999Z</time></trkpt><trkpt lat="40.98355340073477" lon="14.102770043194829"><ele>19.0</ele><time>2026-04-24T07:57:14.999Z</time></trkpt><trkpt lat="40.98354803467279" lon="14.102884673206104"><ele>19.0</ele><time>2026-04-24T07:57:15.999Z</time></trkpt><trkpt lat="40.983544746563915" lon="14.10300066995922"><ele>19.0</ele><time>2026-04-24T07:57:16.999Z</time></trkpt><trkpt lat="40.98354280391619" lon="14.103121006080732"><ele>19.0</ele><time>2026-04-24T07:57:17.999Z</time></trkpt><trkpt lat="40.983541165578345" lon="14.103238511799594"><ele>19.0</ele><time>2026-04-24T07:57:18.999Z</time></trkpt><trkpt lat="40.98354147473166" lon="14.103358209698929"><ele>19.0</ele><time>2026-04-24T07:57:19.999Z</time></trkpt><trkpt lat="40.983529027926934" lon="14.10347902241949"><ele>19.0</ele><time>2026-04-24T07:57:20.999Z</time></trkpt><trkpt lat="40.983518996891" lon="14.103602518173291"><ele>19.0</ele><time>2026-04-24T07:57:21.999Z</time></trkpt><trkpt lat="40.983515849399026" lon="14.10372047251594"><ele>19.0</ele><time>2026-04-24T07:57:22.999Z</time></trkpt><trkpt lat="40.9835083298109" lon="14.103840662852335"><ele>19.0</ele><time>2026-04-24T07:57:23.999Z</time></trkpt><trkpt lat="40.983507553998045" lon="14.103955590891328"><ele>19.0</ele><time>2026-04-24T07:57:24.999Z</time></trkpt><trkpt lat="40.98351136438369" lon="14.104078185294208"><ele>19.0</ele><time>2026-04-24T07:57:25.999Z</time></trkpt><trkpt lat="40.98350875683006" lon="14.104195895508148"><ele>19.0</ele><time>2026-04-24T07:57:26.999Z</time></trkpt><trkpt lat="40.983504818374364" lon="14.104318630256856"><ele>19.0</ele><time>2026-04-24T07:57:27.999Z</time></trkpt><trkpt lat="40.983514151301264" lon="14.10443663458542"><ele>19.0</ele><time>2026-04-24T07:57:28.999Z</time></trkpt><trkpt lat="40.98350184883675" lon="14.104546483657389"><ele>19.0</ele><time>2026-04-24T07:57:29.999Z</time></trkpt><trkpt lat="40.98349788607352" lon="14.104652340971363"><ele>19.166666666666664</ele><time>2026-04-24T07:57:30.999Z</time></trkpt><trkpt lat="40.983494317821936" lon="14.104759760739901"><ele>19.333333333333332</ele><time>2026-04-24T07:57:31.999Z</time></trkpt><trkpt lat="40.983489382749944" lon="14.104860325668362"><ele>19.5</ele><time>2026-04-24T07:57:32.999Z</time></trkpt><trkpt lat="40.983476328801466" lon="14.104947225212687"><ele>19.666666666666668</ele><time>2026-04-24T07:57:33.999Z</time></trkpt><trkpt lat="40.98347082710017" lon="14.105033758766904"><ele>19.833333333333336</ele><time>2026-04-24T07:57:34.999Z</time></trkpt><trkpt lat="40.983479365344415" lon="14.105150942942343"><ele>20.0</ele><time>2026-04-24T07:57:36.999Z</time></trkpt><trkpt lat="40.983506790191655" lon="14.105259310150725"><ele>20.166666666666668</ele><time>2026-04-24T07:57:39.999Z</time></trkpt><trkpt lat="40.98357587254035" lon="14.10531633173866"><ele>20.333333333333336</ele><time>2026-04-24T07:57:42.999Z</time></trkpt><trkpt lat="40.983639154890184" lon="14.105325436473054"><ele>20.5</ele><time>2026-04-24T07:57:44.999Z</time></trkpt><trkpt lat="40.983723083759514" lon="14.105331089737849"><ele>20.666666666666668</ele><time>2026-04-24T07:57:46.999Z</time></trkpt><trkpt lat="40.98381895469244" lon="14.105340737201276"><ele>20.833333333333332</ele><time>2026-04-24T07:57:48.999Z</time></trkpt><trkpt lat="40.98393090727589" lon="14.105354558361702"><ele>21.0</ele><time>2026-04-24T07:57:50.999Z</time></trkpt><trkpt lat="40.98401653264505" lon="14.105365515307186"><ele>21.0</ele><time>2026-04-24T07:57:52.999Z</time></trkpt><trkpt lat="40.98408872329561" lon="14.105385550185892"><ele>21.0</ele><time>2026-04-24T07:57:54.999Z</time></trkpt><trkpt lat="40.98416939275049" lon="14.105375220356322"><ele>21.0</ele><time>2026-04-24T07:57:56.999Z</time></trkpt><trkpt lat="40.98425817480962" lon="14.105347639988388"><ele>21.0</ele><time>2026-04-24T07:57:58.999Z</time></trkpt><trkpt lat="40.984376924765556" lon="14.105366414049897"><ele>21.0</ele><time>2026-04-24T07:58:00.999Z</time></trkpt><trkpt lat="40.984493676529404" lon="14.105379070311464"><ele>21.0</ele><time>2026-04-24T07:58:02.998Z</time></trkpt><trkpt lat="40.984600010560996" lon="14.105388964940511"><ele>21.0</ele><time>2026-04-24T07:58:04.998Z</time></trkpt><trkpt lat="40.98467716968585" lon="14.105389013236348"><ele>21.0</ele><time>2026-04-24T07:58:06.998Z</time></trkpt><trkpt lat="40.984748527395475" lon="14.10543912357268"><ele>21.0</ele><time>2026-04-24T07:58:09.998Z</time></trkpt><trkpt lat="40.98474481491251" lon="14.105533692889523"><ele>21.0</ele><time>2026-04-24T07:58:11.998Z</time></trkpt><trkpt lat="40.984727250115064" lon="14.105634478233497"><ele>21.0</ele><time>2026-04-24T07:58:13.998Z</time></trkpt><trkpt lat="40.98472108345482" lon="14.105754735254076"><ele>21.166666666666668</ele><time>2026-04-24T07:58:15.998Z</time></trkpt><trkpt lat="40.98471725920649" lon="14.105838992302012"><ele>21.333333333333332</ele><time>2026-04-24T07:58:17.998Z</time></trkpt><trkpt lat="40.984716791173334" lon="14.105922952984375"><ele>21.5</ele><time>2026-04-24T07:58:22.998Z</time></trkpt><trkpt lat="40.98479933476844" lon="14.105961274638318"><ele>21.666666666666664</ele><time>2026-04-24T07:58:31Z</time></trkpt><trkpt lat="40.984894844030975" lon="14.10595205184937"><ele>21.833333333333332</ele><time>2026-04-24T07:58:33Z</time></trkpt><trkpt lat="40.984994322496966" lon="14.105953628197335"><ele>22.0</ele><time>2026-04-24T07:58:35Z</time></trkpt><trkpt lat="40.98507133852341" lon="14.10595652021076"><ele>22.0</ele><time>2026-04-24T07:58:38Z</time></trkpt><trkpt lat="40.984999188259984" lon="14.105977966356102"><ele>22.0</ele><time>2026-04-24T07:59:00Z</time></trkpt><trkpt lat="40.98492333474793" lon="14.105972586613689"><ele>22.0</ele><time>2026-04-24T07:59:02Z</time></trkpt><trkpt lat="40.984840838542894" lon="14.105971682012793"><ele>22.0</ele><time>2026-04-24T07:59:04Z</time></trkpt><trkpt lat="40.984756964582246" lon="14.105957549070663"><ele>22.0</ele><time>2026-04-24T07:59:07Z</time></trkpt><trkpt lat="40.98468106040471" lon="14.105952444153331"><ele>22.0</ele><time>2026-04-24T07:59:10.999Z</time></trkpt><trkpt lat="40.98460379591651" lon="14.105941572920242"><ele>22.0</ele><time>2026-04-24T07:59:12.999Z</time></trkpt><trkpt lat="40.98450547506942" lon="14.105929226285928"><ele>22.0</ele><time>2026-04-24T07:59:14.999Z</time></trkpt><trkpt lat="40.98439166642746" lon="14.105919629062551"><ele>22.0</ele><time>2026-04-24T07:59:16.999Z</time></trkpt><trkpt lat="40.98432345397578" lon="14.105914333426009"><ele>22.0</ele><time>2026-04-24T07:59:17.999Z</time></trkpt><trkpt lat="40.98425116552073" lon="14.10590849130072"><ele>22.0</ele><time>2026-04-24T07:59:18.999Z</time></trkpt><trkpt lat="40.98417614356673" lon="14.105901982446206"><ele>22.0</ele><time>2026-04-24T07:59:19.999Z</time></trkpt><trkpt lat="40.984065289396604" lon="14.105899956307278"><ele>22.166666666666664</ele><time>2026-04-24T07:59:20.999Z</time></trkpt><trkpt lat="40.98396874918544" lon="14.10589339334876"><ele>22.333333333333332</ele><time>2026-04-24T07:59:21.999Z</time></trkpt><trkpt lat="40.983880573212765" lon="14.105886563102114"><ele>22.5</ele><time>2026-04-24T07:59:22.999Z</time></trkpt><trkpt lat="40.983793733630726" lon="14.105882022497893"><ele>22.666666666666668</ele><time>2026-04-24T07:59:23.999Z</time></trkpt><trkpt lat="40.983708846700154" lon="14.105875342247355"><ele>22.833333333333336</ele><time>2026-04-24T07:59:24.999Z</time></trkpt><trkpt lat="40.98362502712285" lon="14.105870019641493"><ele>23.0</ele><time>2026-04-24T07:59:25.999Z</time></trkpt><trkpt lat="40.983533252277915" lon="14.105864482723073"><ele>23.0</ele><time>2026-04-24T07:59:26.999Z</time></trkpt><trkpt lat="40.98344819759837" lon="14.105858857865277"><ele>23.0</ele><time>2026-04-24T07:59:27.999Z</time></trkpt><trkpt lat="40.983362277266785" lon="14.105852964243969"><ele>23.0</ele><time>2026-04-24T07:59:28.999Z</time></trkpt><trkpt lat="40.98327484976407" lon="14.10584827889782"><ele>23.0</ele><time>2026-04-24T07:59:29.999Z</time></trkpt><trkpt lat="40.98318422416719" lon="14.105841140321532"><ele>23.0</ele><time>2026-04-24T07:59:30.999Z</time></trkpt><trkpt lat="40.983098643763114" lon="14.105836463696987"><ele>23.0</ele><time>2026-04-24T07:59:31.999Z</time></trkpt><trkpt lat="40.983009973646915" lon="14.105832383030156"><ele>22.666666666666668</ele><time>2026-04-24T07:59:32.999Z</time></trkpt><trkpt lat="40.982921666214985" lon="14.105826084838958"><ele>22.333333333333336</ele><time>2026-04-24T07:59:33.999Z</time></trkpt><trkpt lat="40.98283137834368" lon="14.105819575302737"><ele>22.0</ele><time>2026-04-24T07:59:34.999Z</time></trkpt><trkpt lat="40.982747613751705" lon="14.105815018287327"><ele>21.666666666666668</ele><time>2026-04-24T07:59:35.999Z</time></trkpt><trkpt lat="40.98266629024783" lon="14.105811145878594"><ele>21.333333333333332</ele><time>2026-04-24T07:59:36.999Z</time></trkpt><trkpt lat="40.98257022913647" lon="14.105805619846736"><ele>21.0</ele><time>2026-04-24T07:59:37.999Z</time></trkpt><trkpt lat="40.98248478208282" lon="14.105799300852096"><ele>21.0</ele><time>2026-04-24T07:59:38.999Z</time></trkpt><trkpt lat="40.9823993366363" lon="14.105796985633923"><ele>21.0</ele><time>2026-04-24T07:59:39.999Z</time></trkpt><trkpt lat="40.98231200898" lon="14.105798196698837"><ele>21.0</ele><time>2026-04-24T07:59:40.999Z</time></trkpt><trkpt lat="40.982227251900916" lon="14.105797083391781"><ele>21.0</ele><time>2026-04-24T07:59:41.999Z</time></trkpt><trkpt lat="40.98214154395736" lon="14.105790295948688"><ele>21.0</ele><time>2026-04-24T07:59:42.999Z</time></trkpt><trkpt lat="40.982060541487755" lon="14.105780263604364"><ele>21.0</ele><time>2026-04-24T07:59:43.999Z</time></trkpt><trkpt lat="40.98198830210996" lon="14.105773611979611"><ele>21.0</ele><time>2026-04-24T07:59:44.999Z</time></trkpt><trkpt lat="40.98190852812489" lon="14.105748245299257"><ele>21.0</ele><time>2026-04-24T07:59:45.999Z</time></trkpt><trkpt lat="40.981814602823" lon="14.105758308435796"><ele>21.0</ele><time>2026-04-24T07:59:46.999Z</time></trkpt><trkpt lat="40.98172642716654" lon="14.10575686884998"><ele>21.0</ele><time>2026-04-24T07:59:47.999Z</time></trkpt><trkpt lat="40.98163657351157" lon="14.105757864180063"><ele>21.0</ele><time>2026-04-24T07:59:48.999Z</time></trkpt><trkpt lat="40.981551387338286" lon="14.105755846777434"><ele>21.0</ele><time>2026-04-24T07:59:49.999Z</time></trkpt><trkpt lat="40.98145806844172" lon="14.105750485257404"><ele>21.166666666666668</ele><time>2026-04-24T07:59:50.999Z</time></trkpt><trkpt lat="40.981382147708565" lon="14.105746476202993"><ele>21.333333333333332</ele><time>2026-04-24T07:59:51.999Z</time></trkpt><trkpt lat="40.98130517589791" lon="14.105741704193823"><ele>21.5</ele><time>2026-04-24T07:59:52.999Z</time></trkpt><trkpt lat="40.98121405707265" lon="14.105761563895685"><ele>21.666666666666664</ele><time>2026-04-24T07:59:53.999Z</time></trkpt><trkpt lat="40.98114530816052" lon="14.105743376899806"><ele>21.833333333333332</ele><time>2026-04-24T07:59:54.999Z</time></trkpt><trkpt lat="40.981073865559374" lon="14.105736574284974"><ele>22.0</ele><time>2026-04-24T07:59:55.999Z</time></trkpt><trkpt lat="40.981010255335164" lon="14.105734210818932"><ele>22.0</ele><time>2026-04-24T07:59:56.999Z</time></trkpt><trkpt lat="40.98093055574866" lon="14.10572823688099"><ele>22.0</ele><time>2026-04-24T07:59:57.999Z</time></trkpt><trkpt lat="40.98086140886839" lon="14.10571930643551"><ele>22.0</ele><time>2026-04-24T08:00:00.999Z</time></trkpt><trkpt lat="40.98080100025169" lon="14.105800938058918"><ele>22.0</ele><time>2026-04-24T08:00:13.999Z</time></trkpt><trkpt lat="40.98071599968" lon="14.105903121193654"><ele>22.0</ele><time>2026-04-24T08:00:15.999Z</time></trkpt><trkpt lat="40.98070955840845" lon="14.10605986662583"><ele>22.166666666666664</ele><time>2026-04-24T08:00:17.998Z</time></trkpt><trkpt lat="40.98070758782939" lon="14.106146227940636"><ele>22.333333333333332</ele><time>2026-04-24T08:00:18.998Z</time></trkpt><trkpt lat="40.9807069982696" lon="14.106235546234831"><ele>22.5</ele><time>2026-04-24T08:00:19.998Z</time></trkpt><trkpt lat="40.98070727567218" lon="14.106321822762006"><ele>22.666666666666668</ele><time>2026-04-24T08:00:20.998Z</time></trkpt><trkpt lat="40.980709418121485" lon="14.106429359914062"><ele>22.833333333333336</ele><time>2026-04-24T08:00:22.998Z</time></trkpt><trkpt lat="40.980727853818834" lon="14.106517959287748"><ele>23.0</ele><time>2026-04-24T08:00:33Z</time></trkpt><trkpt lat="40.98071715778192" lon="14.106660664399463"><ele>23.166666666666668</ele><time>2026-04-24T08:00:35Z</time></trkpt><trkpt lat="40.980713793193374" lon="14.106827027396092"><ele>23.333333333333336</ele><time>2026-04-24T08:00:37Z</time></trkpt><trkpt lat="40.98070652573344" lon="14.106918731088282"><ele>23.5</ele><time>2026-04-24T08:00:38Z</time></trkpt><trkpt lat="40.98069048367493" lon="14.107009947986493"><ele>23.666666666666668</ele><time>2026-04-24T08:00:39Z</time></trkpt><trkpt lat="40.98067045131761" lon="14.107106255304112"><ele>23.833333333333332</ele><time>2026-04-24T08:00:40Z</time></trkpt><trkpt lat="40.980645936677504" lon="14.107210812908521"><ele>24.0</ele><time>2026-04-24T08:00:41Z</time></trkpt><trkpt lat="40.98060141570492" lon="14.107327567526346"><ele>23.75</ele><time>2026-04-24T08:00:42Z</time></trkpt><trkpt lat="40.98054862480311" lon="14.107437478033736"><ele>23.5</ele><time>2026-04-24T08:00:43Z</time></trkpt><trkpt lat="40.98051940394682" lon="14.10754890811618"><ele>23.25</ele><time>2026-04-24T08:00:44Z</time></trkpt><trkpt lat="40.98047539360084" lon="14.1076584504597"><ele>23.0</ele><time>2026-04-24T08:00:45Z</time></trkpt><trkpt lat="40.98038617107599" lon="14.107867197496804"><ele>23.0</ele><time>2026-04-24T08:00:47Z</time></trkpt><trkpt lat="40.98032574486502" lon="14.107958948973446"><ele>23.0</ele><time>2026-04-24T08:00:48Z</time></trkpt><trkpt lat="40.98028764587557" lon="14.10807092689919"><ele>23.0</ele><time>2026-04-24T08:00:49Z</time></trkpt><trkpt lat="40.98024601040503" lon="14.108173934656635"><ele>23.0</ele><time>2026-04-24T08:00:50Z</time></trkpt><trkpt lat="40.98019968458215" lon="14.108285768100323"><ele>23.0</ele><time>2026-04-24T08:00:51Z</time></trkpt><trkpt lat="40.98015145013403" lon="14.108388969652152"><ele>23.2</ele><time>2026-04-24T08:00:52Z</time></trkpt><trkpt lat="40.980104731520925" lon="14.108491521838754"><ele>23.4</ele><time>2026-04-24T08:00:53Z</time></trkpt><trkpt lat="40.98005680227073" lon="14.108597719971256"><ele>23.599999999999998</ele><time>2026-04-24T08:00:54Z</time></trkpt><trkpt lat="40.980002723283974" lon="14.108705721739673"><ele>23.799999999999997</ele><time>2026-04-24T08:00:55Z</time></trkpt><trkpt lat="40.9799403498827" lon="14.108812068456082"><ele>24.0</ele><time>2026-04-24T08:00:56Z</time></trkpt><trkpt lat="40.97990064429202" lon="14.108934042056548"><ele>24.0</ele><time>2026-04-24T08:00:57Z</time></trkpt><trkpt lat="40.979832427300984" lon="14.109024983942682"><ele>24.0</ele><time>2026-04-24T08:00:58Z</time></trkpt><trkpt lat="40.979777465552196" lon="14.10912303945778"><ele>24.0</ele><time>2026-04-24T08:00:59Z</time></trkpt><trkpt lat="40.9797309890813" lon="14.109230652174885"><ele>24.0</ele><time>2026-04-24T08:01:00Z</time></trkpt><trkpt lat="40.979677035647676" lon="14.109332344243516"><ele>24.0</ele><time>2026-04-24T08:01:01Z</time></trkpt><trkpt lat="40.97962777754047" lon="14.109440102678624"><ele>24.0</ele><time>2026-04-24T08:01:02Z</time></trkpt><trkpt lat="40.979581922614756" lon="14.109532363751322"><ele>24.0</ele><time>2026-04-24T08:01:03Z</time></trkpt><trkpt lat="40.979521446718834" lon="14.109604393487665"><ele>24.0</ele><time>2026-04-24T08:01:04Z</time></trkpt><trkpt lat="40.97947198096461" lon="14.109686385493005"><ele>24.0</ele><time>2026-04-24T08:01:05Z</time></trkpt><trkpt lat="40.97943489638009" lon="14.109778120516648"><ele>24.0</ele><time>2026-04-24T08:01:06Z</time></trkpt><trkpt lat="40.979390101237826" lon="14.109844878442612"><ele>24.0</ele><time>2026-04-24T08:01:07Z</time></trkpt><trkpt lat="40.979316696740035" lon="14.109947059042593"><ele>24.2</ele><time>2026-04-24T08:01:09Z</time></trkpt><trkpt lat="40.97926307519643" lon="14.11001578390148"><ele>24.4</ele><time>2026-04-24T08:01:11Z</time></trkpt><trkpt lat="40.97922280864713" lon="14.110082375673935"><ele>24.6</ele><time>2026-04-24T08:01:13Z</time></trkpt><trkpt lat="40.979318570538574" lon="14.110189639404446"><ele>24.8</ele><time>2026-04-24T08:01:15Z</time></trkpt><trkpt lat="40.97942700210196" lon="14.110204272675466"><ele>25.0</ele><time>2026-04-24T08:01:17Z</time></trkpt><trkpt lat="40.979510376036615" lon="14.11020407750729"><ele>25.0</ele><time>2026-04-24T08:01:18Z</time></trkpt><trkpt lat="40.97959337663635" lon="14.110205052256347"><ele>25.0</ele><time>2026-04-24T08:01:19Z</time></trkpt><trkpt lat="40.97975823581651" lon="14.110206391700247"><ele>25.0</ele><time>2026-04-24T08:01:20.999Z</time></trkpt><trkpt lat="40.97985271119702" lon="14.110206522884345"><ele>25.0</ele><time>2026-04-24T08:01:21.999Z</time></trkpt><trkpt lat="40.979957716641714" lon="14.110216886380952"><ele>25.0</ele><time>2026-04-24T08:01:22.999Z</time></trkpt><trkpt lat="40.980067064848406" lon="14.110220865333384"><ele>24.6</ele><time>2026-04-24T08:01:23.999Z</time></trkpt><trkpt lat="40.98016218443069" lon="14.11023973501399"><ele>24.2</ele><time>2026-04-24T08:01:24.999Z</time></trkpt><trkpt lat="40.98027329452438" lon="14.110240454948476"><ele>23.799999999999997</ele><time>2026-04-24T08:01:25.999Z</time></trkpt><trkpt lat="40.98038266900549" lon="14.110246332066104"><ele>23.4</ele><time>2026-04-24T08:01:26.999Z</time></trkpt><trkpt lat="40.98049214824854" lon="14.110249002784894"><ele>23.0</ele><time>2026-04-24T08:01:27.999Z</time></trkpt><trkpt lat="40.980599476691175" lon="14.1102518485211"><ele>23.0</ele><time>2026-04-24T08:01:28.999Z</time></trkpt><trkpt lat="40.98070048464257" lon="14.110277957338658"><ele>23.0</ele><time>2026-04-24T08:01:29.999Z</time></trkpt><trkpt lat="40.98079482588524" lon="14.11026726347024"><ele>23.0</ele><time>2026-04-24T08:01:30.999Z</time></trkpt><trkpt lat="40.98088000699156" lon="14.11026801540337"><ele>23.0</ele><time>2026-04-24T08:01:31.999Z</time></trkpt><trkpt lat="40.98099741357303" lon="14.110285313048937"><ele>23.0</ele><time>2026-04-24T08:01:32.999Z</time></trkpt><trkpt lat="40.98110336256629" lon="14.110290393639623"><ele>23.2</ele><time>2026-04-24T08:01:33.999Z</time></trkpt><trkpt lat="40.98120613947735" lon="14.110283399404134"><ele>23.4</ele><time>2026-04-24T08:01:34.999Z</time></trkpt><trkpt lat="40.9813123560089" lon="14.11029902364527"><ele>23.599999999999998</ele><time>2026-04-24T08:01:35.999Z</time></trkpt><trkpt lat="40.98141807763454" lon="14.11032685581098"><ele>23.799999999999997</ele><time>2026-04-24T08:01:36.999Z</time></trkpt><trkpt lat="40.98152516638671" lon="14.110343065634508"><ele>24.0</ele><time>2026-04-24T08:01:37.999Z</time></trkpt><trkpt lat="40.981630885510725" lon="14.110346583115156"><ele>24.2</ele><time>2026-04-24T08:01:38.999Z</time></trkpt><trkpt lat="40.98173361072271" lon="14.110345559117617"><ele>24.4</ele><time>2026-04-24T08:01:39.999Z</time></trkpt><trkpt lat="40.98185951499124" lon="14.110364496840107"><ele>24.6</ele><time>2026-04-24T08:01:40.999Z</time></trkpt><trkpt lat="40.981931171476376" lon="14.110368235539424"><ele>24.8</ele><time>2026-04-24T08:01:41.999Z</time></trkpt><trkpt lat="40.98201943277697" lon="14.110361545768633"><ele>25.0</ele><time>2026-04-24T08:01:42.999Z</time></trkpt><trkpt lat="40.98210406170701" lon="14.11036838848214"><ele>25.000000000000004</ele><time>2026-04-24T08:01:43.999Z</time></trkpt><trkpt lat="40.98218700912562" lon="14.110382183616254"><ele>25.0</ele><time>2026-04-24T08:01:44.999Z</time></trkpt><trkpt lat="40.98227537316789" lon="14.11040675943903"><ele>25.0</ele><time>2026-04-24T08:01:45.999Z</time></trkpt><trkpt lat="40.98236939180683" lon="14.110433477563365"><ele>25.0</ele><time>2026-04-24T08:01:46.999Z</time></trkpt><trkpt lat="40.98244891123058" lon="14.110454116430462"><ele>25.000000000000004</ele><time>2026-04-24T08:01:47.999Z</time></trkpt><trkpt lat="40.98253904912199" lon="14.11047652854784"><ele>25.0</ele><time>2026-04-24T08:01:48.999Z</time></trkpt><trkpt lat="40.98263012802591" lon="14.110489980148857"><ele>24.6</ele><time>2026-04-24T08:01:49.999Z</time></trkpt><trkpt lat="40.982720153190556" lon="14.110520712224641"><ele>24.2</ele><time>2026-04-24T08:01:50.999Z</time></trkpt><trkpt lat="40.98281812260414" lon="14.110519402275935"><ele>23.799999999999997</ele><time>2026-04-24T08:01:51.999Z</time></trkpt><trkpt lat="40.982997537689215" lon="14.110546098596409"><ele>23.4</ele><time>2026-04-24T08:01:53.999Z</time></trkpt><trkpt lat="40.98307225133681" lon="14.110552915519953"><ele>23.0</ele><time>2026-04-24T08:01:54.999Z</time></trkpt><trkpt lat="40.983177935202136" lon="14.110588190648393"><ele>23.0</ele><time>2026-04-24T08:01:56.999Z</time></trkpt><trkpt lat="40.98323924149381" lon="14.110629344024188"><ele>23.0</ele><time>2026-04-24T08:01:58.999Z</time></trkpt><trkpt lat="40.98330824721542" lon="14.110662018542556"><ele>23.0</ele><time>2026-04-24T08:02:00.999Z</time></trkpt><trkpt lat="40.98340011899026" lon="14.110705520282362"><ele>23.0</ele><time>2026-04-24T08:02:02.999Z</time></trkpt><trkpt lat="40.983491844781184" lon="14.110611281824015"><ele>23.0</ele><time>2026-04-24T08:02:03.999Z</time></trkpt><trkpt lat="40.98356427382525" lon="14.11062459054045"><ele>23.0</ele><time>2026-04-24T08:02:04.999Z</time></trkpt><trkpt lat="40.98363831021954" lon="14.110639189750259"><ele>23.0</ele><time>2026-04-24T08:02:05.999Z</time></trkpt><trkpt lat="40.9837102861748" lon="14.110648155967173"><ele>23.0</ele><time>2026-04-24T08:02:06.999Z</time></trkpt><trkpt lat="40.98379760276338" lon="14.110629797361838"><ele>23.0</ele><time>2026-04-24T08:02:08.999Z</time></trkpt><trkpt lat="40.983865091171204" lon="14.110661213049811"><ele>23.0</ele><time>2026-04-24T08:02:11.999Z</time></trkpt><trkpt lat="40.98394060236327" lon="14.110668871615259"><ele>23.0</ele><time>2026-04-24T08:02:15.999Z</time></trkpt><trkpt lat="40.984004318711904" lon="14.110668305275047"><ele>23.0</ele><time>2026-04-24T08:02:48Z</time></trkpt><trkpt lat="40.98407576923245" lon="14.110665148262504"><ele>23.0</ele><time>2026-04-24T08:02:50Z</time></trkpt><trkpt lat="40.98414147746385" lon="14.110679440321997"><ele>22.857142857142858</ele><time>2026-04-24T08:02:52Z</time></trkpt><trkpt lat="40.98420962059475" lon="14.110685559186184"><ele>22.71428571428571</ele><time>2026-04-24T08:02:54Z</time></trkpt><trkpt lat="40.984277540551886" lon="14.110693585012768"><ele>22.57142857142857</ele><time>2026-04-24T08:02:56Z</time></trkpt><trkpt lat="40.98434467803818" lon="14.110688019663048"><ele>22.42857142857143</ele><time>2026-04-24T08:02:58Z</time></trkpt><trkpt lat="40.98441004002783" lon="14.110692115016677"><ele>22.285714285714285</ele><time>2026-04-24T08:03:00Z</time></trkpt><trkpt lat="40.98449061525604" lon="14.110694044725248"><ele>22.142857142857142</ele><time>2026-04-24T08:03:02Z</time></trkpt><trkpt lat="40.9845742769987" lon="14.110709662012345"><ele>22.0</ele><time>2026-04-24T08:03:04Z</time></trkpt><trkpt lat="40.98465711698636" lon="14.110722719378904"><ele>22.0</ele><time>2026-04-24T08:03:06Z</time></trkpt><trkpt lat="40.98476122319507" lon="14.110718197294911"><ele>22.0</ele><time>2026-04-24T08:03:08Z</time></trkpt><trkpt lat="40.98485448185281" lon="14.110733780809428"><ele>22.0</ele><time>2026-04-24T08:03:10Z</time></trkpt><trkpt lat="40.98493912665546" lon="14.110746473110352"><ele>22.0</ele><time>2026-04-24T08:03:12Z</time></trkpt><trkpt lat="40.985003961905655" lon="14.110754606926703"><ele>22.0</ele><time>2026-04-24T08:03:14Z</time></trkpt><trkpt lat="40.985075361670845" lon="14.110701292558334"><ele>22.0</ele><time>2026-04-24T08:03:19Z</time></trkpt><trkpt lat="40.985084716275495" lon="14.110612398288064"><ele>22.0</ele><time>2026-04-24T08:03:21Z</time></trkpt><trkpt lat="40.9850788369557" lon="14.110475194635757"><ele>22.0</ele><time>2026-04-24T08:03:23Z</time></trkpt><trkpt lat="40.985079433677306" lon="14.11029929724357"><ele>22.0</ele><time>2026-04-24T08:03:25Z</time></trkpt><trkpt lat="40.98507335124278" lon="14.110204568411797"><ele>22.0</ele><time>2026-04-24T08:03:26Z</time></trkpt><trkpt lat="40.98507036838733" lon="14.110117243600376"><ele>22.0</ele><time>2026-04-24T08:03:27Z</time></trkpt><trkpt lat="40.985066157579524" lon="14.109969077588653"><ele>21.833333333333332</ele><time>2026-04-24T08:03:29Z</time></trkpt><trkpt lat="40.9850684307612" lon="14.109861006950618"><ele>21.666666666666664</ele><time>2026-04-24T08:03:31Z</time></trkpt><trkpt lat="40.98508261879807" lon="14.10977600671937"><ele>21.5</ele><time>2026-04-24T08:03:34.999Z</time></trkpt><trkpt lat="40.985181461165965" lon="14.109744788003853"><ele>21.333333333333332</ele><time>2026-04-24T08:03:39.999Z</time></trkpt><trkpt lat="40.98527268837499" lon="14.109741974655924"><ele>21.166666666666668</ele><time>2026-04-24T08:03:41.999Z</time></trkpt><trkpt lat="40.98537853712341" lon="14.109743293961369"><ele>21.0</ele><time>2026-04-24T08:03:43.999Z</time></trkpt><trkpt lat="40.98544362894942" lon="14.109746241329564"><ele>21.0</ele><time>2026-04-24T08:03:44.999Z</time></trkpt><trkpt lat="40.985508808927904" lon="14.109746282127652"><ele>21.0</ele><time>2026-04-24T08:03:45.999Z</time></trkpt><trkpt lat="40.98557734873855" lon="14.109748265393758"><ele>21.0</ele><time>2026-04-24T08:03:46.999Z</time></trkpt><trkpt lat="40.98565064702907" lon="14.10975084744226"><ele>21.0</ele><time>2026-04-24T08:03:47.999Z</time></trkpt><trkpt lat="40.985726352467154" lon="14.109754368808948"><ele>21.0</ele><time>2026-04-24T08:03:48.999Z</time></trkpt><trkpt lat="40.98580309870056" lon="14.1097592655406"><ele>21.0</ele><time>2026-04-24T08:03:49.999Z</time></trkpt><trkpt lat="40.985877934337324" lon="14.10976329507267"><ele>21.0</ele><time>2026-04-24T08:03:50.999Z</time></trkpt><trkpt lat="40.985954812833874" lon="14.109766261363125"><ele>21.166666666666668</ele><time>2026-04-24T08:03:51.999Z</time></trkpt><trkpt lat="40.98606631011627" lon="14.109777685380319"><ele>21.333333333333332</ele><time>2026-04-24T08:03:52.999Z</time></trkpt><trkpt lat="40.986146186670716" lon="14.109776184317031"><ele>21.5</ele><time>2026-04-24T08:03:53.999Z</time></trkpt><trkpt lat="40.98623433985903" lon="14.109773737345755"><ele>21.666666666666664</ele><time>2026-04-24T08:03:55.999Z</time></trkpt><trkpt lat="40.986305388358666" lon="14.10978854021885"><ele>21.833333333333332</ele><time>2026-04-24T08:03:56.999Z</time></trkpt><trkpt lat="40.98637030983861" lon="14.109792557558027"><ele>22.0</ele><time>2026-04-24T08:03:57.999Z</time></trkpt><trkpt lat="40.98648349371206" lon="14.109798963150888"><ele>22.0</ele><time>2026-04-24T08:03:59.999Z</time></trkpt><trkpt lat="40.98656129487518" lon="14.109795835676845"><ele>22.0</ele><time>2026-04-24T08:04:01.999Z</time></trkpt><trkpt lat="40.98662475317555" lon="14.109756666429147"><ele>22.0</ele><time>2026-04-24T08:04:04.999Z</time></trkpt><trkpt lat="40.98664392825141" lon="14.10963816906452"><ele>22.0</ele><time>2026-04-24T08:04:07.999Z</time></trkpt><trkpt lat="40.98663751336002" lon="14.109534770699899"><ele>22.0</ele><time>2026-04-24T08:04:10.999Z</time></trkpt><trkpt lat="40.98663649600127" lon="14.109422586440228"><ele>22.0</ele><time>2026-04-24T08:04:13.999Z</time></trkpt><trkpt lat="40.986610703567514" lon="14.109337461683419"><ele>22.0</ele><time>2026-04-24T08:04:29.999Z</time></trkpt><trkpt lat="40.98659636484593" lon="14.109241052354536"><ele>22.0</ele><time>2026-04-24T08:04:31.999Z</time></trkpt><trkpt lat="40.98659782601322" lon="14.109148294604353"><ele>22.0</ele><time>2026-04-24T08:04:33.999Z</time></trkpt><trkpt lat="40.98662266245339" lon="14.109278474373975"><ele>22.0</ele><time>2026-04-24T08:04:52Z</time></trkpt><trkpt lat="40.9866229067952" lon="14.109383575363333"><ele>22.0</ele><time>2026-04-24T08:04:54Z</time></trkpt><trkpt lat="40.98662154548373" lon="14.109475318432231"><ele>22.0</ele><time>2026-04-24T08:04:56Z</time></trkpt><trkpt lat="40.98667679970028" lon="14.109530982764028"><ele>21.8</ele><time>2026-04-24T08:04:59Z</time></trkpt><trkpt lat="40.98681485387332" lon="14.109559955722768"><ele>21.6</ele><time>2026-04-24T08:05:01Z</time></trkpt><trkpt lat="40.986891397382784" lon="14.109564899220405"><ele>21.400000000000002</ele><time>2026-04-24T08:05:02Z</time></trkpt><trkpt lat="40.98697350691845" lon="14.109575229928842"><ele>21.200000000000003</ele><time>2026-04-24T08:05:03Z</time></trkpt><trkpt lat="40.987061693455814" lon="14.109582920855761"><ele>21.0</ele><time>2026-04-24T08:05:04Z</time></trkpt><trkpt lat="40.98715177131218" lon="14.109592722240013"><ele>21.0</ele><time>2026-04-24T08:05:05Z</time></trkpt><trkpt lat="40.98724533306626" lon="14.109603905388367"><ele>21.0</ele><time>2026-04-24T08:05:06Z</time></trkpt><trkpt lat="40.9873389081926" lon="14.109612415764474"><ele>21.0</ele><time>2026-04-24T08:05:07Z</time></trkpt><trkpt lat="40.98743307460227" lon="14.109620313084706"><ele>21.0</ele><time>2026-04-24T08:05:08Z</time></trkpt><trkpt lat="40.98752688704254" lon="14.109622228421548"><ele>21.0</ele><time>2026-04-24T08:05:09Z</time></trkpt><trkpt lat="40.98762008572806" lon="14.109622232362678"><ele>21.0</ele><time>2026-04-24T08:05:10Z</time></trkpt><trkpt lat="40.98770549725074" lon="14.10962474133165"><ele>21.0</ele><time>2026-04-24T08:05:11Z</time></trkpt><trkpt lat="40.98778450608693" lon="14.109626500124252"><ele>21.0</ele><time>2026-04-24T08:05:12Z</time></trkpt><trkpt lat="40.987857856791344" lon="14.109623509740626"><ele>21.0</ele><time>2026-04-24T08:05:13Z</time></trkpt><trkpt lat="40.98792531250431" lon="14.109627609407502"><ele>21.0</ele><time>2026-04-24T08:05:14Z</time></trkpt><trkpt lat="40.988028212416836" lon="14.109651897703973"><ele>21.0</ele><time>2026-04-24T08:05:16Z</time></trkpt><trkpt lat="40.988147600458035" lon="14.109649250743185"><ele>21.0</ele><time>2026-04-24T08:05:18Z</time></trkpt><trkpt lat="40.98822287040106" lon="14.109645495097242"><ele>21.0</ele><time>2026-04-24T08:05:20Z</time></trkpt><trkpt lat="40.98829589280804" lon="14.109644325163849"><ele>21.0</ele><time>2026-04-24T08:05:24Z</time></trkpt><trkpt lat="40.98832726565104" lon="14.10973050389781"><ele>21.0</ele><time>2026-04-24T08:05:26Z</time></trkpt><trkpt lat="40.98831355832039" lon="14.109865971660389"><ele>21.0</ele><time>2026-04-24T08:05:28Z</time></trkpt><trkpt lat="40.988299573063685" lon="14.109987120007379"><ele>21.0</ele><time>2026-04-24T08:05:30Z</time></trkpt><trkpt lat="40.98831692124755" lon="14.110143948887607"><ele>20.8</ele><time>2026-04-24T08:05:32Z</time></trkpt><trkpt lat="40.988335711716886" lon="14.110309441648887"><ele>20.6</ele><time>2026-04-24T08:05:34Z</time></trkpt><trkpt lat="40.9883399688837" lon="14.110398961541202"><ele>20.4</ele><time>2026-04-24T08:05:34.999Z</time></trkpt><trkpt lat="40.98834633230998" lon="14.110560764550558"><ele>20.2</ele><time>2026-04-24T08:05:36.999Z</time></trkpt><trkpt lat="40.98836292773815" lon="14.110642707951055"><ele>20.0</ele><time>2026-04-24T08:05:37.999Z</time></trkpt><trkpt lat="40.988366766678524" lon="14.110756849359674"><ele>20.0</ele><time>2026-04-24T08:05:39.999Z</time></trkpt><trkpt lat="40.98838500478091" lon="14.110876203867097"><ele>20.0</ele><time>2026-04-24T08:05:41.999Z</time></trkpt><trkpt lat="40.98844984817267" lon="14.110977576931486"><ele>20.0</ele><time>2026-04-24T08:05:43.999Z</time></trkpt><trkpt lat="40.9885554263551" lon="14.11101358714653"><ele>20.0</ele><time>2026-04-24T08:05:45.999Z</time></trkpt><trkpt lat="40.98862649045611" lon="14.111013444108359"><ele>20.0</ele><time>2026-04-24T08:05:46.999Z</time></trkpt><trkpt lat="40.988706698781364" lon="14.111016821120161"><ele>20.0</ele><time>2026-04-24T08:05:47.999Z</time></trkpt><trkpt lat="40.988787439368274" lon="14.111016109026059"><ele>20.0</ele><time>2026-04-24T08:05:48.999Z</time></trkpt><trkpt lat="40.98887170581799" lon="14.111014970821449"><ele>20.0</ele><time>2026-04-24T08:05:49.999Z</time></trkpt><trkpt lat="40.988952815055605" lon="14.111017192434574"><ele>20.0</ele><time>2026-04-24T08:05:50.999Z</time></trkpt><trkpt lat="40.989035736966215" lon="14.111019784587725"><ele>20.0</ele><time>2026-04-24T08:05:51.999Z</time></trkpt><trkpt lat="40.98912521766336" lon="14.111011222436247"><ele>20.0</ele><time>2026-04-24T08:05:52.999Z</time></trkpt><trkpt lat="40.989215065767084" lon="14.111013533975502"><ele>20.0</ele><time>2026-04-24T08:05:53.999Z</time></trkpt><trkpt lat="40.98931985677716" lon="14.111029357528931"><ele>20.0</ele><time>2026-04-24T08:05:54.999Z</time></trkpt><trkpt lat="40.98942910892093" lon="14.111030012597958"><ele>20.0</ele><time>2026-04-24T08:05:55.999Z</time></trkpt><trkpt lat="40.98954974148007" lon="14.111036313641055"><ele>20.0</ele><time>2026-04-24T08:05:56.999Z</time></trkpt><trkpt lat="40.98966486780808" lon="14.111044222186507"><ele>20.0</ele><time>2026-04-24T08:05:57.999Z</time></trkpt><trkpt lat="40.98975207242408" lon="14.1110442431068"><ele>20.0</ele><time>2026-04-24T08:05:58.999Z</time></trkpt><trkpt lat="40.989831281040374" lon="14.111048486251923"><ele>20.0</ele><time>2026-04-24T08:05:59.999Z</time></trkpt><trkpt lat="40.98992391979477" lon="14.111067491067706"><ele>20.0</ele><time>2026-04-24T08:06:00.999Z</time></trkpt><trkpt lat="40.99001236445786" lon="14.111067476766479"><ele>20.0</ele><time>2026-04-24T08:06:01.999Z</time></trkpt><trkpt lat="40.9901094264191" lon="14.111062994434807"><ele>20.0</ele><time>2026-04-24T08:06:02.999Z</time></trkpt><trkpt lat="40.990208216862406" lon="14.111070314665962"><ele>19.5</ele><time>2026-04-24T08:06:03.999Z</time></trkpt><trkpt lat="40.990316560427026" lon="14.11107505539677"><ele>19.0</ele><time>2026-04-24T08:06:04.999Z</time></trkpt><trkpt lat="40.990425515859016" lon="14.111074419128455"><ele>18.5</ele><time>2026-04-24T08:06:05.999Z</time></trkpt><trkpt lat="40.990540943020505" lon="14.111075784014071"><ele>18.0</ele><time>2026-04-24T08:06:06.999Z</time></trkpt><trkpt lat="40.99066187885785" lon="14.111081297148225"><ele>18.0</ele><time>2026-04-24T08:06:07.999Z</time></trkpt><trkpt lat="40.99077527047455" lon="14.11107660028659"><ele>18.0</ele><time>2026-04-24T08:06:08.999Z</time></trkpt><trkpt lat="40.99086908422732" lon="14.111075227261889"><ele>18.0</ele><time>2026-04-24T08:06:09.999Z</time></trkpt><trkpt lat="40.99095306564401" lon="14.111080276589982"><ele>18.0</ele><time>2026-04-24T08:06:10.999Z</time></trkpt><trkpt lat="40.99102679148378" lon="14.11108110240264"><ele>18.0</ele><time>2026-04-24T08:06:11.999Z</time></trkpt><trkpt lat="40.99114625241728" lon="14.111084684671146"><ele>18.166666666666668</ele><time>2026-04-24T08:06:13.999Z</time></trkpt><trkpt lat="40.99124241892278" lon="14.111078087276736"><ele>18.333333333333332</ele><time>2026-04-24T08:06:15.999Z</time></trkpt><trkpt lat="40.99131921298653" lon="14.111029234052994"><ele>18.5</ele><time>2026-04-24T08:06:17.999Z</time></trkpt><trkpt lat="40.99133206586234" lon="14.110924061168555"><ele>18.666666666666664</ele><time>2026-04-24T08:06:21.999Z</time></trkpt><trkpt lat="40.99133319503241" lon="14.110814171781524"><ele>18.833333333333332</ele><time>2026-04-24T08:06:26.999Z</time></trkpt><trkpt lat="40.991360450312904" lon="14.110732669476823"><ele>19.0</ele><time>2026-04-24T08:06:30.999Z</time></trkpt><trkpt lat="40.991443212562764" lon="14.110727472169959"><ele>19.0</ele><time>2026-04-24T08:06:34.999Z</time></trkpt><trkpt lat="40.99150772891482" lon="14.110781466475423"><ele>19.0</ele><time>2026-04-24T08:06:51Z</time></trkpt><trkpt lat="40.99151906083967" lon="14.110900176604336"><ele>19.0</ele><time>2026-04-24T08:06:53Z</time></trkpt><trkpt lat="40.99151950211285" lon="14.110987311697953"><ele>19.0</ele><time>2026-04-24T08:06:54Z</time></trkpt><trkpt lat="40.99152083961102" lon="14.111101559142414"><ele>19.0</ele><time>2026-04-24T08:06:55Z</time></trkpt><trkpt lat="40.99151935530939" lon="14.111224796368885"><ele>19.0</ele><time>2026-04-24T08:06:56Z</time></trkpt><trkpt lat="40.99151767462657" lon="14.111365922114464"><ele>19.0</ele><time>2026-04-24T08:06:57Z</time></trkpt><trkpt lat="40.991512752536984" lon="14.1115220867506"><ele>19.0</ele><time>2026-04-24T08:06:58Z</time></trkpt><trkpt lat="40.991513204899" lon="14.11168168880688"><ele>19.0</ele><time>2026-04-24T08:06:59Z</time></trkpt><trkpt lat="40.99151133465795" lon="14.111854582389563"><ele>19.0</ele><time>2026-04-24T08:07:00Z</time></trkpt><trkpt lat="40.991514689214114" lon="14.11202530714206"><ele>18.75</ele><time>2026-04-24T08:07:01Z</time></trkpt><trkpt lat="40.99151785010448" lon="14.112200186696041"><ele>18.5</ele><time>2026-04-24T08:07:02Z</time></trkpt><trkpt lat="40.99151700917769" lon="14.112381359783688"><ele>18.25</ele><time>2026-04-24T08:07:03Z</time></trkpt><trkpt lat="40.99151415729467" lon="14.112562017568743"><ele>18.0</ele><time>2026-04-24T08:07:04Z</time></trkpt><trkpt lat="40.991510279984126" lon="14.112729144965686"><ele>18.0</ele><time>2026-04-24T08:07:05Z</time></trkpt><trkpt lat="40.99151206440117" lon="14.11288317266358"><ele>18.0</ele><time>2026-04-24T08:07:06Z</time></trkpt><trkpt lat="40.99151061365311" lon="14.113026032204381"><ele>18.0</ele><time>2026-04-24T08:07:07Z</time></trkpt><trkpt lat="40.99151401169939" lon="14.113160720162625"><ele>18.0</ele><time>2026-04-24T08:07:08Z</time></trkpt><trkpt lat="40.99151202852407" lon="14.11328404957949"><ele>18.0</ele><time>2026-04-24T08:07:09Z</time></trkpt><trkpt lat="40.99150885461828" lon="14.11340065329308"><ele>18.2</ele><time>2026-04-24T08:07:10Z</time></trkpt><trkpt lat="40.991511684017226" lon="14.113525926880019"><ele>18.4</ele><time>2026-04-24T08:07:11Z</time></trkpt><trkpt lat="40.9914915634194" lon="14.113654737440356"><ele>18.599999999999998</ele><time>2026-04-24T08:07:12Z</time></trkpt><trkpt lat="40.99149089413437" lon="14.113786973117543"><ele>18.8</ele><time>2026-04-24T08:07:13Z</time></trkpt><trkpt lat="40.9914931584293" lon="14.113932365765482"><ele>19.0</ele><time>2026-04-24T08:07:14Z</time></trkpt><trkpt lat="40.991494644819106" lon="14.114091031773869"><ele>19.25</ele><time>2026-04-24T08:07:14.999Z</time></trkpt><trkpt lat="40.99149505823778" lon="14.114264783408778"><ele>19.5</ele><time>2026-04-24T08:07:15.999Z</time></trkpt><trkpt lat="40.99149855804378" lon="14.114444768545189"><ele>19.75</ele><time>2026-04-24T08:07:16.999Z</time></trkpt><trkpt lat="40.991506888198" lon="14.11461953323017"><ele>20.0</ele><time>2026-04-24T08:07:17.999Z</time></trkpt><trkpt lat="40.99150821254167" lon="14.114801859436048"><ele>20.0</ele><time>2026-04-24T08:07:18.999Z</time></trkpt><trkpt lat="40.99151023494702" lon="14.114988380160671"><ele>20.0</ele><time>2026-04-24T08:07:19.999Z</time></trkpt><trkpt lat="40.99151568323279" lon="14.115181062424119"><ele>20.0</ele><time>2026-04-24T08:07:20.999Z</time></trkpt><trkpt lat="40.99151718011157" lon="14.115368060023444"><ele>20.0</ele><time>2026-04-24T08:07:21.999Z</time></trkpt><trkpt lat="40.991518353944734" lon="14.11554998156434"><ele>20.333333333333336</ele><time>2026-04-24T08:07:22.999Z</time></trkpt><trkpt lat="40.99151497755568" lon="14.115916630409801"><ele>20.666666666666668</ele><time>2026-04-24T08:07:24.999Z</time></trkpt><trkpt lat="40.99151551802274" lon="14.116095954536943"><ele>21.0</ele><time>2026-04-24T08:07:25.999Z</time></trkpt><trkpt lat="40.99151487140763" lon="14.116270046159787"><ele>21.0</ele><time>2026-04-24T08:07:26.999Z</time></trkpt><trkpt lat="40.991519645278075" lon="14.11644643473998"><ele>21.0</ele><time>2026-04-24T08:07:27.999Z</time></trkpt><trkpt lat="40.991522376181294" lon="14.116625804254815"><ele>21.0</ele><time>2026-04-24T08:07:28.999Z</time></trkpt><trkpt lat="40.99152686153115" lon="14.11680466939438"><ele>21.0</ele><time>2026-04-24T08:07:29.999Z</time></trkpt><trkpt lat="40.9915323739169" lon="14.116981343506533"><ele>21.5</ele><time>2026-04-24T08:07:30.999Z</time></trkpt><trkpt lat="40.99153766031931" lon="14.117158096028165"><ele>22.0</ele><time>2026-04-24T08:07:31.999Z</time></trkpt><trkpt lat="40.991543179353805" lon="14.117336267995562"><ele>22.5</ele><time>2026-04-24T08:07:32.999Z</time></trkpt><trkpt lat="40.99154695076743" lon="14.117518003653853"><ele>23.0</ele><time>2026-04-24T08:07:33.999Z</time></trkpt><trkpt lat="40.99155623959377" lon="14.117698556715581"><ele>23.5</ele><time>2026-04-24T08:07:34.999Z</time></trkpt><trkpt lat="40.991563729153256" lon="14.117879536113247"><ele>24.0</ele><time>2026-04-24T08:07:35.999Z</time></trkpt><trkpt lat="40.991568664731034" lon="14.11806249575835"><ele>24.5</ele><time>2026-04-24T08:07:36.999Z</time></trkpt><trkpt lat="40.991566423405885" lon="14.118246031221164"><ele>25.0</ele><time>2026-04-24T08:07:37.999Z</time></trkpt><trkpt lat="40.99156879237542" lon="14.118428320943716"><ele>25.0</ele><time>2026-04-24T08:07:38.999Z</time></trkpt><trkpt lat="40.99157252122641" lon="14.118612510919501"><ele>25.0</ele><time>2026-04-24T08:07:39.999Z</time></trkpt><trkpt lat="40.99157666196161" lon="14.118801312880498"><ele>25.0</ele><time>2026-04-24T08:07:40.999Z</time></trkpt><trkpt lat="40.9915780924904" lon="14.118983845495944"><ele>25.0</ele><time>2026-04-24T08:07:41.999Z</time></trkpt><trkpt lat="40.99158183889244" lon="14.119166987068763"><ele>25.0</ele><time>2026-04-24T08:07:42.999Z</time></trkpt><trkpt lat="40.99158769572699" lon="14.119352553066125"><ele>25.0</ele><time>2026-04-24T08:07:43.999Z</time></trkpt><trkpt lat="40.99159012307239" lon="14.119539442688575"><ele>25.0</ele><time>2026-04-24T08:07:44.999Z</time></trkpt><trkpt lat="40.99158885441093" lon="14.119728389022315"><ele>25.0</ele><time>2026-04-24T08:07:45.999Z</time></trkpt><trkpt lat="40.9915899118666" lon="14.119919425358482"><ele>24.75</ele><time>2026-04-24T08:07:46.999Z</time></trkpt><trkpt lat="40.991606484502064" lon="14.120108826117717"><ele>24.5</ele><time>2026-04-24T08:07:47.999Z</time></trkpt><trkpt lat="40.99159817208105" lon="14.120291181140406"><ele>24.25</ele><time>2026-04-24T08:07:48.999Z</time></trkpt><trkpt lat="40.991597287162946" lon="14.12047929432755"><ele>24.0</ele><time>2026-04-24T08:07:49.999Z</time></trkpt><trkpt lat="40.99159907308541" lon="14.12084375213519"><ele>24.0</ele><time>2026-04-24T08:07:51.999Z</time></trkpt><trkpt lat="40.99161169466782" lon="14.121024892987448"><ele>24.0</ele><time>2026-04-24T08:07:52.999Z</time></trkpt><trkpt lat="40.99162159360814" lon="14.121209161674969"><ele>24.0</ele><time>2026-04-24T08:07:53.999Z</time></trkpt><trkpt lat="40.991613242875495" lon="14.121392152127326"><ele>24.0</ele><time>2026-04-24T08:07:54.999Z</time></trkpt><trkpt lat="40.991612192574735" lon="14.121572887588648"><ele>23.75</ele><time>2026-04-24T08:07:55.999Z</time></trkpt><trkpt lat="40.99161296054283" lon="14.12175204133209"><ele>23.5</ele><time>2026-04-24T08:07:56.999Z</time></trkpt><trkpt lat="40.99162198023202" lon="14.121916566810137"><ele>23.25</ele><time>2026-04-24T08:07:57.999Z</time></trkpt><trkpt lat="40.991620629095195" lon="14.122074632322942"><ele>23.0</ele><time>2026-04-24T08:07:58.999Z</time></trkpt><trkpt lat="40.99161676318606" lon="14.122222782434555"><ele>23.0</ele><time>2026-04-24T08:07:59.999Z</time></trkpt><trkpt lat="40.99161422929005" lon="14.122359813342714"><ele>23.0</ele><time>2026-04-24T08:08:00.999Z</time></trkpt><trkpt lat="40.99161485934591" lon="14.122489855480994"><ele>23.0</ele><time>2026-04-24T08:08:01.999Z</time></trkpt><trkpt lat="40.99161514548713" lon="14.122604325913208"><ele>23.0</ele><time>2026-04-24T08:08:02.999Z</time></trkpt><trkpt lat="40.99161655893014" lon="14.12270605118899"><ele>23.0</ele><time>2026-04-24T08:08:03.999Z</time></trkpt><trkpt lat="40.99161584841064" lon="14.122789588934594"><ele>23.0</ele><time>2026-04-24T08:08:04.999Z</time></trkpt><trkpt lat="40.99161005236795" lon="14.122923780920729"><ele>23.0</ele><time>2026-04-24T08:08:06.999Z</time></trkpt><trkpt lat="40.991585976207816" lon="14.123063944780126"><ele>23.0</ele><time>2026-04-24T08:08:08.999Z</time></trkpt><trkpt lat="40.99160609767544" lon="14.123196699346597"><ele>23.0</ele><time>2026-04-24T08:08:09.998Z</time></trkpt><trkpt lat="40.991614913684685" lon="14.12331198440306"><ele>23.0</ele><time>2026-04-24T08:08:10.998Z</time></trkpt><trkpt lat="40.99162110145199" lon="14.123440751825836"><ele>23.0</ele><time>2026-04-24T08:08:11.998Z</time></trkpt><trkpt lat="40.99162159923874" lon="14.123583779218297"><ele>23.0</ele><time>2026-04-24T08:08:12.998Z</time></trkpt><trkpt lat="40.99162611278025" lon="14.123732843835548"><ele>23.0</ele><time>2026-04-24T08:08:13.998Z</time></trkpt><trkpt lat="40.991629895731045" lon="14.123876367958564"><ele>23.0</ele><time>2026-04-24T08:08:14.998Z</time></trkpt><trkpt lat="40.99163054466934" lon="14.124017702523977"><ele>23.0</ele><time>2026-04-24T08:08:15.998Z</time></trkpt><trkpt lat="40.991629061995646" lon="14.124150456497038"><ele>23.0</ele><time>2026-04-24T08:08:16.998Z</time></trkpt><trkpt lat="40.99162754695907" lon="14.124272037384998"><ele>23.166666666666668</ele><time>2026-04-24T08:08:17.998Z</time></trkpt><trkpt lat="40.99163056865283" lon="14.124386446248389"><ele>23.333333333333336</ele><time>2026-04-24T08:08:18.998Z</time></trkpt><trkpt lat="40.99162854117165" lon="14.124491946365971"><ele>23.5</ele><time>2026-04-24T08:08:19.998Z</time></trkpt><trkpt lat="40.991626934455645" lon="14.124593111020886"><ele>23.666666666666668</ele><time>2026-04-24T08:08:20.998Z</time></trkpt><trkpt lat="40.99161608224844" lon="14.124696318666182"><ele>23.833333333333332</ele><time>2026-04-24T08:08:21.998Z</time></trkpt><trkpt lat="40.991616325908744" lon="14.124787065921458"><ele>24.0</ele><time>2026-04-24T08:08:22.998Z</time></trkpt><trkpt lat="40.991616554739" lon="14.124872289781527"><ele>24.2</ele><time>2026-04-24T08:08:23.998Z</time></trkpt><trkpt lat="40.99161683011276" lon="14.124974847524904"><ele>24.4</ele><time>2026-04-24T08:08:24.998Z</time></trkpt><trkpt lat="40.991617177996666" lon="14.125104411678866"><ele>24.6</ele><time>2026-04-24T08:08:25.998Z</time></trkpt><trkpt lat="40.99161759284819" lon="14.125258916426475"><ele>24.8</ele><time>2026-04-24T08:08:26.998Z</time></trkpt><trkpt lat="40.99161799813307" lon="14.12540985804161"><ele>25.0</ele><time>2026-04-24T08:08:27.998Z</time></trkpt><trkpt lat="40.9916329891646" lon="14.12555662621026"><ele>25.0</ele><time>2026-04-24T08:08:28.998Z</time></trkpt><trkpt lat="40.991632418334035" lon="14.125721898425256"><ele>25.0</ele><time>2026-04-24T08:08:29.998Z</time></trkpt><trkpt lat="40.99161948626208" lon="14.125883496074124"><ele>25.0</ele><time>2026-04-24T08:08:30.998Z</time></trkpt><trkpt lat="40.991619141462515" lon="14.126040064595694"><ele>25.0</ele><time>2026-04-24T08:08:31.998Z</time></trkpt><trkpt lat="40.99162939239603" lon="14.126198633673638"><ele>25.0</ele><time>2026-04-24T08:08:32.998Z</time></trkpt><trkpt lat="40.991622899404774" lon="14.126361565015113"><ele>25.0</ele><time>2026-04-24T08:08:33.998Z</time></trkpt><trkpt lat="40.99162961096361" lon="14.126527017349058"><ele>25.0</ele><time>2026-04-24T08:08:34.998Z</time></trkpt><trkpt lat="40.9916332190975" lon="14.126693363917916"><ele>25.0</ele><time>2026-04-24T08:08:35.998Z</time></trkpt><trkpt lat="40.99163547036899" lon="14.12685640345978"><ele>25.0</ele><time>2026-04-24T08:08:36.998Z</time></trkpt><trkpt lat="40.99163593488901" lon="14.127020984205648"><ele>25.0</ele><time>2026-04-24T08:08:37.998Z</time></trkpt><trkpt lat="40.991635695887915" lon="14.127186965565864"><ele>25.0</ele><time>2026-04-24T08:08:38.998Z</time></trkpt><trkpt lat="40.99163540408741" lon="14.127352673518551"><ele>25.0</ele><time>2026-04-24T08:08:39.998Z</time></trkpt><trkpt lat="40.99163449363898" lon="14.12751755079903"><ele>25.5</ele><time>2026-04-24T08:08:40.998Z</time></trkpt><trkpt lat="40.991634828036126" lon="14.12767975752435"><ele>26.0</ele><time>2026-04-24T08:08:41.998Z</time></trkpt><trkpt lat="40.991634168664945" lon="14.127844522780359"><ele>26.5</ele><time>2026-04-24T08:08:42.998Z</time></trkpt><trkpt lat="40.99163636978523" lon="14.12800498964808"><ele>27.0</ele><time>2026-04-24T08:08:43.998Z</time></trkpt><trkpt lat="40.99163461851326" lon="14.12816823643875"><ele>27.0</ele><time>2026-04-24T08:08:44.998Z</time></trkpt><trkpt lat="40.99163792366008" lon="14.128329444067955"><ele>27.0</ele><time>2026-04-24T08:08:45.998Z</time></trkpt><trkpt lat="40.99164222519043" lon="14.12849033223001"><ele>27.0</ele><time>2026-04-24T08:08:46.998Z</time></trkpt><trkpt lat="40.99164148872435" lon="14.128653056504204"><ele>27.0</ele><time>2026-04-24T08:08:47.998Z</time></trkpt><trkpt lat="40.99164261331967" lon="14.128815251318397"><ele>27.0</ele><time>2026-04-24T08:08:48.998Z</time></trkpt><trkpt lat="40.99164704888248" lon="14.128976280320371"><ele>27.000000000000004</ele><time>2026-04-24T08:08:49.998Z</time></trkpt><trkpt lat="40.991652100263515" lon="14.129126547433767"><ele>27.000000000000004</ele><time>2026-04-24T08:08:50.998Z</time></trkpt><trkpt lat="40.991651016005136" lon="14.129266295744387"><ele>27.0</ele><time>2026-04-24T08:08:51.998Z</time></trkpt><trkpt lat="40.991653682695826" lon="14.12939358694851"><ele>27.0</ele><time>2026-04-24T08:08:52.998Z</time></trkpt><trkpt lat="40.991655275058214" lon="14.1294980144687"><ele>27.0</ele><time>2026-04-24T08:08:53.998Z</time></trkpt><trkpt lat="40.99165540116478" lon="14.129595727268047"><ele>27.0</ele><time>2026-04-24T08:08:54.999Z</time></trkpt><trkpt lat="40.991657709228164" lon="14.129698303604371"><ele>27.0</ele><time>2026-04-24T08:08:56Z</time></trkpt><trkpt lat="40.99165426162518" lon="14.129810614579473"><ele>27.0</ele><time>2026-04-24T08:08:57Z</time></trkpt><trkpt lat="40.99165467222865" lon="14.129918960981001"><ele>27.0</ele><time>2026-04-24T08:08:58Z</time></trkpt><trkpt lat="40.991664772966786" lon="14.130041306194778"><ele>27.0</ele><time>2026-04-24T08:08:59Z</time></trkpt><trkpt lat="40.99166721064531" lon="14.130175076734055"><ele>27.25</ele><time>2026-04-24T08:09:00Z</time></trkpt><trkpt lat="40.99167111412738" lon="14.13031495599432"><ele>27.5</ele><time>2026-04-24T08:09:01Z</time></trkpt><trkpt lat="40.991674624423005" lon="14.130452172863487"><ele>27.75</ele><time>2026-04-24T08:09:02Z</time></trkpt><trkpt lat="40.99167896380481" lon="14.13071430251045"><ele>28.0</ele><time>2026-04-24T08:09:04Z</time></trkpt><trkpt lat="40.991679530065085" lon="14.130824543256125"><ele>28.166666666666668</ele><time>2026-04-24T08:09:05Z</time></trkpt><trkpt lat="40.99167820999885" lon="14.130939757204544"><ele>28.333333333333336</ele><time>2026-04-24T08:09:06Z</time></trkpt><trkpt lat="40.991680426799746" lon="14.131059928175565"><ele>28.5</ele><time>2026-04-24T08:09:07Z</time></trkpt><trkpt lat="40.991682458941426" lon="14.131185660158812"><ele>28.666666666666664</ele><time>2026-04-24T08:09:08Z</time></trkpt><trkpt lat="40.991688201143496" lon="14.131306077311743"><ele>28.833333333333332</ele><time>2026-04-24T08:09:09Z</time></trkpt><trkpt lat="40.99168229509734" lon="14.13141697140913"><ele>29.0</ele><time>2026-04-24T08:09:10Z</time></trkpt><trkpt lat="40.99168451101404" lon="14.131518602840409"><ele>28.85714285714286</ele><time>2026-04-24T08:09:11Z</time></trkpt><trkpt lat="40.99169068863402" lon="14.131618410621577"><ele>28.714285714285715</ele><time>2026-04-24T08:09:12Z</time></trkpt><trkpt lat="40.99167920732485" lon="14.131710189289649"><ele>28.571428571428573</ele><time>2026-04-24T08:09:13Z</time></trkpt><trkpt lat="40.9916882516425" lon="14.131799744733474"><ele>28.42857142857143</ele><time>2026-04-24T08:09:14Z</time></trkpt><trkpt lat="40.99169045959177" lon="14.131892812243027"><ele>28.285714285714285</ele><time>2026-04-24T08:09:15Z</time></trkpt><trkpt lat="40.99168917773832" lon="14.131982332227636"><ele>28.142857142857142</ele><time>2026-04-24T08:09:16Z</time></trkpt><trkpt lat="40.991688765331034" lon="14.132074801980666"><ele>28.0</ele><time>2026-04-24T08:09:17Z</time></trkpt><trkpt lat="40.991689830420235" lon="14.1321609728351"><ele>28.000000000000004</ele><time>2026-04-24T08:09:18Z</time></trkpt><trkpt lat="40.9916922716343" lon="14.132317746248244"><ele>28.0</ele><time>2026-04-24T08:09:20Z</time></trkpt><trkpt lat="40.99169468094769" lon="14.132401948207619"><ele>28.0</ele><time>2026-04-24T08:09:21Z</time></trkpt><trkpt lat="40.991692687155776" lon="14.132494708751148"><ele>28.0</ele><time>2026-04-24T08:09:22Z</time></trkpt><trkpt lat="40.99169358776055" lon="14.132585201269308"><ele>28.000000000000004</ele><time>2026-04-24T08:09:23Z</time></trkpt><trkpt lat="40.991698851172835" lon="14.132674974258377"><ele>28.0</ele><time>2026-04-24T08:09:24Z</time></trkpt><trkpt lat="40.99168919336353" lon="14.132774083892066"><ele>28.333333333333336</ele><time>2026-04-24T08:09:25Z</time></trkpt><trkpt lat="40.991689562786924" lon="14.132884098392964"><ele>28.666666666666668</ele><time>2026-04-24T08:09:26Z</time></trkpt><trkpt lat="40.99168993784876" lon="14.13299579174482"><ele>29.0</ele><time>2026-04-24T08:09:27Z</time></trkpt><trkpt lat="40.99170597051359" lon="14.133105070287176"><ele>29.333333333333336</ele><time>2026-04-24T08:09:28Z</time></trkpt><trkpt lat="40.99169081423904" lon="14.133216838475432"><ele>29.666666666666668</ele><time>2026-04-24T08:09:29Z</time></trkpt><trkpt lat="40.99169129599558" lon="14.13333539877026"><ele>30.0</ele><time>2026-04-24T08:09:30Z</time></trkpt><trkpt lat="40.99169178355616" lon="14.13345538738246"><ele>30.0</ele><time>2026-04-24T08:09:31Z</time></trkpt><trkpt lat="40.99169228748004" lon="14.133579402799837"><ele>30.0</ele><time>2026-04-24T08:09:32Z</time></trkpt><trkpt lat="40.991693153048054" lon="14.133701445119712"><ele>30.0</ele><time>2026-04-24T08:09:33Z</time></trkpt><trkpt lat="40.991693497754554" lon="14.133813896968942"><ele>30.0</ele><time>2026-04-24T08:09:34Z</time></trkpt><trkpt lat="40.99169383657653" lon="14.133924429603978"><ele>30.0</ele><time>2026-04-24T08:09:35Z</time></trkpt><trkpt lat="40.991710307903226" lon="14.13402275823538"><ele>30.0</ele><time>2026-04-24T08:09:35.999Z</time></trkpt><trkpt lat="40.99171031492668" lon="14.13412520347134"><ele>30.0</ele><time>2026-04-24T08:09:36.999Z</time></trkpt><trkpt lat="40.99170620178952" lon="14.13422856844103"><ele>30.0</ele><time>2026-04-24T08:09:37.999Z</time></trkpt><trkpt lat="40.99170280245989" lon="14.134321030343015"><ele>30.0</ele><time>2026-04-24T08:09:38.999Z</time></trkpt><trkpt lat="40.991707230342115" lon="14.134405950100728"><ele>30.0</ele><time>2026-04-24T08:09:39.999Z</time></trkpt><trkpt lat="40.9917051376605" lon="14.134490270293874"><ele>30.0</ele><time>2026-04-24T08:09:40.999Z</time></trkpt><trkpt lat="40.991702692099075" lon="14.134574592726425"><ele>30.0</ele><time>2026-04-24T08:09:41.999Z</time></trkpt><trkpt lat="40.99169845699413" lon="14.134664493498251"><ele>30.0</ele><time>2026-04-24T08:09:42.999Z</time></trkpt><trkpt lat="40.99169745583953" lon="14.1347511605575"><ele>29.8</ele><time>2026-04-24T08:09:43.999Z</time></trkpt><trkpt lat="40.99170015940168" lon="14.134905456973952"><ele>29.6</ele><time>2026-04-24T08:09:45.999Z</time></trkpt><trkpt lat="40.99169267496042" lon="14.1350504424287"><ele>29.4</ele><time>2026-04-24T08:09:47.999Z</time></trkpt><trkpt lat="40.99168606102836" lon="14.135201697108513"><ele>29.2</ele><time>2026-04-24T08:09:49.999Z</time></trkpt><trkpt lat="40.99170256362137" lon="14.135329190718286"><ele>29.0</ele><time>2026-04-24T08:09:51.999Z</time></trkpt><trkpt lat="40.991713021350925" lon="14.135443162567876"><ele>28.999999999999996</ele><time>2026-04-24T08:09:53.999Z</time></trkpt><trkpt lat="40.99171967736209" lon="14.135555566522209"><ele>29.0</ele><time>2026-04-24T08:09:55.999Z</time></trkpt><trkpt lat="40.99172057188582" lon="14.135659704521935"><ele>29.0</ele><time>2026-04-24T08:09:57.999Z</time></trkpt><trkpt lat="40.991727321731474" lon="14.135803611375712"><ele>29.0</ele><time>2026-04-24T08:09:59.999Z</time></trkpt><trkpt lat="40.991732629808865" lon="14.13590282631042"><ele>28.999999999999996</ele><time>2026-04-24T08:10:00.999Z</time></trkpt><trkpt lat="40.991736513139934" lon="14.136024593756382"><ele>29.0</ele><time>2026-04-24T08:10:01.999Z</time></trkpt><trkpt lat="40.99173823399989" lon="14.136144900608313"><ele>29.0</ele><time>2026-04-24T08:10:02.999Z</time></trkpt><trkpt lat="40.99173749994178" lon="14.136265610926582"><ele>29.0</ele><time>2026-04-24T08:10:03.999Z</time></trkpt><trkpt lat="40.99173838882205" lon="14.136383639713575"><ele>29.0</ele><time>2026-04-24T08:10:04.999Z</time></trkpt><trkpt lat="40.99171361493494" lon="14.136505746610446"><ele>29.0</ele><time>2026-04-24T08:10:05.999Z</time></trkpt><trkpt lat="40.99171064740615" lon="14.136626714783713"><ele>29.0</ele><time>2026-04-24T08:10:06.999Z</time></trkpt><trkpt lat="40.99170992926561" lon="14.136746811547503"><ele>28.999999999999996</ele><time>2026-04-24T08:10:07.999Z</time></trkpt><trkpt lat="40.991709929265916" lon="14.13686225772919"><ele>29.0</ele><time>2026-04-24T08:10:08.999Z</time></trkpt><trkpt lat="40.991709929266065" lon="14.136973313002038"><ele>29.0</ele><time>2026-04-24T08:10:09.999Z</time></trkpt><trkpt lat="40.99170992926595" lon="14.137086625142858"><ele>29.0</ele><time>2026-04-24T08:10:10.999Z</time></trkpt><trkpt lat="40.991710630926946" lon="14.13719776457989"><ele>28.999999999999996</ele><time>2026-04-24T08:10:11.999Z</time></trkpt><trkpt lat="40.991711441030155" lon="14.13730608324359"><ele>29.0</ele><time>2026-04-24T08:10:12.999Z</time></trkpt><trkpt lat="40.99171226877599" lon="14.13741676088628"><ele>28.85714285714286</ele><time>2026-04-24T08:10:13.999Z</time></trkpt><trkpt lat="40.991713018546704" lon="14.137517012512012"><ele>28.714285714285715</ele><time>2026-04-24T08:10:14.999Z</time></trkpt><trkpt lat="40.99171616754207" lon="14.137616974923066"><ele>28.571428571428573</ele><time>2026-04-24T08:10:15.999Z</time></trkpt><trkpt lat="40.99171163670052" lon="14.137724424040549"><ele>28.42857142857143</ele><time>2026-04-24T08:10:16.999Z</time></trkpt><trkpt lat="40.99172539728823" lon="14.13781237272668"><ele>28.285714285714285</ele><time>2026-04-24T08:10:17.999Z</time></trkpt><trkpt lat="40.99172762504537" lon="14.13790419560108"><ele>28.142857142857142</ele><time>2026-04-24T08:10:18.999Z</time></trkpt><trkpt lat="40.991725619597176" lon="14.137988097053162"><ele>28.0</ele><time>2026-04-24T08:10:19.999Z</time></trkpt><trkpt lat="40.99171231514838" lon="14.138143478958602"><ele>28.166666666666668</ele><time>2026-04-24T08:10:21.999Z</time></trkpt><trkpt lat="40.991697923975" lon="14.1382344395398"><ele>28.333333333333336</ele><time>2026-04-24T08:10:22.999Z</time></trkpt><trkpt lat="40.991686844674355" lon="14.138329513028829"><ele>28.5</ele><time>2026-04-24T08:10:23.999Z</time></trkpt><trkpt lat="40.99168095452892" lon="14.13843875063947"><ele>28.666666666666664</ele><time>2026-04-24T08:10:24.999Z</time></trkpt><trkpt lat="40.99167515214882" lon="14.138546072870849"><ele>28.833333333333332</ele><time>2026-04-24T08:10:25.999Z</time></trkpt><trkpt lat="40.991674615177175" lon="14.138666904256418"><ele>29.0</ele><time>2026-04-24T08:10:26.999Z</time></trkpt><trkpt lat="40.991655624285556" lon="14.138797992416713"><ele>28.999999999999996</ele><time>2026-04-24T08:10:27.999Z</time></trkpt><trkpt lat="40.991663319141686" lon="14.13894601317744"><ele>29.0</ele><time>2026-04-24T08:10:28.999Z</time></trkpt><trkpt lat="40.991667001841314" lon="14.139064346471258"><ele>29.0</ele><time>2026-04-24T08:10:29.999Z</time></trkpt><trkpt lat="40.99166329324764" lon="14.139178905474264"><ele>29.0</ele><time>2026-04-24T08:10:30.999Z</time></trkpt><trkpt lat="40.991659415162324" lon="14.13928176909102"><ele>28.999999999999996</ele><time>2026-04-24T08:10:31.999Z</time></trkpt><trkpt lat="40.991667762891346" lon="14.139386007897624"><ele>29.0</ele><time>2026-04-24T08:10:32.999Z</time></trkpt><trkpt lat="40.99166849460231" lon="14.139490845838395"><ele>29.0</ele><time>2026-04-24T08:10:33.999Z</time></trkpt><trkpt lat="40.9916643546445" lon="14.139595482900505"><ele>29.0</ele><time>2026-04-24T08:10:34.999Z</time></trkpt><trkpt lat="40.99166880020543" lon="14.139685817723834"><ele>29.0</ele><time>2026-04-24T08:10:35.999Z</time></trkpt><trkpt lat="40.9916687597799" lon="14.139770047565117"><ele>29.0</ele><time>2026-04-24T08:10:36.999Z</time></trkpt><trkpt lat="40.991670051024194" lon="14.139937883774937"><ele>29.0</ele><time>2026-04-24T08:10:38.999Z</time></trkpt><trkpt lat="40.991669754579036" lon="14.140113598032396"><ele>28.999999999999996</ele><time>2026-04-24T08:10:40.999Z</time></trkpt><trkpt lat="40.991668495026786" lon="14.140210390435268"><ele>29.0</ele><time>2026-04-24T08:10:41.999Z</time></trkpt><trkpt lat="40.99167042295159" lon="14.140312252269148"><ele>29.0</ele><time>2026-04-24T08:10:42.998Z</time></trkpt><trkpt lat="40.99167637448853" lon="14.140420595367845"><ele>29.0</ele><time>2026-04-24T08:10:43.998Z</time></trkpt><trkpt lat="40.991657211940314" lon="14.140538966766451"><ele>28.999999999999996</ele><time>2026-04-24T08:10:44.998Z</time></trkpt><trkpt lat="40.991661656630455" lon="14.140648676955765"><ele>29.0</ele><time>2026-04-24T08:10:45.998Z</time></trkpt><trkpt lat="40.9916692096826" lon="14.14074430025648"><ele>29.2</ele><time>2026-04-24T08:10:46.998Z</time></trkpt><trkpt lat="40.99167200497016" lon="14.14083726527765"><ele>29.4</ele><time>2026-04-24T08:10:47.998Z</time></trkpt><trkpt lat="40.99168245289755" lon="14.140923356413094"><ele>29.6</ele><time>2026-04-24T08:10:48.998Z</time></trkpt><trkpt lat="40.99169433822039" lon="14.141083164385114"><ele>29.8</ele><time>2026-04-24T08:10:50.998Z</time></trkpt><trkpt lat="40.99170238695611" lon="14.14123657088185"><ele>30.0</ele><time>2026-04-24T08:10:52.998Z</time></trkpt><trkpt lat="40.991692178127856" lon="14.141378207541049"><ele>30.0</ele><time>2026-04-24T08:10:54.998Z</time></trkpt><trkpt lat="40.99169444579646" lon="14.141507993561941"><ele>30.0</ele><time>2026-04-24T08:10:56.998Z</time></trkpt><trkpt lat="40.99169588229833" lon="14.141653638319369"><ele>30.0</ele><time>2026-04-24T08:10:58.998Z</time></trkpt><trkpt lat="40.9916966795295" lon="14.141812359582696"><ele>30.0</ele><time>2026-04-24T08:11:01Z</time></trkpt><trkpt lat="40.991695156536416" lon="14.141955818079918"><ele>30.0</ele><time>2026-04-24T08:11:03Z</time></trkpt><trkpt lat="40.991693706378214" lon="14.142092415955268"><ele>30.0</ele><time>2026-04-24T08:11:05Z</time></trkpt><trkpt lat="40.99170481438535" lon="14.14222350840243"><ele>30.0</ele><time>2026-04-24T08:11:07Z</time></trkpt><trkpt lat="40.991700543241414" lon="14.14232764523937"><ele>30.0</ele><time>2026-04-24T08:11:09Z</time></trkpt><trkpt lat="40.99169801275108" lon="14.142428517607454"><ele>30.0</ele><time>2026-04-24T08:11:11Z</time></trkpt><trkpt lat="40.9916970622277" lon="14.142511977025539"><ele>30.0</ele><time>2026-04-24T08:11:13Z</time></trkpt><trkpt lat="40.99169563889319" lon="14.142641529610174"><ele>30.0</ele><time>2026-04-24T08:11:16Z</time></trkpt><trkpt lat="40.99167612216637" lon="14.14275160113304"><ele>30.333333333333332</ele><time>2026-04-24T08:11:18Z</time></trkpt><trkpt lat="40.99169481721025" lon="14.142868956082669"><ele>30.666666666666664</ele><time>2026-04-24T08:11:20Z</time></trkpt><trkpt lat="40.991687336341066" lon="14.142970284176318"><ele>31.0</ele><time>2026-04-24T08:11:22Z</time></trkpt><trkpt lat="40.99169556360551" lon="14.143075679244202"><ele>31.333333333333332</ele><time>2026-04-24T08:11:26Z</time></trkpt><trkpt lat="40.991700098892096" lon="14.143198181064474"><ele>31.666666666666664</ele><time>2026-04-24T08:11:29Z</time></trkpt><trkpt lat="40.99169705513819" lon="14.143291230513713"><ele>32.0</ele><time>2026-04-24T08:11:31Z</time></trkpt><trkpt lat="40.99170644810895" lon="14.143391349193468"><ele>32.0</ele><time>2026-04-24T08:11:33Z</time></trkpt><trkpt lat="40.991693918444845" lon="14.143503418010935"><ele>32.0</ele><time>2026-04-24T08:11:35Z</time></trkpt><trkpt lat="40.991708221511324" lon="14.14364723140787"><ele>32.0</ele><time>2026-04-24T08:11:37Z</time></trkpt><trkpt lat="40.991712267516945" lon="14.14377496639114"><ele>32.0</ele><time>2026-04-24T08:11:39Z</time></trkpt><trkpt lat="40.99171328526796" lon="14.1438933981753"><ele>32.0</ele><time>2026-04-24T08:11:41Z</time></trkpt><trkpt lat="40.99171373777643" lon="14.144021253751493"><ele>31.999999999999996</ele><time>2026-04-24T08:11:43Z</time></trkpt><trkpt lat="40.99171539299983" lon="14.144129143056258"><ele>32.0</ele><time>2026-04-24T08:11:45Z</time></trkpt><trkpt lat="40.99171907951481" lon="14.14423712291684"><ele>32.0</ele><time>2026-04-24T08:11:47Z</time></trkpt><trkpt lat="40.99172232980564" lon="14.14435116013384"><ele>32.0</ele><time>2026-04-24T08:11:49Z</time></trkpt><trkpt lat="40.991733737186735" lon="14.144443778486304"><ele>31.999999999999996</ele><time>2026-04-24T08:11:50.999Z</time></trkpt><trkpt lat="40.9917465997009" lon="14.14455255212758"><ele>32.0</ele><time>2026-04-24T08:11:52.999Z</time></trkpt><trkpt lat="40.99175274291473" lon="14.1446745072763"><ele>31.999999999999996</ele><time>2026-04-24T08:11:54.999Z</time></trkpt><trkpt lat="40.99175129303214" lon="14.144795347930188"><ele>32.0</ele><time>2026-04-24T08:11:56.999Z</time></trkpt><trkpt lat="40.99175618503336" lon="14.14489776056631"><ele>32.0</ele><time>2026-04-24T08:11:58.999Z</time></trkpt><trkpt lat="40.991767882834985" lon="14.14499773891733"><ele>32.0</ele><time>2026-04-24T08:12:00.999Z</time></trkpt><trkpt lat="40.991773236591456" lon="14.145130057548444"><ele>31.999999999999996</ele><time>2026-04-24T08:12:02.999Z</time></trkpt><trkpt lat="40.99177334182344" lon="14.14525659325464"><ele>32.0</ele><time>2026-04-24T08:12:04.999Z</time></trkpt><trkpt lat="40.991774083995885" lon="14.14537416008707"><ele>32.0</ele><time>2026-04-24T08:12:06.999Z</time></trkpt><trkpt lat="40.99177860320602" lon="14.145494848445736"><ele>32.0</ele><time>2026-04-24T08:12:08.999Z</time></trkpt><trkpt lat="40.99178165162241" lon="14.145621180466533"><ele>32.0</ele><time>2026-04-24T08:12:10.999Z</time></trkpt><trkpt lat="40.99178877099965" lon="14.145749575417225"><ele>32.0</ele><time>2026-04-24T08:12:12.999Z</time></trkpt><trkpt lat="40.99177766529209" lon="14.145888653860792"><ele>32.0</ele><time>2026-04-24T08:12:14.999Z</time></trkpt><trkpt lat="40.99178480314604" lon="14.146085667641616"><ele>32.0</ele><time>2026-04-24T08:12:17.999Z</time></trkpt><trkpt lat="40.991784710210574" lon="14.146234057669023"><ele>32.0</ele><time>2026-04-24T08:12:19.999Z</time></trkpt><trkpt lat="40.99179029799573" lon="14.146371391272128"><ele>32.0</ele><time>2026-04-24T08:12:21.999Z</time></trkpt><trkpt lat="40.99178842245414" lon="14.146513199419333"><ele>32.0</ele><time>2026-04-24T08:12:23.999Z</time></trkpt><trkpt lat="40.991775053470676" lon="14.146648695707714"><ele>32.0</ele><time>2026-04-24T08:12:25.999Z</time></trkpt><trkpt lat="40.991784970913734" lon="14.146770187731635"><ele>31.8</ele><time>2026-04-24T08:12:27.999Z</time></trkpt><trkpt lat="40.99178228941934" lon="14.146895242553592"><ele>31.6</ele><time>2026-04-24T08:12:29.999Z</time></trkpt><trkpt lat="40.99178607986712" lon="14.147022029890906"><ele>31.400000000000002</ele><time>2026-04-24T08:12:31.999Z</time></trkpt><trkpt lat="40.99178745522009" lon="14.147125035008688"><ele>31.200000000000003</ele><time>2026-04-24T08:12:33.999Z</time></trkpt><trkpt lat="40.99178056147851" lon="14.147253589037618"><ele>31.0</ele><time>2026-04-24T08:12:35.999Z</time></trkpt><trkpt lat="40.991782801879474" lon="14.147422777928751"><ele>31.000000000000004</ele><time>2026-04-24T08:12:37.999Z</time></trkpt><trkpt lat="40.991785025722415" lon="14.147517957859181"><ele>31.0</ele><time>2026-04-24T08:12:38.999Z</time></trkpt><trkpt lat="40.991789852094435" lon="14.147602925427584"><ele>31.0</ele><time>2026-04-24T08:12:39.999Z</time></trkpt><trkpt lat="40.99177747506578" lon="14.147750303160638"><ele>31.0</ele><time>2026-04-24T08:12:41.999Z</time></trkpt><trkpt lat="40.99178690445093" lon="14.147868317573097"><ele>31.000000000000004</ele><time>2026-04-24T08:12:43.999Z</time></trkpt><trkpt lat="40.99178320049273" lon="14.147987775901731"><ele>31.0</ele><time>2026-04-24T08:12:45.999Z</time></trkpt><trkpt lat="40.991781216987484" lon="14.148072326279314"><ele>31.000000000000004</ele><time>2026-04-24T08:12:47.999Z</time></trkpt><trkpt lat="40.991778063177826" lon="14.148176109327334"><ele>31.0</ele><time>2026-04-24T08:12:51.998Z</time></trkpt><trkpt lat="40.991765134313354" lon="14.148290643564383"><ele>31.0</ele><time>2026-04-24T08:12:54.998Z</time></trkpt><trkpt lat="40.99176418708111" lon="14.148391097209545"><ele>31.0</ele><time>2026-04-24T08:12:56.998Z</time></trkpt><trkpt lat="40.9917616897376" lon="14.148530747787323"><ele>31.000000000000004</ele><time>2026-04-24T08:12:58.998Z</time></trkpt><trkpt lat="40.99176010833545" lon="14.148619179230737"><ele>31.0</ele><time>2026-04-24T08:12:59.998Z</time></trkpt><trkpt lat="40.99175802095096" lon="14.14873590499702"><ele>31.0</ele><time>2026-04-24T08:13:00.998Z</time></trkpt><trkpt lat="40.9917569735187" lon="14.14883745926404"><ele>31.0</ele><time>2026-04-24T08:13:01.998Z</time></trkpt><trkpt lat="40.99175583822462" lon="14.148957005695543"><ele>31.0</ele><time>2026-04-24T08:13:02.998Z</time></trkpt><trkpt lat="40.99175533201687" lon="14.149082478049747"><ele>31.0</ele><time>2026-04-24T08:13:03.998Z</time></trkpt><trkpt lat="40.99177119492689" lon="14.149210995625362"><ele>31.0</ele><time>2026-04-24T08:13:04.998Z</time></trkpt><trkpt lat="40.99175335900686" lon="14.14933399225958"><ele>31.0</ele><time>2026-04-24T08:13:05.998Z</time></trkpt><trkpt lat="40.991751964016906" lon="14.149456844341294"><ele>31.0</ele><time>2026-04-24T08:13:07Z</time></trkpt><trkpt lat="40.991750183865264" lon="14.149580858471984"><ele>31.0</ele><time>2026-04-24T08:13:08Z</time></trkpt><trkpt lat="40.99174930479588" lon="14.149703809868582"><ele>31.0</ele><time>2026-04-24T08:13:09Z</time></trkpt><trkpt lat="40.99176303804485" lon="14.149830482773876"><ele>31.0</ele><time>2026-04-24T08:13:10Z</time></trkpt><trkpt lat="40.99176394018806" lon="14.149953095942623"><ele>31.0</ele><time>2026-04-24T08:13:11Z</time></trkpt><trkpt lat="40.991765382590835" lon="14.15007794922445"><ele>31.0</ele><time>2026-04-24T08:13:12Z</time></trkpt><trkpt lat="40.991748741485935" lon="14.150203198465922"><ele>31.0</ele><time>2026-04-24T08:13:13Z</time></trkpt><trkpt lat="40.99176406845055" lon="14.150331245593904"><ele>31.0</ele><time>2026-04-24T08:13:14Z</time></trkpt><trkpt lat="40.991759912946904" lon="14.150459561297014"><ele>31.0</ele><time>2026-04-24T08:13:15Z</time></trkpt><trkpt lat="40.99175795438562" lon="14.150576522229747"><ele>31.0</ele><time>2026-04-24T08:13:16Z</time></trkpt><trkpt lat="40.99175006929645" lon="14.150758824627307"><ele>31.0</ele><time>2026-04-24T08:13:18Z</time></trkpt><trkpt lat="40.991751999398026" lon="14.15085408099829"><ele>31.0</ele><time>2026-04-24T08:13:20Z</time></trkpt><trkpt lat="40.99188378734532" lon="14.150925562080259"><ele>31.0</ele><time>2026-04-24T08:13:29Z</time></trkpt><trkpt lat="40.99195388314487" lon="14.150926142033576"><ele>31.0</ele><time>2026-04-24T08:13:31Z</time></trkpt><trkpt lat="40.99205351674965" lon="14.150904823258042"><ele>31.0</ele><time>2026-04-24T08:13:33Z</time></trkpt><trkpt lat="40.99212612233886" lon="14.150905789707187"><ele>31.0</ele><time>2026-04-24T08:13:35Z</time></trkpt><trkpt lat="40.99222451627378" lon="14.15090605616819"><ele>31.0</ele><time>2026-04-24T08:13:37Z</time></trkpt><trkpt lat="40.99235529905374" lon="14.150899246821945"><ele>31.0</ele><time>2026-04-24T08:13:39Z</time></trkpt><trkpt lat="40.99242269833298" lon="14.150902410399675"><ele>31.0</ele><time>2026-04-24T08:13:40Z</time></trkpt><trkpt lat="40.992518041693806" lon="14.150904430757517"><ele>31.000000000000004</ele><time>2026-04-24T08:13:42Z</time></trkpt><trkpt lat="40.9925857391785" lon="14.150896817165385"><ele>31.0</ele><time>2026-04-24T08:14:02.999Z</time></trkpt><trkpt lat="40.992649126530516" lon="14.150895624396274"><ele>31.0</ele><time>2026-04-24T08:14:05.999Z</time></trkpt><trkpt lat="40.992557395326976" lon="14.15090627991205"><ele>31.0</ele><time>2026-04-24T08:14:18.999Z</time></trkpt><trkpt lat="40.99248558264349" lon="14.15090890633229"><ele>31.000000000000004</ele><time>2026-04-24T08:14:20.999Z</time></trkpt><trkpt lat="40.99239579531496" lon="14.150915396973495"><ele>31.0</ele><time>2026-04-24T08:14:22.999Z</time></trkpt><trkpt lat="40.99230855459617" lon="14.150920465274313"><ele>31.000000000000004</ele><time>2026-04-24T08:14:24.999Z</time></trkpt><trkpt lat="40.992224077774914" lon="14.150923025178445"><ele>31.0</ele><time>2026-04-24T08:14:26.999Z</time></trkpt><trkpt lat="40.9921414680416" lon="14.150925085450123"><ele>31.0</ele><time>2026-04-24T08:14:28.999Z</time></trkpt><trkpt lat="40.992067300679594" lon="14.150925503204675"><ele>31.0</ele><time>2026-04-24T08:14:30.999Z</time></trkpt><trkpt lat="40.99200120750877" lon="14.150925875479116"><ele>31.000000000000004</ele><time>2026-04-24T08:14:32.999Z</time></trkpt><trkpt lat="40.99191491609025" lon="14.150926067926166"><ele>31.0</ele><time>2026-04-24T08:14:35.999Z</time></trkpt><trkpt lat="40.991839059008655" lon="14.150911053775927"><ele>31.0</ele><time>2026-04-24T08:14:38.999Z</time></trkpt><trkpt lat="40.99195553209181" lon="14.151240736286569"><ele>31.0</ele><time>2026-04-24T08:14:49.999Z</time></trkpt><trkpt lat="40.99201140787347" lon="14.151283068806762"><ele>31.0</ele><time>2026-04-24T08:14:50.999Z</time></trkpt><trkpt lat="40.99206812019252" lon="14.151327334854264"><ele>31.0</ele><time>2026-04-24T08:14:51.999Z</time></trkpt><trkpt lat="40.99216588261209" lon="14.151403488025254"><ele>31.0</ele><time>2026-04-24T08:14:53.999Z</time></trkpt><trkpt lat="40.99224376381365" lon="14.151465326648578"><ele>31.0</ele><time>2026-04-24T08:14:55.998Z</time></trkpt><trkpt lat="40.992315894290286" lon="14.151508836600396"><ele>31.0</ele><time>2026-04-24T08:14:57.998Z</time></trkpt><trkpt lat="40.99239688432274" lon="14.15157723741314"><ele>31.0</ele><time>2026-04-24T08:14:59.998Z</time></trkpt><trkpt lat="40.992491504725436" lon="14.151667672642066"><ele>31.0</ele><time>2026-04-24T08:15:01.998Z</time></trkpt><trkpt lat="40.99258598422021" lon="14.151761997992113"><ele>30.833333333333336</ele><time>2026-04-24T08:15:03.998Z</time></trkpt><trkpt lat="40.99269438090714" lon="14.151825522832116"><ele>30.666666666666668</ele><time>2026-04-24T08:15:05.998Z</time></trkpt><trkpt lat="40.99270073383249" lon="14.1519704429113"><ele>30.5</ele><time>2026-04-24T08:15:06.998Z</time></trkpt><trkpt lat="40.992733906180085" lon="14.15204540558619"><ele>30.333333333333336</ele><time>2026-04-24T08:15:07.998Z</time></trkpt><trkpt lat="40.9927679233887" lon="14.152122938305954"><ele>30.166666666666668</ele><time>2026-04-24T08:15:08.998Z</time></trkpt><trkpt lat="40.99280793607755" lon="14.152201971524004"><ele>30.0</ele><time>2026-04-24T08:15:09.998Z</time></trkpt><trkpt lat="40.992837254924254" lon="14.152282060397617"><ele>29.8</ele><time>2026-04-24T08:15:10.998Z</time></trkpt><trkpt lat="40.992892629687866" lon="14.15241028793039"><ele>29.6</ele><time>2026-04-24T08:15:13Z</time></trkpt><trkpt lat="40.99292421573763" lon="14.152531619212562"><ele>29.4</ele><time>2026-04-24T08:15:15Z</time></trkpt><trkpt lat="40.992945875320395" lon="14.152665416744469"><ele>29.2</ele><time>2026-04-24T08:15:17Z</time></trkpt><trkpt lat="40.992957621279096" lon="14.152777036881291"><ele>29.0</ele><time>2026-04-24T08:15:19Z</time></trkpt><trkpt lat="40.99295545618135" lon="14.15267967824692"><ele>28.999999999999996</ele><time>2026-04-24T08:15:40Z</time></trkpt><trkpt lat="40.992941106245034" lon="14.152581613515709"><ele>29.0</ele><time>2026-04-24T08:15:42Z</time></trkpt><trkpt lat="40.99292191624204" lon="14.152491243127068"><ele>29.0</ele><time>2026-04-24T08:15:44Z</time></trkpt><trkpt lat="40.99288859683991" lon="14.152396223568227"><ele>29.0</ele><time>2026-04-24T08:15:46Z</time></trkpt><trkpt lat="40.99284259695359" lon="14.152284675949334"><ele>28.999999999999996</ele><time>2026-04-24T08:15:48Z</time></trkpt><trkpt lat="40.99278913304585" lon="14.152167812501897"><ele>29.0</ele><time>2026-04-24T08:15:49.999Z</time></trkpt><trkpt lat="40.9927406179987" lon="14.152062143216956"><ele>29.2</ele><time>2026-04-24T08:15:51.999Z</time></trkpt><trkpt lat="40.992705315324955" lon="14.151978457963942"><ele>29.4</ele><time>2026-04-24T08:15:52.999Z</time></trkpt><trkpt lat="40.99263844950269" lon="14.151859039362826"><ele>29.6</ele><time>2026-04-24T08:15:54.999Z</time></trkpt><trkpt lat="40.99257613902591" lon="14.15176598623849"><ele>29.8</ele><time>2026-04-24T08:15:56.999Z</time></trkpt><trkpt lat="40.99251128828048" lon="14.151681082547347"><ele>30.0</ele><time>2026-04-24T08:15:58.999Z</time></trkpt><trkpt lat="40.992437345156596" lon="14.151574828974514"><ele>30.2</ele><time>2026-04-24T08:16:00.999Z</time></trkpt><trkpt lat="40.99232650674171" lon="14.151500047680834"><ele>30.4</ele><time>2026-04-24T08:16:02.999Z</time></trkpt><trkpt lat="40.992263408884924" lon="14.151465762904925"><ele>30.6</ele><time>2026-04-24T08:16:03.999Z</time></trkpt><trkpt lat="40.99219866875957" lon="14.15140392971497"><ele>30.8</ele><time>2026-04-24T08:16:04.999Z</time></trkpt><trkpt lat="40.99207528692299" lon="14.151302007143794"><ele>31.0</ele><time>2026-04-24T08:16:06.999Z</time></trkpt><trkpt lat="40.99201289866202" lon="14.151270900482338"><ele>31.0</ele><time>2026-04-24T08:16:07.999Z</time></trkpt><trkpt lat="40.991914108213095" lon="14.151205279918905"><ele>31.0</ele><time>2026-04-24T08:16:09.999Z</time></trkpt><trkpt lat="40.991846635904146" lon="14.151165229915675"><ele>31.0</ele><time>2026-04-24T08:16:11.999Z</time></trkpt><trkpt lat="40.99178864969168" lon="14.151124527624718"><ele>31.0</ele><time>2026-04-24T08:16:14.999Z</time></trkpt><trkpt lat="40.99168304318668" lon="14.151247301303775"><ele>31.0</ele><time>2026-04-24T08:16:21.999Z</time></trkpt><trkpt lat="40.991658055087655" lon="14.151330298773487"><ele>31.200000000000003</ele><time>2026-04-24T08:16:22.999Z</time></trkpt><trkpt lat="40.99162676776434" lon="14.151439031982575"><ele>31.400000000000002</ele><time>2026-04-24T08:16:23.999Z</time></trkpt><trkpt lat="40.9915914789373" lon="14.15155622418642"><ele>31.6</ele><time>2026-04-24T08:16:24.999Z</time></trkpt><trkpt lat="40.991542018480125" lon="14.15168952105611"><ele>31.8</ele><time>2026-04-24T08:16:25.999Z</time></trkpt><trkpt lat="40.99149145426596" lon="14.151814711258893"><ele>32.0</ele><time>2026-04-24T08:16:26.999Z</time></trkpt><trkpt lat="40.99143385486005" lon="14.151950319892238"><ele>32.25</ele><time>2026-04-24T08:16:27.999Z</time></trkpt><trkpt lat="40.99137287170846" lon="14.152086908233846"><ele>32.5</ele><time>2026-04-24T08:16:28.999Z</time></trkpt><trkpt lat="40.99130949015808" lon="14.152215703924142"><ele>32.75</ele><time>2026-04-24T08:16:29.999Z</time></trkpt><trkpt lat="40.99123957716423" lon="14.152341146784192"><ele>33.0</ele><time>2026-04-24T08:16:30.999Z</time></trkpt><trkpt lat="40.9911823158631" lon="14.152462451404455"><ele>33.5</ele><time>2026-04-24T08:16:31.999Z</time></trkpt><trkpt lat="40.991119258381765" lon="14.152595715753838"><ele>34.0</ele><time>2026-04-24T08:16:32.999Z</time></trkpt><trkpt lat="40.99105023353218" lon="14.152723237798774"><ele>34.5</ele><time>2026-04-24T08:16:33.999Z</time></trkpt><trkpt lat="40.99098409786472" lon="14.152841430133085"><ele>35.0</ele><time>2026-04-24T08:16:34.999Z</time></trkpt><trkpt lat="40.990920799978205" lon="14.152960201528492"><ele>35.0</ele><time>2026-04-24T08:16:35.999Z</time></trkpt><trkpt lat="40.99085933933548" lon="14.153079143164446"><ele>35.0</ele><time>2026-04-24T08:16:36.999Z</time></trkpt><trkpt lat="40.990793092581164" lon="14.153207215406976"><ele>35.0</ele><time>2026-04-24T08:16:37.999Z</time></trkpt><trkpt lat="40.99073137014129" lon="14.153348534242337"><ele>35.0</ele><time>2026-04-24T08:16:38.999Z</time></trkpt><trkpt lat="40.990653880756305" lon="14.15346273683195"><ele>34.75</ele><time>2026-04-24T08:16:39.999Z</time></trkpt><trkpt lat="40.99058590586869" lon="14.153589007816834"><ele>34.5</ele><time>2026-04-24T08:16:40.999Z</time></trkpt><trkpt lat="40.99051494596559" lon="14.153719107267232"><ele>34.25</ele><time>2026-04-24T08:16:41.999Z</time></trkpt><trkpt lat="40.9904403301049" lon="14.153862299241347"><ele>34.0</ele><time>2026-04-24T08:16:42.999Z</time></trkpt><trkpt lat="40.990365981157495" lon="14.154001939643281"><ele>34.0</ele><time>2026-04-24T08:16:43.999Z</time></trkpt><trkpt lat="40.990288705595944" lon="14.154153561197234"><ele>34.0</ele><time>2026-04-24T08:16:44.999Z</time></trkpt><trkpt lat="40.990205108618646" lon="14.154307059324172"><ele>34.0</ele><time>2026-04-24T08:16:45.999Z</time></trkpt><trkpt lat="40.9901217544906" lon="14.154452777531588"><ele>34.0</ele><time>2026-04-24T08:16:46.999Z</time></trkpt><trkpt lat="40.99003437666751" lon="14.154598047875183"><ele>34.0</ele><time>2026-04-24T08:16:47.998Z</time></trkpt><trkpt lat="40.98995238794288" lon="14.154746133973095"><ele>34.0</ele><time>2026-04-24T08:16:48.998Z</time></trkpt><trkpt lat="40.989869984162354" lon="14.154890917021458"><ele>34.0</ele><time>2026-04-24T08:16:49.998Z</time></trkpt><trkpt lat="40.98970881675383" lon="14.15517440087684"><ele>34.0</ele><time>2026-04-24T08:16:51.998Z</time></trkpt><trkpt lat="40.989629091645504" lon="14.15531276507923"><ele>34.0</ele><time>2026-04-24T08:16:52.998Z</time></trkpt><trkpt lat="40.98955199949551" lon="14.155449450721772"><ele>34.0</ele><time>2026-04-24T08:16:53.998Z</time></trkpt><trkpt lat="40.98947565922688" lon="14.155585906198803"><ele>34.0</ele><time>2026-04-24T08:16:54.998Z</time></trkpt><trkpt lat="40.989400864389616" lon="14.155722854442123"><ele>34.0</ele><time>2026-04-24T08:16:55.998Z</time></trkpt><trkpt lat="40.98932205605845" lon="14.155869412112368"><ele>34.0</ele><time>2026-04-24T08:16:56.998Z</time></trkpt><trkpt lat="40.989237870186265" lon="14.156026454184143"><ele>34.0</ele><time>2026-04-24T08:16:57.998Z</time></trkpt><trkpt lat="40.98914733411348" lon="14.156191403162847"><ele>34.0</ele><time>2026-04-24T08:16:58.998Z</time></trkpt><trkpt lat="40.9890676132923" lon="14.156348644005249"><ele>34.25</ele><time>2026-04-24T08:16:59.998Z</time></trkpt><trkpt lat="40.98897718488389" lon="14.156495172043638"><ele>34.5</ele><time>2026-04-24T08:17:00.998Z</time></trkpt><trkpt lat="40.98889945817511" lon="14.156629299427888"><ele>34.75</ele><time>2026-04-24T08:17:01.998Z</time></trkpt><trkpt lat="40.98882962998857" lon="14.156756681072572"><ele>35.0</ele><time>2026-04-24T08:17:02.998Z</time></trkpt><trkpt lat="40.98876929107542" lon="14.156871453228225"><ele>35.0</ele><time>2026-04-24T08:17:03.998Z</time></trkpt><trkpt lat="40.98871073954209" lon="14.156980483702302"><ele>35.0</ele><time>2026-04-24T08:17:04.998Z</time></trkpt><trkpt lat="40.98865619394993" lon="14.157077704344339"><ele>35.0</ele><time>2026-04-24T08:17:05.998Z</time></trkpt><trkpt lat="40.988604569540826" lon="14.157158071785101"><ele>35.0</ele><time>2026-04-24T08:17:06.998Z</time></trkpt><trkpt lat="40.98856615249072" lon="14.157227571598833"><ele>35.0</ele><time>2026-04-24T08:17:07.998Z</time></trkpt><trkpt lat="40.98848387005644" lon="14.157307342374423"><ele>35.0</ele><time>2026-04-24T08:17:09.998Z</time></trkpt><trkpt lat="40.9884451578031" lon="14.157392798305082"><ele>35.2</ele><time>2026-04-24T08:17:11.998Z</time></trkpt><trkpt lat="40.988620876341635" lon="14.15742166573989"><ele>35.4</ele><time>2026-04-24T08:17:15.998Z</time></trkpt><trkpt lat="40.988705246534806" lon="14.157404974469975"><ele>35.6</ele><time>2026-04-24T08:17:16.998Z</time></trkpt><trkpt lat="40.98877833936116" lon="14.157401819035899"><ele>35.8</ele><time>2026-04-24T08:17:17.998Z</time></trkpt><trkpt lat="40.988889351143605" lon="14.157396340623848"><ele>36.0</ele><time>2026-04-24T08:17:18.999Z</time></trkpt><trkpt lat="40.988995318511606" lon="14.157399387140321"><ele>36.0</ele><time>2026-04-24T08:17:19.999Z</time></trkpt><trkpt lat="40.989124292584144" lon="14.157400538477079"><ele>36.0</ele><time>2026-04-24T08:17:20.999Z</time></trkpt><trkpt lat="40.98924801896731" lon="14.157396324282074"><ele>36.0</ele><time>2026-04-24T08:17:21.999Z</time></trkpt><trkpt lat="40.98937663690002" lon="14.15739441175419"><ele>36.0</ele><time>2026-04-24T08:17:22.999Z</time></trkpt><trkpt lat="40.98951582885719" lon="14.157397899541264"><ele>35.75</ele><time>2026-04-24T08:17:23.999Z</time></trkpt><trkpt lat="40.989651087507724" lon="14.157399882394762"><ele>35.5</ele><time>2026-04-24T08:17:24.999Z</time></trkpt><trkpt lat="40.98978492419122" lon="14.157400657322047"><ele>35.25</ele><time>2026-04-24T08:17:25.999Z</time></trkpt><trkpt lat="40.989919813502546" lon="14.157397736301245"><ele>35.0</ele><time>2026-04-24T08:17:26.999Z</time></trkpt><trkpt lat="40.990050703636165" lon="14.157395635670927"><ele>34.5</ele><time>2026-04-24T08:17:27.999Z</time></trkpt><trkpt lat="40.99017280045526" lon="14.157393423008465"><ele>34.0</ele><time>2026-04-24T08:17:29Z</time></trkpt><trkpt lat="40.99029789466098" lon="14.157391006023236"><ele>33.5</ele><time>2026-04-24T08:17:30Z</time></trkpt><trkpt lat="40.99041598181577" lon="14.157390933415689"><ele>33.0</ele><time>2026-04-24T08:17:31Z</time></trkpt><trkpt lat="40.990536565245186" lon="14.157388049268107"><ele>33.0</ele><time>2026-04-24T08:17:32Z</time></trkpt><trkpt lat="40.990642234152666" lon="14.157392136434925"><ele>33.0</ele><time>2026-04-24T08:17:33Z</time></trkpt><trkpt lat="40.990743063656254" lon="14.157394707153015"><ele>33.0</ele><time>2026-04-24T08:17:34Z</time></trkpt><trkpt lat="40.9908443018929" lon="14.157392993102627"><ele>33.0</ele><time>2026-04-24T08:17:35Z</time></trkpt><trkpt lat="40.99094392626337" lon="14.157391448950357"><ele>33.0</ele><time>2026-04-24T08:17:36Z</time></trkpt><trkpt lat="40.99103922256575" lon="14.157389476846998"><ele>33.0</ele><time>2026-04-24T08:17:37Z</time></trkpt><trkpt lat="40.99112951852922" lon="14.157390615723394"><ele>33.0</ele><time>2026-04-24T08:17:38Z</time></trkpt><trkpt lat="40.99121474843464" lon="14.157389664429834"><ele>33.0</ele><time>2026-04-24T08:17:39Z</time></trkpt><trkpt lat="40.99134845968828" lon="14.157391268054502"><ele>33.0</ele><time>2026-04-24T08:17:41Z</time></trkpt><trkpt lat="40.991427597289345" lon="14.15739001043766"><ele>33.0</ele><time>2026-04-24T08:17:42Z</time></trkpt><trkpt lat="40.99149989380013" lon="14.157402283347539"><ele>33.0</ele><time>2026-04-24T08:17:43Z</time></trkpt><trkpt lat="40.99158695855993" lon="14.157504224834815"><ele>33.0</ele><time>2026-04-24T08:17:44.999Z</time></trkpt><trkpt lat="40.99168112055824" lon="14.157467726870742"><ele>33.0</ele><time>2026-04-24T08:17:45.999Z</time></trkpt><trkpt lat="40.99174720938495" lon="14.157467088802338"><ele>33.0</ele><time>2026-04-24T08:17:46.999Z</time></trkpt><trkpt lat="40.991824358991416" lon="14.15746634395163"><ele>33.0</ele><time>2026-04-24T08:17:47.999Z</time></trkpt><trkpt lat="40.9919253706173" lon="14.157465557827592"><ele>33.0</ele><time>2026-04-24T08:17:48.999Z</time></trkpt><trkpt lat="40.99202049403163" lon="14.157464899488163"><ele>33.0</ele><time>2026-04-24T08:17:49.999Z</time></trkpt><trkpt lat="40.992120237714055" lon="14.157464517100788"><ele>33.0</ele><time>2026-04-24T08:17:50.999Z</time></trkpt><trkpt lat="40.99221418211403" lon="14.157464156951619"><ele>33.0</ele><time>2026-04-24T08:17:51.999Z</time></trkpt><trkpt lat="40.992317910634775" lon="14.157443792019656"><ele>33.0</ele><time>2026-04-24T08:17:52.999Z</time></trkpt><trkpt lat="40.99242285952124" lon="14.157441866268087"><ele>32.8</ele><time>2026-04-24T08:17:53.999Z</time></trkpt><trkpt lat="40.99252340795276" lon="14.157439922671019"><ele>32.599999999999994</ele><time>2026-04-24T08:17:54.999Z</time></trkpt><trkpt lat="40.99262599823254" lon="14.157445226713659"><ele>32.400000000000006</ele><time>2026-04-24T08:17:55.999Z</time></trkpt><trkpt lat="40.99273389510631" lon="14.157444659533807"><ele>32.2</ele><time>2026-04-24T08:17:56.999Z</time></trkpt><trkpt lat="40.992836841015105" lon="14.157467555223189"><ele>32.0</ele><time>2026-04-24T08:17:57.999Z</time></trkpt><trkpt lat="40.992927630582585" lon="14.1574683120745"><ele>31.999999999999996</ele><time>2026-04-24T08:17:58.999Z</time></trkpt><trkpt lat="40.99301355767471" lon="14.157452576010618"><ele>32.0</ele><time>2026-04-24T08:17:59.999Z</time></trkpt><trkpt lat="40.99309352851421" lon="14.157453589389574"><ele>32.0</ele><time>2026-04-24T08:18:00.999Z</time></trkpt><trkpt lat="40.993174933866804" lon="14.15745143595466"><ele>32.0</ele><time>2026-04-24T08:18:01.999Z</time></trkpt><trkpt lat="40.9932556629649" lon="14.157452244685464"><ele>31.999999999999996</ele><time>2026-04-24T08:18:02.999Z</time></trkpt><trkpt lat="40.99333176836216" lon="14.157450766705908"><ele>32.0</ele><time>2026-04-24T08:18:03.999Z</time></trkpt><trkpt lat="40.99348130979257" lon="14.15746131219481"><ele>31.999999999999996</ele><time>2026-04-24T08:18:05.999Z</time></trkpt><trkpt lat="40.9935542429258" lon="14.157503500805925"><ele>32.0</ele><time>2026-04-24T08:18:06.999Z</time></trkpt><trkpt lat="40.99363084840803" lon="14.157531462976445"><ele>32.0</ele><time>2026-04-24T08:18:07.999Z</time></trkpt><trkpt lat="40.99369113889337" lon="14.157567007319583"><ele>32.0</ele><time>2026-04-24T08:18:08.999Z</time></trkpt><trkpt lat="40.99377236526144" lon="14.157609638645503"><ele>31.999999999999996</ele><time>2026-04-24T08:18:09.999Z</time></trkpt><trkpt lat="40.993862754997316" lon="14.157633581872417"><ele>32.0</ele><time>2026-04-24T08:18:10.999Z</time></trkpt><trkpt lat="40.99395414629134" lon="14.157648558335014"><ele>31.999999999999996</ele><time>2026-04-24T08:18:11.999Z</time></trkpt><trkpt lat="40.99404606845974" lon="14.1576482179577"><ele>32.0</ele><time>2026-04-24T08:18:12.999Z</time></trkpt><trkpt lat="40.994121159899834" lon="14.157670720498373"><ele>32.0</ele><time>2026-04-24T08:18:13.999Z</time></trkpt><trkpt lat="40.99419229093795" lon="14.157658468779058"><ele>32.0</ele><time>2026-04-24T08:18:14.999Z</time></trkpt><trkpt lat="40.99425777513762" lon="14.157671536766648"><ele>31.999999999999996</ele><time>2026-04-24T08:18:15.999Z</time></trkpt><trkpt lat="40.99437206542275" lon="14.157675102187515"><ele>32.0</ele><time>2026-04-24T08:18:17.999Z</time></trkpt><trkpt lat="40.99446843582425" lon="14.15768120338172"><ele>31.833333333333332</ele><time>2026-04-24T08:18:19.999Z</time></trkpt><trkpt lat="40.99453945845169" lon="14.157694344759172"><ele>31.666666666666664</ele><time>2026-04-24T08:18:21.999Z</time></trkpt><trkpt lat="40.99460531699596" lon="14.157718492483843"><ele>31.5</ele><time>2026-04-24T08:18:24.999Z</time></trkpt><trkpt lat="40.994670472393544" lon="14.157725172391752"><ele>31.333333333333336</ele><time>2026-04-24T08:19:08.998Z</time></trkpt><trkpt lat="40.994598080175344" lon="14.15771576051372"><ele>31.166666666666668</ele><time>2026-04-24T08:19:32Z</time></trkpt><trkpt lat="40.99453235272081" lon="14.157708853974421"><ele>31.0</ele><time>2026-04-24T08:19:37Z</time></trkpt><trkpt lat="40.99452238803459" lon="14.15790457001986"><ele>31.0</ele><time>2026-04-24T08:19:39Z</time></trkpt><trkpt lat="40.99452157443871" lon="14.158026349173129"><ele>31.0</ele><time>2026-04-24T08:19:41Z</time></trkpt><trkpt lat="40.994508508327456" lon="14.158156686314914"><ele>31.0</ele><time>2026-04-24T08:19:43Z</time></trkpt><trkpt lat="40.99449676023813" lon="14.158289768021033"><ele>31.0</ele><time>2026-04-24T08:19:45Z</time></trkpt><trkpt lat="40.994482296412095" lon="14.158406073565846"><ele>31.0</ele><time>2026-04-24T08:19:47Z</time></trkpt><trkpt lat="40.99446362694145" lon="14.158528318603985"><ele>30.8</ele><time>2026-04-24T08:19:49Z</time></trkpt><trkpt lat="40.99442455677908" lon="14.158652872052647"><ele>30.6</ele><time>2026-04-24T08:19:51Z</time></trkpt><trkpt lat="40.99439009761175" lon="14.158785069173623"><ele>30.4</ele><time>2026-04-24T08:19:53Z</time></trkpt><trkpt lat="40.99434671770602" lon="14.15890164408257"><ele>30.2</ele><time>2026-04-24T08:19:55Z</time></trkpt><trkpt lat="40.99433268161443" lon="14.159021992127968"><ele>30.0</ele><time>2026-04-24T08:19:57Z</time></trkpt><trkpt lat="40.99431715005063" lon="14.159150711113586"><ele>30.4</ele><time>2026-04-24T08:19:59Z</time></trkpt><trkpt lat="40.9942906925908" lon="14.159268436697065"><ele>30.8</ele><time>2026-04-24T08:20:00.999Z</time></trkpt><trkpt lat="40.99427075258519" lon="14.15939603214706"><ele>31.200000000000003</ele><time>2026-04-24T08:20:02.999Z</time></trkpt><trkpt lat="40.994253691732176" lon="14.159510485489596"><ele>31.6</ele><time>2026-04-24T08:20:04.999Z</time></trkpt><trkpt lat="40.994273595429185" lon="14.159397100014477"><ele>32.0</ele><time>2026-04-24T08:20:35.999Z</time></trkpt><trkpt lat="40.99429590652406" lon="14.15929121744992"><ele>31.999999999999996</ele><time>2026-04-24T08:20:37.999Z</time></trkpt><trkpt lat="40.99432023197056" lon="14.159165243888085"><ele>32.0</ele><time>2026-04-24T08:20:39.999Z</time></trkpt><trkpt lat="40.994330012080134" lon="14.159081633597713"><ele>32.0</ele><time>2026-04-24T08:20:40.999Z</time></trkpt><trkpt lat="40.99434588388618" lon="14.15898646752311"><ele>32.0</ele><time>2026-04-24T08:20:41.999Z</time></trkpt><trkpt lat="40.994375337874224" lon="14.15884302956723"><ele>31.999999999999996</ele><time>2026-04-24T08:20:43.999Z</time></trkpt><trkpt lat="40.994415091298045" lon="14.158732326945534"><ele>32.0</ele><time>2026-04-24T08:20:45.999Z</time></trkpt><trkpt lat="40.994451595594214" lon="14.158617592305323"><ele>31.8</ele><time>2026-04-24T08:20:47.999Z</time></trkpt><trkpt lat="40.99448243651218" lon="14.158488953000557"><ele>31.6</ele><time>2026-04-24T08:20:49.999Z</time></trkpt><trkpt lat="40.99450243652196" lon="14.158347043685733"><ele>31.400000000000002</ele><time>2026-04-24T08:20:51.999Z</time></trkpt><trkpt lat="40.99452482909406" lon="14.15821295615057"><ele>31.200000000000003</ele><time>2026-04-24T08:20:53.999Z</time></trkpt><trkpt lat="40.99454938875284" lon="14.158075771545008"><ele>31.0</ele><time>2026-04-24T08:20:55.999Z</time></trkpt><trkpt lat="40.99455507233098" lon="14.157968765976687"><ele>31.000000000000004</ele><time>2026-04-24T08:20:57.999Z</time></trkpt><trkpt lat="40.9945439221785" lon="14.157853469457944"><ele>31.0</ele><time>2026-04-24T08:20:59.999Z</time></trkpt><trkpt lat="40.99456958911797" lon="14.15776042814921"><ele>31.0</ele><time>2026-04-24T08:21:03.999Z</time></trkpt><trkpt lat="40.994500048564404" lon="14.157685683918132"><ele>31.0</ele><time>2026-04-24T08:21:11.998Z</time></trkpt><trkpt lat="40.9944316702901" lon="14.157686836084787"><ele>31.000000000000004</ele><time>2026-04-24T08:21:12.998Z</time></trkpt><trkpt lat="40.99433723155879" lon="14.157648256299364"><ele>31.0</ele><time>2026-04-24T08:21:14.998Z</time></trkpt><trkpt lat="40.99425703983412" lon="14.157655494614358"><ele>31.0</ele><time>2026-04-24T08:21:17.998Z</time></trkpt><trkpt lat="40.99418560283021" lon="14.157637512381644"><ele>31.0</ele><time>2026-04-24T08:21:19.998Z</time></trkpt><trkpt lat="40.994095596381314" lon="14.157642336477183"><ele>31.0</ele><time>2026-04-24T08:21:21.998Z</time></trkpt><trkpt lat="40.99398679442541" lon="14.157608696863461"><ele>31.0</ele><time>2026-04-24T08:21:23.998Z</time></trkpt><trkpt lat="40.99386925554013" lon="14.157613180735062"><ele>31.0</ele><time>2026-04-24T08:21:25.998Z</time></trkpt><trkpt lat="40.993800974297116" lon="14.157573994503453"><ele>31.166666666666668</ele><time>2026-04-24T08:21:26.998Z</time></trkpt><trkpt lat="40.99372660372454" lon="14.157544380742092"><ele>31.333333333333336</ele><time>2026-04-24T08:21:27.998Z</time></trkpt><trkpt lat="40.99365841742482" lon="14.157496984950182"><ele>31.5</ele><time>2026-04-24T08:21:28.998Z</time></trkpt><trkpt lat="40.99358242513158" lon="14.157465295238763"><ele>31.666666666666664</ele><time>2026-04-24T08:21:30Z</time></trkpt><trkpt lat="40.99350125293093" lon="14.15743914964159"><ele>31.833333333333332</ele><time>2026-04-24T08:21:31Z</time></trkpt><trkpt lat="40.993407431218344" lon="14.157422836439336"><ele>32.0</ele><time>2026-04-24T08:21:32Z</time></trkpt><trkpt lat="40.99330829533151" lon="14.157418910511064"><ele>31.999999999999996</ele><time>2026-04-24T08:21:33Z</time></trkpt><trkpt lat="40.993224013380356" lon="14.157419713956694"><ele>32.0</ele><time>2026-04-24T08:21:34Z</time></trkpt><trkpt lat="40.9931443464863" lon="14.157430949701943"><ele>32.0</ele><time>2026-04-24T08:21:35Z</time></trkpt><trkpt lat="40.993058450204174" lon="14.15742215546651"><ele>32.0</ele><time>2026-04-24T08:21:36Z</time></trkpt><trkpt lat="40.992973750806655" lon="14.157423567564821"><ele>31.999999999999996</ele><time>2026-04-24T08:21:37Z</time></trkpt><trkpt lat="40.992891068795466" lon="14.157446423918302"><ele>32.0</ele><time>2026-04-24T08:21:38Z</time></trkpt><trkpt lat="40.992804439126495" lon="14.157436235194286"><ele>32.0</ele><time>2026-04-24T08:21:39Z</time></trkpt><trkpt lat="40.99271173627817" lon="14.157428967020422"><ele>32.0</ele><time>2026-04-24T08:21:40Z</time></trkpt><trkpt lat="40.992609523177954" lon="14.157431129313604"><ele>32.0</ele><time>2026-04-24T08:21:41Z</time></trkpt><trkpt lat="40.99250162094119" lon="14.157436420334955"><ele>32.0</ele><time>2026-04-24T08:21:42Z</time></trkpt><trkpt lat="40.9923822157222" lon="14.157435183534512"><ele>32.0</ele><time>2026-04-24T08:21:43Z</time></trkpt><trkpt lat="40.99225625234356" lon="14.157420024960027"><ele>32.2</ele><time>2026-04-24T08:21:44Z</time></trkpt><trkpt lat="40.99213547676772" lon="14.157420487975005"><ele>32.400000000000006</ele><time>2026-04-24T08:21:45Z</time></trkpt><trkpt lat="40.99203508591175" lon="14.157420872841588"><ele>32.599999999999994</ele><time>2026-04-24T08:21:46Z</time></trkpt><trkpt lat="40.99194664540084" lon="14.157421419387365"><ele>32.8</ele><time>2026-04-24T08:21:47Z</time></trkpt><trkpt lat="40.99187606324324" lon="14.157434696226503"><ele>33.0</ele><time>2026-04-24T08:21:48Z</time></trkpt><trkpt lat="40.991805907101416" lon="14.15742570662175"><ele>33.0</ele><time>2026-04-24T08:21:49Z</time></trkpt><trkpt lat="40.99169749933067" lon="14.157431055272239"><ele>33.0</ele><time>2026-04-24T08:21:51Z</time></trkpt><trkpt lat="40.99161505507112" lon="14.157441544410814"><ele>33.0</ele><time>2026-04-24T08:21:54Z</time></trkpt><trkpt lat="40.99166510843581" lon="14.157795858793957"><ele>33.0</ele><time>2026-04-24T08:22:36.999Z</time></trkpt><trkpt lat="40.99170552933771" lon="14.157914001326793"><ele>33.0</ele><time>2026-04-24T08:22:37.999Z</time></trkpt><trkpt lat="40.991731132591994" lon="14.158018411802205"><ele>33.0</ele><time>2026-04-24T08:22:38.999Z</time></trkpt><trkpt lat="40.99175308594868" lon="14.158130298156404"><ele>33.0</ele><time>2026-04-24T08:22:39.999Z</time></trkpt><trkpt lat="40.99176973789979" lon="14.158252118411937"><ele>33.0</ele><time>2026-04-24T08:22:40.999Z</time></trkpt><trkpt lat="40.9917765338703" lon="14.158393588101367"><ele>33.199999999999996</ele><time>2026-04-24T08:22:41.999Z</time></trkpt><trkpt lat="40.991772900901" lon="14.15853489998155"><ele>33.4</ele><time>2026-04-24T08:22:42.999Z</time></trkpt><trkpt lat="40.99177113383826" lon="14.158676968335111"><ele>33.599999999999994</ele><time>2026-04-24T08:22:43.999Z</time></trkpt><trkpt lat="40.99177009100083" lon="14.158827936610999"><ele>33.8</ele><time>2026-04-24T08:22:44.999Z</time></trkpt><trkpt lat="40.991771388596305" lon="14.158981354869278"><ele>34.0</ele><time>2026-04-24T08:22:45.999Z</time></trkpt><trkpt lat="40.99177175637591" lon="14.15913700259188"><ele>33.333333333333336</ele><time>2026-04-24T08:22:46.999Z</time></trkpt><trkpt lat="40.991768253134815" lon="14.15944474983902"><ele>32.666666666666664</ele><time>2026-04-24T08:22:48.999Z</time></trkpt><trkpt lat="40.99176334321159" lon="14.159598397890017"><ele>32.0</ele><time>2026-04-24T08:22:49.999Z</time></trkpt><trkpt lat="40.99175716201567" lon="14.159754673882118"><ele>32.25</ele><time>2026-04-24T08:22:50.999Z</time></trkpt><trkpt lat="40.99174927116169" lon="14.159917253625103"><ele>32.5</ele><time>2026-04-24T08:22:51.999Z</time></trkpt><trkpt lat="40.99174243355144" lon="14.160078464556419"><ele>32.75</ele><time>2026-04-24T08:22:52.999Z</time></trkpt><trkpt lat="40.99174030977593" lon="14.16023247071388"><ele>33.0</ele><time>2026-04-24T08:22:53.999Z</time></trkpt><trkpt lat="40.99174510927458" lon="14.160389574578131"><ele>33.0</ele><time>2026-04-24T08:22:54.999Z</time></trkpt><trkpt lat="40.991749150355695" lon="14.160551258670663"><ele>33.0</ele><time>2026-04-24T08:22:55.999Z</time></trkpt><trkpt lat="40.99174122324838" lon="14.16071107886056"><ele>33.0</ele><time>2026-04-24T08:22:56.999Z</time></trkpt><trkpt lat="40.991736807299255" lon="14.160869771049379"><ele>33.0</ele><time>2026-04-24T08:22:57.999Z</time></trkpt><trkpt lat="40.991730768029434" lon="14.161026272186767"><ele>33.0</ele><time>2026-04-24T08:22:58.999Z</time></trkpt><trkpt lat="40.991726502360535" lon="14.161179525928317"><ele>33.0</ele><time>2026-04-24T08:22:59.999Z</time></trkpt><trkpt lat="40.991722789821694" lon="14.161334275476808"><ele>33.0</ele><time>2026-04-24T08:23:00.999Z</time></trkpt><trkpt lat="40.991719403007835" lon="14.161488090770407"><ele>33.0</ele><time>2026-04-24T08:23:01.999Z</time></trkpt><trkpt lat="40.99171864805997" lon="14.161637433924595"><ele>32.8</ele><time>2026-04-24T08:23:02.999Z</time></trkpt><trkpt lat="40.9917171358674" lon="14.161772787890225"><ele>32.599999999999994</ele><time>2026-04-24T08:23:03.999Z</time></trkpt><trkpt lat="40.99171211306471" lon="14.161891896737732"><ele>32.400000000000006</ele><time>2026-04-24T08:23:04.999Z</time></trkpt><trkpt lat="40.9916963778443" lon="14.16200488768242"><ele>32.2</ele><time>2026-04-24T08:23:05.999Z</time></trkpt><trkpt lat="40.99165698610987" lon="14.162114697720774"><ele>32.0</ele><time>2026-04-24T08:23:06.999Z</time></trkpt><trkpt lat="40.991591037294384" lon="14.162217057177314"><ele>32.0</ele><time>2026-04-24T08:23:07.999Z</time></trkpt><trkpt lat="40.99151673671163" lon="14.162317511212615"><ele>32.0</ele><time>2026-04-24T08:23:08.999Z</time></trkpt><trkpt lat="40.991449649633594" lon="14.162430735173208"><ele>32.0</ele><time>2026-04-24T08:23:09.999Z</time></trkpt><trkpt lat="40.99140122769045" lon="14.162551391550645"><ele>32.0</ele><time>2026-04-24T08:23:10.999Z</time></trkpt><trkpt lat="40.991357485427606" lon="14.162690961003511"><ele>32.0</ele><time>2026-04-24T08:23:11.999Z</time></trkpt><trkpt lat="40.9913291154445" lon="14.16283732394244"><ele>32.0</ele><time>2026-04-24T08:23:12.999Z</time></trkpt><trkpt lat="40.99131577751869" lon="14.162993088148145"><ele>32.0</ele><time>2026-04-24T08:23:13.999Z</time></trkpt><trkpt lat="40.99131293051786" lon="14.163156088117017"><ele>32.0</ele><time>2026-04-24T08:23:14.999Z</time></trkpt><trkpt lat="40.991325622788956" lon="14.163320031152152"><ele>32.0</ele><time>2026-04-24T08:23:15.999Z</time></trkpt><trkpt lat="40.9913185212449" lon="14.16349619602178"><ele>32.0</ele><time>2026-04-24T08:23:16.999Z</time></trkpt><trkpt lat="40.9913282635168" lon="14.163683344171114"><ele>32.0</ele><time>2026-04-24T08:23:17.999Z</time></trkpt><trkpt lat="40.991354916382186" lon="14.164062852218647"><ele>32.0</ele><time>2026-04-24T08:23:19.999Z</time></trkpt><trkpt lat="40.99135936621115" lon="14.164241065126273"><ele>31.8</ele><time>2026-04-24T08:23:20.998Z</time></trkpt><trkpt lat="40.99136451001658" lon="14.164403969445747"><ele>31.6</ele><time>2026-04-24T08:23:21.998Z</time></trkpt><trkpt lat="40.99136892604892" lon="14.164553328414781"><ele>31.400000000000002</ele><time>2026-04-24T08:23:22.998Z</time></trkpt><trkpt lat="40.99137410820528" lon="14.164693203545417"><ele>31.200000000000003</ele><time>2026-04-24T08:23:23.998Z</time></trkpt><trkpt lat="40.991378119424525" lon="14.16482705990966"><ele>31.0</ele><time>2026-04-24T08:23:24.998Z</time></trkpt><trkpt lat="40.99136779518128" lon="14.164951162776749"><ele>31.28571428571429</ele><time>2026-04-24T08:23:25.998Z</time></trkpt><trkpt lat="40.99135145411743" lon="14.16506753934012"><ele>31.571428571428577</ele><time>2026-04-24T08:23:26.998Z</time></trkpt><trkpt lat="40.9913312776552" lon="14.16517323409206"><ele>31.857142857142858</ele><time>2026-04-24T08:23:27.998Z</time></trkpt><trkpt lat="40.99131014866224" lon="14.16526539208896"><ele>32.142857142857146</ele><time>2026-04-24T08:23:28.998Z</time></trkpt><trkpt lat="40.99127978855245" lon="14.165347054972793"><ele>32.42857142857143</ele><time>2026-04-24T08:23:29.998Z</time></trkpt><trkpt lat="40.991247509871556" lon="14.165426972875752"><ele>32.714285714285715</ele><time>2026-04-24T08:23:30.998Z</time></trkpt><trkpt lat="40.99121478079836" lon="14.165502396567751"><ele>33.0</ele><time>2026-04-24T08:23:31.998Z</time></trkpt><trkpt lat="40.991162100741484" lon="14.165597454599945"><ele>33.0</ele><time>2026-04-24T08:23:33.998Z</time></trkpt><trkpt lat="40.99108578966831" lon="14.165551833867658"><ele>33.0</ele><time>2026-04-24T08:23:36.999Z</time></trkpt><trkpt lat="40.991015241060566" lon="14.16554834998929"><ele>33.0</ele><time>2026-04-24T08:23:39.999Z</time></trkpt><trkpt lat="40.990946023808" lon="14.16554493184635"><ele>33.0</ele><time>2026-04-24T08:23:41.999Z</time></trkpt><trkpt lat="40.99101699922674" lon="14.165548436820377"><ele>33.0</ele><time>2026-04-24T08:25:37.998Z</time></trkpt><trkpt lat="40.99110087172644" lon="14.165552578659709"><ele>33.0</ele><time>2026-04-24T08:25:40.998Z</time></trkpt><trkpt lat="40.99116871189301" lon="14.165585999004895"><ele>33.0</ele><time>2026-04-24T08:26:15.999Z</time></trkpt><trkpt lat="40.99121428381692" lon="14.16550695391528"><ele>33.0</ele><time>2026-04-24T08:26:17.999Z</time></trkpt><trkpt lat="40.991247400813386" lon="14.165386886877464"><ele>33.0</ele><time>2026-04-24T08:26:19.999Z</time></trkpt><trkpt lat="40.99128647933615" lon="14.165290583508453"><ele>33.0</ele><time>2026-04-24T08:26:21.999Z</time></trkpt><trkpt lat="40.99133157834708" lon="14.165215153532952"><ele>33.0</ele><time>2026-04-24T08:26:23.999Z</time></trkpt><trkpt lat="40.991536380850974" lon="14.165339736888205"><ele>33.0</ele><time>2026-04-24T08:26:24.999Z</time></trkpt><trkpt lat="40.991604314849766" lon="14.165337178038632"><ele>33.0</ele><time>2026-04-24T08:26:25.999Z</time></trkpt><trkpt lat="40.99168016592032" lon="14.16533432090317"><ele>33.0</ele><time>2026-04-24T08:26:26.999Z</time></trkpt><trkpt lat="40.99176925588343" lon="14.165330965069252"><ele>33.0</ele><time>2026-04-24T08:26:27.999Z</time></trkpt><trkpt lat="40.99187296972093" lon="14.165327138627354"><ele>33.0</ele><time>2026-04-24T08:26:28.999Z</time></trkpt><trkpt lat="40.99197600510691" lon="14.16532335734126"><ele>33.0</ele><time>2026-04-24T08:26:29.999Z</time></trkpt><trkpt lat="40.992088921552536" lon="14.165319213433675"><ele>33.0</ele><time>2026-04-24T08:26:30.999Z</time></trkpt><trkpt lat="40.99220768368182" lon="14.165314854985969"><ele>33.0</ele><time>2026-04-24T08:26:31.999Z</time></trkpt><trkpt lat="40.99231920799108" lon="14.165296709493616"><ele>33.0</ele><time>2026-04-24T08:26:32.999Z</time></trkpt><trkpt lat="40.992439151369425" lon="14.16529700989685"><ele>33.0</ele><time>2026-04-24T08:26:33.999Z</time></trkpt><trkpt lat="40.9925544586117" lon="14.165290276931367"><ele>33.0</ele><time>2026-04-24T08:26:34.999Z</time></trkpt><trkpt lat="40.99265914470182" lon="14.165289563261327"><ele>33.0</ele><time>2026-04-24T08:26:35.999Z</time></trkpt><trkpt lat="40.99275115378358" lon="14.165287376164637"><ele>33.0</ele><time>2026-04-24T08:26:36.999Z</time></trkpt><trkpt lat="40.99283270041258" lon="14.16529036000347"><ele>33.0</ele><time>2026-04-24T08:26:37.999Z</time></trkpt><trkpt lat="40.99290524600697" lon="14.165292960977759"><ele>33.0</ele><time>2026-04-24T08:26:38.999Z</time></trkpt><trkpt lat="40.99296906095092" lon="14.165300734156949"><ele>33.0</ele><time>2026-04-24T08:26:39.999Z</time></trkpt><trkpt lat="40.993099571330184" lon="14.165317571081934"><ele>33.0</ele><time>2026-04-24T08:26:41.999Z</time></trkpt><trkpt lat="40.9931643893955" lon="14.165330565046768"><ele>33.0</ele><time>2026-04-24T08:26:42.999Z</time></trkpt><trkpt lat="40.99329016122296" lon="14.165357424074848"><ele>33.0</ele><time>2026-04-24T08:26:44.999Z</time></trkpt><trkpt lat="40.993404929855586" lon="14.165395305092572"><ele>33.0</ele><time>2026-04-24T08:26:46.999Z</time></trkpt><trkpt lat="40.99353823648832" lon="14.16542205504174"><ele>33.0</ele><time>2026-04-24T08:26:48.999Z</time></trkpt><trkpt lat="40.993661108409405" lon="14.165431665347171"><ele>33.166666666666664</ele><time>2026-04-24T08:26:50.999Z</time></trkpt><trkpt lat="40.99372975645276" lon="14.16543152011797"><ele>33.333333333333336</ele><time>2026-04-24T08:26:51.999Z</time></trkpt><trkpt lat="40.99380165131429" lon="14.165433813891669"><ele>33.5</ele><time>2026-04-24T08:26:52.999Z</time></trkpt><trkpt lat="40.99387891795774" lon="14.16544232455079"><ele>33.66666666666667</ele><time>2026-04-24T08:26:53.999Z</time></trkpt><trkpt lat="40.99394227267397" lon="14.165430750867571"><ele>33.833333333333336</ele><time>2026-04-24T08:26:54.999Z</time></trkpt><trkpt lat="40.994064930852424" lon="14.165440153400267"><ele>34.0</ele><time>2026-04-24T08:26:56.999Z</time></trkpt><trkpt lat="40.994166378868876" lon="14.165442533661926"><ele>34.0</ele><time>2026-04-24T08:26:58.999Z</time></trkpt><trkpt lat="40.9942374056947" lon="14.165460547939205"><ele>34.0</ele><time>2026-04-24T08:27:00.999Z</time></trkpt><trkpt lat="40.99433138752321" lon="14.165463201211262"><ele>34.0</ele><time>2026-04-24T08:27:02.999Z</time></trkpt><trkpt lat="40.99443024581239" lon="14.165466188827544"><ele>34.0</ele><time>2026-04-24T08:27:04.999Z</time></trkpt><trkpt lat="40.994517784808885" lon="14.16544926571156"><ele>34.0</ele><time>2026-04-24T08:27:06.999Z</time></trkpt><trkpt lat="40.99458211296676" lon="14.165465688621305"><ele>34.0</ele><time>2026-04-24T08:27:08.999Z</time></trkpt><trkpt lat="40.9946356269191" lon="14.16553708917999"><ele>34.0</ele><time>2026-04-24T08:27:11.999Z</time></trkpt><trkpt lat="40.99463203926101" lon="14.1656258817849"><ele>34.0</ele><time>2026-04-24T08:27:13.999Z</time></trkpt><trkpt lat="40.99461755900082" lon="14.165728129915504"><ele>34.0</ele><time>2026-04-24T08:27:16.999Z</time></trkpt><trkpt lat="40.99472799556574" lon="14.165769776981275"><ele>34.0</ele><time>2026-04-24T08:27:18.999Z</time></trkpt><trkpt lat="40.994838664608444" lon="14.165773513691578"><ele>34.0</ele><time>2026-04-24T08:27:20.999Z</time></trkpt><trkpt lat="40.99491691929547" lon="14.165782870490931"><ele>34.0</ele><time>2026-04-24T08:27:22.999Z</time></trkpt><trkpt lat="40.99500306836041" lon="14.165811123966087"><ele>34.0</ele><time>2026-04-24T08:27:25.999Z</time></trkpt><trkpt lat="40.995086727568385" lon="14.165811892288398"><ele>34.0</ele><time>2026-04-24T08:27:30.999Z</time></trkpt><trkpt lat="40.995145621936025" lon="14.165656010664001"><ele>34.0</ele><time>2026-04-24T08:27:32.999Z</time></trkpt><trkpt lat="40.99516622971333" lon="14.165576481883365"><ele>34.0</ele><time>2026-04-24T08:27:33.999Z</time></trkpt><trkpt lat="40.99522593058183" lon="14.1654344708854"><ele>33.99999999999999</ele><time>2026-04-24T08:27:35.999Z</time></trkpt><trkpt lat="40.995252111779656" lon="14.165353402499775"><ele>34.0</ele><time>2026-04-24T08:27:36.999Z</time></trkpt><trkpt lat="40.99527858588048" lon="14.165271427198716"><ele>34.0</ele><time>2026-04-24T08:27:37.999Z</time></trkpt><trkpt lat="40.99530429841573" lon="14.165191807152707"><ele>34.0</ele><time>2026-04-24T08:27:38.999Z</time></trkpt><trkpt lat="40.99533062230715" lon="14.16511029418595"><ele>34.0</ele><time>2026-04-24T08:27:39.999Z</time></trkpt><trkpt lat="40.99535697621069" lon="14.165032359435836"><ele>33.99999999999999</ele><time>2026-04-24T08:27:40.998Z</time></trkpt><trkpt lat="40.995382126011414" lon="14.164955673752843"><ele>34.0</ele><time>2026-04-24T08:27:41.998Z</time></trkpt><trkpt lat="40.99539349966598" lon="14.164868896396426"><ele>34.2</ele><time>2026-04-24T08:27:42.998Z</time></trkpt><trkpt lat="40.99543289001122" lon="14.1648008864538"><ele>34.4</ele><time>2026-04-24T08:27:43.998Z</time></trkpt><trkpt lat="40.99548049810934" lon="14.16465572297501"><ele>34.6</ele><time>2026-04-24T08:27:45.998Z</time></trkpt><trkpt lat="40.99552468338419" lon="14.1645208334108"><ele>34.8</ele><time>2026-04-24T08:27:48Z</time></trkpt><trkpt lat="40.99556479010041" lon="14.164398412519173"><ele>35.0</ele><time>2026-04-24T08:27:50Z</time></trkpt><trkpt lat="40.99559228114256" lon="14.164314499687398"><ele>35.0</ele><time>2026-04-24T08:27:52Z</time></trkpt><trkpt lat="40.99561754992776" lon="14.164237369619482"><ele>35.0</ele><time>2026-04-24T08:27:54Z</time></trkpt><trkpt lat="40.995642948959976" lon="14.164159842687386"><ele>35.0</ele><time>2026-04-24T08:27:56Z</time></trkpt><trkpt lat="40.995675020674554" lon="14.164061952197244"><ele>35.0</ele><time>2026-04-24T08:27:58Z</time></trkpt><trkpt lat="40.99569786340583" lon="14.163920426441537"><ele>35.0</ele><time>2026-04-24T08:28:00Z</time></trkpt><trkpt lat="40.99572630972755" lon="14.163841179824452"><ele>35.0</ele><time>2026-04-24T08:28:01Z</time></trkpt><trkpt lat="40.99575376223504" lon="14.163757518376864"><ele>34.83333333333333</ele><time>2026-04-24T08:28:02Z</time></trkpt><trkpt lat="40.995779877140805" lon="14.163669816542951"><ele>34.666666666666664</ele><time>2026-04-24T08:28:03Z</time></trkpt><trkpt lat="40.99580952034795" lon="14.163579510978247"><ele>34.5</ele><time>2026-04-24T08:28:04Z</time></trkpt><trkpt lat="40.995860147994364" lon="14.163493709579186"><ele>34.333333333333336</ele><time>2026-04-24T08:28:05Z</time></trkpt><trkpt lat="40.99589197292019" lon="14.163396139715097"><ele>34.16666666666667</ele><time>2026-04-24T08:28:06Z</time></trkpt><trkpt lat="40.99592401834572" lon="14.163297893856956"><ele>34.0</ele><time>2026-04-24T08:28:07Z</time></trkpt><trkpt lat="40.99595699781128" lon="14.16319678428181"><ele>34.0</ele><time>2026-04-24T08:28:08Z</time></trkpt><trkpt lat="40.99598668208291" lon="14.163105777165693"><ele>34.0</ele><time>2026-04-24T08:28:09Z</time></trkpt><trkpt lat="40.9960131307698" lon="14.163024690679908"><ele>34.0</ele><time>2026-04-24T08:28:10Z</time></trkpt><trkpt lat="40.99605913466697" lon="14.162883313459533"><ele>34.0</ele><time>2026-04-24T08:28:12Z</time></trkpt><trkpt lat="40.996102999030896" lon="14.162748523453805"><ele>34.0</ele><time>2026-04-24T08:28:14Z</time></trkpt><trkpt lat="40.996146057099935" lon="14.162616211263725"><ele>34.0</ele><time>2026-04-24T08:28:16Z</time></trkpt><trkpt lat="40.9961730381247" lon="14.162533304764969"><ele>34.0</ele><time>2026-04-24T08:28:17Z</time></trkpt><trkpt lat="40.99619966415272" lon="14.162451105801537"><ele>34.0</ele><time>2026-04-24T08:28:18Z</time></trkpt><trkpt lat="40.9962293643671" lon="14.16235959459159"><ele>34.0</ele><time>2026-04-24T08:28:19Z</time></trkpt><trkpt lat="40.99626042772939" lon="14.162263883279754"><ele>34.0</ele><time>2026-04-24T08:28:20Z</time></trkpt><trkpt lat="40.99629276344066" lon="14.162164252904116"><ele>34.0</ele><time>2026-04-24T08:28:21Z</time></trkpt><trkpt lat="40.99632534395697" lon="14.162064985075594"><ele>34.0</ele><time>2026-04-24T08:28:22Z</time></trkpt><trkpt lat="40.996355160501125" lon="14.161973936681147"><ele>34.0</ele><time>2026-04-24T08:28:23Z</time></trkpt><trkpt lat="40.99638292356486" lon="14.161889158742294"><ele>34.0</ele><time>2026-04-24T08:28:24Z</time></trkpt><trkpt lat="40.996408193334815" lon="14.161812106863936"><ele>34.0</ele><time>2026-04-24T08:28:25Z</time></trkpt><trkpt lat="40.99644357102092" lon="14.161653421243482"><ele>34.0</ele><time>2026-04-24T08:28:27Z</time></trkpt><trkpt lat="40.996472873957615" lon="14.161573400755037"><ele>34.0</ele><time>2026-04-24T08:28:28Z</time></trkpt><trkpt lat="40.996511194915136" lon="14.161498077347181"><ele>33.333333333333336</ele><time>2026-04-24T08:28:29Z</time></trkpt><trkpt lat="40.996552495353555" lon="14.161371771745253"><ele>32.66666666666667</ele><time>2026-04-24T08:28:31Z</time></trkpt><trkpt lat="40.996578256832194" lon="14.161293708310847"><ele>32.0</ele><time>2026-04-24T08:28:33Z</time></trkpt><trkpt lat="40.9966124302512" lon="14.161190156814852"><ele>31.333333333333336</ele><time>2026-04-24T08:28:35Z</time></trkpt><trkpt lat="40.99665718693602" lon="14.161052046693861"><ele>30.666666666666668</ele><time>2026-04-24T08:28:37Z</time></trkpt><trkpt lat="40.996687361254686" lon="14.160959107281132"><ele>30.0</ele><time>2026-04-24T08:28:38Z</time></trkpt><trkpt lat="40.99670597316373" lon="14.1608466099658"><ele>30.0</ele><time>2026-04-24T08:28:39Z</time></trkpt><trkpt lat="40.996740442236565" lon="14.160741501090957"><ele>30.0</ele><time>2026-04-24T08:28:40Z</time></trkpt><trkpt lat="40.99679416534058" lon="14.160629869358116"><ele>30.0</ele><time>2026-04-24T08:28:41Z</time></trkpt><trkpt lat="40.99683215958046" lon="14.160512748931676"><ele>30.0</ele><time>2026-04-24T08:28:42Z</time></trkpt><trkpt lat="40.99687155455393" lon="14.16039125615069"><ele>30.0</ele><time>2026-04-24T08:28:43Z</time></trkpt><trkpt lat="40.99691115926662" lon="14.160269131091107"><ele>30.0</ele><time>2026-04-24T08:28:44Z</time></trkpt><trkpt lat="40.996936468900934" lon="14.160136894036635"><ele>30.0</ele><time>2026-04-24T08:28:45Z</time></trkpt><trkpt lat="40.99699153570497" lon="14.16002128509747"><ele>30.0</ele><time>2026-04-24T08:28:45.999Z</time></trkpt><trkpt lat="40.997034007822045" lon="14.159891730435806"><ele>30.0</ele><time>2026-04-24T08:28:46.999Z</time></trkpt><trkpt lat="40.99707820773612" lon="14.159756534719206"><ele>30.0</ele><time>2026-04-24T08:28:47.999Z</time></trkpt><trkpt lat="40.99712202711782" lon="14.15962250287259"><ele>30.0</ele><time>2026-04-24T08:28:48.999Z</time></trkpt><trkpt lat="40.99715057370719" lon="14.159480755391865"><ele>30.0</ele><time>2026-04-24T08:28:49.999Z</time></trkpt><trkpt lat="40.997201723625" lon="14.15935474648681"><ele>30.0</ele><time>2026-04-24T08:28:50.999Z</time></trkpt><trkpt lat="40.99724519226369" lon="14.159220692873927"><ele>30.0</ele><time>2026-04-24T08:28:51.999Z</time></trkpt><trkpt lat="40.997286399402896" lon="14.15908911202652"><ele>30.0</ele><time>2026-04-24T08:28:52.999Z</time></trkpt><trkpt lat="40.997327341636435" lon="14.158960286703106"><ele>29.8</ele><time>2026-04-24T08:28:53.999Z</time></trkpt><trkpt lat="40.9973687766672" lon="14.15883680228341"><ele>29.6</ele><time>2026-04-24T08:28:54.999Z</time></trkpt><trkpt lat="40.99740593009692" lon="14.158716143173125"><ele>29.4</ele><time>2026-04-24T08:28:55.999Z</time></trkpt><trkpt lat="40.99744043759486" lon="14.158599684798107"><ele>29.2</ele><time>2026-04-24T08:28:56.999Z</time></trkpt><trkpt lat="40.99748109766746" lon="14.158492469361711"><ele>29.0</ele><time>2026-04-24T08:28:57.999Z</time></trkpt><trkpt lat="40.997520064194184" lon="14.158382563945679"><ele>28.999999999999996</ele><time>2026-04-24T08:28:58.999Z</time></trkpt><trkpt lat="40.997557136287725" lon="14.15827357077421"><ele>29.0</ele><time>2026-04-24T08:28:59.999Z</time></trkpt><trkpt lat="40.99758997814371" lon="14.158168092188978"><ele>29.0</ele><time>2026-04-24T08:29:00.999Z</time></trkpt><trkpt lat="40.99761941984212" lon="14.158070316877769"><ele>29.0</ele><time>2026-04-24T08:29:01.999Z</time></trkpt><trkpt lat="40.99764577163674" lon="14.15798559646352"><ele>28.999999999999996</ele><time>2026-04-24T08:29:02.999Z</time></trkpt><trkpt lat="40.9976939607468" lon="14.157834547919457"><ele>29.0</ele><time>2026-04-24T08:29:04.999Z</time></trkpt><trkpt lat="40.99774014547432" lon="14.157690333570391"><ele>29.0</ele><time>2026-04-24T08:29:06.999Z</time></trkpt><trkpt lat="40.99778983552729" lon="14.15753945819843"><ele>29.0</ele><time>2026-04-24T08:29:08.999Z</time></trkpt><trkpt lat="40.997841292089916" lon="14.157399050975123"><ele>29.0</ele><time>2026-04-24T08:29:10.999Z</time></trkpt><trkpt lat="40.99788685072094" lon="14.157254988233193"><ele>29.0</ele><time>2026-04-24T08:29:12.999Z</time></trkpt><trkpt lat="40.99792574173139" lon="14.157141238082541"><ele>29.166666666666664</ele><time>2026-04-24T08:29:14.999Z</time></trkpt><trkpt lat="40.997954193195056" lon="14.15706319529786"><ele>29.333333333333332</ele><time>2026-04-24T08:29:16.999Z</time></trkpt><trkpt lat="40.997984669442154" lon="14.156963526260297"><ele>29.5</ele><time>2026-04-24T08:29:19.999Z</time></trkpt><trkpt lat="40.99802453093103" lon="14.156847148202987"><ele>29.666666666666664</ele><time>2026-04-24T08:29:22.999Z</time></trkpt><trkpt lat="40.99805809932313" lon="14.156740628077884"><ele>29.833333333333332</ele><time>2026-04-24T08:29:24.999Z</time></trkpt><trkpt lat="40.99809824179846" lon="14.15660897735041"><ele>30.0</ele><time>2026-04-24T08:29:26.999Z</time></trkpt><trkpt lat="40.998126465751604" lon="14.156526242403782"><ele>30.0</ele><time>2026-04-24T08:29:28.999Z</time></trkpt><trkpt lat="40.99819335021158" lon="14.156491929011953"><ele>30.0</ele><time>2026-04-24T08:29:31.999Z</time></trkpt><trkpt lat="40.9982249323911" lon="14.156586119070557"><ele>30.0</ele><time>2026-04-24T08:29:33.999Z</time></trkpt><trkpt lat="40.99822186754338" lon="14.15670934238167"><ele>30.0</ele><time>2026-04-24T08:29:35.999Z</time></trkpt><trkpt lat="40.99822049451979" lon="14.156848900994161"><ele>30.0</ele><time>2026-04-24T08:29:37.999Z</time></trkpt><trkpt lat="40.998224803820094" lon="14.156945923637208"><ele>30.0</ele><time>2026-04-24T08:29:38.999Z</time></trkpt><trkpt lat="40.99823598183779" lon="14.157142121331297"><ele>30.2</ele><time>2026-04-24T08:29:40.999Z</time></trkpt><trkpt lat="40.99824005768093" lon="14.157274345375528"><ele>30.4</ele><time>2026-04-24T08:29:42.999Z</time></trkpt><trkpt lat="40.99823366667122" lon="14.15735748154771"><ele>30.6</ele><time>2026-04-24T08:29:45.999Z</time></trkpt><trkpt lat="40.99837548301175" lon="14.157377204389665"><ele>30.8</ele><time>2026-04-24T08:29:48.999Z</time></trkpt><trkpt lat="40.99848661733469" lon="14.157348255501375"><ele>31.0</ele><time>2026-04-24T08:29:50.999Z</time></trkpt><trkpt lat="40.998557359417" lon="14.1573331026583"><ele>30.500000000000004</ele><time>2026-04-24T08:29:51.999Z</time></trkpt><trkpt lat="40.99863899092345" lon="14.157343191000866"><ele>30.0</ele><time>2026-04-24T08:29:52.999Z</time></trkpt><trkpt lat="40.9987218371158" lon="14.157331238413647"><ele>29.5</ele><time>2026-04-24T08:29:54Z</time></trkpt><trkpt lat="40.99880699359905" lon="14.157318952386856"><ele>29.0</ele><time>2026-04-24T08:29:55Z</time></trkpt><trkpt lat="40.99889800542531" lon="14.157312312195703"><ele>28.500000000000004</ele><time>2026-04-24T08:29:56Z</time></trkpt><trkpt lat="40.998982199683084" lon="14.157307064014306"><ele>28.0</ele><time>2026-04-24T08:29:57Z</time></trkpt><trkpt lat="40.99906610864752" lon="14.157301833535987"><ele>28.000000000000004</ele><time>2026-04-24T08:29:58Z</time></trkpt><trkpt lat="40.99915246926439" lon="14.157299421155424"><ele>28.0</ele><time>2026-04-24T08:29:59Z</time></trkpt><trkpt lat="40.999240860433055" lon="14.157298214112346"><ele>28.0</ele><time>2026-04-24T08:30:00Z</time></trkpt><trkpt lat="40.99932798686102" lon="14.157298687625781"><ele>28.0</ele><time>2026-04-24T08:30:01Z</time></trkpt><trkpt lat="40.99940889090724" lon="14.157308114489666"><ele>28.000000000000004</ele><time>2026-04-24T08:30:02Z</time></trkpt><trkpt lat="40.99948559016925" lon="14.157314284734502"><ele>28.0</ele><time>2026-04-24T08:30:03Z</time></trkpt><trkpt lat="40.99955404084872" lon="14.15731820812889"><ele>27.799999999999997</ele><time>2026-04-24T08:30:04Z</time></trkpt><trkpt lat="40.999621142439985" lon="14.157322054193427"><ele>27.599999999999998</ele><time>2026-04-24T08:30:05Z</time></trkpt><trkpt lat="40.99973898289529" lon="14.157328808466815"><ele>27.400000000000002</ele><time>2026-04-24T08:30:07Z</time></trkpt><trkpt lat="40.99985355846929" lon="14.157335375682628"><ele>27.200000000000003</ele><time>2026-04-24T08:30:09Z</time></trkpt><trkpt lat="40.99995476151162" lon="14.157340795332583"><ele>27.0</ele><time>2026-04-24T08:30:11Z</time></trkpt><trkpt lat="41.000035074832994" lon="14.157345203997759"><ele>27.0</ele><time>2026-04-24T08:30:13Z</time></trkpt><trkpt lat="41.00010712587581" lon="14.157349159120185"><ele>27.0</ele><time>2026-04-24T08:30:16Z</time></trkpt><trkpt lat="41.000197857549516" lon="14.157353164956046"><ele>27.0</ele><time>2026-04-24T08:30:18Z</time></trkpt><trkpt lat="41.000320571725496" lon="14.157356422714258"><ele>27.0</ele><time>2026-04-24T08:30:20Z</time></trkpt><trkpt lat="41.00039339161599" lon="14.157357727615988"><ele>27.0</ele><time>2026-04-24T08:30:21Z</time></trkpt><trkpt lat="41.00048443678939" lon="14.157359359114217"><ele>27.0</ele><time>2026-04-24T08:30:22Z</time></trkpt><trkpt lat="41.00057631051307" lon="14.157359087627777"><ele>27.0</ele><time>2026-04-24T08:30:23Z</time></trkpt><trkpt lat="41.0006855180073" lon="14.157356246564952"><ele>27.0</ele><time>2026-04-24T08:30:24Z</time></trkpt><trkpt lat="41.00081212896059" lon="14.157351875858271"><ele>27.0</ele><time>2026-04-24T08:30:25Z</time></trkpt><trkpt lat="41.000938871585646" lon="14.157349393743615"><ele>27.0</ele><time>2026-04-24T08:30:26Z</time></trkpt><trkpt lat="41.00108037082763" lon="14.157348739304288"><ele>27.0</ele><time>2026-04-24T08:30:27Z</time></trkpt><trkpt lat="41.00121772164688" lon="14.157347475330544"><ele>27.0</ele><time>2026-04-24T08:30:28Z</time></trkpt><trkpt lat="41.00135628492314" lon="14.15734456575883"><ele>27.0</ele><time>2026-04-24T08:30:29Z</time></trkpt><trkpt lat="41.00149946434736" lon="14.157341253162159"><ele>27.0</ele><time>2026-04-24T08:30:30Z</time></trkpt><trkpt lat="41.00164551017503" lon="14.15731338221787"><ele>26.75</ele><time>2026-04-24T08:30:31Z</time></trkpt><trkpt lat="41.00179619583829" lon="14.15730957699348"><ele>26.5</ele><time>2026-04-24T08:30:32Z</time></trkpt><trkpt lat="41.001944560658906" lon="14.157310895746445"><ele>26.25</ele><time>2026-04-24T08:30:33Z</time></trkpt><trkpt lat="41.00207157825262" lon="14.157307478454612"><ele>26.0</ele><time>2026-04-24T08:30:34Z</time></trkpt><trkpt lat="41.00218582606896" lon="14.157303137536651"><ele>26.0</ele><time>2026-04-24T08:30:35Z</time></trkpt><trkpt lat="41.002290517204514" lon="14.157300131190846"><ele>26.0</ele><time>2026-04-24T08:30:36Z</time></trkpt><trkpt lat="41.002399969162205" lon="14.157301424996776"><ele>26.0</ele><time>2026-04-24T08:30:37Z</time></trkpt><trkpt lat="41.00251796607972" lon="14.157306495434778"><ele>26.0</ele><time>2026-04-24T08:30:38Z</time></trkpt><trkpt lat="41.00263845082542" lon="14.157306956025804"><ele>25.8</ele><time>2026-04-24T08:30:39Z</time></trkpt><trkpt lat="41.002750234961574" lon="14.157298422406816"><ele>25.6</ele><time>2026-04-24T08:30:40Z</time></trkpt><trkpt lat="41.002859736224295" lon="14.157294179149067"><ele>25.4</ele><time>2026-04-24T08:30:41Z</time></trkpt><trkpt lat="41.002970669130136" lon="14.15729830137842"><ele>25.2</ele><time>2026-04-24T08:30:42Z</time></trkpt><trkpt lat="41.00308248597681" lon="14.157286742133028"><ele>25.0</ele><time>2026-04-24T08:30:43Z</time></trkpt><trkpt lat="41.00318844185822" lon="14.157283855778923"><ele>25.0</ele><time>2026-04-24T08:30:44Z</time></trkpt><trkpt lat="41.00329024356843" lon="14.157275331343286"><ele>25.0</ele><time>2026-04-24T08:30:45Z</time></trkpt><trkpt lat="41.00339030046434" lon="14.15726259870663"><ele>25.0</ele><time>2026-04-24T08:30:46Z</time></trkpt><trkpt lat="41.00349569203705" lon="14.157249933274064"><ele>25.0</ele><time>2026-04-24T08:30:47Z</time></trkpt><trkpt lat="41.00360237622226" lon="14.157242005120139"><ele>25.0</ele><time>2026-04-24T08:30:48Z</time></trkpt><trkpt lat="41.003712942823505" lon="14.157234669299312"><ele>24.75</ele><time>2026-04-24T08:30:49Z</time></trkpt><trkpt lat="41.00382831398625" lon="14.157232957985913"><ele>24.5</ele><time>2026-04-24T08:30:50Z</time></trkpt><trkpt lat="41.0039493118824" lon="14.157234453731741"><ele>24.25</ele><time>2026-04-24T08:30:51Z</time></trkpt><trkpt lat="41.0040763807229" lon="14.157225649339201"><ele>24.0</ele><time>2026-04-24T08:30:52Z</time></trkpt><trkpt lat="41.00420079471998" lon="14.15722189966998"><ele>24.0</ele><time>2026-04-24T08:30:53Z</time></trkpt><trkpt lat="41.0043303380835" lon="14.15722069415156"><ele>24.0</ele><time>2026-04-24T08:30:54Z</time></trkpt><trkpt lat="41.00445481025221" lon="14.15721865941008"><ele>24.0</ele><time>2026-04-24T08:30:55Z</time></trkpt><trkpt lat="41.00457905533082" lon="14.157218418903662"><ele>24.0</ele><time>2026-04-24T08:30:56Z</time></trkpt><trkpt lat="41.004707949879084" lon="14.157220120665258"><ele>24.0</ele><time>2026-04-24T08:30:57Z</time></trkpt><trkpt lat="41.004841581197084" lon="14.1572157668473"><ele>24.0</ele><time>2026-04-24T08:30:58Z</time></trkpt><trkpt lat="41.00497893606587" lon="14.157209366166898"><ele>24.0</ele><time>2026-04-24T08:30:59Z</time></trkpt><trkpt lat="41.00510562393813" lon="14.157207628020366"><ele>24.0</ele><time>2026-04-24T08:31:00Z</time></trkpt><trkpt lat="41.00523255108053" lon="14.157208472901566"><ele>23.75</ele><time>2026-04-24T08:31:00.999Z</time></trkpt><trkpt lat="41.005359152485966" lon="14.15719874195008"><ele>23.5</ele><time>2026-04-24T08:31:01.999Z</time></trkpt><trkpt lat="41.005487819282905" lon="14.157191714588064"><ele>23.25</ele><time>2026-04-24T08:31:02.999Z</time></trkpt><trkpt lat="41.005615849845675" lon="14.15717876395609"><ele>23.0</ele><time>2026-04-24T08:31:03.999Z</time></trkpt><trkpt lat="41.00574265830295" lon="14.157175269559623"><ele>22.75</ele><time>2026-04-24T08:31:05Z</time></trkpt><trkpt lat="41.00587043776077" lon="14.157167655684248"><ele>22.5</ele><time>2026-04-24T08:31:05.999Z</time></trkpt><trkpt lat="41.00599604552743" lon="14.157161787203107"><ele>22.25</ele><time>2026-04-24T08:31:06.999Z</time></trkpt><trkpt lat="41.00612394071369" lon="14.157158460321586"><ele>22.0</ele><time>2026-04-24T08:31:07.999Z</time></trkpt><trkpt lat="41.00624563560718" lon="14.157149626303767"><ele>22.0</ele><time>2026-04-24T08:31:08.999Z</time></trkpt><trkpt lat="41.00636760404031" lon="14.157142101143588"><ele>22.0</ele><time>2026-04-24T08:31:09.999Z</time></trkpt><trkpt lat="41.00648859863512" lon="14.157141595061805"><ele>22.0</ele><time>2026-04-24T08:31:10.999Z</time></trkpt><trkpt lat="41.00661400769635" lon="14.157139827165441"><ele>22.0</ele><time>2026-04-24T08:31:11.999Z</time></trkpt><trkpt lat="41.006740331095244" lon="14.157136519736573"><ele>21.75</ele><time>2026-04-24T08:31:12.999Z</time></trkpt><trkpt lat="41.00686794171346" lon="14.157132267172948"><ele>21.5</ele><time>2026-04-24T08:31:13.999Z</time></trkpt><trkpt lat="41.00699683355862" lon="14.15712954748636"><ele>21.25</ele><time>2026-04-24T08:31:14.999Z</time></trkpt><trkpt lat="41.00712921798924" lon="14.157121523705841"><ele>21.0</ele><time>2026-04-24T08:31:15.999Z</time></trkpt><trkpt lat="41.007260656948226" lon="14.157123045996256"><ele>21.0</ele><time>2026-04-24T08:31:16.999Z</time></trkpt><trkpt lat="41.00738576538127" lon="14.1571223194029"><ele>21.0</ele><time>2026-04-24T08:31:17.999Z</time></trkpt><trkpt lat="41.00751821300793" lon="14.157124013421253"><ele>21.0</ele><time>2026-04-24T08:31:18.999Z</time></trkpt><trkpt lat="41.00765809252075" lon="14.157126563070701"><ele>21.0</ele><time>2026-04-24T08:31:19.999Z</time></trkpt><trkpt lat="41.00780273637956" lon="14.157134563867853"><ele>21.0</ele><time>2026-04-24T08:31:20.999Z</time></trkpt><trkpt lat="41.00795454376776" lon="14.157138632733947"><ele>21.0</ele><time>2026-04-24T08:31:21.999Z</time></trkpt><trkpt lat="41.00810739881568" lon="14.157144137193397"><ele>21.0</ele><time>2026-04-24T08:31:22.999Z</time></trkpt><trkpt lat="41.008277904351885" lon="14.15714941465664"><ele>21.0</ele><time>2026-04-24T08:31:23.999Z</time></trkpt><trkpt lat="41.00845133565347" lon="14.157151053727663"><ele>21.0</ele><time>2026-04-24T08:31:24.999Z</time></trkpt><trkpt lat="41.008622710169874" lon="14.157157021696383"><ele>21.0</ele><time>2026-04-24T08:31:25.999Z</time></trkpt><trkpt lat="41.008791377524716" lon="14.157158077624166"><ele>21.0</ele><time>2026-04-24T08:31:26.999Z</time></trkpt><trkpt lat="41.0089511429613" lon="14.15715766185627"><ele>21.0</ele><time>2026-04-24T08:31:27.999Z</time></trkpt><trkpt lat="41.00910255166004" lon="14.157155556097328"><ele>21.0</ele><time>2026-04-24T08:31:28.999Z</time></trkpt><trkpt lat="41.00925825009658" lon="14.157166397847"><ele>21.0</ele><time>2026-04-24T08:31:29.999Z</time></trkpt><trkpt lat="41.00939782784615" lon="14.15716655138464"><ele>21.0</ele><time>2026-04-24T08:31:30.999Z</time></trkpt><trkpt lat="41.009545805939574" lon="14.157165298609973"><ele>21.0</ele><time>2026-04-24T08:31:31.999Z</time></trkpt><trkpt lat="41.009686055873" lon="14.15716202209632"><ele>21.0</ele><time>2026-04-24T08:31:32.999Z</time></trkpt><trkpt lat="41.00982133054802" lon="14.157149935387784"><ele>21.0</ele><time>2026-04-24T08:31:33.999Z</time></trkpt><trkpt lat="41.0099565832866" lon="14.157142622817725"><ele>21.0</ele><time>2026-04-24T08:31:34.999Z</time></trkpt><trkpt lat="41.01008866428609" lon="14.157131423496974"><ele>21.0</ele><time>2026-04-24T08:31:35.999Z</time></trkpt><trkpt lat="41.0102158768582" lon="14.157146554259787"><ele>21.0</ele><time>2026-04-24T08:31:36.999Z</time></trkpt><trkpt lat="41.01033619696615" lon="14.157124325068947"><ele>21.200000000000003</ele><time>2026-04-24T08:31:37.999Z</time></trkpt><trkpt lat="41.01045312983703" lon="14.157124290138313"><ele>21.400000000000002</ele><time>2026-04-24T08:31:38.999Z</time></trkpt><trkpt lat="41.010562206612846" lon="14.157124913785058"><ele>21.6</ele><time>2026-04-24T08:31:39.999Z</time></trkpt><trkpt lat="41.01066430489443" lon="14.157126635395173"><ele>21.8</ele><time>2026-04-24T08:31:40.999Z</time></trkpt><trkpt lat="41.010759016750576" lon="14.15713139698116"><ele>22.0</ele><time>2026-04-24T08:31:41.999Z</time></trkpt><trkpt lat="41.01085947510129" lon="14.157120461992713"><ele>21.5</ele><time>2026-04-24T08:31:42.999Z</time></trkpt><trkpt lat="41.01094823399089" lon="14.157115635872845"><ele>21.0</ele><time>2026-04-24T08:31:43.999Z</time></trkpt><trkpt lat="41.01103598934496" lon="14.157114302715243"><ele>20.5</ele><time>2026-04-24T08:31:44.999Z</time></trkpt><trkpt lat="41.01112299846267" lon="14.157113469821809"><ele>20.0</ele><time>2026-04-24T08:31:45.999Z</time></trkpt><trkpt lat="41.01120409915959" lon="14.157112583113799"><ele>19.5</ele><time>2026-04-24T08:31:46.999Z</time></trkpt><trkpt lat="41.011281124644945" lon="14.157110299514962"><ele>19.0</ele><time>2026-04-24T08:31:47.999Z</time></trkpt><trkpt lat="41.011357696710306" lon="14.15710615535228"><ele>19.0</ele><time>2026-04-24T08:31:48.999Z</time></trkpt><trkpt lat="41.011432763772056" lon="14.157101769186134"><ele>19.0</ele><time>2026-04-24T08:31:49.999Z</time></trkpt><trkpt lat="41.01150556328135" lon="14.157100509779744"><ele>19.0</ele><time>2026-04-24T08:31:50.999Z</time></trkpt><trkpt lat="41.011576317287236" lon="14.157097389027275"><ele>19.0</ele><time>2026-04-24T08:31:51.999Z</time></trkpt><trkpt lat="41.01164559829654" lon="14.157095854243833"><ele>19.0</ele><time>2026-04-24T08:31:52.999Z</time></trkpt><trkpt lat="41.01176852289631" lon="14.157097197885244"><ele>19.0</ele><time>2026-04-24T08:31:54.999Z</time></trkpt><trkpt lat="41.011832046731605" lon="14.157092467460808"><ele>18.5</ele><time>2026-04-24T08:31:55.999Z</time></trkpt><trkpt lat="41.011900890290406" lon="14.15708743004988"><ele>18.0</ele><time>2026-04-24T08:31:56.999Z</time></trkpt><trkpt lat="41.011974662328775" lon="14.15709028794837"><ele>17.5</ele><time>2026-04-24T08:31:57.999Z</time></trkpt><trkpt lat="41.012055939434006" lon="14.15709447051465"><ele>17.0</ele><time>2026-04-24T08:31:59Z</time></trkpt><trkpt lat="41.01213386738804" lon="14.157091342289194"><ele>16.5</ele><time>2026-04-24T08:32:00Z</time></trkpt><trkpt lat="41.01221353494757" lon="14.157085631048044"><ele>16.0</ele><time>2026-04-24T08:32:01Z</time></trkpt><trkpt lat="41.01230024308896" lon="14.157077170351005"><ele>15.999999999999998</ele><time>2026-04-24T08:32:02Z</time></trkpt><trkpt lat="41.01237952220328" lon="14.157068875496055"><ele>16.0</ele><time>2026-04-24T08:32:03Z</time></trkpt><trkpt lat="41.01245103223338" lon="14.157078055387082"><ele>16.0</ele><time>2026-04-24T08:32:04Z</time></trkpt><trkpt lat="41.0125180048031" lon="14.157074619810189"><ele>16.0</ele><time>2026-04-24T08:32:05Z</time></trkpt><trkpt lat="41.0126292135817" lon="14.15707001834943"><ele>15.999999999999998</ele><time>2026-04-24T08:32:07Z</time></trkpt><trkpt lat="41.01270913744195" lon="14.157067393471944"><ele>16.0</ele><time>2026-04-24T08:32:09Z</time></trkpt><trkpt lat="41.01279772949636" lon="14.157064483910023"><ele>16.25</ele><time>2026-04-24T08:32:12Z</time></trkpt><trkpt lat="41.012914956783945" lon="14.157061138827949"><ele>16.5</ele><time>2026-04-24T08:44:32.999Z</time></trkpt><trkpt lat="41.013034876444415" lon="14.157060227692286"><ele>16.75</ele><time>2026-04-24T08:44:34.999Z</time></trkpt><trkpt lat="41.01316753295986" lon="14.157060687821241"><ele>17.0</ele><time>2026-04-24T08:44:36.999Z</time></trkpt><trkpt lat="41.013253084812206" lon="14.157061272407606"><ele>16.8</ele><time>2026-04-24T08:44:37.999Z</time></trkpt><trkpt lat="41.01335608267336" lon="14.157061976202824"><ele>16.6</ele><time>2026-04-24T08:44:38.999Z</time></trkpt><trkpt lat="41.0134563415191" lon="14.157062661280698"><ele>16.400000000000002</ele><time>2026-04-24T08:44:39.999Z</time></trkpt><trkpt lat="41.01357314442541" lon="14.157064708198702"><ele>16.2</ele><time>2026-04-24T08:44:40.999Z</time></trkpt><trkpt lat="41.01369294439795" lon="14.157048035132409"><ele>16.0</ele><time>2026-04-24T08:44:41.999Z</time></trkpt><trkpt lat="41.013808037876096" lon="14.157053933335824"><ele>16.0</ele><time>2026-04-24T08:44:42.999Z</time></trkpt><trkpt lat="41.013916027815284" lon="14.157056273398771"><ele>16.0</ele><time>2026-04-24T08:44:43.999Z</time></trkpt><trkpt lat="41.01401517097894" lon="14.157049912676072"><ele>16.0</ele><time>2026-04-24T08:44:44.999Z</time></trkpt><trkpt lat="41.01411656407168" lon="14.157053148653747"><ele>16.0</ele><time>2026-04-24T08:44:45.999Z</time></trkpt><trkpt lat="41.014222642799616" lon="14.157061980854833"><ele>16.0</ele><time>2026-04-24T08:44:46.999Z</time></trkpt><trkpt lat="41.01432515583306" lon="14.157060606908898"><ele>15.75</ele><time>2026-04-24T08:44:47.999Z</time></trkpt><trkpt lat="41.01443063224595" lon="14.157053403378148"><ele>15.5</ele><time>2026-04-24T08:44:48.999Z</time></trkpt><trkpt lat="41.01455078065469" lon="14.157045525460974"><ele>15.25</ele><time>2026-04-24T08:44:49.999Z</time></trkpt><trkpt lat="41.01467648472915" lon="14.157048666757357"><ele>15.0</ele><time>2026-04-24T08:44:50.999Z</time></trkpt><trkpt lat="41.01481163229794" lon="14.157043264555389"><ele>15.0</ele><time>2026-04-24T08:44:51.999Z</time></trkpt><trkpt lat="41.014946006095435" lon="14.157039037992122"><ele>15.0</ele><time>2026-04-24T08:44:52.999Z</time></trkpt><trkpt lat="41.015087067479406" lon="14.157038095309154"><ele>15.0</ele><time>2026-04-24T08:44:53.999Z</time></trkpt><trkpt lat="41.01522006264183" lon="14.157041106704963"><ele>15.0</ele><time>2026-04-24T08:44:54.999Z</time></trkpt><trkpt lat="41.015347255197945" lon="14.157045441785392"><ele>15.0</ele><time>2026-04-24T08:44:55.999Z</time></trkpt><trkpt lat="41.01547091495392" lon="14.157042951238639"><ele>15.0</ele><time>2026-04-24T08:44:56.999Z</time></trkpt><trkpt lat="41.01558925858462" lon="14.157049941093176"><ele>15.0</ele><time>2026-04-24T08:44:57.999Z</time></trkpt><trkpt lat="41.015702281668595" lon="14.15705655629728"><ele>15.0</ele><time>2026-04-24T08:44:58.999Z</time></trkpt><trkpt lat="41.015811909531855" lon="14.157065543256012"><ele>15.2</ele><time>2026-04-24T08:44:59.999Z</time></trkpt><trkpt lat="41.015919310737075" lon="14.157072531918024"><ele>15.4</ele><time>2026-04-24T08:45:00.999Z</time></trkpt><trkpt lat="41.01602813771691" lon="14.15708055446978"><ele>15.600000000000001</ele><time>2026-04-24T08:45:01.999Z</time></trkpt><trkpt lat="41.01614178615576" lon="14.15707935723781"><ele>15.8</ele><time>2026-04-24T08:45:02.999Z</time></trkpt><trkpt lat="41.01625346973823" lon="14.157085072671176"><ele>16.0</ele><time>2026-04-24T08:45:03.999Z</time></trkpt><trkpt lat="41.0163592798354" lon="14.157095538143436"><ele>16.0</ele><time>2026-04-24T08:45:05Z</time></trkpt><trkpt lat="41.01648184191873" lon="14.157101554576153"><ele>16.0</ele><time>2026-04-24T08:45:06Z</time></trkpt><trkpt lat="41.016592830459274" lon="14.157101944325124"><ele>16.0</ele><time>2026-04-24T08:45:07Z</time></trkpt><trkpt lat="41.01668919479995" lon="14.157098347754422"><ele>16.0</ele><time>2026-04-24T08:45:08Z</time></trkpt><trkpt lat="41.01678503438055" lon="14.157109791930187"><ele>16.0</ele><time>2026-04-24T08:45:09Z</time></trkpt><trkpt lat="41.01686914986987" lon="14.157103957301528"><ele>16.166666666666664</ele><time>2026-04-24T08:45:10Z</time></trkpt><trkpt lat="41.01693806187545" lon="14.157103387334388"><ele>16.333333333333332</ele><time>2026-04-24T08:45:11Z</time></trkpt><trkpt lat="41.01705823154892" lon="14.157115818715964"><ele>16.5</ele><time>2026-04-24T08:45:13Z</time></trkpt><trkpt lat="41.01712048692385" lon="14.157138787964815"><ele>16.666666666666668</ele><time>2026-04-24T08:45:14Z</time></trkpt><trkpt lat="41.01718208133153" lon="14.157157417492687"><ele>16.833333333333336</ele><time>2026-04-24T08:45:15Z</time></trkpt><trkpt lat="41.01726430921831" lon="14.157164136295435"><ele>17.0</ele><time>2026-04-24T08:45:17Z</time></trkpt><trkpt lat="41.017357308803675" lon="14.157081013231425"><ele>17.0</ele><time>2026-04-24T08:45:19Z</time></trkpt><trkpt lat="41.017423790583614" lon="14.157061216796619"><ele>17.0</ele><time>2026-04-24T08:45:20Z</time></trkpt><trkpt lat="41.01750296104082" lon="14.157051196939406"><ele>17.0</ele><time>2026-04-24T08:45:21Z</time></trkpt><trkpt lat="41.017590800115656" lon="14.157044416795285"><ele>17.0</ele><time>2026-04-24T08:45:22Z</time></trkpt><trkpt lat="41.01767448447906" lon="14.15704505534126"><ele>17.0</ele><time>2026-04-24T08:45:23Z</time></trkpt><trkpt lat="41.01776493074439" lon="14.157028161615784"><ele>17.0</ele><time>2026-04-24T08:45:24Z</time></trkpt><trkpt lat="41.017865202233466" lon="14.157010948283547"><ele>17.0</ele><time>2026-04-24T08:45:25Z</time></trkpt><trkpt lat="41.017975476863924" lon="14.157004701044093"><ele>17.0</ele><time>2026-04-24T08:45:26Z</time></trkpt><trkpt lat="41.01807821296999" lon="14.157007075915304"><ele>17.0</ele><time>2026-04-24T08:45:27Z</time></trkpt><trkpt lat="41.01819187626856" lon="14.157010911484825"><ele>17.0</ele><time>2026-04-24T08:45:28Z</time></trkpt><trkpt lat="41.018261040614426" lon="14.157020697153893"><ele>17.0</ele><time>2026-04-24T08:45:29Z</time></trkpt><trkpt lat="41.01836426051404" lon="14.157031980998532"><ele>16.8</ele><time>2026-04-24T08:45:30Z</time></trkpt><trkpt lat="41.018451840940685" lon="14.157033405789488"><ele>16.6</ele><time>2026-04-24T08:45:31Z</time></trkpt><trkpt lat="41.01853882806848" lon="14.157037633823382"><ele>16.400000000000002</ele><time>2026-04-24T08:45:32Z</time></trkpt><trkpt lat="41.018646090923724" lon="14.157051459783212"><ele>16.2</ele><time>2026-04-24T08:45:33Z</time></trkpt><trkpt lat="41.01875738096629" lon="14.15708239718496"><ele>16.0</ele><time>2026-04-24T08:45:34Z</time></trkpt><trkpt lat="41.01888583252651" lon="14.157114117898354"><ele>16.0</ele><time>2026-04-24T08:45:35Z</time></trkpt><trkpt lat="41.01901640500298" lon="14.157148521946821"><ele>16.0</ele><time>2026-04-24T08:45:36Z</time></trkpt><trkpt lat="41.01914826516047" lon="14.157188515097939"><ele>16.0</ele><time>2026-04-24T08:45:37Z</time></trkpt><trkpt lat="41.019282894965855" lon="14.157221162503427"><ele>16.0</ele><time>2026-04-24T08:45:38Z</time></trkpt><trkpt lat="41.01941907619177" lon="14.157246955213724"><ele>15.75</ele><time>2026-04-24T08:45:39Z</time></trkpt><trkpt lat="41.019549967507295" lon="14.15726686318487"><ele>15.5</ele><time>2026-04-24T08:45:40Z</time></trkpt><trkpt lat="41.01968013012535" lon="14.157278325257096"><ele>15.25</ele><time>2026-04-24T08:45:41Z</time></trkpt><trkpt lat="41.019807440263854" lon="14.15728347219361"><ele>15.0</ele><time>2026-04-24T08:45:42Z</time></trkpt><trkpt lat="41.019930878849195" lon="14.157284604306216"><ele>14.75</ele><time>2026-04-24T08:45:43Z</time></trkpt><trkpt lat="41.02006342995035" lon="14.157251382344668"><ele>14.5</ele><time>2026-04-24T08:45:44Z</time></trkpt><trkpt lat="41.020190120285726" lon="14.157235100927318"><ele>14.25</ele><time>2026-04-24T08:45:45Z</time></trkpt><trkpt lat="41.02031427377465" lon="14.157190364432596"><ele>14.0</ele><time>2026-04-24T08:45:46Z</time></trkpt><trkpt lat="41.02043990431035" lon="14.157126999561878"><ele>14.0</ele><time>2026-04-24T08:45:47Z</time></trkpt><trkpt lat="41.02055862608589" lon="14.157086706039356"><ele>14.0</ele><time>2026-04-24T08:45:48Z</time></trkpt><trkpt lat="41.02065147693605" lon="14.157047451906527"><ele>14.0</ele><time>2026-04-24T08:45:49Z</time></trkpt><trkpt lat="41.02079339774268" lon="14.15698196552415"><ele>14.0</ele><time>2026-04-24T08:45:50Z</time></trkpt><trkpt lat="41.02091285800199" lon="14.15694462182686"><ele>14.0</ele><time>2026-04-24T08:45:51Z</time></trkpt><trkpt lat="41.02103289199141" lon="14.156924294051192"><ele>14.0</ele><time>2026-04-24T08:45:52Z</time></trkpt><trkpt lat="41.02115189614732" lon="14.156897837560447"><ele>14.0</ele><time>2026-04-24T08:45:53Z</time></trkpt><trkpt lat="41.02127214265011" lon="14.156889319387886"><ele>14.0</ele><time>2026-04-24T08:45:54Z</time></trkpt><trkpt lat="41.021393711226146" lon="14.156877694468765"><ele>14.0</ele><time>2026-04-24T08:45:55Z</time></trkpt><trkpt lat="41.021521719926106" lon="14.15686438374222"><ele>14.0</ele><time>2026-04-24T08:45:56Z</time></trkpt><trkpt lat="41.02164446742283" lon="14.15685630189116"><ele>14.0</ele><time>2026-04-24T08:45:57Z</time></trkpt><trkpt lat="41.02177257695624" lon="14.156856450355116"><ele>14.0</ele><time>2026-04-24T08:45:58Z</time></trkpt><trkpt lat="41.02189059059798" lon="14.156856222177597"><ele>13.799999999999999</ele><time>2026-04-24T08:45:59Z</time></trkpt><trkpt lat="41.02201401578483" lon="14.15685556874325"><ele>13.599999999999998</ele><time>2026-04-24T08:46:00Z</time></trkpt><trkpt lat="41.02210785104739" lon="14.156861014760269"><ele>13.4</ele><time>2026-04-24T08:46:01Z</time></trkpt><trkpt lat="41.02219525332025" lon="14.156878942592382"><ele>13.2</ele><time>2026-04-24T08:46:02Z</time></trkpt><trkpt lat="41.0222849740554" lon="14.156889518906183"><ele>13.0</ele><time>2026-04-24T08:46:03Z</time></trkpt><trkpt lat="41.02237948691634" lon="14.156882969865844"><ele>12.75</ele><time>2026-04-24T08:46:04Z</time></trkpt><trkpt lat="41.022483236618505" lon="14.156897356362514"><ele>12.5</ele><time>2026-04-24T08:46:05Z</time></trkpt><trkpt lat="41.02258786519872" lon="14.156904540884781"><ele>12.25</ele><time>2026-04-24T08:46:06Z</time></trkpt><trkpt lat="41.02270413874818" lon="14.156909898173799"><ele>12.0</ele><time>2026-04-24T08:46:07Z</time></trkpt><trkpt lat="41.02282888678232" lon="14.156922415233309"><ele>12.0</ele><time>2026-04-24T08:46:08Z</time></trkpt><trkpt lat="41.02295965645647" lon="14.156936367142562"><ele>12.0</ele><time>2026-04-24T08:46:09Z</time></trkpt><trkpt lat="41.02308843170522" lon="14.156936438454787"><ele>12.0</ele><time>2026-04-24T08:46:10Z</time></trkpt><trkpt lat="41.02321656254369" lon="14.15693853569309"><ele>12.0</ele><time>2026-04-24T08:46:11Z</time></trkpt><trkpt lat="41.02333644917016" lon="14.156945018328582"><ele>12.0</ele><time>2026-04-24T08:46:12Z</time></trkpt><trkpt lat="41.02345218098452" lon="14.156930890021847"><ele>12.0</ele><time>2026-04-24T08:46:13Z</time></trkpt><trkpt lat="41.023563242793486" lon="14.156926950921738"><ele>12.0</ele><time>2026-04-24T08:46:14Z</time></trkpt><trkpt lat="41.023668550499764" lon="14.156929233698639"><ele>12.0</ele><time>2026-04-24T08:46:15Z</time></trkpt><trkpt lat="41.02377139672977" lon="14.15692612688947"><ele>12.0</ele><time>2026-04-24T08:46:16Z</time></trkpt><trkpt lat="41.023879112872145" lon="14.156934662421557"><ele>12.0</ele><time>2026-04-24T08:46:17Z</time></trkpt><trkpt lat="41.023978515530096" lon="14.156918285433832"><ele>12.0</ele><time>2026-04-24T08:46:18Z</time></trkpt><trkpt lat="41.024089906867104" lon="14.15691879193717"><ele>12.0</ele><time>2026-04-24T08:46:19Z</time></trkpt><trkpt lat="41.02420293507356" lon="14.156917489614075"><ele>12.0</ele><time>2026-04-24T08:46:20Z</time></trkpt><trkpt lat="41.02431851120121" lon="14.156913946165636"><ele>12.0</ele><time>2026-04-24T08:46:21Z</time></trkpt><trkpt lat="41.0244240683313" lon="14.156911995062638"><ele>12.333333333333334</ele><time>2026-04-24T08:46:22Z</time></trkpt><trkpt lat="41.02452244779177" lon="14.156927808596974"><ele>12.666666666666668</ele><time>2026-04-24T08:46:23Z</time></trkpt><trkpt lat="41.02461331170959" lon="14.156927242058945"><ele>13.0</ele><time>2026-04-24T08:46:24Z</time></trkpt><trkpt lat="41.02470102437101" lon="14.156916837552657"><ele>13.333333333333334</ele><time>2026-04-24T08:46:25Z</time></trkpt><trkpt lat="41.024776693930555" lon="14.15687798542891"><ele>13.666666666666668</ele><time>2026-04-24T08:46:26Z</time></trkpt><trkpt lat="41.02486255144754" lon="14.156859906774958"><ele>14.0</ele><time>2026-04-24T08:46:27Z</time></trkpt><trkpt lat="41.02494918668365" lon="14.156801281946446"><ele>14.000000000000002</ele><time>2026-04-24T08:46:28Z</time></trkpt><trkpt lat="41.02503641714335" lon="14.156766153085634"><ele>14.0</ele><time>2026-04-24T08:46:29Z</time></trkpt><trkpt lat="41.025108476413166" lon="14.156681962342049"><ele>14.0</ele><time>2026-04-24T08:46:29.999Z</time></trkpt><trkpt lat="41.02519194670164" lon="14.15662959980283"><ele>14.0</ele><time>2026-04-24T08:46:30.999Z</time></trkpt><trkpt lat="41.02526395193526" lon="14.156561071203097"><ele>14.000000000000002</ele><time>2026-04-24T08:46:31.999Z</time></trkpt><trkpt lat="41.025328914096704" lon="14.15649915338283"><ele>14.0</ele><time>2026-04-24T08:46:32.999Z</time></trkpt><trkpt lat="41.02539466876672" lon="14.15644390008813"><ele>14.000000000000002</ele><time>2026-04-24T08:46:33.999Z</time></trkpt><trkpt lat="41.025452798952394" lon="14.1563797154237"><ele>14.0</ele><time>2026-04-24T08:46:34.999Z</time></trkpt><trkpt lat="41.025533997538304" lon="14.156360207845475"><ele>14.0</ele><time>2026-04-24T08:46:35.999Z</time></trkpt><trkpt lat="41.02560418569322" lon="14.156315286487253"><ele>14.0</ele><time>2026-04-24T08:46:36.999Z</time></trkpt><trkpt lat="41.02569069202622" lon="14.156313697696474"><ele>14.000000000000002</ele><time>2026-04-24T08:46:37.999Z</time></trkpt><trkpt lat="41.025780437219225" lon="14.156274337382964"><ele>14.0</ele><time>2026-04-24T08:46:38.999Z</time></trkpt><trkpt lat="41.02587785368886" lon="14.156263849458632"><ele>13.75</ele><time>2026-04-24T08:46:39.999Z</time></trkpt><trkpt lat="41.02598545263189" lon="14.156272282943682"><ele>13.5</ele><time>2026-04-24T08:46:40.999Z</time></trkpt><trkpt lat="41.02609351122185" lon="14.156267544775751"><ele>13.25</ele><time>2026-04-24T08:46:41.999Z</time></trkpt><trkpt lat="41.02621014460249" lon="14.156262869862461"><ele>13.0</ele><time>2026-04-24T08:46:42.999Z</time></trkpt><trkpt lat="41.026328056344404" lon="14.156239166352444"><ele>13.0</ele><time>2026-04-24T08:46:43.999Z</time></trkpt><trkpt lat="41.026439755631486" lon="14.156236836085796"><ele>13.0</ele><time>2026-04-24T08:46:44.999Z</time></trkpt><trkpt lat="41.02655683599179" lon="14.15622969621958"><ele>13.0</ele><time>2026-04-24T08:46:45.999Z</time></trkpt><trkpt lat="41.02666652738592" lon="14.156229861149857"><ele>13.0</ele><time>2026-04-24T08:46:46.999Z</time></trkpt><trkpt lat="41.0267849699676" lon="14.15620863032502"><ele>12.75</ele><time>2026-04-24T08:46:47.999Z</time></trkpt><trkpt lat="41.02690067555833" lon="14.15619102700298"><ele>12.5</ele><time>2026-04-24T08:46:48.999Z</time></trkpt><trkpt lat="41.02701210555603" lon="14.15618599234892"><ele>12.25</ele><time>2026-04-24T08:46:49.999Z</time></trkpt><trkpt lat="41.027124657554786" lon="14.156146852163475"><ele>12.0</ele><time>2026-04-24T08:46:50.999Z</time></trkpt><trkpt lat="41.027232266350914" lon="14.156129248937557"><ele>12.0</ele><time>2026-04-24T08:46:51.999Z</time></trkpt><trkpt lat="41.02734093609475" lon="14.156101260163853"><ele>12.0</ele><time>2026-04-24T08:46:52.999Z</time></trkpt><trkpt lat="41.02744869755796" lon="14.156055980551644"><ele>12.0</ele><time>2026-04-24T08:46:53.999Z</time></trkpt><trkpt lat="41.02755080187881" lon="14.156054474114468"><ele>12.0</ele><time>2026-04-24T08:46:54.999Z</time></trkpt><trkpt lat="41.027653102231326" lon="14.15603234854943"><ele>12.0</ele><time>2026-04-24T08:46:55.999Z</time></trkpt><trkpt lat="41.027750151814445" lon="14.156015782822443"><ele>12.0</ele><time>2026-04-24T08:46:56.999Z</time></trkpt><trkpt lat="41.0278345718638" lon="14.15600218688139"><ele>12.0</ele><time>2026-04-24T08:46:57.999Z</time></trkpt><trkpt lat="41.02793551207901" lon="14.155985930887054"><ele>12.0</ele><time>2026-04-24T08:46:58.999Z</time></trkpt><trkpt lat="41.02801891329086" lon="14.15597431552606"><ele>12.0</ele><time>2026-04-24T08:46:59.999Z</time></trkpt><trkpt lat="41.02810951289666" lon="14.15596671882054"><ele>12.0</ele><time>2026-04-24T08:47:00.999Z</time></trkpt><trkpt lat="41.0282041569455" lon="14.155955419580057"><ele>12.0</ele><time>2026-04-24T08:47:01.999Z</time></trkpt><trkpt lat="41.028303299289036" lon="14.155939147895847"><ele>12.0</ele><time>2026-04-24T08:47:02.999Z</time></trkpt><trkpt lat="41.02841339560025" lon="14.155922325018741"><ele>12.0</ele><time>2026-04-24T08:47:03.999Z</time></trkpt><trkpt lat="41.028523026030605" lon="14.155905440422393"><ele>12.0</ele><time>2026-04-24T08:47:04.999Z</time></trkpt><trkpt lat="41.02863635304212" lon="14.15588502925603"><ele>12.0</ele><time>2026-04-24T08:47:05.999Z</time></trkpt><trkpt lat="41.028750121119685" lon="14.155864444701596"><ele>12.0</ele><time>2026-04-24T08:47:06.999Z</time></trkpt><trkpt lat="41.0288650444239" lon="14.15584365112656"><ele>12.0</ele><time>2026-04-24T08:47:07.999Z</time></trkpt><trkpt lat="41.02897515033714" lon="14.155821624970676"><ele>12.0</ele><time>2026-04-24T08:47:08.999Z</time></trkpt><trkpt lat="41.029084941810616" lon="14.155798802765686"><ele>12.0</ele><time>2026-04-24T08:47:09.999Z</time></trkpt><trkpt lat="41.02919838259749" lon="14.155775221974057"><ele>11.8</ele><time>2026-04-24T08:47:10.999Z</time></trkpt><trkpt lat="41.02930458920213" lon="14.155750157028017"><ele>11.6</ele><time>2026-04-24T08:47:11.999Z</time></trkpt><trkpt lat="41.029416433774756" lon="14.155721724557466"><ele>11.4</ele><time>2026-04-24T08:47:12.999Z</time></trkpt><trkpt lat="41.02951487803421" lon="14.155673265249796"><ele>11.200000000000001</ele><time>2026-04-24T08:47:13.999Z</time></trkpt><trkpt lat="41.02961957661666" lon="14.15565384845987"><ele>11.0</ele><time>2026-04-24T08:47:14.999Z</time></trkpt><trkpt lat="41.02971451062658" lon="14.155624878326075"><ele>11.0</ele><time>2026-04-24T08:47:15.999Z</time></trkpt><trkpt lat="41.02982476773881" lon="14.155610440159897"><ele>11.0</ele><time>2026-04-24T08:47:16.999Z</time></trkpt><trkpt lat="41.02992750831263" lon="14.155561552635618"><ele>11.0</ele><time>2026-04-24T08:47:17.999Z</time></trkpt><trkpt lat="41.03004786440472" lon="14.155552622651738"><ele>11.0</ele><time>2026-04-24T08:47:18.999Z</time></trkpt><trkpt lat="41.03014678412464" lon="14.155512484690734"><ele>11.0</ele><time>2026-04-24T08:47:19.999Z</time></trkpt><trkpt lat="41.03024984150222" lon="14.155508103723205"><ele>11.0</ele><time>2026-04-24T08:47:20.999Z</time></trkpt><trkpt lat="41.0303555927206" lon="14.155487506069568"><ele>11.0</ele><time>2026-04-24T08:47:21.999Z</time></trkpt><trkpt lat="41.03046789799923" lon="14.155481155673474"><ele>11.0</ele><time>2026-04-24T08:47:22.999Z</time></trkpt><trkpt lat="41.03058175181234" lon="14.155470518387592"><ele>11.0</ele><time>2026-04-24T08:47:23.999Z</time></trkpt><trkpt lat="41.0307050062964" lon="14.155454572371857"><ele>11.0</ele><time>2026-04-24T08:47:24.999Z</time></trkpt><trkpt lat="41.03083585657418" lon="14.155459612027284"><ele>11.0</ele><time>2026-04-24T08:47:25.999Z</time></trkpt><trkpt lat="41.03093250747951" lon="14.155443684215712"><ele>11.0</ele><time>2026-04-24T08:47:27Z</time></trkpt><trkpt lat="41.03105739724314" lon="14.155423400541803"><ele>11.0</ele><time>2026-04-24T08:47:28Z</time></trkpt><trkpt lat="41.03117901911509" lon="14.15542138071143"><ele>11.0</ele><time>2026-04-24T08:47:29Z</time></trkpt><trkpt lat="41.03129543691216" lon="14.155417687643622"><ele>11.0</ele><time>2026-04-24T08:47:30Z</time></trkpt><trkpt lat="41.03142395666004" lon="14.155419404506606"><ele>11.0</ele><time>2026-04-24T08:47:31Z</time></trkpt><trkpt lat="41.03153738936534" lon="14.155429356076352"><ele>11.0</ele><time>2026-04-24T08:47:32Z</time></trkpt><trkpt lat="41.03165340485581" lon="14.1554287652778"><ele>11.333333333333332</ele><time>2026-04-24T08:47:33Z</time></trkpt><trkpt lat="41.03189458650615" lon="14.155435126471236"><ele>11.666666666666666</ele><time>2026-04-24T08:47:35Z</time></trkpt><trkpt lat="41.03201653982893" lon="14.155452307154805"><ele>12.0</ele><time>2026-04-24T08:47:36Z</time></trkpt><trkpt lat="41.03211979515628" lon="14.15547221270874"><ele>12.0</ele><time>2026-04-24T08:47:37Z</time></trkpt><trkpt lat="41.032262662442754" lon="14.155482010442483"><ele>12.0</ele><time>2026-04-24T08:47:38Z</time></trkpt><trkpt lat="41.032399917771535" lon="14.15547107493455"><ele>12.0</ele><time>2026-04-24T08:47:39Z</time></trkpt><trkpt lat="41.03254292778327" lon="14.155489533178386"><ele>12.0</ele><time>2026-04-24T08:47:40Z</time></trkpt><trkpt lat="41.03268296408572" lon="14.155500913716859"><ele>11.75</ele><time>2026-04-24T08:47:41Z</time></trkpt><trkpt lat="41.03281735833002" lon="14.155518137771951"><ele>11.5</ele><time>2026-04-24T08:47:42Z</time></trkpt><trkpt lat="41.032943857833345" lon="14.155537226343974"><ele>11.25</ele><time>2026-04-24T08:47:43Z</time></trkpt><trkpt lat="41.03306487935433" lon="14.15554366527027"><ele>11.0</ele><time>2026-04-24T08:47:44Z</time></trkpt><trkpt lat="41.033181834414734" lon="14.155551782892267"><ele>11.0</ele><time>2026-04-24T08:47:45Z</time></trkpt><trkpt lat="41.033291126074076" lon="14.155552991158588"><ele>11.0</ele><time>2026-04-24T08:47:46Z</time></trkpt><trkpt lat="41.03340484912851" lon="14.155568260471496"><ele>11.0</ele><time>2026-04-24T08:47:47Z</time></trkpt><trkpt lat="41.03351692874715" lon="14.155591496190596"><ele>11.0</ele><time>2026-04-24T08:47:48Z</time></trkpt><trkpt lat="41.033626925346354" lon="14.15561863837978"><ele>11.0</ele><time>2026-04-24T08:47:49Z</time></trkpt><trkpt lat="41.033731304252576" lon="14.155656075583432"><ele>11.0</ele><time>2026-04-24T08:47:50Z</time></trkpt><trkpt lat="41.0338421171508" lon="14.15569588050249"><ele>11.0</ele><time>2026-04-24T08:47:51Z</time></trkpt><trkpt lat="41.03395666758442" lon="14.155738382407906"><ele>11.0</ele><time>2026-04-24T08:47:52Z</time></trkpt><trkpt lat="41.03407016211578" lon="14.155795662852702"><ele>11.0</ele><time>2026-04-24T08:47:53Z</time></trkpt><trkpt lat="41.03417917034902" lon="14.155862803264615"><ele>11.0</ele><time>2026-04-24T08:47:54Z</time></trkpt><trkpt lat="41.03428724836104" lon="14.155933611062268"><ele>11.0</ele><time>2026-04-24T08:47:55Z</time></trkpt><trkpt lat="41.034385595085496" lon="14.156004254936557"><ele>11.0</ele><time>2026-04-24T08:47:56Z</time></trkpt><trkpt lat="41.03447321581566" lon="14.15606454287121"><ele>11.0</ele><time>2026-04-24T08:47:57Z</time></trkpt><trkpt lat="41.0345526139321" lon="14.156120664260044"><ele>11.0</ele><time>2026-04-24T08:47:58Z</time></trkpt><trkpt lat="41.03462909267308" lon="14.156165467971562"><ele>11.0</ele><time>2026-04-24T08:47:59Z</time></trkpt><trkpt lat="41.03469400075339" lon="14.156205661393829"><ele>11.0</ele><time>2026-04-24T08:48:00Z</time></trkpt><trkpt lat="41.03475774550875" lon="14.156245189886244"><ele>11.0</ele><time>2026-04-24T08:48:01Z</time></trkpt><trkpt lat="41.03482012084433" lon="14.156282746927936"><ele>11.0</ele><time>2026-04-24T08:48:02Z</time></trkpt><trkpt lat="41.034929280310635" lon="14.156348312749717"><ele>11.0</ele><time>2026-04-24T08:48:04Z</time></trkpt><trkpt lat="41.03502303790605" lon="14.156368002244623"><ele>11.0</ele><time>2026-04-24T08:48:06Z</time></trkpt><trkpt lat="41.0351093209182" lon="14.156397530803268"><ele>10.8</ele><time>2026-04-24T08:48:09Z</time></trkpt><trkpt lat="41.035162009182265" lon="14.156247456502014"><ele>10.600000000000001</ele><time>2026-04-24T08:48:12Z</time></trkpt><trkpt lat="41.03515497006952" lon="14.156122177596663"><ele>10.4</ele><time>2026-04-24T08:48:14Z</time></trkpt><trkpt lat="41.03513967706632" lon="14.155956804328593"><ele>10.2</ele><time>2026-04-24T08:48:16Z</time></trkpt><trkpt lat="41.03513033520458" lon="14.155858475081626"><ele>10.0</ele><time>2026-04-24T08:48:17Z</time></trkpt><trkpt lat="41.03511862502484" lon="14.155735217769948"><ele>9.833333333333334</ele><time>2026-04-24T08:48:19Z</time></trkpt><trkpt lat="41.03511035166452" lon="14.155648135223446"><ele>9.666666666666668</ele><time>2026-04-24T08:48:20Z</time></trkpt><trkpt lat="41.03510035898961" lon="14.155542955756523"><ele>9.5</ele><time>2026-04-24T08:48:21Z</time></trkpt><trkpt lat="41.03508988807981" lon="14.1554327425496"><ele>9.333333333333334</ele><time>2026-04-24T08:48:22Z</time></trkpt><trkpt lat="41.03507897057596" lon="14.155317828628233"><ele>9.166666666666666</ele><time>2026-04-24T08:48:23Z</time></trkpt><trkpt lat="41.035067270759185" lon="14.155198042553755"><ele>9.0</ele><time>2026-04-24T08:48:24Z</time></trkpt><trkpt lat="41.03505475057993" lon="14.155072587955232"><ele>9.0</ele><time>2026-04-24T08:48:25Z</time></trkpt><trkpt lat="41.035042369530096" lon="14.15494852745593"><ele>9.0</ele><time>2026-04-24T08:48:26Z</time></trkpt><trkpt lat="41.03503113981244" lon="14.154836003546398"><ele>9.0</ele><time>2026-04-24T08:48:27Z</time></trkpt><trkpt lat="41.035018140796225" lon="14.154705750901629"><ele>9.0</ele><time>2026-04-24T08:48:28Z</time></trkpt><trkpt lat="41.03500526705862" lon="14.154576753633279"><ele>9.0</ele><time>2026-04-24T08:48:29Z</time></trkpt><trkpt lat="41.03499346565118" lon="14.154458501254098"><ele>9.0</ele><time>2026-04-24T08:48:30Z</time></trkpt><trkpt lat="41.034981662839435" lon="14.154340234804259"><ele>9.0</ele><time>2026-04-24T08:48:31Z</time></trkpt><trkpt lat="41.03496973533866" lon="14.154225702208839"><ele>9.0</ele><time>2026-04-24T08:48:32Z</time></trkpt><trkpt lat="41.03495808936868" lon="14.154114768777385"><ele>9.0</ele><time>2026-04-24T08:48:33Z</time></trkpt><trkpt lat="41.034946094858405" lon="14.153998553797642"><ele>9.0</ele><time>2026-04-24T08:48:34Z</time></trkpt><trkpt lat="41.034918206541775" lon="14.153877887282633"><ele>9.0</ele><time>2026-04-24T08:48:35Z</time></trkpt><trkpt lat="41.03491258361745" lon="14.153753154446653"><ele>9.166666666666666</ele><time>2026-04-24T08:48:36Z</time></trkpt><trkpt lat="41.034896904598945" lon="14.153627763609949"><ele>9.333333333333334</ele><time>2026-04-24T08:48:37Z</time></trkpt><trkpt lat="41.0348872454093" lon="14.15351921614316"><ele>9.5</ele><time>2026-04-24T08:48:38Z</time></trkpt><trkpt lat="41.03487677128964" lon="14.153416286151643"><ele>9.666666666666668</ele><time>2026-04-24T08:48:39Z</time></trkpt><trkpt lat="41.03486804580628" lon="14.153322722570577"><ele>9.833333333333334</ele><time>2026-04-24T08:48:40Z</time></trkpt><trkpt lat="41.034871092414" lon="14.15322066354798"><ele>10.0</ele><time>2026-04-24T08:48:41Z</time></trkpt><trkpt lat="41.03484515570263" lon="14.153114103799796"><ele>10.0</ele><time>2026-04-24T08:48:42Z</time></trkpt><trkpt lat="41.03483682675291" lon="14.153000028114716"><ele>10.0</ele><time>2026-04-24T08:48:43Z</time></trkpt><trkpt lat="41.034825529148094" lon="14.152885774664046"><ele>10.0</ele><time>2026-04-24T08:48:44Z</time></trkpt><trkpt lat="41.034815586616595" lon="14.152782764380978"><ele>10.0</ele><time>2026-04-24T08:48:45Z</time></trkpt><trkpt lat="41.03480462229974" lon="14.152689717849238"><ele>10.0</ele><time>2026-04-24T08:48:46Z</time></trkpt><trkpt lat="41.03479195658745" lon="14.152597342844842"><ele>10.0</ele><time>2026-04-24T08:48:47Z</time></trkpt><trkpt lat="41.03478161790715" lon="14.152506244328606"><ele>10.0</ele><time>2026-04-24T08:48:48Z</time></trkpt><trkpt lat="41.03478389521297" lon="14.152408387767512"><ele>10.0</ele><time>2026-04-24T08:48:49Z</time></trkpt><trkpt lat="41.034765059234736" lon="14.152303066836291"><ele>10.0</ele><time>2026-04-24T08:48:50Z</time></trkpt><trkpt lat="41.03476952486326" lon="14.152207371214198"><ele>10.0</ele><time>2026-04-24T08:48:51Z</time></trkpt><trkpt lat="41.0347544631371" lon="14.152097271154352"><ele>10.0</ele><time>2026-04-24T08:48:52Z</time></trkpt><trkpt lat="41.03474661897149" lon="14.152001839195748"><ele>10.0</ele><time>2026-04-24T08:48:53Z</time></trkpt><trkpt lat="41.034744068201014" lon="14.15190804958216"><ele>10.0</ele><time>2026-04-24T08:48:54Z</time></trkpt><trkpt lat="41.03472614774489" lon="14.151827017681605"><ele>10.0</ele><time>2026-04-24T08:48:55Z</time></trkpt><trkpt lat="41.03471411424445" lon="14.151734023916969"><ele>10.0</ele><time>2026-04-24T08:48:56Z</time></trkpt><trkpt lat="41.0347090249166" lon="14.151606039986069"><ele>10.0</ele><time>2026-04-24T08:48:57Z</time></trkpt><trkpt lat="41.03469569662137" lon="14.151516527489816"><ele>10.0</ele><time>2026-04-24T08:48:58Z</time></trkpt><trkpt lat="41.03468510668965" lon="14.151415666203592"><ele>10.0</ele><time>2026-04-24T08:48:59Z</time></trkpt><trkpt lat="41.034679876444216" lon="14.151312793054007"><ele>9.833333333333334</ele><time>2026-04-24T08:49:00Z</time></trkpt><trkpt lat="41.03466505142802" lon="14.151203838078668"><ele>9.666666666666668</ele><time>2026-04-24T08:49:01Z</time></trkpt><trkpt lat="41.034651003365944" lon="14.151097403608512"><ele>9.5</ele><time>2026-04-24T08:49:02Z</time></trkpt><trkpt lat="41.034641598373526" lon="14.15098678380059"><ele>9.333333333333334</ele><time>2026-04-24T08:49:03Z</time></trkpt><trkpt lat="41.034635800897824" lon="14.150872876147648"><ele>9.166666666666666</ele><time>2026-04-24T08:49:04Z</time></trkpt><trkpt lat="41.03462818159202" lon="14.150746350787298"><ele>9.0</ele><time>2026-04-24T08:49:05Z</time></trkpt><trkpt lat="41.03461467513077" lon="14.150605845085934"><ele>9.0</ele><time>2026-04-24T08:49:06Z</time></trkpt><trkpt lat="41.034596483926855" lon="14.150454678982499"><ele>9.0</ele><time>2026-04-24T08:49:07Z</time></trkpt><trkpt lat="41.03457951072941" lon="14.150305246553126"><ele>9.0</ele><time>2026-04-24T08:49:08Z</time></trkpt><trkpt lat="41.034572800472596" lon="14.150152029133922"><ele>9.0</ele><time>2026-04-24T08:49:09Z</time></trkpt><trkpt lat="41.03455114951584" lon="14.149989966418309"><ele>9.0</ele><time>2026-04-24T08:49:10Z</time></trkpt><trkpt lat="41.03454188483463" lon="14.149821343462404"><ele>9.0</ele><time>2026-04-24T08:49:11Z</time></trkpt><trkpt lat="41.03451988679165" lon="14.149657584781485"><ele>9.0</ele><time>2026-04-24T08:49:12Z</time></trkpt><trkpt lat="41.03450314105539" lon="14.149494740992761"><ele>9.0</ele><time>2026-04-24T08:49:13Z</time></trkpt><trkpt lat="41.034486575964586" lon="14.149334472282426"><ele>9.0</ele><time>2026-04-24T08:49:14Z</time></trkpt><trkpt lat="41.03447355163831" lon="14.149167717944247"><ele>9.0</ele><time>2026-04-24T08:49:15Z</time></trkpt><trkpt lat="41.0344517742559" lon="14.148997042482133"><ele>9.0</ele><time>2026-04-24T08:49:16Z</time></trkpt><trkpt lat="41.03443974238921" lon="14.148825354631667"><ele>9.0</ele><time>2026-04-24T08:49:17Z</time></trkpt><trkpt lat="41.03442839713049" lon="14.148653507065436"><ele>9.25</ele><time>2026-04-24T08:49:18Z</time></trkpt><trkpt lat="41.03441213401918" lon="14.14848316910306"><ele>9.5</ele><time>2026-04-24T08:49:19Z</time></trkpt><trkpt lat="41.03441376245358" lon="14.148313065344045"><ele>9.75</ele><time>2026-04-24T08:49:20Z</time></trkpt><trkpt lat="41.034399027786755" lon="14.14814740518537"><ele>10.0</ele><time>2026-04-24T08:49:21Z</time></trkpt><trkpt lat="41.034385428815504" lon="14.147978072807009"><ele>10.0</ele><time>2026-04-24T08:49:22Z</time></trkpt><trkpt lat="41.03435874913152" lon="14.147809883321223"><ele>10.0</ele><time>2026-04-24T08:49:23Z</time></trkpt><trkpt lat="41.03434275779924" lon="14.147640310411028"><ele>10.0</ele><time>2026-04-24T08:49:24Z</time></trkpt><trkpt lat="41.0343270062125" lon="14.147467849248171"><ele>10.0</ele><time>2026-04-24T08:49:25Z</time></trkpt><trkpt lat="41.03431277322536" lon="14.147295707239323"><ele>10.0</ele><time>2026-04-24T08:49:26Z</time></trkpt><trkpt lat="41.0342982310406" lon="14.147124106034218"><ele>10.0</ele><time>2026-04-24T08:49:27Z</time></trkpt><trkpt lat="41.034282709072144" lon="14.146944275560774"><ele>10.0</ele><time>2026-04-24T08:49:28Z</time></trkpt><trkpt lat="41.0342667843943" lon="14.146762991933993"><ele>10.0</ele><time>2026-04-24T08:49:29Z</time></trkpt><trkpt lat="41.03424711395439" lon="14.146584142127699"><ele>10.0</ele><time>2026-04-24T08:49:30Z</time></trkpt><trkpt lat="41.034229387544805" lon="14.146407130251223"><ele>10.0</ele><time>2026-04-24T08:49:31Z</time></trkpt><trkpt lat="41.03420935699921" lon="14.146229275802666"><ele>10.0</ele><time>2026-04-24T08:49:32Z</time></trkpt><trkpt lat="41.03420609860423" lon="14.146053432698563"><ele>10.0</ele><time>2026-04-24T08:49:33Z</time></trkpt><trkpt lat="41.03418831259844" lon="14.145870083147653"><ele>10.0</ele><time>2026-04-24T08:49:34Z</time></trkpt><trkpt lat="41.034155557959956" lon="14.145692419251992"><ele>10.0</ele><time>2026-04-24T08:49:35Z</time></trkpt><trkpt lat="41.03414042577394" lon="14.145517736362892"><ele>10.0</ele><time>2026-04-24T08:49:36Z</time></trkpt><trkpt lat="41.034141529958426" lon="14.145344016184719"><ele>10.0</ele><time>2026-04-24T08:49:37Z</time></trkpt><trkpt lat="41.034115317994946" lon="14.145176957533556"><ele>10.0</ele><time>2026-04-24T08:49:38Z</time></trkpt><trkpt lat="41.034097545632015" lon="14.145010305597761"><ele>10.0</ele><time>2026-04-24T08:49:39Z</time></trkpt><trkpt lat="41.03408433173812" lon="14.144846193802035"><ele>10.0</ele><time>2026-04-24T08:49:40Z</time></trkpt><trkpt lat="41.03407223627288" lon="14.144694005192038"><ele>10.0</ele><time>2026-04-24T08:49:41Z</time></trkpt><trkpt lat="41.034059628141044" lon="14.144551107798181"><ele>10.0</ele><time>2026-04-24T08:49:42Z</time></trkpt><trkpt lat="41.03406344609905" lon="14.144407487792531"><ele>10.0</ele><time>2026-04-24T08:49:43Z</time></trkpt><trkpt lat="41.03405250230066" lon="14.144278691668223"><ele>10.0</ele><time>2026-04-24T08:49:44Z</time></trkpt><trkpt lat="41.03404176347834" lon="14.144161963630609"><ele>10.0</ele><time>2026-04-24T08:49:45Z</time></trkpt><trkpt lat="41.034020797654655" lon="14.144077358808167"><ele>10.0</ele><time>2026-04-24T08:49:46Z</time></trkpt><trkpt lat="41.03400931990115" lon="14.143974183234496"><ele>10.0</ele><time>2026-04-24T08:49:47Z</time></trkpt><trkpt lat="41.034001783218194" lon="14.143881012676797"><ele>10.0</ele><time>2026-04-24T08:49:48Z</time></trkpt><trkpt lat="41.033990884469475" lon="14.14378134567201"><ele>10.0</ele><time>2026-04-24T08:49:49Z</time></trkpt><trkpt lat="41.03398260107743" lon="14.143679968733966"><ele>10.0</ele><time>2026-04-24T08:49:50Z</time></trkpt><trkpt lat="41.03396937065436" lon="14.143592853120724"><ele>10.0</ele><time>2026-04-24T08:49:51Z</time></trkpt><trkpt lat="41.033957901508316" lon="14.143506364812724"><ele>10.0</ele><time>2026-04-24T08:49:52Z</time></trkpt><trkpt lat="41.03396227726592" lon="14.143400863913373"><ele>10.0</ele><time>2026-04-24T08:49:53Z</time></trkpt><trkpt lat="41.03393644326663" lon="14.143284682839392"><ele>10.2</ele><time>2026-04-24T08:49:54Z</time></trkpt><trkpt lat="41.03392383762977" lon="14.143155211009306"><ele>10.4</ele><time>2026-04-24T08:49:55Z</time></trkpt><trkpt lat="41.03391161491496" lon="14.1430194621887"><ele>10.600000000000001</ele><time>2026-04-24T08:49:56Z</time></trkpt><trkpt lat="41.03389735466967" lon="14.142883776081142"><ele>10.8</ele><time>2026-04-24T08:49:57Z</time></trkpt><trkpt lat="41.03388114723962" lon="14.142743597561312"><ele>11.0</ele><time>2026-04-24T08:49:58Z</time></trkpt><trkpt lat="41.033865166985045" lon="14.142602597756262"><ele>11.0</ele><time>2026-04-24T08:49:59Z</time></trkpt><trkpt lat="41.03385285725041" lon="14.142467441235368"><ele>11.0</ele><time>2026-04-24T08:50:00Z</time></trkpt><trkpt lat="41.03384325690742" lon="14.142338310879047"><ele>11.0</ele><time>2026-04-24T08:50:01Z</time></trkpt><trkpt lat="41.033845472292555" lon="14.142213708015033"><ele>11.0</ele><time>2026-04-24T08:50:02Z</time></trkpt><trkpt lat="41.03382109585379" lon="14.142098932086682"><ele>11.0</ele><time>2026-04-24T08:50:03Z</time></trkpt><trkpt lat="41.033808458806895" lon="14.141966962890836"><ele>10.8</ele><time>2026-04-24T08:50:04Z</time></trkpt><trkpt lat="41.03380123844396" lon="14.141864562361155"><ele>10.600000000000001</ele><time>2026-04-24T08:50:05Z</time></trkpt><trkpt lat="41.03379121548614" lon="14.141743678594775"><ele>10.4</ele><time>2026-04-24T08:50:06Z</time></trkpt><trkpt lat="41.0337814718967" lon="14.1416230518375"><ele>10.2</ele><time>2026-04-24T08:50:07Z</time></trkpt><trkpt lat="41.03377213523319" lon="14.141502291426333"><ele>10.0</ele><time>2026-04-24T08:50:08Z</time></trkpt><trkpt lat="41.03375865664427" lon="14.141370568431638"><ele>10.0</ele><time>2026-04-24T08:50:09Z</time></trkpt><trkpt lat="41.03374601399394" lon="14.141227153471606"><ele>10.0</ele><time>2026-04-24T08:50:10Z</time></trkpt><trkpt lat="41.03373078954001" lon="14.141077900820937"><ele>10.0</ele><time>2026-04-24T08:50:11Z</time></trkpt><trkpt lat="41.03371671146475" lon="14.140939340890714"><ele>10.0</ele><time>2026-04-24T08:50:12Z</time></trkpt><trkpt lat="41.03370287650995" lon="14.140790330308345"><ele>10.0</ele><time>2026-04-24T08:50:13Z</time></trkpt><trkpt lat="41.03368566548168" lon="14.140658445128587"><ele>10.0</ele><time>2026-04-24T08:50:14Z</time></trkpt><trkpt lat="41.033659652421534" lon="14.14053187495951"><ele>10.0</ele><time>2026-04-24T08:50:15Z</time></trkpt><trkpt lat="41.03365534519624" lon="14.140417259243176"><ele>10.0</ele><time>2026-04-24T08:50:16Z</time></trkpt><trkpt lat="41.03362868366305" lon="14.140317414187848"><ele>10.0</ele><time>2026-04-24T08:50:17Z</time></trkpt><trkpt lat="41.033618543171606" lon="14.140222415911785"><ele>10.0</ele><time>2026-04-24T08:50:18Z</time></trkpt><trkpt lat="41.03362398452386" lon="14.140108475549116"><ele>10.0</ele><time>2026-04-24T08:50:20Z</time></trkpt><trkpt lat="41.03362764870857" lon="14.140020856676328"><ele>10.0</ele><time>2026-04-24T08:50:30Z</time></trkpt><trkpt lat="41.033757939743" lon="14.14001214369038"><ele>10.0</ele><time>2026-04-24T08:50:33Z</time></trkpt><trkpt lat="41.03383327831014" lon="14.140006812706723"><ele>10.0</ele><time>2026-04-24T08:50:34Z</time></trkpt><trkpt lat="41.033929895871744" lon="14.140003565677162"><ele>10.0</ele><time>2026-04-24T08:50:35Z</time></trkpt><trkpt lat="41.034023415122256" lon="14.139980820003757"><ele>10.0</ele><time>2026-04-24T08:50:36Z</time></trkpt><trkpt lat="41.034126350970986" lon="14.139985478157467"><ele>9.8</ele><time>2026-04-24T08:50:37Z</time></trkpt><trkpt lat="41.03422690169938" lon="14.139992086821898"><ele>9.6</ele><time>2026-04-24T08:50:38Z</time></trkpt><trkpt lat="41.03432746883175" lon="14.140004898216212"><ele>9.4</ele><time>2026-04-24T08:50:39Z</time></trkpt><trkpt lat="41.034429382387934" lon="14.14002178782678"><ele>9.2</ele><time>2026-04-24T08:50:40Z</time></trkpt><trkpt lat="41.034534443194985" lon="14.140050049779164"><ele>9.0</ele><time>2026-04-24T08:50:41Z</time></trkpt><trkpt lat="41.0346416571726" lon="14.140078068416162"><ele>9.0</ele><time>2026-04-24T08:50:42Z</time></trkpt><trkpt lat="41.03475075119755" lon="14.140119414614675"><ele>9.0</ele><time>2026-04-24T08:50:43Z</time></trkpt><trkpt lat="41.034876595402935" lon="14.140149691588778"><ele>9.0</ele><time>2026-04-24T08:50:44Z</time></trkpt><trkpt lat="41.03500888183618" lon="14.14017822393201"><ele>9.0</ele><time>2026-04-24T08:50:45Z</time></trkpt><trkpt lat="41.035155229842665" lon="14.14020419679058"><ele>9.333333333333334</ele><time>2026-04-24T08:50:46Z</time></trkpt><trkpt lat="41.035315489362816" lon="14.14020313880343"><ele>9.666666666666668</ele><time>2026-04-24T08:50:47Z</time></trkpt><trkpt lat="41.03548345502533" lon="14.140236112041928"><ele>10.0</ele><time>2026-04-24T08:50:48Z</time></trkpt><trkpt lat="41.03565029092784" lon="14.140250830711745"><ele>10.0</ele><time>2026-04-24T08:50:49Z</time></trkpt><trkpt lat="41.035818135750965" lon="14.14024987757806"><ele>10.0</ele><time>2026-04-24T08:50:50Z</time></trkpt><trkpt lat="41.03598652077298" lon="14.140244015797046"><ele>10.0</ele><time>2026-04-24T08:50:51Z</time></trkpt><trkpt lat="41.03614566460279" lon="14.140237688413247"><ele>10.0</ele><time>2026-04-24T08:50:52.001Z</time></trkpt><trkpt lat="41.03631173129218" lon="14.140215945123146"><ele>10.0</ele><time>2026-04-24T08:50:53.001Z</time></trkpt><trkpt lat="41.036473939819366" lon="14.140192779374178"><ele>10.0</ele><time>2026-04-24T08:50:54.001Z</time></trkpt><trkpt lat="41.03662708040797" lon="14.140174134335956"><ele>9.75</ele><time>2026-04-24T08:50:55.001Z</time></trkpt><trkpt lat="41.03676946764754" lon="14.140153242354026"><ele>9.5</ele><time>2026-04-24T08:50:56.001Z</time></trkpt><trkpt lat="41.03690437024827" lon="14.140132256675011"><ele>9.25</ele><time>2026-04-24T08:50:57.001Z</time></trkpt><trkpt lat="41.03703932673352" lon="14.140116936858611"><ele>9.0</ele><time>2026-04-24T08:50:58.001Z</time></trkpt><trkpt lat="41.03717457555608" lon="14.140116054828281"><ele>9.0</ele><time>2026-04-24T08:50:59.001Z</time></trkpt><trkpt lat="41.03731060930883" lon="14.140134961454418"><ele>9.0</ele><time>2026-04-24T08:51:00.001Z</time></trkpt><trkpt lat="41.03744272280034" lon="14.140179372313899"><ele>9.0</ele><time>2026-04-24T08:51:01Z</time></trkpt><trkpt lat="41.03757338395508" lon="14.140242774902722"><ele>9.0</ele><time>2026-04-24T08:51:02Z</time></trkpt><trkpt lat="41.03770342426051" lon="14.140319509026678"><ele>8.666666666666666</ele><time>2026-04-24T08:51:03Z</time></trkpt><trkpt lat="41.03783401424114" lon="14.140411294367768"><ele>8.333333333333332</ele><time>2026-04-24T08:51:04Z</time></trkpt><trkpt lat="41.03797082834906" lon="14.140495007793913"><ele>8.0</ele><time>2026-04-24T08:51:05Z</time></trkpt><trkpt lat="41.03811542528382" lon="14.140566754249013"><ele>8.0</ele><time>2026-04-24T08:51:06Z</time></trkpt><trkpt lat="41.03826598173601" lon="14.140624979203638"><ele>8.0</ele><time>2026-04-24T08:51:07Z</time></trkpt><trkpt lat="41.03842465004648" lon="14.140658925742297"><ele>8.0</ele><time>2026-04-24T08:51:08Z</time></trkpt><trkpt lat="41.03858657803985" lon="14.140669985552607"><ele>8.666666666666666</ele><time>2026-04-24T08:51:09Z</time></trkpt><trkpt lat="41.038759336514296" lon="14.14066964138726"><ele>9.333333333333334</ele><time>2026-04-24T08:51:10Z</time></trkpt><trkpt lat="41.03892523628031" lon="14.140661214564792"><ele>10.0</ele><time>2026-04-24T08:51:11Z</time></trkpt><trkpt lat="41.03927802156648" lon="14.140620754271524"><ele>10.0</ele><time>2026-04-24T08:51:13Z</time></trkpt><trkpt lat="41.039450840249124" lon="14.140593275184118"><ele>10.0</ele><time>2026-04-24T08:51:14Z</time></trkpt><trkpt lat="41.03962749054597" lon="14.14056267977707"><ele>10.0</ele><time>2026-04-24T08:51:15Z</time></trkpt><trkpt lat="41.03980384399066" lon="14.140531890866692"><ele>9.666666666666668</ele><time>2026-04-24T08:51:16Z</time></trkpt><trkpt lat="41.03998366758075" lon="14.140494864546337"><ele>9.333333333333334</ele><time>2026-04-24T08:51:17Z</time></trkpt><trkpt lat="41.04016555465364" lon="14.140455142116938"><ele>9.0</ele><time>2026-04-24T08:51:18Z</time></trkpt><trkpt lat="41.04034678655862" lon="14.140414164824236"><ele>9.0</ele><time>2026-04-24T08:51:19Z</time></trkpt><trkpt lat="41.04053209869666" lon="14.140373128137272"><ele>9.0</ele><time>2026-04-24T08:51:20Z</time></trkpt><trkpt lat="41.040719559378964" lon="14.140328841573337"><ele>9.0</ele><time>2026-04-24T08:51:21Z</time></trkpt><trkpt lat="41.040906666357216" lon="14.140284013029849"><ele>8.666666666666666</ele><time>2026-04-24T08:51:22Z</time></trkpt><trkpt lat="41.041094737877565" lon="14.14024117421192"><ele>8.333333333333332</ele><time>2026-04-24T08:51:23Z</time></trkpt><trkpt lat="41.04128128628521" lon="14.14019646542812"><ele>8.0</ele><time>2026-04-24T08:51:24Z</time></trkpt><trkpt lat="41.04146351589938" lon="14.140152728235153"><ele>8.333333333333332</ele><time>2026-04-24T08:51:25Z</time></trkpt><trkpt lat="41.04164472249791" lon="14.14011523814754"><ele>8.666666666666666</ele><time>2026-04-24T08:51:26Z</time></trkpt><trkpt lat="41.0418236036673" lon="14.140090652793535"><ele>9.0</ele><time>2026-04-24T08:51:27Z</time></trkpt><trkpt lat="41.04199905905836" lon="14.140078408877276"><ele>9.0</ele><time>2026-04-24T08:51:28Z</time></trkpt><trkpt lat="41.04217098347014" lon="14.140070732387708"><ele>9.0</ele><time>2026-04-24T08:51:29Z</time></trkpt><trkpt lat="41.042329934794616" lon="14.140071357399172"><ele>9.0</ele><time>2026-04-24T08:51:30Z</time></trkpt><trkpt lat="41.042482445689465" lon="14.140077971438963"><ele>9.0</ele><time>2026-04-24T08:51:31Z</time></trkpt><trkpt lat="41.04263337800981" lon="14.140099331280968"><ele>9.0</ele><time>2026-04-24T08:51:32Z</time></trkpt><trkpt lat="41.042783773784016" lon="14.140127510615939"><ele>9.0</ele><time>2026-04-24T08:51:33Z</time></trkpt><trkpt lat="41.04292941514092" lon="14.140155726143517"><ele>9.0</ele><time>2026-04-24T08:51:34Z</time></trkpt><trkpt lat="41.04306460186826" lon="14.140173513944216"><ele>9.0</ele><time>2026-04-24T08:51:35Z</time></trkpt><trkpt lat="41.04319584824457" lon="14.140196924063234"><ele>9.0</ele><time>2026-04-24T08:51:36Z</time></trkpt><trkpt lat="41.04332172834643" lon="14.140218462800837"><ele>9.0</ele><time>2026-04-24T08:51:37Z</time></trkpt><trkpt lat="41.04344741926971" lon="14.140239179946564"><ele>9.0</ele><time>2026-04-24T08:51:38Z</time></trkpt><trkpt lat="41.04357670869925" lon="14.140255954606316"><ele>9.0</ele><time>2026-04-24T08:51:39Z</time></trkpt><trkpt lat="41.04371025562015" lon="14.140273428418038"><ele>9.0</ele><time>2026-04-24T08:51:40Z</time></trkpt><trkpt lat="41.04384400240014" lon="14.14029365496025"><ele>9.0</ele><time>2026-04-24T08:51:41Z</time></trkpt><trkpt lat="41.04396609682394" lon="14.140315930984901"><ele>9.0</ele><time>2026-04-24T08:51:42Z</time></trkpt><trkpt lat="41.04407730409017" lon="14.140337436898665"><ele>9.0</ele><time>2026-04-24T08:51:43Z</time></trkpt><trkpt lat="41.04416299377706" lon="14.140355657890943"><ele>9.0</ele><time>2026-04-24T08:51:44Z</time></trkpt><trkpt lat="41.04422845277536" lon="14.140371728000451"><ele>9.0</ele><time>2026-04-24T08:51:45Z</time></trkpt><trkpt lat="41.04430488944166" lon="14.140401863213965"><ele>9.0</ele><time>2026-04-24T08:51:47Z</time></trkpt><trkpt lat="41.04420621862042" lon="14.14036416671667"><ele>9.0</ele><time>2026-04-24T08:51:54Z</time></trkpt><trkpt lat="41.04409749642883" lon="14.140339906487036"><ele>9.0</ele><time>2026-04-24T08:51:55Z</time></trkpt><trkpt lat="41.04398327297551" lon="14.140282371877651"><ele>9.0</ele><time>2026-04-24T08:51:56Z</time></trkpt><trkpt lat="41.04387677296327" lon="14.140274196198478"><ele>9.0</ele><time>2026-04-24T08:51:57Z</time></trkpt><trkpt lat="41.04375865623618" lon="14.140256397287347"><ele>9.0</ele><time>2026-04-24T08:51:58Z</time></trkpt><trkpt lat="41.043627240483694" lon="14.140232496260811"><ele>9.0</ele><time>2026-04-24T08:51:59Z</time></trkpt><trkpt lat="41.04349408184689" lon="14.140214328531089"><ele>9.0</ele><time>2026-04-24T08:52:00Z</time></trkpt><trkpt lat="41.04335807488457" lon="14.14019260351737"><ele>9.0</ele><time>2026-04-24T08:52:01Z</time></trkpt><trkpt lat="41.043222180413345" lon="14.140168247069195"><ele>9.0</ele><time>2026-04-24T08:52:02Z</time></trkpt><trkpt lat="41.04308689236891" lon="14.140144914536904"><ele>9.0</ele><time>2026-04-24T08:52:03Z</time></trkpt><trkpt lat="41.0429511527265" lon="14.140123903414887"><ele>9.0</ele><time>2026-04-24T08:52:04Z</time></trkpt><trkpt lat="41.04282112187829" lon="14.140101026739169"><ele>9.0</ele><time>2026-04-24T08:52:05Z</time></trkpt><trkpt lat="41.04270293464413" lon="14.140078783571296"><ele>9.0</ele><time>2026-04-24T08:52:06Z</time></trkpt><trkpt lat="41.04259246590945" lon="14.140061489164669"><ele>9.0</ele><time>2026-04-24T08:52:07Z</time></trkpt><trkpt lat="41.04249921510554" lon="14.140046997089302"><ele>9.0</ele><time>2026-04-24T08:52:08Z</time></trkpt><trkpt lat="41.042429045229625" lon="14.140040222903432"><ele>9.0</ele><time>2026-04-24T08:52:09Z</time></trkpt><trkpt lat="41.04235028069272" lon="14.140036215648854"><ele>9.0</ele><time>2026-04-24T08:52:11Z</time></trkpt><trkpt lat="41.0422873661551" lon="14.140137303355736"><ele>9.0</ele><time>2026-04-24T08:52:17Z</time></trkpt><trkpt lat="41.042301636886606" lon="14.140295462998571"><ele>9.0</ele><time>2026-04-24T08:52:19Z</time></trkpt><trkpt lat="41.04232286216467" lon="14.140485255355296"><ele>9.0</ele><time>2026-04-24T08:52:21Z</time></trkpt><trkpt lat="41.04233551387232" lon="14.140601400442204"><ele>9.0</ele><time>2026-04-24T08:52:22Z</time></trkpt><trkpt lat="41.04234364129498" lon="14.140734240371419"><ele>9.0</ele><time>2026-04-24T08:52:23Z</time></trkpt><trkpt lat="41.042352282468464" lon="14.1408699620064"><ele>9.0</ele><time>2026-04-24T08:52:24Z</time></trkpt><trkpt lat="41.04235897025108" lon="14.14100855932509"><ele>9.0</ele><time>2026-04-24T08:52:25Z</time></trkpt><trkpt lat="41.04236464040359" lon="14.14114653832444"><ele>9.0</ele><time>2026-04-24T08:52:26Z</time></trkpt><trkpt lat="41.04237112567065" lon="14.141283928899584"><ele>9.0</ele><time>2026-04-24T08:52:27Z</time></trkpt><trkpt lat="41.04238333199162" lon="14.1414228223187"><ele>9.0</ele><time>2026-04-24T08:52:28Z</time></trkpt><trkpt lat="41.04239268753513" lon="14.141563571693213"><ele>9.0</ele><time>2026-04-24T08:52:29Z</time></trkpt><trkpt lat="41.04240377899934" lon="14.141708714163634"><ele>9.0</ele><time>2026-04-24T08:52:30Z</time></trkpt><trkpt lat="41.04242031455915" lon="14.141857730752411"><ele>9.0</ele><time>2026-04-24T08:52:31Z</time></trkpt><trkpt lat="41.04243344426118" lon="14.142006211765676"><ele>9.0</ele><time>2026-04-24T08:52:32Z</time></trkpt><trkpt lat="41.04242934512061" lon="14.142116280948416"><ele>9.0</ele><time>2026-04-24T08:52:33Z</time></trkpt><trkpt lat="41.0424336416908" lon="14.142280130377728"><ele>9.0</ele><time>2026-04-24T08:52:34Z</time></trkpt><trkpt lat="41.042449370070756" lon="14.142419874506619"><ele>9.166666666666666</ele><time>2026-04-24T08:52:35Z</time></trkpt><trkpt lat="41.04245922314888" lon="14.142552003082985"><ele>9.333333333333334</ele><time>2026-04-24T08:52:36Z</time></trkpt><trkpt lat="41.04246908700783" lon="14.14267699038741"><ele>9.5</ele><time>2026-04-24T08:52:37Z</time></trkpt><trkpt lat="41.042474630004094" lon="14.142797519974312"><ele>9.666666666666668</ele><time>2026-04-24T08:52:38Z</time></trkpt><trkpt lat="41.04248197903746" lon="14.142906401360888"><ele>9.833333333333334</ele><time>2026-04-24T08:52:39Z</time></trkpt><trkpt lat="41.04248674180532" lon="14.142997949700012"><ele>10.0</ele><time>2026-04-24T08:52:40Z</time></trkpt><trkpt lat="41.04249584775748" lon="14.143140267196236"><ele>10.2</ele><time>2026-04-24T08:52:42Z</time></trkpt><trkpt lat="41.04250215977088" lon="14.143230792041043"><ele>10.4</ele><time>2026-04-24T08:52:44Z</time></trkpt><trkpt lat="41.042514284559616" lon="14.143316762112471"><ele>10.600000000000001</ele><time>2026-04-24T08:52:46Z</time></trkpt><trkpt lat="41.042521644964474" lon="14.143437479483726"><ele>10.8</ele><time>2026-04-24T08:52:48Z</time></trkpt><trkpt lat="41.042532560086634" lon="14.1435889163747"><ele>11.0</ele><time>2026-04-24T08:52:50Z</time></trkpt><trkpt lat="41.04254946746358" lon="14.143742633446832"><ele>11.0</ele><time>2026-04-24T08:52:52Z</time></trkpt><trkpt lat="41.042556668553765" lon="14.14389895449383"><ele>11.0</ele><time>2026-04-24T08:52:54Z</time></trkpt><trkpt lat="41.042565500794986" lon="14.143987267201725"><ele>11.0</ele><time>2026-04-24T08:52:55Z</time></trkpt><trkpt lat="41.04257627039056" lon="14.14408318022225"><ele>11.0</ele><time>2026-04-24T08:52:56Z</time></trkpt><trkpt lat="41.04258473320063" lon="14.144176118891473"><ele>11.0</ele><time>2026-04-24T08:52:57Z</time></trkpt><trkpt lat="41.04258716979914" lon="14.14427096169587"><ele>11.0</ele><time>2026-04-24T08:52:58.001Z</time></trkpt><trkpt lat="41.042591212460536" lon="14.14438167173093"><ele>10.833333333333332</ele><time>2026-04-24T08:52:59.001Z</time></trkpt><trkpt lat="41.04259096045293" lon="14.144475608525592"><ele>10.666666666666666</ele><time>2026-04-24T08:53:00.001Z</time></trkpt><trkpt lat="41.04259666927641" lon="14.144570875681874"><ele>10.5</ele><time>2026-04-24T08:53:01.001Z</time></trkpt><trkpt lat="41.04260410527577" lon="14.14466389588012"><ele>10.333333333333334</ele><time>2026-04-24T08:53:02.001Z</time></trkpt><trkpt lat="41.042602538179686" lon="14.144760826890696"><ele>10.166666666666668</ele><time>2026-04-24T08:53:03.001Z</time></trkpt><trkpt lat="41.042591030199446" lon="14.144916455014215"><ele>10.0</ele><time>2026-04-24T08:53:05.001Z</time></trkpt><trkpt lat="41.042553735399515" lon="14.145067599364452"><ele>10.0</ele><time>2026-04-24T08:53:07.001Z</time></trkpt><trkpt lat="41.042539416259075" lon="14.145158771511161"><ele>10.0</ele><time>2026-04-24T08:53:08.001Z</time></trkpt><trkpt lat="41.042529928117084" lon="14.14525386138714"><ele>10.0</ele><time>2026-04-24T08:53:09.001Z</time></trkpt><trkpt lat="41.04251732066707" lon="14.145356728830377"><ele>10.0</ele><time>2026-04-24T08:53:10.001Z</time></trkpt><trkpt lat="41.04250142704571" lon="14.145475119649126"><ele>10.0</ele><time>2026-04-24T08:53:11.001Z</time></trkpt><trkpt lat="41.0424859331079" lon="14.145599270363544"><ele>10.0</ele><time>2026-04-24T08:53:12.001Z</time></trkpt><trkpt lat="41.042467668294904" lon="14.145738177559776"><ele>9.75</ele><time>2026-04-24T08:53:13.001Z</time></trkpt><trkpt lat="41.04244978768758" lon="14.145881443913932"><ele>9.5</ele><time>2026-04-24T08:53:14.001Z</time></trkpt><trkpt lat="41.04242675805393" lon="14.146039694876613"><ele>9.25</ele><time>2026-04-24T08:53:15.001Z</time></trkpt><trkpt lat="41.04241086281286" lon="14.146199357829682"><ele>9.0</ele><time>2026-04-24T08:53:16.001Z</time></trkpt><trkpt lat="41.04239339803739" lon="14.146365511878331"><ele>9.0</ele><time>2026-04-24T08:53:17.001Z</time></trkpt><trkpt lat="41.042375080502524" lon="14.146528396171027"><ele>9.0</ele><time>2026-04-24T08:53:18.001Z</time></trkpt><trkpt lat="41.042358040900815" lon="14.14668249947733"><ele>9.0</ele><time>2026-04-24T08:53:19.001Z</time></trkpt><trkpt lat="41.042342466405564" lon="14.14683207998416"><ele>9.0</ele><time>2026-04-24T08:53:20.001Z</time></trkpt><trkpt lat="41.042325661759946" lon="14.14698217817669"><ele>9.0</ele><time>2026-04-24T08:53:21.001Z</time></trkpt><trkpt lat="41.0423038601845" lon="14.147133356322003"><ele>9.0</ele><time>2026-04-24T08:53:22.001Z</time></trkpt><trkpt lat="41.04228076708205" lon="14.147278567621225"><ele>9.0</ele><time>2026-04-24T08:53:23.001Z</time></trkpt><trkpt lat="41.04226669341674" lon="14.147426311037464"><ele>9.0</ele><time>2026-04-24T08:53:24.001Z</time></trkpt><trkpt lat="41.04225568017018" lon="14.14757482463017"><ele>9.0</ele><time>2026-04-24T08:53:25.001Z</time></trkpt><trkpt lat="41.04224160032179" lon="14.14771962680859"><ele>9.0</ele><time>2026-04-24T08:53:26.001Z</time></trkpt><trkpt lat="41.04222327535009" lon="14.147865731909048"><ele>9.0</ele><time>2026-04-24T08:53:27.001Z</time></trkpt><trkpt lat="41.04220643378272" lon="14.148012426720818"><ele>9.0</ele><time>2026-04-24T08:53:28.001Z</time></trkpt><trkpt lat="41.04219350700661" lon="14.148154068350895"><ele>9.0</ele><time>2026-04-24T08:53:29.001Z</time></trkpt><trkpt lat="41.04217924666576" lon="14.148303532698922"><ele>9.0</ele><time>2026-04-24T08:53:30.001Z</time></trkpt><trkpt lat="41.042164531700934" lon="14.148445963242605"><ele>9.0</ele><time>2026-04-24T08:53:31Z</time></trkpt><trkpt lat="41.04215198164596" lon="14.14859366735135"><ele>9.0</ele><time>2026-04-24T08:53:32Z</time></trkpt><trkpt lat="41.04213815905086" lon="14.148741268949326"><ele>9.0</ele><time>2026-04-24T08:53:33Z</time></trkpt><trkpt lat="41.0421204602531" lon="14.148876585426349"><ele>9.0</ele><time>2026-04-24T08:53:34Z</time></trkpt><trkpt lat="41.04210253275238" lon="14.14901743492093"><ele>9.2</ele><time>2026-04-24T08:53:35Z</time></trkpt><trkpt lat="41.04208925928397" lon="14.149158171268716"><ele>9.4</ele><time>2026-04-24T08:53:36Z</time></trkpt><trkpt lat="41.04207323410763" lon="14.149291856293711"><ele>9.6</ele><time>2026-04-24T08:53:37Z</time></trkpt><trkpt lat="41.04205812923696" lon="14.14943054736534"><ele>9.8</ele><time>2026-04-24T08:53:38Z</time></trkpt><trkpt lat="41.042049209560716" lon="14.149574991418019"><ele>10.0</ele><time>2026-04-24T08:53:39Z</time></trkpt><trkpt lat="41.04203584203154" lon="14.149719190148678"><ele>10.0</ele><time>2026-04-24T08:53:40Z</time></trkpt><trkpt lat="41.0420220780927" lon="14.149860397116683"><ele>10.0</ele><time>2026-04-24T08:53:41Z</time></trkpt><trkpt lat="41.042010672775696" lon="14.150001754442453"><ele>10.0</ele><time>2026-04-24T08:53:42Z</time></trkpt><trkpt lat="41.04199816019103" lon="14.150138131416199"><ele>10.0</ele><time>2026-04-24T08:53:43Z</time></trkpt><trkpt lat="41.04198407584841" lon="14.150274465709565"><ele>10.0</ele><time>2026-04-24T08:53:44Z</time></trkpt><trkpt lat="41.041969591249924" lon="14.150414718714842"><ele>10.25</ele><time>2026-04-24T08:53:45Z</time></trkpt><trkpt lat="41.04195454173186" lon="14.150560829682668"><ele>10.5</ele><time>2026-04-24T08:53:46Z</time></trkpt><trkpt lat="41.041939382027074" lon="14.15071180366201"><ele>10.75</ele><time>2026-04-24T08:53:47Z</time></trkpt><trkpt lat="41.04192312771255" lon="14.150865516094289"><ele>11.0</ele><time>2026-04-24T08:53:48Z</time></trkpt><trkpt lat="41.041908505755764" lon="14.151011910549633"><ele>11.0</ele><time>2026-04-24T08:53:49Z</time></trkpt><trkpt lat="41.04189777581961" lon="14.151139471010655"><ele>11.0</ele><time>2026-04-24T08:53:50Z</time></trkpt><trkpt lat="41.04188757223672" lon="14.15125662674542"><ele>11.0</ele><time>2026-04-24T08:53:51Z</time></trkpt><trkpt lat="41.04187848511108" lon="14.151356007539595"><ele>11.0</ele><time>2026-04-24T08:53:52Z</time></trkpt><trkpt lat="41.04186886861885" lon="14.151445507860362"><ele>11.0</ele><time>2026-04-24T08:53:53Z</time></trkpt><trkpt lat="41.04184630618965" lon="14.151596282986032"><ele>11.0</ele><time>2026-04-24T08:53:55Z</time></trkpt><trkpt lat="41.04183604292384" lon="14.151678746491104"><ele>11.0</ele><time>2026-04-24T08:53:56Z</time></trkpt><trkpt lat="41.04183074258475" lon="14.151767764217054"><ele>11.0</ele><time>2026-04-24T08:53:57Z</time></trkpt><trkpt lat="41.041832423380875" lon="14.151854305667822"><ele>11.0</ele><time>2026-04-24T08:53:58Z</time></trkpt><trkpt lat="41.041852784855394" lon="14.151935784948822"><ele>11.0</ele><time>2026-04-24T08:53:59Z</time></trkpt><trkpt lat="41.04188686589022" lon="14.152032304573947"><ele>11.0</ele><time>2026-04-24T08:54:00Z</time></trkpt><trkpt lat="41.04192476219297" lon="14.152131785088324"><ele>11.0</ele><time>2026-04-24T08:54:01Z</time></trkpt><trkpt lat="41.04196923240775" lon="14.152229918691193"><ele>11.0</ele><time>2026-04-24T08:54:02Z</time></trkpt><trkpt lat="41.042020606944746" lon="14.152332706757768"><ele>10.833333333333332</ele><time>2026-04-24T08:54:03Z</time></trkpt><trkpt lat="41.04207565432377" lon="14.152438651221987"><ele>10.666666666666666</ele><time>2026-04-24T08:54:04Z</time></trkpt><trkpt lat="41.04212894401016" lon="14.152533592130881"><ele>10.5</ele><time>2026-04-24T08:54:05Z</time></trkpt><trkpt lat="41.042177568334836" lon="14.152616360889636"><ele>10.333333333333334</ele><time>2026-04-24T08:54:06Z</time></trkpt><trkpt lat="41.04222435074228" lon="14.152693741624141"><ele>10.166666666666668</ele><time>2026-04-24T08:54:07Z</time></trkpt><trkpt lat="41.04229557092045" lon="14.152802974744684"><ele>10.0</ele><time>2026-04-24T08:54:09Z</time></trkpt><trkpt lat="41.04233230854029" lon="14.152929723939717"><ele>10.0</ele><time>2026-04-24T08:54:11Z</time></trkpt><trkpt lat="41.04233121443699" lon="14.153061562699728"><ele>10.0</ele><time>2026-04-24T08:54:13Z</time></trkpt><trkpt lat="41.04227518133018" lon="14.153159932166716"><ele>10.0</ele><time>2026-04-24T08:54:15Z</time></trkpt><trkpt lat="41.04220766275288" lon="14.153149415346679"><ele>10.0</ele><time>2026-04-24T08:54:16Z</time></trkpt><trkpt lat="41.04208981845317" lon="14.15315379364309"><ele>10.0</ele><time>2026-04-24T08:54:18Z</time></trkpt><trkpt lat="41.0420003112049" lon="14.153162185140152"><ele>10.0</ele><time>2026-04-24T08:54:19Z</time></trkpt><trkpt lat="41.041917681999934" lon="14.153175156508599"><ele>10.0</ele><time>2026-04-24T08:54:20Z</time></trkpt><trkpt lat="41.04182813595316" lon="14.153195532780732"><ele>10.0</ele><time>2026-04-24T08:54:21Z</time></trkpt><trkpt lat="41.04174663816831" lon="14.153209260596821"><ele>10.0</ele><time>2026-04-24T08:54:22Z</time></trkpt><trkpt lat="41.04166142219801" lon="14.153211653899799"><ele>10.0</ele><time>2026-04-24T08:54:23Z</time></trkpt><trkpt lat="41.04157423176385" lon="14.153210081547066"><ele>10.0</ele><time>2026-04-24T08:54:24Z</time></trkpt><trkpt lat="41.04148574040873" lon="14.153220044434981"><ele>10.0</ele><time>2026-04-24T08:54:25Z</time></trkpt><trkpt lat="41.04139756446211" lon="14.153229971629264"><ele>10.0</ele><time>2026-04-24T08:54:26Z</time></trkpt><trkpt lat="41.04130703971502" lon="14.153240156847128"><ele>10.0</ele><time>2026-04-24T08:54:27Z</time></trkpt><trkpt lat="41.04122305774944" lon="14.15325497554477"><ele>10.0</ele><time>2026-04-24T08:54:28Z</time></trkpt><trkpt lat="41.04115135087942" lon="14.153269796886052"><ele>10.0</ele><time>2026-04-24T08:54:29Z</time></trkpt><trkpt lat="41.04103468953582" lon="14.153293032662082"><ele>10.0</ele><time>2026-04-24T08:54:31Z</time></trkpt><trkpt lat="41.040947587444585" lon="14.15330838503519"><ele>10.0</ele><time>2026-04-24T08:54:33Z</time></trkpt><trkpt lat="41.04087464695759" lon="14.15337520897424"><ele>10.0</ele><time>2026-04-24T08:54:35Z</time></trkpt><trkpt lat="41.04085573051374" lon="14.153498057912692"><ele>10.0</ele><time>2026-04-24T08:54:37Z</time></trkpt><trkpt lat="41.040894818382405" lon="14.153625304404105"><ele>10.0</ele><time>2026-04-24T08:54:39Z</time></trkpt><trkpt lat="41.040923713740725" lon="14.153805657667558"><ele>10.0</ele><time>2026-04-24T08:54:41Z</time></trkpt><trkpt lat="41.04094815322864" lon="14.153913566699009"><ele>10.0</ele><time>2026-04-24T08:54:42Z</time></trkpt><trkpt lat="41.040973917996645" lon="14.15402187021612"><ele>10.0</ele><time>2026-04-24T08:54:43Z</time></trkpt><trkpt lat="41.04100039974405" lon="14.154132262457217"><ele>10.0</ele><time>2026-04-24T08:54:44Z</time></trkpt><trkpt lat="41.04102089711953" lon="14.154232681208871"><ele>10.0</ele><time>2026-04-24T08:54:45Z</time></trkpt><trkpt lat="41.04103787238482" lon="14.154340374274511"><ele>10.0</ele><time>2026-04-24T08:54:46Z</time></trkpt><trkpt lat="41.04105494791231" lon="14.154430954923745"><ele>10.0</ele><time>2026-04-24T08:54:47Z</time></trkpt><trkpt lat="41.04106764088366" lon="14.154526786777934"><ele>10.0</ele><time>2026-04-24T08:54:48Z</time></trkpt><trkpt lat="41.0410776445972" lon="14.154620921673258"><ele>10.0</ele><time>2026-04-24T08:54:49Z</time></trkpt><trkpt lat="41.04110513617106" lon="14.154732174311235"><ele>10.0</ele><time>2026-04-24T08:54:50Z</time></trkpt><trkpt lat="41.041128781231976" lon="14.154843747385325"><ele>10.0</ele><time>2026-04-24T08:54:51Z</time></trkpt><trkpt lat="41.04114995558334" lon="14.154958378197426"><ele>10.0</ele><time>2026-04-24T08:54:52Z</time></trkpt><trkpt lat="41.04116721710165" lon="14.155076765921523"><ele>10.0</ele><time>2026-04-24T08:54:53Z</time></trkpt><trkpt lat="41.04118702852768" lon="14.155208609763232"><ele>10.0</ele><time>2026-04-24T08:54:54Z</time></trkpt><trkpt lat="41.04120509354213" lon="14.155335436263647"><ele>10.0</ele><time>2026-04-24T08:54:55Z</time></trkpt><trkpt lat="41.04123005219636" lon="14.155455278834811"><ele>10.0</ele><time>2026-04-24T08:54:56Z</time></trkpt><trkpt lat="41.04125940547853" lon="14.155561102175907"><ele>10.0</ele><time>2026-04-24T08:54:57Z</time></trkpt><trkpt lat="41.04128581004742" lon="14.15566409252482"><ele>9.833333333333334</ele><time>2026-04-24T08:54:58Z</time></trkpt><trkpt lat="41.04130155812204" lon="14.155768687504139"><ele>9.666666666666668</ele><time>2026-04-24T08:54:59Z</time></trkpt><trkpt lat="41.04131603957691" lon="14.155868187427181"><ele>9.5</ele><time>2026-04-24T08:55:00Z</time></trkpt><trkpt lat="41.041322147527836" lon="14.155963073958585"><ele>9.333333333333334</ele><time>2026-04-24T08:55:01Z</time></trkpt><trkpt lat="41.04136358855238" lon="14.156058819331848"><ele>9.166666666666666</ele><time>2026-04-24T08:55:02Z</time></trkpt><trkpt lat="41.04139626926199" lon="14.156134479820961"><ele>9.0</ele><time>2026-04-24T08:55:03Z</time></trkpt><trkpt lat="41.04142406623774" lon="14.156228758815555"><ele>9.0</ele><time>2026-04-24T08:55:05.002Z</time></trkpt><trkpt lat="41.041450495395274" lon="14.15630937541499"><ele>9.0</ele><time>2026-04-24T08:55:09.002Z</time></trkpt><trkpt lat="41.04150949083177" lon="14.156346382574075"><ele>9.0</ele><time>2026-04-24T08:55:35.001Z</time></trkpt><trkpt lat="41.0415590021686" lon="14.156467530831497"><ele>9.0</ele><time>2026-04-24T08:55:37.001Z</time></trkpt><trkpt lat="41.0415876633459" lon="14.156543211174377"><ele>9.0</ele><time>2026-04-24T08:55:38.001Z</time></trkpt><trkpt lat="41.041623869108975" lon="14.156637062563906"><ele>9.0</ele><time>2026-04-24T08:55:39.001Z</time></trkpt><trkpt lat="41.041658527441335" lon="14.156736760728617"><ele>9.5</ele><time>2026-04-24T08:55:40.001Z</time></trkpt><trkpt lat="41.04169130995839" lon="14.156834906129799"><ele>10.0</ele><time>2026-04-24T08:55:41.001Z</time></trkpt><trkpt lat="41.04171963219128" lon="14.156913497968393"><ele>10.5</ele><time>2026-04-24T08:55:42.001Z</time></trkpt><trkpt lat="41.041791904313925" lon="14.157075925097574"><ele>11.0</ele><time>2026-04-24T08:55:44.001Z</time></trkpt><trkpt lat="41.04182938027184" lon="14.15715521967683"><ele>11.5</ele><time>2026-04-24T08:55:45.001Z</time></trkpt><trkpt lat="41.04185484896234" lon="14.157234864033178"><ele>12.0</ele><time>2026-04-24T08:55:46.001Z</time></trkpt><trkpt lat="41.04188385599083" lon="14.157314609579105"><ele>11.833333333333334</ele><time>2026-04-24T08:55:47.001Z</time></trkpt><trkpt lat="41.04191205078562" lon="14.157401604595933"><ele>11.666666666666666</ele><time>2026-04-24T08:55:48.001Z</time></trkpt><trkpt lat="41.04193700581579" lon="14.157482239493046"><ele>11.5</ele><time>2026-04-24T08:55:49Z</time></trkpt><trkpt lat="41.041969767127405" lon="14.157564116315736"><ele>11.333333333333332</ele><time>2026-04-24T08:55:50Z</time></trkpt><trkpt lat="41.04200215213324" lon="14.157644112484926"><ele>11.166666666666666</ele><time>2026-04-24T08:55:51Z</time></trkpt><trkpt lat="41.04203796788792" lon="14.157736063907366"><ele>11.0</ele><time>2026-04-24T08:55:52Z</time></trkpt><trkpt lat="41.04209293947323" lon="14.15789103766429"><ele>11.0</ele><time>2026-04-24T08:55:54Z</time></trkpt><trkpt lat="41.04215496919585" lon="14.158051491726216"><ele>11.0</ele><time>2026-04-24T08:55:56Z</time></trkpt><trkpt lat="41.042185494107585" lon="14.158143907675855"><ele>11.0</ele><time>2026-04-24T08:55:57Z</time></trkpt><trkpt lat="41.04221763250795" lon="14.158234462376162"><ele>11.0</ele><time>2026-04-24T08:55:58Z</time></trkpt><trkpt lat="41.042252502274245" lon="14.158337298301854"><ele>11.0</ele><time>2026-04-24T08:55:59Z</time></trkpt><trkpt lat="41.042275603715204" lon="14.158438296589287"><ele>10.8</ele><time>2026-04-24T08:56:00Z</time></trkpt><trkpt lat="41.04229300040575" lon="14.158552826776592"><ele>10.600000000000001</ele><time>2026-04-24T08:56:01Z</time></trkpt><trkpt lat="41.04230092472691" lon="14.158673544041289"><ele>10.4</ele><time>2026-04-24T08:56:02Z</time></trkpt><trkpt lat="41.04230651499213" lon="14.158798315390909"><ele>10.2</ele><time>2026-04-24T08:56:03Z</time></trkpt><trkpt lat="41.042316147047515" lon="14.158924581962312"><ele>10.0</ele><time>2026-04-24T08:56:04Z</time></trkpt><trkpt lat="41.04232880455677" lon="14.159056758000794"><ele>10.0</ele><time>2026-04-24T08:56:05Z</time></trkpt><trkpt lat="41.04234208675713" lon="14.159177778568054"><ele>10.0</ele><time>2026-04-24T08:56:06Z</time></trkpt><trkpt lat="41.04234997455474" lon="14.15929046779903"><ele>10.0</ele><time>2026-04-24T08:56:07Z</time></trkpt><trkpt lat="41.042356913473476" lon="14.159390129331653"><ele>10.0</ele><time>2026-04-24T08:56:08Z</time></trkpt><trkpt lat="41.04236909811759" lon="14.159483438890435"><ele>10.0</ele><time>2026-04-24T08:56:09Z</time></trkpt><trkpt lat="41.04236306037437" lon="14.159671479678615"><ele>10.0</ele><time>2026-04-24T08:56:11Z</time></trkpt><trkpt lat="41.04234829855212" lon="14.159784763781136"><ele>10.0</ele><time>2026-04-24T08:56:12Z</time></trkpt><trkpt lat="41.0423273571349" lon="14.159904369810507"><ele>10.0</ele><time>2026-04-24T08:56:13Z</time></trkpt><trkpt lat="41.04230572230838" lon="14.16003603893061"><ele>10.0</ele><time>2026-04-24T08:56:14Z</time></trkpt><trkpt lat="41.04228233674634" lon="14.160175699122622"><ele>10.0</ele><time>2026-04-24T08:56:15Z</time></trkpt><trkpt lat="41.042260648279026" lon="14.160303605653016"><ele>10.0</ele><time>2026-04-24T08:56:16Z</time></trkpt><trkpt lat="41.04224121102083" lon="14.16042966764969"><ele>10.0</ele><time>2026-04-24T08:56:17Z</time></trkpt><trkpt lat="41.04222052976497" lon="14.16055643497339"><ele>10.0</ele><time>2026-04-24T08:56:18Z</time></trkpt><trkpt lat="41.0421997337244" lon="14.160677950668722"><ele>10.0</ele><time>2026-04-24T08:56:19Z</time></trkpt><trkpt lat="41.04217945625929" lon="14.160794206195634"><ele>10.0</ele><time>2026-04-24T08:56:20Z</time></trkpt><trkpt lat="41.04215363126703" lon="14.160914130942706"><ele>10.0</ele><time>2026-04-24T08:56:21Z</time></trkpt><trkpt lat="41.04212245273172" lon="14.161033408774006"><ele>10.0</ele><time>2026-04-24T08:56:22Z</time></trkpt><trkpt lat="41.042079744472765" lon="14.161154412020919"><ele>10.0</ele><time>2026-04-24T08:56:23Z</time></trkpt><trkpt lat="41.04203850115108" lon="14.161285200590553"><ele>10.0</ele><time>2026-04-24T08:56:24Z</time></trkpt><trkpt lat="41.04200112694544" lon="14.161420214306254"><ele>10.0</ele><time>2026-04-24T08:56:25Z</time></trkpt><trkpt lat="41.04196134416378" lon="14.161554536521777"><ele>10.0</ele><time>2026-04-24T08:56:26Z</time></trkpt><trkpt lat="41.04191667550435" lon="14.161686444520706"><ele>10.0</ele><time>2026-04-24T08:56:27Z</time></trkpt><trkpt lat="41.04187455134971" lon="14.161823240904624"><ele>10.0</ele><time>2026-04-24T08:56:28Z</time></trkpt><trkpt lat="41.04182252352625" lon="14.161950353809916"><ele>10.0</ele><time>2026-04-24T08:56:29Z</time></trkpt><trkpt lat="41.041780951137795" lon="14.1620843568363"><ele>10.0</ele><time>2026-04-24T08:56:30Z</time></trkpt><trkpt lat="41.04173919738731" lon="14.162213425641928"><ele>10.0</ele><time>2026-04-24T08:56:31Z</time></trkpt><trkpt lat="41.04169963516001" lon="14.162341182959326"><ele>10.0</ele><time>2026-04-24T08:56:32Z</time></trkpt><trkpt lat="41.04165578273935" lon="14.162475012095856"><ele>10.0</ele><time>2026-04-24T08:56:33Z</time></trkpt><trkpt lat="41.041614953352614" lon="14.162609899550853"><ele>10.0</ele><time>2026-04-24T08:56:34Z</time></trkpt><trkpt lat="41.04157382929566" lon="14.162744398239672"><ele>10.0</ele><time>2026-04-24T08:56:35Z</time></trkpt><trkpt lat="41.04153310259978" lon="14.162867833193188"><ele>10.0</ele><time>2026-04-24T08:56:36Z</time></trkpt><trkpt lat="41.04149339479751" lon="14.16298776017715"><ele>10.0</ele><time>2026-04-24T08:56:37Z</time></trkpt><trkpt lat="41.04145112976257" lon="14.163114712317961"><ele>10.0</ele><time>2026-04-24T08:56:38Z</time></trkpt><trkpt lat="41.04140757309792" lon="14.16323767525581"><ele>10.0</ele><time>2026-04-24T08:56:39Z</time></trkpt><trkpt lat="41.041371199283915" lon="14.163363023263189"><ele>10.0</ele><time>2026-04-24T08:56:40Z</time></trkpt><trkpt lat="41.041336832569996" lon="14.163490690599144"><ele>10.0</ele><time>2026-04-24T08:56:41Z</time></trkpt><trkpt lat="41.04130072875634" lon="14.163621256397551"><ele>10.0</ele><time>2026-04-24T08:56:42Z</time></trkpt><trkpt lat="41.0412618502408" lon="14.16374296423828"><ele>10.0</ele><time>2026-04-24T08:56:43Z</time></trkpt><trkpt lat="41.041219347758094" lon="14.163865360859399"><ele>10.0</ele><time>2026-04-24T08:56:44Z</time></trkpt><trkpt lat="41.04117647321714" lon="14.163982564314466"><ele>10.0</ele><time>2026-04-24T08:56:45Z</time></trkpt><trkpt lat="41.0411614348086" lon="14.164065738868132"><ele>10.2</ele><time>2026-04-24T08:56:46Z</time></trkpt><trkpt lat="41.04113277483064" lon="14.164150428693242"><ele>10.4</ele><time>2026-04-24T08:56:47Z</time></trkpt><trkpt lat="41.041097979948255" lon="14.164267530346137"><ele>10.600000000000001</ele><time>2026-04-24T08:56:49Z</time></trkpt><trkpt lat="41.041077946033134" lon="14.164385074717421"><ele>10.8</ele><time>2026-04-24T08:56:51Z</time></trkpt><trkpt lat="41.04110990618378" lon="14.164507362275302"><ele>11.0</ele><time>2026-04-24T08:56:53Z</time></trkpt><trkpt lat="41.041157633388494" lon="14.16464492193996"><ele>11.0</ele><time>2026-04-24T08:56:55Z</time></trkpt><trkpt lat="41.04117948501154" lon="14.164792444680087"><ele>11.0</ele><time>2026-04-24T08:56:57Z</time></trkpt><trkpt lat="41.04115518631958" lon="14.164961932238475"><ele>11.0</ele><time>2026-04-24T08:56:59Z</time></trkpt><trkpt lat="41.041130816495766" lon="14.165059567575959"><ele>11.0</ele><time>2026-04-24T08:57:00Z</time></trkpt><trkpt lat="41.041099811129705" lon="14.165169350425897"><ele>11.0</ele><time>2026-04-24T08:57:01Z</time></trkpt><trkpt lat="41.04107494311449" lon="14.165268956032303"><ele>11.0</ele><time>2026-04-24T08:57:02Z</time></trkpt><trkpt lat="41.04104897082156" lon="14.165374500916588"><ele>11.0</ele><time>2026-04-24T08:57:03Z</time></trkpt><trkpt lat="41.041026057863554" lon="14.165470611635063"><ele>11.0</ele><time>2026-04-24T08:57:04Z</time></trkpt><trkpt lat="41.04101084325563" lon="14.16556577926692"><ele>11.0</ele><time>2026-04-24T08:57:05Z</time></trkpt><trkpt lat="41.04099103409937" lon="14.165655534694892"><ele>11.0</ele><time>2026-04-24T08:57:06Z</time></trkpt><trkpt lat="41.04097320638834" lon="14.165740247936363"><ele>11.0</ele><time>2026-04-24T08:57:07Z</time></trkpt><trkpt lat="41.040937871364186" lon="14.165889077860118"><ele>11.4</ele><time>2026-04-24T08:57:09Z</time></trkpt><trkpt lat="41.04089434414708" lon="14.165989781206171"><ele>11.8</ele><time>2026-04-24T08:57:11.002Z</time></trkpt><trkpt lat="41.040879701455346" lon="14.166096036553585"><ele>12.200000000000001</ele><time>2026-04-24T08:57:12.002Z</time></trkpt><trkpt lat="41.04086030652752" lon="14.166187876455528"><ele>12.600000000000001</ele><time>2026-04-24T08:57:13.002Z</time></trkpt><trkpt lat="41.040838042141374" lon="14.166281619282856"><ele>13.0</ele><time>2026-04-24T08:57:14.002Z</time></trkpt><trkpt lat="41.04080122456318" lon="14.166458051170068"><ele>12.666666666666666</ele><time>2026-04-24T08:57:16.002Z</time></trkpt><trkpt lat="41.040776628823735" lon="14.166562654735511"><ele>12.333333333333332</ele><time>2026-04-24T08:57:17.002Z</time></trkpt><trkpt lat="41.040747813937024" lon="14.16666174091756"><ele>12.0</ele><time>2026-04-24T08:57:18.001Z</time></trkpt><trkpt lat="41.04072453005859" lon="14.166750727575083"><ele>11.666666666666666</ele><time>2026-04-24T08:57:19.001Z</time></trkpt><trkpt lat="41.040703467359116" lon="14.166838300323592"><ele>11.333333333333332</ele><time>2026-04-24T08:57:20.001Z</time></trkpt><trkpt lat="41.04067801821718" lon="14.166937422440482"><ele>11.0</ele><time>2026-04-24T08:57:21.001Z</time></trkpt><trkpt lat="41.040652777782284" lon="14.16703911045304"><ele>11.0</ele><time>2026-04-24T08:57:22.001Z</time></trkpt><trkpt lat="41.04062397196962" lon="14.167133017934107"><ele>11.0</ele><time>2026-04-24T08:57:23.001Z</time></trkpt><trkpt lat="41.04058645105762" lon="14.167243692917035"><ele>11.0</ele><time>2026-04-24T08:57:24.001Z</time></trkpt><trkpt lat="41.04056671190176" lon="14.167332210071162"><ele>11.0</ele><time>2026-04-24T08:57:25.001Z</time></trkpt><trkpt lat="41.0405455647803" lon="14.167432329679606"><ele>11.0</ele><time>2026-04-24T08:57:26.001Z</time></trkpt><trkpt lat="41.04051971974901" lon="14.16754204037502"><ele>11.0</ele><time>2026-04-24T08:57:27.001Z</time></trkpt><trkpt lat="41.0404890614662" lon="14.167643824719924"><ele>11.0</ele><time>2026-04-24T08:57:28.001Z</time></trkpt><trkpt lat="41.04046227769243" lon="14.167757246599223"><ele>11.0</ele><time>2026-04-24T08:57:29.001Z</time></trkpt><trkpt lat="41.04043642407849" lon="14.167870079771948"><ele>11.0</ele><time>2026-04-24T08:57:30.001Z</time></trkpt><trkpt lat="41.040406089398736" lon="14.167976486647621"><ele>11.0</ele><time>2026-04-24T08:57:31.001Z</time></trkpt><trkpt lat="41.04036683971253" lon="14.168125133940196"><ele>11.0</ele><time>2026-04-24T08:57:32.001Z</time></trkpt><trkpt lat="41.040340264906526" lon="14.168213563473186"><ele>11.0</ele><time>2026-04-24T08:57:33.001Z</time></trkpt><trkpt lat="41.04031651892272" lon="14.168325416067617"><ele>11.0</ele><time>2026-04-24T08:57:34.001Z</time></trkpt><trkpt lat="41.04028656859778" lon="14.16845471266064"><ele>11.0</ele><time>2026-04-24T08:57:35.001Z</time></trkpt><trkpt lat="41.040245898531275" lon="14.16858736116068"><ele>11.0</ele><time>2026-04-24T08:57:36.001Z</time></trkpt><trkpt lat="41.040213080119166" lon="14.168720082235822"><ele>11.0</ele><time>2026-04-24T08:57:37.001Z</time></trkpt><trkpt lat="41.04018043373907" lon="14.168855613133873"><ele>11.0</ele><time>2026-04-24T08:57:38.001Z</time></trkpt><trkpt lat="41.04014420068242" lon="14.168992717952614"><ele>11.0</ele><time>2026-04-24T08:57:39.001Z</time></trkpt><trkpt lat="41.04010979421889" lon="14.169139365401772"><ele>11.0</ele><time>2026-04-24T08:57:40.001Z</time></trkpt><trkpt lat="41.04007443692604" lon="14.16928755896624"><ele>11.0</ele><time>2026-04-24T08:57:41.001Z</time></trkpt><trkpt lat="41.0400368089787" lon="14.169431098348596"><ele>11.0</ele><time>2026-04-24T08:57:42.001Z</time></trkpt><trkpt lat="41.04000113688052" lon="14.169585138846793"><ele>11.0</ele><time>2026-04-24T08:57:43.001Z</time></trkpt><trkpt lat="41.03996953127379" lon="14.169715618300424"><ele>11.0</ele><time>2026-04-24T08:57:44.001Z</time></trkpt><trkpt lat="41.03993599526727" lon="14.169834417096313"><ele>11.0</ele><time>2026-04-24T08:57:45.001Z</time></trkpt><trkpt lat="41.039906338041355" lon="14.169936814735058"><ele>11.0</ele><time>2026-04-24T08:57:46.001Z</time></trkpt><trkpt lat="41.03988847752485" lon="14.170036407580223"><ele>11.0</ele><time>2026-04-24T08:57:47.001Z</time></trkpt><trkpt lat="41.03985358117964" lon="14.170140164922497"><ele>11.0</ele><time>2026-04-24T08:57:48.001Z</time></trkpt><trkpt lat="41.039824318931046" lon="14.170248143701151"><ele>11.0</ele><time>2026-04-24T08:57:49.001Z</time></trkpt><trkpt lat="41.03979626248857" lon="14.170348825150468"><ele>11.0</ele><time>2026-04-24T08:57:50.001Z</time></trkpt><trkpt lat="41.03977431463674" lon="14.170431924622273"><ele>11.0</ele><time>2026-04-24T08:57:51Z</time></trkpt><trkpt lat="41.03975514839954" lon="14.170519153854842"><ele>11.0</ele><time>2026-04-24T08:57:52Z</time></trkpt><trkpt lat="41.039729499232614" lon="14.170601528952886"><ele>11.0</ele><time>2026-04-24T08:57:53Z</time></trkpt><trkpt lat="41.03969466823263" lon="14.17075864204455"><ele>11.0</ele><time>2026-04-24T08:57:55Z</time></trkpt><trkpt lat="41.03966960095908" lon="14.17085742401455"><ele>11.0</ele><time>2026-04-24T08:57:56Z</time></trkpt><trkpt lat="41.03963976984588" lon="14.170970566616186"><ele>11.0</ele><time>2026-04-24T08:57:57Z</time></trkpt><trkpt lat="41.03961198616407" lon="14.171096633325801"><ele>11.0</ele><time>2026-04-24T08:57:58Z</time></trkpt><trkpt lat="41.03958173387405" lon="14.171232160259608"><ele>11.0</ele><time>2026-04-24T08:57:59Z</time></trkpt><trkpt lat="41.03954976797362" lon="14.17134765750026"><ele>11.0</ele><time>2026-04-24T08:58:00Z</time></trkpt><trkpt lat="41.039517785088" lon="14.171453519351505"><ele>11.0</ele><time>2026-04-24T08:58:01Z</time></trkpt><trkpt lat="41.039480563429215" lon="14.171608155517571"><ele>11.0</ele><time>2026-04-24T08:58:03Z</time></trkpt><trkpt lat="41.039440374902505" lon="14.171743315209"><ele>11.0</ele><time>2026-04-24T08:58:05Z</time></trkpt><trkpt lat="41.03941571068553" lon="14.171904437369012"><ele>10.833333333333332</ele><time>2026-04-24T08:58:07Z</time></trkpt><trkpt lat="41.03942046492189" lon="14.171993201118273"><ele>10.666666666666666</ele><time>2026-04-24T08:58:08Z</time></trkpt><trkpt lat="41.03944190353733" lon="14.172082926108382"><ele>10.5</ele><time>2026-04-24T08:58:09Z</time></trkpt><trkpt lat="41.039467095560994" lon="14.172193620058545"><ele>10.333333333333334</ele><time>2026-04-24T08:58:10Z</time></trkpt><trkpt lat="41.039491790168015" lon="14.172310158329477"><ele>10.166666666666668</ele><time>2026-04-24T08:58:11Z</time></trkpt><trkpt lat="41.03951972798059" lon="14.17243216864788"><ele>10.0</ele><time>2026-04-24T08:58:12Z</time></trkpt><trkpt lat="41.03954783690464" lon="14.172562684339413"><ele>10.2</ele><time>2026-04-24T08:58:13Z</time></trkpt><trkpt lat="41.03957644018098" lon="14.172699271470751"><ele>10.4</ele><time>2026-04-24T08:58:14Z</time></trkpt><trkpt lat="41.03960568168941" lon="14.172843238124816"><ele>10.600000000000001</ele><time>2026-04-24T08:58:15Z</time></trkpt><trkpt lat="41.03963490398141" lon="14.172979500648056"><ele>10.8</ele><time>2026-04-24T08:58:16Z</time></trkpt><trkpt lat="41.039659678158785" lon="14.173107565626108"><ele>11.0</ele><time>2026-04-24T08:58:17Z</time></trkpt><trkpt lat="41.039681137872634" lon="14.173222240658486"><ele>11.0</ele><time>2026-04-24T08:58:18Z</time></trkpt><trkpt lat="41.03970270971099" lon="14.173320421637206"><ele>11.0</ele><time>2026-04-24T08:58:19Z</time></trkpt><trkpt lat="41.03971980283151" lon="14.17341218584868"><ele>11.0</ele><time>2026-04-24T08:58:20Z</time></trkpt><trkpt lat="41.03973449580949" lon="14.173500234373487"><ele>11.0</ele><time>2026-04-24T08:58:21Z</time></trkpt><trkpt lat="41.03975881621705" lon="14.173595860341928"><ele>11.0</ele><time>2026-04-24T08:58:22Z</time></trkpt><trkpt lat="41.03977764786038" lon="14.173686757515474"><ele>11.0</ele><time>2026-04-24T08:58:23Z</time></trkpt><trkpt lat="41.039799145410505" lon="14.173765553355373"><ele>11.0</ele><time>2026-04-24T08:58:24Z</time></trkpt><trkpt lat="41.03985678760884" lon="14.173871646811232"><ele>11.0</ele><time>2026-04-24T08:58:26Z</time></trkpt><trkpt lat="41.039933254078" lon="14.173890722805623"><ele>11.0</ele><time>2026-04-24T08:58:29Z</time></trkpt><trkpt lat="41.04001767527077" lon="14.173863903726767"><ele>11.0</ele><time>2026-04-24T08:58:32Z</time></trkpt><trkpt lat="41.040110106026866" lon="14.17383168511348"><ele>11.0</ele><time>2026-04-24T08:58:34Z</time></trkpt><trkpt lat="41.040223124667925" lon="14.173805013380958"><ele>11.0</ele><time>2026-04-24T08:58:36Z</time></trkpt><trkpt lat="41.04028598814872" lon="14.173788219843699"><ele>11.0</ele><time>2026-04-24T08:58:37Z</time></trkpt><trkpt lat="41.04036308315447" lon="14.173763263893248"><ele>10.8</ele><time>2026-04-24T08:58:38Z</time></trkpt><trkpt lat="41.04046313760046" lon="14.173729620246338"><ele>10.600000000000001</ele><time>2026-04-24T08:58:39Z</time></trkpt><trkpt lat="41.04055973780456" lon="14.173697629333777"><ele>10.4</ele><time>2026-04-24T08:58:40Z</time></trkpt><trkpt lat="41.04065662737329" lon="14.173664367449112"><ele>10.2</ele><time>2026-04-24T08:58:41Z</time></trkpt><trkpt lat="41.04074870353882" lon="14.173634868822399"><ele>10.0</ele><time>2026-04-24T08:58:42Z</time></trkpt><trkpt lat="41.04084372008723" lon="14.173605094631398"><ele>10.4</ele><time>2026-04-24T08:58:43Z</time></trkpt><trkpt lat="41.04094485696278" lon="14.173567311439365"><ele>10.8</ele><time>2026-04-24T08:58:44Z</time></trkpt><trkpt lat="41.0410493313401" lon="14.17353551634557"><ele>11.2</ele><time>2026-04-24T08:58:45Z</time></trkpt><trkpt lat="41.041150225171954" lon="14.173501690180437"><ele>11.6</ele><time>2026-04-24T08:58:46Z</time></trkpt><trkpt lat="41.04124907517433" lon="14.173467523146867"><ele>12.0</ele><time>2026-04-24T08:58:47Z</time></trkpt><trkpt lat="41.041348796761326" lon="14.1734385346685"><ele>12.0</ele><time>2026-04-24T08:58:48Z</time></trkpt><trkpt lat="41.041445027386345" lon="14.173407869468797"><ele>12.0</ele><time>2026-04-24T08:58:49Z</time></trkpt><trkpt lat="41.041539632603865" lon="14.173373222626697"><ele>12.0</ele><time>2026-04-24T08:58:50Z</time></trkpt><trkpt lat="41.04163574735369" lon="14.173340133511422"><ele>12.0</ele><time>2026-04-24T08:58:51Z</time></trkpt><trkpt lat="41.04173064592797" lon="14.173305906613601"><ele>12.0</ele><time>2026-04-24T08:58:52Z</time></trkpt><trkpt lat="41.041828493258144" lon="14.173275652159044"><ele>12.0</ele><time>2026-04-24T08:58:53Z</time></trkpt><trkpt lat="41.04192356544315" lon="14.173248435906055"><ele>12.0</ele><time>2026-04-24T08:58:54Z</time></trkpt><trkpt lat="41.04201677429739" lon="14.17321809635735"><ele>12.0</ele><time>2026-04-24T08:58:55Z</time></trkpt><trkpt lat="41.04210787398542" lon="14.173186322840657"><ele>12.0</ele><time>2026-04-24T08:58:56Z</time></trkpt><trkpt lat="41.0421822329557" lon="14.173185346683988"><ele>12.0</ele><time>2026-04-24T08:58:57Z</time></trkpt><trkpt lat="41.042271554730966" lon="14.173154463248906"><ele>11.8</ele><time>2026-04-24T08:58:58Z</time></trkpt><trkpt lat="41.042349175042915" lon="14.173123984786585"><ele>11.6</ele><time>2026-04-24T08:58:59Z</time></trkpt><trkpt lat="41.04244032357971" lon="14.173096201721854"><ele>11.4</ele><time>2026-04-24T08:59:00Z</time></trkpt><trkpt lat="41.04253250053047" lon="14.173061152609444"><ele>11.200000000000001</ele><time>2026-04-24T08:59:01Z</time></trkpt><trkpt lat="41.04262488013776" lon="14.173026691405585"><ele>11.0</ele><time>2026-04-24T08:59:02Z</time></trkpt><trkpt lat="41.04271972234103" lon="14.172994923421621"><ele>11.0</ele><time>2026-04-24T08:59:03Z</time></trkpt><trkpt lat="41.042815035396025" lon="14.172957883297876"><ele>11.0</ele><time>2026-04-24T08:59:04Z</time></trkpt><trkpt lat="41.04292032715487" lon="14.172927827886298"><ele>11.0</ele><time>2026-04-24T08:59:05Z</time></trkpt><trkpt lat="41.04302943028465" lon="14.172897627321637"><ele>11.0</ele><time>2026-04-24T08:59:06Z</time></trkpt><trkpt lat="41.043131459692546" lon="14.17286250456919"><ele>11.0</ele><time>2026-04-24T08:59:07Z</time></trkpt><trkpt lat="41.043238063856734" lon="14.172827892219223"><ele>11.0</ele><time>2026-04-24T08:59:08Z</time></trkpt><trkpt lat="41.04333937721995" lon="14.1727942141755"><ele>11.0</ele><time>2026-04-24T08:59:09Z</time></trkpt><trkpt lat="41.04343417704918" lon="14.17276178839638"><ele>11.0</ele><time>2026-04-24T08:59:09.999Z</time></trkpt><trkpt lat="41.04351297965103" lon="14.17273292170795"><ele>11.0</ele><time>2026-04-24T08:59:10.999Z</time></trkpt><trkpt lat="41.04358682829972" lon="14.172710921665457"><ele>11.0</ele><time>2026-04-24T08:59:11.999Z</time></trkpt><trkpt lat="41.04365140050345" lon="14.172687517650013"><ele>11.0</ele><time>2026-04-24T08:59:12.999Z</time></trkpt><trkpt lat="41.043713176649106" lon="14.172665228089432"><ele>11.0</ele><time>2026-04-24T08:59:13.999Z</time></trkpt><trkpt lat="41.04381361720377" lon="14.172626804791705"><ele>11.0</ele><time>2026-04-24T08:59:16.001Z</time></trkpt><trkpt lat="41.043898880781086" lon="14.172630302368445"><ele>11.0</ele><time>2026-04-24T08:59:18.001Z</time></trkpt><trkpt lat="41.04398539788796" lon="14.172674118805613"><ele>11.0</ele><time>2026-04-24T08:59:20.001Z</time></trkpt><trkpt lat="41.04404022351987" lon="14.172840583263454"><ele>11.0</ele><time>2026-04-24T08:59:22.001Z</time></trkpt><trkpt lat="41.04406484928337" lon="14.172961362034208"><ele>11.0</ele><time>2026-04-24T08:59:23.001Z</time></trkpt><trkpt lat="41.04409353287651" lon="14.173084264818215"><ele>11.0</ele><time>2026-04-24T08:59:24.001Z</time></trkpt><trkpt lat="41.04412440470217" lon="14.173202266625783"><ele>11.0</ele><time>2026-04-24T08:59:25.001Z</time></trkpt><trkpt lat="41.04415610578607" lon="14.173316115818956"><ele>11.0</ele><time>2026-04-24T08:59:26.001Z</time></trkpt><trkpt lat="41.04418719090143" lon="14.173431345177878"><ele>11.0</ele><time>2026-04-24T08:59:27.001Z</time></trkpt><trkpt lat="41.04422087793622" lon="14.173555616860401"><ele>10.8</ele><time>2026-04-24T08:59:28.001Z</time></trkpt><trkpt lat="41.04425553188128" lon="14.173681869947925"><ele>10.600000000000001</ele><time>2026-04-24T08:59:29.001Z</time></trkpt><trkpt lat="41.044290929029856" lon="14.17379802820866"><ele>10.4</ele><time>2026-04-24T08:59:30.001Z</time></trkpt><trkpt lat="41.04433003961185" lon="14.173916166345059"><ele>10.2</ele><time>2026-04-24T08:59:31.001Z</time></trkpt><trkpt lat="41.044371720791354" lon="14.174019508713595"><ele>10.0</ele><time>2026-04-24T08:59:32.001Z</time></trkpt><trkpt lat="41.044416026063075" lon="14.174123124834074"><ele>10.4</ele><time>2026-04-24T08:59:33.001Z</time></trkpt><trkpt lat="41.044463134668476" lon="14.1742208910882"><ele>10.8</ele><time>2026-04-24T08:59:34.001Z</time></trkpt><trkpt lat="41.0445028140547" lon="14.174305630919276"><ele>11.2</ele><time>2026-04-24T08:59:35.001Z</time></trkpt><trkpt lat="41.04456680162608" lon="14.174458804955314"><ele>11.6</ele><time>2026-04-24T08:59:37.001Z</time></trkpt><trkpt lat="41.04462651554797" lon="14.174586121017889"><ele>12.0</ele><time>2026-04-24T08:59:39.001Z</time></trkpt><trkpt lat="41.04468942416931" lon="14.174717397381412"><ele>11.999999999999998</ele><time>2026-04-24T08:59:41.001Z</time></trkpt><trkpt lat="41.04471883752397" lon="14.174795004775158"><ele>12.0</ele><time>2026-04-24T08:59:42.001Z</time></trkpt><trkpt lat="41.04475606885936" lon="14.174880440085431"><ele>12.0</ele><time>2026-04-24T08:59:43.001Z</time></trkpt><trkpt lat="41.04479206852409" lon="14.17495510321126"><ele>12.0</ele><time>2026-04-24T08:59:44.001Z</time></trkpt><trkpt lat="41.04482887640359" lon="14.175049669104432"><ele>12.0</ele><time>2026-04-24T08:59:45Z</time></trkpt><trkpt lat="41.04486309452291" lon="14.175132799261927"><ele>11.999999999999998</ele><time>2026-04-24T08:59:46Z</time></trkpt><trkpt lat="41.04490469102349" lon="14.175227851361015"><ele>12.0</ele><time>2026-04-24T08:59:47Z</time></trkpt><trkpt lat="41.044940520222504" lon="14.175316746719545"><ele>12.2</ele><time>2026-04-24T08:59:48Z</time></trkpt><trkpt lat="41.044973116278655" lon="14.17539401243235"><ele>12.399999999999999</ele><time>2026-04-24T08:59:49Z</time></trkpt><trkpt lat="41.04501490511993" lon="14.17551505619562"><ele>12.600000000000001</ele><time>2026-04-24T08:59:51Z</time></trkpt><trkpt lat="41.045009438085664" lon="14.175638899357473"><ele>12.8</ele><time>2026-04-24T08:59:53Z</time></trkpt><trkpt lat="41.04492586326769" lon="14.175722557113534"><ele>13.0</ele><time>2026-04-24T08:59:55Z</time></trkpt><trkpt lat="41.04480721059273" lon="14.17568862321242"><ele>12.714285714285714</ele><time>2026-04-24T08:59:57Z</time></trkpt><trkpt lat="41.04474503546635" lon="14.175713729797346"><ele>12.428571428571429</ele><time>2026-04-24T08:59:58Z</time></trkpt><trkpt lat="41.04467924252833" lon="14.175717400949212"><ele>12.142857142857142</ele><time>2026-04-24T08:59:59Z</time></trkpt><trkpt lat="41.044608110267134" lon="14.175738853271648"><ele>11.857142857142858</ele><time>2026-04-24T09:00:00Z</time></trkpt><trkpt lat="41.04453923464306" lon="14.175776535106786"><ele>11.571428571428571</ele><time>2026-04-24T09:00:01Z</time></trkpt><trkpt lat="41.04447122299367" lon="14.175824295183768"><ele>11.285714285714286</ele><time>2026-04-24T09:00:02Z</time></trkpt><trkpt lat="41.044397090199325" lon="14.175877523097027"><ele>11.0</ele><time>2026-04-24T09:00:03Z</time></trkpt><trkpt lat="41.044308432430064" lon="14.175941710689845"><ele>11.0</ele><time>2026-04-24T09:00:04Z</time></trkpt><trkpt lat="41.0442191394377" lon="14.176011869752335"><ele>11.0</ele><time>2026-04-24T09:00:05Z</time></trkpt><trkpt lat="41.044139528221045" lon="14.176069361733065"><ele>11.0</ele><time>2026-04-24T09:00:06Z</time></trkpt><trkpt lat="41.044074423802016" lon="14.176114850864542"><ele>11.0</ele><time>2026-04-24T09:00:07Z</time></trkpt><trkpt lat="41.044018154742815" lon="14.176154856768843"><ele>11.0</ele><time>2026-04-24T09:00:08Z</time></trkpt><trkpt lat="41.04393252854722" lon="14.176236312404848"><ele>11.0</ele><time>2026-04-24T09:00:10Z</time></trkpt><trkpt lat="41.04388401739632" lon="14.176335945882135"><ele>11.0</ele><time>2026-04-24T09:00:12Z</time></trkpt><trkpt lat="41.043901071269616" lon="14.176473575648389"><ele>11.0</ele><time>2026-04-24T09:00:14Z</time></trkpt><trkpt lat="41.043925310769524" lon="14.176558897551592"><ele>11.0</ele><time>2026-04-24T09:00:15Z</time></trkpt><trkpt lat="41.04395954793058" lon="14.176666026665982"><ele>11.0</ele><time>2026-04-24T09:00:16Z</time></trkpt><trkpt lat="41.043992971536035" lon="14.176784097364735"><ele>11.0</ele><time>2026-04-24T09:00:17Z</time></trkpt><trkpt lat="41.04402551971033" lon="14.176907759696668"><ele>11.0</ele><time>2026-04-24T09:00:18Z</time></trkpt><trkpt lat="41.04406206582876" lon="14.177038316228117"><ele>11.0</ele><time>2026-04-24T09:00:19Z</time></trkpt><trkpt lat="41.04409735123257" lon="14.177174025983154"><ele>11.0</ele><time>2026-04-24T09:00:20Z</time></trkpt><trkpt lat="41.04413466847504" lon="14.177314092498953"><ele>11.0</ele><time>2026-04-24T09:00:21Z</time></trkpt><trkpt lat="41.044172188984206" lon="14.177459391763927"><ele>11.0</ele><time>2026-04-24T09:00:22Z</time></trkpt><trkpt lat="41.04421015855188" lon="14.17760348464281"><ele>11.4</ele><time>2026-04-24T09:00:23Z</time></trkpt><trkpt lat="41.044251562103554" lon="14.177740260541881"><ele>11.8</ele><time>2026-04-24T09:00:24Z</time></trkpt><trkpt lat="41.044288991786125" lon="14.177880216128688"><ele>12.200000000000001</ele><time>2026-04-24T09:00:25Z</time></trkpt><trkpt lat="41.04432519634913" lon="14.178022026746989"><ele>12.600000000000001</ele><time>2026-04-24T09:00:26Z</time></trkpt><trkpt lat="41.04436270998445" lon="14.178158639515958"><ele>13.0</ele><time>2026-04-24T09:00:27Z</time></trkpt><trkpt lat="41.04440229032169" lon="14.178295996626122"><ele>13.0</ele><time>2026-04-24T09:00:28Z</time></trkpt><trkpt lat="41.044442676838514" lon="14.178431027008505"><ele>13.0</ele><time>2026-04-24T09:00:29Z</time></trkpt><trkpt lat="41.04447868962024" lon="14.178558948633556"><ele>13.0</ele><time>2026-04-24T09:00:30Z</time></trkpt><trkpt lat="41.04451668469598" lon="14.1786865793275"><ele>13.0</ele><time>2026-04-24T09:00:31Z</time></trkpt><trkpt lat="41.04455592046334" lon="14.178815853115882"><ele>13.0</ele><time>2026-04-24T09:00:32Z</time></trkpt><trkpt lat="41.04459710056867" lon="14.178937934793169"><ele>13.0</ele><time>2026-04-24T09:00:33Z</time></trkpt><trkpt lat="41.04464597377614" lon="14.1790547998937"><ele>13.0</ele><time>2026-04-24T09:00:34Z</time></trkpt><trkpt lat="41.044702745361555" lon="14.179170414741947"><ele>13.0</ele><time>2026-04-24T09:00:35Z</time></trkpt><trkpt lat="41.0447600229918" lon="14.17928316071229"><ele>13.0</ele><time>2026-04-24T09:00:36Z</time></trkpt><trkpt lat="41.04481826808361" lon="14.17940075152099"><ele>13.0</ele><time>2026-04-24T09:00:37Z</time></trkpt><trkpt lat="41.0448718524674" lon="14.1795165345324"><ele>13.0</ele><time>2026-04-24T09:00:37.999Z</time></trkpt><trkpt lat="41.044928717595475" lon="14.179628858563824"><ele>13.0</ele><time>2026-04-24T09:00:38.999Z</time></trkpt><trkpt lat="41.044976886875475" lon="14.179738388041637"><ele>13.0</ele><time>2026-04-24T09:00:39.999Z</time></trkpt><trkpt lat="41.04502146851832" lon="14.179853807535663"><ele>13.0</ele><time>2026-04-24T09:00:40.999Z</time></trkpt><trkpt lat="41.045057133086154" lon="14.179979348258211"><ele>13.0</ele><time>2026-04-24T09:00:41.999Z</time></trkpt><trkpt lat="41.04508943091845" lon="14.180108464391035"><ele>13.0</ele><time>2026-04-24T09:00:42.999Z</time></trkpt><trkpt lat="41.045119326378234" lon="14.180233894700422"><ele>13.0</ele><time>2026-04-24T09:00:43.999Z</time></trkpt><trkpt lat="41.045151673974544" lon="14.180356633618969"><ele>13.0</ele><time>2026-04-24T09:00:44.999Z</time></trkpt><trkpt lat="41.04518184545241" lon="14.180477202784424"><ele>13.0</ele><time>2026-04-24T09:00:45.999Z</time></trkpt><trkpt lat="41.04520900577811" lon="14.180597897591442"><ele>13.0</ele><time>2026-04-24T09:00:46.999Z</time></trkpt><trkpt lat="41.045236790989314" lon="14.180721054884282"><ele>13.0</ele><time>2026-04-24T09:00:47.999Z</time></trkpt><trkpt lat="41.04526200790099" lon="14.180839405061432"><ele>13.0</ele><time>2026-04-24T09:00:48.999Z</time></trkpt><trkpt lat="41.04528860048878" lon="14.180967241797683"><ele>13.0</ele><time>2026-04-24T09:00:49.999Z</time></trkpt><trkpt lat="41.04531568403382" lon="14.18109184090963"><ele>13.0</ele><time>2026-04-24T09:00:50.999Z</time></trkpt><trkpt lat="41.045344105710285" lon="14.181217319910472"><ele>13.0</ele><time>2026-04-24T09:00:51.999Z</time></trkpt><trkpt lat="41.04536719999966" lon="14.181340583602779"><ele>12.999999999999998</ele><time>2026-04-24T09:00:52.999Z</time></trkpt><trkpt lat="41.045388404865726" lon="14.181463317176034"><ele>13.0</ele><time>2026-04-24T09:00:53.999Z</time></trkpt><trkpt lat="41.04540288247446" lon="14.18157072893833"><ele>13.0</ele><time>2026-04-24T09:00:54.999Z</time></trkpt><trkpt lat="41.04541740792416" lon="14.181663592976053"><ele>13.0</ele><time>2026-04-24T09:00:55.999Z</time></trkpt><trkpt lat="41.04543699860101" lon="14.181782107775254"><ele>12.999999999999998</ele><time>2026-04-24T09:00:57.999Z</time></trkpt><trkpt lat="41.04541218201187" lon="14.18190441879694"><ele>13.0</ele><time>2026-04-24T09:00:59.999Z</time></trkpt><trkpt lat="41.04537620573157" lon="14.18201858784011"><ele>13.0</ele><time>2026-04-24T09:01:01.999Z</time></trkpt><trkpt lat="41.045364677082354" lon="14.182168012150562"><ele>13.0</ele><time>2026-04-24T09:01:03.999Z</time></trkpt><trkpt lat="41.04538388594368" lon="14.182339367641672"><ele>13.0</ele><time>2026-04-24T09:01:05.999Z</time></trkpt><trkpt lat="41.04538827187979" lon="14.18243425531392"><ele>13.0</ele><time>2026-04-24T09:01:06.999Z</time></trkpt><trkpt lat="41.04539400403156" lon="14.182546140564467"><ele>13.0</ele><time>2026-04-24T09:01:07.999Z</time></trkpt><trkpt lat="41.04540375286206" lon="14.182645389599225"><ele>12.999999999999998</ele><time>2026-04-24T09:01:08.999Z</time></trkpt><trkpt lat="41.04540364530422" lon="14.182737876027943"><ele>13.0</ele><time>2026-04-24T09:01:09.999Z</time></trkpt><trkpt lat="41.04541252260086" lon="14.182830976092117"><ele>13.0</ele><time>2026-04-24T09:01:10.999Z</time></trkpt><trkpt lat="41.04542492639083" lon="14.182936343135724"><ele>13.0</ele><time>2026-04-24T09:01:11.999Z</time></trkpt><trkpt lat="41.04543662173022" lon="14.183061281980239"><ele>12.999999999999998</ele><time>2026-04-24T09:01:12.999Z</time></trkpt><trkpt lat="41.045448083953936" lon="14.183188237703813"><ele>13.0</ele><time>2026-04-24T09:01:13.999Z</time></trkpt><trkpt lat="41.04545732950012" lon="14.183310972196145"><ele>13.0</ele><time>2026-04-24T09:01:14.999Z</time></trkpt><trkpt lat="41.04546997894723" lon="14.18343113559869"><ele>13.0</ele><time>2026-04-24T09:01:15.999Z</time></trkpt><trkpt lat="41.045480419256045" lon="14.183553182560324"><ele>13.0</ele><time>2026-04-24T09:01:16.999Z</time></trkpt><trkpt lat="41.04549072478863" lon="14.183669958143607"><ele>13.0</ele><time>2026-04-24T09:01:17.999Z</time></trkpt><trkpt lat="41.045507389461505" lon="14.183783929288206"><ele>13.0</ele><time>2026-04-24T09:01:18.999Z</time></trkpt><trkpt lat="41.045520159659304" lon="14.183902088700385"><ele>12.999999999999998</ele><time>2026-04-24T09:01:19.999Z</time></trkpt><trkpt lat="41.04552451411278" lon="14.184020248122264"><ele>13.0</ele><time>2026-04-24T09:01:20.999Z</time></trkpt><trkpt lat="41.045536287618354" lon="14.184134725351942"><ele>13.0</ele><time>2026-04-24T09:01:22.001Z</time></trkpt><trkpt lat="41.045550212353085" lon="14.184241392800569"><ele>13.0</ele><time>2026-04-24T09:01:23.001Z</time></trkpt><trkpt lat="41.04556331582689" lon="14.184340467142277"><ele>12.999999999999998</ele><time>2026-04-24T09:01:24.001Z</time></trkpt><trkpt lat="41.04556927262737" lon="14.184437378455288"><ele>13.0</ele><time>2026-04-24T09:01:25.001Z</time></trkpt><trkpt lat="41.045572627573335" lon="14.18453956335268"><ele>12.999999999999998</ele><time>2026-04-24T09:01:26.001Z</time></trkpt><trkpt lat="41.045577254786764" lon="14.184651629165003"><ele>13.0</ele><time>2026-04-24T09:01:27.001Z</time></trkpt><trkpt lat="41.04558934058661" lon="14.18475042793224"><ele>13.0</ele><time>2026-04-24T09:01:28.001Z</time></trkpt><trkpt lat="41.04560128214381" lon="14.184846891838673"><ele>13.0</ele><time>2026-04-24T09:01:29.001Z</time></trkpt><trkpt lat="41.04560801302072" lon="14.184950269900336"><ele>12.999999999999998</ele><time>2026-04-24T09:01:30.001Z</time></trkpt><trkpt lat="41.04561587707225" lon="14.185065180247257"><ele>13.0</ele><time>2026-04-24T09:01:31.001Z</time></trkpt><trkpt lat="41.04562646804642" lon="14.18518257287036"><ele>13.0</ele><time>2026-04-24T09:01:32.001Z</time></trkpt><trkpt lat="41.04564154548858" lon="14.185307674684895"><ele>13.0</ele><time>2026-04-24T09:01:33.001Z</time></trkpt><trkpt lat="41.04565216768647" lon="14.185437534813294"><ele>13.0</ele><time>2026-04-24T09:01:34.001Z</time></trkpt><trkpt lat="41.045663010343496" lon="14.185563724588118"><ele>13.0</ele><time>2026-04-24T09:01:35.001Z</time></trkpt><trkpt lat="41.04567025128154" lon="14.185684736456508"><ele>13.0</ele><time>2026-04-24T09:01:36.001Z</time></trkpt><trkpt lat="41.04567540015892" lon="14.18579336988721"><ele>12.999999999999998</ele><time>2026-04-24T09:01:37.001Z</time></trkpt><trkpt lat="41.04568518403702" lon="14.18590257346653"><ele>13.0</ele><time>2026-04-24T09:01:38.001Z</time></trkpt><trkpt lat="41.045695448574214" lon="14.186010580139365"><ele>13.0</ele><time>2026-04-24T09:01:39.001Z</time></trkpt><trkpt lat="41.04570099834489" lon="14.186116489774244"><ele>13.0</ele><time>2026-04-24T09:01:40Z</time></trkpt><trkpt lat="41.0457200829045" lon="14.186224419177659"><ele>12.999999999999998</ele><time>2026-04-24T09:01:41Z</time></trkpt><trkpt lat="41.045730214655755" lon="14.186329679394365"><ele>13.0</ele><time>2026-04-24T09:01:42Z</time></trkpt><trkpt lat="41.045739120385186" lon="14.186439811151757"><ele>12.833333333333332</ele><time>2026-04-24T09:01:43Z</time></trkpt><trkpt lat="41.04575119789805" lon="14.186555850498944"><ele>12.666666666666666</ele><time>2026-04-24T09:01:44Z</time></trkpt><trkpt lat="41.045764625165134" lon="14.186676786630414"><ele>12.5</ele><time>2026-04-24T09:01:45Z</time></trkpt><trkpt lat="41.045767155044366" lon="14.186774084827281"><ele>12.333333333333332</ele><time>2026-04-24T09:01:46Z</time></trkpt><trkpt lat="41.04577135173688" lon="14.186870474171391"><ele>12.166666666666666</ele><time>2026-04-24T09:01:47Z</time></trkpt><trkpt lat="41.045782253827284" lon="14.186977291313632"><ele>12.0</ele><time>2026-04-24T09:01:48Z</time></trkpt><trkpt lat="41.045788206636814" lon="14.187094614391427"><ele>12.0</ele><time>2026-04-24T09:01:49Z</time></trkpt><trkpt lat="41.045794812485646" lon="14.18721884844573"><ele>12.0</ele><time>2026-04-24T09:01:50Z</time></trkpt><trkpt lat="41.04580786277596" lon="14.187352238027882"><ele>12.0</ele><time>2026-04-24T09:01:51Z</time></trkpt><trkpt lat="41.04581986209487" lon="14.187470963731641"><ele>12.0</ele><time>2026-04-24T09:01:52Z</time></trkpt><trkpt lat="41.04583144644592" lon="14.187584475488118"><ele>12.0</ele><time>2026-04-24T09:01:53Z</time></trkpt><trkpt lat="41.04584446600732" lon="14.18769533733828"><ele>12.0</ele><time>2026-04-24T09:01:54Z</time></trkpt><trkpt lat="41.04585860575783" lon="14.187811293069062"><ele>12.0</ele><time>2026-04-24T09:01:55Z</time></trkpt><trkpt lat="41.04586503563665" lon="14.187918834866325"><ele>12.0</ele><time>2026-04-24T09:01:56Z</time></trkpt><trkpt lat="41.04587410529496" lon="14.188011481803066"><ele>12.0</ele><time>2026-04-24T09:01:57Z</time></trkpt><trkpt lat="41.0458880515486" lon="14.18813524158163"><ele>12.0</ele><time>2026-04-24T09:01:58Z</time></trkpt><trkpt lat="41.04590262187757" lon="14.188260119507815"><ele>12.0</ele><time>2026-04-24T09:01:59Z</time></trkpt><trkpt lat="41.04591378443433" lon="14.188387958808505"><ele>12.166666666666666</ele><time>2026-04-24T09:02:00Z</time></trkpt><trkpt lat="41.04592942542238" lon="14.188500078008294"><ele>12.333333333333332</ele><time>2026-04-24T09:02:01Z</time></trkpt><trkpt lat="41.04594186054959" lon="14.188608913072976"><ele>12.5</ele><time>2026-04-24T09:02:02Z</time></trkpt><trkpt lat="41.04595547266778" lon="14.188710684393588"><ele>12.666666666666666</ele><time>2026-04-24T09:02:03Z</time></trkpt><trkpt lat="41.04596132203784" lon="14.188819410175508"><ele>12.833333333333332</ele><time>2026-04-24T09:02:04Z</time></trkpt><trkpt lat="41.045968481651414" lon="14.188935716233791"><ele>13.0</ele><time>2026-04-24T09:02:05Z</time></trkpt><trkpt lat="41.045976127440426" lon="14.18902608614924"><ele>12.999999999999998</ele><time>2026-04-24T09:02:06Z</time></trkpt><trkpt lat="41.04598966294544" lon="14.189124060801934"><ele>13.0</ele><time>2026-04-24T09:02:07Z</time></trkpt><trkpt lat="41.04599608070529" lon="14.189213220083062"><ele>13.0</ele><time>2026-04-24T09:02:08Z</time></trkpt><trkpt lat="41.04599020665629" lon="14.189302948616954"><ele>13.0</ele><time>2026-04-24T09:02:09Z</time></trkpt><trkpt lat="41.04600064739216" lon="14.189407568457632"><ele>12.999999999999998</ele><time>2026-04-24T09:02:10Z</time></trkpt><trkpt lat="41.046012329815355" lon="14.189503942610141"><ele>13.0</ele><time>2026-04-24T09:02:11Z</time></trkpt><trkpt lat="41.04602583116414" lon="14.189648046209639"><ele>13.0</ele><time>2026-04-24T09:02:13Z</time></trkpt><trkpt lat="41.04603653328455" lon="14.189744824383217"><ele>13.0</ele><time>2026-04-24T09:02:18Z</time></trkpt><trkpt lat="41.04596927739585" lon="14.189822761137851"><ele>13.0</ele><time>2026-04-24T09:02:25Z</time></trkpt><trkpt lat="41.04584429950386" lon="14.189860698455806"><ele>13.0</ele><time>2026-04-24T09:02:26.999Z</time></trkpt><trkpt lat="41.04576449210872" lon="14.189905134057678"><ele>13.0</ele><time>2026-04-24T09:02:27.999Z</time></trkpt><trkpt lat="41.045677635490016" lon="14.189961413947017"><ele>13.0</ele><time>2026-04-24T09:02:28.999Z</time></trkpt><trkpt lat="41.04557766007703" lon="14.190023426811296"><ele>13.0</ele><time>2026-04-24T09:02:29.999Z</time></trkpt><trkpt lat="41.04547149712825" lon="14.190088585081135"><ele>13.0</ele><time>2026-04-24T09:02:30.999Z</time></trkpt><trkpt lat="41.045358419181696" lon="14.190155795937969"><ele>13.0</ele><time>2026-04-24T09:02:31.999Z</time></trkpt><trkpt lat="41.04523885960093" lon="14.190230844284523"><ele>13.0</ele><time>2026-04-24T09:02:32.999Z</time></trkpt><trkpt lat="41.04510830854364" lon="14.190312673660571"><ele>13.0</ele><time>2026-04-24T09:02:33.999Z</time></trkpt><trkpt lat="41.04497466057797" lon="14.190398979415317"><ele>13.0</ele><time>2026-04-24T09:02:34.999Z</time></trkpt><trkpt lat="41.044834616768036" lon="14.190482804944196"><ele>13.0</ele><time>2026-04-24T09:02:35.999Z</time></trkpt><trkpt lat="41.04468909324571" lon="14.190572253240179"><ele>13.0</ele><time>2026-04-24T09:02:36.999Z</time></trkpt><trkpt lat="41.044549132829815" lon="14.190660919087282"><ele>13.0</ele><time>2026-04-24T09:02:37.999Z</time></trkpt><trkpt lat="41.0444046761503" lon="14.19075655335631"><ele>13.0</ele><time>2026-04-24T09:02:38.999Z</time></trkpt><trkpt lat="41.044263917040254" lon="14.190847961483524"><ele>13.0</ele><time>2026-04-24T09:02:39.999Z</time></trkpt><trkpt lat="41.04412114842227" lon="14.190941505697905"><ele>13.0</ele><time>2026-04-24T09:02:40.999Z</time></trkpt><trkpt lat="41.043977588202885" lon="14.191039654757626"><ele>13.0</ele><time>2026-04-24T09:02:41.999Z</time></trkpt><trkpt lat="41.04384407433154" lon="14.191132742194227"><ele>13.0</ele><time>2026-04-24T09:02:42.999Z</time></trkpt><trkpt lat="41.043719004287794" lon="14.191223386549273"><ele>13.0</ele><time>2026-04-24T09:02:43.999Z</time></trkpt><trkpt lat="41.043599512549974" lon="14.191304955012484"><ele>13.0</ele><time>2026-04-24T09:02:44.999Z</time></trkpt><trkpt lat="41.043487417738625" lon="14.191379386641598"><ele>13.0</ele><time>2026-04-24T09:02:45.999Z</time></trkpt><trkpt lat="41.04338859696393" lon="14.191442744139009"><ele>13.0</ele><time>2026-04-24T09:02:46.999Z</time></trkpt><trkpt lat="41.04330410453027" lon="14.19150288249067"><ele>13.0</ele><time>2026-04-24T09:02:47.999Z</time></trkpt><trkpt lat="41.04323527792458" lon="14.191551397783206"><ele>13.0</ele><time>2026-04-24T09:02:48.999Z</time></trkpt><trkpt lat="41.04314245005711" lon="14.191594130287319"><ele>13.0</ele><time>2026-04-24T09:02:50.999Z</time></trkpt><trkpt lat="41.043099749988635" lon="14.191723249087392"><ele>13.0</ele><time>2026-04-24T09:02:52.999Z</time></trkpt><trkpt lat="41.043058209314076" lon="14.19164291716929"><ele>13.0</ele><time>2026-04-24T09:02:53.999Z</time></trkpt><trkpt lat="41.043055543065286" lon="14.191841534840528"><ele>13.0</ele><time>2026-04-24T09:02:54.999Z</time></trkpt><trkpt lat="41.04297611580893" lon="14.191966243155397"><ele>13.0</ele><time>2026-04-24T09:02:56.999Z</time></trkpt><trkpt lat="41.04292608773796" lon="14.192037715298897"><ele>13.0</ele><time>2026-04-24T09:02:57.999Z</time></trkpt><trkpt lat="41.04288733381498" lon="14.19211887751804"><ele>13.0</ele><time>2026-04-24T09:02:58.999Z</time></trkpt><trkpt lat="41.04284187404178" lon="14.192183852437676"><ele>13.0</ele><time>2026-04-24T09:02:59.999Z</time></trkpt><trkpt lat="41.04275293477871" lon="14.19228399805795"><ele>13.0</ele><time>2026-04-24T09:03:01.999Z</time></trkpt><trkpt lat="41.04265269260524" lon="14.192355117182192"><ele>13.0</ele><time>2026-04-24T09:03:03.999Z</time></trkpt><trkpt lat="41.04259918534753" lon="14.192474714542278"><ele>13.0</ele><time>2026-04-24T09:03:05.999Z</time></trkpt><trkpt lat="41.04258901443354" lon="14.192630699973932"><ele>12.999999999999998</ele><time>2026-04-24T09:03:07.999Z</time></trkpt><trkpt lat="41.04259677483413" lon="14.192728890844897"><ele>13.0</ele><time>2026-04-24T09:03:08.999Z</time></trkpt><trkpt lat="41.042602821025405" lon="14.192835891694651"><ele>13.0</ele><time>2026-04-24T09:03:09.999Z</time></trkpt><trkpt lat="41.042606556196475" lon="14.192949807037033"><ele>13.0</ele><time>2026-04-24T09:03:10.999Z</time></trkpt><trkpt lat="41.04260943882331" lon="14.19306731973803"><ele>12.999999999999998</ele><time>2026-04-24T09:03:11.999Z</time></trkpt><trkpt lat="41.04260090158101" lon="14.193188180554932"><ele>13.0</ele><time>2026-04-24T09:03:12.999Z</time></trkpt><trkpt lat="41.04260032014887" lon="14.193314814515809"><ele>13.0</ele><time>2026-04-24T09:03:13.999Z</time></trkpt><trkpt lat="41.04260156211793" lon="14.193454168617018"><ele>13.0</ele><time>2026-04-24T09:03:14.999Z</time></trkpt><trkpt lat="41.042600500515704" lon="14.19360012195661"><ele>13.0</ele><time>2026-04-24T09:03:15.999Z</time></trkpt><trkpt lat="41.04259429157612" lon="14.193749954549487"><ele>13.0</ele><time>2026-04-24T09:03:16.999Z</time></trkpt><trkpt lat="41.0425900765798" lon="14.1939085876399"><ele>13.0</ele><time>2026-04-24T09:03:17.999Z</time></trkpt><trkpt lat="41.04259055625667" lon="14.194071746978024"><ele>12.75</ele><time>2026-04-24T09:03:18.999Z</time></trkpt><trkpt lat="41.04259042505101" lon="14.194232206289154"><ele>12.5</ele><time>2026-04-24T09:03:19.999Z</time></trkpt><trkpt lat="41.04258214417814" lon="14.194391226269019"><ele>12.25</ele><time>2026-04-24T09:03:20.999Z</time></trkpt><trkpt lat="41.0425754790957" lon="14.194555238000104"><ele>12.0</ele><time>2026-04-24T09:03:21.999Z</time></trkpt><trkpt lat="41.04257486239343" lon="14.194723778243223"><ele>12.25</ele><time>2026-04-24T09:03:22.999Z</time></trkpt><trkpt lat="41.042573850243045" lon="14.194888113491388"><ele>12.5</ele><time>2026-04-24T09:03:23.998Z</time></trkpt><trkpt lat="41.04257449986738" lon="14.195047738512285"><ele>12.75</ele><time>2026-04-24T09:03:24.998Z</time></trkpt><trkpt lat="41.04257009859909" lon="14.195211605080164"><ele>13.0</ele><time>2026-04-24T09:03:25.998Z</time></trkpt><trkpt lat="41.04257342659517" lon="14.19537197582803"><ele>13.0</ele><time>2026-04-24T09:03:26.998Z</time></trkpt><trkpt lat="41.042568947077996" lon="14.195536591635197"><ele>13.0</ele><time>2026-04-24T09:03:28Z</time></trkpt><trkpt lat="41.04256566322588" lon="14.195699572064973"><ele>13.0</ele><time>2026-04-24T09:03:29Z</time></trkpt><trkpt lat="41.042564685209534" lon="14.195857808582378"><ele>13.0</ele><time>2026-04-24T09:03:30Z</time></trkpt><trkpt lat="41.04255966454803" lon="14.196020539092356"><ele>13.0</ele><time>2026-04-24T09:03:31Z</time></trkpt><trkpt lat="41.04255703467341" lon="14.196176379601855"><ele>13.0</ele><time>2026-04-24T09:03:32Z</time></trkpt><trkpt lat="41.042555446893694" lon="14.196324682221478"><ele>13.0</ele><time>2026-04-24T09:03:33Z</time></trkpt><trkpt lat="41.04254946995227" lon="14.196457560572096"><ele>13.0</ele><time>2026-04-24T09:03:34Z</time></trkpt><trkpt lat="41.04255161194231" lon="14.19658379033215"><ele>13.0</ele><time>2026-04-24T09:03:35Z</time></trkpt><trkpt lat="41.04254465190813" lon="14.196806922118666"><ele>12.999999999999998</ele><time>2026-04-24T09:03:37Z</time></trkpt><trkpt lat="41.0425484431279" lon="14.19692328009797"><ele>13.0</ele><time>2026-04-24T09:03:38Z</time></trkpt><trkpt lat="41.042563951207086" lon="14.197036298002736"><ele>13.0</ele><time>2026-04-24T09:03:39Z</time></trkpt><trkpt lat="41.04258688545514" lon="14.197155414159582"><ele>13.0</ele><time>2026-04-24T09:03:40Z</time></trkpt><trkpt lat="41.042610563368974" lon="14.1972690662878"><ele>12.999999999999998</ele><time>2026-04-24T09:03:41Z</time></trkpt><trkpt lat="41.04261208367754" lon="14.197382635361812"><ele>13.0</ele><time>2026-04-24T09:03:42Z</time></trkpt><trkpt lat="41.04262053238264" lon="14.197490020385763"><ele>12.999999999999998</ele><time>2026-04-24T09:03:43Z</time></trkpt><trkpt lat="41.04263676678266" lon="14.197598304659781"><ele>13.0</ele><time>2026-04-24T09:03:44Z</time></trkpt><trkpt lat="41.042630684353554" lon="14.197714110753388"><ele>13.0</ele><time>2026-04-24T09:03:45Z</time></trkpt><trkpt lat="41.04263286793102" lon="14.197824788155673"><ele>13.0</ele><time>2026-04-24T09:03:46Z</time></trkpt><trkpt lat="41.04263354429663" lon="14.197940172617963"><ele>12.999999999999998</ele><time>2026-04-24T09:03:47Z</time></trkpt><trkpt lat="41.04263396006434" lon="14.19805055878859"><ele>13.0</ele><time>2026-04-24T09:03:48Z</time></trkpt><trkpt lat="41.042634410756406" lon="14.198170218501703"><ele>13.0</ele><time>2026-04-24T09:03:49Z</time></trkpt><trkpt lat="41.042653094203665" lon="14.198288754914506"><ele>13.0</ele><time>2026-04-24T09:03:50Z</time></trkpt><trkpt lat="41.0426479331895" lon="14.198409923566697"><ele>13.0</ele><time>2026-04-24T09:03:51Z</time></trkpt><trkpt lat="41.04265110452483" lon="14.19853686367495"><ele>13.0</ele><time>2026-04-24T09:03:52Z</time></trkpt><trkpt lat="41.04265911133495" lon="14.19866751592047"><ele>13.0</ele><time>2026-04-24T09:03:53Z</time></trkpt><trkpt lat="41.04266824313108" lon="14.19879975213159"><ele>12.999999999999998</ele><time>2026-04-24T09:03:54Z</time></trkpt><trkpt lat="41.042675027700156" lon="14.198929143304172"><ele>13.0</ele><time>2026-04-24T09:03:55Z</time></trkpt><trkpt lat="41.042677442494664" lon="14.199060144841498"><ele>13.0</ele><time>2026-04-24T09:03:56Z</time></trkpt><trkpt lat="41.042684882561474" lon="14.199182456673435"><ele>13.0</ele><time>2026-04-24T09:03:57Z</time></trkpt><trkpt lat="41.04268720876507" lon="14.199290253425684"><ele>12.999999999999998</ele><time>2026-04-24T09:03:58Z</time></trkpt><trkpt lat="41.04268767204157" lon="14.19939242993576"><ele>13.0</ele><time>2026-04-24T09:03:59Z</time></trkpt><trkpt lat="41.04267713988723" lon="14.19948592120759"><ele>12.999999999999998</ele><time>2026-04-24T09:04:00Z</time></trkpt><trkpt lat="41.042694995046176" lon="14.199567787444495"><ele>13.0</ele><time>2026-04-24T09:04:01Z</time></trkpt><trkpt lat="41.042691688704664" lon="14.199658222068956"><ele>13.0</ele><time>2026-04-24T09:04:02Z</time></trkpt><trkpt lat="41.04270119518917" lon="14.199762247082957"><ele>13.0</ele><time>2026-04-24T09:04:03Z</time></trkpt><trkpt lat="41.042724119173805" lon="14.199868301723578"><ele>12.999999999999998</ele><time>2026-04-24T09:04:04Z</time></trkpt><trkpt lat="41.042742542206966" lon="14.19998810180494"><ele>13.0</ele><time>2026-04-24T09:04:05Z</time></trkpt><trkpt lat="41.04277074593224" lon="14.200124120046548"><ele>13.25</ele><time>2026-04-24T09:04:06Z</time></trkpt><trkpt lat="41.04280135080138" lon="14.200265268698688"><ele>13.5</ele><time>2026-04-24T09:04:07Z</time></trkpt><trkpt lat="41.042833033914626" lon="14.200416172938148"><ele>13.75</ele><time>2026-04-24T09:04:08Z</time></trkpt><trkpt lat="41.04286790626077" lon="14.200579192412752"><ele>14.0</ele><time>2026-04-24T09:04:09Z</time></trkpt><trkpt lat="41.042903878940244" lon="14.200744479890277"><ele>14.0</ele><time>2026-04-24T09:04:10Z</time></trkpt><trkpt lat="41.042939796912215" lon="14.200888824829203"><ele>13.999999999999998</ele><time>2026-04-24T09:04:11Z</time></trkpt><trkpt lat="41.04296528227309" lon="14.200998515556535"><ele>13.999999999999998</ele><time>2026-04-24T09:04:11.999Z</time></trkpt><trkpt lat="41.043003245718886" lon="14.201166055153587"><ele>14.0</ele><time>2026-04-24T09:04:13.999Z</time></trkpt><trkpt lat="41.04302170602455" lon="14.20124877337902"><ele>14.0</ele><time>2026-04-24T09:04:14.999Z</time></trkpt><trkpt lat="41.04304540289089" lon="14.201355002787716"><ele>14.0</ele><time>2026-04-24T09:04:16.999Z</time></trkpt><trkpt lat="41.04305687537408" lon="14.201469009043569"><ele>13.999999999999998</ele><time>2026-04-24T09:04:32.999Z</time></trkpt><trkpt lat="41.04308783374399" lon="14.201614778517516"><ele>13.999999999999998</ele><time>2026-04-24T09:04:34.999Z</time></trkpt><trkpt lat="41.04311494189109" lon="14.20174504582967"><ele>14.0</ele><time>2026-04-24T09:04:36.999Z</time></trkpt><trkpt lat="41.04313174511425" lon="14.201834735818155"><ele>14.0</ele><time>2026-04-24T09:04:38.999Z</time></trkpt><trkpt lat="41.04314849948929" lon="14.20194716882922"><ele>14.000000000000002</ele><time>2026-04-24T09:04:50.999Z</time></trkpt><trkpt lat="41.0431543257004" lon="14.20207246578305"><ele>14.0</ele><time>2026-04-24T09:04:58.999Z</time></trkpt><trkpt lat="41.04316696583274" lon="14.202216903926699"><ele>14.0</ele><time>2026-04-24T09:05:00.999Z</time></trkpt><trkpt lat="41.04318495328449" lon="14.202302488809554"><ele>14.0</ele><time>2026-04-24T09:05:01.999Z</time></trkpt><trkpt lat="41.04320288815607" lon="14.202387823065338"><ele>14.000000000000002</ele><time>2026-04-24T09:05:02.999Z</time></trkpt><trkpt lat="41.043231879242335" lon="14.202469599584244"><ele>14.0</ele><time>2026-04-24T09:05:03.999Z</time></trkpt><trkpt lat="41.0432525101537" lon="14.202559742727397"><ele>14.0</ele><time>2026-04-24T09:05:04.999Z</time></trkpt><trkpt lat="41.043273593573595" lon="14.202655789673909"><ele>14.0</ele><time>2026-04-24T09:05:05.999Z</time></trkpt><trkpt lat="41.043295492731545" lon="14.20275446848294"><ele>14.0</ele><time>2026-04-24T09:05:06.999Z</time></trkpt><trkpt lat="41.04331554850373" lon="14.202847516047285"><ele>14.0</ele><time>2026-04-24T09:05:07.999Z</time></trkpt><trkpt lat="41.043332381637086" lon="14.202934974798469"><ele>14.0</ele><time>2026-04-24T09:05:08.999Z</time></trkpt><trkpt lat="41.04334983939853" lon="14.203024030871326"><ele>14.0</ele><time>2026-04-24T09:05:09.999Z</time></trkpt><trkpt lat="41.04336620742958" lon="14.203115768441279"><ele>14.0</ele><time>2026-04-24T09:05:10.998Z</time></trkpt><trkpt lat="41.04338620823577" lon="14.203198570753301"><ele>14.5</ele><time>2026-04-24T09:05:11.998Z</time></trkpt><trkpt lat="41.04340913209385" lon="14.20336468607156"><ele>15.0</ele><time>2026-04-24T09:05:13.998Z</time></trkpt><trkpt lat="41.043442876335476" lon="14.203524220064455"><ele>15.5</ele><time>2026-04-24T09:05:15.998Z</time></trkpt><trkpt lat="41.04347603554031" lon="14.203680122902849"><ele>16.0</ele><time>2026-04-24T09:05:17.998Z</time></trkpt><trkpt lat="41.04351921277357" lon="14.203817102399944"><ele>16.0</ele><time>2026-04-24T09:05:19.998Z</time></trkpt><trkpt lat="41.043543119765374" lon="14.203916117282908"><ele>16.0</ele><time>2026-04-24T09:05:21.998Z</time></trkpt><trkpt lat="41.04356159740398" lon="14.204000969986781"><ele>16.0</ele><time>2026-04-24T09:05:25.998Z</time></trkpt><trkpt lat="41.04352774538553" lon="14.203918743123495"><ele>16.0</ele><time>2026-04-24T09:05:45Z</time></trkpt><trkpt lat="41.04350774191146" lon="14.203813299117819"><ele>16.0</ele><time>2026-04-24T09:05:47Z</time></trkpt><trkpt lat="41.04346727587908" lon="14.20361232001285"><ele>15.999999999999998</ele><time>2026-04-24T09:05:49Z</time></trkpt><trkpt lat="41.043458064326565" lon="14.20352046082066"><ele>16.0</ele><time>2026-04-24T09:05:50Z</time></trkpt><trkpt lat="41.04343896553611" lon="14.203432422052384"><ele>16.0</ele><time>2026-04-24T09:05:51Z</time></trkpt><trkpt lat="41.04341607034036" lon="14.203337363396674"><ele>16.0</ele><time>2026-04-24T09:05:52Z</time></trkpt><trkpt lat="41.0434132033078" lon="14.203220388235792"><ele>15.999999999999998</ele><time>2026-04-24T09:05:53Z</time></trkpt><trkpt lat="41.04339060995696" lon="14.203113572730103"><ele>16.0</ele><time>2026-04-24T09:05:54Z</time></trkpt><trkpt lat="41.043354218233944" lon="14.20301431112043"><ele>15.999999999999998</ele><time>2026-04-24T09:05:55Z</time></trkpt><trkpt lat="41.04334671505531" lon="14.202906048845229"><ele>16.0</ele><time>2026-04-24T09:05:56Z</time></trkpt><trkpt lat="41.0433134792998" lon="14.202803683725495"><ele>16.0</ele><time>2026-04-24T09:05:57Z</time></trkpt><trkpt lat="41.04329475151973" lon="14.202708565102043"><ele>16.0</ele><time>2026-04-24T09:05:58Z</time></trkpt><trkpt lat="41.043275636072444" lon="14.202628052118579"><ele>15.999999999999998</ele><time>2026-04-24T09:05:59Z</time></trkpt><trkpt lat="41.04325186643208" lon="14.202512508007425"><ele>16.0</ele><time>2026-04-24T09:06:00Z</time></trkpt><trkpt lat="41.043231899715366" lon="14.202419708623873"><ele>15.666666666666666</ele><time>2026-04-24T09:06:01Z</time></trkpt><trkpt lat="41.04321302263679" lon="14.202330792257559"><ele>15.333333333333332</ele><time>2026-04-24T09:06:02Z</time></trkpt><trkpt lat="41.04319404940332" lon="14.202241245716724"><ele>15.0</ele><time>2026-04-24T09:06:03Z</time></trkpt><trkpt lat="41.04317641514185" lon="14.202157011409941"><ele>14.666666666666668</ele><time>2026-04-24T09:06:04Z</time></trkpt><trkpt lat="41.04317088878974" lon="14.20201989424688"><ele>14.333333333333334</ele><time>2026-04-24T09:06:06Z</time></trkpt><trkpt lat="41.04317319299853" lon="14.201926680730683"><ele>14.0</ele><time>2026-04-24T09:06:08Z</time></trkpt><trkpt lat="41.04346330585985" lon="14.201956567056197"><ele>14.0</ele><time>2026-04-24T09:06:16Z</time></trkpt><trkpt lat="41.0435490617698" lon="14.201957543313943"><ele>13.999999999999998</ele><time>2026-04-24T09:06:17Z</time></trkpt><trkpt lat="41.043630667236116" lon="14.20196666420361"><ele>13.999999999999998</ele><time>2026-04-24T09:06:18Z</time></trkpt><trkpt lat="41.043730433320725" lon="14.201982127742742"><ele>14.0</ele><time>2026-04-24T09:06:19Z</time></trkpt><trkpt lat="41.04383571832516" lon="14.201997488582387"><ele>14.0</ele><time>2026-04-24T09:06:20Z</time></trkpt><trkpt lat="41.04394029623041" lon="14.202017220258226"><ele>14.0</ele><time>2026-04-24T09:06:21Z</time></trkpt><trkpt lat="41.04404350890591" lon="14.202033590196152"><ele>13.999999999999998</ele><time>2026-04-24T09:06:22Z</time></trkpt><trkpt lat="41.04415280367148" lon="14.202041191794327"><ele>13.999999999999998</ele><time>2026-04-24T09:06:23Z</time></trkpt><trkpt lat="41.04425322685586" lon="14.202057151042897"><ele>14.0</ele><time>2026-04-24T09:06:24Z</time></trkpt><trkpt lat="41.044353334238494" lon="14.202071722209347"><ele>14.0</ele><time>2026-04-24T09:06:24.999Z</time></trkpt><trkpt lat="41.044445049309935" lon="14.202079882830233"><ele>14.2</ele><time>2026-04-24T09:06:25.999Z</time></trkpt><trkpt lat="41.044541654408974" lon="14.202094520112748"><ele>14.399999999999999</ele><time>2026-04-24T09:06:26.999Z</time></trkpt><trkpt lat="41.04463124747694" lon="14.20210747333663"><ele>14.6</ele><time>2026-04-24T09:06:27.999Z</time></trkpt><trkpt lat="41.04479445089422" lon="14.202131313646092"><ele>14.8</ele><time>2026-04-24T09:06:29.999Z</time></trkpt><trkpt lat="41.04486604128094" lon="14.202150871557878"><ele>15.0</ele><time>2026-04-24T09:06:30.999Z</time></trkpt><trkpt lat="41.04492973869172" lon="14.202177536505738"><ele>14.666666666666666</ele><time>2026-04-24T09:06:31.999Z</time></trkpt><trkpt lat="41.045034807788824" lon="14.202277736483092"><ele>14.333333333333332</ele><time>2026-04-24T09:06:33.999Z</time></trkpt><trkpt lat="41.04509142075721" lon="14.202338205134668"><ele>14.0</ele><time>2026-04-24T09:06:34.999Z</time></trkpt><trkpt lat="41.045145424956495" lon="14.202394467043058"><ele>13.666666666666666</ele><time>2026-04-24T09:06:35.999Z</time></trkpt><trkpt lat="41.045225468379165" lon="14.202456813632766"><ele>13.333333333333332</ele><time>2026-04-24T09:06:37.999Z</time></trkpt><trkpt lat="41.04528688321702" lon="14.20248818967453"><ele>13.0</ele><time>2026-04-24T09:06:39.999Z</time></trkpt><trkpt lat="41.04538430076075" lon="14.202497593384166"><ele>12.999999999999998</ele><time>2026-04-24T09:06:41.999Z</time></trkpt><trkpt lat="41.04544779263533" lon="14.202507845576527"><ele>13.0</ele><time>2026-04-24T09:06:42.999Z</time></trkpt><trkpt lat="41.04552918271801" lon="14.202527160676574"><ele>13.0</ele><time>2026-04-24T09:06:43.999Z</time></trkpt><trkpt lat="41.04562159769961" lon="14.202550451008985"><ele>13.0</ele><time>2026-04-24T09:06:44.999Z</time></trkpt><trkpt lat="41.04571275964205" lon="14.202569438874928"><ele>12.999999999999998</ele><time>2026-04-24T09:06:45.999Z</time></trkpt><trkpt lat="41.0458135574581" lon="14.202587374355073"><ele>13.0</ele><time>2026-04-24T09:06:46.999Z</time></trkpt><trkpt lat="41.04592032308072" lon="14.202612532267269"><ele>13.0</ele><time>2026-04-24T09:06:47.999Z</time></trkpt><trkpt lat="41.04602120611052" lon="14.202635494732604"><ele>13.0</ele><time>2026-04-24T09:06:48.999Z</time></trkpt><trkpt lat="41.04612917463066" lon="14.20265752342104"><ele>13.0</ele><time>2026-04-24T09:06:49.999Z</time></trkpt><trkpt lat="41.0462412100456" lon="14.202680534993222"><ele>13.0</ele><time>2026-04-24T09:06:50.999Z</time></trkpt><trkpt lat="41.04635811042627" lon="14.202704976920096"><ele>13.0</ele><time>2026-04-24T09:06:51.999Z</time></trkpt><trkpt lat="41.04647244830389" lon="14.202729503309325"><ele>13.0</ele><time>2026-04-24T09:06:52.999Z</time></trkpt><trkpt lat="41.04658552835853" lon="14.202751352629525"><ele>13.0</ele><time>2026-04-24T09:06:53.999Z</time></trkpt><trkpt lat="41.046696598646655" lon="14.20276955629753"><ele>13.0</ele><time>2026-04-24T09:06:54.999Z</time></trkpt><trkpt lat="41.04681171157031" lon="14.202790096530608"><ele>13.0</ele><time>2026-04-24T09:06:55.999Z</time></trkpt><trkpt lat="41.04692178590495" lon="14.202817187276397"><ele>13.4</ele><time>2026-04-24T09:06:56.999Z</time></trkpt><trkpt lat="41.0470252587869" lon="14.202841020112343"><ele>13.8</ele><time>2026-04-24T09:06:57.999Z</time></trkpt><trkpt lat="41.0471257991535" lon="14.202862745476978"><ele>14.2</ele><time>2026-04-24T09:06:58.999Z</time></trkpt><trkpt lat="41.0472245864477" lon="14.20288126437633"><ele>14.6</ele><time>2026-04-24T09:06:59.999Z</time></trkpt><trkpt lat="41.04732182876436" lon="14.202900760213009"><ele>15.0</ele><time>2026-04-24T09:07:00.999Z</time></trkpt><trkpt lat="41.047422200647816" lon="14.202926371510618"><ele>15.2</ele><time>2026-04-24T09:07:01.999Z</time></trkpt><trkpt lat="41.04751908608801" lon="14.202946351217618"><ele>15.4</ele><time>2026-04-24T09:07:02.999Z</time></trkpt><trkpt lat="41.047612635905836" lon="14.202966360396017"><ele>15.600000000000001</ele><time>2026-04-24T09:07:03.999Z</time></trkpt><trkpt lat="41.04770989539958" lon="14.202984934858824"><ele>15.8</ele><time>2026-04-24T09:07:04.999Z</time></trkpt><trkpt lat="41.04780803740818" lon="14.20300435218967"><ele>16.0</ele><time>2026-04-24T09:07:05.999Z</time></trkpt><trkpt lat="41.047910650919455" lon="14.203021077821978"><ele>16.0</ele><time>2026-04-24T09:07:06.999Z</time></trkpt><trkpt lat="41.048011577884985" lon="14.20303523241139"><ele>16.0</ele><time>2026-04-24T09:07:07.999Z</time></trkpt><trkpt lat="41.048115135364355" lon="14.203050756319728"><ele>16.0</ele><time>2026-04-24T09:07:08.999Z</time></trkpt><trkpt lat="41.04822322261817" lon="14.20305906184592"><ele>16.0</ele><time>2026-04-24T09:07:09.999Z</time></trkpt><trkpt lat="41.04833964837374" lon="14.203064076438695"><ele>16.0</ele><time>2026-04-24T09:07:10.999Z</time></trkpt><trkpt lat="41.04844504878685" lon="14.20307780275274"><ele>15.75</ele><time>2026-04-24T09:07:11.999Z</time></trkpt><trkpt lat="41.04855252648129" lon="14.203089974360296"><ele>15.5</ele><time>2026-04-24T09:07:12.999Z</time></trkpt><trkpt lat="41.04866371846902" lon="14.20311637984207"><ele>15.25</ele><time>2026-04-24T09:07:13.999Z</time></trkpt><trkpt lat="41.04887433735985" lon="14.203134166272982"><ele>15.0</ele><time>2026-04-24T09:07:15.999Z</time></trkpt><trkpt lat="41.04897464087031" lon="14.203159210046534"><ele>15.0</ele><time>2026-04-24T09:07:16.999Z</time></trkpt><trkpt lat="41.049073409072506" lon="14.203157479353456"><ele>15.0</ele><time>2026-04-24T09:07:17.999Z</time></trkpt><trkpt lat="41.04916740762318" lon="14.203164244697449"><ele>15.0</ele><time>2026-04-24T09:07:18.999Z</time></trkpt><trkpt lat="41.04925024195647" lon="14.203167473764905"><ele>15.0</ele><time>2026-04-24T09:07:19.999Z</time></trkpt><trkpt lat="41.0493333296226" lon="14.203175592752793"><ele>15.0</ele><time>2026-04-24T09:07:20.999Z</time></trkpt><trkpt lat="41.04940783406364" lon="14.203185034778665"><ele>15.0</ele><time>2026-04-24T09:07:21.998Z</time></trkpt><trkpt lat="41.049472059805744" lon="14.203190925585952"><ele>15.0</ele><time>2026-04-24T09:07:22.998Z</time></trkpt><trkpt lat="41.04955704775442" lon="14.203195789163138"><ele>15.0</ele><time>2026-04-24T09:07:24.998Z</time></trkpt><trkpt lat="41.04962459128425" lon="14.20319770405045"><ele>15.0</ele><time>2026-04-24T09:07:31.998Z</time></trkpt><trkpt lat="41.04971728783743" lon="14.20318214424499"><ele>15.0</ele><time>2026-04-24T09:07:49Z</time></trkpt><trkpt lat="41.049803607755045" lon="14.203209439263508"><ele>15.0</ele><time>2026-04-24T09:07:51Z</time></trkpt><trkpt lat="41.04991852389445" lon="14.203204980626532"><ele>15.0</ele><time>2026-04-24T09:07:53Z</time></trkpt><trkpt lat="41.04998929729033" lon="14.20321170466139"><ele>15.0</ele><time>2026-04-24T09:07:54Z</time></trkpt><trkpt lat="41.050065680738264" lon="14.203216512861998"><ele>15.0</ele><time>2026-04-24T09:07:55Z</time></trkpt><trkpt lat="41.05014718106954" lon="14.203222142138165"><ele>15.0</ele><time>2026-04-24T09:07:56Z</time></trkpt><trkpt lat="41.05023460610951" lon="14.203230621534003"><ele>15.0</ele><time>2026-04-24T09:07:57Z</time></trkpt><trkpt lat="41.05032888623802" lon="14.203256983850258"><ele>15.0</ele><time>2026-04-24T09:07:58Z</time></trkpt><trkpt lat="41.05042268056709" lon="14.203255758110286"><ele>15.0</ele><time>2026-04-24T09:07:59Z</time></trkpt><trkpt lat="41.050517907788695" lon="14.203263779854188"><ele>15.0</ele><time>2026-04-24T09:08:00Z</time></trkpt><trkpt lat="41.05062343401232" lon="14.203274094387744"><ele>15.0</ele><time>2026-04-24T09:08:01Z</time></trkpt><trkpt lat="41.05072272107496" lon="14.203277933624125"><ele>15.0</ele><time>2026-04-24T09:08:02Z</time></trkpt><trkpt lat="41.05082181978556" lon="14.20328020612929"><ele>15.0</ele><time>2026-04-24T09:08:03Z</time></trkpt><trkpt lat="41.05093304992234" lon="14.20328895219383"><ele>14.6</ele><time>2026-04-24T09:08:04Z</time></trkpt><trkpt lat="41.05102888735156" lon="14.20329730805527"><ele>14.2</ele><time>2026-04-24T09:08:05Z</time></trkpt><trkpt lat="41.05113464034108" lon="14.203309965620699"><ele>13.8</ele><time>2026-04-24T09:08:06Z</time></trkpt><trkpt lat="41.05124873366553" lon="14.203321072212754"><ele>13.4</ele><time>2026-04-24T09:08:07Z</time></trkpt><trkpt lat="41.051362330414214" lon="14.203313990359558"><ele>13.0</ele><time>2026-04-24T09:08:08Z</time></trkpt><trkpt lat="41.051477539800985" lon="14.203319667980095"><ele>13.0</ele><time>2026-04-24T09:08:09Z</time></trkpt><trkpt lat="41.0517086103584" lon="14.203343715022042"><ele>13.0</ele><time>2026-04-24T09:08:11Z</time></trkpt><trkpt lat="41.05182721509082" lon="14.203355914801042"><ele>13.0</ele><time>2026-04-24T09:08:12Z</time></trkpt><trkpt lat="41.05194672681003" lon="14.203372880279254"><ele>13.0</ele><time>2026-04-24T09:08:13Z</time></trkpt><trkpt lat="41.05206309183701" lon="14.203361397011669"><ele>13.0</ele><time>2026-04-24T09:08:14Z</time></trkpt><trkpt lat="41.05216971989414" lon="14.203373601003031"><ele>13.0</ele><time>2026-04-24T09:08:15Z</time></trkpt><trkpt lat="41.05226928671942" lon="14.203394345310763"><ele>13.0</ele><time>2026-04-24T09:08:16Z</time></trkpt><trkpt lat="41.05236789029899" lon="14.203406729746268"><ele>13.0</ele><time>2026-04-24T09:08:17Z</time></trkpt><trkpt lat="41.052470097384926" lon="14.203425348835752"><ele>13.2</ele><time>2026-04-24T09:08:18Z</time></trkpt><trkpt lat="41.05257480024809" lon="14.203446180429813"><ele>13.4</ele><time>2026-04-24T09:08:19Z</time></trkpt><trkpt lat="41.05267342518857" lon="14.20344483698473"><ele>13.599999999999998</ele><time>2026-04-24T09:08:20Z</time></trkpt><trkpt lat="41.052767760036495" lon="14.203484121487502"><ele>13.799999999999999</ele><time>2026-04-24T09:08:21Z</time></trkpt><trkpt lat="41.05286923131742" lon="14.203505620094628"><ele>14.0</ele><time>2026-04-24T09:08:22Z</time></trkpt><trkpt lat="41.052965926088156" lon="14.203511470334787"><ele>14.0</ele><time>2026-04-24T09:08:23Z</time></trkpt><trkpt lat="41.05308627610075" lon="14.203527394178185"><ele>14.0</ele><time>2026-04-24T09:08:24Z</time></trkpt><trkpt lat="41.05320832287086" lon="14.203553211085094"><ele>14.0</ele><time>2026-04-24T09:08:25Z</time></trkpt><trkpt lat="41.053338713459304" lon="14.203591570209992"><ele>14.0</ele><time>2026-04-24T09:08:26Z</time></trkpt><trkpt lat="41.05345264170478" lon="14.20362161826487"><ele>13.833333333333334</ele><time>2026-04-24T09:08:26.999Z</time></trkpt><trkpt lat="41.053544246216994" lon="14.203641607921378"><ele>13.666666666666668</ele><time>2026-04-24T09:08:27.999Z</time></trkpt><trkpt lat="41.053644546670476" lon="14.203622334475964"><ele>13.5</ele><time>2026-04-24T09:08:28.999Z</time></trkpt><trkpt lat="41.05373025193688" lon="14.203641407650743"><ele>13.333333333333332</ele><time>2026-04-24T09:08:29.999Z</time></trkpt><trkpt lat="41.05381471312189" lon="14.203653841064366"><ele>13.166666666666666</ele><time>2026-04-24T09:08:30.999Z</time></trkpt><trkpt lat="41.05389031500449" lon="14.203658180480785"><ele>13.0</ele><time>2026-04-24T09:08:31.999Z</time></trkpt><trkpt lat="41.05400346394068" lon="14.20365833977317"><ele>13.0</ele><time>2026-04-24T09:08:33.999Z</time></trkpt><trkpt lat="41.05405214126692" lon="14.203599331017637"><ele>13.0</ele><time>2026-04-24T09:08:46.999Z</time></trkpt><trkpt lat="41.05408970951294" lon="14.203454544134395"><ele>13.0</ele><time>2026-04-24T09:08:48.999Z</time></trkpt><trkpt lat="41.054122187388394" lon="14.203360389541173"><ele>13.0</ele><time>2026-04-24T09:08:51.999Z</time></trkpt><trkpt lat="41.05422025070552" lon="14.20334696401715"><ele>13.0</ele><time>2026-04-24T09:08:53.999Z</time></trkpt><trkpt lat="41.054367130913086" lon="14.203374328614427"><ele>13.2</ele><time>2026-04-24T09:08:55.999Z</time></trkpt><trkpt lat="41.05445668060461" lon="14.20337871733001"><ele>13.4</ele><time>2026-04-24T09:08:56.999Z</time></trkpt><trkpt lat="41.05455886467316" lon="14.203385749689915"><ele>13.599999999999998</ele><time>2026-04-24T09:08:57.999Z</time></trkpt><trkpt lat="41.05468203580088" lon="14.203384999966644"><ele>13.799999999999999</ele><time>2026-04-24T09:08:58.999Z</time></trkpt><trkpt lat="41.054808557962055" lon="14.203394289656078"><ele>14.0</ele><time>2026-04-24T09:08:59.999Z</time></trkpt><trkpt lat="41.054964876290484" lon="14.203424440981433"><ele>14.5</ele><time>2026-04-24T09:09:00.999Z</time></trkpt><trkpt lat="41.055112722453295" lon="14.203479078046442"><ele>15.0</ele><time>2026-04-24T09:09:01.999Z</time></trkpt><trkpt lat="41.05525114924684" lon="14.20348823735939"><ele>15.5</ele><time>2026-04-24T09:09:02.999Z</time></trkpt><trkpt lat="41.05540519594084" lon="14.20348481093566"><ele>16.0</ele><time>2026-04-24T09:09:03.999Z</time></trkpt><trkpt lat="41.05556810008525" lon="14.203493092053163"><ele>16.0</ele><time>2026-04-24T09:09:04.999Z</time></trkpt><trkpt lat="41.05572379794829" lon="14.203523751481077"><ele>16.0</ele><time>2026-04-24T09:09:05.999Z</time></trkpt><trkpt lat="41.055899105373435" lon="14.203531216445931"><ele>16.0</ele><time>2026-04-24T09:09:06.999Z</time></trkpt><trkpt lat="41.05607963095327" lon="14.20356187120657"><ele>15.333333333333332</ele><time>2026-04-24T09:09:07.999Z</time></trkpt><trkpt lat="41.05624775847375" lon="14.20356635970299"><ele>14.666666666666668</ele><time>2026-04-24T09:09:08.999Z</time></trkpt><trkpt lat="41.05641370370357" lon="14.203579352937805"><ele>14.0</ele><time>2026-04-24T09:09:09.999Z</time></trkpt><trkpt lat="41.05656473541673" lon="14.20359196257165"><ele>14.25</ele><time>2026-04-24T09:09:10.999Z</time></trkpt><trkpt lat="41.056707575162996" lon="14.203607492157992"><ele>14.5</ele><time>2026-04-24T09:09:11.999Z</time></trkpt><trkpt lat="41.05682988044659" lon="14.203617312675616"><ele>14.75</ele><time>2026-04-24T09:09:12.999Z</time></trkpt><trkpt lat="41.056938478420676" lon="14.203624059451446"><ele>15.0</ele><time>2026-04-24T09:09:13.999Z</time></trkpt><trkpt lat="41.057039473671615" lon="14.20362557016731"><ele>15.0</ele><time>2026-04-24T09:09:14.999Z</time></trkpt><trkpt lat="41.057138330482786" lon="14.203610855523594"><ele>15.0</ele><time>2026-04-24T09:09:15.999Z</time></trkpt><trkpt lat="41.057349688832424" lon="14.203558252192567"><ele>15.0</ele><time>2026-04-24T09:09:18.999Z</time></trkpt><trkpt lat="41.05744487885559" lon="14.203562257863235"><ele>15.0</ele><time>2026-04-24T09:09:19.999Z</time></trkpt><trkpt lat="41.05753571152469" lon="14.203570724505246"><ele>15.0</ele><time>2026-04-24T09:09:20.998Z</time></trkpt><trkpt lat="41.057603421889645" lon="14.20361207558342"><ele>15.0</ele><time>2026-04-24T09:09:21.998Z</time></trkpt><trkpt lat="41.057662219971846" lon="14.203685385397552"><ele>15.0</ele><time>2026-04-24T09:09:22.998Z</time></trkpt><trkpt lat="41.057709909348716" lon="14.203774062778336"><ele>15.0</ele><time>2026-04-24T09:09:23.998Z</time></trkpt><trkpt lat="41.057756358462505" lon="14.203863058171494"><ele>15.0</ele><time>2026-04-24T09:09:24.998Z</time></trkpt><trkpt lat="41.05779511181223" lon="14.203931301072886"><ele>15.0</ele><time>2026-04-24T09:09:25.998Z</time></trkpt><trkpt lat="41.05784931233953" lon="14.203996858140526"><ele>14.8</ele><time>2026-04-24T09:09:27.998Z</time></trkpt><trkpt lat="41.05791568148378" lon="14.203952050540847"><ele>14.6</ele><time>2026-04-24T09:09:29.998Z</time></trkpt><trkpt lat="41.05798079831426" lon="14.203813450006788"><ele>14.399999999999999</ele><time>2026-04-24T09:09:31.998Z</time></trkpt><trkpt lat="41.05801119834566" lon="14.203712580197056"><ele>14.2</ele><time>2026-04-24T09:09:32.998Z</time></trkpt><trkpt lat="41.05804296460591" lon="14.20359498131951"><ele>14.0</ele><time>2026-04-24T09:09:33.998Z</time></trkpt><trkpt lat="41.058077885102925" lon="14.203456088173738"><ele>14.0</ele><time>2026-04-24T09:09:34.998Z</time></trkpt><trkpt lat="41.05811137481622" lon="14.203312806622145"><ele>14.0</ele><time>2026-04-24T09:09:35.998Z</time></trkpt><trkpt lat="41.05814580777386" lon="14.203165489660783"><ele>14.0</ele><time>2026-04-24T09:09:36.998Z</time></trkpt><trkpt lat="41.05817082854253" lon="14.203005979010106"><ele>14.0</ele><time>2026-04-24T09:09:37.998Z</time></trkpt><trkpt lat="41.05821577839525" lon="14.20284212024892"><ele>14.25</ele><time>2026-04-24T09:09:38.998Z</time></trkpt><trkpt lat="41.05826140723928" lon="14.202680096201417"><ele>14.5</ele><time>2026-04-24T09:09:39.998Z</time></trkpt><trkpt lat="41.058302387101364" lon="14.202506739693437"><ele>14.75</ele><time>2026-04-24T09:09:40.998Z</time></trkpt><trkpt lat="41.05834612427795" lon="14.202325704115722"><ele>15.0</ele><time>2026-04-24T09:09:41.998Z</time></trkpt><trkpt lat="41.05838899780249" lon="14.202148353920915"><ele>15.0</ele><time>2026-04-24T09:09:42.998Z</time></trkpt><trkpt lat="41.05843716477046" lon="14.201960211474944"><ele>15.0</ele><time>2026-04-24T09:09:43.998Z</time></trkpt><trkpt lat="41.05848540948235" lon="14.201772309048264"><ele>15.0</ele><time>2026-04-24T09:09:44.998Z</time></trkpt><trkpt lat="41.05853976818382" lon="14.201594468715871"><ele>15.0</ele><time>2026-04-24T09:09:46Z</time></trkpt><trkpt lat="41.05858989469412" lon="14.201408888464176"><ele>14.666666666666668</ele><time>2026-04-24T09:09:47Z</time></trkpt><trkpt lat="41.058641372953325" lon="14.201220623995878"><ele>14.333333333333334</ele><time>2026-04-24T09:09:48Z</time></trkpt><trkpt lat="41.05869055263715" lon="14.201032643250572"><ele>14.0</ele><time>2026-04-24T09:09:49Z</time></trkpt><trkpt lat="41.05874091055143" lon="14.200842532778644"><ele>14.0</ele><time>2026-04-24T09:09:50Z</time></trkpt><trkpt lat="41.05879454754656" lon="14.200648019578095"><ele>14.0</ele><time>2026-04-24T09:09:51Z</time></trkpt><trkpt lat="41.05884791645085" lon="14.200451171807668"><ele>14.0</ele><time>2026-04-24T09:09:52Z</time></trkpt><trkpt lat="41.05890109160023" lon="14.200252068200577"><ele>14.0</ele><time>2026-04-24T09:09:53Z</time></trkpt><trkpt lat="41.05895352071184" lon="14.200053326714999"><ele>14.0</ele><time>2026-04-24T09:09:54Z</time></trkpt><trkpt lat="41.05900568474869" lon="14.199851804861702"><ele>14.0</ele><time>2026-04-24T09:09:55Z</time></trkpt><trkpt lat="41.059057840292716" lon="14.199645311752763"><ele>14.0</ele><time>2026-04-24T09:09:56Z</time></trkpt><trkpt lat="41.05911196319251" lon="14.199438221273924"><ele>14.0</ele><time>2026-04-24T09:09:57Z</time></trkpt><trkpt lat="41.05916736957002" lon="14.199231135560122"><ele>14.0</ele><time>2026-04-24T09:09:58Z</time></trkpt><trkpt lat="41.05922299642755" lon="14.199024118702539"><ele>14.0</ele><time>2026-04-24T09:09:59Z</time></trkpt><trkpt lat="41.05927168774416" lon="14.198821340874385"><ele>14.0</ele><time>2026-04-24T09:10:00Z</time></trkpt><trkpt lat="41.059322290379455" lon="14.19860985435757"><ele>14.0</ele><time>2026-04-24T09:10:01Z</time></trkpt><trkpt lat="41.05937106616134" lon="14.198416515544718"><ele>14.0</ele><time>2026-04-24T09:10:02Z</time></trkpt><trkpt lat="41.05941980397412" lon="14.19822733051527"><ele>14.0</ele><time>2026-04-24T09:10:03Z</time></trkpt><trkpt lat="41.05946354481489" lon="14.198049140605502"><ele>14.0</ele><time>2026-04-24T09:10:04Z</time></trkpt><trkpt lat="41.059525395709535" lon="14.197889258670312"><ele>14.0</ele><time>2026-04-24T09:10:05Z</time></trkpt><trkpt lat="41.05956597298679" lon="14.197732259617396"><ele>14.399999999999999</ele><time>2026-04-24T09:10:06Z</time></trkpt><trkpt lat="41.05958557255847" lon="14.197581635724454"><ele>14.799999999999999</ele><time>2026-04-24T09:10:07Z</time></trkpt><trkpt lat="41.059625733568616" lon="14.197466151295778"><ele>15.200000000000001</ele><time>2026-04-24T09:10:08Z</time></trkpt><trkpt lat="41.059649256545605" lon="14.197349503033148"><ele>15.600000000000001</ele><time>2026-04-24T09:10:09Z</time></trkpt><trkpt lat="41.05967035868111" lon="14.197261964213274"><ele>16.0</ele><time>2026-04-24T09:10:10Z</time></trkpt><trkpt lat="41.059700945471675" lon="14.197129028985449"><ele>16.0</ele><time>2026-04-24T09:10:12Z</time></trkpt><trkpt lat="41.059730108317325" lon="14.197032171093364"><ele>16.0</ele><time>2026-04-24T09:10:15Z</time></trkpt><trkpt lat="41.05981008281801" lon="14.197199954646218"><ele>16.0</ele><time>2026-04-24T09:10:20Z</time></trkpt><trkpt lat="41.059868919418705" lon="14.197361182708901"><ele>16.0</ele><time>2026-04-24T09:10:22Z</time></trkpt><trkpt lat="41.059906664261376" lon="14.197483306109369"><ele>16.0</ele><time>2026-04-24T09:10:23Z</time></trkpt><trkpt lat="41.05994845801032" lon="14.197608608531453"><ele>16.0</ele><time>2026-04-24T09:10:24Z</time></trkpt><trkpt lat="41.05999110996645" lon="14.197742797996968"><ele>16.0</ele><time>2026-04-24T09:10:24.999Z</time></trkpt><trkpt lat="41.060038915933205" lon="14.197892390828905"><ele>16.0</ele><time>2026-04-24T09:10:25.999Z</time></trkpt><trkpt lat="41.060088173059334" lon="14.19804991525914"><ele>15.75</ele><time>2026-04-24T09:10:26.999Z</time></trkpt><trkpt lat="41.0601389839883" lon="14.198214543776032"><ele>15.5</ele><time>2026-04-24T09:10:27.999Z</time></trkpt><trkpt lat="41.060195723946336" lon="14.19839094439324"><ele>15.25</ele><time>2026-04-24T09:10:28.999Z</time></trkpt><trkpt lat="41.060252733431376" lon="14.198576723024328"><ele>15.0</ele><time>2026-04-24T09:10:29.999Z</time></trkpt><trkpt lat="41.06030947981268" lon="14.198765927026345"><ele>15.0</ele><time>2026-04-24T09:10:30.999Z</time></trkpt><trkpt lat="41.06036774615485" lon="14.198961307800072"><ele>15.0</ele><time>2026-04-24T09:10:31.999Z</time></trkpt><trkpt lat="41.06042986371794" lon="14.199163641736046"><ele>15.0</ele><time>2026-04-24T09:10:32.999Z</time></trkpt><trkpt lat="41.06049315987394" lon="14.199364382261336"><ele>15.0</ele><time>2026-04-24T09:10:33.999Z</time></trkpt><trkpt lat="41.06055790188162" lon="14.199569950276263"><ele>15.0</ele><time>2026-04-24T09:10:34.999Z</time></trkpt><trkpt lat="41.0606190972069" lon="14.199776190165109"><ele>15.0</ele><time>2026-04-24T09:10:35.999Z</time></trkpt><trkpt lat="41.06068628451412" lon="14.199991627360392"><ele>15.0</ele><time>2026-04-24T09:10:36.999Z</time></trkpt><trkpt lat="41.06075520627466" lon="14.200207162294818"><ele>15.0</ele><time>2026-04-24T09:10:37.999Z</time></trkpt><trkpt lat="41.060823415455296" lon="14.200419604528562"><ele>15.0</ele><time>2026-04-24T09:10:38.999Z</time></trkpt><trkpt lat="41.0608907243829" lon="14.200634168955354"><ele>14.666666666666668</ele><time>2026-04-24T09:10:39.999Z</time></trkpt><trkpt lat="41.060956270133154" lon="14.20085562683004"><ele>14.333333333333334</ele><time>2026-04-24T09:10:40.999Z</time></trkpt><trkpt lat="41.061023561884" lon="14.201080810145834"><ele>14.0</ele><time>2026-04-24T09:10:41.999Z</time></trkpt><trkpt lat="41.06108775803864" lon="14.201304238141491"><ele>14.0</ele><time>2026-04-24T09:10:42.999Z</time></trkpt><trkpt lat="41.061156174564175" lon="14.201527667030225"><ele>14.0</ele><time>2026-04-24T09:10:43.999Z</time></trkpt><trkpt lat="41.061225112279836" lon="14.201747561848972"><ele>14.0</ele><time>2026-04-24T09:10:44.999Z</time></trkpt><trkpt lat="41.06129151563963" lon="14.201958898647625"><ele>14.0</ele><time>2026-04-24T09:10:45.999Z</time></trkpt><trkpt lat="41.061360218347886" lon="14.202168073077443"><ele>14.0</ele><time>2026-04-24T09:10:46.999Z</time></trkpt><trkpt lat="41.061428752045366" lon="14.202376896949303"><ele>14.0</ele><time>2026-04-24T09:10:47.999Z</time></trkpt><trkpt lat="41.061495309163" lon="14.202581537140562"><ele>14.5</ele><time>2026-04-24T09:10:48.999Z</time></trkpt><trkpt lat="41.06155721283116" lon="14.202783917355832"><ele>15.0</ele><time>2026-04-24T09:10:49.999Z</time></trkpt><trkpt lat="41.06167175552154" lon="14.203198881921207"><ele>16.333333333333332</ele><time>2026-04-24T09:10:51.999Z</time></trkpt><trkpt lat="41.061735189020325" lon="14.203410269809675"><ele>17.666666666666664</ele><time>2026-04-24T09:10:52.999Z</time></trkpt><trkpt lat="41.06181062158013" lon="14.203620717900062"><ele>19.0</ele><time>2026-04-24T09:10:53.999Z</time></trkpt><trkpt lat="41.061882099044915" lon="14.203836755814695"><ele>19.333333333333332</ele><time>2026-04-24T09:10:54.999Z</time></trkpt><trkpt lat="41.061940124443716" lon="14.20404838686686"><ele>19.666666666666668</ele><time>2026-04-24T09:10:55.999Z</time></trkpt><trkpt lat="41.06200404994197" lon="14.204267267687962"><ele>20.0</ele><time>2026-04-24T09:10:56.999Z</time></trkpt><trkpt lat="41.06206793994492" lon="14.204486448821475"><ele>20.0</ele><time>2026-04-24T09:10:57.999Z</time></trkpt><trkpt lat="41.06213565148765" lon="14.204702242796188"><ele>20.0</ele><time>2026-04-24T09:10:58.999Z</time></trkpt><trkpt lat="41.062209497030295" lon="14.204926090044149"><ele>20.0</ele><time>2026-04-24T09:10:59.999Z</time></trkpt><trkpt lat="41.0622750002131" lon="14.205141526133072"><ele>18.333333333333336</ele><time>2026-04-24T09:11:00.999Z</time></trkpt><trkpt lat="41.06234311616753" lon="14.205346554947841"><ele>16.666666666666668</ele><time>2026-04-24T09:11:01.999Z</time></trkpt><trkpt lat="41.06241015892645" lon="14.205564443125361"><ele>15.0</ele><time>2026-04-24T09:11:02.999Z</time></trkpt><trkpt lat="41.06248027609551" lon="14.205774955047408"><ele>15.0</ele><time>2026-04-24T09:11:03.999Z</time></trkpt><trkpt lat="41.06255040302924" lon="14.205977533328"><ele>15.0</ele><time>2026-04-24T09:11:04.999Z</time></trkpt><trkpt lat="41.06261044104059" lon="14.206177375453475"><ele>15.0</ele><time>2026-04-24T09:11:05.999Z</time></trkpt><trkpt lat="41.062663254504784" lon="14.206378404441091"><ele>15.0</ele><time>2026-04-24T09:11:06.999Z</time></trkpt><trkpt lat="41.06272357871129" lon="14.206581603916678"><ele>15.0</ele><time>2026-04-24T09:11:07.999Z</time></trkpt><trkpt lat="41.06278596538613" lon="14.206781778002897"><ele>15.0</ele><time>2026-04-24T09:11:08.999Z</time></trkpt><trkpt lat="41.062850308234545" lon="14.206982971469182"><ele>15.0</ele><time>2026-04-24T09:11:09.999Z</time></trkpt><trkpt lat="41.06292034317255" lon="14.207189868425532"><ele>15.0</ele><time>2026-04-24T09:11:10.999Z</time></trkpt><trkpt lat="41.06298680717572" lon="14.207399120019506"><ele>15.0</ele><time>2026-04-24T09:11:11.999Z</time></trkpt><trkpt lat="41.06305458912776" lon="14.20760773782369"><ele>15.0</ele><time>2026-04-24T09:11:12.999Z</time></trkpt><trkpt lat="41.06312214195111" lon="14.207820963991333"><ele>15.0</ele><time>2026-04-24T09:11:13.999Z</time></trkpt><trkpt lat="41.06319006293591" lon="14.208031348734737"><ele>15.0</ele><time>2026-04-24T09:11:14.999Z</time></trkpt><trkpt lat="41.06325661251276" lon="14.208242777391584"><ele>15.0</ele><time>2026-04-24T09:11:15.999Z</time></trkpt><trkpt lat="41.063318121699" lon="14.208450848315987"><ele>15.0</ele><time>2026-04-24T09:11:16.999Z</time></trkpt><trkpt lat="41.063372249783704" lon="14.20864595395691"><ele>15.0</ele><time>2026-04-24T09:11:17.999Z</time></trkpt><trkpt lat="41.06341384288153" lon="14.20884730225349"><ele>15.0</ele><time>2026-04-24T09:11:18.998Z</time></trkpt><trkpt lat="41.06345755004802" lon="14.20899220614412"><ele>15.0</ele><time>2026-04-24T09:11:19.998Z</time></trkpt><trkpt lat="41.063503666109035" lon="14.209103008564263"><ele>15.0</ele><time>2026-04-24T09:11:20.998Z</time></trkpt><trkpt lat="41.063553209642514" lon="14.209184391603488"><ele>15.0</ele><time>2026-04-24T09:11:21.998Z</time></trkpt><trkpt lat="41.06358801280835" lon="14.209283474652821"><ele>15.0</ele><time>2026-04-24T09:11:23.998Z</time></trkpt><trkpt lat="41.06355664141082" lon="14.209366924016651"><ele>15.0</ele><time>2026-04-24T09:11:26.998Z</time></trkpt><trkpt lat="41.06362189325799" lon="14.20945914588149"><ele>15.2</ele><time>2026-04-24T09:11:30.998Z</time></trkpt><trkpt lat="41.06368616672629" lon="14.209605907217496"><ele>15.4</ele><time>2026-04-24T09:11:32.998Z</time></trkpt><trkpt lat="41.063723686708435" lon="14.209707829851322"><ele>15.600000000000001</ele><time>2026-04-24T09:11:33.998Z</time></trkpt><trkpt lat="41.063775026246745" lon="14.209818924782395"><ele>15.8</ele><time>2026-04-24T09:11:34.998Z</time></trkpt><trkpt lat="41.06383522388839" lon="14.209932508677142"><ele>16.0</ele><time>2026-04-24T09:11:35.998Z</time></trkpt><trkpt lat="41.06389878671525" lon="14.210049573153862"><ele>16.0</ele><time>2026-04-24T09:11:36.998Z</time></trkpt><trkpt lat="41.06395990772238" lon="14.210171832971866"><ele>16.0</ele><time>2026-04-24T09:11:37.998Z</time></trkpt><trkpt lat="41.06401293797106" lon="14.210307969960146"><ele>16.0</ele><time>2026-04-24T09:11:38.998Z</time></trkpt><trkpt lat="41.064064708102805" lon="14.210446224769784"><ele>16.0</ele><time>2026-04-24T09:11:39.998Z</time></trkpt><trkpt lat="41.06409955001595" lon="14.210599498315293"><ele>16.25</ele><time>2026-04-24T09:11:40.998Z</time></trkpt><trkpt lat="41.064122611683416" lon="14.210775991732827"><ele>16.5</ele><time>2026-04-24T09:11:41.998Z</time></trkpt><trkpt lat="41.06414054422018" lon="14.210951175909722"><ele>16.75</ele><time>2026-04-24T09:11:42.998Z</time></trkpt><trkpt lat="41.064158387074976" lon="14.211139214569695"><ele>17.0</ele><time>2026-04-24T09:11:43.998Z</time></trkpt><trkpt lat="41.06418578151738" lon="14.211333664151205"><ele>17.0</ele><time>2026-04-24T09:11:44.998Z</time></trkpt><trkpt lat="41.06421450307676" lon="14.21152450913505"><ele>17.0</ele><time>2026-04-24T09:11:45.998Z</time></trkpt><trkpt lat="41.06424990922469" lon="14.211717615636088"><ele>17.0</ele><time>2026-04-24T09:11:46.998Z</time></trkpt><trkpt lat="41.06429050545076" lon="14.211913195180797"><ele>17.0</ele><time>2026-04-24T09:11:47.998Z</time></trkpt><trkpt lat="41.064338860772224" lon="14.212098351310484"><ele>17.0</ele><time>2026-04-24T09:11:48.998Z</time></trkpt><trkpt lat="41.0643890339747" lon="14.2122778989448"><ele>17.0</ele><time>2026-04-24T09:11:49.998Z</time></trkpt><trkpt lat="41.06441495856081" lon="14.212458580836843"><ele>17.0</ele><time>2026-04-24T09:11:50.998Z</time></trkpt><trkpt lat="41.0644519632164" lon="14.212616409708343"><ele>17.0</ele><time>2026-04-24T09:11:52Z</time></trkpt><trkpt lat="41.064485708343206" lon="14.212761906096596"><ele>17.0</ele><time>2026-04-24T09:11:53Z</time></trkpt><trkpt lat="41.0645178859198" lon="14.212902376970723"><ele>17.0</ele><time>2026-04-24T09:11:54Z</time></trkpt><trkpt lat="41.06455142574297" lon="14.21304879476291"><ele>17.0</ele><time>2026-04-24T09:11:55Z</time></trkpt><trkpt lat="41.06459679751996" lon="14.213246947140322"><ele>17.0</ele><time>2026-04-24T09:11:56Z</time></trkpt><trkpt lat="41.064634840236145" lon="14.213408973189319"><ele>17.0</ele><time>2026-04-24T09:11:57Z</time></trkpt><trkpt lat="41.064669052510766" lon="14.213554685115286"><ele>17.0</ele><time>2026-04-24T09:11:58Z</time></trkpt><trkpt lat="41.06470689096196" lon="14.213715841051311"><ele>17.0</ele><time>2026-04-24T09:11:59Z</time></trkpt><trkpt lat="41.06474330229901" lon="14.213870728726421"><ele>17.0</ele><time>2026-04-24T09:12:00Z</time></trkpt><trkpt lat="41.064784575227314" lon="14.214042770908785"><ele>17.0</ele><time>2026-04-24T09:12:01Z</time></trkpt><trkpt lat="41.0648234006445" lon="14.214205331782413"><ele>17.0</ele><time>2026-04-24T09:12:02Z</time></trkpt><trkpt lat="41.0648630499442" lon="14.214371768605766"><ele>17.0</ele><time>2026-04-24T09:12:03Z</time></trkpt><trkpt lat="41.06490296233731" lon="14.214539309809195"><ele>17.0</ele><time>2026-04-24T09:12:04Z</time></trkpt><trkpt lat="41.0649799239235" lon="14.214873078722826"><ele>16.75</ele><time>2026-04-24T09:12:06Z</time></trkpt><trkpt lat="41.06501436944122" lon="14.215026763874715"><ele>16.5</ele><time>2026-04-24T09:12:07Z</time></trkpt><trkpt lat="41.06506144252983" lon="14.215175269414098"><ele>16.25</ele><time>2026-04-24T09:12:08Z</time></trkpt><trkpt lat="41.065091427680066" lon="14.215319433277259"><ele>16.0</ele><time>2026-04-24T09:12:09Z</time></trkpt><trkpt lat="41.06512305771958" lon="14.215467588546657"><ele>16.0</ele><time>2026-04-24T09:12:10Z</time></trkpt><trkpt lat="41.06516324745926" lon="14.215604568931083"><ele>16.0</ele><time>2026-04-24T09:12:11Z</time></trkpt><trkpt lat="41.065211377886264" lon="14.215739761511148"><ele>16.0</ele><time>2026-04-24T09:12:12Z</time></trkpt><trkpt lat="41.06528481081019" lon="14.21585372552188"><ele>16.0</ele><time>2026-04-24T09:12:13Z</time></trkpt><trkpt lat="41.06538116905282" lon="14.215959787052336"><ele>16.0</ele><time>2026-04-24T09:12:14Z</time></trkpt><trkpt lat="41.06549006496276" lon="14.216039191713884"><ele>16.0</ele><time>2026-04-24T09:12:15Z</time></trkpt><trkpt lat="41.06561161623625" lon="14.216128449514693"><ele>16.0</ele><time>2026-04-24T09:12:16Z</time></trkpt><trkpt lat="41.06573237043056" lon="14.216224010931093"><ele>16.0</ele><time>2026-04-24T09:12:17Z</time></trkpt><trkpt lat="41.06585585954921" lon="14.216326316354198"><ele>16.0</ele><time>2026-04-24T09:12:18Z</time></trkpt><trkpt lat="41.06598533150043" lon="14.216426546980992"><ele>16.0</ele><time>2026-04-24T09:12:19Z</time></trkpt><trkpt lat="41.06611119936246" lon="14.216521194445377"><ele>16.0</ele><time>2026-04-24T09:12:20Z</time></trkpt><trkpt lat="41.066239528857274" lon="14.216600738872373"><ele>16.0</ele><time>2026-04-24T09:12:21Z</time></trkpt><trkpt lat="41.066382855677254" lon="14.216627133034061"><ele>16.0</ele><time>2026-04-24T09:12:22Z</time></trkpt><trkpt lat="41.06653361724028" lon="14.216634461669324"><ele>16.0</ele><time>2026-04-24T09:12:23Z</time></trkpt><trkpt lat="41.066675729461146" lon="14.216626621677086"><ele>16.0</ele><time>2026-04-24T09:12:23.999Z</time></trkpt><trkpt lat="41.06685610891129" lon="14.216598792300571"><ele>16.0</ele><time>2026-04-24T09:12:24.999Z</time></trkpt><trkpt lat="41.06699358942889" lon="14.216580878389601"><ele>16.0</ele><time>2026-04-24T09:12:25.999Z</time></trkpt><trkpt lat="41.06712345624721" lon="14.216623431803672"><ele>16.0</ele><time>2026-04-24T09:12:26.999Z</time></trkpt><trkpt lat="41.06724359682759" lon="14.216680427283544"><ele>16.0</ele><time>2026-04-24T09:12:27.999Z</time></trkpt><trkpt lat="41.06735550379805" lon="14.216757989866368"><ele>16.25</ele><time>2026-04-24T09:12:28.999Z</time></trkpt><trkpt lat="41.06745808063238" lon="14.21685554488233"><ele>16.5</ele><time>2026-04-24T09:12:29.999Z</time></trkpt><trkpt lat="41.067523086265645" lon="14.21701544316672"><ele>16.75</ele><time>2026-04-24T09:12:30.999Z</time></trkpt><trkpt lat="41.06760676965388" lon="14.217154075145254"><ele>17.0</ele><time>2026-04-24T09:12:31.999Z</time></trkpt><trkpt lat="41.06769830459161" lon="14.217312885703453"><ele>17.333333333333336</ele><time>2026-04-24T09:12:32.999Z</time></trkpt><trkpt lat="41.06778464056061" lon="14.217461359029969"><ele>17.666666666666668</ele><time>2026-04-24T09:12:33.999Z</time></trkpt><trkpt lat="41.06787770862443" lon="14.217625203905097"><ele>18.0</ele><time>2026-04-24T09:12:34.999Z</time></trkpt><trkpt lat="41.06797254580484" lon="14.2178003371604"><ele>18.0</ele><time>2026-04-24T09:12:35.999Z</time></trkpt><trkpt lat="41.068083469321536" lon="14.217969010831599"><ele>18.0</ele><time>2026-04-24T09:12:36.999Z</time></trkpt><trkpt lat="41.068173314537304" lon="14.218130675571457"><ele>18.0</ele><time>2026-04-24T09:12:37.999Z</time></trkpt><trkpt lat="41.06826758047503" lon="14.218284500644844"><ele>18.0</ele><time>2026-04-24T09:12:38.999Z</time></trkpt><trkpt lat="41.06837873666467" lon="14.218435967558866"><ele>18.0</ele><time>2026-04-24T09:12:39.999Z</time></trkpt><trkpt lat="41.068489467116635" lon="14.218585809136759"><ele>18.0</ele><time>2026-04-24T09:12:40.999Z</time></trkpt><trkpt lat="41.068631010089476" lon="14.218725153332317"><ele>18.0</ele><time>2026-04-24T09:12:41.999Z</time></trkpt><trkpt lat="41.06875698165925" lon="14.218888307677298"><ele>18.0</ele><time>2026-04-24T09:12:42.999Z</time></trkpt><trkpt lat="41.0688789153854" lon="14.21904110872993"><ele>18.0</ele><time>2026-04-24T09:12:43.999Z</time></trkpt><trkpt lat="41.069004209827916" lon="14.219195933588095"><ele>18.0</ele><time>2026-04-24T09:12:44.999Z</time></trkpt><trkpt lat="41.069127299563746" lon="14.219345030858385"><ele>18.0</ele><time>2026-04-24T09:12:45.999Z</time></trkpt><trkpt lat="41.06924760969149" lon="14.219500871804346"><ele>18.0</ele><time>2026-04-24T09:12:46.999Z</time></trkpt><trkpt lat="41.069368398762556" lon="14.219654943368036"><ele>18.666666666666668</ele><time>2026-04-24T09:12:47.999Z</time></trkpt><trkpt lat="41.06948138503197" lon="14.21981742512923"><ele>19.333333333333336</ele><time>2026-04-24T09:12:48.999Z</time></trkpt><trkpt lat="41.06959501101568" lon="14.219992198384864"><ele>20.0</ele><time>2026-04-24T09:12:49.999Z</time></trkpt><trkpt lat="41.06971220285947" lon="14.220165149257307"><ele>20.0</ele><time>2026-04-24T09:12:50.999Z</time></trkpt><trkpt lat="41.06982542968827" lon="14.220335157533421"><ele>20.0</ele><time>2026-04-24T09:12:51.999Z</time></trkpt><trkpt lat="41.06994428399776" lon="14.220502398050527"><ele>20.0</ele><time>2026-04-24T09:12:52.999Z</time></trkpt><trkpt lat="41.0700611955174" lon="14.220684184616898"><ele>19.333333333333336</ele><time>2026-04-24T09:12:53.999Z</time></trkpt><trkpt lat="41.07018295084671" lon="14.220853701488624"><ele>18.666666666666668</ele><time>2026-04-24T09:12:54.999Z</time></trkpt><trkpt lat="41.070305094539634" lon="14.221076261729792"><ele>18.0</ele><time>2026-04-24T09:12:55.999Z</time></trkpt><trkpt lat="41.07042922218293" lon="14.221269351979306"><ele>18.0</ele><time>2026-04-24T09:12:56.999Z</time></trkpt><trkpt lat="41.07055606595402" lon="14.221428991540071"><ele>18.0</ele><time>2026-04-24T09:12:57.999Z</time></trkpt><trkpt lat="41.07065868655133" lon="14.221605016612791"><ele>18.0</ele><time>2026-04-24T09:12:58.999Z</time></trkpt><trkpt lat="41.07077541701372" lon="14.221795663080307"><ele>18.333333333333332</ele><time>2026-04-24T09:12:59.999Z</time></trkpt><trkpt lat="41.070883103887006" lon="14.22198143010427"><ele>18.666666666666664</ele><time>2026-04-24T09:13:00.999Z</time></trkpt><trkpt lat="41.07100007263417" lon="14.222173454659297"><ele>19.0</ele><time>2026-04-24T09:13:01.999Z</time></trkpt><trkpt lat="41.07120793629883" lon="14.222505669934916"><ele>19.333333333333332</ele><time>2026-04-24T09:13:03.999Z</time></trkpt><trkpt lat="41.07133211285974" lon="14.22267802813657"><ele>19.666666666666668</ele><time>2026-04-24T09:13:04.999Z</time></trkpt><trkpt lat="41.07142824206471" lon="14.222845223701658"><ele>20.0</ele><time>2026-04-24T09:13:05.999Z</time></trkpt><trkpt lat="41.071545564369494" lon="14.223032487540712"><ele>19.666666666666668</ele><time>2026-04-24T09:13:06.999Z</time></trkpt><trkpt lat="41.071659075748734" lon="14.223202278589474"><ele>19.333333333333332</ele><time>2026-04-24T09:13:07.999Z</time></trkpt><trkpt lat="41.07175569532845" lon="14.223383365315136"><ele>19.0</ele><time>2026-04-24T09:13:08.999Z</time></trkpt><trkpt lat="41.07186358453975" lon="14.2235483475773"><ele>19.0</ele><time>2026-04-24T09:13:09.999Z</time></trkpt><trkpt lat="41.07198559912852" lon="14.223690788600122"><ele>19.0</ele><time>2026-04-24T09:13:10.999Z</time></trkpt><trkpt lat="41.07208401771792" lon="14.223826688338965"><ele>19.0</ele><time>2026-04-24T09:13:11.999Z</time></trkpt><trkpt lat="41.07216241698521" lon="14.223932440059441"><ele>19.0</ele><time>2026-04-24T09:13:12.999Z</time></trkpt><trkpt lat="41.07225373922044" lon="14.224045430955401"><ele>19.0</ele><time>2026-04-24T09:13:13.999Z</time></trkpt><trkpt lat="41.07234009684213" lon="14.224186801446855"><ele>19.0</ele><time>2026-04-24T09:13:14.999Z</time></trkpt><trkpt lat="41.07245794139619" lon="14.224340425065268"><ele>19.0</ele><time>2026-04-24T09:13:15.999Z</time></trkpt><trkpt lat="41.072564171762814" lon="14.224478908295664"><ele>19.333333333333332</ele><time>2026-04-24T09:13:16.999Z</time></trkpt><trkpt lat="41.07267243609443" lon="14.224620043021632"><ele>19.666666666666668</ele><time>2026-04-24T09:13:17.999Z</time></trkpt><trkpt lat="41.07278997132543" lon="14.224766330380652"><ele>20.0</ele><time>2026-04-24T09:13:18.999Z</time></trkpt><trkpt lat="41.07289626687725" lon="14.224883868323717"><ele>20.0</ele><time>2026-04-24T09:13:19.999Z</time></trkpt><trkpt lat="41.07300662907826" lon="14.225011384120142"><ele>20.0</ele><time>2026-04-24T09:13:20.999Z</time></trkpt><trkpt lat="41.07310325712422" lon="14.225155357258616"><ele>20.0</ele><time>2026-04-24T09:13:21.999Z</time></trkpt><trkpt lat="41.07321391794049" lon="14.225261167487693"><ele>20.0</ele><time>2026-04-24T09:13:22.998Z</time></trkpt><trkpt lat="41.07331210375359" lon="14.22538020174396"><ele>20.0</ele><time>2026-04-24T09:13:23.998Z</time></trkpt><trkpt lat="41.07340357972711" lon="14.225510355274047"><ele>20.0</ele><time>2026-04-24T09:13:24.998Z</time></trkpt><trkpt lat="41.07349915789504" lon="14.22563098910684"><ele>20.0</ele><time>2026-04-24T09:13:25.998Z</time></trkpt><trkpt lat="41.073589293678175" lon="14.225728521733435"><ele>20.0</ele><time>2026-04-24T09:13:26.998Z</time></trkpt><trkpt lat="41.07368710067649" lon="14.225833540912799"><ele>20.0</ele><time>2026-04-24T09:13:27.998Z</time></trkpt><trkpt lat="41.07378561801938" lon="14.225951060813674"><ele>20.0</ele><time>2026-04-24T09:13:28.998Z</time></trkpt><trkpt lat="41.07388161296817" lon="14.22606936959697"><ele>20.0</ele><time>2026-04-24T09:13:29.998Z</time></trkpt><trkpt lat="41.073978591698236" lon="14.226189248707321"><ele>20.0</ele><time>2026-04-24T09:13:30.998Z</time></trkpt><trkpt lat="41.074074275794864" lon="14.226297907665547"><ele>20.25</ele><time>2026-04-24T09:13:31.998Z</time></trkpt><trkpt lat="41.07415926036046" lon="14.226389794419758"><ele>20.5</ele><time>2026-04-24T09:13:32.998Z</time></trkpt><trkpt lat="41.074252739797316" lon="14.226473848462598"><ele>20.75</ele><time>2026-04-24T09:13:33.998Z</time></trkpt><trkpt lat="41.07435591031883" lon="14.226544061460382"><ele>21.0</ele><time>2026-04-24T09:13:34.998Z</time></trkpt><trkpt lat="41.07446087531491" lon="14.226599090095378"><ele>21.0</ele><time>2026-04-24T09:13:35.998Z</time></trkpt><trkpt lat="41.07456854065925" lon="14.226650815252706"><ele>21.0</ele><time>2026-04-24T09:13:36.998Z</time></trkpt><trkpt lat="41.07468006857444" lon="14.226700223079762"><ele>21.0</ele><time>2026-04-24T09:13:37.998Z</time></trkpt><trkpt lat="41.074794798263106" lon="14.22675745991838"><ele>21.0</ele><time>2026-04-24T09:13:38.998Z</time></trkpt><trkpt lat="41.07490135267516" lon="14.226795172512785"><ele>21.4</ele><time>2026-04-24T09:13:39.998Z</time></trkpt><trkpt lat="41.07499202965324" lon="14.22686173974868"><ele>21.8</ele><time>2026-04-24T09:13:40.998Z</time></trkpt><trkpt lat="41.07509039537485" lon="14.226914201478591"><ele>22.2</ele><time>2026-04-24T09:13:41.998Z</time></trkpt><trkpt lat="41.07518505803477" lon="14.226977911266463"><ele>22.599999999999998</ele><time>2026-04-24T09:13:42.998Z</time></trkpt><trkpt lat="41.07527493670463" lon="14.22705121239911"><ele>23.0</ele><time>2026-04-24T09:13:43.998Z</time></trkpt><trkpt lat="41.07536317460552" lon="14.227137741110127"><ele>23.0</ele><time>2026-04-24T09:13:44.998Z</time></trkpt><trkpt lat="41.0754446796835" lon="14.22722808467118"><ele>23.0</ele><time>2026-04-24T09:13:45.998Z</time></trkpt><trkpt lat="41.07551533305547" lon="14.227330690514929"><ele>23.0</ele><time>2026-04-24T09:13:46.998Z</time></trkpt><trkpt lat="41.07557613846196" lon="14.22740927431734"><ele>23.0</ele><time>2026-04-24T09:13:47.998Z</time></trkpt><trkpt lat="41.07562747504838" lon="14.227483682228883"><ele>23.0</ele><time>2026-04-24T09:13:48.998Z</time></trkpt><trkpt lat="41.0756778229731" lon="14.227546808896506"><ele>23.0</ele><time>2026-04-24T09:13:49.998Z</time></trkpt><trkpt lat="41.07572840472473" lon="14.227636495855194"><ele>23.0</ele><time>2026-04-24T09:13:51.998Z</time></trkpt><trkpt lat="41.075714601312114" lon="14.227727877044112"><ele>23.0</ele><time>2026-04-24T09:14:01Z</time></trkpt><trkpt lat="41.07559655761827" lon="14.227797583018122"><ele>23.0</ele><time>2026-04-24T09:14:03Z</time></trkpt><trkpt lat="41.07551092502554" lon="14.227826301599915"><ele>23.0</ele><time>2026-04-24T09:14:04Z</time></trkpt><trkpt lat="41.075419258324686" lon="14.227860718729792"><ele>23.0</ele><time>2026-04-24T09:14:05Z</time></trkpt><trkpt lat="41.075330288686224" lon="14.227894444252621"><ele>23.0</ele><time>2026-04-24T09:14:06Z</time></trkpt><trkpt lat="41.075245258073856" lon="14.227927426610238"><ele>23.0</ele><time>2026-04-24T09:14:07Z</time></trkpt><trkpt lat="41.07515588007955" lon="14.227961001365282"><ele>23.0</ele><time>2026-04-24T09:14:08Z</time></trkpt><trkpt lat="41.07505487684543" lon="14.227993024889507"><ele>23.0</ele><time>2026-04-24T09:14:09Z</time></trkpt><trkpt lat="41.074949835765175" lon="14.228028047884353"><ele>23.0</ele><time>2026-04-24T09:14:10Z</time></trkpt><trkpt lat="41.074843801905224" lon="14.228066140069325"><ele>23.25</ele><time>2026-04-24T09:14:11Z</time></trkpt><trkpt lat="41.07463113191946" lon="14.228147797935764"><ele>23.5</ele><time>2026-04-24T09:14:13Z</time></trkpt><trkpt lat="41.07452694552641" lon="14.228183119347412"><ele>23.75</ele><time>2026-04-24T09:14:14Z</time></trkpt><trkpt lat="41.07443075936106" lon="14.22821763288842"><ele>24.0</ele><time>2026-04-24T09:14:15Z</time></trkpt><trkpt lat="41.07434006144646" lon="14.228251247190126"><ele>24.0</ele><time>2026-04-24T09:14:16Z</time></trkpt><trkpt lat="41.074251711915515" lon="14.228279792042954"><ele>24.0</ele><time>2026-04-24T09:14:17Z</time></trkpt><trkpt lat="41.07416247321009" lon="14.228306257677009"><ele>24.0</ele><time>2026-04-24T09:14:18Z</time></trkpt><trkpt lat="41.07407741255887" lon="14.228331231292392"><ele>24.0</ele><time>2026-04-24T09:14:19Z</time></trkpt><trkpt lat="41.07400148145057" lon="14.228354900227375"><ele>24.0</ele><time>2026-04-24T09:14:20Z</time></trkpt><trkpt lat="41.07389110778565" lon="14.228369296225354"><ele>24.0</ele><time>2026-04-24T09:14:22Z</time></trkpt><trkpt lat="41.073821860769854" lon="14.22838785986834"><ele>24.0</ele><time>2026-04-24T09:14:24Z</time></trkpt><trkpt lat="41.0737252536748" lon="14.228455599852802"><ele>24.0</ele><time>2026-04-24T09:15:36.998Z</time></trkpt><trkpt lat="41.07366384097328" lon="14.228481667883647"><ele>24.0</ele><time>2026-04-24T09:15:37.998Z</time></trkpt><trkpt lat="41.07358836444951" lon="14.228510804997029"><ele>24.0</ele><time>2026-04-24T09:15:38.998Z</time></trkpt><trkpt lat="41.07349158460489" lon="14.228541502251623"><ele>24.0</ele><time>2026-04-24T09:15:39.998Z</time></trkpt><trkpt lat="41.07341114845871" lon="14.228573666394798"><ele>24.0</ele><time>2026-04-24T09:15:40.998Z</time></trkpt><trkpt lat="41.07333417067206" lon="14.228603768248352"><ele>24.0</ele><time>2026-04-24T09:15:41.998Z</time></trkpt><trkpt lat="41.073244312344876" lon="14.228634302952699"><ele>24.0</ele><time>2026-04-24T09:15:42.998Z</time></trkpt><trkpt lat="41.07313981166214" lon="14.228672482271692"><ele>24.0</ele><time>2026-04-24T09:15:43.998Z</time></trkpt><trkpt lat="41.07302205861566" lon="14.228715357566042"><ele>24.0</ele><time>2026-04-24T09:15:44.998Z</time></trkpt><trkpt lat="41.07290783420511" lon="14.228753829651264"><ele>23.75</ele><time>2026-04-24T09:15:45.998Z</time></trkpt><trkpt lat="41.072797774332685" lon="14.228792979899396"><ele>23.5</ele><time>2026-04-24T09:15:46.998Z</time></trkpt><trkpt lat="41.072685898978776" lon="14.228831178032992"><ele>23.25</ele><time>2026-04-24T09:15:47.998Z</time></trkpt><trkpt lat="41.07257102777718" lon="14.228866420122383"><ele>23.0</ele><time>2026-04-24T09:15:48.998Z</time></trkpt><trkpt lat="41.07246211155803" lon="14.228902451951273"><ele>23.0</ele><time>2026-04-24T09:15:49.998Z</time></trkpt><trkpt lat="41.07236357573757" lon="14.228938962131929"><ele>23.0</ele><time>2026-04-24T09:15:50.998Z</time></trkpt><trkpt lat="41.072278716736726" lon="14.22896066317381"><ele>23.0</ele><time>2026-04-24T09:15:51.998Z</time></trkpt><trkpt lat="41.07220146147404" lon="14.228967387762268"><ele>23.0</ele><time>2026-04-24T09:15:52.998Z</time></trkpt><trkpt lat="41.07212391300109" lon="14.22895226381712"><ele>23.0</ele><time>2026-04-24T09:15:54.998Z</time></trkpt><trkpt lat="41.07206386362878" lon="14.228927123857243"><ele>23.0</ele><time>2026-04-24T09:15:56.998Z</time></trkpt><trkpt lat="41.071965553646265" lon="14.228897085345745"><ele>23.0</ele><time>2026-04-24T09:15:58.998Z</time></trkpt><trkpt lat="41.07190521348083" lon="14.228940021223123"><ele>23.0</ele><time>2026-04-24T09:15:59.998Z</time></trkpt><trkpt lat="41.071851891557074" lon="14.22900130313081"><ele>23.0</ele><time>2026-04-24T09:16:00.998Z</time></trkpt><trkpt lat="41.07182859909402" lon="14.22911660633502"><ele>23.0</ele><time>2026-04-24T09:16:01.998Z</time></trkpt><trkpt lat="41.07168580360732" lon="14.229178925569803"><ele>23.0</ele><time>2026-04-24T09:16:02.998Z</time></trkpt><trkpt lat="41.071574379166435" lon="14.229230557254185"><ele>22.5</ele><time>2026-04-24T09:16:04Z</time></trkpt><trkpt lat="41.07145044192933" lon="14.229273697424494"><ele>22.0</ele><time>2026-04-24T09:16:05Z</time></trkpt><trkpt lat="41.07132543251178" lon="14.229318041862538"><ele>21.5</ele><time>2026-04-24T09:16:06Z</time></trkpt><trkpt lat="41.07119158571354" lon="14.229362124020776"><ele>21.0</ele><time>2026-04-24T09:16:07Z</time></trkpt><trkpt lat="41.07104624614179" lon="14.229409852856314"><ele>21.0</ele><time>2026-04-24T09:16:08Z</time></trkpt><trkpt lat="41.07089938681743" lon="14.22946158469165"><ele>21.0</ele><time>2026-04-24T09:16:09Z</time></trkpt><trkpt lat="41.07074872365317" lon="14.22951542520605"><ele>21.0</ele><time>2026-04-24T09:16:10Z</time></trkpt><trkpt lat="41.070423467227414" lon="14.22961945537346"><ele>21.0</ele><time>2026-04-24T09:16:12Z</time></trkpt><trkpt lat="41.07026192315861" lon="14.229675200393482"><ele>21.0</ele><time>2026-04-24T09:16:13Z</time></trkpt><trkpt lat="41.070101590612126" lon="14.229741476899212"><ele>21.0</ele><time>2026-04-24T09:16:14Z</time></trkpt><trkpt lat="41.0699351978924" lon="14.229800815519534"><ele>20.666666666666668</ele><time>2026-04-24T09:16:15Z</time></trkpt><trkpt lat="41.069766357220054" lon="14.22986131169486"><ele>20.333333333333336</ele><time>2026-04-24T09:16:16Z</time></trkpt><trkpt lat="41.069590590650954" lon="14.229913377185028"><ele>20.0</ele><time>2026-04-24T09:16:17Z</time></trkpt><trkpt lat="41.0694190672336" lon="14.229976823570881"><ele>20.0</ele><time>2026-04-24T09:16:18Z</time></trkpt><trkpt lat="41.06924928640497" lon="14.230037954323976"><ele>20.0</ele><time>2026-04-24T09:16:19Z</time></trkpt><trkpt lat="41.06907684547961" lon="14.23009736751324"><ele>20.0</ele><time>2026-04-24T09:16:20Z</time></trkpt><trkpt lat="41.06890363201698" lon="14.230154902569565"><ele>20.333333333333336</ele><time>2026-04-24T09:16:21Z</time></trkpt><trkpt lat="41.06873251549782" lon="14.230205555759536"><ele>20.666666666666668</ele><time>2026-04-24T09:16:22Z</time></trkpt><trkpt lat="41.068572275152086" lon="14.230257749785151"><ele>21.0</ele><time>2026-04-24T09:16:23Z</time></trkpt><trkpt lat="41.068420983152286" lon="14.2303115129433"><ele>21.333333333333332</ele><time>2026-04-24T09:16:24Z</time></trkpt><trkpt lat="41.068265049951734" lon="14.230366729257623"><ele>21.666666666666664</ele><time>2026-04-24T09:16:25Z</time></trkpt><trkpt lat="41.06811214630435" lon="14.230426146639688"><ele>22.0</ele><time>2026-04-24T09:16:26Z</time></trkpt><trkpt lat="41.06796019715443" lon="14.230482108400517"><ele>22.0</ele><time>2026-04-24T09:16:27Z</time></trkpt><trkpt lat="41.06780135308855" lon="14.230540639971926"><ele>22.0</ele><time>2026-04-24T09:16:28Z</time></trkpt><trkpt lat="41.067645323618514" lon="14.23059590319143"><ele>22.0</ele><time>2026-04-24T09:16:29Z</time></trkpt><trkpt lat="41.06748686022889" lon="14.23064891009133"><ele>22.333333333333332</ele><time>2026-04-24T09:16:30Z</time></trkpt><trkpt lat="41.067329613982274" lon="14.230708731493891"><ele>22.666666666666668</ele><time>2026-04-24T09:16:31Z</time></trkpt><trkpt lat="41.067175664256986" lon="14.230765340310757"><ele>23.0</ele><time>2026-04-24T09:16:32Z</time></trkpt><trkpt lat="41.06702642799" lon="14.230824249610235"><ele>23.0</ele><time>2026-04-24T09:16:33Z</time></trkpt><trkpt lat="41.06688019702053" lon="14.230863489471423"><ele>23.0</ele><time>2026-04-24T09:16:34Z</time></trkpt><trkpt lat="41.0667440922071" lon="14.23092203452507"><ele>23.0</ele><time>2026-04-24T09:16:35Z</time></trkpt><trkpt lat="41.066605697769255" lon="14.230961654137344"><ele>23.0</ele><time>2026-04-24T09:16:36Z</time></trkpt><trkpt lat="41.06645566737715" lon="14.230999650594878"><ele>22.666666666666668</ele><time>2026-04-24T09:16:37Z</time></trkpt><trkpt lat="41.06630604532866" lon="14.231049890395614"><ele>22.333333333333332</ele><time>2026-04-24T09:16:38Z</time></trkpt><trkpt lat="41.06615600837882" lon="14.231117464910426"><ele>22.0</ele><time>2026-04-24T09:16:38.999Z</time></trkpt><trkpt lat="41.06600103257597" lon="14.231182833958874"><ele>22.0</ele><time>2026-04-24T09:16:39.999Z</time></trkpt><trkpt lat="41.06583995415477" lon="14.231245160599348"><ele>22.0</ele><time>2026-04-24T09:16:40.999Z</time></trkpt><trkpt lat="41.0656633280894" lon="14.231308298282084"><ele>22.0</ele><time>2026-04-24T09:16:41.999Z</time></trkpt><trkpt lat="41.06549403333415" lon="14.231375861154916"><ele>22.0</ele><time>2026-04-24T09:16:42.999Z</time></trkpt><trkpt lat="41.06532208005827" lon="14.23144513262824"><ele>22.0</ele><time>2026-04-24T09:16:43.999Z</time></trkpt><trkpt lat="41.06514805978195" lon="14.231506731312725"><ele>22.0</ele><time>2026-04-24T09:16:44.999Z</time></trkpt><trkpt lat="41.06497381569268" lon="14.231554682192982"><ele>22.0</ele><time>2026-04-24T09:16:45.999Z</time></trkpt><trkpt lat="41.06480578565509" lon="14.231606087481135"><ele>22.0</ele><time>2026-04-24T09:16:46.999Z</time></trkpt><trkpt lat="41.06463791772062" lon="14.231662696530995"><ele>22.0</ele><time>2026-04-24T09:16:47.999Z</time></trkpt><trkpt lat="41.06446854949929" lon="14.231716366167683"><ele>22.0</ele><time>2026-04-24T09:16:48.999Z</time></trkpt><trkpt lat="41.064303807924276" lon="14.231767490952908"><ele>22.0</ele><time>2026-04-24T09:16:49.999Z</time></trkpt><trkpt lat="41.064125028813386" lon="14.23182887286093"><ele>22.0</ele><time>2026-04-24T09:16:50.999Z</time></trkpt><trkpt lat="41.06395305865726" lon="14.231888224889826"><ele>22.5</ele><time>2026-04-24T09:16:51.999Z</time></trkpt><trkpt lat="41.0636092016729" lon="14.232006991077293"><ele>23.0</ele><time>2026-04-24T09:16:53.999Z</time></trkpt><trkpt lat="41.06344233120626" lon="14.232060946397892"><ele>23.333333333333336</ele><time>2026-04-24T09:16:54.999Z</time></trkpt><trkpt lat="41.063274400959905" lon="14.23211924628893"><ele>23.666666666666668</ele><time>2026-04-24T09:16:55.999Z</time></trkpt><trkpt lat="41.06311409903999" lon="14.232169786017986"><ele>24.0</ele><time>2026-04-24T09:16:56.999Z</time></trkpt><trkpt lat="41.06295170188969" lon="14.232253069959443"><ele>24.0</ele><time>2026-04-24T09:16:57.999Z</time></trkpt><trkpt lat="41.06278541077952" lon="14.232309566611356"><ele>24.0</ele><time>2026-04-24T09:16:58.999Z</time></trkpt><trkpt lat="41.06261902560967" lon="14.232370668215482"><ele>24.0</ele><time>2026-04-24T09:16:59.999Z</time></trkpt><trkpt lat="41.06244972377858" lon="14.232431082508059"><ele>24.0</ele><time>2026-04-24T09:17:00.999Z</time></trkpt><trkpt lat="41.0622765696067" lon="14.232489034266852"><ele>24.0</ele><time>2026-04-24T09:17:01.999Z</time></trkpt><trkpt lat="41.06210376082466" lon="14.23254394524189"><ele>24.0</ele><time>2026-04-24T09:17:02.999Z</time></trkpt><trkpt lat="41.06193235584891" lon="14.232596950436433"><ele>24.0</ele><time>2026-04-24T09:17:03.999Z</time></trkpt><trkpt lat="41.06177238317576" lon="14.232650494286291"><ele>24.0</ele><time>2026-04-24T09:17:04.999Z</time></trkpt><trkpt lat="41.06161574906533" lon="14.232705187678018"><ele>24.0</ele><time>2026-04-24T09:17:05.999Z</time></trkpt><trkpt lat="41.0614528050439" lon="14.232753768611484"><ele>23.666666666666668</ele><time>2026-04-24T09:17:06.999Z</time></trkpt><trkpt lat="41.0612892643338" lon="14.232790826246388"><ele>23.333333333333336</ele><time>2026-04-24T09:17:07.999Z</time></trkpt><trkpt lat="41.061141057193915" lon="14.232844197828909"><ele>23.0</ele><time>2026-04-24T09:17:08.999Z</time></trkpt><trkpt lat="41.06098916439455" lon="14.23290872622953"><ele>23.0</ele><time>2026-04-24T09:17:09.999Z</time></trkpt><trkpt lat="41.06083942319238" lon="14.232963527143523"><ele>23.0</ele><time>2026-04-24T09:17:10.999Z</time></trkpt><trkpt lat="41.06072423572539" lon="14.233027732122919"><ele>23.0</ele><time>2026-04-24T09:17:11.999Z</time></trkpt><trkpt lat="41.06058244813443" lon="14.233070558625737"><ele>23.0</ele><time>2026-04-24T09:17:12.999Z</time></trkpt><trkpt lat="41.06043895844919" lon="14.233110758497377"><ele>23.0</ele><time>2026-04-24T09:17:13.999Z</time></trkpt><trkpt lat="41.06028815205927" lon="14.233156351200696"><ele>23.0</ele><time>2026-04-24T09:17:14.999Z</time></trkpt><trkpt lat="41.060187868674554" lon="14.233209792624216"><ele>23.0</ele><time>2026-04-24T09:17:15.999Z</time></trkpt><trkpt lat="41.06006902342169" lon="14.233254568694992"><ele>23.0</ele><time>2026-04-24T09:17:16.999Z</time></trkpt><trkpt lat="41.059927827381735" lon="14.233291290706708"><ele>22.666666666666668</ele><time>2026-04-24T09:17:17.999Z</time></trkpt><trkpt lat="41.05978525646736" lon="14.233345445486075"><ele>22.333333333333332</ele><time>2026-04-24T09:17:18.999Z</time></trkpt><trkpt lat="41.05965491987362" lon="14.233378774628225"><ele>22.0</ele><time>2026-04-24T09:17:19.999Z</time></trkpt><trkpt lat="41.05948908702915" lon="14.233433515380156"><ele>22.0</ele><time>2026-04-24T09:17:20.999Z</time></trkpt><trkpt lat="41.05932433579343" lon="14.233490847626948"><ele>22.0</ele><time>2026-04-24T09:17:21.999Z</time></trkpt><trkpt lat="41.05915421502977" lon="14.233538231002527"><ele>22.0</ele><time>2026-04-24T09:17:22.999Z</time></trkpt><trkpt lat="41.05898617784692" lon="14.233592178052973"><ele>21.666666666666664</ele><time>2026-04-24T09:17:23.999Z</time></trkpt><trkpt lat="41.05881550756257" lon="14.233658076884925"><ele>21.333333333333332</ele><time>2026-04-24T09:17:24.999Z</time></trkpt><trkpt lat="41.058646762915494" lon="14.23372689453602"><ele>21.0</ele><time>2026-04-24T09:17:25.999Z</time></trkpt><trkpt lat="41.058488467970946" lon="14.233773307861807"><ele>21.0</ele><time>2026-04-24T09:17:26.999Z</time></trkpt><trkpt lat="41.05833108932882" lon="14.233820539365558"><ele>21.0</ele><time>2026-04-24T09:17:27.999Z</time></trkpt><trkpt lat="41.058189422646265" lon="14.233901908637732"><ele>21.0</ele><time>2026-04-24T09:17:28.999Z</time></trkpt><trkpt lat="41.05804865047008" lon="14.233957527018065"><ele>20.75</ele><time>2026-04-24T09:17:29.999Z</time></trkpt><trkpt lat="41.0579024655249" lon="14.234006620000129"><ele>20.5</ele><time>2026-04-24T09:17:30.999Z</time></trkpt><trkpt lat="41.05776530971497" lon="14.234061622860512"><ele>20.25</ele><time>2026-04-24T09:17:31.999Z</time></trkpt><trkpt lat="41.05762170585871" lon="14.234111709073028"><ele>20.0</ele><time>2026-04-24T09:17:32.999Z</time></trkpt><trkpt lat="41.05747964837137" lon="14.234159316528926"><ele>20.0</ele><time>2026-04-24T09:17:33.999Z</time></trkpt><trkpt lat="41.05733290647116" lon="14.23420077885636"><ele>20.0</ele><time>2026-04-24T09:17:34.999Z</time></trkpt><trkpt lat="41.057191798922595" lon="14.234255066801168"><ele>20.0</ele><time>2026-04-24T09:17:35.999Z</time></trkpt><trkpt lat="41.057044691664636" lon="14.23430910992098"><ele>20.0</ele><time>2026-04-24T09:17:36.999Z</time></trkpt><trkpt lat="41.056901124175916" lon="14.234361717321578"><ele>20.0</ele><time>2026-04-24T09:17:37.999Z</time></trkpt><trkpt lat="41.05676679247945" lon="14.234406695146129"><ele>20.0</ele><time>2026-04-24T09:17:38.999Z</time></trkpt><trkpt lat="41.056637134842084" lon="14.234451592359097"><ele>20.0</ele><time>2026-04-24T09:17:39.998Z</time></trkpt><trkpt lat="41.05651218924453" lon="14.234495793677324"><ele>19.75</ele><time>2026-04-24T09:17:40.998Z</time></trkpt><trkpt lat="41.056381931789076" lon="14.234538709325395"><ele>19.5</ele><time>2026-04-24T09:17:41.998Z</time></trkpt><trkpt lat="41.05624192055007" lon="14.234583014280874"><ele>19.25</ele><time>2026-04-24T09:17:42.998Z</time></trkpt><trkpt lat="41.05610545058013" lon="14.234627250922093"><ele>19.0</ele><time>2026-04-24T09:17:43.998Z</time></trkpt><trkpt lat="41.05594947833533" lon="14.23466892249021"><ele>19.0</ele><time>2026-04-24T09:17:44.998Z</time></trkpt><trkpt lat="41.05579055395781" lon="14.234715819136262"><ele>19.0</ele><time>2026-04-24T09:17:45.998Z</time></trkpt><trkpt lat="41.05564202336446" lon="14.234780234632918"><ele>19.0</ele><time>2026-04-24T09:17:46.998Z</time></trkpt><trkpt lat="41.05549341055213" lon="14.2348241255826"><ele>19.0</ele><time>2026-04-24T09:17:47.998Z</time></trkpt><trkpt lat="41.0553246077733" lon="14.23490478696583"><ele>19.0</ele><time>2026-04-24T09:17:48.998Z</time></trkpt><trkpt lat="41.055151069461445" lon="14.234982348900397"><ele>19.0</ele><time>2026-04-24T09:17:49.998Z</time></trkpt><trkpt lat="41.054969288338924" lon="14.235070428984038"><ele>19.333333333333332</ele><time>2026-04-24T09:17:50.998Z</time></trkpt><trkpt lat="41.05477418169289" lon="14.23515202792051"><ele>19.666666666666668</ele><time>2026-04-24T09:17:51.998Z</time></trkpt><trkpt lat="41.05458707430029" lon="14.235209588360611"><ele>20.0</ele><time>2026-04-24T09:17:52.998Z</time></trkpt><trkpt lat="41.05440207622483" lon="14.235268160620448"><ele>20.0</ele><time>2026-04-24T09:17:53.998Z</time></trkpt><trkpt lat="41.05420871609542" lon="14.235334942062437"><ele>20.0</ele><time>2026-04-24T09:17:54.998Z</time></trkpt><trkpt lat="41.05400863818764" lon="14.23540264065548"><ele>20.0</ele><time>2026-04-24T09:17:55.998Z</time></trkpt><trkpt lat="41.053819255062294" lon="14.235463673288479"><ele>19.333333333333336</ele><time>2026-04-24T09:17:56.998Z</time></trkpt><trkpt lat="41.053626746037054" lon="14.235529671738146"><ele>18.666666666666668</ele><time>2026-04-24T09:17:57.998Z</time></trkpt><trkpt lat="41.053435655607736" lon="14.235592213611922"><ele>18.0</ele><time>2026-04-24T09:17:58.998Z</time></trkpt><trkpt lat="41.053215709363535" lon="14.235672682973158"><ele>18.0</ele><time>2026-04-24T09:17:59.998Z</time></trkpt><trkpt lat="41.053023016928414" lon="14.235749235227908"><ele>18.0</ele><time>2026-04-24T09:18:00.998Z</time></trkpt><trkpt lat="41.05282963271216" lon="14.235817509776295"><ele>18.0</ele><time>2026-04-24T09:18:01.998Z</time></trkpt><trkpt lat="41.05263829574964" lon="14.235886228622354"><ele>17.666666666666668</ele><time>2026-04-24T09:18:02.998Z</time></trkpt><trkpt lat="41.05243830661433" lon="14.235960753252654"><ele>17.333333333333336</ele><time>2026-04-24T09:18:03.998Z</time></trkpt><trkpt lat="41.05224850544114" lon="14.236025046992197"><ele>17.0</ele><time>2026-04-24T09:18:04.998Z</time></trkpt><trkpt lat="41.05206128019027" lon="14.236095513206953"><ele>17.0</ele><time>2026-04-24T09:18:05.998Z</time></trkpt><trkpt lat="41.051872547636066" lon="14.236167689101125"><ele>17.0</ele><time>2026-04-24T09:18:07.023Z</time></trkpt><trkpt lat="41.051691280111505" lon="14.236239434857795"><ele>17.0</ele><time>2026-04-24T09:18:08.021Z</time></trkpt><trkpt lat="41.05151185570243" lon="14.236313054564569"><ele>17.0</ele><time>2026-04-24T09:18:09.022Z</time></trkpt><trkpt lat="41.05114600929226" lon="14.236484228312717"><ele>17.0</ele><time>2026-04-24T09:18:10.998Z</time></trkpt><trkpt lat="41.05096126251244" lon="14.236561298548018"><ele>17.0</ele><time>2026-04-24T09:18:11.998Z</time></trkpt><trkpt lat="41.050759425459574" lon="14.236643656382032"><ele>17.0</ele><time>2026-04-24T09:18:12.998Z</time></trkpt><trkpt lat="41.05057988842309" lon="14.236710523022841"><ele>17.0</ele><time>2026-04-24T09:18:14Z</time></trkpt><trkpt lat="41.050405443155995" lon="14.236778194618251"><ele>17.0</ele><time>2026-04-24T09:18:15Z</time></trkpt><trkpt lat="41.050243875809834" lon="14.236840870518986"><ele>17.0</ele><time>2026-04-24T09:18:16Z</time></trkpt><trkpt lat="41.05009139900682" lon="14.236898974837725"><ele>17.0</ele><time>2026-04-24T09:18:17Z</time></trkpt><trkpt lat="41.049946675975335" lon="14.2369536063633"><ele>17.0</ele><time>2026-04-24T09:18:18Z</time></trkpt><trkpt lat="41.04981451435323" lon="14.237003496063835"><ele>17.0</ele><time>2026-04-24T09:18:19Z</time></trkpt><trkpt lat="41.049439666879614" lon="14.237150714856808"><ele>17.0</ele><time>2026-04-24T09:18:20Z</time></trkpt><trkpt lat="41.049259224540904" lon="14.237211435883577"><ele>17.0</ele><time>2026-04-24T09:18:21Z</time></trkpt><trkpt lat="41.049071378655576" lon="14.237271062362547"><ele>17.0</ele><time>2026-04-24T09:18:22Z</time></trkpt><trkpt lat="41.04888633425614" lon="14.237334118345219"><ele>17.0</ele><time>2026-04-24T09:18:23Z</time></trkpt><trkpt lat="41.04873938966337" lon="14.23738684579464"><ele>17.0</ele><time>2026-04-24T09:18:26Z</time></trkpt><trkpt lat="41.04861304994835" lon="14.23743217968629"><ele>17.0</ele><time>2026-04-24T09:18:28Z</time></trkpt><trkpt lat="41.04852590431508" lon="14.237469975554605"><ele>17.0</ele><time>2026-04-24T09:18:29Z</time></trkpt><trkpt lat="41.04832217196509" lon="14.237453249588908"><ele>17.25</ele><time>2026-04-24T09:18:30Z</time></trkpt><trkpt lat="41.048160679789234" lon="14.237385566945287"><ele>17.5</ele><time>2026-04-24T09:18:31Z</time></trkpt><trkpt lat="41.047985697152384" lon="14.237485249200548"><ele>17.75</ele><time>2026-04-24T09:18:32Z</time></trkpt><trkpt lat="41.047910823381514" lon="14.237522985035836"><ele>18.0</ele><time>2026-04-24T09:18:33Z</time></trkpt><trkpt lat="41.04785909717443" lon="14.237681974042742"><ele>18.0</ele><time>2026-04-24T09:18:34Z</time></trkpt><trkpt lat="41.047715396802175" lon="14.237691483121793"><ele>18.0</ele><time>2026-04-24T09:18:35Z</time></trkpt><trkpt lat="41.04759894593717" lon="14.237795677703257"><ele>18.0</ele><time>2026-04-24T09:18:36Z</time></trkpt><trkpt lat="41.047458364645905" lon="14.237873107775608"><ele>18.0</ele><time>2026-04-24T09:18:37Z</time></trkpt><trkpt lat="41.04730775362945" lon="14.237954145688088"><ele>18.666666666666668</ele><time>2026-04-24T09:18:38Z</time></trkpt><trkpt lat="41.04715401860893" lon="14.238038578756383"><ele>19.333333333333336</ele><time>2026-04-24T09:18:39Z</time></trkpt><trkpt lat="41.04699876203186" lon="14.238125080434607"><ele>20.0</ele><time>2026-04-24T09:18:40Z</time></trkpt><trkpt lat="41.04683080752401" lon="14.238176274674315"><ele>20.333333333333336</ele><time>2026-04-24T09:18:41Z</time></trkpt><trkpt lat="41.04666494415557" lon="14.238249120523452"><ele>20.666666666666668</ele><time>2026-04-24T09:18:42Z</time></trkpt><trkpt lat="41.04651522684067" lon="14.238386004515723"><ele>21.0</ele><time>2026-04-24T09:18:43Z</time></trkpt><trkpt lat="41.04634773064968" lon="14.23847129777222"><ele>20.0</ele><time>2026-04-24T09:18:44Z</time></trkpt><trkpt lat="41.04617987892076" lon="14.23855055996653"><ele>19.0</ele><time>2026-04-24T09:18:45Z</time></trkpt><trkpt lat="41.04601574048929" lon="14.238628686004406"><ele>18.0</ele><time>2026-04-24T09:18:46Z</time></trkpt><trkpt lat="41.04582812925962" lon="14.238597868553622"><ele>17.666666666666668</ele><time>2026-04-24T09:18:47Z</time></trkpt><trkpt lat="41.04566411456696" lon="14.238657924963043"><ele>17.333333333333336</ele><time>2026-04-24T09:18:48Z</time></trkpt><trkpt lat="41.04549464859453" lon="14.238719977282962"><ele>17.0</ele><time>2026-04-24T09:18:49Z</time></trkpt><trkpt lat="41.045318081472416" lon="14.238784270230022"><ele>17.0</ele><time>2026-04-24T09:18:50Z</time></trkpt><trkpt lat="41.04514430266289" lon="14.238847567726294"><ele>17.0</ele><time>2026-04-24T09:18:51Z</time></trkpt><trkpt lat="41.044976872909956" lon="14.238910489618872"><ele>17.0</ele><time>2026-04-24T09:18:52Z</time></trkpt><trkpt lat="41.044827332319656" lon="14.238967525979433"><ele>17.333333333333336</ele><time>2026-04-24T09:18:53Z</time></trkpt><trkpt lat="41.044670072562155" lon="14.239036641335696"><ele>17.666666666666668</ele><time>2026-04-24T09:18:54Z</time></trkpt><trkpt lat="41.04442130710443" lon="14.239197220007892"><ele>18.0</ele><time>2026-04-24T09:18:56.019Z</time></trkpt><trkpt lat="41.04430841742092" lon="14.239250316633024"><ele>18.0</ele><time>2026-04-24T09:18:57.02Z</time></trkpt><trkpt lat="41.04414412780554" lon="14.239319141341106"><ele>18.0</ele><time>2026-04-24T09:18:58.018Z</time></trkpt><trkpt lat="41.0440363874012" lon="14.239435936518975"><ele>18.0</ele><time>2026-04-24T09:18:59.019Z</time></trkpt><trkpt lat="41.04389283602268" lon="14.239208533732317"><ele>17.0</ele><time>2026-04-24T09:19:09.824Z</time></trkpt><trkpt lat="41.043256019146035" lon="14.238746345113132"><ele>17.0</ele><time>2026-04-24T09:19:17.488Z</time></trkpt><trkpt lat="41.0421867343048" lon="14.237845139591244"><ele>17.0</ele><time>2026-04-24T09:19:26.999Z</time></trkpt><trkpt lat="41.041969947497286" lon="14.238820613353441"><ele>17.0</ele><time>2026-04-24T09:19:27.999Z</time></trkpt><trkpt lat="41.04189020361244" lon="14.238794196445763"><ele>17.0</ele><time>2026-04-24T09:19:28.999Z</time></trkpt><trkpt lat="41.04180531072323" lon="14.238811743679472"><ele>17.0</ele><time>2026-04-24T09:19:29.999Z</time></trkpt><trkpt lat="41.04171537280467" lon="14.238844003872499"><ele>17.0</ele><time>2026-04-24T09:19:30.999Z</time></trkpt><trkpt lat="41.04162786857325" lon="14.238865363078071"><ele>17.0</ele><time>2026-04-24T09:19:32.019Z</time></trkpt><trkpt lat="41.04152198552083" lon="14.23895912168738"><ele>17.0</ele><time>2026-04-24T09:19:33.015Z</time></trkpt><trkpt lat="41.04143087219952" lon="14.239005687372085"><ele>17.0</ele><time>2026-04-24T09:19:34.02Z</time></trkpt><trkpt lat="41.04298267460324" lon="14.23872917583556"><ele>19.0</ele><time>2026-04-24T09:20:29.071Z</time></trkpt><trkpt lat="41.045865331493076" lon="14.240866189152241"><ele>19.0</ele><time>2026-04-24T09:20:59.997Z</time></trkpt><trkpt lat="41.045985224636624" lon="14.241015537469712"><ele>19.0</ele><time>2026-04-24T09:21:00.997Z</time></trkpt><trkpt lat="41.04611131727687" lon="14.241100043439761"><ele>19.0</ele><time>2026-04-24T09:21:01.997Z</time></trkpt><trkpt lat="41.04623965820605" lon="14.241185540453003"><ele>19.0</ele><time>2026-04-24T09:21:02.997Z</time></trkpt><trkpt lat="41.04637334907909" lon="14.241268848852172"><ele>19.0</ele><time>2026-04-24T09:21:03.997Z</time></trkpt><trkpt lat="41.046504496282566" lon="14.241382430755591"><ele>19.0</ele><time>2026-04-24T09:21:05Z</time></trkpt><trkpt lat="41.04664821342701" lon="14.241485240677004"><ele>19.0</ele><time>2026-04-24T09:21:06Z</time></trkpt><trkpt lat="41.04679371836003" lon="14.241589329515506"><ele>19.333333333333332</ele><time>2026-04-24T09:21:07Z</time></trkpt><trkpt lat="41.04694827212719" lon="14.241699892425585"><ele>19.666666666666668</ele><time>2026-04-24T09:21:08Z</time></trkpt><trkpt lat="41.04709581195111" lon="14.241805438120853"><ele>20.0</ele><time>2026-04-24T09:21:09Z</time></trkpt><trkpt lat="41.04724819104913" lon="14.241914446149861"><ele>20.0</ele><time>2026-04-24T09:21:10Z</time></trkpt><trkpt lat="41.04741024868196" lon="14.242030377998724"><ele>20.0</ele><time>2026-04-24T09:21:11Z</time></trkpt><trkpt lat="41.04757418281365" lon="14.242145910438094"><ele>20.0</ele><time>2026-04-24T09:21:12Z</time></trkpt><trkpt lat="41.047747665780825" lon="14.242241282711548"><ele>20.333333333333336</ele><time>2026-04-24T09:21:13Z</time></trkpt><trkpt lat="41.04791255853324" lon="14.242364659306444"><ele>20.666666666666668</ele><time>2026-04-24T09:21:14Z</time></trkpt><trkpt lat="41.04808178296393" lon="14.242488659371544"><ele>21.0</ele><time>2026-04-24T09:21:15Z</time></trkpt><trkpt lat="41.04825114922922" lon="14.242607282485249"><ele>20.666666666666668</ele><time>2026-04-24T09:21:16Z</time></trkpt><trkpt lat="41.04842153785931" lon="14.242713793250205"><ele>20.333333333333336</ele><time>2026-04-24T09:21:17Z</time></trkpt><trkpt lat="41.04859323130858" lon="14.24282321678929"><ele>20.0</ele><time>2026-04-24T09:21:18Z</time></trkpt><trkpt lat="41.0487467278516" lon="14.242952223468558"><ele>20.0</ele><time>2026-04-24T09:21:19Z</time></trkpt><trkpt lat="41.048902590545815" lon="14.243058107051185"><ele>20.0</ele><time>2026-04-24T09:21:20Z</time></trkpt><trkpt lat="41.049053758913274" lon="14.243160801667797"><ele>20.0</ele><time>2026-04-24T09:21:21Z</time></trkpt><trkpt lat="41.049195277151455" lon="14.243256940528909"><ele>20.75</ele><time>2026-04-24T09:21:22Z</time></trkpt><trkpt lat="41.04932480000747" lon="14.243344930553672"><ele>21.5</ele><time>2026-04-24T09:21:23Z</time></trkpt><trkpt lat="41.04945395980983" lon="14.243417064144763"><ele>22.25</ele><time>2026-04-24T09:21:24Z</time></trkpt><trkpt lat="41.04956808455765" lon="14.243496173048346"><ele>23.0</ele><time>2026-04-24T09:21:25Z</time></trkpt><trkpt lat="41.049677634751156" lon="14.243575228775654"><ele>23.0</ele><time>2026-04-24T09:21:26Z</time></trkpt><trkpt lat="41.04977884175366" lon="14.243651152160826"><ele>23.0</ele><time>2026-04-24T09:21:27Z</time></trkpt><trkpt lat="41.04988432607591" lon="14.24374058247361"><ele>23.0</ele><time>2026-04-24T09:21:28Z</time></trkpt><trkpt lat="41.05000182819058" lon="14.243821825013475"><ele>23.0</ele><time>2026-04-24T09:21:29Z</time></trkpt><trkpt lat="41.050121213272384" lon="14.243904369340774"><ele>22.75</ele><time>2026-04-24T09:21:30Z</time></trkpt><trkpt lat="41.05025406478503" lon="14.243996224587471"><ele>22.5</ele><time>2026-04-24T09:21:31Z</time></trkpt><trkpt lat="41.050384285357296" lon="14.244086012936672"><ele>22.25</ele><time>2026-04-24T09:21:32Z</time></trkpt><trkpt lat="41.05051974314326" lon="14.244179253066017"><ele>22.0</ele><time>2026-04-24T09:21:33Z</time></trkpt><trkpt lat="41.050660744549795" lon="14.244276309241272"><ele>21.666666666666664</ele><time>2026-04-24T09:21:34Z</time></trkpt><trkpt lat="41.050799951365775" lon="14.244372130035089"><ele>21.333333333333332</ele><time>2026-04-24T09:21:35Z</time></trkpt><trkpt lat="41.05093774541093" lon="14.24446572326955"><ele>21.0</ele><time>2026-04-24T09:21:36Z</time></trkpt><trkpt lat="41.05106761960076" lon="14.244552998208329"><ele>21.0</ele><time>2026-04-24T09:21:37Z</time></trkpt><trkpt lat="41.05135247702058" lon="14.244747893849548"><ele>21.0</ele><time>2026-04-24T09:21:39Z</time></trkpt><trkpt lat="41.051487100244906" lon="14.24484097204874"><ele>21.666666666666668</ele><time>2026-04-24T09:21:40Z</time></trkpt><trkpt lat="41.051623933212014" lon="14.244935578041945"><ele>22.333333333333336</ele><time>2026-04-24T09:21:41Z</time></trkpt><trkpt lat="41.05175895078578" lon="14.245028928866981"><ele>23.0</ele><time>2026-04-24T09:21:42Z</time></trkpt><trkpt lat="41.051887384205166" lon="14.245117728103388"><ele>23.0</ele><time>2026-04-24T09:21:43Z</time></trkpt><trkpt lat="41.05201324324103" lon="14.245204403428684"><ele>23.0</ele><time>2026-04-24T09:21:44Z</time></trkpt><trkpt lat="41.05213942178701" lon="14.245291369258183"><ele>23.0</ele><time>2026-04-24T09:21:45Z</time></trkpt><trkpt lat="41.052268563340235" lon="14.245380456101351"><ele>23.0</ele><time>2026-04-24T09:21:46Z</time></trkpt><trkpt lat="41.05240548012012" lon="14.245451929634806"><ele>23.0</ele><time>2026-04-24T09:21:47Z</time></trkpt><trkpt lat="41.05253304793054" lon="14.245548312411323"><ele>23.0</ele><time>2026-04-24T09:21:48Z</time></trkpt><trkpt lat="41.0526718084468" lon="14.245640055727344"><ele>23.0</ele><time>2026-04-24T09:21:49Z</time></trkpt><trkpt lat="41.0528159621168" lon="14.245735981925488"><ele>23.0</ele><time>2026-04-24T09:21:50Z</time></trkpt><trkpt lat="41.05295688152252" lon="14.2458316727929"><ele>23.0</ele><time>2026-04-24T09:21:51Z</time></trkpt><trkpt lat="41.0531025046491" lon="14.245935937970739"><ele>23.0</ele><time>2026-04-24T09:21:52Z</time></trkpt><trkpt lat="41.053248560488065" lon="14.246040321741189"><ele>22.666666666666668</ele><time>2026-04-24T09:21:53Z</time></trkpt><trkpt lat="41.053390089689046" lon="14.246136822704393"><ele>22.333333333333332</ele><time>2026-04-24T09:21:54Z</time></trkpt><trkpt lat="41.053539982948045" lon="14.246235020304589"><ele>22.0</ele><time>2026-04-24T09:21:54.999Z</time></trkpt><trkpt lat="41.053683501514165" lon="14.246325329420008"><ele>22.0</ele><time>2026-04-24T09:21:55.999Z</time></trkpt><trkpt lat="41.05381584832202" lon="14.246437323254913"><ele>22.0</ele><time>2026-04-24T09:21:56.999Z</time></trkpt><trkpt lat="41.05394755804554" lon="14.246512468945635"><ele>22.0</ele><time>2026-04-24T09:21:57.999Z</time></trkpt><trkpt lat="41.05407032979151" lon="14.246594274444902"><ele>22.0</ele><time>2026-04-24T09:21:58.999Z</time></trkpt><trkpt lat="41.054187356591335" lon="14.246668010884893"><ele>22.5</ele><time>2026-04-24T09:21:59.999Z</time></trkpt><trkpt lat="41.05429713751825" lon="14.246745446496915"><ele>23.0</ele><time>2026-04-24T09:22:00.999Z</time></trkpt><trkpt lat="41.05441771325882" lon="14.246817751180712"><ele>23.5</ele><time>2026-04-24T09:22:01.999Z</time></trkpt><trkpt lat="41.05452721159614" lon="14.246916819049016"><ele>24.0</ele><time>2026-04-24T09:22:02.999Z</time></trkpt><trkpt lat="41.054645965120976" lon="14.246998024352653"><ele>24.0</ele><time>2026-04-24T09:22:03.999Z</time></trkpt><trkpt lat="41.05477385012225" lon="14.247084778887324"><ele>24.0</ele><time>2026-04-24T09:22:04.999Z</time></trkpt><trkpt lat="41.05489516413649" lon="14.247166899690257"><ele>24.0</ele><time>2026-04-24T09:22:05.999Z</time></trkpt><trkpt lat="41.05502822929601" lon="14.247256276595605"><ele>24.0</ele><time>2026-04-24T09:22:06.999Z</time></trkpt><trkpt lat="41.05515690909746" lon="14.247343696511438"><ele>23.75</ele><time>2026-04-24T09:22:07.999Z</time></trkpt><trkpt lat="41.05528420649386" lon="14.247430330878535"><ele>23.5</ele><time>2026-04-24T09:22:08.999Z</time></trkpt><trkpt lat="41.055405200992794" lon="14.247513285501606"><ele>23.25</ele><time>2026-04-24T09:22:09.999Z</time></trkpt><trkpt lat="41.05552067660373" lon="14.247587661675878"><ele>23.0</ele><time>2026-04-24T09:22:10.999Z</time></trkpt><trkpt lat="41.055623052048276" lon="14.247646511201165"><ele>23.0</ele><time>2026-04-24T09:22:11.999Z</time></trkpt><trkpt lat="41.05570617177641" lon="14.247698998036029"><ele>23.0</ele><time>2026-04-24T09:22:12.999Z</time></trkpt><trkpt lat="41.05577241116313" lon="14.247746032727324"><ele>23.0</ele><time>2026-04-24T09:22:13.999Z</time></trkpt><trkpt lat="41.05584156505238" lon="14.247819400340337"><ele>23.0</ele><time>2026-04-24T09:22:15.999Z</time></trkpt><trkpt lat="41.055884970065065" lon="14.247888242730795"><ele>23.0</ele><time>2026-04-24T09:22:17.999Z</time></trkpt><trkpt lat="41.05593876526744" lon="14.247932995027377"><ele>23.0</ele><time>2026-04-24T09:22:22.999Z</time></trkpt><trkpt lat="41.05587290237697" lon="14.247890075983792"><ele>23.2</ele><time>2026-04-24T09:23:44.999Z</time></trkpt><trkpt lat="41.05599147936149" lon="14.247910795977788"><ele>23.4</ele><time>2026-04-24T09:23:47.999Z</time></trkpt><trkpt lat="41.0560879609428" lon="14.247963952314134"><ele>23.599999999999998</ele><time>2026-04-24T09:23:49.999Z</time></trkpt><trkpt lat="41.05615191816783" lon="14.24800644438925"><ele>23.799999999999997</ele><time>2026-04-24T09:23:50.999Z</time></trkpt><trkpt lat="41.05625367398983" lon="14.248098948962712"><ele>24.0</ele><time>2026-04-24T09:23:51.999Z</time></trkpt><trkpt lat="41.056347135714034" lon="14.248168763328007"><ele>24.0</ele><time>2026-04-24T09:23:52.999Z</time></trkpt><trkpt lat="41.05646271135988" lon="14.248243751032179"><ele>24.0</ele><time>2026-04-24T09:23:53.999Z</time></trkpt><trkpt lat="41.056574071823995" lon="14.24831989333627"><ele>24.0</ele><time>2026-04-24T09:23:54.999Z</time></trkpt><trkpt lat="41.05669166580286" lon="14.248404382919833"><ele>24.0</ele><time>2026-04-24T09:23:55.999Z</time></trkpt><trkpt lat="41.05681635059982" lon="14.248490142407684"><ele>24.0</ele><time>2026-04-24T09:23:56.999Z</time></trkpt><trkpt lat="41.056939408768336" lon="14.248573779844323"><ele>24.0</ele><time>2026-04-24T09:23:57.999Z</time></trkpt><trkpt lat="41.05706179390849" lon="14.248656228861236"><ele>24.0</ele><time>2026-04-24T09:23:58.999Z</time></trkpt><trkpt lat="41.05719270546059" lon="14.248739089303303"><ele>24.0</ele><time>2026-04-24T09:23:59.999Z</time></trkpt><trkpt lat="41.057324893635005" lon="14.248818457011327"><ele>24.0</ele><time>2026-04-24T09:24:00.999Z</time></trkpt><trkpt lat="41.057450668590086" lon="14.248900280943483"><ele>24.0</ele><time>2026-04-24T09:24:01.999Z</time></trkpt><trkpt lat="41.05758373602366" lon="14.248990717763661"><ele>24.0</ele><time>2026-04-24T09:24:02.999Z</time></trkpt><trkpt lat="41.05772035029141" lon="14.249082923602092"><ele>24.0</ele><time>2026-04-24T09:24:03.999Z</time></trkpt><trkpt lat="41.057849716916266" lon="14.249162328914696"><ele>24.25</ele><time>2026-04-24T09:24:04.999Z</time></trkpt><trkpt lat="41.05797644258095" lon="14.249268918303953"><ele>24.5</ele><time>2026-04-24T09:24:05.999Z</time></trkpt><trkpt lat="41.058108175511805" lon="14.249356464822785"><ele>24.75</ele><time>2026-04-24T09:24:06.999Z</time></trkpt><trkpt lat="41.05820924504937" lon="14.249423615589292"><ele>25.0</ele><time>2026-04-24T09:24:07.999Z</time></trkpt><trkpt lat="41.05829926402611" lon="14.249483424306712"><ele>25.000000000000004</ele><time>2026-04-24T09:24:08.999Z</time></trkpt><trkpt lat="41.05837291828522" lon="14.24953236035443"><ele>25.0</ele><time>2026-04-24T09:24:09.999Z</time></trkpt><trkpt lat="41.05845983386789" lon="14.249575126288512"><ele>25.0</ele><time>2026-04-24T09:24:11.999Z</time></trkpt><trkpt lat="41.05848240498355" lon="14.249669759830818"><ele>25.0</ele><time>2026-04-24T09:24:14.999Z</time></trkpt><trkpt lat="41.05843385347871" lon="14.249736949699631"><ele>25.000000000000004</ele><time>2026-04-24T09:24:15.999Z</time></trkpt><trkpt lat="41.05842626281711" lon="14.24983446182953"><ele>25.0</ele><time>2026-04-24T09:24:18.999Z</time></trkpt><trkpt lat="41.05841566528042" lon="14.249975671312685"><ele>25.6</ele><time>2026-04-24T09:24:22.999Z</time></trkpt><trkpt lat="41.05840580924589" lon="14.250109560894767"><ele>26.2</ele><time>2026-04-24T09:24:24.999Z</time></trkpt><trkpt lat="41.05838377516372" lon="14.250267489171204"><ele>26.799999999999997</ele><time>2026-04-24T09:24:26.999Z</time></trkpt><trkpt lat="41.058364028536666" lon="14.250399669147788"><ele>27.4</ele><time>2026-04-24T09:24:28.999Z</time></trkpt><trkpt lat="41.05835960927175" lon="14.250510790375635"><ele>28.0</ele><time>2026-04-24T09:24:31.999Z</time></trkpt><trkpt lat="41.058390300407474" lon="14.250619008108357"><ele>28.333333333333336</ele><time>2026-04-24T09:24:59.998Z</time></trkpt><trkpt lat="41.05842820206952" lon="14.250732489996151"><ele>28.666666666666668</ele><time>2026-04-24T09:25:01.998Z</time></trkpt><trkpt lat="41.058470036832354" lon="14.250859720689064"><ele>29.0</ele><time>2026-04-24T09:25:03.998Z</time></trkpt><trkpt lat="41.058504838862085" lon="14.250964866401494"><ele>29.333333333333336</ele><time>2026-04-24T09:25:05.998Z</time></trkpt><trkpt lat="41.05846904868379" lon="14.251049697871006"><ele>29.666666666666668</ele><time>2026-04-24T09:25:07.998Z</time></trkpt><trkpt lat="41.05841802157632" lon="14.251117705700114"><ele>30.0</ele><time>2026-04-24T09:25:09.998Z</time></trkpt><trkpt lat="41.05834057977628" lon="14.251178232517718"><ele>30.0</ele><time>2026-04-24T09:25:11.998Z</time></trkpt><trkpt lat="41.058251073385684" lon="14.251234035912965"><ele>30.0</ele><time>2026-04-24T09:25:13.998Z</time></trkpt><trkpt lat="41.058181412890654" lon="14.25130374348797"><ele>30.0</ele><time>2026-04-24T09:25:15.998Z</time></trkpt><trkpt lat="41.05813608013862" lon="14.25136756395201"><ele>30.0</ele><time>2026-04-24T09:25:17.999Z</time></trkpt><trkpt lat="41.05815390501599" lon="14.251500523718386"><ele>30.0</ele><time>2026-04-24T09:25:18.999Z</time></trkpt><trkpt lat="41.058139711682095" lon="14.251680890272471"><ele>29.6</ele><time>2026-04-24T09:25:20.999Z</time></trkpt><trkpt lat="41.058133418428255" lon="14.25179925645763"><ele>29.2</ele><time>2026-04-24T09:25:21.999Z</time></trkpt><trkpt lat="41.05812937138425" lon="14.251927577472491"><ele>28.799999999999997</ele><time>2026-04-24T09:25:22.999Z</time></trkpt><trkpt lat="41.05812745245164" lon="14.252063893449373"><ele>28.4</ele><time>2026-04-24T09:25:23.999Z</time></trkpt><trkpt lat="41.05812602360029" lon="14.252212422532802"><ele>28.0</ele><time>2026-04-24T09:25:24.999Z</time></trkpt><trkpt lat="41.058140758876846" lon="14.252360274261898"><ele>27.5</ele><time>2026-04-24T09:25:25.999Z</time></trkpt><trkpt lat="41.05813823474452" lon="14.252509436051016"><ele>27.0</ele><time>2026-04-24T09:25:26.999Z</time></trkpt><trkpt lat="41.05813733957566" lon="14.252661540094238"><ele>26.5</ele><time>2026-04-24T09:25:27.999Z</time></trkpt><trkpt lat="41.05813600758238" lon="14.252823316971016"><ele>26.0</ele><time>2026-04-24T09:25:28.999Z</time></trkpt><trkpt lat="41.05814180894024" lon="14.25299204171372"><ele>26.0</ele><time>2026-04-24T09:25:29.999Z</time></trkpt><trkpt lat="41.05814833832812" lon="14.253156497931013"><ele>26.0</ele><time>2026-04-24T09:25:30.999Z</time></trkpt><trkpt lat="41.058155903119776" lon="14.253322007329167"><ele>26.0</ele><time>2026-04-24T09:25:31.999Z</time></trkpt><trkpt lat="41.05817178095034" lon="14.25348964101191"><ele>26.0</ele><time>2026-04-24T09:25:32.999Z</time></trkpt><trkpt lat="41.05818933182989" lon="14.253655422738962"><ele>26.0</ele><time>2026-04-24T09:25:33.999Z</time></trkpt><trkpt lat="41.058210530719805" lon="14.253817381587098"><ele>26.0</ele><time>2026-04-24T09:25:34.999Z</time></trkpt><trkpt lat="41.058245148137885" lon="14.254127562254277"><ele>26.0</ele><time>2026-04-24T09:25:36.999Z</time></trkpt><trkpt lat="41.058261277319644" lon="14.254278722660553"><ele>26.0</ele><time>2026-04-24T09:25:37.999Z</time></trkpt><trkpt lat="41.05827422230318" lon="14.254424878412541"><ele>26.0</ele><time>2026-04-24T09:25:38.999Z</time></trkpt><trkpt lat="41.05828040797825" lon="14.254573443409614"><ele>26.0</ele><time>2026-04-24T09:25:39.999Z</time></trkpt><trkpt lat="41.058288118528466" lon="14.254728524639694"><ele>26.0</ele><time>2026-04-24T09:25:40.999Z</time></trkpt><trkpt lat="41.05828618033159" lon="14.254872480421623"><ele>26.0</ele><time>2026-04-24T09:25:41.999Z</time></trkpt><trkpt lat="41.058272349449226" lon="14.255006917213816"><ele>25.999999999999996</ele><time>2026-04-24T09:25:42.999Z</time></trkpt><trkpt lat="41.058274750397736" lon="14.25510899132237"><ele>26.0</ele><time>2026-04-24T09:25:43.999Z</time></trkpt><trkpt lat="41.05826575185053" lon="14.255230849098211"><ele>26.0</ele><time>2026-04-24T09:25:45.999Z</time></trkpt><trkpt lat="41.05813347266057" lon="14.255238990931096"><ele>26.0</ele><time>2026-04-24T09:26:04.999Z</time></trkpt><trkpt lat="41.05806383706859" lon="14.255224773950857"><ele>25.999999999999996</ele><time>2026-04-24T09:26:05.999Z</time></trkpt><trkpt lat="41.057989299426275" lon="14.255204842232528"><ele>26.0</ele><time>2026-04-24T09:26:06.999Z</time></trkpt><trkpt lat="41.05790046785136" lon="14.255175935735744"><ele>26.0</ele><time>2026-04-24T09:26:07.999Z</time></trkpt><trkpt lat="41.05779369841085" lon="14.255152339247243"><ele>26.0</ele><time>2026-04-24T09:26:08.999Z</time></trkpt><trkpt lat="41.05769196927591" lon="14.255112970269076"><ele>26.0</ele><time>2026-04-24T09:26:09.999Z</time></trkpt><trkpt lat="41.05758793191176" lon="14.25504703731406"><ele>26.0</ele><time>2026-04-24T09:26:10.999Z</time></trkpt><trkpt lat="41.05747476435393" lon="14.254990428151633"><ele>26.0</ele><time>2026-04-24T09:26:11.999Z</time></trkpt><trkpt lat="41.05734690725754" lon="14.254940440300386"><ele>26.0</ele><time>2026-04-24T09:26:12.999Z</time></trkpt><trkpt lat="41.05721908030968" lon="14.254887543493803"><ele>26.0</ele><time>2026-04-24T09:26:13.999Z</time></trkpt><trkpt lat="41.05708635612197" lon="14.254848224465567"><ele>26.0</ele><time>2026-04-24T09:26:14.999Z</time></trkpt><trkpt lat="41.056945401092264" lon="14.254813206136438"><ele>26.0</ele><time>2026-04-24T09:26:15.999Z</time></trkpt><trkpt lat="41.056801297885286" lon="14.254772799802835"><ele>26.0</ele><time>2026-04-24T09:26:16.999Z</time></trkpt><trkpt lat="41.056659792447675" lon="14.254724045154953"><ele>26.0</ele><time>2026-04-24T09:26:17.999Z</time></trkpt><trkpt lat="41.05652102869449" lon="14.254668522085367"><ele>26.0</ele><time>2026-04-24T09:26:18.999Z</time></trkpt><trkpt lat="41.05638227512633" lon="14.254649321540656"><ele>26.0</ele><time>2026-04-24T09:26:19.999Z</time></trkpt><trkpt lat="41.05613060697222" lon="14.254601605020575"><ele>26.0</ele><time>2026-04-24T09:26:21.999Z</time></trkpt><trkpt lat="41.05601382729622" lon="14.254587436514765"><ele>26.0</ele><time>2026-04-24T09:26:22.999Z</time></trkpt><trkpt lat="41.05589528175657" lon="14.254579672892527"><ele>26.25</ele><time>2026-04-24T09:26:23.999Z</time></trkpt><trkpt lat="41.05577786246251" lon="14.254581151022775"><ele>26.5</ele><time>2026-04-24T09:26:24.999Z</time></trkpt><trkpt lat="41.05566131643484" lon="14.254612040546082"><ele>26.75</ele><time>2026-04-24T09:26:25.999Z</time></trkpt><trkpt lat="41.055548965290384" lon="14.254657738856935"><ele>27.0</ele><time>2026-04-24T09:26:26.999Z</time></trkpt><trkpt lat="41.055438772299965" lon="14.254694465183082"><ele>27.0</ele><time>2026-04-24T09:26:27.999Z</time></trkpt><trkpt lat="41.05534944341236" lon="14.254716494506514"><ele>27.000000000000004</ele><time>2026-04-24T09:26:28.999Z</time></trkpt><trkpt lat="41.05523713847639" lon="14.254739772780969"><ele>27.000000000000004</ele><time>2026-04-24T09:26:30.999Z</time></trkpt><trkpt lat="41.05512894540318" lon="14.254713791582143"><ele>27.0</ele><time>2026-04-24T09:26:32.999Z</time></trkpt><trkpt lat="41.055009633145524" lon="14.25466939472706"><ele>27.0</ele><time>2026-04-24T09:26:34.999Z</time></trkpt><trkpt lat="41.05494203536846" lon="14.254655195939701"><ele>27.166666666666668</ele><time>2026-04-24T09:26:35.999Z</time></trkpt><trkpt lat="41.05486486510763" lon="14.254634799914548"><ele>27.333333333333336</ele><time>2026-04-24T09:26:36.999Z</time></trkpt><trkpt lat="41.05478053964344" lon="14.25459877179461"><ele>27.5</ele><time>2026-04-24T09:26:37.999Z</time></trkpt><trkpt lat="41.054702097987615" lon="14.254553363553708"><ele>27.666666666666668</ele><time>2026-04-24T09:26:38.999Z</time></trkpt><trkpt lat="41.05462576775252" lon="14.254502105714757"><ele>27.833333333333336</ele><time>2026-04-24T09:26:39.999Z</time></trkpt><trkpt lat="41.054558351773466" lon="14.25442699151148"><ele>28.0</ele><time>2026-04-24T09:26:40.999Z</time></trkpt><trkpt lat="41.05449555022002" lon="14.254341858091085"><ele>28.0</ele><time>2026-04-24T09:26:41.999Z</time></trkpt><trkpt lat="41.05444081087869" lon="14.25423972155674"><ele>27.999999999999996</ele><time>2026-04-24T09:26:42.999Z</time></trkpt><trkpt lat="41.05438309500636" lon="14.254134607066597"><ele>27.999999999999996</ele><time>2026-04-24T09:26:43.999Z</time></trkpt><trkpt lat="41.05432760260014" lon="14.254034193316697"><ele>28.0</ele><time>2026-04-24T09:26:44.999Z</time></trkpt><trkpt lat="41.054278603430056" lon="14.25394113124421"><ele>28.0</ele><time>2026-04-24T09:26:45.999Z</time></trkpt><trkpt lat="41.05423112967803" lon="14.253833565947138"><ele>27.833333333333336</ele><time>2026-04-24T09:26:46.999Z</time></trkpt><trkpt lat="41.054197466502984" lon="14.25372210112383"><ele>27.666666666666668</ele><time>2026-04-24T09:26:47.999Z</time></trkpt><trkpt lat="41.05416382134205" lon="14.253613531283852"><ele>27.5</ele><time>2026-04-24T09:26:48.999Z</time></trkpt><trkpt lat="41.05413358521753" lon="14.253501417693155"><ele>27.333333333333336</ele><time>2026-04-24T09:26:49.999Z</time></trkpt><trkpt lat="41.05410390479653" lon="14.253395491446074"><ele>27.166666666666668</ele><time>2026-04-24T09:26:50.999Z</time></trkpt><trkpt lat="41.05408257832894" lon="14.253294427501835"><ele>27.0</ele><time>2026-04-24T09:26:51.999Z</time></trkpt><trkpt lat="41.054058428842254" lon="14.253192417031377"><ele>26.833333333333332</ele><time>2026-04-24T09:26:52.998Z</time></trkpt><trkpt lat="41.05403469464219" lon="14.253106986549609"><ele>26.666666666666664</ele><time>2026-04-24T09:26:53.998Z</time></trkpt><trkpt lat="41.05400201150679" lon="14.252986457226038"><ele>26.5</ele><time>2026-04-24T09:26:55.998Z</time></trkpt><trkpt lat="41.053983011800725" lon="14.25289836150698"><ele>26.333333333333332</ele><time>2026-04-24T09:26:57.998Z</time></trkpt><trkpt lat="41.053972023367194" lon="14.252811813524966"><ele>26.166666666666664</ele><time>2026-04-24T09:26:59.998Z</time></trkpt><trkpt lat="41.05396160880367" lon="14.252722166873614"><ele>26.0</ele><time>2026-04-24T09:27:01.998Z</time></trkpt><trkpt lat="41.05393610181058" lon="14.252608222995885"><ele>26.0</ele><time>2026-04-24T09:27:03.998Z</time></trkpt><trkpt lat="41.053914513901965" lon="14.252507537614136"><ele>26.0</ele><time>2026-04-24T09:27:05.998Z</time></trkpt><trkpt lat="41.05389402966026" lon="14.25241666268366"><ele>26.0</ele><time>2026-04-24T09:27:36.999Z</time></trkpt><trkpt lat="41.05387970120449" lon="14.252333902298023"><ele>26.0</ele><time>2026-04-24T09:27:38.999Z</time></trkpt><trkpt lat="41.05385932517036" lon="14.252254008719685"><ele>26.0</ele><time>2026-04-24T09:27:40.999Z</time></trkpt><trkpt lat="41.05387670992419" lon="14.252363269764503"><ele>26.0</ele><time>2026-04-24T09:27:54.999Z</time></trkpt><trkpt lat="41.053899479308875" lon="14.252455278324533"><ele>26.0</ele><time>2026-04-24T09:27:57.999Z</time></trkpt><trkpt lat="41.05390788570569" lon="14.252568771666393"><ele>26.0</ele><time>2026-04-24T09:28:26.999Z</time></trkpt><trkpt lat="41.0539123488323" lon="14.25269890080935"><ele>26.0</ele><time>2026-04-24T09:28:28.999Z</time></trkpt><trkpt lat="41.05395732389841" lon="14.252844182122557"><ele>26.0</ele><time>2026-04-24T09:28:30.999Z</time></trkpt><trkpt lat="41.05401607459744" lon="14.253043581904535"><ele>26.0</ele><time>2026-04-24T09:28:32.999Z</time></trkpt><trkpt lat="41.0540335331031" lon="14.253129492040644"><ele>26.0</ele><time>2026-04-24T09:28:33.999Z</time></trkpt><trkpt lat="41.05405458226293" lon="14.25327367186639"><ele>26.166666666666664</ele><time>2026-04-24T09:28:35.999Z</time></trkpt><trkpt lat="41.05408532375083" lon="14.253361181767849"><ele>26.333333333333332</ele><time>2026-04-24T09:28:36.999Z</time></trkpt><trkpt lat="41.05409842547911" lon="14.253454096692643"><ele>26.5</ele><time>2026-04-24T09:28:37.999Z</time></trkpt><trkpt lat="41.05412293848637" lon="14.253544678542982"><ele>26.666666666666664</ele><time>2026-04-24T09:28:38.999Z</time></trkpt><trkpt lat="41.05415739426988" lon="14.253654913602109"><ele>26.833333333333332</ele><time>2026-04-24T09:28:39.999Z</time></trkpt><trkpt lat="41.05418761619449" lon="14.25376509674772"><ele>27.0</ele><time>2026-04-24T09:28:40.999Z</time></trkpt><trkpt lat="41.054223949119034" lon="14.253878066799157"><ele>27.200000000000003</ele><time>2026-04-24T09:28:41.999Z</time></trkpt><trkpt lat="41.054282903095455" lon="14.253994532700982"><ele>27.400000000000002</ele><time>2026-04-24T09:28:42.999Z</time></trkpt><trkpt lat="41.05434501916049" lon="14.254103217607563"><ele>27.599999999999998</ele><time>2026-04-24T09:28:43.999Z</time></trkpt><trkpt lat="41.05439904392416" lon="14.2542051357322"><ele>27.799999999999997</ele><time>2026-04-24T09:28:44.999Z</time></trkpt><trkpt lat="41.054462520291466" lon="14.254271847418336"><ele>28.0</ele><time>2026-04-24T09:28:45.999Z</time></trkpt><trkpt lat="41.054516484923894" lon="14.254363978281413"><ele>28.0</ele><time>2026-04-24T09:28:46.999Z</time></trkpt><trkpt lat="41.05456745057467" lon="14.254455849668746"><ele>27.999999999999996</ele><time>2026-04-24T09:28:47.999Z</time></trkpt><trkpt lat="41.05464311888735" lon="14.254527460651008"><ele>27.999999999999996</ele><time>2026-04-24T09:28:48.999Z</time></trkpt><trkpt lat="41.054728186913316" lon="14.254581903294048"><ele>28.0</ele><time>2026-04-24T09:28:49.999Z</time></trkpt><trkpt lat="41.05481371766132" lon="14.25462788346819"><ele>28.0</ele><time>2026-04-24T09:28:50.999Z</time></trkpt><trkpt lat="41.05489455253623" lon="14.254675610339111"><ele>27.833333333333336</ele><time>2026-04-24T09:28:51.999Z</time></trkpt><trkpt lat="41.0549677122991" lon="14.254700572352743"><ele>27.666666666666668</ele><time>2026-04-24T09:28:52.999Z</time></trkpt><trkpt lat="41.05503770442972" lon="14.254722227847738"><ele>27.5</ele><time>2026-04-24T09:28:54.999Z</time></trkpt><trkpt lat="41.05511241009178" lon="14.254744331267634"><ele>27.333333333333336</ele><time>2026-04-24T09:29:01.999Z</time></trkpt><trkpt lat="41.055212381781836" lon="14.254757158484685"><ele>27.166666666666668</ele><time>2026-04-24T09:29:03.999Z</time></trkpt><trkpt lat="41.05528346630958" lon="14.254789429879716"><ele>27.0</ele><time>2026-04-24T09:29:06.999Z</time></trkpt><trkpt lat="41.05530093003477" lon="14.255085274556855"><ele>27.0</ele><time>2026-04-24T09:29:10.999Z</time></trkpt><trkpt lat="41.05531620114103" lon="14.255210660394857"><ele>27.000000000000004</ele><time>2026-04-24T09:29:12.999Z</time></trkpt><trkpt lat="41.05533690345262" lon="14.255373641670328"><ele>27.000000000000004</ele><time>2026-04-24T09:29:14.999Z</time></trkpt><trkpt lat="41.05534020614849" lon="14.255476759316707"><ele>27.0</ele><time>2026-04-24T09:29:15.999Z</time></trkpt><trkpt lat="41.055346081585725" lon="14.255591272281888"><ele>27.0</ele><time>2026-04-24T09:29:16.999Z</time></trkpt><trkpt lat="41.05535458947042" lon="14.255724453096676"><ele>26.8</ele><time>2026-04-24T09:29:17.999Z</time></trkpt><trkpt lat="41.05535391328766" lon="14.255854585061332"><ele>26.6</ele><time>2026-04-24T09:29:18.999Z</time></trkpt><trkpt lat="41.05534378184052" lon="14.255993056687402"><ele>26.400000000000002</ele><time>2026-04-24T09:29:19.999Z</time></trkpt><trkpt lat="41.05533252601102" lon="14.256138221546173"><ele>26.200000000000003</ele><time>2026-04-24T09:29:20.999Z</time></trkpt><trkpt lat="41.055330962314294" lon="14.256282813286935"><ele>26.0</ele><time>2026-04-24T09:29:21.999Z</time></trkpt><trkpt lat="41.05532018685783" lon="14.25643427802357"><ele>26.200000000000003</ele><time>2026-04-24T09:29:22.999Z</time></trkpt><trkpt lat="41.05530658236832" lon="14.256585724333608"><ele>26.400000000000002</ele><time>2026-04-24T09:29:23.999Z</time></trkpt><trkpt lat="41.05529480285788" lon="14.256733301233181"><ele>26.6</ele><time>2026-04-24T09:29:24.999Z</time></trkpt><trkpt lat="41.055280741661804" lon="14.256862819403862"><ele>26.8</ele><time>2026-04-24T09:29:25.998Z</time></trkpt><trkpt lat="41.055273838609395" lon="14.256980852702345"><ele>27.0</ele><time>2026-04-24T09:29:26.998Z</time></trkpt><trkpt lat="41.05526673360963" lon="14.257093547594387"><ele>27.0</ele><time>2026-04-24T09:29:28Z</time></trkpt><trkpt lat="41.0552586407564" lon="14.257194935031295"><ele>27.0</ele><time>2026-04-24T09:29:29Z</time></trkpt><trkpt lat="41.05524066075156" lon="14.257341923789811"><ele>27.0</ele><time>2026-04-24T09:29:31Z</time></trkpt><trkpt lat="41.05520969507734" lon="14.257441514248889"><ele>27.0</ele><time>2026-04-24T09:29:34Z</time></trkpt><trkpt lat="41.055230410896776" lon="14.257541200882645"><ele>27.0</ele><time>2026-04-24T09:29:51Z</time></trkpt><trkpt lat="41.05523544041441" lon="14.257626999505353"><ele>27.0</ele><time>2026-04-24T09:29:52Z</time></trkpt><trkpt lat="41.05522979021137" lon="14.257745707308978"><ele>27.0</ele><time>2026-04-24T09:29:54Z</time></trkpt><trkpt lat="41.05522956188939" lon="14.257903184858666"><ele>27.000000000000004</ele><time>2026-04-24T09:29:56Z</time></trkpt><trkpt lat="41.05522534801277" lon="14.25805101469075"><ele>27.000000000000004</ele><time>2026-04-24T09:29:58Z</time></trkpt><trkpt lat="41.05522100401386" lon="14.258205547516647"><ele>27.0</ele><time>2026-04-24T09:30:00Z</time></trkpt><trkpt lat="41.05522220417388" lon="14.258290352669485"><ele>27.0</ele><time>2026-04-24T09:30:01Z</time></trkpt><trkpt lat="41.055231647974246" lon="14.258377634387076"><ele>27.0</ele><time>2026-04-24T09:30:02Z</time></trkpt><trkpt lat="41.05523269180057" lon="14.258467301272457"><ele>27.0</ele><time>2026-04-24T09:30:03Z</time></trkpt><trkpt lat="41.055226846155946" lon="14.258554118677024"><ele>27.0</ele><time>2026-04-24T09:30:04Z</time></trkpt><trkpt lat="41.055227102226254" lon="14.258648859785229"><ele>27.0</ele><time>2026-04-24T09:30:05Z</time></trkpt><trkpt lat="41.05522596693172" lon="14.258742575806613"><ele>27.0</ele><time>2026-04-24T09:30:06Z</time></trkpt><trkpt lat="41.055221720048365" lon="14.258828237335981"><ele>27.0</ele><time>2026-04-24T09:30:07Z</time></trkpt><trkpt lat="41.05521654838121" lon="14.258930005876081"><ele>27.0</ele><time>2026-04-24T09:30:08Z</time></trkpt><trkpt lat="41.0552188790005" lon="14.259032599931345"><ele>27.0</ele><time>2026-04-24T09:30:09Z</time></trkpt><trkpt lat="41.05521727247536" lon="14.259134932044562"><ele>27.0</ele><time>2026-04-24T09:30:10Z</time></trkpt><trkpt lat="41.05522060001625" lon="14.259227959285463"><ele>27.0</ele><time>2026-04-24T09:30:11Z</time></trkpt><trkpt lat="41.05522594022651" lon="14.259312119399262"><ele>27.0</ele><time>2026-04-24T09:30:12Z</time></trkpt><trkpt lat="41.055228081313764" lon="14.259401581840816"><ele>27.0</ele><time>2026-04-24T09:30:13Z</time></trkpt><trkpt lat="41.05523296211798" lon="14.259493038715942"><ele>27.0</ele><time>2026-04-24T09:30:14Z</time></trkpt><trkpt lat="41.05523393360093" lon="14.259584061077241"><ele>27.0</ele><time>2026-04-24T09:30:14.999Z</time></trkpt><trkpt lat="41.055236043959745" lon="14.259680960784964"><ele>27.0</ele><time>2026-04-24T09:30:15.999Z</time></trkpt><trkpt lat="41.05524132267855" lon="14.259776004783035"><ele>27.000000000000004</ele><time>2026-04-24T09:30:16.999Z</time></trkpt><trkpt lat="41.05524965097284" lon="14.25994951285567"><ele>27.000000000000004</ele><time>2026-04-24T09:30:18.999Z</time></trkpt><trkpt lat="41.055254925950244" lon="14.260107041656212"><ele>27.0</ele><time>2026-04-24T09:30:20.999Z</time></trkpt><trkpt lat="41.05525369963313" lon="14.260194716917846"><ele>27.0</ele><time>2026-04-24T09:30:21.999Z</time></trkpt><trkpt lat="41.05524768545603" lon="14.260287391997378"><ele>27.333333333333332</ele><time>2026-04-24T09:30:22.999Z</time></trkpt><trkpt lat="41.05525165679701" lon="14.26037249278962"><ele>27.666666666666664</ele><time>2026-04-24T09:30:23.999Z</time></trkpt><trkpt lat="41.05525669064347" lon="14.260456048296131"><ele>28.0</ele><time>2026-04-24T09:30:24.999Z</time></trkpt><trkpt lat="41.05526176364238" lon="14.260595571047007"><ele>28.333333333333332</ele><time>2026-04-24T09:30:26.999Z</time></trkpt><trkpt lat="41.05526593988037" lon="14.260714988687242"><ele>28.666666666666664</ele><time>2026-04-24T09:30:28.999Z</time></trkpt><trkpt lat="41.05525978479336" lon="14.260847359625698"><ele>29.0</ele><time>2026-04-24T09:30:31.999Z</time></trkpt><trkpt lat="41.05526283613839" lon="14.260938160340316"><ele>29.0</ele><time>2026-04-24T09:30:35.999Z</time></trkpt><trkpt lat="41.055317348114464" lon="14.260998910235283"><ele>29.0</ele><time>2026-04-24T09:30:47.999Z</time></trkpt><trkpt lat="41.05527652895442" lon="14.260903599948202"><ele>29.0</ele><time>2026-04-24T09:30:56.999Z</time></trkpt><trkpt lat="41.05525922833395" lon="14.26076485961098"><ele>29.0</ele><time>2026-04-24T09:31:08.999Z</time></trkpt><trkpt lat="41.055256117754574" lon="14.260614837802875"><ele>29.0</ele><time>2026-04-24T09:31:10.999Z</time></trkpt><trkpt lat="41.05526918199902" lon="14.260438379688157"><ele>29.000000000000004</ele><time>2026-04-24T09:31:12.999Z</time></trkpt><trkpt lat="41.05526895257595" lon="14.260350685514219"><ele>29.0</ele><time>2026-04-24T09:31:13.999Z</time></trkpt><trkpt lat="41.055267570225816" lon="14.260236764426772"><ele>29.000000000000004</ele><time>2026-04-24T09:31:14.999Z</time></trkpt><trkpt lat="41.055267481257395" lon="14.260141179370896"><ele>29.000000000000004</ele><time>2026-04-24T09:31:15.999Z</time></trkpt><trkpt lat="41.05526051501739" lon="14.26004827205645"><ele>29.0</ele><time>2026-04-24T09:31:16.999Z</time></trkpt><trkpt lat="41.05525958973943" lon="14.259949308151477"><ele>29.000000000000004</ele><time>2026-04-24T09:31:17.999Z</time></trkpt><trkpt lat="41.05525009008669" lon="14.259860128877214"><ele>29.000000000000004</ele><time>2026-04-24T09:31:18.999Z</time></trkpt><trkpt lat="41.05524088844971" lon="14.259649765288405"><ele>28.6</ele><time>2026-04-24T09:31:20.999Z</time></trkpt><trkpt lat="41.05525370799051" lon="14.259522572513276"><ele>28.2</ele><time>2026-04-24T09:31:22.999Z</time></trkpt><trkpt lat="41.055240224224484" lon="14.259354149108347"><ele>27.800000000000004</ele><time>2026-04-24T09:31:24.999Z</time></trkpt><trkpt lat="41.05524223014679" lon="14.259257672608287"><ele>27.400000000000002</ele><time>2026-04-24T09:31:25.999Z</time></trkpt><trkpt lat="41.05523425788389" lon="14.25909516275313"><ele>27.0</ele><time>2026-04-24T09:31:27.999Z</time></trkpt><trkpt lat="41.05524100459573" lon="14.258903384147837"><ele>27.0</ele><time>2026-04-24T09:31:29.999Z</time></trkpt><trkpt lat="41.055242929839295" lon="14.258791126277432"><ele>27.0</ele><time>2026-04-24T09:31:30.999Z</time></trkpt><trkpt lat="41.055242124036496" lon="14.258627816608449"><ele>27.0</ele><time>2026-04-24T09:31:32.999Z</time></trkpt><trkpt lat="41.05524754556176" lon="14.258530509436737"><ele>27.0</ele><time>2026-04-24T09:31:34Z</time></trkpt><trkpt lat="41.05524059453286" lon="14.258426194966068"><ele>27.0</ele><time>2026-04-24T09:31:35Z</time></trkpt><trkpt lat="41.05523853006683" lon="14.258325828124455"><ele>27.0</ele><time>2026-04-24T09:31:36Z</time></trkpt><trkpt lat="41.05523603034405" lon="14.258227253204874"><ele>27.0</ele><time>2026-04-24T09:31:37Z</time></trkpt><trkpt lat="41.055228117362894" lon="14.258126847467157"><ele>27.0</ele><time>2026-04-24T09:31:38Z</time></trkpt><trkpt lat="41.05522431593268" lon="14.258041561710435"><ele>27.0</ele><time>2026-04-24T09:31:39Z</time></trkpt><trkpt lat="41.05523462338041" lon="14.257901611744932"><ele>27.0</ele><time>2026-04-24T09:31:41Z</time></trkpt><trkpt lat="41.05522945799584" lon="14.257739776949547"><ele>27.0</ele><time>2026-04-24T09:31:43Z</time></trkpt><trkpt lat="41.05522286421786" lon="14.257634189402452"><ele>27.0</ele><time>2026-04-24T09:31:45Z</time></trkpt><trkpt lat="41.05523877245767" lon="14.257536252723392"><ele>27.0</ele><time>2026-04-24T09:31:48Z</time></trkpt><trkpt lat="41.05523606281701" lon="14.257447566769018"><ele>27.0</ele><time>2026-04-24T09:31:50Z</time></trkpt><trkpt lat="41.055263196237746" lon="14.257367694939923"><ele>27.0</ele><time>2026-04-24T09:31:52Z</time></trkpt><trkpt lat="41.05527515929863" lon="14.257188286285709"><ele>27.0</ele><time>2026-04-24T09:31:54Z</time></trkpt><trkpt lat="41.05527635472865" lon="14.25707794238548"><ele>27.0</ele><time>2026-04-24T09:31:55Z</time></trkpt><trkpt lat="41.05529458265994" lon="14.256983650856471"><ele>27.0</ele><time>2026-04-24T09:31:56Z</time></trkpt><trkpt lat="41.05530430517502" lon="14.256889616141061"><ele>27.0</ele><time>2026-04-24T09:31:57Z</time></trkpt><trkpt lat="41.05531325481695" lon="14.256792953881744"><ele>27.000000000000004</ele><time>2026-04-24T09:31:58Z</time></trkpt><trkpt lat="41.055324110858365" lon="14.256684731974506"><ele>27.000000000000004</ele><time>2026-04-24T09:31:59Z</time></trkpt><trkpt lat="41.055320014647386" lon="14.256567667720589"><ele>27.0</ele><time>2026-04-24T09:32:00Z</time></trkpt><trkpt lat="41.055340220732965" lon="14.256397661401671"><ele>27.0</ele><time>2026-04-24T09:32:02Z</time></trkpt><trkpt lat="41.05535849890194" lon="14.256295392593819"><ele>27.0</ele><time>2026-04-24T09:32:03Z</time></trkpt><trkpt lat="41.05534771423643" lon="14.256176783150604"><ele>27.0</ele><time>2026-04-24T09:32:04Z</time></trkpt><trkpt lat="41.055357322396475" lon="14.255875774109226"><ele>27.0</ele><time>2026-04-24T09:32:06Z</time></trkpt><trkpt lat="41.05535872682333" lon="14.25571236529322"><ele>27.0</ele><time>2026-04-24T09:32:07Z</time></trkpt><trkpt lat="41.055357312931356" lon="14.25555930949013"><ele>27.0</ele><time>2026-04-24T09:32:08Z</time></trkpt><trkpt lat="41.055347120796206" lon="14.255394968270359"><ele>27.000000000000004</ele><time>2026-04-24T09:32:09Z</time></trkpt><trkpt lat="41.05533501215688" lon="14.255238894963894"><ele>27.000000000000004</ele><time>2026-04-24T09:32:10Z</time></trkpt><trkpt lat="41.05531765003315" lon="14.255098285504259"><ele>27.0</ele><time>2026-04-24T09:32:11Z</time></trkpt><trkpt lat="41.055309001462454" lon="14.254983174413974"><ele>27.0</ele><time>2026-04-24T09:32:12Z</time></trkpt><trkpt lat="41.055298634877296" lon="14.254891331017285"><ele>27.0</ele><time>2026-04-24T09:32:13Z</time></trkpt><trkpt lat="41.05529460317668" lon="14.25478933438768"><ele>27.000000000000004</ele><time>2026-04-24T09:32:15Z</time></trkpt><trkpt lat="41.05533691485976" lon="14.25469317394504"><ele>27.000000000000004</ele><time>2026-04-24T09:33:37.999Z</time></trkpt><trkpt lat="41.055465763673695" lon="14.254709476934266"><ele>27.0</ele><time>2026-04-24T09:33:39.999Z</time></trkpt><trkpt lat="41.05555656699492" lon="14.25467874557897"><ele>27.0</ele><time>2026-04-24T09:33:41.999Z</time></trkpt><trkpt lat="41.05570022069501" lon="14.254621941853204"><ele>27.0</ele><time>2026-04-24T09:33:43.999Z</time></trkpt><trkpt lat="41.05578444490552" lon="14.254604071714965"><ele>27.000000000000004</ele><time>2026-04-24T09:33:44.999Z</time></trkpt><trkpt lat="41.05589236115843" lon="14.254618953142787"><ele>27.000000000000004</ele><time>2026-04-24T09:33:45.999Z</time></trkpt><trkpt lat="41.056003767860446" lon="14.254629334699084"><ele>27.0</ele><time>2026-04-24T09:33:46.999Z</time></trkpt><trkpt lat="41.05611344706667" lon="14.254631916694219"><ele>27.0</ele><time>2026-04-24T09:33:47.999Z</time></trkpt><trkpt lat="41.05622643201158" lon="14.254649852725894"><ele>27.0</ele><time>2026-04-24T09:33:48.999Z</time></trkpt><trkpt lat="41.05634674107026" lon="14.254673521592242"><ele>27.0</ele><time>2026-04-24T09:33:49.999Z</time></trkpt><trkpt lat="41.05647431833904" lon="14.25469870411233"><ele>27.0</ele><time>2026-04-24T09:33:50.999Z</time></trkpt><trkpt lat="41.05660610088481" lon="14.25472953206799"><ele>27.0</ele><time>2026-04-24T09:33:51.999Z</time></trkpt><trkpt lat="41.05673782024982" lon="14.254761579614591"><ele>26.75</ele><time>2026-04-24T09:33:52.999Z</time></trkpt><trkpt lat="41.056871560168744" lon="14.254811898054646"><ele>26.5</ele><time>2026-04-24T09:33:53.999Z</time></trkpt><trkpt lat="41.0570078410011" lon="14.254852274664302"><ele>26.25</ele><time>2026-04-24T09:33:54.999Z</time></trkpt><trkpt lat="41.0571420707247" lon="14.2548930813336"><ele>26.0</ele><time>2026-04-24T09:33:55.999Z</time></trkpt><trkpt lat="41.05727145646265" lon="14.254934174364317"><ele>26.0</ele><time>2026-04-24T09:33:56.999Z</time></trkpt><trkpt lat="41.05739416597859" lon="14.254982828246588"><ele>26.0</ele><time>2026-04-24T09:33:57.999Z</time></trkpt><trkpt lat="41.05751634674441" lon="14.255037609468431"><ele>26.0</ele><time>2026-04-24T09:33:58.999Z</time></trkpt><trkpt lat="41.05761045470367" lon="14.255099168719433"><ele>26.0</ele><time>2026-04-24T09:33:59.999Z</time></trkpt><trkpt lat="41.057719344925125" lon="14.255147103638418"><ele>26.0</ele><time>2026-04-24T09:34:00.999Z</time></trkpt><trkpt lat="41.057827955300624" lon="14.255193057608748"><ele>26.0</ele><time>2026-04-24T09:34:01.999Z</time></trkpt><trkpt lat="41.05792891617894" lon="14.255233945435352"><ele>26.0</ele><time>2026-04-24T09:34:02.999Z</time></trkpt><trkpt lat="41.0580309631691" lon="14.255255778718425"><ele>26.0</ele><time>2026-04-24T09:34:03.999Z</time></trkpt><trkpt lat="41.05812149595319" lon="14.255275248102866"><ele>26.0</ele><time>2026-04-24T09:34:04.999Z</time></trkpt><trkpt lat="41.05819448299061" lon="14.255287086919013"><ele>26.0</ele><time>2026-04-24T09:34:05.999Z</time></trkpt><trkpt lat="41.05828247044913" lon="14.255300057315678"><ele>26.0</ele><time>2026-04-24T09:34:07.999Z</time></trkpt><trkpt lat="41.058379216686454" lon="14.255323594926756"><ele>26.0</ele><time>2026-04-24T09:34:10.999Z</time></trkpt><trkpt lat="41.058498538060384" lon="14.255324717822544"><ele>26.0</ele><time>2026-04-24T09:34:12.999Z</time></trkpt><trkpt lat="41.058574516340265" lon="14.255323087628057"><ele>26.0</ele><time>2026-04-24T09:34:13.999Z</time></trkpt><trkpt lat="41.058653182679414" lon="14.25531957906588"><ele>25.833333333333332</ele><time>2026-04-24T09:34:14.999Z</time></trkpt><trkpt lat="41.05873386641293" lon="14.255316483950569"><ele>25.666666666666664</ele><time>2026-04-24T09:34:15.999Z</time></trkpt><trkpt lat="41.05883058390833" lon="14.255314360755499"><ele>25.5</ele><time>2026-04-24T09:34:16.999Z</time></trkpt><trkpt lat="41.058923986586684" lon="14.255313233699459"><ele>25.333333333333336</ele><time>2026-04-24T09:34:17.999Z</time></trkpt><trkpt lat="41.05900233403662" lon="14.255312509842906"><ele>25.166666666666668</ele><time>2026-04-24T09:34:18.999Z</time></trkpt><trkpt lat="41.059076312950275" lon="14.255311873237055"><ele>25.0</ele><time>2026-04-24T09:34:19.999Z</time></trkpt><trkpt lat="41.05921691746499" lon="14.255322614914142"><ele>25.0</ele><time>2026-04-24T09:34:21.999Z</time></trkpt><trkpt lat="41.059324779849135" lon="14.255335042766134"><ele>25.0</ele><time>2026-04-24T09:34:23.999Z</time></trkpt><trkpt lat="41.0593917358274" lon="14.255350813462009"><ele>25.0</ele><time>2026-04-24T09:34:26.999Z</time></trkpt><trkpt lat="41.0592701405138" lon="14.255354344008515"><ele>25.0</ele><time>2026-04-24T09:34:38.999Z</time></trkpt><trkpt lat="41.0591830218545" lon="14.255338821609735"><ele>25.0</ele><time>2026-04-24T09:34:39.999Z</time></trkpt><trkpt lat="41.05909284610953" lon="14.255323414717859"><ele>25.0</ele><time>2026-04-24T09:34:40.999Z</time></trkpt><trkpt lat="41.0590031186594" lon="14.255316118713692"><ele>25.0</ele><time>2026-04-24T09:34:41.999Z</time></trkpt><trkpt lat="41.058901009314496" lon="14.255312768255278"><ele>25.0</ele><time>2026-04-24T09:34:42.999Z</time></trkpt><trkpt lat="41.05879854362319" lon="14.255318023832935"><ele>25.0</ele><time>2026-04-24T09:34:43.999Z</time></trkpt><trkpt lat="41.058699426921564" lon="14.255316824064357"><ele>25.0</ele><time>2026-04-24T09:34:44.999Z</time></trkpt><trkpt lat="41.05859969418347" lon="14.25531647284724"><ele>25.000000000000004</ele><time>2026-04-24T09:34:45.999Z</time></trkpt><trkpt lat="41.05851467401962" lon="14.255315136028287"><ele>25.0</ele><time>2026-04-24T09:34:46.999Z</time></trkpt><trkpt lat="41.05843922376551" lon="14.255311379732689"><ele>25.0</ele><time>2026-04-24T09:34:47.999Z</time></trkpt><trkpt lat="41.05833973679619" lon="14.25530146041489"><ele>25.0</ele><time>2026-04-24T09:34:49.999Z</time></trkpt><trkpt lat="41.05829031649307" lon="14.255234693483816"><ele>25.000000000000004</ele><time>2026-04-24T09:34:51.999Z</time></trkpt><trkpt lat="41.05828982219024" lon="14.255091078278316"><ele>25.0</ele><time>2026-04-24T09:34:53.999Z</time></trkpt><trkpt lat="41.05830332955584" lon="14.255004220734959"><ele>25.000000000000004</ele><time>2026-04-24T09:34:54.999Z</time></trkpt><trkpt lat="41.05830936774431" lon="14.254904859838728"><ele>25.0</ele><time>2026-04-24T09:34:55.999Z</time></trkpt><trkpt lat="41.05831141936189" lon="14.254805626084243"><ele>25.0</ele><time>2026-04-24T09:34:56.999Z</time></trkpt><trkpt lat="41.05831462852766" lon="14.254711279223429"><ele>25.0</ele><time>2026-04-24T09:34:57.999Z</time></trkpt><trkpt lat="41.05831529416666" lon="14.254605813151482"><ele>25.000000000000004</ele><time>2026-04-24T09:34:58.999Z</time></trkpt><trkpt lat="41.058310985292565" lon="14.254483574957996"><ele>25.0</ele><time>2026-04-24T09:34:59.999Z</time></trkpt><trkpt lat="41.058293779017596" lon="14.254343578423008"><ele>25.0</ele><time>2026-04-24T09:35:00.999Z</time></trkpt><trkpt lat="41.058283302458506" lon="14.254203364866852"><ele>25.0</ele><time>2026-04-24T09:35:01.999Z</time></trkpt><trkpt lat="41.058269207586996" lon="14.254058799363673"><ele>25.0</ele><time>2026-04-24T09:35:02.999Z</time></trkpt><trkpt lat="41.05825388765836" lon="14.2539111966303"><ele>25.0</ele><time>2026-04-24T09:35:03.999Z</time></trkpt><trkpt lat="41.05824570291505" lon="14.253758054397448"><ele>25.0</ele><time>2026-04-24T09:35:04.999Z</time></trkpt><trkpt lat="41.058223565655986" lon="14.253595660693817"><ele>25.25</ele><time>2026-04-24T09:35:05.999Z</time></trkpt><trkpt lat="41.058197973787394" lon="14.25343662777293"><ele>25.5</ele><time>2026-04-24T09:35:06.999Z</time></trkpt><trkpt lat="41.058184337339306" lon="14.253282141629224"><ele>25.75</ele><time>2026-04-24T09:35:07.999Z</time></trkpt><trkpt lat="41.05817704891251" lon="14.25311890987725"><ele>26.0</ele><time>2026-04-24T09:35:08.999Z</time></trkpt><trkpt lat="41.058173783774535" lon="14.252954002978642"><ele>26.0</ele><time>2026-04-24T09:35:09.999Z</time></trkpt><trkpt lat="41.0581641817144" lon="14.252778374682958"><ele>26.0</ele><time>2026-04-24T09:35:10.999Z</time></trkpt><trkpt lat="41.05816103961996" lon="14.252607363614075"><ele>26.0</ele><time>2026-04-24T09:35:11.999Z</time></trkpt><trkpt lat="41.05816011464076" lon="14.252456771068806"><ele>26.0</ele><time>2026-04-24T09:35:12.999Z</time></trkpt><trkpt lat="41.05816176024433" lon="14.252308558382373"><ele>26.4</ele><time>2026-04-24T09:35:13.999Z</time></trkpt><trkpt lat="41.05815374903928" lon="14.252166238707916"><ele>26.8</ele><time>2026-04-24T09:35:14.999Z</time></trkpt><trkpt lat="41.05816109628728" lon="14.252030164578914"><ele>27.199999999999996</ele><time>2026-04-24T09:35:15.999Z</time></trkpt><trkpt lat="41.058157444238894" lon="14.251932145271272"><ele>27.599999999999998</ele><time>2026-04-24T09:35:16.999Z</time></trkpt><trkpt lat="41.058160416354994" lon="14.251817152958264"><ele>28.0</ele><time>2026-04-24T09:35:17.999Z</time></trkpt><trkpt lat="41.05815903427805" lon="14.25171226240171"><ele>28.000000000000004</ele><time>2026-04-24T09:35:18.999Z</time></trkpt><trkpt lat="41.05816069876093" lon="14.251621291058292"><ele>28.0</ele><time>2026-04-24T09:35:19.999Z</time></trkpt><trkpt lat="41.058169355971295" lon="14.251527125455286"><ele>28.0</ele><time>2026-04-24T09:35:20.999Z</time></trkpt><trkpt lat="41.058184822937655" lon="14.251434851670316"><ele>28.0</ele><time>2026-04-24T09:35:21.999Z</time></trkpt><trkpt lat="41.05821772576149" lon="14.251312984350832"><ele>28.000000000000004</ele><time>2026-04-24T09:35:23.999Z</time></trkpt><trkpt lat="41.05826899538045" lon="14.251228773905794"><ele>28.0</ele><time>2026-04-24T09:35:25.999Z</time></trkpt><trkpt lat="41.058333584339735" lon="14.251234691563328"><ele>28.4</ele><time>2026-04-24T09:35:26.999Z</time></trkpt><trkpt lat="41.05838326244895" lon="14.251177718867924"><ele>28.799999999999997</ele><time>2026-04-24T09:35:27.999Z</time></trkpt><trkpt lat="41.05847130708944" lon="14.251095118006225"><ele>29.2</ele><time>2026-04-24T09:35:29.999Z</time></trkpt><trkpt lat="41.05852606278472" lon="14.250997109060078"><ele>29.6</ele><time>2026-04-24T09:35:31.999Z</time></trkpt><trkpt lat="41.05851908529714" lon="14.250865674847276"><ele>30.0</ele><time>2026-04-24T09:35:33.999Z</time></trkpt><trkpt lat="41.05846730070941" lon="14.25072023276837"><ele>30.0</ele><time>2026-04-24T09:35:35.999Z</time></trkpt><trkpt lat="41.05843457052434" lon="14.250637000067558"><ele>30.0</ele><time>2026-04-24T09:35:36.999Z</time></trkpt><trkpt lat="41.05840378361281" lon="14.250505766168388"><ele>30.0</ele><time>2026-04-24T09:35:38.999Z</time></trkpt><trkpt lat="41.058408255671324" lon="14.250381404283498"><ele>30.0</ele><time>2026-04-24T09:35:40.999Z</time></trkpt><trkpt lat="41.05843005187945" lon="14.250216450535735"><ele>30.0</ele><time>2026-04-24T09:35:42.999Z</time></trkpt><trkpt lat="41.05844466375921" lon="14.250103148084124"><ele>29.666666666666668</ele><time>2026-04-24T09:35:43.999Z</time></trkpt><trkpt lat="41.05845745253245" lon="14.249992762896108"><ele>29.333333333333336</ele><time>2026-04-24T09:35:44.999Z</time></trkpt><trkpt lat="41.0584660320583" lon="14.249901543688399"><ele>29.0</ele><time>2026-04-24T09:35:46Z</time></trkpt><trkpt lat="41.058473667868064" lon="14.24979981934402"><ele>28.666666666666668</ele><time>2026-04-24T09:35:48Z</time></trkpt><trkpt lat="41.05845933752535" lon="14.249695469730453"><ele>28.333333333333336</ele><time>2026-04-24T09:38:19.999Z</time></trkpt><trkpt lat="41.05847182454274" lon="14.249591725348276"><ele>28.0</ele><time>2026-04-24T09:38:29.999Z</time></trkpt><trkpt lat="41.0584940021203" lon="14.249484550240373"><ele>27.4</ele><time>2026-04-24T09:38:32.999Z</time></trkpt><trkpt lat="41.05838094162118" lon="14.249445299071885"><ele>26.799999999999997</ele><time>2026-04-24T09:38:33.999Z</time></trkpt><trkpt lat="41.05827845428857" lon="14.249399917237113"><ele>26.2</ele><time>2026-04-24T09:38:35.999Z</time></trkpt><trkpt lat="41.05818502881875" lon="14.249352336830096"><ele>25.6</ele><time>2026-04-24T09:38:36.999Z</time></trkpt><trkpt lat="41.05809757149438" lon="14.249281088967248"><ele>25.0</ele><time>2026-04-24T09:38:37.999Z</time></trkpt><trkpt lat="41.05799741994745" lon="14.249221637331289"><ele>25.0</ele><time>2026-04-24T09:38:38.999Z</time></trkpt><trkpt lat="41.05789374356214" lon="14.249142896733844"><ele>25.0</ele><time>2026-04-24T09:38:39.999Z</time></trkpt><trkpt lat="41.05778645111014" lon="14.249067511611452"><ele>25.0</ele><time>2026-04-24T09:38:40.999Z</time></trkpt><trkpt lat="41.05768144898395" lon="14.248993586465582"><ele>25.0</ele><time>2026-04-24T09:38:41.999Z</time></trkpt><trkpt lat="41.05756453541385" lon="14.24891646296239"><ele>24.75</ele><time>2026-04-24T09:38:42.999Z</time></trkpt><trkpt lat="41.05743401753958" lon="14.248840233862959"><ele>24.5</ele><time>2026-04-24T09:38:43.999Z</time></trkpt><trkpt lat="41.05729931759265" lon="14.248774162066693"><ele>24.25</ele><time>2026-04-24T09:38:44.999Z</time></trkpt><trkpt lat="41.057175894346905" lon="14.248686326193837"><ele>24.0</ele><time>2026-04-24T09:38:45.999Z</time></trkpt><trkpt lat="41.057052977501726" lon="14.248576456641889"><ele>24.0</ele><time>2026-04-24T09:38:46.999Z</time></trkpt><trkpt lat="41.05691161950507" lon="14.248483754979343"><ele>24.0</ele><time>2026-04-24T09:38:47.999Z</time></trkpt><trkpt lat="41.05677244634914" lon="14.248391071222782"><ele>24.0</ele><time>2026-04-24T09:38:48.999Z</time></trkpt><trkpt lat="41.056627329887355" lon="14.248291881954609"><ele>24.0</ele><time>2026-04-24T09:38:49.999Z</time></trkpt><trkpt lat="41.056477193954805" lon="14.248190944946119"><ele>24.0</ele><time>2026-04-24T09:38:50.999Z</time></trkpt><trkpt lat="41.05632420488332" lon="14.248091053010093"><ele>24.0</ele><time>2026-04-24T09:38:51.999Z</time></trkpt><trkpt lat="41.05616824188229" lon="14.24798126299129"><ele>24.333333333333336</ele><time>2026-04-24T09:38:52.999Z</time></trkpt><trkpt lat="41.0560089514764" lon="14.247865082785024"><ele>24.666666666666668</ele><time>2026-04-24T09:38:53.999Z</time></trkpt><trkpt lat="41.055850597229785" lon="14.247753985322731"><ele>25.0</ele><time>2026-04-24T09:38:54.999Z</time></trkpt><trkpt lat="41.0556921926286" lon="14.247644262549223"><ele>24.333333333333336</ele><time>2026-04-24T09:38:55.999Z</time></trkpt><trkpt lat="41.05553256920779" lon="14.247535543369775"><ele>23.666666666666668</ele><time>2026-04-24T09:38:56.999Z</time></trkpt><trkpt lat="41.05536996565818" lon="14.247427098085613"><ele>23.0</ele><time>2026-04-24T09:38:57.999Z</time></trkpt><trkpt lat="41.05521131842069" lon="14.24730263753572"><ele>22.666666666666668</ele><time>2026-04-24T09:38:58.999Z</time></trkpt><trkpt lat="41.05504613490809" lon="14.247181952628262"><ele>22.333333333333332</ele><time>2026-04-24T09:38:59.999Z</time></trkpt><trkpt lat="41.05487625789341" lon="14.2470718801397"><ele>22.0</ele><time>2026-04-24T09:39:00.999Z</time></trkpt><trkpt lat="41.054708389063116" lon="14.246959085380691"><ele>22.666666666666664</ele><time>2026-04-24T09:39:01.999Z</time></trkpt><trkpt lat="41.05453676546794" lon="14.246847340340386"><ele>23.333333333333332</ele><time>2026-04-24T09:39:02.999Z</time></trkpt><trkpt lat="41.054363111971654" lon="14.246738815781189"><ele>24.0</ele><time>2026-04-24T09:39:03.999Z</time></trkpt><trkpt lat="41.054192641159794" lon="14.246625405264597"><ele>24.0</ele><time>2026-04-24T09:39:04.999Z</time></trkpt><trkpt lat="41.054025497505606" lon="14.246509614718727"><ele>24.0</ele><time>2026-04-24T09:39:05.999Z</time></trkpt><trkpt lat="41.05385220746147" lon="14.246391865717229"><ele>24.0</ele><time>2026-04-24T09:39:06.999Z</time></trkpt><trkpt lat="41.053679806292905" lon="14.24627347495593"><ele>23.666666666666668</ele><time>2026-04-24T09:39:07.999Z</time></trkpt><trkpt lat="41.05350624030736" lon="14.24616023462974"><ele>23.333333333333336</ele><time>2026-04-24T09:39:08.999Z</time></trkpt><trkpt lat="41.05333477196922" lon="14.246042213103284"><ele>23.0</ele><time>2026-04-24T09:39:09.999Z</time></trkpt><trkpt lat="41.0531607621919" lon="14.245925510964916"><ele>23.0</ele><time>2026-04-24T09:39:10.999Z</time></trkpt><trkpt lat="41.05298670227754" lon="14.245809446513116"><ele>23.0</ele><time>2026-04-24T09:39:11.999Z</time></trkpt><trkpt lat="41.052812452506714" lon="14.245696226530255"><ele>23.0</ele><time>2026-04-24T09:39:12.999Z</time></trkpt><trkpt lat="41.05263915894237" lon="14.245574658728085"><ele>23.0</ele><time>2026-04-24T09:39:13.999Z</time></trkpt><trkpt lat="41.05245350498621" lon="14.245442556827872"><ele>23.0</ele><time>2026-04-24T09:39:14.999Z</time></trkpt><trkpt lat="41.05226974238045" lon="14.245319065266038"><ele>23.0</ele><time>2026-04-24T09:39:15.999Z</time></trkpt><trkpt lat="41.05211289347179" lon="14.245211536393827"><ele>23.0</ele><time>2026-04-24T09:39:16.999Z</time></trkpt><trkpt lat="41.05193928917932" lon="14.245092331631925"><ele>23.0</ele><time>2026-04-24T09:39:17.999Z</time></trkpt><trkpt lat="41.051764914418094" lon="14.24497869281053"><ele>23.0</ele><time>2026-04-24T09:39:18.999Z</time></trkpt><trkpt lat="41.05158381385934" lon="14.244856823374926"><ele>22.333333333333336</ele><time>2026-04-24T09:39:19.999Z</time></trkpt><trkpt lat="41.0514049409584" lon="14.244740638828024"><ele>21.666666666666668</ele><time>2026-04-24T09:39:20.999Z</time></trkpt><trkpt lat="41.05123227160891" lon="14.24461539859457"><ele>21.0</ele><time>2026-04-24T09:39:21.999Z</time></trkpt><trkpt lat="41.051055815173626" lon="14.244493246186085"><ele>21.0</ele><time>2026-04-24T09:39:22.999Z</time></trkpt><trkpt lat="41.05088048604891" lon="14.244370881410651"><ele>21.0</ele><time>2026-04-24T09:39:23.999Z</time></trkpt><trkpt lat="41.05070768659064" lon="14.244250617736686"><ele>21.0</ele><time>2026-04-24T09:39:24.999Z</time></trkpt><trkpt lat="41.050533662712674" lon="14.244132810902569"><ele>21.333333333333332</ele><time>2026-04-24T09:39:25.999Z</time></trkpt><trkpt lat="41.05035768372437" lon="14.244015122708621"><ele>21.666666666666664</ele><time>2026-04-24T09:39:26.999Z</time></trkpt><trkpt lat="41.05018449877026" lon="14.243893034176661"><ele>22.0</ele><time>2026-04-24T09:39:27.999Z</time></trkpt><trkpt lat="41.050015732365985" lon="14.243767771926105"><ele>22.333333333333332</ele><time>2026-04-24T09:39:28.999Z</time></trkpt><trkpt lat="41.04984237089949" lon="14.243649156434563"><ele>22.666666666666668</ele><time>2026-04-24T09:39:29.999Z</time></trkpt><trkpt lat="41.04967482756538" lon="14.243531427040926"><ele>23.0</ele><time>2026-04-24T09:39:30.999Z</time></trkpt><trkpt lat="41.04949675689839" lon="14.243411501794782"><ele>23.0</ele><time>2026-04-24T09:39:31.999Z</time></trkpt><trkpt lat="41.04932699167478" lon="14.243289154334073"><ele>23.0</ele><time>2026-04-24T09:39:32.999Z</time></trkpt><trkpt lat="41.04915437912977" lon="14.243159209894458"><ele>23.0</ele><time>2026-04-24T09:39:33.999Z</time></trkpt><trkpt lat="41.048978384191756" lon="14.243038311674951"><ele>22.0</ele><time>2026-04-24T09:39:34.999Z</time></trkpt><trkpt lat="41.048804501430766" lon="14.242904514647963"><ele>21.0</ele><time>2026-04-24T09:39:35.999Z</time></trkpt><trkpt lat="41.04862252493456" lon="14.242787784886032"><ele>20.0</ele><time>2026-04-24T09:39:36.999Z</time></trkpt><trkpt lat="41.04844835576443" lon="14.24266978054348"><ele>20.333333333333336</ele><time>2026-04-24T09:39:37.999Z</time></trkpt><trkpt lat="41.04826293166077" lon="14.242547247115333"><ele>20.666666666666668</ele><time>2026-04-24T09:39:38.999Z</time></trkpt><trkpt lat="41.04808394042189" lon="14.242428798687264"><ele>21.0</ele><time>2026-04-24T09:39:39.999Z</time></trkpt><trkpt lat="41.04790942109429" lon="14.242312872944353"><ele>21.0</ele><time>2026-04-24T09:39:40.999Z</time></trkpt><trkpt lat="41.04773911381264" lon="14.242192878226243"><ele>21.0</ele><time>2026-04-24T09:39:41.999Z</time></trkpt><trkpt lat="41.04756011154727" lon="14.242074168492378"><ele>21.0</ele><time>2026-04-24T09:39:42.999Z</time></trkpt><trkpt lat="41.04738442996769" lon="14.241959937237112"><ele>20.666666666666668</ele><time>2026-04-24T09:39:43.999Z</time></trkpt><trkpt lat="41.04723579965236" lon="14.241845794741952"><ele>20.333333333333336</ele><time>2026-04-24T09:39:44.999Z</time></trkpt><trkpt lat="41.04707487231048" lon="14.241728087357014"><ele>20.0</ele><time>2026-04-24T09:39:45.999Z</time></trkpt><trkpt lat="41.04692763123353" lon="14.241621886176658"><ele>20.0</ele><time>2026-04-24T09:39:46.999Z</time></trkpt><trkpt lat="41.046787394672755" lon="14.241522571599731"><ele>20.0</ele><time>2026-04-24T09:39:47.999Z</time></trkpt><trkpt lat="41.046651232320606" lon="14.241421783805992"><ele>20.0</ele><time>2026-04-24T09:39:48.999Z</time></trkpt><trkpt lat="41.04651638292937" lon="14.24132360813795"><ele>19.75</ele><time>2026-04-24T09:39:49.999Z</time></trkpt><trkpt lat="41.04638790277228" lon="14.24123649570165"><ele>19.5</ele><time>2026-04-24T09:39:50.999Z</time></trkpt><trkpt lat="41.04627079560671" lon="14.241150301286348"><ele>19.25</ele><time>2026-04-24T09:39:51.999Z</time></trkpt><trkpt lat="41.04615251188004" lon="14.241071154317167"><ele>19.0</ele><time>2026-04-24T09:39:52.999Z</time></trkpt><trkpt lat="41.0460399393569" lon="14.24099494952913"><ele>19.0</ele><time>2026-04-24T09:39:53.999Z</time></trkpt><trkpt lat="41.045929356233444" lon="14.240901975410358"><ele>19.0</ele><time>2026-04-24T09:39:54.999Z</time></trkpt><trkpt lat="41.0458174151108" lon="14.24082620644885"><ele>19.0</ele><time>2026-04-24T09:39:55.999Z</time></trkpt><trkpt lat="41.04571280600664" lon="14.240748048648996"><ele>19.0</ele><time>2026-04-24T09:39:56.999Z</time></trkpt><trkpt lat="41.04560859311038" lon="14.240669408851494"><ele>18.75</ele><time>2026-04-24T09:39:57.999Z</time></trkpt><trkpt lat="41.04549330103273" lon="14.240600912407217"><ele>18.5</ele><time>2026-04-24T09:39:58.999Z</time></trkpt><trkpt lat="41.04537615798721" lon="14.240514643767334"><ele>18.25</ele><time>2026-04-24T09:39:59.999Z</time></trkpt><trkpt lat="41.045258224302856" lon="14.240426925633683"><ele>18.0</ele><time>2026-04-24T09:40:00.999Z</time></trkpt><trkpt lat="41.045138081974" lon="14.240363292924936"><ele>18.0</ele><time>2026-04-24T09:40:01.999Z</time></trkpt><trkpt lat="41.04503109880579" lon="14.240268351502548"><ele>18.0</ele><time>2026-04-24T09:40:02.999Z</time></trkpt><trkpt lat="41.04494231347995" lon="14.240168269298094"><ele>18.0</ele><time>2026-04-24T09:40:03.999Z</time></trkpt><trkpt lat="41.04484813920336" lon="14.240092286196717"><ele>18.0</ele><time>2026-04-24T09:40:04.999Z</time></trkpt><trkpt lat="41.0446776276404" lon="14.239968681466664"><ele>18.0</ele><time>2026-04-24T09:40:06.999Z</time></trkpt><trkpt lat="41.04461222876917" lon="14.239907927483339"><ele>18.0</ele><time>2026-04-24T09:40:07.999Z</time></trkpt><trkpt lat="41.04453751949093" lon="14.239825592636135"><ele>18.0</ele><time>2026-04-24T09:40:09.999Z</time></trkpt><trkpt lat="41.04449424143215" lon="14.23972970568619"><ele>18.0</ele><time>2026-04-24T09:40:11.999Z</time></trkpt><trkpt lat="41.044480239119906" lon="14.23964381987398"><ele>18.0</ele><time>2026-04-24T09:40:12.999Z</time></trkpt><trkpt lat="41.044494420702414" lon="14.239531612991808"><ele>18.0</ele><time>2026-04-24T09:40:15.02Z</time></trkpt><trkpt lat="41.0443696106796" lon="14.239284947319995"><ele>18.0</ele><time>2026-04-24T09:40:16.014Z</time></trkpt><trkpt lat="41.04421012676307" lon="14.239417183774181"><ele>18.0</ele><time>2026-04-24T09:40:17.019Z</time></trkpt><trkpt lat="41.04428770039205" lon="14.238704801236064"><ele>17.0</ele><time>2026-04-24T09:40:27.381Z</time></trkpt><trkpt lat="41.04201676118656" lon="14.238331471676945"><ele>17.0</ele><time>2026-04-24T09:40:44.999Z</time></trkpt><trkpt lat="41.041951638503946" lon="14.238173532678035"><ele>17.0</ele><time>2026-04-24T09:40:45.999Z</time></trkpt><trkpt lat="41.04185840289613" lon="14.238109500290323"><ele>17.0</ele><time>2026-04-24T09:40:46.999Z</time></trkpt><trkpt lat="41.04175642464774" lon="14.238039212783093"><ele>17.0</ele><time>2026-04-24T09:40:48.017Z</time></trkpt><trkpt lat="41.03693365895243" lon="14.23488027051838"><ele>15.0</ele><time>2026-04-24T09:41:29.076Z</time></trkpt><trkpt lat="41.03641181256719" lon="14.23441979104116"><ele>15.0</ele><time>2026-04-24T09:41:42.999Z</time></trkpt><trkpt lat="41.03621857150484" lon="14.23438188312214"><ele>15.0</ele><time>2026-04-24T09:41:43.999Z</time></trkpt><trkpt lat="41.03628783571401" lon="14.2343497351024"><ele>15.0</ele><time>2026-04-24T09:41:44.999Z</time></trkpt><trkpt lat="41.03618304691267" lon="14.234277543331794"><ele>15.0</ele><time>2026-04-24T09:41:45.999Z</time></trkpt><trkpt lat="41.036089106749195" lon="14.2341946510731"><ele>15.0</ele><time>2026-04-24T09:41:46.999Z</time></trkpt><trkpt lat="41.03597787650297" lon="14.234107863459654"><ele>15.0</ele><time>2026-04-24T09:41:47.999Z</time></trkpt><trkpt lat="41.03586003006549" lon="14.234017061905437"><ele>15.0</ele><time>2026-04-24T09:41:48.999Z</time></trkpt><trkpt lat="41.03572964341128" lon="14.233931430904287"><ele>15.0</ele><time>2026-04-24T09:41:49.999Z</time></trkpt><trkpt lat="41.03560947768573" lon="14.233853222401686"><ele>15.75</ele><time>2026-04-24T09:41:50.999Z</time></trkpt><trkpt lat="41.03550605300113" lon="14.23376645594742"><ele>16.5</ele><time>2026-04-24T09:41:51.999Z</time></trkpt><trkpt lat="41.03533964791193" lon="14.233656964049462"><ele>17.25</ele><time>2026-04-24T09:41:52.999Z</time></trkpt><trkpt lat="41.03524402173441" lon="14.233587432324983"><ele>18.0</ele><time>2026-04-24T09:41:53.999Z</time></trkpt><trkpt lat="41.03511607571979" lon="14.233509148831747"><ele>16.666666666666668</ele><time>2026-04-24T09:41:54.999Z</time></trkpt><trkpt lat="41.03496180313746" lon="14.233408366006232"><ele>15.333333333333334</ele><time>2026-04-24T09:41:55.999Z</time></trkpt><trkpt lat="41.034833457993095" lon="14.233333069272517"><ele>14.0</ele><time>2026-04-24T09:41:56.999Z</time></trkpt><trkpt lat="41.03470189062708" lon="14.233232445703784"><ele>15.333333333333334</ele><time>2026-04-24T09:41:57.999Z</time></trkpt><trkpt lat="41.03456547027587" lon="14.23313649013594"><ele>16.666666666666668</ele><time>2026-04-24T09:41:58.999Z</time></trkpt><trkpt lat="41.034425204925455" lon="14.233043858813605"><ele>18.0</ele><time>2026-04-24T09:41:59.999Z</time></trkpt><trkpt lat="41.03429607987142" lon="14.232935949000801"><ele>18.0</ele><time>2026-04-24T09:42:00.999Z</time></trkpt><trkpt lat="41.034153892039605" lon="14.23285055447022"><ele>18.0</ele><time>2026-04-24T09:42:01.999Z</time></trkpt><trkpt lat="41.03401882226655" lon="14.232759011032709"><ele>18.0</ele><time>2026-04-24T09:42:02.999Z</time></trkpt><trkpt lat="41.03389868472003" lon="14.232678771440293"><ele>18.0</ele><time>2026-04-24T09:42:04Z</time></trkpt><trkpt lat="41.03366460184114" lon="14.232519600647077"><ele>17.5</ele><time>2026-04-24T09:42:06Z</time></trkpt><trkpt lat="41.03355896834771" lon="14.232442926360516"><ele>17.0</ele><time>2026-04-24T09:42:07Z</time></trkpt><trkpt lat="41.033444981971805" lon="14.232359870522709"><ele>16.5</ele><time>2026-04-24T09:42:08Z</time></trkpt><trkpt lat="41.03332601418123" lon="14.232272578924007"><ele>16.0</ele><time>2026-04-24T09:42:09Z</time></trkpt><trkpt lat="41.03320875911539" lon="14.232192256799864"><ele>16.0</ele><time>2026-04-24T09:42:10Z</time></trkpt><trkpt lat="41.03308205342436" lon="14.232102293707216"><ele>16.0</ele><time>2026-04-24T09:42:11Z</time></trkpt><trkpt lat="41.0329537040666" lon="14.232010392721705"><ele>16.0</ele><time>2026-04-24T09:42:12Z</time></trkpt><trkpt lat="41.0328222407227" lon="14.231919557388881"><ele>16.0</ele><time>2026-04-24T09:42:13Z</time></trkpt><trkpt lat="41.03269096333263" lon="14.231832780930946"><ele>16.0</ele><time>2026-04-24T09:42:14Z</time></trkpt><trkpt lat="41.032563855669274" lon="14.231751630812123"><ele>16.0</ele><time>2026-04-24T09:42:15Z</time></trkpt><trkpt lat="41.032439549655614" lon="14.231671074559314"><ele>16.0</ele><time>2026-04-24T09:42:16Z</time></trkpt><trkpt lat="41.032320731834695" lon="14.231590624553405"><ele>16.0</ele><time>2026-04-24T09:42:17Z</time></trkpt><trkpt lat="41.03220510494647" lon="14.231509705539079"><ele>15.5</ele><time>2026-04-24T09:42:18Z</time></trkpt><trkpt lat="41.032089999107455" lon="14.231432109897305"><ele>15.0</ele><time>2026-04-24T09:42:19Z</time></trkpt><trkpt lat="41.0319749780029" lon="14.231374966102429"><ele>14.5</ele><time>2026-04-24T09:42:20Z</time></trkpt><trkpt lat="41.03185978532737" lon="14.231296964143908"><ele>14.0</ele><time>2026-04-24T09:42:21Z</time></trkpt><trkpt lat="41.03174774798574" lon="14.231216155783505"><ele>13.75</ele><time>2026-04-24T09:42:22Z</time></trkpt><trkpt lat="41.031630473530356" lon="14.23113849211613"><ele>13.5</ele><time>2026-04-24T09:42:23Z</time></trkpt><trkpt lat="41.03151645361479" lon="14.23106605071979"><ele>13.25</ele><time>2026-04-24T09:42:24Z</time></trkpt><trkpt lat="41.031406974088945" lon="14.231002510131386"><ele>13.0</ele><time>2026-04-24T09:42:25Z</time></trkpt><trkpt lat="41.03127729884191" lon="14.230924175795403"><ele>13.0</ele><time>2026-04-24T09:42:26Z</time></trkpt><trkpt lat="41.03114833879578" lon="14.230842452726055"><ele>13.0</ele><time>2026-04-24T09:42:27Z</time></trkpt><trkpt lat="41.03101511119047" lon="14.23075348380611"><ele>13.0</ele><time>2026-04-24T09:42:28Z</time></trkpt><trkpt lat="41.03088011105025" lon="14.23065539481422"><ele>13.0</ele><time>2026-04-24T09:42:29Z</time></trkpt><trkpt lat="41.03074525473555" lon="14.230547638034254"><ele>14.25</ele><time>2026-04-24T09:42:30Z</time></trkpt><trkpt lat="41.03060836048459" lon="14.230453270632095"><ele>15.5</ele><time>2026-04-24T09:42:31Z</time></trkpt><trkpt lat="41.0304744049583" lon="14.230360599179429"><ele>16.75</ele><time>2026-04-24T09:42:32Z</time></trkpt><trkpt lat="41.030374014906876" lon="14.23029117059886"><ele>18.0</ele><time>2026-04-24T09:42:33Z</time></trkpt><trkpt lat="41.03029469620045" lon="14.230236402279578"><ele>18.0</ele><time>2026-04-24T09:42:34Z</time></trkpt><trkpt lat="41.030204186764436" lon="14.230173906891542"><ele>18.0</ele><time>2026-04-24T09:42:35Z</time></trkpt><trkpt lat="41.03011506232811" lon="14.230112532522607"><ele>18.0</ele><time>2026-04-24T09:42:36Z</time></trkpt><trkpt lat="41.03003163065507" lon="14.230055264434393"><ele>18.0</ele><time>2026-04-24T09:42:37Z</time></trkpt><trkpt lat="41.029850412730454" lon="14.229936184876506"><ele>18.0</ele><time>2026-04-24T09:42:39Z</time></trkpt><trkpt lat="41.02976441834334" lon="14.229870671202896"><ele>18.0</ele><time>2026-04-24T09:42:40Z</time></trkpt><trkpt lat="41.02967540221272" lon="14.229811791200143"><ele>18.0</ele><time>2026-04-24T09:42:41Z</time></trkpt><trkpt lat="41.02958295744519" lon="14.22974973690734"><ele>18.0</ele><time>2026-04-24T09:42:42Z</time></trkpt><trkpt lat="41.02948574801475" lon="14.229684942356851"><ele>18.0</ele><time>2026-04-24T09:42:43Z</time></trkpt><trkpt lat="41.029384311660465" lon="14.229623487960174"><ele>17.25</ele><time>2026-04-24T09:42:44Z</time></trkpt><trkpt lat="41.02928833249065" lon="14.229536414364281"><ele>16.5</ele><time>2026-04-24T09:42:45Z</time></trkpt><trkpt lat="41.02918191168037" lon="14.229462953373224"><ele>15.75</ele><time>2026-04-24T09:42:46Z</time></trkpt><trkpt lat="41.02906625178986" lon="14.229382754300012"><ele>15.0</ele><time>2026-04-24T09:42:47Z</time></trkpt><trkpt lat="41.02895077273396" lon="14.229326608490066"><ele>15.0</ele><time>2026-04-24T09:42:48Z</time></trkpt><trkpt lat="41.02884770575033" lon="14.22924018365281"><ele>15.0</ele><time>2026-04-24T09:42:49Z</time></trkpt><trkpt lat="41.0287417799592" lon="14.229158143705863"><ele>15.0</ele><time>2026-04-24T09:42:50Z</time></trkpt><trkpt lat="41.02863267321158" lon="14.229079170736865"><ele>15.0</ele><time>2026-04-24T09:42:51Z</time></trkpt><trkpt lat="41.02852358211564" lon="14.228997607324699"><ele>14.75</ele><time>2026-04-24T09:42:52Z</time></trkpt><trkpt lat="41.02840771342403" lon="14.228918820480681"><ele>14.5</ele><time>2026-04-24T09:42:53Z</time></trkpt><trkpt lat="41.0282911151411" lon="14.228841871140544"><ele>14.25</ele><time>2026-04-24T09:42:54Z</time></trkpt><trkpt lat="41.02817510823099" lon="14.228762762685747"><ele>14.0</ele><time>2026-04-24T09:42:55Z</time></trkpt><trkpt lat="41.028059847233465" lon="14.228683396063435"><ele>14.75</ele><time>2026-04-24T09:42:56Z</time></trkpt><trkpt lat="41.027945546711884" lon="14.228602717261767"><ele>15.5</ele><time>2026-04-24T09:42:57Z</time></trkpt><trkpt lat="41.02783705344353" lon="14.228525650742192"><ele>16.25</ele><time>2026-04-24T09:42:58Z</time></trkpt><trkpt lat="41.027730517324294" lon="14.22845984316916"><ele>17.0</ele><time>2026-04-24T09:42:59Z</time></trkpt><trkpt lat="41.02762750482581" lon="14.22839921477681"><ele>17.0</ele><time>2026-04-24T09:43:00Z</time></trkpt><trkpt lat="41.02752875638274" lon="14.228329729443535"><ele>17.0</ele><time>2026-04-24T09:43:01Z</time></trkpt><trkpt lat="41.027430354026535" lon="14.22825712379663"><ele>17.0</ele><time>2026-04-24T09:43:02Z</time></trkpt><trkpt lat="41.02733191041537" lon="14.22817966620634"><ele>17.0</ele><time>2026-04-24T09:43:03Z</time></trkpt><trkpt lat="41.02723247338657" lon="14.228103232863031"><ele>16.5</ele><time>2026-04-24T09:43:04Z</time></trkpt><trkpt lat="41.02713502339392" lon="14.22803175745713"><ele>16.0</ele><time>2026-04-24T09:43:05Z</time></trkpt><trkpt lat="41.02704148290189" lon="14.227975507365466"><ele>15.5</ele><time>2026-04-24T09:43:06Z</time></trkpt><trkpt lat="41.0269395509144" lon="14.227900111204267"><ele>15.0</ele><time>2026-04-24T09:43:07Z</time></trkpt><trkpt lat="41.02683250637758" lon="14.227823402528367"><ele>15.0</ele><time>2026-04-24T09:43:08Z</time></trkpt><trkpt lat="41.026721638709176" lon="14.22773964293197"><ele>15.0</ele><time>2026-04-24T09:43:09Z</time></trkpt><trkpt lat="41.026602451514734" lon="14.22764867663221"><ele>15.0</ele><time>2026-04-24T09:43:10Z</time></trkpt><trkpt lat="41.026484951342546" lon="14.227567379935191"><ele>15.0</ele><time>2026-04-24T09:43:11Z</time></trkpt><trkpt lat="41.0263781902134" lon="14.227494858286578"><ele>15.0</ele><time>2026-04-24T09:43:12Z</time></trkpt><trkpt lat="41.02627027827948" lon="14.227414332858716"><ele>15.0</ele><time>2026-04-24T09:43:13Z</time></trkpt><trkpt lat="41.026167534016885" lon="14.227339613357982"><ele>15.0</ele><time>2026-04-24T09:43:14Z</time></trkpt><trkpt lat="41.02605335906463" lon="14.227274116701027"><ele>15.0</ele><time>2026-04-24T09:43:15Z</time></trkpt><trkpt lat="41.02593906622849" lon="14.227205264368884"><ele>14.75</ele><time>2026-04-24T09:43:16Z</time></trkpt><trkpt lat="41.02582126959563" lon="14.227124948694282"><ele>14.5</ele><time>2026-04-24T09:43:17Z</time></trkpt><trkpt lat="41.0257026502846" lon="14.227037593729674"><ele>14.25</ele><time>2026-04-24T09:43:18Z</time></trkpt><trkpt lat="41.025579018546296" lon="14.226958581621473"><ele>14.0</ele><time>2026-04-24T09:43:19Z</time></trkpt><trkpt lat="41.02545285977536" lon="14.226881118630319"><ele>15.0</ele><time>2026-04-24T09:43:20Z</time></trkpt><trkpt lat="41.02530091692611" lon="14.226780869966515"><ele>16.0</ele><time>2026-04-24T09:43:21Z</time></trkpt><trkpt lat="41.02513821719311" lon="14.226671648891381"><ele>17.0</ele><time>2026-04-24T09:43:22Z</time></trkpt><trkpt lat="41.02498208284654" lon="14.226558124550095"><ele>17.0</ele><time>2026-04-24T09:43:23Z</time></trkpt><trkpt lat="41.02483838044673" lon="14.22645192310326"><ele>17.0</ele><time>2026-04-24T09:43:24Z</time></trkpt><trkpt lat="41.02470479964217" lon="14.226352294931965"><ele>17.0</ele><time>2026-04-24T09:43:25Z</time></trkpt><trkpt lat="41.02458015386565" lon="14.226264033144913"><ele>17.0</ele><time>2026-04-24T09:43:26Z</time></trkpt><trkpt lat="41.02445712675388" lon="14.226178719451616"><ele>17.0</ele><time>2026-04-24T09:43:27Z</time></trkpt><trkpt lat="41.02433208142291" lon="14.226095945973357"><ele>17.0</ele><time>2026-04-24T09:43:28Z</time></trkpt><trkpt lat="41.024202120914666" lon="14.226008686277249"><ele>17.0</ele><time>2026-04-24T09:43:29Z</time></trkpt><trkpt lat="41.02407045083298" lon="14.225916964341527"><ele>16.75</ele><time>2026-04-24T09:43:30Z</time></trkpt><trkpt lat="41.02394197532225" lon="14.225831132626839"><ele>16.5</ele><time>2026-04-24T09:43:31Z</time></trkpt><trkpt lat="41.02381965007907" lon="14.225750832910974"><ele>16.25</ele><time>2026-04-24T09:43:32Z</time></trkpt><trkpt lat="41.02369986933293" lon="14.225669319949956"><ele>16.0</ele><time>2026-04-24T09:43:33Z</time></trkpt><trkpt lat="41.02358380307438" lon="14.225591340957854"><ele>16.0</ele><time>2026-04-24T09:43:34Z</time></trkpt><trkpt lat="41.02346855862064" lon="14.225502686881251"><ele>16.0</ele><time>2026-04-24T09:43:35Z</time></trkpt><trkpt lat="41.023352333216785" lon="14.225419226876276"><ele>16.0</ele><time>2026-04-24T09:43:36Z</time></trkpt><trkpt lat="41.02324218358432" lon="14.225337241732538"><ele>16.0</ele><time>2026-04-24T09:43:37Z</time></trkpt><trkpt lat="41.02313677927435" lon="14.22525019473995"><ele>16.25</ele><time>2026-04-24T09:43:38Z</time></trkpt><trkpt lat="41.02303089812801" lon="14.225173535432578"><ele>16.5</ele><time>2026-04-24T09:43:39Z</time></trkpt><trkpt lat="41.02291475439752" lon="14.225095178899961"><ele>16.75</ele><time>2026-04-24T09:43:40Z</time></trkpt><trkpt lat="41.02279404297151" lon="14.225015229610511"><ele>17.0</ele><time>2026-04-24T09:43:41Z</time></trkpt><trkpt lat="41.02267517971289" lon="14.224936036328877"><ele>17.0</ele><time>2026-04-24T09:43:42Z</time></trkpt><trkpt lat="41.022551561042796" lon="14.224857896732932"><ele>17.0</ele><time>2026-04-24T09:43:43Z</time></trkpt><trkpt lat="41.022430341478" lon="14.224777475890155"><ele>17.0</ele><time>2026-04-24T09:43:44Z</time></trkpt><trkpt lat="41.02230935526541" lon="14.224687521489859"><ele>17.0</ele><time>2026-04-24T09:43:45Z</time></trkpt><trkpt lat="41.02219015835109" lon="14.224602459117953"><ele>17.0</ele><time>2026-04-24T09:43:46Z</time></trkpt><trkpt lat="41.02207024894607" lon="14.224520084507828"><ele>17.0</ele><time>2026-04-24T09:43:47Z</time></trkpt><trkpt lat="41.02195059966649" lon="14.224439355955912"><ele>17.0</ele><time>2026-04-24T09:43:48Z</time></trkpt><trkpt lat="41.021836483042264" lon="14.224354265966376"><ele>17.0</ele><time>2026-04-24T09:43:49Z</time></trkpt><trkpt lat="41.02172263225999" lon="14.224268982962702"><ele>17.0</ele><time>2026-04-24T09:43:50Z</time></trkpt><trkpt lat="41.02160668684049" lon="14.224185096686885"><ele>17.0</ele><time>2026-04-24T09:43:51Z</time></trkpt><trkpt lat="41.02148569054149" lon="14.22410402675051"><ele>17.0</ele><time>2026-04-24T09:43:52Z</time></trkpt><trkpt lat="41.02136032068942" lon="14.22402821430675"><ele>17.0</ele><time>2026-04-24T09:43:53Z</time></trkpt><trkpt lat="41.02123981208765" lon="14.22394850407716"><ele>16.75</ele><time>2026-04-24T09:43:54Z</time></trkpt><trkpt lat="41.02111213780219" lon="14.223859969509839"><ele>16.5</ele><time>2026-04-24T09:43:55Z</time></trkpt><trkpt lat="41.02098300250369" lon="14.223768949096996"><ele>16.25</ele><time>2026-04-24T09:43:56Z</time></trkpt><trkpt lat="41.02085075664259" lon="14.223673956123024"><ele>16.0</ele><time>2026-04-24T09:43:57Z</time></trkpt><trkpt lat="41.020716013621765" lon="14.223576842093735"><ele>16.0</ele><time>2026-04-24T09:43:58Z</time></trkpt><trkpt lat="41.02043724018517" lon="14.223382256795484"><ele>16.0</ele><time>2026-04-24T09:44:00Z</time></trkpt><trkpt lat="41.02028830825974" lon="14.223276203573905"><ele>16.0</ele><time>2026-04-24T09:44:01Z</time></trkpt><trkpt lat="41.02013727317673" lon="14.223166569119485"><ele>16.0</ele><time>2026-04-24T09:44:02Z</time></trkpt><trkpt lat="41.019986127296484" lon="14.223064972237804"><ele>16.0</ele><time>2026-04-24T09:44:03Z</time></trkpt><trkpt lat="41.019831694562335" lon="14.222959897771576"><ele>16.0</ele><time>2026-04-24T09:44:04Z</time></trkpt><trkpt lat="41.019675301950045" lon="14.222851491346734"><ele>16.0</ele><time>2026-04-24T09:44:05Z</time></trkpt><trkpt lat="41.01951535138528" lon="14.222741425316823"><ele>16.0</ele><time>2026-04-24T09:44:06Z</time></trkpt><trkpt lat="41.019353745347495" lon="14.2226285476061"><ele>16.0</ele><time>2026-04-24T09:44:07Z</time></trkpt><trkpt lat="41.019194414029535" lon="14.222520155931413"><ele>16.0</ele><time>2026-04-24T09:44:08Z</time></trkpt><trkpt lat="41.01904565933104" lon="14.222419186027254"><ele>16.0</ele><time>2026-04-24T09:44:09Z</time></trkpt><trkpt lat="41.01889932434219" lon="14.222316888010113"><ele>17.0</ele><time>2026-04-24T09:44:10.001Z</time></trkpt><trkpt lat="41.01875923483263" lon="14.222226861200001"><ele>18.0</ele><time>2026-04-24T09:44:11.001Z</time></trkpt><trkpt lat="41.01861942097476" lon="14.222138117238769"><ele>19.0</ele><time>2026-04-24T09:44:12.001Z</time></trkpt><trkpt lat="41.018469738125916" lon="14.222046072180696"><ele>19.666666666666664</ele><time>2026-04-24T09:44:13.001Z</time></trkpt><trkpt lat="41.018310428730544" lon="14.221944424254406"><ele>20.333333333333332</ele><time>2026-04-24T09:44:14.001Z</time></trkpt><trkpt lat="41.018140744850896" lon="14.221830978134003"><ele>21.0</ele><time>2026-04-24T09:44:15.001Z</time></trkpt><trkpt lat="41.01797245135014" lon="14.221713558703849"><ele>21.0</ele><time>2026-04-24T09:44:16.001Z</time></trkpt><trkpt lat="41.01780165661817" lon="14.221599637394547"><ele>21.0</ele><time>2026-04-24T09:44:17.001Z</time></trkpt><trkpt lat="41.01762657590259" lon="14.221489024182373"><ele>21.0</ele><time>2026-04-24T09:44:18.001Z</time></trkpt><trkpt lat="41.017451844137916" lon="14.221380362129311"><ele>20.0</ele><time>2026-04-24T09:44:19.001Z</time></trkpt><trkpt lat="41.01728570820486" lon="14.221268798929838"><ele>19.0</ele><time>2026-04-24T09:44:20.001Z</time></trkpt><trkpt lat="41.01713315919699" lon="14.221160021730357"><ele>18.0</ele><time>2026-04-24T09:44:21.001Z</time></trkpt><trkpt lat="41.01698216037673" lon="14.221050774033447"><ele>18.0</ele><time>2026-04-24T09:44:22.001Z</time></trkpt><trkpt lat="41.01683499457879" lon="14.220940839227486"><ele>18.0</ele><time>2026-04-24T09:44:23.001Z</time></trkpt><trkpt lat="41.01668861797519" lon="14.22082485964921"><ele>18.0</ele><time>2026-04-24T09:44:24.001Z</time></trkpt><trkpt lat="41.01654119549458" lon="14.220711076119315"><ele>18.333333333333332</ele><time>2026-04-24T09:44:25.001Z</time></trkpt><trkpt lat="41.01639549201778" lon="14.220603111118166"><ele>18.666666666666664</ele><time>2026-04-24T09:44:26.001Z</time></trkpt><trkpt lat="41.01625507503357" lon="14.220506465994172"><ele>19.0</ele><time>2026-04-24T09:44:27.001Z</time></trkpt><trkpt lat="41.01611961795762" lon="14.220410188710598"><ele>19.0</ele><time>2026-04-24T09:44:28.001Z</time></trkpt><trkpt lat="41.01598816541368" lon="14.22031491764366"><ele>19.0</ele><time>2026-04-24T09:44:29.001Z</time></trkpt><trkpt lat="41.01585499448169" lon="14.220219630048026"><ele>19.0</ele><time>2026-04-24T09:44:30.001Z</time></trkpt><trkpt lat="41.015724653561634" lon="14.220125833816752"><ele>19.0</ele><time>2026-04-24T09:44:31.001Z</time></trkpt><trkpt lat="41.01559951217121" lon="14.220033609125025"><ele>18.75</ele><time>2026-04-24T09:44:32.001Z</time></trkpt><trkpt lat="41.01548137320551" lon="14.2199478612695"><ele>18.5</ele><time>2026-04-24T09:44:33.001Z</time></trkpt><trkpt lat="41.01536959082718" lon="14.219869049128175"><ele>18.25</ele><time>2026-04-24T09:44:34.001Z</time></trkpt><trkpt lat="41.015258917211575" lon="14.219804012130759"><ele>18.0</ele><time>2026-04-24T09:44:35.001Z</time></trkpt><trkpt lat="41.01514366881099" lon="14.219743380416418"><ele>18.0</ele><time>2026-04-24T09:44:36.001Z</time></trkpt><trkpt lat="41.01503531368518" lon="14.219689464854746"><ele>18.0</ele><time>2026-04-24T09:44:37.001Z</time></trkpt><trkpt lat="41.014937230551254" lon="14.219631309859691"><ele>18.0</ele><time>2026-04-24T09:44:38.001Z</time></trkpt><trkpt lat="41.01483930684115" lon="14.219566421150379"><ele>18.0</ele><time>2026-04-24T09:44:39.001Z</time></trkpt><trkpt lat="41.01474034347465" lon="14.219508044513287"><ele>18.0</ele><time>2026-04-24T09:44:40.001Z</time></trkpt><trkpt lat="41.0146473555271" lon="14.219458072076275"><ele>18.166666666666668</ele><time>2026-04-24T09:44:41.001Z</time></trkpt><trkpt lat="41.01457840955843" lon="14.219393455268024"><ele>18.333333333333332</ele><time>2026-04-24T09:44:42.001Z</time></trkpt><trkpt lat="41.014511206853726" lon="14.219345498904257"><ele>18.5</ele><time>2026-04-24T09:44:43.001Z</time></trkpt><trkpt lat="41.01441119746894" lon="14.219361437736532"><ele>18.666666666666664</ele><time>2026-04-24T09:44:44.001Z</time></trkpt><trkpt lat="41.014325651665985" lon="14.219371894291516"><ele>18.833333333333332</ele><time>2026-04-24T09:44:45.001Z</time></trkpt><trkpt lat="41.01424124329469" lon="14.219405227501305"><ele>19.0</ele><time>2026-04-24T09:44:46.001Z</time></trkpt><trkpt lat="41.014162161238396" lon="14.219453718375483"><ele>18.8</ele><time>2026-04-24T09:44:47.001Z</time></trkpt><trkpt lat="41.0140855405946" lon="14.219511799652242"><ele>18.599999999999998</ele><time>2026-04-24T09:44:48.001Z</time></trkpt><trkpt lat="41.01401475481321" lon="14.21958858060786"><ele>18.4</ele><time>2026-04-24T09:44:49.001Z</time></trkpt><trkpt lat="41.01394890263372" lon="14.219686184283468"><ele>18.2</ele><time>2026-04-24T09:44:50.001Z</time></trkpt><trkpt lat="41.01389815759998" lon="14.219807440955373"><ele>18.0</ele><time>2026-04-24T09:44:51Z</time></trkpt><trkpt lat="41.013866008590085" lon="14.219947288320785"><ele>18.0</ele><time>2026-04-24T09:44:52Z</time></trkpt><trkpt lat="41.013861855743244" lon="14.220089195410148"><ele>18.0</ele><time>2026-04-24T09:44:53Z</time></trkpt><trkpt lat="41.01388610063462" lon="14.22021319220581"><ele>18.0</ele><time>2026-04-24T09:44:54Z</time></trkpt><trkpt lat="41.013923446219884" lon="14.220329563580005"><ele>18.0</ele><time>2026-04-24T09:44:55Z</time></trkpt><trkpt lat="41.01397263108277" lon="14.220434736424334"><ele>18.0</ele><time>2026-04-24T09:44:56Z</time></trkpt><trkpt lat="41.014032350983676" lon="14.220525778837358"><ele>18.0</ele><time>2026-04-24T09:44:57Z</time></trkpt><trkpt lat="41.01410249864933" lon="14.220607557268695"><ele>18.0</ele><time>2026-04-24T09:44:58Z</time></trkpt><trkpt lat="41.01417031326208" lon="14.220709586254685"><ele>18.0</ele><time>2026-04-24T09:44:59Z</time></trkpt><trkpt lat="41.014259949289674" lon="14.220772955284819"><ele>18.0</ele><time>2026-04-24T09:45:00Z</time></trkpt><trkpt lat="41.01435941579792" lon="14.22082423115391"><ele>18.0</ele><time>2026-04-24T09:45:01Z</time></trkpt><trkpt lat="41.0144519329486" lon="14.220905400220005"><ele>18.0</ele><time>2026-04-24T09:45:02Z</time></trkpt><trkpt lat="41.01454673256319" lon="14.220983417741973"><ele>18.0</ele><time>2026-04-24T09:45:03Z</time></trkpt><trkpt lat="41.01464450082218" lon="14.2210584607576"><ele>18.0</ele><time>2026-04-24T09:45:04Z</time></trkpt><trkpt lat="41.014741739177005" lon="14.22113382041118"><ele>18.0</ele><time>2026-04-24T09:45:05Z</time></trkpt><trkpt lat="41.014834645889984" lon="14.22121056450284"><ele>18.0</ele><time>2026-04-24T09:45:06Z</time></trkpt><trkpt lat="41.01492022562245" lon="14.2212894020919"><ele>18.0</ele><time>2026-04-24T09:45:07Z</time></trkpt><trkpt lat="41.0150007187199" lon="14.22135547857276"><ele>18.0</ele><time>2026-04-24T09:45:08Z</time></trkpt><trkpt lat="41.01507743319859" lon="14.221413439154603"><ele>18.0</ele><time>2026-04-24T09:45:09Z</time></trkpt><trkpt lat="41.01515196420548" lon="14.221466627072136"><ele>18.0</ele><time>2026-04-24T09:45:10Z</time></trkpt><trkpt lat="41.01521802991112" lon="14.221511689735756"><ele>18.0</ele><time>2026-04-24T09:45:11Z</time></trkpt><trkpt lat="41.01528150031178" lon="14.22155513662902"><ele>18.0</ele><time>2026-04-24T09:45:12Z</time></trkpt><trkpt lat="41.01533592806289" lon="14.221597944837253"><ele>18.0</ele><time>2026-04-24T09:45:13Z</time></trkpt><trkpt lat="41.015414183058404" lon="14.221681967187145"><ele>18.0</ele><time>2026-04-24T09:45:15Z</time></trkpt><trkpt lat="41.01546939131766" lon="14.221767223571378"><ele>18.0</ele><time>2026-04-24T09:45:17Z</time></trkpt><trkpt lat="41.015505939864454" lon="14.221871986666615"><ele>18.0</ele><time>2026-04-24T09:45:19Z</time></trkpt><trkpt lat="41.01552151874295" lon="14.22201039409608"><ele>18.0</ele><time>2026-04-24T09:45:21Z</time></trkpt><trkpt lat="41.01552337806425" lon="14.222097096693108"><ele>18.0</ele><time>2026-04-24T09:45:22Z</time></trkpt><trkpt lat="41.01551640327806" lon="14.222215940764315"><ele>18.4</ele><time>2026-04-24T09:45:23Z</time></trkpt><trkpt lat="41.015497766820175" lon="14.22233566755674"><ele>18.8</ele><time>2026-04-24T09:45:24Z</time></trkpt><trkpt lat="41.01546545759326" lon="14.222468414476499"><ele>19.2</ele><time>2026-04-24T09:45:25Z</time></trkpt><trkpt lat="41.01541648228114" lon="14.222603863248317"><ele>19.6</ele><time>2026-04-24T09:45:26Z</time></trkpt><trkpt lat="41.01536556415938" lon="14.222744259115334"><ele>20.0</ele><time>2026-04-24T09:45:27Z</time></trkpt><trkpt lat="41.01531679181252" lon="14.222882757377135"><ele>20.0</ele><time>2026-04-24T09:45:28Z</time></trkpt><trkpt lat="41.0152227181179" lon="14.223143164066292"><ele>20.0</ele><time>2026-04-24T09:45:30Z</time></trkpt><trkpt lat="41.01517976577129" lon="14.223260520893987"><ele>20.0</ele><time>2026-04-24T09:45:31Z</time></trkpt><trkpt lat="41.01514138972721" lon="14.223365133510415"><ele>20.0</ele><time>2026-04-24T09:45:32Z</time></trkpt><trkpt lat="41.01510374620736" lon="14.223462913546776"><ele>20.0</ele><time>2026-04-24T09:45:33Z</time></trkpt><trkpt lat="41.01507125508865" lon="14.223556220313085"><ele>20.0</ele><time>2026-04-24T09:45:34Z</time></trkpt><trkpt lat="41.015043552136405" lon="14.223642767967519"><ele>20.0</ele><time>2026-04-24T09:45:35Z</time></trkpt><trkpt lat="41.0150126304583" lon="14.223726418288063"><ele>20.0</ele><time>2026-04-24T09:45:36Z</time></trkpt><trkpt lat="41.01497573402346" lon="14.223806268447197"><ele>20.0</ele><time>2026-04-24T09:45:37Z</time></trkpt><trkpt lat="41.01493459438548" lon="14.22387869709987"><ele>20.0</ele><time>2026-04-24T09:45:38Z</time></trkpt><trkpt lat="41.014849397746815" lon="14.223983363711975"><ele>19.8</ele><time>2026-04-24T09:45:40Z</time></trkpt><trkpt lat="41.01475949294834" lon="14.224082044963978"><ele>19.6</ele><time>2026-04-24T09:45:42Z</time></trkpt><trkpt lat="41.01467489232666" lon="14.224133207177413"><ele>19.4</ele><time>2026-04-24T09:45:44Z</time></trkpt><trkpt lat="41.014587951446224" lon="14.224169807283445"><ele>19.2</ele><time>2026-04-24T09:45:46Z</time></trkpt><trkpt lat="41.01449288709027" lon="14.224183383605714"><ele>19.0</ele><time>2026-04-24T09:45:48Z</time></trkpt><trkpt lat="41.014358241449216" lon="14.224195758793341"><ele>19.0</ele><time>2026-04-24T09:45:50Z</time></trkpt><trkpt lat="41.01426599360319" lon="14.2241739020293"><ele>19.0</ele><time>2026-04-24T09:45:51Z</time></trkpt><trkpt lat="41.0141899800936" lon="14.22410893792283"><ele>19.0</ele><time>2026-04-24T09:45:52Z</time></trkpt><trkpt lat="41.01409922224312" lon="14.22408752226034"><ele>19.0</ele><time>2026-04-24T09:45:53Z</time></trkpt><trkpt lat="41.014005302529924" lon="14.224071756361763"><ele>19.0</ele><time>2026-04-24T09:45:54Z</time></trkpt><trkpt lat="41.01391266855453" lon="14.224066367574236"><ele>18.8</ele><time>2026-04-24T09:45:55Z</time></trkpt><trkpt lat="41.013816491900634" lon="14.224104993846398"><ele>18.599999999999998</ele><time>2026-04-24T09:45:56Z</time></trkpt><trkpt lat="41.013709964922505" lon="14.224080775354212"><ele>18.4</ele><time>2026-04-24T09:45:57Z</time></trkpt><trkpt lat="41.01362213189784" lon="14.224058743389962"><ele>18.2</ele><time>2026-04-24T09:45:58Z</time></trkpt><trkpt lat="41.01355829692017" lon="14.224042731033675"><ele>18.0</ele><time>2026-04-24T09:45:59Z</time></trkpt><trkpt lat="41.01346294746997" lon="14.224015409083968"><ele>18.0</ele><time>2026-04-24T09:46:01Z</time></trkpt></trkseg><trkseg><trkpt lat="41.01146031722672" lon="14.222649364270579"><ele>19.0</ele><time>2026-04-24T09:48:00Z</time></trkpt><trkpt lat="41.01156837595173" lon="14.222702975216317"><ele>19.0</ele><time>2026-04-24T09:48:01Z</time></trkpt><trkpt lat="41.011671030938814" lon="14.222776141062763"><ele>19.0</ele><time>2026-04-24T09:48:02Z</time></trkpt><trkpt lat="41.01176114539042" lon="14.22285887205524"><ele>19.0</ele><time>2026-04-24T09:48:03Z</time></trkpt><trkpt lat="41.01185275400362" lon="14.222939282006505"><ele>19.0</ele><time>2026-04-24T09:48:04Z</time></trkpt><trkpt lat="41.011949017934676" lon="14.223019582081363"><ele>19.0</ele><time>2026-04-24T09:48:05Z</time></trkpt><trkpt lat="41.0120496105751" lon="14.223100096813543"><ele>19.0</ele><time>2026-04-24T09:48:06Z</time></trkpt><trkpt lat="41.012150715710725" lon="14.22318764520301"><ele>19.0</ele><time>2026-04-24T09:48:07Z</time></trkpt><trkpt lat="41.012254183456335" lon="14.223282436961153"><ele>19.25</ele><time>2026-04-24T09:48:08Z</time></trkpt><trkpt lat="41.01235924134193" lon="14.22337574575268"><ele>19.5</ele><time>2026-04-24T09:48:09Z</time></trkpt><trkpt lat="41.01246679390196" lon="14.223464828127558"><ele>19.75</ele><time>2026-04-24T09:48:10Z</time></trkpt><trkpt lat="41.01256173476414" lon="14.223546067192409"><ele>20.0</ele><time>2026-04-24T09:48:11Z</time></trkpt><trkpt lat="41.012673038772604" lon="14.223642082969178"><ele>20.0</ele><time>2026-04-24T09:48:12Z</time></trkpt><trkpt lat="41.01278402197818" lon="14.223742543483258"><ele>20.0</ele><time>2026-04-24T09:48:13Z</time></trkpt><trkpt lat="41.01289284435531" lon="14.223846145580694"><ele>20.0</ele><time>2026-04-24T09:48:14Z</time></trkpt><trkpt lat="41.01299956848598" lon="14.223948607887642"><ele>20.0</ele><time>2026-04-24T09:48:15Z</time></trkpt><trkpt lat="41.01309004277598" lon="14.224066069837974"><ele>19.75</ele><time>2026-04-24T09:48:16Z</time></trkpt><trkpt lat="41.01317720436799" lon="14.224180005563339"><ele>19.5</ele><time>2026-04-24T09:48:17Z</time></trkpt><trkpt lat="41.01325473970824" lon="14.224296188440519"><ele>19.25</ele><time>2026-04-24T09:48:18Z</time></trkpt><trkpt lat="41.013326344842504" lon="14.22441641087712"><ele>19.0</ele><time>2026-04-24T09:48:19Z</time></trkpt><trkpt lat="41.01338482246237" lon="14.224529566296285"><ele>18.8</ele><time>2026-04-24T09:48:20Z</time></trkpt><trkpt lat="41.013429408211216" lon="14.224639433796012"><ele>18.599999999999998</ele><time>2026-04-24T09:48:21Z</time></trkpt><trkpt lat="41.01347434675866" lon="14.22476084045968"><ele>18.4</ele><time>2026-04-24T09:48:22Z</time></trkpt><trkpt lat="41.01351628710981" lon="14.224878504061751"><ele>18.2</ele><time>2026-04-24T09:48:23Z</time></trkpt><trkpt lat="41.01356424204695" lon="14.224999862262296"><ele>18.0</ele><time>2026-04-24T09:48:24Z</time></trkpt><trkpt lat="41.013610234130034" lon="14.225116632857429"><ele>18.0</ele><time>2026-04-24T09:48:25Z</time></trkpt><trkpt lat="41.013666656397014" lon="14.225232189573765"><ele>18.0</ele><time>2026-04-24T09:48:26Z</time></trkpt><trkpt lat="41.01373798879266" lon="14.22533562173029"><ele>18.0</ele><time>2026-04-24T09:48:27Z</time></trkpt><trkpt lat="41.01381115036062" lon="14.225428702654286"><ele>18.0</ele><time>2026-04-24T09:48:28Z</time></trkpt><trkpt lat="41.013888559279586" lon="14.2255216543396"><ele>18.0</ele><time>2026-04-24T09:48:29Z</time></trkpt><trkpt lat="41.0139611442974" lon="14.225586763049977"><ele>18.0</ele><time>2026-04-24T09:48:30Z</time></trkpt><trkpt lat="41.014026266079306" lon="14.225644451703467"><ele>18.0</ele><time>2026-04-24T09:48:31Z</time></trkpt><trkpt lat="41.014088828626285" lon="14.225666630146685"><ele>18.0</ele><time>2026-04-24T09:48:32Z</time></trkpt><trkpt lat="41.01416274284902" lon="14.22572013569439"><ele>18.0</ele><time>2026-04-24T09:48:34Z</time></trkpt><trkpt lat="41.01413128594999" lon="14.225888474452773"><ele>18.0</ele><time>2026-04-24T09:48:35Z</time></trkpt><trkpt lat="41.01409868274372" lon="14.226042293280912"><ele>18.166666666666668</ele><time>2026-04-24T09:48:37Z</time></trkpt><trkpt lat="41.014094347822514" lon="14.226158385092843"><ele>18.333333333333332</ele><time>2026-04-24T09:48:38Z</time></trkpt><trkpt lat="41.014115150826356" lon="14.22625185141857"><ele>18.5</ele><time>2026-04-24T09:48:39Z</time></trkpt><trkpt lat="41.01415453460713" lon="14.22633873885666"><ele>18.666666666666664</ele><time>2026-04-24T09:48:40Z</time></trkpt><trkpt lat="41.014252455152494" lon="14.226350072287152"><ele>18.833333333333332</ele><time>2026-04-24T09:48:41Z</time></trkpt><trkpt lat="41.014309418972324" lon="14.226477998403713"><ele>19.0</ele><time>2026-04-24T09:48:42Z</time></trkpt><trkpt lat="41.01440295420609" lon="14.226554057844803"><ele>19.0</ele><time>2026-04-24T09:48:43Z</time></trkpt><trkpt lat="41.01448767975489" lon="14.226618623875185"><ele>19.0</ele><time>2026-04-24T09:48:44Z</time></trkpt><trkpt lat="41.01458993914136" lon="14.226715144692532"><ele>19.0</ele><time>2026-04-24T09:48:45Z</time></trkpt><trkpt lat="41.01469887512223" lon="14.226818561980927"><ele>19.0</ele><time>2026-04-24T09:48:46Z</time></trkpt><trkpt lat="41.01480787298426" lon="14.226932251601086"><ele>19.0</ele><time>2026-04-24T09:48:47Z</time></trkpt><trkpt lat="41.014921227531524" lon="14.22703895204919"><ele>19.0</ele><time>2026-04-24T09:48:48Z</time></trkpt><trkpt lat="41.015038304626465" lon="14.22714580864016"><ele>19.0</ele><time>2026-04-24T09:48:49Z</time></trkpt><trkpt lat="41.01515950104964" lon="14.227243799398355"><ele>19.0</ele><time>2026-04-24T09:48:50Z</time></trkpt><trkpt lat="41.01528882150023" lon="14.227345918154398"><ele>19.5</ele><time>2026-04-24T09:48:51Z</time></trkpt><trkpt lat="41.01540215602385" lon="14.22747662599191"><ele>20.0</ele><time>2026-04-24T09:48:52Z</time></trkpt><trkpt lat="41.01552081412208" lon="14.227584889327229"><ele>20.5</ele><time>2026-04-24T09:48:53Z</time></trkpt><trkpt lat="41.0156424359932" lon="14.227695819885328"><ele>21.0</ele><time>2026-04-24T09:48:54Z</time></trkpt><trkpt lat="41.01575548544375" lon="14.227798803687058"><ele>20.25</ele><time>2026-04-24T09:48:55Z</time></trkpt><trkpt lat="41.01587365113959" lon="14.227879729976495"><ele>19.5</ele><time>2026-04-24T09:48:56Z</time></trkpt><trkpt lat="41.01598002782249" lon="14.227981184693881"><ele>18.75</ele><time>2026-04-24T09:48:57Z</time></trkpt><trkpt lat="41.01607552757403" lon="14.228081380880406"><ele>18.0</ele><time>2026-04-24T09:48:58Z</time></trkpt><trkpt lat="41.016157909670554" lon="14.22818621432829"><ele>18.0</ele><time>2026-04-24T09:48:59Z</time></trkpt><trkpt lat="41.01622142897362" lon="14.228301373040306"><ele>18.0</ele><time>2026-04-24T09:49:00Z</time></trkpt><trkpt lat="41.01625651254819" lon="14.22843319085837"><ele>18.0</ele><time>2026-04-24T09:49:01Z</time></trkpt><trkpt lat="41.01626986317334" lon="14.228561931639655"><ele>18.0</ele><time>2026-04-24T09:49:02Z</time></trkpt><trkpt lat="41.016266468108576" lon="14.228694453182163"><ele>18.0</ele><time>2026-04-24T09:49:03Z</time></trkpt><trkpt lat="41.016237578268" lon="14.228823758893652"><ele>18.0</ele><time>2026-04-24T09:49:04Z</time></trkpt><trkpt lat="41.016179137638424" lon="14.228945377057482"><ele>18.0</ele><time>2026-04-24T09:49:05Z</time></trkpt><trkpt lat="41.01611913078565" lon="14.22906379507964"><ele>18.0</ele><time>2026-04-24T09:49:06Z</time></trkpt><trkpt lat="41.01605208487473" lon="14.229183755778495"><ele>18.0</ele><time>2026-04-24T09:49:07Z</time></trkpt><trkpt lat="41.015984086748404" lon="14.229306141880562"><ele>18.0</ele><time>2026-04-24T09:49:08Z</time></trkpt><trkpt lat="41.0159149210122" lon="14.229447014129187"><ele>17.75</ele><time>2026-04-24T09:49:09Z</time></trkpt><trkpt lat="41.01584245964891" lon="14.229590256183384"><ele>17.5</ele><time>2026-04-24T09:49:10Z</time></trkpt><trkpt lat="41.01576354251615" lon="14.229740942456091"><ele>17.25</ele><time>2026-04-24T09:49:11Z</time></trkpt><trkpt lat="41.01568671657248" lon="14.229907375787473"><ele>17.0</ele><time>2026-04-24T09:49:12Z</time></trkpt><trkpt lat="41.01558724495629" lon="14.230068658647548"><ele>17.333333333333336</ele><time>2026-04-24T09:49:13Z</time></trkpt><trkpt lat="41.01548634583585" lon="14.23026045856789"><ele>17.666666666666668</ele><time>2026-04-24T09:49:14Z</time></trkpt><trkpt lat="41.01538855862376" lon="14.23044634297678"><ele>18.0</ele><time>2026-04-24T09:49:15Z</time></trkpt><trkpt lat="41.01530029272219" lon="14.230646749193644"><ele>18.0</ele><time>2026-04-24T09:49:16Z</time></trkpt><trkpt lat="41.015195289438616" lon="14.230834184315778"><ele>18.0</ele><time>2026-04-24T09:49:17Z</time></trkpt><trkpt lat="41.01508739360707" lon="14.231018577940844"><ele>18.0</ele><time>2026-04-24T09:49:18Z</time></trkpt><trkpt lat="41.01498259567789" lon="14.231206604852071"><ele>18.0</ele><time>2026-04-24T09:49:19Z</time></trkpt><trkpt lat="41.01488175297397" lon="14.231396034902344"><ele>18.0</ele><time>2026-04-24T09:49:20Z</time></trkpt><trkpt lat="41.01478072056583" lon="14.231587748239118"><ele>18.0</ele><time>2026-04-24T09:49:21Z</time></trkpt><trkpt lat="41.01467991589253" lon="14.23177981547981"><ele>18.333333333333332</ele><time>2026-04-24T09:49:22Z</time></trkpt><trkpt lat="41.014578242408156" lon="14.231973266680047"><ele>18.666666666666664</ele><time>2026-04-24T09:49:23Z</time></trkpt><trkpt lat="41.014479829520546" lon="14.232167765665237"><ele>19.0</ele><time>2026-04-24T09:49:24Z</time></trkpt><trkpt lat="41.01438305229864" lon="14.2323621462198"><ele>18.333333333333332</ele><time>2026-04-24T09:49:25Z</time></trkpt><trkpt lat="41.01428650248155" lon="14.23254743414073"><ele>17.666666666666668</ele><time>2026-04-24T09:49:26Z</time></trkpt><trkpt lat="41.01418377322068" lon="14.232742065259755"><ele>17.0</ele><time>2026-04-24T09:49:27Z</time></trkpt><trkpt lat="41.01408484882774" lon="14.23293044501529"><ele>17.666666666666668</ele><time>2026-04-24T09:49:28Z</time></trkpt><trkpt lat="41.01398262055814" lon="14.23312385545293"><ele>18.333333333333332</ele><time>2026-04-24T09:49:29Z</time></trkpt><trkpt lat="41.01388306286361" lon="14.233309843883166"><ele>19.0</ele><time>2026-04-24T09:49:30Z</time></trkpt><trkpt lat="41.01378237955253" lon="14.23350028979838"><ele>19.0</ele><time>2026-04-24T09:49:31Z</time></trkpt><trkpt lat="41.01368915315046" lon="14.233687498044645"><ele>19.0</ele><time>2026-04-24T09:49:32Z</time></trkpt><trkpt lat="41.01359068433729" lon="14.233877277972187"><ele>19.0</ele><time>2026-04-24T09:49:33Z</time></trkpt><trkpt lat="41.01349229974579" lon="14.234072051410514"><ele>19.0</ele><time>2026-04-24T09:49:34Z</time></trkpt><trkpt lat="41.01339406122205" lon="14.234260422985322"><ele>19.0</ele><time>2026-04-24T09:49:35Z</time></trkpt><trkpt lat="41.01329105894264" lon="14.234455213618576"><ele>19.0</ele><time>2026-04-24T09:49:36Z</time></trkpt><trkpt lat="41.01319416274419" lon="14.23464327094028"><ele>18.333333333333332</ele><time>2026-04-24T09:49:37Z</time></trkpt><trkpt lat="41.01309479124681" lon="14.234841561267578"><ele>17.666666666666668</ele><time>2026-04-24T09:49:38Z</time></trkpt><trkpt lat="41.01299131742218" lon="14.235043862064678"><ele>17.0</ele><time>2026-04-24T09:49:39Z</time></trkpt><trkpt lat="41.01288886063569" lon="14.235248568370288"><ele>17.0</ele><time>2026-04-24T09:49:40Z</time></trkpt><trkpt lat="41.012785522508956" lon="14.23545038575698"><ele>17.0</ele><time>2026-04-24T09:49:40.999Z</time></trkpt><trkpt lat="41.012681877113934" lon="14.235648496879671"><ele>17.0</ele><time>2026-04-24T09:49:41.999Z</time></trkpt><trkpt lat="41.012581716555076" lon="14.235848760149258"><ele>18.333333333333336</ele><time>2026-04-24T09:49:42.999Z</time></trkpt><trkpt lat="41.01247929720726" lon="14.236050707399661"><ele>19.666666666666668</ele><time>2026-04-24T09:49:43.999Z</time></trkpt><trkpt lat="41.012380377060346" lon="14.236241954521967"><ele>21.0</ele><time>2026-04-24T09:49:44.999Z</time></trkpt><trkpt lat="41.012275990642415" lon="14.236433515601826"><ele>20.0</ele><time>2026-04-24T09:49:45.999Z</time></trkpt><trkpt lat="41.01217655069207" lon="14.23661958374878"><ele>19.0</ele><time>2026-04-24T09:49:46.999Z</time></trkpt><trkpt lat="41.01208417668095" lon="14.236797343532322"><ele>18.0</ele><time>2026-04-24T09:49:47.999Z</time></trkpt><trkpt lat="41.011998240216805" lon="14.236966481976788"><ele>18.0</ele><time>2026-04-24T09:49:48.999Z</time></trkpt><trkpt lat="41.01191591446295" lon="14.237124951302167"><ele>18.0</ele><time>2026-04-24T09:49:49.999Z</time></trkpt><trkpt lat="41.011836119239995" lon="14.237276961087684"><ele>18.0</ele><time>2026-04-24T09:49:50.999Z</time></trkpt><trkpt lat="41.01176140708692" lon="14.23742165935418"><ele>18.0</ele><time>2026-04-24T09:49:51.999Z</time></trkpt><trkpt lat="41.01168976369685" lon="14.23756787651213"><ele>18.0</ele><time>2026-04-24T09:49:52.999Z</time></trkpt><trkpt lat="41.011617502974026" lon="14.237709668520262"><ele>18.0</ele><time>2026-04-24T09:49:53.999Z</time></trkpt><trkpt lat="41.01153956628525" lon="14.237855237613806"><ele>18.0</ele><time>2026-04-24T09:49:54.999Z</time></trkpt><trkpt lat="41.01146261655685" lon="14.237995464032874"><ele>18.0</ele><time>2026-04-24T09:49:55.999Z</time></trkpt><trkpt lat="41.01138169155875" lon="14.238144336260849"><ele>18.0</ele><time>2026-04-24T09:49:56.999Z</time></trkpt><trkpt lat="41.01129707662352" lon="14.238311117805651"><ele>18.0</ele><time>2026-04-24T09:49:57.999Z</time></trkpt><trkpt lat="41.011214982173854" lon="14.238477684471306"><ele>18.0</ele><time>2026-04-24T09:49:58.999Z</time></trkpt><trkpt lat="41.01113010263268" lon="14.23864918724217"><ele>18.0</ele><time>2026-04-24T09:49:59.999Z</time></trkpt><trkpt lat="41.011044132714275" lon="14.238821771247741"><ele>18.0</ele><time>2026-04-24T09:50:00.999Z</time></trkpt><trkpt lat="41.010960003060525" lon="14.238987447996012"><ele>18.0</ele><time>2026-04-24T09:50:01.999Z</time></trkpt><trkpt lat="41.01087371185624" lon="14.239159502808796"><ele>18.0</ele><time>2026-04-24T09:50:02.999Z</time></trkpt><trkpt lat="41.010780735082136" lon="14.239331553348041"><ele>18.0</ele><time>2026-04-24T09:50:03.999Z</time></trkpt><trkpt lat="41.01068985557979" lon="14.239511286767634"><ele>18.0</ele><time>2026-04-24T09:50:04.999Z</time></trkpt><trkpt lat="41.01059531738776" lon="14.239690897287325"><ele>17.333333333333332</ele><time>2026-04-24T09:50:05.999Z</time></trkpt><trkpt lat="41.01049704961737" lon="14.239873835901546"><ele>16.666666666666664</ele><time>2026-04-24T09:50:06.999Z</time></trkpt><trkpt lat="41.01040337792547" lon="14.240055054104477"><ele>16.0</ele><time>2026-04-24T09:50:07.999Z</time></trkpt><trkpt lat="41.01031666552352" lon="14.240224881117634"><ele>16.0</ele><time>2026-04-24T09:50:08.999Z</time></trkpt><trkpt lat="41.010220347625584" lon="14.240380833815763"><ele>16.0</ele><time>2026-04-24T09:50:09.999Z</time></trkpt><trkpt lat="41.01013851432283" lon="14.240538806680593"><ele>16.0</ele><time>2026-04-24T09:50:10.999Z</time></trkpt><trkpt lat="41.0100622807167" lon="14.240685970446664"><ele>16.0</ele><time>2026-04-24T09:50:11.999Z</time></trkpt><trkpt lat="41.010003672862794" lon="14.240836685000223"><ele>16.5</ele><time>2026-04-24T09:50:12.999Z</time></trkpt><trkpt lat="41.00992349327536" lon="14.240962491301346"><ele>17.0</ele><time>2026-04-24T09:50:13.999Z</time></trkpt><trkpt lat="41.00985478927485" lon="14.241098674776786"><ele>17.5</ele><time>2026-04-24T09:50:14.999Z</time></trkpt><trkpt lat="41.009785929747835" lon="14.241222226966308"><ele>18.0</ele><time>2026-04-24T09:50:15.999Z</time></trkpt><trkpt lat="41.0097159329868" lon="14.241349961874281"><ele>17.75</ele><time>2026-04-24T09:50:16.999Z</time></trkpt><trkpt lat="41.00964367914518" lon="14.241485423157451"><ele>17.5</ele><time>2026-04-24T09:50:17.999Z</time></trkpt><trkpt lat="41.00957708004222" lon="14.24162748969328"><ele>17.25</ele><time>2026-04-24T09:50:18.999Z</time></trkpt><trkpt lat="41.00951356573629" lon="14.241773466190656"><ele>17.0</ele><time>2026-04-24T09:50:19.999Z</time></trkpt><trkpt lat="41.00944040003168" lon="14.241910360793645"><ele>17.0</ele><time>2026-04-24T09:50:20.999Z</time></trkpt><trkpt lat="41.009373703323185" lon="14.242047225279002"><ele>17.0</ele><time>2026-04-24T09:50:21.999Z</time></trkpt><trkpt lat="41.00929829913545" lon="14.242178187603749"><ele>17.0</ele><time>2026-04-24T09:50:22.999Z</time></trkpt><trkpt lat="41.009240740863255" lon="14.24230005316187"><ele>17.0</ele><time>2026-04-24T09:50:23.999Z</time></trkpt><trkpt lat="41.00917032882128" lon="14.242402694953256"><ele>17.5</ele><time>2026-04-24T09:50:24.999Z</time></trkpt><trkpt lat="41.00910934341092" lon="14.242519969282817"><ele>18.0</ele><time>2026-04-24T09:50:25.999Z</time></trkpt><trkpt lat="41.009047335155" lon="14.242639210522315"><ele>18.5</ele><time>2026-04-24T09:50:26.999Z</time></trkpt><trkpt lat="41.00897447331861" lon="14.24277932313186"><ele>19.0</ele><time>2026-04-24T09:50:28Z</time></trkpt><trkpt lat="41.008891801186756" lon="14.242938300782091"><ele>19.0</ele><time>2026-04-24T09:50:29Z</time></trkpt><trkpt lat="41.00880016447865" lon="14.243114517221027"><ele>19.0</ele><time>2026-04-24T09:50:30Z</time></trkpt><trkpt lat="41.00870571622671" lon="14.243296139709276"><ele>19.0</ele><time>2026-04-24T09:50:31Z</time></trkpt><trkpt lat="41.00860378195491" lon="14.243492059350555"><ele>18.333333333333332</ele><time>2026-04-24T09:50:32Z</time></trkpt><trkpt lat="41.00850001684306" lon="14.243692129676255"><ele>17.666666666666668</ele><time>2026-04-24T09:50:33Z</time></trkpt><trkpt lat="41.008394036728944" lon="14.24389519513252"><ele>17.0</ele><time>2026-04-24T09:50:34Z</time></trkpt><trkpt lat="41.0081746374729" lon="14.244314326874003"><ele>17.0</ele><time>2026-04-24T09:50:36Z</time></trkpt><trkpt lat="41.00805959859577" lon="14.244534398355789"><ele>17.0</ele><time>2026-04-24T09:50:37Z</time></trkpt><trkpt lat="41.00795159195343" lon="14.244757934762102"><ele>17.0</ele><time>2026-04-24T09:50:38Z</time></trkpt><trkpt lat="41.00783110229941" lon="14.244965018598915"><ele>17.0</ele><time>2026-04-24T09:50:39Z</time></trkpt><trkpt lat="41.00772221378136" lon="14.245190464600345"><ele>17.0</ele><time>2026-04-24T09:50:40Z</time></trkpt><trkpt lat="41.00761877796152" lon="14.24540748697404"><ele>17.0</ele><time>2026-04-24T09:50:41Z</time></trkpt><trkpt lat="41.007512704455245" lon="14.245623247076088"><ele>17.333333333333336</ele><time>2026-04-24T09:50:42Z</time></trkpt><trkpt lat="41.00739685263119" lon="14.245813771222302"><ele>17.666666666666668</ele><time>2026-04-24T09:50:43Z</time></trkpt><trkpt lat="41.00730885166666" lon="14.246017598171997"><ele>18.0</ele><time>2026-04-24T09:50:44Z</time></trkpt><trkpt lat="41.00721100378435" lon="14.246207671495664"><ele>18.0</ele><time>2026-04-24T09:50:45Z</time></trkpt><trkpt lat="41.00711393182589" lon="14.24638911183929"><ele>18.0</ele><time>2026-04-24T09:50:46Z</time></trkpt><trkpt lat="41.00702877278624" lon="14.2465605311373"><ele>18.0</ele><time>2026-04-24T09:50:47Z</time></trkpt><trkpt lat="41.006942704728104" lon="14.24672309946185"><ele>18.0</ele><time>2026-04-24T09:50:48Z</time></trkpt><trkpt lat="41.006863357030895" lon="14.24686804551425"><ele>18.0</ele><time>2026-04-24T09:50:49Z</time></trkpt><trkpt lat="41.00679257145076" lon="14.246992893136156"><ele>18.0</ele><time>2026-04-24T09:50:50Z</time></trkpt><trkpt lat="41.00672947931204" lon="14.247103590274268"><ele>18.0</ele><time>2026-04-24T09:50:51Z</time></trkpt><trkpt lat="41.00667189868763" lon="14.247192563071387"><ele>18.0</ele><time>2026-04-24T09:50:52Z</time></trkpt><trkpt lat="41.00661885976391" lon="14.247266280513571"><ele>17.6</ele><time>2026-04-24T09:50:53Z</time></trkpt><trkpt lat="41.00652467616898" lon="14.247376260341836"><ele>17.200000000000003</ele><time>2026-04-24T09:50:55Z</time></trkpt><trkpt lat="41.00645139704064" lon="14.247492012395883"><ele>16.8</ele><time>2026-04-24T09:50:57Z</time></trkpt><trkpt lat="41.006414475812385" lon="14.2475723205729"><ele>16.400000000000002</ele><time>2026-04-24T09:51:00Z</time></trkpt><trkpt lat="41.00635866192779" lon="14.247703097025935"><ele>16.0</ele><time>2026-04-24T09:51:02Z</time></trkpt><trkpt lat="41.00633903915449" lon="14.247791180597842"><ele>16.0</ele><time>2026-04-24T09:51:03Z</time></trkpt><trkpt lat="41.00632452006284" lon="14.247929683576858"><ele>16.0</ele><time>2026-04-24T09:51:04Z</time></trkpt><trkpt lat="41.0062658788939" lon="14.248019980275828"><ele>16.0</ele><time>2026-04-24T09:51:05Z</time></trkpt><trkpt lat="41.00624531853347" lon="14.248136680788217"><ele>16.0</ele><time>2026-04-24T09:51:06Z</time></trkpt><trkpt lat="41.00623609193356" lon="14.248271757403604"><ele>16.0</ele><time>2026-04-24T09:51:07Z</time></trkpt><trkpt lat="41.006237496261775" lon="14.248402092487819"><ele>16.25</ele><time>2026-04-24T09:51:08Z</time></trkpt><trkpt lat="41.00625412695787" lon="14.248544499978932"><ele>16.5</ele><time>2026-04-24T09:51:09Z</time></trkpt><trkpt lat="41.00630147180265" lon="14.248685568293562"><ele>16.75</ele><time>2026-04-24T09:51:10Z</time></trkpt><trkpt lat="41.006369424005875" lon="14.248807465574993"><ele>17.0</ele><time>2026-04-24T09:51:11Z</time></trkpt><trkpt lat="41.006445522188336" lon="14.248915305169135"><ele>17.2</ele><time>2026-04-24T09:51:12Z</time></trkpt><trkpt lat="41.00650646636972" lon="14.249029373319491"><ele>17.4</ele><time>2026-04-24T09:51:13Z</time></trkpt><trkpt lat="41.00654495575785" lon="14.24915489190686"><ele>17.6</ele><time>2026-04-24T09:51:14Z</time></trkpt><trkpt lat="41.00657868185545" lon="14.249283425928361"><ele>17.8</ele><time>2026-04-24T09:51:15Z</time></trkpt><trkpt lat="41.00660813428925" lon="14.249415219537296"><ele>18.0</ele><time>2026-04-24T09:51:16Z</time></trkpt><trkpt lat="41.00663480151364" lon="14.249556312322085"><ele>18.0</ele><time>2026-04-24T09:51:17Z</time></trkpt><trkpt lat="41.0066587834534" lon="14.24970600602027"><ele>18.0</ele><time>2026-04-24T09:51:18Z</time></trkpt><trkpt lat="41.00669693210552" lon="14.249854280917049"><ele>18.0</ele><time>2026-04-24T09:51:19Z</time></trkpt><trkpt lat="41.00671587930557" lon="14.25000610425889"><ele>18.0</ele><time>2026-04-24T09:51:20Z</time></trkpt><trkpt lat="41.00671675883324" lon="14.25016001957486"><ele>18.0</ele><time>2026-04-24T09:51:21Z</time></trkpt><trkpt lat="41.00673276112435" lon="14.250311829914128"><ele>18.0</ele><time>2026-04-24T09:51:22Z</time></trkpt><trkpt lat="41.00674985606637" lon="14.25045678653743"><ele>18.0</ele><time>2026-04-24T09:51:23Z</time></trkpt><trkpt lat="41.00676772580997" lon="14.250585101865015"><ele>18.0</ele><time>2026-04-24T09:51:24Z</time></trkpt><trkpt lat="41.00678788702375" lon="14.250705041421696"><ele>18.0</ele><time>2026-04-24T09:51:25Z</time></trkpt><trkpt lat="41.006807584892435" lon="14.25081539270357"><ele>18.0</ele><time>2026-04-24T09:51:26Z</time></trkpt><trkpt lat="41.00682362079046" lon="14.250905229264262"><ele>18.0</ele><time>2026-04-24T09:51:27Z</time></trkpt><trkpt lat="41.00684931992563" lon="14.250986494528144"><ele>18.0</ele><time>2026-04-24T09:51:28Z</time></trkpt><trkpt lat="41.006876308201946" lon="14.251104532654406"><ele>18.0</ele><time>2026-04-24T09:51:29.999Z</time></trkpt><trkpt lat="41.00693431516609" lon="14.25116191673187"><ele>18.0</ele><time>2026-04-24T09:51:32.999Z</time></trkpt><trkpt lat="41.00687415579824" lon="14.25112747988683"><ele>18.0</ele><time>2026-04-24T09:51:38.999Z</time></trkpt><trkpt lat="41.006845857253495" lon="14.250943045539866"><ele>18.0</ele><time>2026-04-24T09:51:39.999Z</time></trkpt><trkpt lat="41.006829840178845" lon="14.250774414280917"><ele>18.0</ele><time>2026-04-24T09:51:41.999Z</time></trkpt><trkpt lat="41.00681548976881" lon="14.250656648350768"><ele>18.0</ele><time>2026-04-24T09:51:42.999Z</time></trkpt><trkpt lat="41.00679639295736" lon="14.250549510615862"><ele>18.0</ele><time>2026-04-24T09:51:43.999Z</time></trkpt><trkpt lat="41.00678156172383" lon="14.25045308008171"><ele>18.0</ele><time>2026-04-24T09:51:44.999Z</time></trkpt><trkpt lat="41.00676835055205" lon="14.25034767105254"><ele>18.2</ele><time>2026-04-24T09:51:45.999Z</time></trkpt><trkpt lat="41.00675018067858" lon="14.250233584414614"><ele>18.4</ele><time>2026-04-24T09:51:46.999Z</time></trkpt><trkpt lat="41.00672976696988" lon="14.250111023430263"><ele>18.599999999999998</ele><time>2026-04-24T09:51:47.999Z</time></trkpt><trkpt lat="41.00670858211456" lon="14.249981763671679"><ele>18.8</ele><time>2026-04-24T09:51:48.999Z</time></trkpt><trkpt lat="41.006693600092355" lon="14.249856506346106"><ele>19.0</ele><time>2026-04-24T09:51:49.999Z</time></trkpt><trkpt lat="41.006684610965245" lon="14.249730029154817"><ele>19.0</ele><time>2026-04-24T09:51:50.999Z</time></trkpt><trkpt lat="41.00667357161007" lon="14.249616592114664"><ele>19.0</ele><time>2026-04-24T09:51:51.999Z</time></trkpt><trkpt lat="41.00665688427872" lon="14.24948920549816"><ele>19.0</ele><time>2026-04-24T09:51:52.999Z</time></trkpt><trkpt lat="41.00663257856551" lon="14.249362809917356"><ele>19.0</ele><time>2026-04-24T09:51:53.999Z</time></trkpt><trkpt lat="41.006606258273386" lon="14.249237053235325"><ele>19.0</ele><time>2026-04-24T09:51:54.999Z</time></trkpt><trkpt lat="41.00656478019173" lon="14.249113050032685"><ele>18.8</ele><time>2026-04-24T09:51:55.999Z</time></trkpt><trkpt lat="41.00650981269092" lon="14.248994433243485"><ele>18.599999999999998</ele><time>2026-04-24T09:51:56.999Z</time></trkpt><trkpt lat="41.00644348169199" lon="14.248882050624042"><ele>18.4</ele><time>2026-04-24T09:51:57.999Z</time></trkpt><trkpt lat="41.00638663743482" lon="14.248777383340595"><ele>18.2</ele><time>2026-04-24T09:51:58.999Z</time></trkpt><trkpt lat="41.00634030588774" lon="14.248673656901193"><ele>18.0</ele><time>2026-04-24T09:51:59.999Z</time></trkpt><trkpt lat="41.0063095835536" lon="14.248567031599364"><ele>17.833333333333332</ele><time>2026-04-24T09:52:00.999Z</time></trkpt><trkpt lat="41.00628315773487" lon="14.248450828499669"><ele>17.666666666666668</ele><time>2026-04-24T09:52:01.999Z</time></trkpt><trkpt lat="41.00627039345683" lon="14.248336102993823"><ele>17.5</ele><time>2026-04-24T09:52:02.999Z</time></trkpt><trkpt lat="41.00628145790889" lon="14.248208454233557"><ele>17.333333333333336</ele><time>2026-04-24T09:52:03.999Z</time></trkpt><trkpt lat="41.0062990372492" lon="14.248089985754552"><ele>17.166666666666668</ele><time>2026-04-24T09:52:04.999Z</time></trkpt><trkpt lat="41.00631906557517" lon="14.24799463766208"><ele>17.0</ele><time>2026-04-24T09:52:05.999Z</time></trkpt><trkpt lat="41.00634853793189" lon="14.247913459786163"><ele>16.833333333333336</ele><time>2026-04-24T09:52:06.999Z</time></trkpt><trkpt lat="41.00638405158492" lon="14.247791512230464"><ele>16.666666666666668</ele><time>2026-04-24T09:52:08.999Z</time></trkpt><trkpt lat="41.00643224245924" lon="14.247704306510931"><ele>16.5</ele><time>2026-04-24T09:52:30.999Z</time></trkpt><trkpt lat="41.00640111455309" lon="14.247578389413365"><ele>16.333333333333332</ele><time>2026-04-24T09:52:32.999Z</time></trkpt><trkpt lat="41.00635235219303" lon="14.24751282727077"><ele>16.166666666666664</ele><time>2026-04-24T09:52:34Z</time></trkpt><trkpt lat="41.006277772192" lon="14.247441534704484"><ele>16.0</ele><time>2026-04-24T09:52:35Z</time></trkpt><trkpt lat="41.006198373343075" lon="14.247371181593591"><ele>16.0</ele><time>2026-04-24T09:52:36Z</time></trkpt><trkpt lat="41.00611388090982" lon="14.247298847435566"><ele>16.0</ele><time>2026-04-24T09:52:37Z</time></trkpt><trkpt lat="41.00601985808734" lon="14.24720982381722"><ele>16.0</ele><time>2026-04-24T09:52:38Z</time></trkpt><trkpt lat="41.00592295039372" lon="14.247118411216714"><ele>16.0</ele><time>2026-04-24T09:52:39Z</time></trkpt><trkpt lat="41.0058198154588" lon="14.247017825507772"><ele>16.5</ele><time>2026-04-24T09:52:40Z</time></trkpt><trkpt lat="41.00571247947431" lon="14.246911244927981"><ele>17.0</ele><time>2026-04-24T09:52:41Z</time></trkpt><trkpt lat="41.00560715308409" lon="14.246804267880709"><ele>17.5</ele><time>2026-04-24T09:52:42Z</time></trkpt><trkpt lat="41.00549722973088" lon="14.246691759797697"><ele>18.0</ele><time>2026-04-24T09:52:43Z</time></trkpt><trkpt lat="41.00538740081622" lon="14.246574281126797"><ele>18.0</ele><time>2026-04-24T09:52:44Z</time></trkpt><trkpt lat="41.00515581229567" lon="14.246344980020544"><ele>18.0</ele><time>2026-04-24T09:52:46Z</time></trkpt><trkpt lat="41.0050431836906" lon="14.246229876969398"><ele>18.0</ele><time>2026-04-24T09:52:47Z</time></trkpt><trkpt lat="41.00493545279111" lon="14.246117312531045"><ele>17.75</ele><time>2026-04-24T09:52:48Z</time></trkpt><trkpt lat="41.00482882571807" lon="14.246001168000564"><ele>17.5</ele><time>2026-04-24T09:52:49Z</time></trkpt><trkpt lat="41.004719743551405" lon="14.245889474269278"><ele>17.25</ele><time>2026-04-24T09:52:50Z</time></trkpt><trkpt lat="41.00460903706484" lon="14.245778102652993"><ele>17.0</ele><time>2026-04-24T09:52:51Z</time></trkpt><trkpt lat="41.00449753260434" lon="14.245665109847804"><ele>17.0</ele><time>2026-04-24T09:52:52Z</time></trkpt><trkpt lat="41.004385613756924" lon="14.245549760184788"><ele>17.0</ele><time>2026-04-24T09:52:53Z</time></trkpt><trkpt lat="41.004270878109125" lon="14.245434063575999"><ele>17.0</ele><time>2026-04-24T09:52:54Z</time></trkpt><trkpt lat="41.00415539491849" lon="14.245320728487696"><ele>17.0</ele><time>2026-04-24T09:52:55Z</time></trkpt><trkpt lat="41.004039308994045" lon="14.245205098017335"><ele>17.0</ele><time>2026-04-24T09:52:56Z</time></trkpt><trkpt lat="41.00392509177695" lon="14.245091825215367"><ele>17.0</ele><time>2026-04-24T09:52:57Z</time></trkpt><trkpt lat="41.003818483961815" lon="14.24498150277541"><ele>17.0</ele><time>2026-04-24T09:52:58Z</time></trkpt><trkpt lat="41.00372337254523" lon="14.244884749424608"><ele>17.0</ele><time>2026-04-24T09:52:59Z</time></trkpt><trkpt lat="41.00364019230875" lon="14.244799599803486"><ele>17.166666666666668</ele><time>2026-04-24T09:53:00Z</time></trkpt><trkpt lat="41.003570415402294" lon="14.244729531927081"><ele>17.333333333333336</ele><time>2026-04-24T09:53:01Z</time></trkpt><trkpt lat="41.00351178481427" lon="14.244673043571513"><ele>17.5</ele><time>2026-04-24T09:53:02Z</time></trkpt><trkpt lat="41.00343153585051" lon="14.244604140501572"><ele>17.666666666666668</ele><time>2026-04-24T09:53:04Z</time></trkpt><trkpt lat="41.003355168158244" lon="14.244540762839103"><ele>17.833333333333332</ele><time>2026-04-24T09:53:07Z</time></trkpt><trkpt lat="41.00326409701594" lon="14.244564127028838"><ele>18.0</ele><time>2026-04-24T09:53:09Z</time></trkpt><trkpt lat="41.00315890868521" lon="14.244623328686677"><ele>18.25</ele><time>2026-04-24T09:53:11Z</time></trkpt><trkpt lat="41.00304221357223" lon="14.244640066221915"><ele>18.5</ele><time>2026-04-24T09:53:13Z</time></trkpt><trkpt lat="41.00296517011187" lon="14.244662537207109"><ele>18.75</ele><time>2026-04-24T09:53:15Z</time></trkpt><trkpt lat="41.00296134411385" lon="14.244862238145203"><ele>19.0</ele><time>2026-04-24T09:53:21Z</time></trkpt><trkpt lat="41.003047237225914" lon="14.244976787586753"><ele>19.2</ele><time>2026-04-24T09:53:23Z</time></trkpt><trkpt lat="41.00310172811181" lon="14.24504366298196"><ele>19.4</ele><time>2026-04-24T09:53:24Z</time></trkpt><trkpt lat="41.00317249146282" lon="14.245129479816212"><ele>19.6</ele><time>2026-04-24T09:53:25Z</time></trkpt><trkpt lat="41.00324709608264" lon="14.245218165142543"><ele>19.8</ele><time>2026-04-24T09:53:26Z</time></trkpt><trkpt lat="41.00332334110209" lon="14.24530783165674"><ele>20.0</ele><time>2026-04-24T09:53:27Z</time></trkpt><trkpt lat="41.00340743270165" lon="14.245406725937707"><ele>19.5</ele><time>2026-04-24T09:53:28Z</time></trkpt><trkpt lat="41.00349476315561" lon="14.245509429268989"><ele>19.0</ele><time>2026-04-24T09:53:29Z</time></trkpt><trkpt lat="41.00359451327982" lon="14.245597979347181"><ele>18.5</ele><time>2026-04-24T09:53:30Z</time></trkpt><trkpt lat="41.0036838853962" lon="14.24570980514099"><ele>18.0</ele><time>2026-04-24T09:53:31Z</time></trkpt><trkpt lat="41.00379009532284" lon="14.245831166655853"><ele>18.0</ele><time>2026-04-24T09:53:32Z</time></trkpt><trkpt lat="41.003879614664825" lon="14.245967374841483"><ele>18.0</ele><time>2026-04-24T09:53:33Z</time></trkpt><trkpt lat="41.00399577811306" lon="14.246076170014426"><ele>18.0</ele><time>2026-04-24T09:53:34Z</time></trkpt><trkpt lat="41.0041020943538" lon="14.246209098320072"><ele>18.0</ele><time>2026-04-24T09:53:35Z</time></trkpt><trkpt lat="41.00421030046159" lon="14.246358627731231"><ele>17.75</ele><time>2026-04-24T09:53:36Z</time></trkpt><trkpt lat="41.00431902101378" lon="14.24648883527294"><ele>17.5</ele><time>2026-04-24T09:53:37Z</time></trkpt><trkpt lat="41.00441698088559" lon="14.2466050111962"><ele>17.25</ele><time>2026-04-24T09:53:38Z</time></trkpt><trkpt lat="41.00450358788023" lon="14.246678436082606"><ele>17.0</ele><time>2026-04-24T09:53:39Z</time></trkpt><trkpt lat="41.004572541467724" lon="14.246787799202203"><ele>17.0</ele><time>2026-04-24T09:53:40Z</time></trkpt><trkpt lat="41.00462391346156" lon="14.246910931963102"><ele>17.0</ele><time>2026-04-24T09:53:41Z</time></trkpt><trkpt lat="41.004650591677276" lon="14.247053910657423"><ele>17.0</ele><time>2026-04-24T09:53:42Z</time></trkpt><trkpt lat="41.00466201357383" lon="14.247217058637185"><ele>17.0</ele><time>2026-04-24T09:53:43Z</time></trkpt><trkpt lat="41.00466387748954" lon="14.247390109763593"><ele>17.0</ele><time>2026-04-24T09:53:44Z</time></trkpt><trkpt lat="41.004671419482676" lon="14.24757373031972"><ele>17.0</ele><time>2026-04-24T09:53:45Z</time></trkpt><trkpt lat="41.004697324069454" lon="14.247749854768092"><ele>17.0</ele><time>2026-04-24T09:53:46Z</time></trkpt><trkpt lat="41.00473611687709" lon="14.247904930947085"><ele>17.0</ele><time>2026-04-24T09:53:47Z</time></trkpt><trkpt lat="41.00477363458909" lon="14.248044413609774"><ele>17.25</ele><time>2026-04-24T09:53:48Z</time></trkpt><trkpt lat="41.00481893881154" lon="14.248188413237594"><ele>17.5</ele><time>2026-04-24T09:53:49Z</time></trkpt><trkpt lat="41.004867076080416" lon="14.248340459868508"><ele>17.75</ele><time>2026-04-24T09:53:50Z</time></trkpt><trkpt lat="41.00491458301665" lon="14.248488864484008"><ele>18.0</ele><time>2026-04-24T09:53:51Z</time></trkpt><trkpt lat="41.0049584116808" lon="14.248632774410149"><ele>18.0</ele><time>2026-04-24T09:53:52Z</time></trkpt><trkpt lat="41.00499381225203" lon="14.248773868733835"><ele>18.0</ele><time>2026-04-24T09:53:53Z</time></trkpt><trkpt lat="41.005012424982816" lon="14.2489033924401"><ele>18.0</ele><time>2026-04-24T09:53:54Z</time></trkpt><trkpt lat="41.00501247417679" lon="14.249033127986188"><ele>18.0</ele><time>2026-04-24T09:53:55Z</time></trkpt><trkpt lat="41.00499180784043" lon="14.249162833787906"><ele>18.0</ele><time>2026-04-24T09:53:56Z</time></trkpt><trkpt lat="41.00495404728564" lon="14.249290602302592"><ele>18.2</ele><time>2026-04-24T09:53:57Z</time></trkpt><trkpt lat="41.004904753391955" lon="14.249417843064235"><ele>18.4</ele><time>2026-04-24T09:53:58Z</time></trkpt><trkpt lat="41.00483905401008" lon="14.249533238647244"><ele>18.599999999999998</ele><time>2026-04-24T09:53:59Z</time></trkpt><trkpt lat="41.004756242628154" lon="14.249636031832223"><ele>18.8</ele><time>2026-04-24T09:54:00Z</time></trkpt><trkpt lat="41.004667589983924" lon="14.249735031723048"><ele>19.0</ele><time>2026-04-24T09:54:01Z</time></trkpt><trkpt lat="41.004573913551056" lon="14.24982826132622"><ele>19.0</ele><time>2026-04-24T09:54:02Z</time></trkpt><trkpt lat="41.00447491122168" lon="14.249900791631722"><ele>19.0</ele><time>2026-04-24T09:54:03Z</time></trkpt><trkpt lat="41.004352583321506" lon="14.249937702470678"><ele>19.0</ele><time>2026-04-24T09:54:03.999Z</time></trkpt><trkpt lat="41.00422997576147" lon="14.249933692015263"><ele>19.0</ele><time>2026-04-24T09:54:04.999Z</time></trkpt><trkpt lat="41.004112384769904" lon="14.249920483601205"><ele>18.75</ele><time>2026-04-24T09:54:05.999Z</time></trkpt><trkpt lat="41.00399828468394" lon="14.249858945668912"><ele>18.5</ele><time>2026-04-24T09:54:06.999Z</time></trkpt><trkpt lat="41.003878595530004" lon="14.249786564880964"><ele>18.25</ele><time>2026-04-24T09:54:07.999Z</time></trkpt><trkpt lat="41.003753533293946" lon="14.249720090239167"><ele>18.0</ele><time>2026-04-24T09:54:08.999Z</time></trkpt><trkpt lat="41.00361584514008" lon="14.249668540538181"><ele>18.0</ele><time>2026-04-24T09:54:09.999Z</time></trkpt><trkpt lat="41.0034722477384" lon="14.249632385486876"><ele>18.0</ele><time>2026-04-24T09:54:10.999Z</time></trkpt><trkpt lat="41.003322590148876" lon="14.249616265350713"><ele>18.0</ele><time>2026-04-24T09:54:11.999Z</time></trkpt><trkpt lat="41.003167624389796" lon="14.249624269512168"><ele>18.0</ele><time>2026-04-24T09:54:12.999Z</time></trkpt><trkpt lat="41.00301087671937" lon="14.249649743031878"><ele>18.0</ele><time>2026-04-24T09:54:13.999Z</time></trkpt><trkpt lat="41.0028550736589" lon="14.249671664755752"><ele>18.0</ele><time>2026-04-24T09:54:14.999Z</time></trkpt><trkpt lat="41.002712169749095" lon="14.249678819069805"><ele>18.0</ele><time>2026-04-24T09:54:15.999Z</time></trkpt><trkpt lat="41.00258227342053" lon="14.249677870306455"><ele>18.0</ele><time>2026-04-24T09:54:16.999Z</time></trkpt><trkpt lat="41.0024661653612" lon="14.249674098540215"><ele>18.0</ele><time>2026-04-24T09:54:17.999Z</time></trkpt><trkpt lat="41.00236388978372" lon="14.24967478478029"><ele>18.0</ele><time>2026-04-24T09:54:18.999Z</time></trkpt><trkpt lat="41.00226843844986" lon="14.249680731365558"><ele>18.0</ele><time>2026-04-24T09:54:19.999Z</time></trkpt><trkpt lat="41.002177308825395" lon="14.249708133769335"><ele>18.0</ele><time>2026-04-24T09:54:20.999Z</time></trkpt><trkpt lat="41.00209108125386" lon="14.249762024784314"><ele>18.0</ele><time>2026-04-24T09:54:21.999Z</time></trkpt><trkpt lat="41.001997967837426" lon="14.249834233966508"><ele>18.0</ele><time>2026-04-24T09:54:22.999Z</time></trkpt><trkpt lat="41.0019046788893" lon="14.249916767194932"><ele>18.0</ele><time>2026-04-24T09:54:23.999Z</time></trkpt><trkpt lat="41.00180904002316" lon="14.250002064909353"><ele>18.0</ele><time>2026-04-24T09:54:24.999Z</time></trkpt><trkpt lat="41.001705838536026" lon="14.250083362490386"><ele>17.75</ele><time>2026-04-24T09:54:25.999Z</time></trkpt><trkpt lat="41.001594610438566" lon="14.250164686727903"><ele>17.5</ele><time>2026-04-24T09:54:26.999Z</time></trkpt><trkpt lat="41.00147898013854" lon="14.250244798776636"><ele>17.25</ele><time>2026-04-24T09:54:27.999Z</time></trkpt><trkpt lat="41.001365846260015" lon="14.250325635188672"><ele>17.0</ele><time>2026-04-24T09:54:28.999Z</time></trkpt><trkpt lat="41.001255234346225" lon="14.250410096841739"><ele>17.0</ele><time>2026-04-24T09:54:29.999Z</time></trkpt><trkpt lat="41.001150533801564" lon="14.250500379014097"><ele>17.0</ele><time>2026-04-24T09:54:30.999Z</time></trkpt><trkpt lat="41.001044448861535" lon="14.25057991680515"><ele>17.0</ele><time>2026-04-24T09:54:31.999Z</time></trkpt><trkpt lat="41.00093772328886" lon="14.25066198917411"><ele>17.0</ele><time>2026-04-24T09:54:32.999Z</time></trkpt><trkpt lat="41.00083494159207" lon="14.250744516753475"><ele>17.25</ele><time>2026-04-24T09:54:33.999Z</time></trkpt><trkpt lat="41.000728980348796" lon="14.250831841396899"><ele>17.5</ele><time>2026-04-24T09:54:34.999Z</time></trkpt><trkpt lat="41.000623500689024" lon="14.250916347958826"><ele>17.75</ele><time>2026-04-24T09:54:35.999Z</time></trkpt><trkpt lat="41.0005130597135" lon="14.250994146461005"><ele>18.0</ele><time>2026-04-24T09:54:36.999Z</time></trkpt><trkpt lat="41.00040817975549" lon="14.251085547590664"><ele>18.0</ele><time>2026-04-24T09:54:37.999Z</time></trkpt><trkpt lat="41.000299738555206" lon="14.251169238894802"><ele>18.0</ele><time>2026-04-24T09:54:38.999Z</time></trkpt><trkpt lat="41.00018310647226" lon="14.251258291352768"><ele>18.0</ele><time>2026-04-24T09:54:40.001Z</time></trkpt><trkpt lat="41.00005205455199" lon="14.251354187002027"><ele>18.0</ele><time>2026-04-24T09:54:41.001Z</time></trkpt><trkpt lat="40.99990925405998" lon="14.251461774223944"><ele>17.666666666666668</ele><time>2026-04-24T09:54:42.001Z</time></trkpt><trkpt lat="40.99975699780136" lon="14.251583757051892"><ele>17.333333333333336</ele><time>2026-04-24T09:54:43.001Z</time></trkpt><trkpt lat="40.99959506268473" lon="14.251707288806024"><ele>17.0</ele><time>2026-04-24T09:54:44.001Z</time></trkpt><trkpt lat="40.999426777745896" lon="14.251823486784618"><ele>17.0</ele><time>2026-04-24T09:54:45.001Z</time></trkpt><trkpt lat="40.99926265169108" lon="14.251956542500048"><ele>17.0</ele><time>2026-04-24T09:54:46.001Z</time></trkpt><trkpt lat="40.99910498897108" lon="14.252085617763521"><ele>17.0</ele><time>2026-04-24T09:54:47.001Z</time></trkpt><trkpt lat="40.99896154160544" lon="14.252196588490404"><ele>17.25</ele><time>2026-04-24T09:54:48.001Z</time></trkpt><trkpt lat="40.99873270592742" lon="14.252364643066961"><ele>17.5</ele><time>2026-04-24T09:54:50.001Z</time></trkpt><trkpt lat="40.99865153415721" lon="14.252418587006154"><ele>17.75</ele><time>2026-04-24T09:54:51.001Z</time></trkpt><trkpt lat="40.998569944393594" lon="14.252453936150728"><ele>18.0</ele><time>2026-04-24T09:54:52Z</time></trkpt><trkpt lat="40.9985062549128" lon="14.252507703913778"><ele>18.0</ele><time>2026-04-24T09:54:53Z</time></trkpt><trkpt lat="40.99840971140407" lon="14.252502582216785"><ele>18.0</ele><time>2026-04-24T09:54:54Z</time></trkpt><trkpt lat="40.99833211258242" lon="14.252500420133863"><ele>18.0</ele><time>2026-04-24T09:54:55Z</time></trkpt><trkpt lat="40.998258631375506" lon="14.252500495556244"><ele>18.0</ele><time>2026-04-24T09:54:56Z</time></trkpt><trkpt lat="40.9981742260649" lon="14.252502399060027"><ele>18.0</ele><time>2026-04-24T09:54:57Z</time></trkpt><trkpt lat="40.99808902973536" lon="14.252505553384633"><ele>18.0</ele><time>2026-04-24T09:54:58Z</time></trkpt><trkpt lat="40.99800068869147" lon="14.252505701265026"><ele>18.5</ele><time>2026-04-24T09:54:59Z</time></trkpt><trkpt lat="40.997903332849546" lon="14.252496453760855"><ele>19.0</ele><time>2026-04-24T09:55:00Z</time></trkpt><trkpt lat="40.99780381487347" lon="14.25248622856606"><ele>19.5</ele><time>2026-04-24T09:55:01Z</time></trkpt><trkpt lat="40.99771357332324" lon="14.252478762892665"><ele>20.0</ele><time>2026-04-24T09:55:02Z</time></trkpt><trkpt lat="40.99754634920796" lon="14.252467459605343"><ele>20.0</ele><time>2026-04-24T09:55:04Z</time></trkpt><trkpt lat="40.99747637826436" lon="14.252458897559716"><ele>20.0</ele><time>2026-04-24T09:55:05Z</time></trkpt><trkpt lat="40.99740517063445" lon="14.252452826012586"><ele>20.0</ele><time>2026-04-24T09:55:06Z</time></trkpt><trkpt lat="40.997337365007546" lon="14.252443041753255"><ele>20.0</ele><time>2026-04-24T09:55:07Z</time></trkpt><trkpt lat="40.99726894664882" lon="14.2524199075152"><ele>20.0</ele><time>2026-04-24T09:55:08Z</time></trkpt><trkpt lat="40.997199360134736" lon="14.252402178166076"><ele>20.0</ele><time>2026-04-24T09:55:09Z</time></trkpt><trkpt lat="40.997124090627494" lon="14.25238040303411"><ele>20.0</ele><time>2026-04-24T09:55:10Z</time></trkpt><trkpt lat="40.99704413945005" lon="14.25236137352241"><ele>20.0</ele><time>2026-04-24T09:55:11Z</time></trkpt><trkpt lat="40.99696472392598" lon="14.252330870688452"><ele>20.0</ele><time>2026-04-24T09:55:12Z</time></trkpt><trkpt lat="40.99687960994557" lon="14.252311489868301"><ele>20.0</ele><time>2026-04-24T09:55:13Z</time></trkpt><trkpt lat="40.99679775843609" lon="14.252288469214115"><ele>20.0</ele><time>2026-04-24T09:55:14Z</time></trkpt><trkpt lat="40.996709221020474" lon="14.252278300011586"><ele>20.0</ele><time>2026-04-24T09:55:15Z</time></trkpt><trkpt lat="40.99661191105736" lon="14.25225088213888"><ele>20.0</ele><time>2026-04-24T09:55:16Z</time></trkpt><trkpt lat="40.996507748580704" lon="14.25220822397248"><ele>19.8</ele><time>2026-04-24T09:55:17Z</time></trkpt><trkpt lat="40.99642102156781" lon="14.25218687022012"><ele>19.6</ele><time>2026-04-24T09:55:18Z</time></trkpt><trkpt lat="40.996328112180905" lon="14.252141655210977"><ele>19.4</ele><time>2026-04-24T09:55:19Z</time></trkpt><trkpt lat="40.996237596184216" lon="14.252114762217388"><ele>19.2</ele><time>2026-04-24T09:55:20Z</time></trkpt><trkpt lat="40.99614627736333" lon="14.252096701018635"><ele>19.0</ele><time>2026-04-24T09:55:21Z</time></trkpt><trkpt lat="40.99604879580446" lon="14.252061143010456"><ele>19.0</ele><time>2026-04-24T09:55:22Z</time></trkpt><trkpt lat="40.99595359621084" lon="14.252017810029772"><ele>19.0</ele><time>2026-04-24T09:55:23Z</time></trkpt><trkpt lat="40.99584849423717" lon="14.251991903453842"><ele>19.0</ele><time>2026-04-24T09:55:24Z</time></trkpt><trkpt lat="40.99574807733758" lon="14.25195660625203"><ele>19.0</ele><time>2026-04-24T09:55:25Z</time></trkpt><trkpt lat="40.99565783133391" lon="14.251916111785233"><ele>19.0</ele><time>2026-04-24T09:55:26Z</time></trkpt><trkpt lat="40.99556702855685" lon="14.251905219483927"><ele>19.0</ele><time>2026-04-24T09:55:27Z</time></trkpt><trkpt lat="40.99549301000235" lon="14.251865254891987"><ele>19.0</ele><time>2026-04-24T09:55:28Z</time></trkpt><trkpt lat="40.99541633983502" lon="14.251845340560482"><ele>19.0</ele><time>2026-04-24T09:55:29Z</time></trkpt><trkpt lat="40.99535919887925" lon="14.251796753133238"><ele>19.0</ele><time>2026-04-24T09:55:30Z</time></trkpt><trkpt lat="40.99523656702144" lon="14.251772534871064"><ele>19.0</ele><time>2026-04-24T09:55:31Z</time></trkpt><trkpt lat="40.99513397296395" lon="14.251741533072671"><ele>19.0</ele><time>2026-04-24T09:55:32Z</time></trkpt><trkpt lat="40.99503570281968" lon="14.251709112721691"><ele>19.0</ele><time>2026-04-24T09:55:33Z</time></trkpt><trkpt lat="40.99493277361842" lon="14.251680833202235"><ele>19.0</ele><time>2026-04-24T09:55:34Z</time></trkpt><trkpt lat="40.994830590216786" lon="14.25164872368302"><ele>19.0</ele><time>2026-04-24T09:55:35Z</time></trkpt><trkpt lat="40.99474236083228" lon="14.25161712871633"><ele>19.0</ele><time>2026-04-24T09:55:36Z</time></trkpt><trkpt lat="40.99466670343694" lon="14.251591751286817"><ele>19.2</ele><time>2026-04-24T09:55:37Z</time></trkpt><trkpt lat="40.99460216752458" lon="14.25157291680783"><ele>19.4</ele><time>2026-04-24T09:55:38Z</time></trkpt><trkpt lat="40.994493456870465" lon="14.251582264595836"><ele>19.6</ele><time>2026-04-24T09:55:40Z</time></trkpt><trkpt lat="40.994388966460804" lon="14.251628978441115"><ele>19.8</ele><time>2026-04-24T09:55:42Z</time></trkpt><trkpt lat="40.99442365810477" lon="14.251820959489228"><ele>20.0</ele><time>2026-04-24T09:55:43Z</time></trkpt><trkpt lat="40.99441573387871" lon="14.251942127997756"><ele>20.0</ele><time>2026-04-24T09:55:44Z</time></trkpt><trkpt lat="40.99441699163014" lon="14.252060462865288"><ele>20.0</ele><time>2026-04-24T09:55:45Z</time></trkpt><trkpt lat="40.99442887900482" lon="14.252186621594346"><ele>20.0</ele><time>2026-04-24T09:55:46Z</time></trkpt><trkpt lat="40.99442910778421" lon="14.252324459771325"><ele>20.0</ele><time>2026-04-24T09:55:47Z</time></trkpt><trkpt lat="40.99443298639592" lon="14.252464474306548"><ele>20.0</ele><time>2026-04-24T09:55:48Z</time></trkpt><trkpt lat="40.99442420056884" lon="14.25260270029343"><ele>20.0</ele><time>2026-04-24T09:55:49Z</time></trkpt><trkpt lat="40.99444037446118" lon="14.252750515937961"><ele>20.0</ele><time>2026-04-24T09:55:50Z</time></trkpt><trkpt lat="40.99443634849976" lon="14.252907739447796"><ele>20.0</ele><time>2026-04-24T09:55:51Z</time></trkpt><trkpt lat="40.99443603764446" lon="14.253073378992186"><ele>20.0</ele><time>2026-04-24T09:55:52Z</time></trkpt><trkpt lat="40.99444563639191" lon="14.2532228826501"><ele>19.75</ele><time>2026-04-24T09:55:53Z</time></trkpt><trkpt lat="40.994449480218506" lon="14.253380772344167"><ele>19.5</ele><time>2026-04-24T09:55:54Z</time></trkpt><trkpt lat="40.99445557943711" lon="14.253538490326061"><ele>19.25</ele><time>2026-04-24T09:55:55Z</time></trkpt><trkpt lat="40.994460017474736" lon="14.253690652886224"><ele>19.0</ele><time>2026-04-24T09:55:56Z</time></trkpt><trkpt lat="40.99445742935566" lon="14.253840834015431"><ele>18.75</ele><time>2026-04-24T09:55:57Z</time></trkpt><trkpt lat="40.99443378117903" lon="14.253984834285587"><ele>18.5</ele><time>2026-04-24T09:55:58Z</time></trkpt><trkpt lat="40.994391809792745" lon="14.254129228956065"><ele>18.25</ele><time>2026-04-24T09:55:59Z</time></trkpt><trkpt lat="40.99434060540152" lon="14.254278151590777"><ele>18.0</ele><time>2026-04-24T09:56:00Z</time></trkpt><trkpt lat="40.9943525764347" lon="14.254440249782336"><ele>18.0</ele><time>2026-04-24T09:56:01Z</time></trkpt><trkpt lat="40.99435808693083" lon="14.254603004233573"><ele>18.0</ele><time>2026-04-24T09:56:01.999Z</time></trkpt><trkpt lat="40.99436227056451" lon="14.254760508142052"><ele>18.0</ele><time>2026-04-24T09:56:02.999Z</time></trkpt><trkpt lat="40.994362963023505" lon="14.254917781831738"><ele>18.0</ele><time>2026-04-24T09:56:03.999Z</time></trkpt><trkpt lat="40.99436602848879" lon="14.25508088135907"><ele>18.25</ele><time>2026-04-24T09:56:04.999Z</time></trkpt><trkpt lat="40.99436709528375" lon="14.255247673588665"><ele>18.5</ele><time>2026-04-24T09:56:05.999Z</time></trkpt><trkpt lat="40.99436686474174" lon="14.255419230465522"><ele>18.75</ele><time>2026-04-24T09:56:06.999Z</time></trkpt><trkpt lat="40.994368470280115" lon="14.255591365557706"><ele>19.0</ele><time>2026-04-24T09:56:07.999Z</time></trkpt><trkpt lat="40.99437549898552" lon="14.255766010826129"><ele>19.2</ele><time>2026-04-24T09:56:08.999Z</time></trkpt><trkpt lat="40.99438199011452" lon="14.255930645044101"><ele>19.4</ele><time>2026-04-24T09:56:09.999Z</time></trkpt><trkpt lat="40.994385282717964" lon="14.256078342745482"><ele>19.6</ele><time>2026-04-24T09:56:10.999Z</time></trkpt><trkpt lat="40.99438741760809" lon="14.256198454664185"><ele>19.8</ele><time>2026-04-24T09:56:11.999Z</time></trkpt><trkpt lat="40.99438252405424" lon="14.25629947215993"><ele>20.0</ele><time>2026-04-24T09:56:12.999Z</time></trkpt><trkpt lat="40.9943652878342" lon="14.256398228096348"><ele>19.8</ele><time>2026-04-24T09:56:13.999Z</time></trkpt><trkpt lat="40.994369397960405" lon="14.256492070642556"><ele>19.6</ele><time>2026-04-24T09:56:14.999Z</time></trkpt><trkpt lat="40.99424584710698" lon="14.256567426661341"><ele>19.4</ele><time>2026-04-24T09:56:15.999Z</time></trkpt><trkpt lat="40.99414975044657" lon="14.256604780878986"><ele>19.2</ele><time>2026-04-24T09:56:16.999Z</time></trkpt><trkpt lat="40.99404083142526" lon="14.256605680656744"><ele>19.0</ele><time>2026-04-24T09:56:17.999Z</time></trkpt><trkpt lat="40.99392927523195" lon="14.256606247288671"><ele>19.0</ele><time>2026-04-24T09:56:18.999Z</time></trkpt><trkpt lat="40.99381858899002" lon="14.256610262812377"><ele>19.0</ele><time>2026-04-24T09:56:19.999Z</time></trkpt><trkpt lat="40.99370420530787" lon="14.256614528451452"><ele>19.0</ele><time>2026-04-24T09:56:20.999Z</time></trkpt><trkpt lat="40.99358446380029" lon="14.25662869564753"><ele>19.0</ele><time>2026-04-24T09:56:21.999Z</time></trkpt><trkpt lat="40.99346122526293" lon="14.256616325240168"><ele>19.25</ele><time>2026-04-24T09:56:22.999Z</time></trkpt><trkpt lat="40.99333723469233" lon="14.256602068493635"><ele>19.5</ele><time>2026-04-24T09:56:23.999Z</time></trkpt><trkpt lat="40.99321603292576" lon="14.256590514936478"><ele>19.75</ele><time>2026-04-24T09:56:24.999Z</time></trkpt><trkpt lat="40.99309195383068" lon="14.2565813768868"><ele>20.0</ele><time>2026-04-24T09:56:25.999Z</time></trkpt><trkpt lat="40.992966280711954" lon="14.256568370761777"><ele>20.0</ele><time>2026-04-24T09:56:26.999Z</time></trkpt><trkpt lat="40.99283965552187" lon="14.256542295178921"><ele>20.0</ele><time>2026-04-24T09:56:27.999Z</time></trkpt><trkpt lat="40.99271538292065" lon="14.256505477568608"><ele>20.0</ele><time>2026-04-24T09:56:28.999Z</time></trkpt><trkpt lat="40.99259947408821" lon="14.256478528100768"><ele>20.0</ele><time>2026-04-24T09:56:29.999Z</time></trkpt><trkpt lat="40.99249670446818" lon="14.256453253782261"><ele>20.0</ele><time>2026-04-24T09:56:30.999Z</time></trkpt><trkpt lat="40.992391398082276" lon="14.25642255061571"><ele>20.0</ele><time>2026-04-24T09:56:31.999Z</time></trkpt><trkpt lat="40.992280552881844" lon="14.256366368165752"><ele>20.0</ele><time>2026-04-24T09:56:32.999Z</time></trkpt><trkpt lat="40.992178193084655" lon="14.256285509376916"><ele>20.0</ele><time>2026-04-24T09:56:33.999Z</time></trkpt><trkpt lat="40.992084782871615" lon="14.256172085669993"><ele>20.0</ele><time>2026-04-24T09:56:34.999Z</time></trkpt><trkpt lat="40.991975893929656" lon="14.256029421008083"><ele>20.0</ele><time>2026-04-24T09:56:35.999Z</time></trkpt><trkpt lat="40.99188473563065" lon="14.255908764049613"><ele>20.0</ele><time>2026-04-24T09:56:36.999Z</time></trkpt><trkpt lat="40.99178962670109" lon="14.25578639969365"><ele>20.0</ele><time>2026-04-24T09:56:37.999Z</time></trkpt><trkpt lat="40.991700546924314" lon="14.255662678900029"><ele>20.25</ele><time>2026-04-24T09:56:38.999Z</time></trkpt><trkpt lat="40.99160756744282" lon="14.255534155588117"><ele>20.5</ele><time>2026-04-24T09:56:39.999Z</time></trkpt><trkpt lat="40.99151240544366" lon="14.255394041813874"><ele>20.75</ele><time>2026-04-24T09:56:40.999Z</time></trkpt><trkpt lat="40.99141863518595" lon="14.255253914971671"><ele>21.0</ele><time>2026-04-24T09:56:41.999Z</time></trkpt><trkpt lat="40.99132511543468" lon="14.255122406830518"><ele>21.0</ele><time>2026-04-24T09:56:42.999Z</time></trkpt><trkpt lat="40.99123048688084" lon="14.254984362102903"><ele>21.0</ele><time>2026-04-24T09:56:43.999Z</time></trkpt><trkpt lat="40.99113375672615" lon="14.25484096851718"><ele>21.0</ele><time>2026-04-24T09:56:44.999Z</time></trkpt><trkpt lat="40.99103426980836" lon="14.254700130678986"><ele>21.0</ele><time>2026-04-24T09:56:46Z</time></trkpt><trkpt lat="40.99093145917014" lon="14.254567805003703"><ele>20.75</ele><time>2026-04-24T09:56:47Z</time></trkpt><trkpt lat="40.99082610306274" lon="14.254436924490083"><ele>20.5</ele><time>2026-04-24T09:56:48Z</time></trkpt><trkpt lat="40.990718037664294" lon="14.254304592480198"><ele>20.25</ele><time>2026-04-24T09:56:49Z</time></trkpt><trkpt lat="40.99061541148239" lon="14.254185454222302"><ele>20.0</ele><time>2026-04-24T09:56:50Z</time></trkpt><trkpt lat="40.99052204978254" lon="14.25407217823183"><ele>20.0</ele><time>2026-04-24T09:56:51Z</time></trkpt><trkpt lat="40.9904497369666" lon="14.253974509777775"><ele>20.0</ele><time>2026-04-24T09:56:52Z</time></trkpt><trkpt lat="40.9904000870975" lon="14.253887585058807"><ele>20.0</ele><time>2026-04-24T09:56:54Z</time></trkpt><trkpt lat="40.99045348470613" lon="14.25397517674048"><ele>20.0</ele><time>2026-04-24T09:57:05Z</time></trkpt><trkpt lat="40.990515358285215" lon="14.25405810938871"><ele>20.0</ele><time>2026-04-24T09:57:20Z</time></trkpt><trkpt lat="40.99058879452681" lon="14.254119348583657"><ele>20.0</ele><time>2026-04-24T09:57:22Z</time></trkpt><trkpt lat="40.99064398237303" lon="14.254182865535567"><ele>20.0</ele><time>2026-04-24T09:57:23Z</time></trkpt><trkpt lat="40.99069038158542" lon="14.2542561869929"><ele>20.0</ele><time>2026-04-24T09:57:24Z</time></trkpt><trkpt lat="40.99075645149748" lon="14.254362628671334"><ele>20.0</ele><time>2026-04-24T09:57:26Z</time></trkpt><trkpt lat="40.99081011951643" lon="14.254478735259278"><ele>20.0</ele><time>2026-04-24T09:57:28Z</time></trkpt><trkpt lat="40.99086349882021" lon="14.254545496576226"><ele>20.0</ele><time>2026-04-24T09:57:30Z</time></trkpt><trkpt lat="40.99096739852686" lon="14.254443812075705"><ele>19.6</ele><time>2026-04-24T09:57:31Z</time></trkpt><trkpt lat="40.99102754796621" lon="14.254393931205653"><ele>19.2</ele><time>2026-04-24T09:57:33Z</time></trkpt><trkpt lat="40.99107707336051" lon="14.254334444678573"><ele>18.8</ele><time>2026-04-24T09:57:35Z</time></trkpt><trkpt lat="40.99112582344965" lon="14.254250944426971"><ele>18.4</ele><time>2026-04-24T09:57:38Z</time></trkpt><trkpt lat="40.99091891362848" lon="14.254300694959973"><ele>18.0</ele><time>2026-04-24T09:58:10.999Z</time></trkpt><trkpt lat="40.99085490675142" lon="14.254354153251331"><ele>18.4</ele><time>2026-04-24T09:58:12.999Z</time></trkpt><trkpt lat="40.99075820458628" lon="14.254333863270421"><ele>18.8</ele><time>2026-04-24T09:58:14.999Z</time></trkpt><trkpt lat="40.99068472958678" lon="14.254257541520095"><ele>19.2</ele><time>2026-04-24T09:58:15.999Z</time></trkpt><trkpt lat="40.99062181574943" lon="14.254174805259533"><ele>19.6</ele><time>2026-04-24T09:58:16.999Z</time></trkpt><trkpt lat="40.99055022059068" lon="14.254085022865217"><ele>20.0</ele><time>2026-04-24T09:58:17.999Z</time></trkpt><trkpt lat="40.99046794797898" lon="14.253989309879325"><ele>19.5</ele><time>2026-04-24T09:58:18.999Z</time></trkpt><trkpt lat="40.990387206873685" lon="14.253890522484209"><ele>19.0</ele><time>2026-04-24T09:58:19.999Z</time></trkpt><trkpt lat="40.99030433152206" lon="14.253780354343398"><ele>18.5</ele><time>2026-04-24T09:58:20.999Z</time></trkpt><trkpt lat="40.99021971949456" lon="14.253666091823954"><ele>18.0</ele><time>2026-04-24T09:58:21.999Z</time></trkpt><trkpt lat="40.99013210694372" lon="14.25354100642082"><ele>18.0</ele><time>2026-04-24T09:58:22.999Z</time></trkpt><trkpt lat="40.99004522357665" lon="14.25341546615408"><ele>18.0</ele><time>2026-04-24T09:58:23.999Z</time></trkpt><trkpt lat="40.98995824262486" lon="14.25328533352466"><ele>18.0</ele><time>2026-04-24T09:58:24.999Z</time></trkpt><trkpt lat="40.98987758959653" lon="14.25314754478252"><ele>18.0</ele><time>2026-04-24T09:58:25.999Z</time></trkpt><trkpt lat="40.98979970144282" lon="14.253004231244129"><ele>18.25</ele><time>2026-04-24T09:58:26.999Z</time></trkpt><trkpt lat="40.98972471431182" lon="14.25287291786102"><ele>18.5</ele><time>2026-04-24T09:58:27.999Z</time></trkpt><trkpt lat="40.989651516164614" lon="14.252753428840824"><ele>18.75</ele><time>2026-04-24T09:58:28.999Z</time></trkpt><trkpt lat="40.98957313787298" lon="14.252636857709676"><ele>19.0</ele><time>2026-04-24T09:58:29.999Z</time></trkpt><trkpt lat="40.98949447652538" lon="14.252522028011446"><ele>19.0</ele><time>2026-04-24T09:58:30.999Z</time></trkpt><trkpt lat="40.989414018351226" lon="14.252406896625729"><ele>19.0</ele><time>2026-04-24T09:58:31.999Z</time></trkpt><trkpt lat="40.989328278317195" lon="14.252300177637455"><ele>19.0</ele><time>2026-04-24T09:58:32.999Z</time></trkpt><trkpt lat="40.98923897227344" lon="14.252195446007129"><ele>19.0</ele><time>2026-04-24T09:58:33.999Z</time></trkpt><trkpt lat="40.98914625652317" lon="14.252096183725806"><ele>19.5</ele><time>2026-04-24T09:58:34.999Z</time></trkpt><trkpt lat="40.98904982915365" lon="14.251992586962604"><ele>20.0</ele><time>2026-04-24T09:58:35.999Z</time></trkpt><trkpt lat="40.98896492539172" lon="14.251895316150119"><ele>20.5</ele><time>2026-04-24T09:58:36.999Z</time></trkpt><trkpt lat="40.9888438208002" lon="14.25176822159257"><ele>21.0</ele><time>2026-04-24T09:58:38.999Z</time></trkpt><trkpt lat="40.988748602639156" lon="14.251697917764156"><ele>21.0</ele><time>2026-04-24T09:58:40.999Z</time></trkpt><trkpt lat="40.98868198786137" lon="14.251667728905007"><ele>21.0</ele><time>2026-04-24T09:58:43.999Z</time></trkpt><trkpt lat="40.988703052882855" lon="14.251539144277285"><ele>21.0</ele><time>2026-04-24T09:58:44.999Z</time></trkpt><trkpt lat="40.98872779014621" lon="14.251398286135013"><ele>21.0</ele><time>2026-04-24T09:58:46.999Z</time></trkpt><trkpt lat="40.98874029702207" lon="14.251261393769905"><ele>21.0</ele><time>2026-04-24T09:58:48.999Z</time></trkpt><trkpt lat="40.988750013331675" lon="14.251106044061343"><ele>21.166666666666668</ele><time>2026-04-24T09:58:50.999Z</time></trkpt><trkpt lat="40.98876425802983" lon="14.250933348597473"><ele>21.333333333333332</ele><time>2026-04-24T09:58:53Z</time></trkpt><trkpt lat="40.98876588532354" lon="14.250836114521551"><ele>21.5</ele><time>2026-04-24T09:58:54Z</time></trkpt><trkpt lat="40.98877059683092" lon="14.25073755231353"><ele>21.666666666666664</ele><time>2026-04-24T09:58:55Z</time></trkpt><trkpt lat="40.9887835082557" lon="14.25064034836367"><ele>21.833333333333332</ele><time>2026-04-24T09:58:56Z</time></trkpt><trkpt lat="40.98879360497228" lon="14.250525787030083"><ele>22.0</ele><time>2026-04-24T09:58:57Z</time></trkpt><trkpt lat="40.988803905599745" lon="14.250405251380297"><ele>22.0</ele><time>2026-04-24T09:58:58Z</time></trkpt><trkpt lat="40.9888123101524" lon="14.250288816925682"><ele>22.0</ele><time>2026-04-24T09:58:59Z</time></trkpt><trkpt lat="40.98881678284195" lon="14.250174498724586"><ele>22.0</ele><time>2026-04-24T09:59:00Z</time></trkpt><trkpt lat="40.98882934440946" lon="14.25005865265838"><ele>22.0</ele><time>2026-04-24T09:59:01Z</time></trkpt><trkpt lat="40.98884685104608" lon="14.249943718683268"><ele>22.0</ele><time>2026-04-24T09:59:02Z</time></trkpt><trkpt lat="40.988863369078715" lon="14.249840436811871"><ele>22.0</ele><time>2026-04-24T09:59:03Z</time></trkpt><trkpt lat="40.98887962462194" lon="14.24974867751501"><ele>22.200000000000003</ele><time>2026-04-24T09:59:04Z</time></trkpt><trkpt lat="40.988896559797105" lon="14.24966733317159"><ele>22.4</ele><time>2026-04-24T09:59:05Z</time></trkpt><trkpt lat="40.98895042207095" lon="14.24944437397208"><ele>22.6</ele><time>2026-04-24T09:59:08Z</time></trkpt><trkpt lat="40.98897760139916" lon="14.24936370166883"><ele>22.799999999999997</ele><time>2026-04-24T09:59:09Z</time></trkpt><trkpt lat="40.98901986199591" lon="14.249281674245143"><ele>23.0</ele><time>2026-04-24T09:59:10Z</time></trkpt><trkpt lat="40.98906744111163" lon="14.249194335655982"><ele>23.0</ele><time>2026-04-24T09:59:11Z</time></trkpt><trkpt lat="40.98911793243959" lon="14.24911000508663"><ele>23.0</ele><time>2026-04-24T09:59:12Z</time></trkpt><trkpt lat="40.9891657391639" lon="14.249026115667721"><ele>23.0</ele><time>2026-04-24T09:59:13Z</time></trkpt><trkpt lat="40.9892103644907" lon="14.248943308894061"><ele>23.0</ele><time>2026-04-24T09:59:14Z</time></trkpt><trkpt lat="40.989251452819666" lon="14.248863969508866"><ele>23.0</ele><time>2026-04-24T09:59:15Z</time></trkpt><trkpt lat="40.989286547961875" lon="14.248783389024991"><ele>23.0</ele><time>2026-04-24T09:59:16Z</time></trkpt><trkpt lat="40.98930521412957" lon="14.248692209520145"><ele>22.0</ele><time>2026-04-24T09:59:17Z</time></trkpt><trkpt lat="40.98932445405266" lon="14.248546339670643"><ele>22.0</ele><time>2026-04-24T09:59:19Z</time></trkpt><trkpt lat="40.98931438279816" lon="14.248435951768103"><ele>22.0</ele><time>2026-04-24T09:59:21Z</time></trkpt><trkpt lat="40.98952364783863" lon="14.24851092385884"><ele>22.0</ele><time>2026-04-24T09:59:27Z</time></trkpt></trkseg></trk></gpx>